<?xml version='1.0' encoding='UTF-8'?><gpx version="1.1" creator="JPX - https://github.com/jenetics/jpx" xmlns="http://www.topografix.com/GPX/1/1"><trk><trkseg><trkpt lat="45.551737391072024" lon="11.419097407876594"><ele>54.0</ele><time>2026-03-26T13:43:52Z</time></trkpt><trkpt lat="45.55180178633096" lon="11.419112493699544"><ele>54.00000000000001</ele><time>2026-03-26T13:43:53Z</time></trkpt><trkpt lat="45.5518953765283" lon="11.419097620854881"><ele>54.00000000000001</ele><time>2026-03-26T13:43:54Z</time></trkpt><trkpt lat="45.551995946724816" lon="11.419093381751262"><ele>54.0</ele><time>2026-03-26T13:43:55Z</time></trkpt><trkpt lat="45.55210520397752" lon="11.419075437522476"><ele>54.0</ele><time>2026-03-26T13:43:56Z</time></trkpt><trkpt lat="45.55220366692974" lon="11.419043182592876"><ele>52.75</ele><time>2026-03-26T13:43:57Z</time></trkpt><trkpt lat="45.55231885726759" lon="11.418986512000348"><ele>51.5</ele><time>2026-03-26T13:43:58Z</time></trkpt><trkpt lat="45.552442559107504" lon="11.418912918937128"><ele>50.25</ele><time>2026-03-26T13:43:59Z</time></trkpt><trkpt lat="45.552552535125756" lon="11.418842021453932"><ele>49.0</ele><time>2026-03-26T13:44:00Z</time></trkpt><trkpt lat="45.55264625030472" lon="11.418787290243737"><ele>48.2</ele><time>2026-03-26T13:44:01Z</time></trkpt><trkpt lat="45.55274120971228" lon="11.418726073177915"><ele>47.400000000000006</ele><time>2026-03-26T13:44:02Z</time></trkpt><trkpt lat="45.552832268856115" lon="11.418663189797389"><ele>46.6</ele><time>2026-03-26T13:44:03Z</time></trkpt><trkpt lat="45.552906760512364" lon="11.418597748305132"><ele>45.8</ele><time>2026-03-26T13:44:04Z</time></trkpt><trkpt lat="45.55299359574356" lon="11.418500740553435"><ele>45.0</ele><time>2026-03-26T13:44:05Z</time></trkpt><trkpt lat="45.55307706770999" lon="11.418399851422347"><ele>45.0</ele><time>2026-03-26T13:44:06Z</time></trkpt><trkpt lat="45.553144169762895" lon="11.418269376622568"><ele>45.0</ele><time>2026-03-26T13:44:07Z</time></trkpt><trkpt lat="45.55319971087429" lon="11.418128587996344"><ele>45.0</ele><time>2026-03-26T13:44:08Z</time></trkpt><trkpt lat="45.553235713225554" lon="11.417987427823155"><ele>45.0</ele><time>2026-03-26T13:44:09Z</time></trkpt><trkpt lat="45.55324738859561" lon="11.417837095755754"><ele>45.0</ele><time>2026-03-26T13:44:09.999Z</time></trkpt><trkpt lat="45.553263690089196" lon="11.417730749790817"><ele>46.25</ele><time>2026-03-26T13:44:10.999Z</time></trkpt><trkpt lat="45.553283829723334" lon="11.417563177079868"><ele>47.5</ele><time>2026-03-26T13:44:11.999Z</time></trkpt><trkpt lat="45.55332725017281" lon="11.417389765226533"><ele>48.75</ele><time>2026-03-26T13:44:12.999Z</time></trkpt><trkpt lat="45.55337047727285" lon="11.417203476739697"><ele>50.0</ele><time>2026-03-26T13:44:13.999Z</time></trkpt><trkpt lat="45.553475627962875" lon="11.417123166615125"><ele>50.66666666666667</ele><time>2026-03-26T13:44:14.999Z</time></trkpt><trkpt lat="45.55327233584448" lon="11.416734376386996"><ele>51.33333333333333</ele><time>2026-03-26T13:44:15.999Z</time></trkpt><trkpt lat="45.55328645751117" lon="11.416589050620333"><ele>52.0</ele><time>2026-03-26T13:44:16.999Z</time></trkpt><trkpt lat="45.553312164875415" lon="11.416466275057847"><ele>52.0</ele><time>2026-03-26T13:44:17.999Z</time></trkpt><trkpt lat="45.55332556099794" lon="11.416321589597626"><ele>52.0</ele><time>2026-03-26T13:44:18.999Z</time></trkpt><trkpt lat="45.55329120089998" lon="11.416161635320172"><ele>52.0</ele><time>2026-03-26T13:44:19.999Z</time></trkpt><trkpt lat="45.55326245610677" lon="11.41602357396039"><ele>52.0</ele><time>2026-03-26T13:44:20.999Z</time></trkpt><trkpt lat="45.55328169625607" lon="11.41585575409884"><ele>52.0</ele><time>2026-03-26T13:44:21.999Z</time></trkpt><trkpt lat="45.55331019098443" lon="11.415722884361717"><ele>52.75</ele><time>2026-03-26T13:44:22.999Z</time></trkpt><trkpt lat="45.553315482514726" lon="11.415584449139855"><ele>53.5</ele><time>2026-03-26T13:44:23.999Z</time></trkpt><trkpt lat="45.553337393265735" lon="11.415410863987006"><ele>54.25</ele><time>2026-03-26T13:44:24.999Z</time></trkpt><trkpt lat="45.55336883531327" lon="11.415234022029008"><ele>55.0</ele><time>2026-03-26T13:44:25.999Z</time></trkpt><trkpt lat="45.55340301946635" lon="11.415087298286771"><ele>55.666666666666664</ele><time>2026-03-26T13:44:26.999Z</time></trkpt><trkpt lat="45.553413483695124" lon="11.41497556836447"><ele>56.33333333333333</ele><time>2026-03-26T13:44:27.999Z</time></trkpt><trkpt lat="45.55342321404581" lon="11.414844577293065"><ele>57.0</ele><time>2026-03-26T13:44:28.999Z</time></trkpt><trkpt lat="45.55343641942489" lon="11.414710470670759"><ele>57.66666666666667</ele><time>2026-03-26T13:44:29.999Z</time></trkpt><trkpt lat="45.553446599216606" lon="11.414588454137334"><ele>58.333333333333336</ele><time>2026-03-26T13:44:30.999Z</time></trkpt><trkpt lat="45.553444267368455" lon="11.41445695163136"><ele>59.0</ele><time>2026-03-26T13:44:31.999Z</time></trkpt><trkpt lat="45.553440892312814" lon="11.414329720308968"><ele>59.0</ele><time>2026-03-26T13:44:32.999Z</time></trkpt><trkpt lat="45.553421279654735" lon="11.414184481202206"><ele>59.0</ele><time>2026-03-26T13:44:33.999Z</time></trkpt><trkpt lat="45.55342625993454" lon="11.413997408058709"><ele>59.0</ele><time>2026-03-26T13:44:34.999Z</time></trkpt><trkpt lat="45.55344961712585" lon="11.413816519636649"><ele>59.0</ele><time>2026-03-26T13:44:35.999Z</time></trkpt><trkpt lat="45.55347009445637" lon="11.413677373698748"><ele>59.00000000000001</ele><time>2026-03-26T13:44:36.999Z</time></trkpt><trkpt lat="45.553465708564225" lon="11.413566104581564"><ele>59.0</ele><time>2026-03-26T13:44:37.999Z</time></trkpt><trkpt lat="45.55345271891288" lon="11.413418633806822"><ele>59.0</ele><time>2026-03-26T13:44:38.999Z</time></trkpt><trkpt lat="45.55345475053392" lon="11.413291141102851"><ele>59.0</ele><time>2026-03-26T13:44:39.999Z</time></trkpt><trkpt lat="45.55345592604214" lon="11.413154006411922"><ele>59.00000000000001</ele><time>2026-03-26T13:44:40.999Z</time></trkpt><trkpt lat="45.55344777646941" lon="11.413045018930449"><ele>59.0</ele><time>2026-03-26T13:44:41.999Z</time></trkpt><trkpt lat="45.55341196532576" lon="11.412879943915652"><ele>58.333333333333336</ele><time>2026-03-26T13:44:43.999Z</time></trkpt><trkpt lat="45.55339151220292" lon="11.412762039620318"><ele>57.66666666666667</ele><time>2026-03-26T13:44:44.999Z</time></trkpt><trkpt lat="45.55336929220425" lon="11.412645446287376"><ele>57.0</ele><time>2026-03-26T13:44:45.999Z</time></trkpt><trkpt lat="45.553344286779605" lon="11.412537060691427"><ele>56.33333333333333</ele><time>2026-03-26T13:44:46.999Z</time></trkpt><trkpt lat="45.553318256667495" lon="11.412433117403847"><ele>55.666666666666664</ele><time>2026-03-26T13:44:47.999Z</time></trkpt><trkpt lat="45.55326824424855" lon="11.412307076897452"><ele>55.0</ele><time>2026-03-26T13:44:48.999Z</time></trkpt><trkpt lat="45.55323560250761" lon="11.412178391902033"><ele>53.5</ele><time>2026-03-26T13:44:49.999Z</time></trkpt><trkpt lat="45.55318965181094" lon="11.412009646387554"><ele>52.0</ele><time>2026-03-26T13:44:50.998Z</time></trkpt><trkpt lat="45.553143665314145" lon="11.4118153097608"><ele>50.5</ele><time>2026-03-26T13:44:51.998Z</time></trkpt><trkpt lat="45.55310001988664" lon="11.411669022343414"><ele>49.0</ele><time>2026-03-26T13:44:52.998Z</time></trkpt><trkpt lat="45.55306501337743" lon="11.411538428968292"><ele>49.0</ele><time>2026-03-26T13:44:53.998Z</time></trkpt><trkpt lat="45.55303262124024" lon="11.411403579003787"><ele>49.0</ele><time>2026-03-26T13:44:54.998Z</time></trkpt><trkpt lat="45.55300021869405" lon="11.411277683937234"><ele>49.0</ele><time>2026-03-26T13:44:55.998Z</time></trkpt><trkpt lat="45.55305303086238" lon="11.411124183332772"><ele>49.0</ele><time>2026-03-26T13:44:56.998Z</time></trkpt><trkpt lat="45.553028919602085" lon="11.410991145556169"><ele>49.0</ele><time>2026-03-26T13:44:57.998Z</time></trkpt><trkpt lat="45.55301460461294" lon="11.410872090845603"><ele>48.2</ele><time>2026-03-26T13:44:58.998Z</time></trkpt><trkpt lat="45.553001017008874" lon="11.410735012293218"><ele>47.400000000000006</ele><time>2026-03-26T13:44:59.998Z</time></trkpt><trkpt lat="45.553001545320065" lon="11.410616102185331"><ele>46.6</ele><time>2026-03-26T13:45:00.998Z</time></trkpt><trkpt lat="45.55299688236303" lon="11.410504191394987"><ele>45.8</ele><time>2026-03-26T13:45:01.998Z</time></trkpt><trkpt lat="45.55299266225474" lon="11.410402908910362"><ele>45.0</ele><time>2026-03-26T13:45:02.998Z</time></trkpt><trkpt lat="45.55275270472215" lon="11.410320782749135"><ele>47.8</ele><time>2026-03-26T13:45:03.998Z</time></trkpt><trkpt lat="45.55272483932741" lon="11.410222536583845"><ele>50.6</ele><time>2026-03-26T13:45:04.998Z</time></trkpt><trkpt lat="45.55269977316229" lon="11.410074430767892"><ele>53.400000000000006</ele><time>2026-03-26T13:45:06.998Z</time></trkpt><trkpt lat="45.55266630123063" lon="11.409950601947397"><ele>56.2</ele><time>2026-03-26T13:45:07.998Z</time></trkpt><trkpt lat="45.55262251972551" lon="11.409824924436418"><ele>59.0</ele><time>2026-03-26T13:45:08.998Z</time></trkpt><trkpt lat="45.552579972890726" lon="11.409685143325705"><ele>57.66666666666667</ele><time>2026-03-26T13:45:09.998Z</time></trkpt><trkpt lat="45.55254668633734" lon="11.409575745665878"><ele>56.333333333333336</ele><time>2026-03-26T13:45:10.998Z</time></trkpt><trkpt lat="45.55249800831419" lon="11.409453870894449"><ele>55.0</ele><time>2026-03-26T13:45:11.998Z</time></trkpt><trkpt lat="45.552456119022956" lon="11.40935221226841"><ele>53.66666666666667</ele><time>2026-03-26T13:45:12.998Z</time></trkpt><trkpt lat="45.55242163758036" lon="11.409272704999113"><ele>52.333333333333336</ele><time>2026-03-26T13:45:13.998Z</time></trkpt><trkpt lat="45.55238793058855" lon="11.409184649449738"><ele>51.0</ele><time>2026-03-26T13:45:14.998Z</time></trkpt><trkpt lat="45.552339839199234" lon="11.409110880322904"><ele>51.0</ele><time>2026-03-26T13:45:15.998Z</time></trkpt><trkpt lat="45.55231667555356" lon="11.409024980970237"><ele>51.0</ele><time>2026-03-26T13:45:16.998Z</time></trkpt><trkpt lat="45.5523294665922" lon="11.408859735873971"><ele>51.0</ele><time>2026-03-26T13:45:18.998Z</time></trkpt><trkpt lat="45.55233338309895" lon="11.408725630365467"><ele>51.0</ele><time>2026-03-26T13:45:19.998Z</time></trkpt><trkpt lat="45.55233721980562" lon="11.408607024162702"><ele>51.0</ele><time>2026-03-26T13:45:20.998Z</time></trkpt><trkpt lat="45.552312952191386" lon="11.408459923050085"><ele>50.4</ele><time>2026-03-26T13:45:22.998Z</time></trkpt><trkpt lat="45.55226197040555" lon="11.408367043637302"><ele>49.8</ele><time>2026-03-26T13:45:24.998Z</time></trkpt><trkpt lat="45.55217079328479" lon="11.408200751166033"><ele>49.199999999999996</ele><time>2026-03-26T13:45:26.998Z</time></trkpt><trkpt lat="45.55207547107787" lon="11.408107452931349"><ele>48.599999999999994</ele><time>2026-03-26T13:45:28.997Z</time></trkpt><trkpt lat="45.55200776277669" lon="11.408044829546094"><ele>48.0</ele><time>2026-03-26T13:45:29.997Z</time></trkpt><trkpt lat="45.551935370817766" lon="11.408014959911727"><ele>49.8</ele><time>2026-03-26T13:45:30.997Z</time></trkpt><trkpt lat="45.551860477989756" lon="11.407869728885126"><ele>51.599999999999994</ele><time>2026-03-26T13:45:32.997Z</time></trkpt><trkpt lat="45.55180396839749" lon="11.407728025393041"><ele>53.400000000000006</ele><time>2026-03-26T13:45:35.997Z</time></trkpt><trkpt lat="45.5517521532275" lon="11.407634503062969"><ele>55.2</ele><time>2026-03-26T13:45:36.997Z</time></trkpt><trkpt lat="45.551687175964226" lon="11.407543487984608"><ele>57.0</ele><time>2026-03-26T13:45:37.997Z</time></trkpt><trkpt lat="45.55163490710603" lon="11.407444660399866"><ele>57.0</ele><time>2026-03-26T13:45:38.997Z</time></trkpt><trkpt lat="45.55158274590085" lon="11.407331377136307"><ele>57.0</ele><time>2026-03-26T13:45:39.997Z</time></trkpt><trkpt lat="45.55154093187149" lon="11.407215276458519"><ele>57.0</ele><time>2026-03-26T13:45:40.997Z</time></trkpt><trkpt lat="45.55149080086712" lon="11.407110782021274"><ele>57.0</ele><time>2026-03-26T13:45:41.997Z</time></trkpt><trkpt lat="45.55145198271763" lon="11.407013141291905"><ele>57.0</ele><time>2026-03-26T13:45:42.997Z</time></trkpt><trkpt lat="45.551431270993916" lon="11.406913472802037"><ele>57.0</ele><time>2026-03-26T13:45:43.997Z</time></trkpt><trkpt lat="45.551418826384996" lon="11.406821589414543"><ele>56.166666666666664</ele><time>2026-03-26T13:45:44.997Z</time></trkpt><trkpt lat="45.55137301834363" lon="11.406722321778975"><ele>55.33333333333333</ele><time>2026-03-26T13:45:46.997Z</time></trkpt><trkpt lat="45.55127064428089" lon="11.40669704427607"><ele>54.5</ele><time>2026-03-26T13:45:48.997Z</time></trkpt><trkpt lat="45.55122115176531" lon="11.406635863142018"><ele>53.666666666666664</ele><time>2026-03-26T13:45:50Z</time></trkpt><trkpt lat="45.55118220572823" lon="11.406535155837858"><ele>52.83333333333333</ele><time>2026-03-26T13:45:52Z</time></trkpt><trkpt lat="45.551152340552015" lon="11.40643460070359"><ele>52.0</ele><time>2026-03-26T13:45:54Z</time></trkpt><trkpt lat="45.55110526837998" lon="11.406331781591188"><ele>54.166666666666664</ele><time>2026-03-26T13:45:56Z</time></trkpt><trkpt lat="45.551044649252425" lon="11.406307142909863"><ele>56.33333333333333</ele><time>2026-03-26T13:46:52.999Z</time></trkpt><trkpt lat="45.550977537052894" lon="11.406337953804304"><ele>58.5</ele><time>2026-03-26T13:49:28.998Z</time></trkpt><trkpt lat="45.55091107945919" lon="11.406415620725431"><ele>60.66666666666667</ele><time>2026-03-26T13:49:30.998Z</time></trkpt><trkpt lat="45.55087041151014" lon="11.406519604892825"><ele>62.833333333333336</ele><time>2026-03-26T13:49:32.998Z</time></trkpt><trkpt lat="45.550879244558246" lon="11.406639142013583"><ele>65.0</ele><time>2026-03-26T13:49:34.998Z</time></trkpt><trkpt lat="45.55073854608774" lon="11.40660708554206"><ele>66.85714285714286</ele><time>2026-03-26T13:49:45.998Z</time></trkpt><trkpt lat="45.55073272061905" lon="11.406730145815875"><ele>68.71428571428572</ele><time>2026-03-26T13:49:50.998Z</time></trkpt><trkpt lat="45.55066680998864" lon="11.406753558593559"><ele>70.57142857142858</ele><time>2026-03-26T13:49:55.997Z</time></trkpt><trkpt lat="45.550690577614546" lon="11.406876670806517"><ele>72.42857142857143</ele><time>2026-03-26T13:49:58.997Z</time></trkpt><trkpt lat="45.5507458787244" lon="11.406946015086517"><ele>74.28571428571428</ele><time>2026-03-26T13:50:00.997Z</time></trkpt><trkpt lat="45.55079272845151" lon="11.40700890802125"><ele>76.14285714285715</ele><time>2026-03-26T13:50:03Z</time></trkpt><trkpt lat="45.550824108260144" lon="11.407093586144406"><ele>78.0</ele><time>2026-03-26T13:50:05Z</time></trkpt><trkpt lat="45.55084257255821" lon="11.407187441002298"><ele>81.83333333333333</ele><time>2026-03-26T13:50:08Z</time></trkpt><trkpt lat="45.550865513553354" lon="11.407303138633086"><ele>85.66666666666666</ele><time>2026-03-26T13:50:10Z</time></trkpt><trkpt lat="45.550862922059075" lon="11.407398768439512"><ele>89.5</ele><time>2026-03-26T13:50:11Z</time></trkpt><trkpt lat="45.55083112142254" lon="11.407493194981775"><ele>93.33333333333333</ele><time>2026-03-26T13:50:12Z</time></trkpt><trkpt lat="45.5508457781847" lon="11.407638298996277"><ele>97.16666666666666</ele><time>2026-03-26T13:50:13Z</time></trkpt><trkpt lat="45.550885256322665" lon="11.407741482573494"><ele>101.0</ele><time>2026-03-26T13:50:15Z</time></trkpt><trkpt lat="45.5508968903557" lon="11.407832825915843"><ele>100.99999999999999</ele><time>2026-03-26T13:50:17Z</time></trkpt><trkpt lat="45.55094579607078" lon="11.407938359657427"><ele>101.0</ele><time>2026-03-26T13:50:19Z</time></trkpt><trkpt lat="45.55095737098015" lon="11.408061332539859"><ele>101.0</ele><time>2026-03-26T13:50:20Z</time></trkpt><trkpt lat="45.550962122745354" lon="11.408170594376346"><ele>101.0</ele><time>2026-03-26T13:50:22Z</time></trkpt><trkpt lat="45.551002655250734" lon="11.408280329076874"><ele>100.99999999999999</ele><time>2026-03-26T13:50:24Z</time></trkpt><trkpt lat="45.55100783198116" lon="11.408391789462947"><ele>101.0</ele><time>2026-03-26T13:50:27Z</time></trkpt><trkpt lat="45.55100191892566" lon="11.408486296185503"><ele>104.0</ele><time>2026-03-26T13:50:29Z</time></trkpt><trkpt lat="45.55098796578252" lon="11.408621108799165"><ele>107.0</ele><time>2026-03-26T13:50:31Z</time></trkpt><trkpt lat="45.55096848097272" lon="11.40872034716774"><ele>110.0</ele><time>2026-03-26T13:50:33Z</time></trkpt><trkpt lat="45.55092929333276" lon="11.408802204015931"><ele>113.0</ele><time>2026-03-26T13:50:34.999Z</time></trkpt><trkpt lat="45.55091045610841" lon="11.408888222828493"><ele>116.0</ele><time>2026-03-26T13:50:36.999Z</time></trkpt><trkpt lat="45.550878622259724" lon="11.408969553092764"><ele>118.99999999999999</ele><time>2026-03-26T13:50:38.999Z</time></trkpt><trkpt lat="45.55082354054604" lon="11.409048142687466"><ele>121.99999999999999</ele><time>2026-03-26T13:50:40.999Z</time></trkpt><trkpt lat="45.55079710268289" lon="11.409185083159484"><ele>124.33333333333333</ele><time>2026-03-26T13:50:42.999Z</time></trkpt><trkpt lat="45.55078768138675" lon="11.4092845202728"><ele>126.66666666666666</ele><time>2026-03-26T13:50:46.999Z</time></trkpt><trkpt lat="45.55083386193369" lon="11.40939316629056"><ele>129.0</ele><time>2026-03-26T13:50:52.999Z</time></trkpt><trkpt lat="45.550887053022954" lon="11.40944934204323"><ele>131.33333333333334</ele><time>2026-03-26T13:50:53.999Z</time></trkpt><trkpt lat="45.55097876787877" lon="11.409500858899722"><ele>133.66666666666669</ele><time>2026-03-26T13:50:55.999Z</time></trkpt><trkpt lat="45.55106778560837" lon="11.409555890695524"><ele>136.0</ele><time>2026-03-26T13:50:57.999Z</time></trkpt><trkpt lat="45.551166970993606" lon="11.409608596707653"><ele>137.16666666666669</ele><time>2026-03-26T13:50:59.999Z</time></trkpt><trkpt lat="45.55119102720113" lon="11.409695244675381"><ele>138.33333333333334</ele><time>2026-03-26T13:51:00.999Z</time></trkpt><trkpt lat="45.55128908098237" lon="11.40977810328462"><ele>139.5</ele><time>2026-03-26T13:51:02.999Z</time></trkpt><trkpt lat="45.55133357085057" lon="11.40986519328305"><ele>140.66666666666666</ele><time>2026-03-26T13:51:04.999Z</time></trkpt><trkpt lat="45.551369925269185" lon="11.40994403304304"><ele>141.83333333333331</ele><time>2026-03-26T13:51:06.999Z</time></trkpt><trkpt lat="45.55144530259636" lon="11.410067196505038"><ele>143.0</ele><time>2026-03-26T13:51:08.999Z</time></trkpt><trkpt lat="45.5514610519537" lon="11.410177257572569"><ele>140.16666666666666</ele><time>2026-03-26T13:51:10.999Z</time></trkpt><trkpt lat="45.55149510863204" lon="11.410302627616977"><ele>137.33333333333331</ele><time>2026-03-26T13:51:12.999Z</time></trkpt><trkpt lat="45.551468167596326" lon="11.410457866828608"><ele>134.5</ele><time>2026-03-26T13:51:14.998Z</time></trkpt><trkpt lat="45.55141604627099" lon="11.41053874911415"><ele>131.66666666666666</ele><time>2026-03-26T13:51:16.998Z</time></trkpt><trkpt lat="45.551426592277835" lon="11.410640737321385"><ele>128.83333333333334</ele><time>2026-03-26T13:51:18.998Z</time></trkpt><trkpt lat="45.55142704487854" lon="11.41074299847049"><ele>126.0</ele><time>2026-03-26T13:51:20.998Z</time></trkpt><trkpt lat="45.5513734949515" lon="11.410885272800835"><ele>126.0</ele><time>2026-03-26T13:51:22.998Z</time></trkpt><trkpt lat="45.55134081576649" lon="11.411003358458519"><ele>126.0</ele><time>2026-03-26T13:51:23.998Z</time></trkpt><trkpt lat="45.55132058542892" lon="11.411111422959891"><ele>126.0</ele><time>2026-03-26T13:51:24.998Z</time></trkpt><trkpt lat="45.551307874901134" lon="11.411220791425158"><ele>126.0</ele><time>2026-03-26T13:51:25.998Z</time></trkpt><trkpt lat="45.55128780535079" lon="11.411332042644473"><ele>126.0</ele><time>2026-03-26T13:51:26.998Z</time></trkpt><trkpt lat="45.55130041240108" lon="11.411420763726737"><ele>126.0</ele><time>2026-03-26T13:51:27.998Z</time></trkpt><trkpt lat="45.5513222181105" lon="11.411538683794657"><ele>126.8</ele><time>2026-03-26T13:51:28.998Z</time></trkpt><trkpt lat="45.55133316367901" lon="11.41162902816951"><ele>127.6</ele><time>2026-03-26T13:51:29.998Z</time></trkpt><trkpt lat="45.55130916350082" lon="11.411750055687543"><ele>128.4</ele><time>2026-03-26T13:51:31.998Z</time></trkpt><trkpt lat="45.55127213799512" lon="11.41188274241161"><ele>129.2</ele><time>2026-03-26T13:51:33.998Z</time></trkpt><trkpt lat="45.5512452686451" lon="11.4119880183559"><ele>130.0</ele><time>2026-03-26T13:51:35.998Z</time></trkpt><trkpt lat="45.551118567652004" lon="11.412001883670108"><ele>133.33333333333334</ele><time>2026-03-26T13:51:37.998Z</time></trkpt><trkpt lat="45.55104242474244" lon="11.411972799342763"><ele>136.66666666666669</ele><time>2026-03-26T13:51:38.998Z</time></trkpt><trkpt lat="45.550944411220755" lon="11.41193861489574"><ele>140.0</ele><time>2026-03-26T13:51:39.998Z</time></trkpt><trkpt lat="45.55086416284101" lon="11.411930641494404"><ele>143.33333333333334</ele><time>2026-03-26T13:51:40.998Z</time></trkpt><trkpt lat="45.55080026040706" lon="11.411957822626212"><ele>146.66666666666666</ele><time>2026-03-26T13:51:41.998Z</time></trkpt><trkpt lat="45.55075509322327" lon="11.412024716375763"><ele>150.0</ele><time>2026-03-26T13:51:42.998Z</time></trkpt><trkpt lat="45.550733484122105" lon="11.412122913404575"><ele>150.0</ele><time>2026-03-26T13:51:43.998Z</time></trkpt><trkpt lat="45.55068395740406" lon="11.412226989832265"><ele>150.0</ele><time>2026-03-26T13:51:44.998Z</time></trkpt><trkpt lat="45.55063518008134" lon="11.412295754756776"><ele>150.0</ele><time>2026-03-26T13:51:45.998Z</time></trkpt><trkpt lat="45.55057325159814" lon="11.412335509525846"><ele>150.0</ele><time>2026-03-26T13:51:47.998Z</time></trkpt><trkpt lat="45.55054225342321" lon="11.412224848423158"><ele>150.0</ele><time>2026-03-26T13:51:49.998Z</time></trkpt><trkpt lat="45.55051632536856" lon="11.412135992267338"><ele>150.0</ele><time>2026-03-26T13:51:50.998Z</time></trkpt><trkpt lat="45.55046771771497" lon="11.412028764179787"><ele>150.0</ele><time>2026-03-26T13:51:51.998Z</time></trkpt><trkpt lat="45.55041912438664" lon="11.411911030801933"><ele>150.0</ele><time>2026-03-26T13:51:52.998Z</time></trkpt><trkpt lat="45.55034431951581" lon="11.411782839390623"><ele>150.0</ele><time>2026-03-26T13:51:53.997Z</time></trkpt><trkpt lat="45.55023928327689" lon="11.411657084844892"><ele>150.0</ele><time>2026-03-26T13:51:54.997Z</time></trkpt><trkpt lat="45.55011122880535" lon="11.411562276002448"><ele>151.4</ele><time>2026-03-26T13:51:55.997Z</time></trkpt><trkpt lat="45.55002414594349" lon="11.411478389268863"><ele>152.8</ele><time>2026-03-26T13:51:56.997Z</time></trkpt><trkpt lat="45.54995417900241" lon="11.411403814623373"><ele>154.2</ele><time>2026-03-26T13:51:57.997Z</time></trkpt><trkpt lat="45.54988127538958" lon="11.41127900160824"><ele>155.6</ele><time>2026-03-26T13:51:58.997Z</time></trkpt><trkpt lat="45.549803581482074" lon="11.411125775869367"><ele>157.0</ele><time>2026-03-26T13:51:59.997Z</time></trkpt><trkpt lat="45.549713324550865" lon="11.410963563923954"><ele>158.0</ele><time>2026-03-26T13:52:00.997Z</time></trkpt><trkpt lat="45.54963529925274" lon="11.41081818566633"><ele>159.0</ele><time>2026-03-26T13:52:01.997Z</time></trkpt><trkpt lat="45.54955069593442" lon="11.410668223390903"><ele>160.0</ele><time>2026-03-26T13:52:02.997Z</time></trkpt><trkpt lat="45.54948925930337" lon="11.410548402073704"><ele>161.0</ele><time>2026-03-26T13:52:03.997Z</time></trkpt><trkpt lat="45.549437434464906" lon="11.410463714181514"><ele>162.0</ele><time>2026-03-26T13:52:04.997Z</time></trkpt><trkpt lat="45.549376474025415" lon="11.410351848736164"><ele>164.2</ele><time>2026-03-26T13:52:06.997Z</time></trkpt><trkpt lat="45.54935184339356" lon="11.410237663422587"><ele>166.39999999999998</ele><time>2026-03-26T13:52:08Z</time></trkpt><trkpt lat="45.54930773647907" lon="11.41010522721593"><ele>168.60000000000002</ele><time>2026-03-26T13:52:09Z</time></trkpt><trkpt lat="45.549290568434145" lon="11.409936735246157"><ele>170.8</ele><time>2026-03-26T13:52:10Z</time></trkpt><trkpt lat="45.549264245129535" lon="11.409758687064615"><ele>173.0</ele><time>2026-03-26T13:52:11Z</time></trkpt><trkpt lat="45.54925501921057" lon="11.409586349172693"><ele>173.60000000000002</ele><time>2026-03-26T13:52:12Z</time></trkpt><trkpt lat="45.54927000766481" lon="11.409398282414264"><ele>174.20000000000002</ele><time>2026-03-26T13:52:13Z</time></trkpt><trkpt lat="45.549273223890964" lon="11.409234606867717"><ele>174.8</ele><time>2026-03-26T13:52:14Z</time></trkpt><trkpt lat="45.54926479188081" lon="11.409120198272126"><ele>175.4</ele><time>2026-03-26T13:52:15Z</time></trkpt><trkpt lat="45.54922111414541" lon="11.408989822358475"><ele>176.0</ele><time>2026-03-26T13:52:16Z</time></trkpt><trkpt lat="45.54917217406797" lon="11.408856072246868"><ele>177.0</ele><time>2026-03-26T13:52:17Z</time></trkpt><trkpt lat="45.54912898346641" lon="11.408685806500667"><ele>178.0</ele><time>2026-03-26T13:52:18Z</time></trkpt><trkpt lat="45.54908579370616" lon="11.408527818487952"><ele>179.0</ele><time>2026-03-26T13:52:19Z</time></trkpt><trkpt lat="45.54909719346015" lon="11.40840375326754"><ele>180.0</ele><time>2026-03-26T13:52:21Z</time></trkpt><trkpt lat="45.549210128781226" lon="11.408415077606659"><ele>181.0</ele><time>2026-03-26T13:52:23Z</time></trkpt><trkpt lat="45.54928793596103" lon="11.408368916265841"><ele>181.0</ele><time>2026-03-26T13:52:25Z</time></trkpt><trkpt lat="45.549298406291236" lon="11.408224675701595"><ele>181.0</ele><time>2026-03-26T13:52:27Z</time></trkpt><trkpt lat="45.54923404382652" lon="11.408132138590913"><ele>181.0</ele><time>2026-03-26T13:52:29Z</time></trkpt><trkpt lat="45.54914557522497" lon="11.407980421895694"><ele>181.0</ele><time>2026-03-26T13:52:31Z</time></trkpt><trkpt lat="45.549127506446766" lon="11.407884457965135"><ele>181.0</ele><time>2026-03-26T13:52:32Z</time></trkpt><trkpt lat="45.54911338912055" lon="11.407784182070555"><ele>181.8</ele><time>2026-03-26T13:52:33Z</time></trkpt><trkpt lat="45.5490893316158" lon="11.407657747398115"><ele>182.60000000000002</ele><time>2026-03-26T13:52:34Z</time></trkpt><trkpt lat="45.549061355265" lon="11.407558929833085"><ele>183.4</ele><time>2026-03-26T13:52:35Z</time></trkpt><trkpt lat="45.54899262652657" lon="11.407423219976877"><ele>184.2</ele><time>2026-03-26T13:52:37Z</time></trkpt><trkpt lat="45.548927198461726" lon="11.40734043190903"><ele>185.0</ele><time>2026-03-26T13:52:38Z</time></trkpt><trkpt lat="45.548907110415875" lon="11.407228684293369"><ele>184.4</ele><time>2026-03-26T13:52:39Z</time></trkpt><trkpt lat="45.54889357777277" lon="11.407076656446717"><ele>183.8</ele><time>2026-03-26T13:52:39.999Z</time></trkpt><trkpt lat="45.548896531716395" lon="11.406941286083544"><ele>183.2</ele><time>2026-03-26T13:52:40.999Z</time></trkpt><trkpt lat="45.54887802606481" lon="11.406833479775763"><ele>182.6</ele><time>2026-03-26T13:52:41.999Z</time></trkpt><trkpt lat="45.54884997247926" lon="11.406737395479492"><ele>182.0</ele><time>2026-03-26T13:52:42.999Z</time></trkpt><trkpt lat="45.54879346993939" lon="11.406615915797055"><ele>182.0</ele><time>2026-03-26T13:52:43.999Z</time></trkpt><trkpt lat="45.54871338640953" lon="11.406512873238963"><ele>182.0</ele><time>2026-03-26T13:52:44.999Z</time></trkpt><trkpt lat="45.548650386759725" lon="11.40641352704831"><ele>182.0</ele><time>2026-03-26T13:52:45.999Z</time></trkpt><trkpt lat="45.54857873983342" lon="11.406310011804614"><ele>182.0</ele><time>2026-03-26T13:52:47.999Z</time></trkpt><trkpt lat="45.54847355258774" lon="11.406349136270485"><ele>182.0</ele><time>2026-03-26T13:52:49.999Z</time></trkpt><trkpt lat="45.54840564560728" lon="11.406402668985246"><ele>184.83333333333331</ele><time>2026-03-26T13:52:50.999Z</time></trkpt><trkpt lat="45.54832865261262" lon="11.40646745914442"><ele>187.66666666666666</ele><time>2026-03-26T13:52:51.999Z</time></trkpt><trkpt lat="45.548246838968886" lon="11.406532511823393"><ele>190.5</ele><time>2026-03-26T13:52:52.999Z</time></trkpt><trkpt lat="45.548169291108636" lon="11.406562543247862"><ele>193.33333333333331</ele><time>2026-03-26T13:52:53.999Z</time></trkpt><trkpt lat="45.5480925991593" lon="11.406561473482679"><ele>196.16666666666666</ele><time>2026-03-26T13:52:54.999Z</time></trkpt><trkpt lat="45.548020860869656" lon="11.40658383945228"><ele>199.0</ele><time>2026-03-26T13:52:55.999Z</time></trkpt><trkpt lat="45.547950008516395" lon="11.406507395840269"><ele>198.99999999999997</ele><time>2026-03-26T13:52:57.999Z</time></trkpt><trkpt lat="45.54794475933747" lon="11.406412156428772"><ele>199.0</ele><time>2026-03-26T13:52:58.999Z</time></trkpt><trkpt lat="45.547927483960585" lon="11.406298387249842"><ele>199.0</ele><time>2026-03-26T13:52:59.999Z</time></trkpt><trkpt lat="45.54791633245529" lon="11.406204210271865"><ele>199.0</ele><time>2026-03-26T13:53:00.999Z</time></trkpt><trkpt lat="45.54790271187993" lon="11.406082599599024"><ele>198.99999999999997</ele><time>2026-03-26T13:53:01.999Z</time></trkpt><trkpt lat="45.54789523339669" lon="11.405980363196088"><ele>199.0</ele><time>2026-03-26T13:53:02.999Z</time></trkpt><trkpt lat="45.54786370741933" lon="11.405865157244554"><ele>200.49999999999997</ele><time>2026-03-26T13:53:03.999Z</time></trkpt><trkpt lat="45.54783068353818" lon="11.405763100141234"><ele>202.0</ele><time>2026-03-26T13:53:04.999Z</time></trkpt><trkpt lat="45.547794186235464" lon="11.405677032995696"><ele>203.5</ele><time>2026-03-26T13:53:05.999Z</time></trkpt><trkpt lat="45.547710303535496" lon="11.405590876946647"><ele>205.0</ele><time>2026-03-26T13:53:07.999Z</time></trkpt><trkpt lat="45.5476382051993" lon="11.405539009217035"><ele>206.49999999999997</ele><time>2026-03-26T13:53:08.999Z</time></trkpt><trkpt lat="45.547585132979144" lon="11.405482347292473"><ele>208.0</ele><time>2026-03-26T13:53:09.999Z</time></trkpt><trkpt lat="45.54755108199926" lon="11.405393589258907"><ele>207.99999999999997</ele><time>2026-03-26T13:53:10.999Z</time></trkpt><trkpt lat="45.547522376747054" lon="11.40526846063307"><ele>208.0</ele><time>2026-03-26T13:53:11.999Z</time></trkpt><trkpt lat="45.54749479354893" lon="11.405137136202026"><ele>208.0</ele><time>2026-03-26T13:53:12.999Z</time></trkpt><trkpt lat="45.54746265270617" lon="11.405041798243852"><ele>208.0</ele><time>2026-03-26T13:53:13.999Z</time></trkpt><trkpt lat="45.54740776350595" lon="11.404964685480154"><ele>207.99999999999997</ele><time>2026-03-26T13:53:14.999Z</time></trkpt><trkpt lat="45.54730629981871" lon="11.404919131340238"><ele>208.0</ele><time>2026-03-26T13:53:16.999Z</time></trkpt><trkpt lat="45.54723337865185" lon="11.404900700480937"><ele>208.0</ele><time>2026-03-26T13:53:17.999Z</time></trkpt><trkpt lat="45.54716250557339" lon="11.404894898789136"><ele>208.0</ele><time>2026-03-26T13:53:18.999Z</time></trkpt><trkpt lat="45.54708037474413" lon="11.404887299387108"><ele>208.0</ele><time>2026-03-26T13:53:19.999Z</time></trkpt><trkpt lat="45.546997802387345" lon="11.40481697126269"><ele>208.0</ele><time>2026-03-26T13:53:20.999Z</time></trkpt><trkpt lat="45.54692102062743" lon="11.404734256556793"><ele>208.0</ele><time>2026-03-26T13:53:21.998Z</time></trkpt><trkpt lat="45.54683868023733" lon="11.404636885930877"><ele>208.2</ele><time>2026-03-26T13:53:22.998Z</time></trkpt><trkpt lat="45.54674854068577" lon="11.404533122178103"><ele>208.4</ele><time>2026-03-26T13:53:23.998Z</time></trkpt><trkpt lat="45.546658483437575" lon="11.40446938930711"><ele>208.6</ele><time>2026-03-26T13:53:24.998Z</time></trkpt><trkpt lat="45.546583165190455" lon="11.40440073108324"><ele>208.79999999999998</ele><time>2026-03-26T13:53:25.998Z</time></trkpt><trkpt lat="45.54654666671265" lon="11.404307683168208"><ele>209.0</ele><time>2026-03-26T13:53:26.998Z</time></trkpt><trkpt lat="45.546477389193825" lon="11.404173990405557"><ele>209.0</ele><time>2026-03-26T13:53:27.998Z</time></trkpt><trkpt lat="45.54641556916447" lon="11.404065407895525"><ele>209.0</ele><time>2026-03-26T13:53:28.998Z</time></trkpt><trkpt lat="45.5463769652634" lon="11.403973799950046"><ele>209.0</ele><time>2026-03-26T13:53:29.998Z</time></trkpt><trkpt lat="45.54626457826357" lon="11.403855236564212"><ele>209.0</ele><time>2026-03-26T13:53:31.998Z</time></trkpt><trkpt lat="45.54617807824847" lon="11.40380465443625"><ele>209.0</ele><time>2026-03-26T13:53:32.998Z</time></trkpt><trkpt lat="45.54608970367376" lon="11.403753047999928"><ele>211.50000000000003</ele><time>2026-03-26T13:53:33.998Z</time></trkpt><trkpt lat="45.545997242254664" lon="11.40368963148453"><ele>214.0</ele><time>2026-03-26T13:53:34.998Z</time></trkpt><trkpt lat="45.545958462979875" lon="11.403618399743957"><ele>216.5</ele><time>2026-03-26T13:53:35.998Z</time></trkpt><trkpt lat="45.54592595685272" lon="11.403511924476655"><ele>219.0</ele><time>2026-03-26T13:53:36.998Z</time></trkpt><trkpt lat="45.54588765422115" lon="11.403397824720692"><ele>221.50000000000003</ele><time>2026-03-26T13:53:37.998Z</time></trkpt><trkpt lat="45.54585729697457" lon="11.403277257831045"><ele>224.0</ele><time>2026-03-26T13:53:38.998Z</time></trkpt><trkpt lat="45.54586770813368" lon="11.403130460855191"><ele>223.5</ele><time>2026-03-26T13:53:39.998Z</time></trkpt><trkpt lat="45.54589346441126" lon="11.402956111445484"><ele>223.0</ele><time>2026-03-26T13:53:40.998Z</time></trkpt><trkpt lat="45.54592455865066" lon="11.40278413659853"><ele>222.5</ele><time>2026-03-26T13:53:41.998Z</time></trkpt><trkpt lat="45.545954518540874" lon="11.402642787345105"><ele>222.0</ele><time>2026-03-26T13:53:42.998Z</time></trkpt><trkpt lat="45.54599077203551" lon="11.402471769836279"><ele>222.0</ele><time>2026-03-26T13:53:43.998Z</time></trkpt><trkpt lat="45.54602527661239" lon="11.40234947344204"><ele>222.0</ele><time>2026-03-26T13:53:44.998Z</time></trkpt><trkpt lat="45.546053774773554" lon="11.402209525616996"><ele>222.0</ele><time>2026-03-26T13:53:45.998Z</time></trkpt><trkpt lat="45.54606472450366" lon="11.402061549351341"><ele>222.0</ele><time>2026-03-26T13:53:46.998Z</time></trkpt><trkpt lat="45.546059572948465" lon="11.401906949115492"><ele>222.0</ele><time>2026-03-26T13:53:47.998Z</time></trkpt><trkpt lat="45.546068634336194" lon="11.40174228422016"><ele>222.66666666666666</ele><time>2026-03-26T13:53:48.998Z</time></trkpt><trkpt lat="45.546051923594064" lon="11.401627391422423"><ele>223.33333333333331</ele><time>2026-03-26T13:53:49.998Z</time></trkpt><trkpt lat="45.546061477732444" lon="11.401534065334332"><ele>224.0</ele><time>2026-03-26T13:53:50.998Z</time></trkpt><trkpt lat="45.54612313731894" lon="11.401384181935391"><ele>224.66666666666666</ele><time>2026-03-26T13:53:52.998Z</time></trkpt><trkpt lat="45.54620839719725" lon="11.401323697340361"><ele>225.33333333333331</ele><time>2026-03-26T13:53:53.998Z</time></trkpt><trkpt lat="45.5462668398126" lon="11.40128167607208"><ele>226.0</ele><time>2026-03-26T13:53:54.998Z</time></trkpt><trkpt lat="45.54636106273015" lon="11.401222903643928"><ele>224.57142857142858</ele><time>2026-03-26T13:53:56.998Z</time></trkpt><trkpt lat="45.54643246295975" lon="11.401186112063696"><ele>223.14285714285714</ele><time>2026-03-26T13:53:57.998Z</time></trkpt><trkpt lat="45.546491752702245" lon="11.401149994032728"><ele>221.71428571428572</ele><time>2026-03-26T13:53:58.998Z</time></trkpt><trkpt lat="45.546556488410246" lon="11.401110518036235"><ele>220.28571428571428</ele><time>2026-03-26T13:53:59.998Z</time></trkpt><trkpt lat="45.546605902688356" lon="11.401047311563177"><ele>218.85714285714283</ele><time>2026-03-26T13:54:00.998Z</time></trkpt><trkpt lat="45.546665646121085" lon="11.400986352166628"><ele>217.42857142857142</ele><time>2026-03-26T13:54:01.998Z</time></trkpt><trkpt lat="45.546723238436506" lon="11.400924090030218"><ele>216.0</ele><time>2026-03-26T13:54:02.997Z</time></trkpt><trkpt lat="45.546804655042294" lon="11.400830795028062"><ele>216.0</ele><time>2026-03-26T13:54:03.997Z</time></trkpt><trkpt lat="45.546859972335525" lon="11.400777392080528"><ele>216.0</ele><time>2026-03-26T13:54:04.997Z</time></trkpt><trkpt lat="45.54693618069308" lon="11.400704135932633"><ele>216.0</ele><time>2026-03-26T13:54:05.997Z</time></trkpt><trkpt lat="45.54699251369746" lon="11.40065249418835"><ele>216.0</ele><time>2026-03-26T13:54:06.997Z</time></trkpt><trkpt lat="45.54706533034388" lon="11.400600605596761"><ele>216.0</ele><time>2026-03-26T13:54:07.997Z</time></trkpt><trkpt lat="45.54715866217148" lon="11.400554200494833"><ele>216.0</ele><time>2026-03-26T13:54:08.997Z</time></trkpt><trkpt lat="45.547223434561495" lon="11.400519635189887"><ele>215.60000000000002</ele><time>2026-03-26T13:54:09.997Z</time></trkpt><trkpt lat="45.547305152372445" lon="11.400442195321647"><ele>215.20000000000002</ele><time>2026-03-26T13:54:11.997Z</time></trkpt><trkpt lat="45.5473588029227" lon="11.400262146105815"><ele>214.79999999999998</ele><time>2026-03-26T13:54:14Z</time></trkpt><trkpt lat="45.547384509190366" lon="11.400156262674303"><ele>214.39999999999998</ele><time>2026-03-26T13:54:15Z</time></trkpt><trkpt lat="45.54739956615359" lon="11.400028477318708"><ele>214.0</ele><time>2026-03-26T13:54:16Z</time></trkpt><trkpt lat="45.547429705101635" lon="11.399924723797774"><ele>214.0</ele><time>2026-03-26T13:54:17Z</time></trkpt><trkpt lat="45.547467363404785" lon="11.39977252273068"><ele>214.0</ele><time>2026-03-26T13:54:19Z</time></trkpt><trkpt lat="45.54750965407912" lon="11.39958223483191"><ele>214.0</ele><time>2026-03-26T13:54:21Z</time></trkpt><trkpt lat="45.547530703206704" lon="11.399461202141598"><ele>214.0</ele><time>2026-03-26T13:54:22Z</time></trkpt><trkpt lat="45.54758527444547" lon="11.399296692931621"><ele>213.83333333333331</ele><time>2026-03-26T13:54:24Z</time></trkpt><trkpt lat="45.54763701637065" lon="11.39924165007535"><ele>213.66666666666666</ele><time>2026-03-26T13:54:25Z</time></trkpt><trkpt lat="45.54770871452656" lon="11.399212220520148"><ele>213.5</ele><time>2026-03-26T13:54:26Z</time></trkpt><trkpt lat="45.54778712012297" lon="11.399165427677383"><ele>213.33333333333331</ele><time>2026-03-26T13:54:27Z</time></trkpt><trkpt lat="45.547876537600196" lon="11.399112435783072"><ele>213.16666666666666</ele><time>2026-03-26T13:54:28Z</time></trkpt><trkpt lat="45.54797363177294" lon="11.399020649847007"><ele>213.0</ele><time>2026-03-26T13:54:29Z</time></trkpt><trkpt lat="45.54806920109814" lon="11.3989592806384"><ele>213.0</ele><time>2026-03-26T13:54:30Z</time></trkpt><trkpt lat="45.54815096573373" lon="11.398889440728084"><ele>213.0</ele><time>2026-03-26T13:54:31Z</time></trkpt><trkpt lat="45.548226275736496" lon="11.39880543646345"><ele>213.0</ele><time>2026-03-26T13:54:32Z</time></trkpt><trkpt lat="45.54829310951985" lon="11.398702531981012"><ele>213.0</ele><time>2026-03-26T13:54:33Z</time></trkpt><trkpt lat="45.548353543909094" lon="11.398592351202085"><ele>213.0</ele><time>2026-03-26T13:54:34Z</time></trkpt><trkpt lat="45.548403031480206" lon="11.398457871713367"><ele>215.0</ele><time>2026-03-26T13:54:35Z</time></trkpt><trkpt lat="45.54845175731127" lon="11.398333719424954"><ele>217.0</ele><time>2026-03-26T13:54:35.999Z</time></trkpt><trkpt lat="45.54851280514421" lon="11.398260801529943"><ele>219.0</ele><time>2026-03-26T13:54:36.999Z</time></trkpt><trkpt lat="45.54857790500065" lon="11.39819322817218"><ele>221.0</ele><time>2026-03-26T13:54:37.999Z</time></trkpt><trkpt lat="45.54864231399983" lon="11.39813627255788"><ele>223.0</ele><time>2026-03-26T13:54:38.999Z</time></trkpt><trkpt lat="45.54875210711038" lon="11.39806966445586"><ele>223.0</ele><time>2026-03-26T13:54:39.999Z</time></trkpt><trkpt lat="45.54883151649082" lon="11.398027504809598"><ele>223.0</ele><time>2026-03-26T13:54:40.999Z</time></trkpt><trkpt lat="45.5489025409249" lon="11.397998171246826"><ele>223.0</ele><time>2026-03-26T13:54:41.999Z</time></trkpt><trkpt lat="45.54897120758464" lon="11.397979138058915"><ele>223.0</ele><time>2026-03-26T13:54:42.999Z</time></trkpt><trkpt lat="45.54904152858322" lon="11.397956489534733"><ele>223.0</ele><time>2026-03-26T13:54:44.999Z</time></trkpt><trkpt lat="45.54916178006077" lon="11.398143590744947"><ele>223.0</ele><time>2026-03-26T13:54:46.999Z</time></trkpt><trkpt lat="45.54928948779757" lon="11.39820192666682"><ele>223.0</ele><time>2026-03-26T13:54:47.999Z</time></trkpt><trkpt lat="45.54944375492813" lon="11.398257354582707"><ele>223.0</ele><time>2026-03-26T13:54:48.999Z</time></trkpt><trkpt lat="45.549621523192585" lon="11.398295596960756"><ele>221.0</ele><time>2026-03-26T13:54:49.999Z</time></trkpt><trkpt lat="45.54981545275526" lon="11.398351904125716"><ele>219.0</ele><time>2026-03-26T13:54:50.999Z</time></trkpt><trkpt lat="45.5499887815984" lon="11.398362107856652"><ele>217.0</ele><time>2026-03-26T13:54:51.999Z</time></trkpt><trkpt lat="45.550143906712435" lon="11.398380771991022"><ele>217.0</ele><time>2026-03-26T13:54:52.999Z</time></trkpt><trkpt lat="45.550279727854615" lon="11.398446766972906"><ele>217.0</ele><time>2026-03-26T13:54:53.999Z</time></trkpt><trkpt lat="45.55042279231925" lon="11.398514399810608"><ele>217.0</ele><time>2026-03-26T13:54:54.999Z</time></trkpt><trkpt lat="45.55057742231638" lon="11.398560227799134"><ele>218.25</ele><time>2026-03-26T13:54:55.999Z</time></trkpt><trkpt lat="45.55071987609701" lon="11.398634160016952"><ele>219.5</ele><time>2026-03-26T13:54:56.999Z</time></trkpt><trkpt lat="45.5508509451808" lon="11.398705389123396"><ele>220.75</ele><time>2026-03-26T13:54:57.999Z</time></trkpt><trkpt lat="45.550981034480444" lon="11.398782675914738"><ele>222.0</ele><time>2026-03-26T13:54:58.999Z</time></trkpt><trkpt lat="45.551113923002845" lon="11.398866063895623"><ele>219.0</ele><time>2026-03-26T13:54:59.999Z</time></trkpt><trkpt lat="45.55123511836976" lon="11.398946231885791"><ele>216.0</ele><time>2026-03-26T13:55:00.999Z</time></trkpt><trkpt lat="45.55134797700866" lon="11.399027416030517"><ele>213.0</ele><time>2026-03-26T13:55:01.999Z</time></trkpt><trkpt lat="45.551463064084594" lon="11.399120489087453"><ele>210.0</ele><time>2026-03-26T13:55:02.999Z</time></trkpt><trkpt lat="45.55155539234024" lon="11.399263839091041"><ele>210.0</ele><time>2026-03-26T13:55:03.998Z</time></trkpt><trkpt lat="45.55166085995574" lon="11.39936291780702"><ele>210.0</ele><time>2026-03-26T13:55:04.998Z</time></trkpt><trkpt lat="45.551742621947426" lon="11.399455673243965"><ele>210.0</ele><time>2026-03-26T13:55:05.998Z</time></trkpt><trkpt lat="45.55184131354613" lon="11.399514394674851"><ele>210.0</ele><time>2026-03-26T13:55:06.998Z</time></trkpt><trkpt lat="45.551933821761715" lon="11.399534016114922"><ele>210.0</ele><time>2026-03-26T13:55:07.998Z</time></trkpt><trkpt lat="45.55202512672849" lon="11.39954659806709"><ele>206.75</ele><time>2026-03-26T13:55:08.998Z</time></trkpt><trkpt lat="45.552144082649704" lon="11.399455915766147"><ele>203.5</ele><time>2026-03-26T13:55:09.998Z</time></trkpt><trkpt lat="45.55223123362143" lon="11.399364892765805"><ele>200.25</ele><time>2026-03-26T13:55:10.998Z</time></trkpt><trkpt lat="45.55234818258637" lon="11.3992692411274"><ele>197.0</ele><time>2026-03-26T13:55:11.998Z</time></trkpt><trkpt lat="45.552475794601776" lon="11.399133525083558"><ele>197.0</ele><time>2026-03-26T13:55:12.998Z</time></trkpt><trkpt lat="45.55258329445452" lon="11.39901127320585"><ele>197.0</ele><time>2026-03-26T13:55:13.998Z</time></trkpt><trkpt lat="45.55266782533208" lon="11.398884548808008"><ele>197.0</ele><time>2026-03-26T13:55:14.998Z</time></trkpt><trkpt lat="45.552754207566615" lon="11.398785897146366"><ele>197.0</ele><time>2026-03-26T13:55:15.998Z</time></trkpt><trkpt lat="45.55281248779808" lon="11.398684721635806"><ele>194.66666666666669</ele><time>2026-03-26T13:55:16.998Z</time></trkpt><trkpt lat="45.55284352840435" lon="11.398585909856479"><ele>192.33333333333334</ele><time>2026-03-26T13:55:17.998Z</time></trkpt><trkpt lat="45.552893198691855" lon="11.398519100242638"><ele>190.0</ele><time>2026-03-26T13:55:18.998Z</time></trkpt><trkpt lat="45.55295292594863" lon="11.398400370070334"><ele>187.66666666666669</ele><time>2026-03-26T13:55:19.998Z</time></trkpt><trkpt lat="45.553007405652444" lon="11.398318526672861"><ele>185.33333333333334</ele><time>2026-03-26T13:55:20.998Z</time></trkpt><trkpt lat="45.55309682114835" lon="11.39820071637192"><ele>183.0</ele><time>2026-03-26T13:55:21.998Z</time></trkpt><trkpt lat="45.553187066817365" lon="11.39809654518153"><ele>183.0</ele><time>2026-03-26T13:55:22.998Z</time></trkpt><trkpt lat="45.55324231781919" lon="11.398045932280441"><ele>183.0</ele><time>2026-03-26T13:55:23.998Z</time></trkpt><trkpt lat="45.5533442638763" lon="11.397950937522017"><ele>183.0</ele><time>2026-03-26T13:55:24.998Z</time></trkpt><trkpt lat="45.55347312169243" lon="11.397836511912786"><ele>183.0</ele><time>2026-03-26T13:55:25.998Z</time></trkpt><trkpt lat="45.55357758881918" lon="11.397744809816144"><ele>185.8</ele><time>2026-03-26T13:55:26.998Z</time></trkpt><trkpt lat="45.55365867362116" lon="11.397674864107419"><ele>188.60000000000002</ele><time>2026-03-26T13:55:27.998Z</time></trkpt><trkpt lat="45.55375755141992" lon="11.397602215067382"><ele>191.39999999999998</ele><time>2026-03-26T13:55:28.998Z</time></trkpt><trkpt lat="45.553873200714776" lon="11.397540857955565"><ele>194.2</ele><time>2026-03-26T13:55:30.998Z</time></trkpt><trkpt lat="45.55397045557691" lon="11.397519103951058"><ele>197.0</ele><time>2026-03-26T13:55:31.998Z</time></trkpt><trkpt lat="45.55423066892765" lon="11.39670893774323"><ele>200.00000000000003</ele><time>2026-03-26T13:55:35.998Z</time></trkpt><trkpt lat="45.55428239123061" lon="11.396638464220372"><ele>203.0</ele><time>2026-03-26T13:55:36.998Z</time></trkpt><trkpt lat="45.5543819888816" lon="11.396567739727763"><ele>206.0</ele><time>2026-03-26T13:55:38.998Z</time></trkpt><trkpt lat="45.5544600002589" lon="11.396614742202598"><ele>209.0</ele><time>2026-03-26T13:55:41.997Z</time></trkpt><trkpt lat="45.55446744374224" lon="11.396707430987936"><ele>212.00000000000003</ele><time>2026-03-26T13:55:42.997Z</time></trkpt><trkpt lat="45.554468626317224" lon="11.396837849757766"><ele>215.0</ele><time>2026-03-26T13:55:43.997Z</time></trkpt><trkpt lat="45.55449124409909" lon="11.397018902038536"><ele>215.0</ele><time>2026-03-26T13:55:44.997Z</time></trkpt><trkpt lat="45.55450238131039" lon="11.397160591993504"><ele>215.0</ele><time>2026-03-26T13:55:45.997Z</time></trkpt><trkpt lat="45.5544965168256" lon="11.397313209655577"><ele>215.0</ele><time>2026-03-26T13:55:46.997Z</time></trkpt><trkpt lat="45.55449079429019" lon="11.39743972617913"><ele>215.0</ele><time>2026-03-26T13:55:47.997Z</time></trkpt><trkpt lat="45.55449067319737" lon="11.397587224566234"><ele>215.0</ele><time>2026-03-26T13:55:48.997Z</time></trkpt><trkpt lat="45.55451355040919" lon="11.397707157636969"><ele>217.16666666666669</ele><time>2026-03-26T13:55:49.997Z</time></trkpt><trkpt lat="45.55452989473502" lon="11.397807204653656"><ele>219.33333333333334</ele><time>2026-03-26T13:55:50.997Z</time></trkpt><trkpt lat="45.55453893726734" lon="11.397911408823145"><ele>221.5</ele><time>2026-03-26T13:55:51.997Z</time></trkpt><trkpt lat="45.55453132427811" lon="11.398039450996722"><ele>223.66666666666669</ele><time>2026-03-26T13:55:52.997Z</time></trkpt><trkpt lat="45.554520678047474" lon="11.39816740398617"><ele>225.83333333333334</ele><time>2026-03-26T13:55:53.997Z</time></trkpt><trkpt lat="45.55452583988007" lon="11.39830969051857"><ele>228.0</ele><time>2026-03-26T13:55:54.997Z</time></trkpt><trkpt lat="45.55451339313394" lon="11.398426104469992"><ele>228.2</ele><time>2026-03-26T13:55:55.997Z</time></trkpt><trkpt lat="45.5545267300989" lon="11.398524666598117"><ele>228.4</ele><time>2026-03-26T13:55:56.997Z</time></trkpt><trkpt lat="45.55455250999149" lon="11.398646629992141"><ele>228.59999999999997</ele><time>2026-03-26T13:55:57.997Z</time></trkpt><trkpt lat="45.55457795739301" lon="11.39878353183143"><ele>228.79999999999998</ele><time>2026-03-26T13:55:58.997Z</time></trkpt><trkpt lat="45.55457424829826" lon="11.398888440717975"><ele>229.0</ele><time>2026-03-26T13:55:59.997Z</time></trkpt><trkpt lat="45.55458580185827" lon="11.399055199390347"><ele>228.0</ele><time>2026-03-26T13:56:00.997Z</time></trkpt><trkpt lat="45.55458710741942" lon="11.399220174397682"><ele>226.99999999999997</ele><time>2026-03-26T13:56:01.997Z</time></trkpt><trkpt lat="45.5545926756045" lon="11.399362085749933"><ele>225.99999999999997</ele><time>2026-03-26T13:56:02.997Z</time></trkpt><trkpt lat="45.55459104920009" lon="11.399490887689637"><ele>225.0</ele><time>2026-03-26T13:56:03.997Z</time></trkpt><trkpt lat="45.55459171048375" lon="11.399615681403038"><ele>224.0</ele><time>2026-03-26T13:56:04.997Z</time></trkpt><trkpt lat="45.554586405549365" lon="11.399723958142808"><ele>222.66666666666669</ele><time>2026-03-26T13:56:05.997Z</time></trkpt><trkpt lat="45.554600535905536" lon="11.39984368860285"><ele>221.33333333333334</ele><time>2026-03-26T13:56:06.997Z</time></trkpt><trkpt lat="45.554628459012775" lon="11.399978791021109"><ele>220.0</ele><time>2026-03-26T13:56:07.997Z</time></trkpt><trkpt lat="45.55464670955255" lon="11.400095122622194"><ele>218.66666666666669</ele><time>2026-03-26T13:56:08.997Z</time></trkpt><trkpt lat="45.554669942286544" lon="11.400234333684367"><ele>217.33333333333334</ele><time>2026-03-26T13:56:10.997Z</time></trkpt><trkpt lat="45.5547358718356" lon="11.40019941261224"><ele>216.0</ele><time>2026-03-26T13:56:13.997Z</time></trkpt><trkpt lat="45.55476118987515" lon="11.400107504581879"><ele>216.0</ele><time>2026-03-26T13:56:14.997Z</time></trkpt><trkpt lat="45.55478082038241" lon="11.400014059209346"><ele>216.0</ele><time>2026-03-26T13:56:15.997Z</time></trkpt><trkpt lat="45.55486386876029" lon="11.400032065600335"><ele>216.0</ele><time>2026-03-26T13:56:17.997Z</time></trkpt><trkpt lat="45.554932987804285" lon="11.400109721219382"><ele>216.0</ele><time>2026-03-26T13:56:18.997Z</time></trkpt><trkpt lat="45.555008182156875" lon="11.400172433004908"><ele>216.0</ele><time>2026-03-26T13:56:19.999Z</time></trkpt><trkpt lat="45.5550935952903" lon="11.40020596828394"><ele>216.0</ele><time>2026-03-26T13:56:20.999Z</time></trkpt><trkpt lat="45.55518140818744" lon="11.400201975221641"><ele>216.0</ele><time>2026-03-26T13:56:21.999Z</time></trkpt><trkpt lat="45.55532835556492" lon="11.400188966324043"><ele>216.0</ele><time>2026-03-26T13:56:22.999Z</time></trkpt><trkpt lat="45.55548082419273" lon="11.400195516609458"><ele>216.0</ele><time>2026-03-26T13:56:23.999Z</time></trkpt><trkpt lat="45.55560996892225" lon="11.400207708029463"><ele>216.0</ele><time>2026-03-26T13:56:25Z</time></trkpt><trkpt lat="45.55572327142688" lon="11.400208486527971"><ele>216.60000000000002</ele><time>2026-03-26T13:56:26Z</time></trkpt><trkpt lat="45.55582767712125" lon="11.400216238132924"><ele>217.20000000000002</ele><time>2026-03-26T13:56:27Z</time></trkpt><trkpt lat="45.55592282314808" lon="11.40022703038389"><ele>217.79999999999998</ele><time>2026-03-26T13:56:28Z</time></trkpt><trkpt lat="45.556018007278794" lon="11.400233365617401"><ele>218.39999999999998</ele><time>2026-03-26T13:56:29Z</time></trkpt><trkpt lat="45.556086445217204" lon="11.400234330554383"><ele>219.0</ele><time>2026-03-26T13:56:30Z</time></trkpt><trkpt lat="45.556215624008175" lon="11.400205434085574"><ele>219.0</ele><time>2026-03-26T13:56:32Z</time></trkpt><trkpt lat="45.55631145958635" lon="11.40024135157822"><ele>218.99999999999997</ele><time>2026-03-26T13:56:33Z</time></trkpt><trkpt lat="45.55643315169071" lon="11.400291193321467"><ele>218.99999999999997</ele><time>2026-03-26T13:56:34Z</time></trkpt><trkpt lat="45.556547841935455" lon="11.40033923030939"><ele>219.0</ele><time>2026-03-26T13:56:35Z</time></trkpt><trkpt lat="45.55663773785354" lon="11.400377717795788"><ele>219.0</ele><time>2026-03-26T13:56:36Z</time></trkpt><trkpt lat="45.55671888334621" lon="11.400415550901258"><ele>219.0</ele><time>2026-03-26T13:56:37Z</time></trkpt><trkpt lat="45.55678510083544" lon="11.400487184811837"><ele>218.99999999999997</ele><time>2026-03-26T13:56:38Z</time></trkpt><trkpt lat="45.55681619342445" lon="11.400633566592877"><ele>218.99999999999997</ele><time>2026-03-26T13:56:39Z</time></trkpt><trkpt lat="45.55686853733799" lon="11.40078726553395"><ele>219.0</ele><time>2026-03-26T13:56:40Z</time></trkpt><trkpt lat="45.556923006653264" lon="11.400930654339138"><ele>219.0</ele><time>2026-03-26T13:56:41Z</time></trkpt><trkpt lat="45.55695883101065" lon="11.401096619875787"><ele>216.0</ele><time>2026-03-26T13:56:42Z</time></trkpt><trkpt lat="45.55700202660149" lon="11.401281226010607"><ele>213.0</ele><time>2026-03-26T13:56:43Z</time></trkpt><trkpt lat="45.557050656154274" lon="11.401443600802896"><ele>210.0</ele><time>2026-03-26T13:56:44Z</time></trkpt><trkpt lat="45.55711028936598" lon="11.401587831874858"><ele>207.0</ele><time>2026-03-26T13:56:45Z</time></trkpt><trkpt lat="45.5571694782642" lon="11.401722390783542"><ele>206.0</ele><time>2026-03-26T13:56:46Z</time></trkpt><trkpt lat="45.55722523220351" lon="11.401834170254107"><ele>205.0</ele><time>2026-03-26T13:56:47Z</time></trkpt><trkpt lat="45.557287845563614" lon="11.401910375807605"><ele>204.0</ele><time>2026-03-26T13:56:48Z</time></trkpt><trkpt lat="45.5573184891354" lon="11.401994264099525"><ele>203.0</ele><time>2026-03-26T13:56:49Z</time></trkpt><trkpt lat="45.557473590922925" lon="11.401936971257859"><ele>202.0</ele><time>2026-03-26T13:56:50Z</time></trkpt><trkpt lat="45.557608279723176" lon="11.401916212593004"><ele>202.0</ele><time>2026-03-26T13:56:51Z</time></trkpt><trkpt lat="45.5577226062071" lon="11.401937173946337"><ele>202.0</ele><time>2026-03-26T13:56:52Z</time></trkpt><trkpt lat="45.557833161300316" lon="11.401924758053047"><ele>202.0</ele><time>2026-03-26T13:56:52.999Z</time></trkpt><trkpt lat="45.55795202027525" lon="11.401925671332844"><ele>202.0</ele><time>2026-03-26T13:56:53.999Z</time></trkpt><trkpt lat="45.558084478026935" lon="11.401940709973426"><ele>201.2</ele><time>2026-03-26T13:56:54.999Z</time></trkpt><trkpt lat="45.55820943445798" lon="11.401920026731727"><ele>200.39999999999998</ele><time>2026-03-26T13:56:55.999Z</time></trkpt><trkpt lat="45.558319613861265" lon="11.401927320901418"><ele>199.60000000000002</ele><time>2026-03-26T13:56:56.999Z</time></trkpt><trkpt lat="45.55841540910251" lon="11.401902279801494"><ele>198.8</ele><time>2026-03-26T13:56:57.999Z</time></trkpt><trkpt lat="45.558499552885095" lon="11.401919592071739"><ele>198.0</ele><time>2026-03-26T13:56:58.999Z</time></trkpt><trkpt lat="45.55860406475591" lon="11.401933333402763"><ele>200.0</ele><time>2026-03-26T13:57:00.999Z</time></trkpt><trkpt lat="45.55871908237248" lon="11.401551349452435"><ele>202.0</ele><time>2026-03-26T13:57:03.999Z</time></trkpt><trkpt lat="45.55874073820026" lon="11.40145431818855"><ele>204.0</ele><time>2026-03-26T13:57:04.999Z</time></trkpt><trkpt lat="45.55873987481481" lon="11.401354359002463"><ele>206.0</ele><time>2026-03-26T13:57:05.999Z</time></trkpt><trkpt lat="45.55874090211709" lon="11.401225797724386"><ele>206.00000000000003</ele><time>2026-03-26T13:57:06.999Z</time></trkpt><trkpt lat="45.55873531246824" lon="11.401097137019379"><ele>206.0</ele><time>2026-03-26T13:57:07.999Z</time></trkpt><trkpt lat="45.558739507904356" lon="11.400995496693392"><ele>206.0</ele><time>2026-03-26T13:57:08.999Z</time></trkpt><trkpt lat="45.558816470733234" lon="11.400869867371116"><ele>206.0</ele><time>2026-03-26T13:57:10.999Z</time></trkpt><trkpt lat="45.55887725537778" lon="11.400808700406552"><ele>206.00000000000003</ele><time>2026-03-26T13:57:11.999Z</time></trkpt><trkpt lat="45.55895028249384" lon="11.400750767898348"><ele>206.0</ele><time>2026-03-26T13:57:12.999Z</time></trkpt><trkpt lat="45.559026581272924" lon="11.400683903315992"><ele>206.0</ele><time>2026-03-26T13:57:13.999Z</time></trkpt><trkpt lat="45.55910104001987" lon="11.400596142672248"><ele>206.0</ele><time>2026-03-26T13:57:14.999Z</time></trkpt><trkpt lat="45.55915375452515" lon="11.4004979089179"><ele>206.0</ele><time>2026-03-26T13:57:15.999Z</time></trkpt><trkpt lat="45.55922709509488" lon="11.400413850615198"><ele>206.0</ele><time>2026-03-26T13:57:16.999Z</time></trkpt><trkpt lat="45.55930727806623" lon="11.40032280856704"><ele>206.0</ele><time>2026-03-26T13:57:17.999Z</time></trkpt><trkpt lat="45.55938593342833" lon="11.400235001054638"><ele>208.33333333333334</ele><time>2026-03-26T13:57:18.999Z</time></trkpt><trkpt lat="45.55946166396675" lon="11.400154724348589"><ele>210.66666666666669</ele><time>2026-03-26T13:57:19.999Z</time></trkpt><trkpt lat="45.55951863998273" lon="11.400067188786913"><ele>213.0</ele><time>2026-03-26T13:57:20.999Z</time></trkpt><trkpt lat="45.55958135083842" lon="11.399999974684118"><ele>215.33333333333331</ele><time>2026-03-26T13:57:21.999Z</time></trkpt><trkpt lat="45.55965991281832" lon="11.399944410810349"><ele>217.66666666666666</ele><time>2026-03-26T13:57:22.999Z</time></trkpt><trkpt lat="45.5597466480835" lon="11.399928590108061"><ele>220.0</ele><time>2026-03-26T13:57:23.999Z</time></trkpt><trkpt lat="45.55988517532364" lon="11.39990352530781"><ele>220.16666666666666</ele><time>2026-03-26T13:57:25.999Z</time></trkpt><trkpt lat="45.55997354475232" lon="11.399869119408587"><ele>220.33333333333331</ele><time>2026-03-26T13:57:26.999Z</time></trkpt><trkpt lat="45.560046781666315" lon="11.39981856617614"><ele>220.5</ele><time>2026-03-26T13:57:28.999Z</time></trkpt><trkpt lat="45.55999453090847" lon="11.399711937914295"><ele>220.66666666666669</ele><time>2026-03-26T13:57:30.999Z</time></trkpt><trkpt lat="45.55997526709111" lon="11.399613763806043"><ele>220.83333333333334</ele><time>2026-03-26T13:57:31.999Z</time></trkpt><trkpt lat="45.5599624921094" lon="11.39950594259289"><ele>221.0</ele><time>2026-03-26T13:57:32.999Z</time></trkpt><trkpt lat="45.559949440845145" lon="11.399413475780237"><ele>221.4</ele><time>2026-03-26T13:57:33.999Z</time></trkpt><trkpt lat="45.55995796923642" lon="11.399324012033125"><ele>221.8</ele><time>2026-03-26T13:57:34.999Z</time></trkpt><trkpt lat="45.56008047146116" lon="11.399239657741587"><ele>222.20000000000002</ele><time>2026-03-26T13:57:36.999Z</time></trkpt><trkpt lat="45.56018027126282" lon="11.399222238307571"><ele>222.60000000000002</ele><time>2026-03-26T13:57:37.998Z</time></trkpt><trkpt lat="45.56027719723039" lon="11.399186436264069"><ele>223.0</ele><time>2026-03-26T13:57:38.998Z</time></trkpt><trkpt lat="45.560380526968956" lon="11.399137235588006"><ele>222.99999999999997</ele><time>2026-03-26T13:57:39.998Z</time></trkpt><trkpt lat="45.560454540079604" lon="11.399063562633808"><ele>223.0</ele><time>2026-03-26T13:57:40.998Z</time></trkpt><trkpt lat="45.560512464602155" lon="11.39899482209446"><ele>223.0</ele><time>2026-03-26T13:57:41.998Z</time></trkpt><trkpt lat="45.560568006534126" lon="11.398894250685194"><ele>223.0</ele><time>2026-03-26T13:57:43.998Z</time></trkpt><trkpt lat="45.56054779798951" lon="11.398783946187303"><ele>222.99999999999997</ele><time>2026-03-26T13:57:44.998Z</time></trkpt><trkpt lat="45.560460569563254" lon="11.39867979481727"><ele>223.0</ele><time>2026-03-26T13:57:45.998Z</time></trkpt><trkpt lat="45.56038417870082" lon="11.398570680328913"><ele>227.0</ele><time>2026-03-26T13:57:46.998Z</time></trkpt><trkpt lat="45.560332884604996" lon="11.398443691641749"><ele>231.0</ele><time>2026-03-26T13:57:47.998Z</time></trkpt><trkpt lat="45.56027659636387" lon="11.398324565608792"><ele>235.0</ele><time>2026-03-26T13:57:48.998Z</time></trkpt><trkpt lat="45.56022765083806" lon="11.398213064319135"><ele>239.0</ele><time>2026-03-26T13:57:49.998Z</time></trkpt><trkpt lat="45.56018384782302" lon="11.398115166615005"><ele>243.0</ele><time>2026-03-26T13:57:50.998Z</time></trkpt><trkpt lat="45.560130196593995" lon="11.397995258640684"><ele>242.75</ele><time>2026-03-26T13:57:52.998Z</time></trkpt><trkpt lat="45.56027417959296" lon="11.397850519550232"><ele>242.5</ele><time>2026-03-26T13:57:55.998Z</time></trkpt><trkpt lat="45.56035278612887" lon="11.397768633948804"><ele>242.25</ele><time>2026-03-26T13:57:56.998Z</time></trkpt><trkpt lat="45.560422001465106" lon="11.397665818101128"><ele>242.0</ele><time>2026-03-26T13:57:57.998Z</time></trkpt><trkpt lat="45.56050382922216" lon="11.397567458169203"><ele>242.0</ele><time>2026-03-26T13:57:58.998Z</time></trkpt><trkpt lat="45.56058446212766" lon="11.397459420927246"><ele>242.0</ele><time>2026-03-26T13:57:59.998Z</time></trkpt><trkpt lat="45.560664035492486" lon="11.397346298916334"><ele>242.0</ele><time>2026-03-26T13:58:00.998Z</time></trkpt><trkpt lat="45.56072689541765" lon="11.397225983175908"><ele>242.0</ele><time>2026-03-26T13:58:01.998Z</time></trkpt><trkpt lat="45.560795996315036" lon="11.39711459901697"><ele>242.0</ele><time>2026-03-26T13:58:02.998Z</time></trkpt><trkpt lat="45.560855862548095" lon="11.39698603521255"><ele>244.0</ele><time>2026-03-26T13:58:03.998Z</time></trkpt><trkpt lat="45.56090888184813" lon="11.396854180906484"><ele>246.0</ele><time>2026-03-26T13:58:04.998Z</time></trkpt><trkpt lat="45.560962038947075" lon="11.396723078762093"><ele>248.0</ele><time>2026-03-26T13:58:05.998Z</time></trkpt><trkpt lat="45.561018581278816" lon="11.396608223208341"><ele>250.0</ele><time>2026-03-26T13:58:06.998Z</time></trkpt><trkpt lat="45.561101848871886" lon="11.396554158297375"><ele>252.0</ele><time>2026-03-26T13:58:07.998Z</time></trkpt><trkpt lat="45.56118937394909" lon="11.396556297019922"><ele>250.0</ele><time>2026-03-26T13:58:08.998Z</time></trkpt><trkpt lat="45.56128958689942" lon="11.39660375625466"><ele>248.0</ele><time>2026-03-26T13:58:09.998Z</time></trkpt><trkpt lat="45.56140128654426" lon="11.39665299022388"><ele>246.0</ele><time>2026-03-26T13:58:10.998Z</time></trkpt><trkpt lat="45.5615303042482" lon="11.396698996830864"><ele>244.0</ele><time>2026-03-26T13:58:11.998Z</time></trkpt><trkpt lat="45.56166155024952" lon="11.396735768858967"><ele>244.0</ele><time>2026-03-26T13:58:12.998Z</time></trkpt><trkpt lat="45.56179744016468" lon="11.396757430068341"><ele>244.0</ele><time>2026-03-26T13:58:13.998Z</time></trkpt><trkpt lat="45.56193612594982" lon="11.396753606633167"><ele>244.0</ele><time>2026-03-26T13:58:14.998Z</time></trkpt><trkpt lat="45.56207044971226" lon="11.39670671642116"><ele>244.0</ele><time>2026-03-26T13:58:15.998Z</time></trkpt><trkpt lat="45.5621825211249" lon="11.396637357520444"><ele>242.75</ele><time>2026-03-26T13:58:16.998Z</time></trkpt><trkpt lat="45.562307460142925" lon="11.396560922224355"><ele>241.5</ele><time>2026-03-26T13:58:17.998Z</time></trkpt><trkpt lat="45.56243880119258" lon="11.396519718663653"><ele>240.25</ele><time>2026-03-26T13:58:18.997Z</time></trkpt><trkpt lat="45.56256670593374" lon="11.39648417969222"><ele>239.0</ele><time>2026-03-26T13:58:19.997Z</time></trkpt><trkpt lat="45.562702069091586" lon="11.396470900158674"><ele>239.0</ele><time>2026-03-26T13:58:20.997Z</time></trkpt><trkpt lat="45.5628525741293" lon="11.396482386750733"><ele>239.0</ele><time>2026-03-26T13:58:21.997Z</time></trkpt><trkpt lat="45.56300662304079" lon="11.396530563169412"><ele>239.0</ele><time>2026-03-26T13:58:22.997Z</time></trkpt><trkpt lat="45.56315026085638" lon="11.396620088156322"><ele>237.25</ele><time>2026-03-26T13:58:23.997Z</time></trkpt><trkpt lat="45.56328667109798" lon="11.39669972648733"><ele>235.5</ele><time>2026-03-26T13:58:24.997Z</time></trkpt><trkpt lat="45.56341798669166" lon="11.39677706836498"><ele>233.75</ele><time>2026-03-26T13:58:26Z</time></trkpt><trkpt lat="45.563545550345005" lon="11.39686282057611"><ele>232.0</ele><time>2026-03-26T13:58:27Z</time></trkpt><trkpt lat="45.56367361840606" lon="11.39697402461469"><ele>231.0</ele><time>2026-03-26T13:58:28Z</time></trkpt><trkpt lat="45.56379155808744" lon="11.397106221543842"><ele>230.0</ele><time>2026-03-26T13:58:29Z</time></trkpt><trkpt lat="45.56390603248886" lon="11.39723031631316"><ele>229.0</ele><time>2026-03-26T13:58:30Z</time></trkpt><trkpt lat="45.56403817150997" lon="11.397337075872464"><ele>228.0</ele><time>2026-03-26T13:58:31Z</time></trkpt><trkpt lat="45.564179104697715" lon="11.397425691709687"><ele>230.5</ele><time>2026-03-26T13:58:32Z</time></trkpt><trkpt lat="45.56432096270578" lon="11.397489038034488"><ele>233.0</ele><time>2026-03-26T13:58:33Z</time></trkpt><trkpt lat="45.56446677972519" lon="11.397528765235629"><ele>235.5</ele><time>2026-03-26T13:58:34Z</time></trkpt><trkpt lat="45.56461397349482" lon="11.397562846200548"><ele>238.0</ele><time>2026-03-26T13:58:35Z</time></trkpt><trkpt lat="45.56474903524161" lon="11.397625698333067"><ele>238.25</ele><time>2026-03-26T13:58:36Z</time></trkpt><trkpt lat="45.56489865087218" lon="11.397652101436458"><ele>238.5</ele><time>2026-03-26T13:58:37Z</time></trkpt><trkpt lat="45.565034780977186" lon="11.39770506207488"><ele>238.75</ele><time>2026-03-26T13:58:38Z</time></trkpt><trkpt lat="45.565169267435344" lon="11.397767058616546"><ele>239.0</ele><time>2026-03-26T13:58:39Z</time></trkpt><trkpt lat="45.565290759937746" lon="11.397867222725896"><ele>236.66666666666669</ele><time>2026-03-26T13:58:40Z</time></trkpt><trkpt lat="45.56541543701084" lon="11.39796170881046"><ele>234.33333333333331</ele><time>2026-03-26T13:58:41Z</time></trkpt><trkpt lat="45.56555940753838" lon="11.39803970091239"><ele>232.0</ele><time>2026-03-26T13:58:42Z</time></trkpt><trkpt lat="45.56570536253226" lon="11.398150345061048"><ele>237.33333333333331</ele><time>2026-03-26T13:58:43Z</time></trkpt><trkpt lat="45.56584966057191" lon="11.398223586766553"><ele>242.66666666666669</ele><time>2026-03-26T13:58:44Z</time></trkpt><trkpt lat="45.5659778045229" lon="11.398277280892193"><ele>248.0</ele><time>2026-03-26T13:58:45Z</time></trkpt><trkpt lat="45.566144303241764" lon="11.398313899311571"><ele>248.0</ele><time>2026-03-26T13:58:46Z</time></trkpt><trkpt lat="45.56629782394216" lon="11.398339629096524"><ele>248.0</ele><time>2026-03-26T13:58:47Z</time></trkpt><trkpt lat="45.56643741252318" lon="11.398360112775864"><ele>248.0</ele><time>2026-03-26T13:58:48Z</time></trkpt><trkpt lat="45.56657111745791" lon="11.39838127237904"><ele>248.0</ele><time>2026-03-26T13:58:49Z</time></trkpt><trkpt lat="45.56670160707211" lon="11.398406631528543"><ele>248.0</ele><time>2026-03-26T13:58:50Z</time></trkpt><trkpt lat="45.56683309127763" lon="11.39843694101736"><ele>248.0</ele><time>2026-03-26T13:58:51Z</time></trkpt><trkpt lat="45.566967568158994" lon="11.398486027471112"><ele>248.0</ele><time>2026-03-26T13:58:52Z</time></trkpt><trkpt lat="45.567101594343434" lon="11.398563733929443"><ele>248.0</ele><time>2026-03-26T13:58:53Z</time></trkpt><trkpt lat="45.56723042689067" lon="11.398669242434195"><ele>249.0</ele><time>2026-03-26T13:58:54Z</time></trkpt><trkpt lat="45.567363522965024" lon="11.398798550966587"><ele>250.0</ele><time>2026-03-26T13:58:55Z</time></trkpt><trkpt lat="45.56749709384696" lon="11.398935312531405"><ele>251.0</ele><time>2026-03-26T13:58:56Z</time></trkpt><trkpt lat="45.567623122218066" lon="11.399063741669078"><ele>251.0</ele><time>2026-03-26T13:58:57Z</time></trkpt><trkpt lat="45.56773863759316" lon="11.399188786994554"><ele>251.0</ele><time>2026-03-26T13:58:58Z</time></trkpt><trkpt lat="45.56784273015494" lon="11.399307535428536"><ele>251.0</ele><time>2026-03-26T13:58:59Z</time></trkpt><trkpt lat="45.56791980599465" lon="11.399435124296062"><ele>251.0</ele><time>2026-03-26T13:59:00Z</time></trkpt><trkpt lat="45.567970353318" lon="11.39959899682475"><ele>253.0</ele><time>2026-03-26T13:59:00.999Z</time></trkpt><trkpt lat="45.568000452890224" lon="11.399770180618795"><ele>255.0</ele><time>2026-03-26T13:59:01.999Z</time></trkpt><trkpt lat="45.56799122056871" lon="11.399960790699607"><ele>257.0</ele><time>2026-03-26T13:59:02.999Z</time></trkpt><trkpt lat="45.567965972554084" lon="11.400122607984857"><ele>259.0</ele><time>2026-03-26T13:59:03.999Z</time></trkpt><trkpt lat="45.567963948435086" lon="11.400281759064507"><ele>259.0</ele><time>2026-03-26T13:59:04.999Z</time></trkpt><trkpt lat="45.56800388057454" lon="11.400459996716757"><ele>259.0</ele><time>2026-03-26T13:59:05.999Z</time></trkpt><trkpt lat="45.56807052135412" lon="11.400649571074014"><ele>259.0</ele><time>2026-03-26T13:59:06.999Z</time></trkpt><trkpt lat="45.5681512627951" lon="11.400825786176783"><ele>259.0</ele><time>2026-03-26T13:59:07.999Z</time></trkpt><trkpt lat="45.568223779340606" lon="11.400976201221031"><ele>256.75</ele><time>2026-03-26T13:59:08.999Z</time></trkpt><trkpt lat="45.568275807953235" lon="11.401125861876075"><ele>254.5</ele><time>2026-03-26T13:59:09.999Z</time></trkpt><trkpt lat="45.56832930053804" lon="11.40126850497476"><ele>252.25</ele><time>2026-03-26T13:59:10.999Z</time></trkpt><trkpt lat="45.568412720684705" lon="11.401369621363187"><ele>250.0</ele><time>2026-03-26T13:59:11.999Z</time></trkpt><trkpt lat="45.56851972021215" lon="11.401432387094596"><ele>248.75</ele><time>2026-03-26T13:59:12.999Z</time></trkpt><trkpt lat="45.56863894670939" lon="11.4014728259593"><ele>247.5</ele><time>2026-03-26T13:59:13.999Z</time></trkpt><trkpt lat="45.56876937568553" lon="11.40150203401408"><ele>246.25</ele><time>2026-03-26T13:59:14.999Z</time></trkpt><trkpt lat="45.56890749469508" lon="11.401509426995867"><ele>245.0</ele><time>2026-03-26T13:59:15.999Z</time></trkpt><trkpt lat="45.56905286653559" lon="11.401489800514536"><ele>244.66666666666669</ele><time>2026-03-26T13:59:16.999Z</time></trkpt><trkpt lat="45.5692046578319" lon="11.401453677471745"><ele>244.33333333333331</ele><time>2026-03-26T13:59:17.999Z</time></trkpt><trkpt lat="45.56936223224366" lon="11.401410701346341"><ele>244.0</ele><time>2026-03-26T13:59:18.999Z</time></trkpt><trkpt lat="45.569525939715106" lon="11.40140114748942"><ele>242.66666666666666</ele><time>2026-03-26T13:59:19.999Z</time></trkpt><trkpt lat="45.569681279050826" lon="11.401371116385269"><ele>241.33333333333331</ele><time>2026-03-26T13:59:20.999Z</time></trkpt><trkpt lat="45.56983332699348" lon="11.401320250010562"><ele>240.0</ele><time>2026-03-26T13:59:21.999Z</time></trkpt><trkpt lat="45.56997778015791" lon="11.401316973095499"><ele>240.5</ele><time>2026-03-26T13:59:22.999Z</time></trkpt><trkpt lat="45.57013290157084" lon="11.40128913747357"><ele>241.0</ele><time>2026-03-26T13:59:23.999Z</time></trkpt><trkpt lat="45.570271936516974" lon="11.401245396065608"><ele>241.5</ele><time>2026-03-26T13:59:24.999Z</time></trkpt><trkpt lat="45.57038346748337" lon="11.401180656311567"><ele>242.0</ele><time>2026-03-26T13:59:25.999Z</time></trkpt><trkpt lat="45.57047699963587" lon="11.401049293122828"><ele>242.0</ele><time>2026-03-26T13:59:26.999Z</time></trkpt><trkpt lat="45.57057909050825" lon="11.40093060943691"><ele>242.0</ele><time>2026-03-26T13:59:27.999Z</time></trkpt><trkpt lat="45.570625701112746" lon="11.400741809247348"><ele>242.0</ele><time>2026-03-26T13:59:28.999Z</time></trkpt><trkpt lat="45.570669753157084" lon="11.400555821713217"><ele>242.0</ele><time>2026-03-26T13:59:29.999Z</time></trkpt><trkpt lat="45.57073605959773" lon="11.400373539706612"><ele>242.5</ele><time>2026-03-26T13:59:30.999Z</time></trkpt><trkpt lat="45.57079607626041" lon="11.400205655173382"><ele>243.0</ele><time>2026-03-26T13:59:31.999Z</time></trkpt><trkpt lat="45.57087556662048" lon="11.400074913552396"><ele>243.5</ele><time>2026-03-26T13:59:32.999Z</time></trkpt><trkpt lat="45.570966376813075" lon="11.399944093643395"><ele>244.0</ele><time>2026-03-26T13:59:33.999Z</time></trkpt><trkpt lat="45.57106633273398" lon="11.39981214062253"><ele>244.0</ele><time>2026-03-26T13:59:34.999Z</time></trkpt><trkpt lat="45.57116045325922" lon="11.39967246946056"><ele>244.0</ele><time>2026-03-26T13:59:35.999Z</time></trkpt><trkpt lat="45.57127650289639" lon="11.399600457464501"><ele>244.0</ele><time>2026-03-26T13:59:36.999Z</time></trkpt><trkpt lat="45.57140105976211" lon="11.39951361515144"><ele>244.0</ele><time>2026-03-26T13:59:37.999Z</time></trkpt><trkpt lat="45.57152843649322" lon="11.399428451140288"><ele>240.75</ele><time>2026-03-26T13:59:38.999Z</time></trkpt><trkpt lat="45.57166878141152" lon="11.399337453882234"><ele>237.5</ele><time>2026-03-26T13:59:39.999Z</time></trkpt><trkpt lat="45.571793199477725" lon="11.399253774255893"><ele>234.25</ele><time>2026-03-26T13:59:40.999Z</time></trkpt><trkpt lat="45.571906585644655" lon="11.399172404389471"><ele>231.0</ele><time>2026-03-26T13:59:41.998Z</time></trkpt><trkpt lat="45.57202713613717" lon="11.39908728736773"><ele>229.25</ele><time>2026-03-26T13:59:42.998Z</time></trkpt><trkpt lat="45.57214054318694" lon="11.399003040350662"><ele>227.5</ele><time>2026-03-26T13:59:43.998Z</time></trkpt><trkpt lat="45.572255546268465" lon="11.398984120184053"><ele>225.75</ele><time>2026-03-26T13:59:44.998Z</time></trkpt><trkpt lat="45.57236422171474" lon="11.399009489115567"><ele>224.0</ele><time>2026-03-26T13:59:45.998Z</time></trkpt><trkpt lat="45.57247487566694" lon="11.39907480030144"><ele>224.0</ele><time>2026-03-26T13:59:46.998Z</time></trkpt><trkpt lat="45.5725832359515" lon="11.399158199811149"><ele>224.0</ele><time>2026-03-26T13:59:47.998Z</time></trkpt><trkpt lat="45.57269383117272" lon="11.399248166281698"><ele>224.0</ele><time>2026-03-26T13:59:48.998Z</time></trkpt><trkpt lat="45.57281002180858" lon="11.39932030528638"><ele>224.0</ele><time>2026-03-26T13:59:49.998Z</time></trkpt><trkpt lat="45.57291253933542" lon="11.39938441180982"><ele>223.25</ele><time>2026-03-26T13:59:50.998Z</time></trkpt><trkpt lat="45.57302765751179" lon="11.399369867587685"><ele>222.5</ele><time>2026-03-26T13:59:51.998Z</time></trkpt><trkpt lat="45.57314602680492" lon="11.399333916428084"><ele>221.75</ele><time>2026-03-26T13:59:52.998Z</time></trkpt><trkpt lat="45.573249976978786" lon="11.399265257219504"><ele>221.0</ele><time>2026-03-26T13:59:53.998Z</time></trkpt><trkpt lat="45.57335088015503" lon="11.399185561967935"><ele>221.0</ele><time>2026-03-26T13:59:54.998Z</time></trkpt><trkpt lat="45.573442835378636" lon="11.399104007829573"><ele>221.0</ele><time>2026-03-26T13:59:55.998Z</time></trkpt><trkpt lat="45.57352836495182" lon="11.399041385370912"><ele>221.0</ele><time>2026-03-26T13:59:56.998Z</time></trkpt><trkpt lat="45.573616955216856" lon="11.399009050133307"><ele>221.0</ele><time>2026-03-26T13:59:57.998Z</time></trkpt><trkpt lat="45.57376648678956" lon="11.399075816266045"><ele>221.0</ele><time>2026-03-26T13:59:59.998Z</time></trkpt><trkpt lat="45.57386664706087" lon="11.399184367574886"><ele>221.0</ele><time>2026-03-26T14:00:00.998Z</time></trkpt><trkpt lat="45.57396184713595" lon="11.399323297989493"><ele>221.0</ele><time>2026-03-26T14:00:01.998Z</time></trkpt><trkpt lat="45.574052180842195" lon="11.399403397704658"><ele>221.0</ele><time>2026-03-26T14:00:02.998Z</time></trkpt><trkpt lat="45.57418556860982" lon="11.399458326936058"><ele>221.0</ele><time>2026-03-26T14:00:03.998Z</time></trkpt><trkpt lat="45.574314126990046" lon="11.399466541027106"><ele>221.0</ele><time>2026-03-26T14:00:04.998Z</time></trkpt><trkpt lat="45.57445929173636" lon="11.399465425823784"><ele>221.0</ele><time>2026-03-26T14:00:05.998Z</time></trkpt><trkpt lat="45.57460598254927" lon="11.39946066694004"><ele>221.0</ele><time>2026-03-26T14:00:06.998Z</time></trkpt><trkpt lat="45.574730391842934" lon="11.399483197990088"><ele>221.25</ele><time>2026-03-26T14:00:07.998Z</time></trkpt><trkpt lat="45.57484334400305" lon="11.399561706103604"><ele>221.5</ele><time>2026-03-26T14:00:08.998Z</time></trkpt><trkpt lat="45.57494273576333" lon="11.399705291944167"><ele>221.75</ele><time>2026-03-26T14:00:09.998Z</time></trkpt><trkpt lat="45.575040802056684" lon="11.399882702935852"><ele>222.0</ele><time>2026-03-26T14:00:10.998Z</time></trkpt><trkpt lat="45.57513622272737" lon="11.400057985198655"><ele>222.0</ele><time>2026-03-26T14:00:11.998Z</time></trkpt><trkpt lat="45.57522598285586" lon="11.400169295960238"><ele>222.0</ele><time>2026-03-26T14:00:12.998Z</time></trkpt><trkpt lat="45.575335813604" lon="11.40023168245924"><ele>222.0</ele><time>2026-03-26T14:00:13.998Z</time></trkpt><trkpt lat="45.575472219886485" lon="11.400255808657205"><ele>222.0</ele><time>2026-03-26T14:00:14.998Z</time></trkpt><trkpt lat="45.57563452651619" lon="11.400290122115377"><ele>226.0</ele><time>2026-03-26T14:00:15.998Z</time></trkpt><trkpt lat="45.575786300621274" lon="11.400315981395709"><ele>230.0</ele><time>2026-03-26T14:00:16.998Z</time></trkpt><trkpt lat="45.5759427873601" lon="11.400373043251689"><ele>234.0</ele><time>2026-03-26T14:00:17.998Z</time></trkpt><trkpt lat="45.57608611496692" lon="11.400471443205861"><ele>236.0</ele><time>2026-03-26T14:00:18.998Z</time></trkpt><trkpt lat="45.57620393667786" lon="11.400617115396559"><ele>238.0</ele><time>2026-03-26T14:00:19.998Z</time></trkpt><trkpt lat="45.57631171873197" lon="11.4008038176499"><ele>240.0</ele><time>2026-03-26T14:00:20.998Z</time></trkpt><trkpt lat="45.576436317703035" lon="11.400939391649988"><ele>240.0</ele><time>2026-03-26T14:00:21.998Z</time></trkpt><trkpt lat="45.576560604118136" lon="11.40107537552884"><ele>240.0</ele><time>2026-03-26T14:00:22.997Z</time></trkpt><trkpt lat="45.57670279927732" lon="11.40116616881557"><ele>240.0</ele><time>2026-03-26T14:00:23.997Z</time></trkpt><trkpt lat="45.57686176448495" lon="11.401235201991696"><ele>240.0</ele><time>2026-03-26T14:00:24.997Z</time></trkpt><trkpt lat="45.577010839813774" lon="11.401325833960763"><ele>240.0</ele><time>2026-03-26T14:00:25.997Z</time></trkpt><trkpt lat="45.57715663670367" lon="11.401432126108494"><ele>240.0</ele><time>2026-03-26T14:00:26.997Z</time></trkpt><trkpt lat="45.57729063981539" lon="11.401543821739228"><ele>239.25</ele><time>2026-03-26T14:00:27.997Z</time></trkpt><trkpt lat="45.577413469233555" lon="11.401635015052321"><ele>238.5</ele><time>2026-03-26T14:00:28.997Z</time></trkpt><trkpt lat="45.577548890438926" lon="11.401689641133515"><ele>237.75</ele><time>2026-03-26T14:00:29.997Z</time></trkpt><trkpt lat="45.57768113467813" lon="11.401720071751114"><ele>237.0</ele><time>2026-03-26T14:00:30.997Z</time></trkpt><trkpt lat="45.57775402686055" lon="11.401709399661435"><ele>238.6</ele><time>2026-03-26T14:00:32Z</time></trkpt><trkpt lat="45.57785533422699" lon="11.401618911160961"><ele>240.2</ele><time>2026-03-26T14:00:33Z</time></trkpt><trkpt lat="45.577921502286976" lon="11.401571689549671"><ele>241.8</ele><time>2026-03-26T14:00:34Z</time></trkpt><trkpt lat="45.578030829358156" lon="11.401618854525827"><ele>243.4</ele><time>2026-03-26T14:00:36Z</time></trkpt><trkpt lat="45.57808630771358" lon="11.40168778042134"><ele>245.0</ele><time>2026-03-26T14:00:37Z</time></trkpt><trkpt lat="45.578142483557215" lon="11.401896872784972"><ele>245.0</ele><time>2026-03-26T14:00:38Z</time></trkpt><trkpt lat="45.57822300927016" lon="11.402059683852757"><ele>245.0</ele><time>2026-03-26T14:00:39Z</time></trkpt><trkpt lat="45.57832009525281" lon="11.402227671017645"><ele>245.0</ele><time>2026-03-26T14:00:40Z</time></trkpt><trkpt lat="45.578417735262946" lon="11.40240254018541"><ele>245.0</ele><time>2026-03-26T14:00:41Z</time></trkpt><trkpt lat="45.57850353095376" lon="11.402566332892116"><ele>244.75</ele><time>2026-03-26T14:00:42Z</time></trkpt><trkpt lat="45.57858314187471" lon="11.402718391463875"><ele>244.5</ele><time>2026-03-26T14:00:43Z</time></trkpt><trkpt lat="45.57868506325305" lon="11.402847671714785"><ele>244.25</ele><time>2026-03-26T14:00:44Z</time></trkpt><trkpt lat="45.57876999926815" lon="11.40302365895716"><ele>244.0</ele><time>2026-03-26T14:00:45Z</time></trkpt><trkpt lat="45.57887145382122" lon="11.4031812604076"><ele>240.66666666666666</ele><time>2026-03-26T14:00:46Z</time></trkpt><trkpt lat="45.578994725376845" lon="11.403317532947234"><ele>237.33333333333331</ele><time>2026-03-26T14:00:47Z</time></trkpt><trkpt lat="45.57913977198259" lon="11.403418558825477"><ele>234.0</ele><time>2026-03-26T14:00:48Z</time></trkpt><trkpt lat="45.57927347680875" lon="11.40347937135073"><ele>234.0</ele><time>2026-03-26T14:00:49Z</time></trkpt><trkpt lat="45.57941192508039" lon="11.403502410900746"><ele>234.0</ele><time>2026-03-26T14:00:50Z</time></trkpt><trkpt lat="45.57955920718193" lon="11.403490225867968"><ele>234.0</ele><time>2026-03-26T14:00:51Z</time></trkpt><trkpt lat="45.57971849380502" lon="11.403460056359624"><ele>234.0</ele><time>2026-03-26T14:00:52Z</time></trkpt><trkpt lat="45.57985625491235" lon="11.403456114661518"><ele>233.25</ele><time>2026-03-26T14:00:53Z</time></trkpt><trkpt lat="45.57996552082833" lon="11.403410356473017"><ele>232.5</ele><time>2026-03-26T14:00:54Z</time></trkpt><trkpt lat="45.58006314612364" lon="11.403391015393256"><ele>231.75</ele><time>2026-03-26T14:00:55Z</time></trkpt><trkpt lat="45.580139464572206" lon="11.403257838952129"><ele>231.0</ele><time>2026-03-26T14:00:56Z</time></trkpt><trkpt lat="45.58019196599257" lon="11.403093472474211"><ele>230.75</ele><time>2026-03-26T14:00:57Z</time></trkpt><trkpt lat="45.58021099318129" lon="11.40291184137182"><ele>230.5</ele><time>2026-03-26T14:00:58Z</time></trkpt><trkpt lat="45.580253818911224" lon="11.402733811838576"><ele>230.25</ele><time>2026-03-26T14:00:59Z</time></trkpt><trkpt lat="45.58032229730123" lon="11.402605026215667"><ele>230.0</ele><time>2026-03-26T14:01:00Z</time></trkpt><trkpt lat="45.58040735517593" lon="11.402507563996105"><ele>230.0</ele><time>2026-03-26T14:01:01Z</time></trkpt><trkpt lat="45.580508214619336" lon="11.402477421877297"><ele>230.0</ele><time>2026-03-26T14:01:02Z</time></trkpt><trkpt lat="45.58061782793934" lon="11.402502609609604"><ele>230.0</ele><time>2026-03-26T14:01:03Z</time></trkpt><trkpt lat="45.58074271777287" lon="11.402543806607651"><ele>230.0</ele><time>2026-03-26T14:01:04Z</time></trkpt><trkpt lat="45.580892253679266" lon="11.402585170029532"><ele>230.0</ele><time>2026-03-26T14:01:05Z</time></trkpt><trkpt lat="45.5810541781118" lon="11.402587576828164"><ele>230.0</ele><time>2026-03-26T14:01:06Z</time></trkpt><trkpt lat="45.58125134140805" lon="11.402586676315977"><ele>230.0</ele><time>2026-03-26T14:01:06.999Z</time></trkpt><trkpt lat="45.58140960120539" lon="11.402616578050694"><ele>229.0</ele><time>2026-03-26T14:01:07.999Z</time></trkpt><trkpt lat="45.58154602166474" lon="11.40269861289324"><ele>228.0</ele><time>2026-03-26T14:01:08.999Z</time></trkpt><trkpt lat="45.58165784256994" lon="11.402815170012273"><ele>227.0</ele><time>2026-03-26T14:01:09.999Z</time></trkpt><trkpt lat="45.581753626438086" lon="11.402977861826956"><ele>226.0</ele><time>2026-03-26T14:01:10.999Z</time></trkpt><trkpt lat="45.58185180012308" lon="11.403140086736954"><ele>223.5</ele><time>2026-03-26T14:01:11.999Z</time></trkpt><trkpt lat="45.58194058284826" lon="11.403311566435237"><ele>221.0</ele><time>2026-03-26T14:01:12.999Z</time></trkpt><trkpt lat="45.58201703554332" lon="11.403491335299861"><ele>218.5</ele><time>2026-03-26T14:01:13.999Z</time></trkpt><trkpt lat="45.58209236731952" lon="11.403637395948001"><ele>216.0</ele><time>2026-03-26T14:01:14.999Z</time></trkpt><trkpt lat="45.58216288313951" lon="11.403772209863785"><ele>215.20000000000002</ele><time>2026-03-26T14:01:15.999Z</time></trkpt><trkpt lat="45.582227806226825" lon="11.403896533167336"><ele>214.40000000000003</ele><time>2026-03-26T14:01:16.999Z</time></trkpt><trkpt lat="45.58229208886043" lon="11.404011792907056"><ele>213.6</ele><time>2026-03-26T14:01:17.999Z</time></trkpt><trkpt lat="45.58237063608614" lon="11.404098662963005"><ele>212.8</ele><time>2026-03-26T14:01:18.999Z</time></trkpt><trkpt lat="45.582481381601994" lon="11.404128417121083"><ele>212.0</ele><time>2026-03-26T14:01:19.999Z</time></trkpt><trkpt lat="45.58259968053197" lon="11.404097482423788"><ele>212.0</ele><time>2026-03-26T14:01:20.999Z</time></trkpt><trkpt lat="45.582703170145976" lon="11.403998415816408"><ele>212.0</ele><time>2026-03-26T14:01:21.999Z</time></trkpt><trkpt lat="45.58279106875183" lon="11.40386344268047"><ele>212.0</ele><time>2026-03-26T14:01:22.999Z</time></trkpt><trkpt lat="45.58285969110337" lon="11.403724892482762"><ele>212.0</ele><time>2026-03-26T14:01:23.999Z</time></trkpt><trkpt lat="45.58292117262985" lon="11.403613134491515"><ele>210.16666666666669</ele><time>2026-03-26T14:01:24.999Z</time></trkpt><trkpt lat="45.582975520830196" lon="11.403521229362255"><ele>208.33333333333334</ele><time>2026-03-26T14:01:25.999Z</time></trkpt><trkpt lat="45.58302315140268" lon="11.40343652842316"><ele>206.5</ele><time>2026-03-26T14:01:26.999Z</time></trkpt><trkpt lat="45.58309755059342" lon="11.403462102147133"><ele>204.66666666666669</ele><time>2026-03-26T14:01:27.999Z</time></trkpt><trkpt lat="45.58317295357035" lon="11.403497382885723"><ele>202.83333333333334</ele><time>2026-03-26T14:01:28.999Z</time></trkpt><trkpt lat="45.583236597396684" lon="11.403498459845746"><ele>201.0</ele><time>2026-03-26T14:01:29.999Z</time></trkpt><trkpt lat="45.5833092127543" lon="11.403340810432951"><ele>201.0</ele><time>2026-03-26T14:01:31.999Z</time></trkpt><trkpt lat="45.583259288179036" lon="11.403178115679482"><ele>201.0</ele><time>2026-03-26T14:01:32.999Z</time></trkpt><trkpt lat="45.58316689681246" lon="11.40300709491261"><ele>201.0</ele><time>2026-03-26T14:01:33.999Z</time></trkpt><trkpt lat="45.58309007468433" lon="11.402857489139905"><ele>201.0</ele><time>2026-03-26T14:01:34.999Z</time></trkpt><trkpt lat="45.58308713938109" lon="11.40272212232479"><ele>202.0</ele><time>2026-03-26T14:01:35.999Z</time></trkpt><trkpt lat="45.58311903207626" lon="11.402617892833941"><ele>203.0</ele><time>2026-03-26T14:01:36.999Z</time></trkpt><trkpt lat="45.583203510884026" lon="11.402574440890781"><ele>204.0</ele><time>2026-03-26T14:01:37.999Z</time></trkpt><trkpt lat="45.58330184801737" lon="11.402557611000494"><ele>205.0</ele><time>2026-03-26T14:01:38.999Z</time></trkpt><trkpt lat="45.58344346810164" lon="11.402489244525706"><ele>206.0</ele><time>2026-03-26T14:01:39.999Z</time></trkpt><trkpt lat="45.583579525065524" lon="11.402402665145857"><ele>201.0</ele><time>2026-03-26T14:01:40.999Z</time></trkpt><trkpt lat="45.583719792811806" lon="11.402366507837048"><ele>196.0</ele><time>2026-03-26T14:01:41.999Z</time></trkpt><trkpt lat="45.58384563136342" lon="11.402337086220383"><ele>191.0</ele><time>2026-03-26T14:01:42.999Z</time></trkpt><trkpt lat="45.58397603092468" lon="11.402321713426876"><ele>186.0</ele><time>2026-03-26T14:01:43.999Z</time></trkpt><trkpt lat="45.5841057716779" lon="11.402307449307107"><ele>186.0</ele><time>2026-03-26T14:01:44.999Z</time></trkpt><trkpt lat="45.58422559896422" lon="11.402286934630558"><ele>186.0</ele><time>2026-03-26T14:01:45.999Z</time></trkpt><trkpt lat="45.58432899217695" lon="11.402249121540258"><ele>186.0</ele><time>2026-03-26T14:01:46.999Z</time></trkpt><trkpt lat="45.58443167932694" lon="11.40221024052078"><ele>186.0</ele><time>2026-03-26T14:01:47.999Z</time></trkpt><trkpt lat="45.5845258759044" lon="11.402141884908993"><ele>186.0</ele><time>2026-03-26T14:01:48.998Z</time></trkpt><trkpt lat="45.58461022125365" lon="11.402024593906098"><ele>179.66666666666666</ele><time>2026-03-26T14:01:49.998Z</time></trkpt><trkpt lat="45.584680731015816" lon="11.401838831886344"><ele>173.33333333333331</ele><time>2026-03-26T14:01:50.998Z</time></trkpt><trkpt lat="45.584771487618504" lon="11.40165506542676"><ele>167.0</ele><time>2026-03-26T14:01:51.998Z</time></trkpt><trkpt lat="45.58485624383376" lon="11.401483075630868"><ele>167.0</ele><time>2026-03-26T14:01:52.998Z</time></trkpt><trkpt lat="45.584930473179625" lon="11.401337243805397"><ele>167.0</ele><time>2026-03-26T14:01:53.998Z</time></trkpt><trkpt lat="45.58501478797151" lon="11.401227458108822"><ele>167.0</ele><time>2026-03-26T14:01:54.998Z</time></trkpt><trkpt lat="45.585097911616494" lon="11.401133903126762"><ele>167.0</ele><time>2026-03-26T14:01:55.998Z</time></trkpt><trkpt lat="45.58516814404429" lon="11.401048104595374"><ele>167.0</ele><time>2026-03-26T14:01:56.998Z</time></trkpt><trkpt lat="45.58521202028427" lon="11.400941065059548"><ele>166.33333333333331</ele><time>2026-03-26T14:01:57.998Z</time></trkpt><trkpt lat="45.585231747548455" lon="11.400830819630514"><ele>165.66666666666666</ele><time>2026-03-26T14:01:58.998Z</time></trkpt><trkpt lat="45.585254187132875" lon="11.400717183109615"><ele>165.0</ele><time>2026-03-26T14:01:59.998Z</time></trkpt><trkpt lat="45.58524174335815" lon="11.400599382827012"><ele>164.33333333333334</ele><time>2026-03-26T14:02:00.998Z</time></trkpt><trkpt lat="45.5852176111789" lon="11.40045917331493"><ele>163.66666666666669</ele><time>2026-03-26T14:02:01.998Z</time></trkpt><trkpt lat="45.58519262324563" lon="11.400330674050915"><ele>163.0</ele><time>2026-03-26T14:02:02.998Z</time></trkpt><trkpt lat="45.58520241075283" lon="11.400228976405582"><ele>163.0</ele><time>2026-03-26T14:02:03.998Z</time></trkpt><trkpt lat="45.58524679323446" lon="11.400088912701712"><ele>163.0</ele><time>2026-03-26T14:02:05.998Z</time></trkpt><trkpt lat="45.58532749167778" lon="11.400010281597062"><ele>163.0</ele><time>2026-03-26T14:02:07.998Z</time></trkpt><trkpt lat="45.58541320781023" lon="11.400001549800903"><ele>163.0</ele><time>2026-03-26T14:02:09.998Z</time></trkpt><trkpt lat="45.585478640891544" lon="11.399932376686934"><ele>163.0</ele><time>2026-03-26T14:02:17.998Z</time></trkpt><trkpt lat="45.58546926989224" lon="11.399777175416927"><ele>161.75</ele><time>2026-03-26T14:02:22.998Z</time></trkpt><trkpt lat="45.58541066644816" lon="11.399653281914302"><ele>160.5</ele><time>2026-03-26T14:02:23.998Z</time></trkpt><trkpt lat="45.58530796553758" lon="11.399486766162028"><ele>159.25</ele><time>2026-03-26T14:02:24.998Z</time></trkpt><trkpt lat="45.58521230573496" lon="11.399340395130146"><ele>158.0</ele><time>2026-03-26T14:02:25.998Z</time></trkpt><trkpt lat="45.585122977277194" lon="11.399178457809745"><ele>156.4</ele><time>2026-03-26T14:02:26.998Z</time></trkpt><trkpt lat="45.58505060691185" lon="11.399040691595408"><ele>154.8</ele><time>2026-03-26T14:02:27.998Z</time></trkpt><trkpt lat="45.58498981283899" lon="11.398929356610923"><ele>153.2</ele><time>2026-03-26T14:02:28.998Z</time></trkpt><trkpt lat="45.58494845254673" lon="11.398834652041968"><ele>151.6</ele><time>2026-03-26T14:02:29.998Z</time></trkpt><trkpt lat="45.584934120075815" lon="11.398745852604147"><ele>150.0</ele><time>2026-03-26T14:02:30.997Z</time></trkpt><trkpt lat="45.58504927172133" lon="11.398586077113475"><ele>149.8</ele><time>2026-03-26T14:02:32.997Z</time></trkpt><trkpt lat="45.58513495450183" lon="11.398491541954174"><ele>149.6</ele><time>2026-03-26T14:02:33.997Z</time></trkpt><trkpt lat="45.585225256949975" lon="11.398376166584265"><ele>149.4</ele><time>2026-03-26T14:02:34.997Z</time></trkpt><trkpt lat="45.58531792297978" lon="11.39833761183576"><ele>149.2</ele><time>2026-03-26T14:02:35.997Z</time></trkpt><trkpt lat="45.5853998689807" lon="11.3983742651407"><ele>149.0</ele><time>2026-03-26T14:02:36.997Z</time></trkpt><trkpt lat="45.5855037531524" lon="11.398404675939634"><ele>151.0</ele><time>2026-03-26T14:02:38Z</time></trkpt><trkpt lat="45.58563091989642" lon="11.3984243630987"><ele>153.0</ele><time>2026-03-26T14:02:39Z</time></trkpt><trkpt lat="45.58572302631651" lon="11.398454131152764"><ele>155.0</ele><time>2026-03-26T14:02:40Z</time></trkpt><trkpt lat="45.58581494794764" lon="11.398456197328768"><ele>157.0</ele><time>2026-03-26T14:02:42Z</time></trkpt><trkpt lat="45.58592157880992" lon="11.398249948769568"><ele>157.0</ele><time>2026-03-26T14:02:48Z</time></trkpt><trkpt lat="45.58599163071443" lon="11.398129967874715"><ele>157.0</ele><time>2026-03-26T14:02:49Z</time></trkpt><trkpt lat="45.5860468462966" lon="11.398010178038714"><ele>157.0</ele><time>2026-03-26T14:02:50Z</time></trkpt><trkpt lat="45.58611708963252" lon="11.397914040093282"><ele>157.0</ele><time>2026-03-26T14:02:51Z</time></trkpt><trkpt lat="45.58620485980954" lon="11.397842294871475"><ele>157.0</ele><time>2026-03-26T14:02:52Z</time></trkpt><trkpt lat="45.58630776520944" lon="11.397756413197353"><ele>159.5</ele><time>2026-03-26T14:02:53Z</time></trkpt><trkpt lat="45.58642416783475" lon="11.397659266446242"><ele>162.0</ele><time>2026-03-26T14:02:54Z</time></trkpt><trkpt lat="45.58651833201853" lon="11.397558498641455"><ele>164.5</ele><time>2026-03-26T14:02:55Z</time></trkpt><trkpt lat="45.58658856472817" lon="11.397477867917118"><ele>167.0</ele><time>2026-03-26T14:02:56Z</time></trkpt><trkpt lat="45.586646357775784" lon="11.397347455976549"><ele>167.0</ele><time>2026-03-26T14:02:57Z</time></trkpt><trkpt lat="45.58669948389019" lon="11.397211859730806"><ele>167.0</ele><time>2026-03-26T14:02:58Z</time></trkpt><trkpt lat="45.58674481081154" lon="11.397092876886392"><ele>167.0</ele><time>2026-03-26T14:02:59Z</time></trkpt><trkpt lat="45.586785129189686" lon="11.396991957153544"><ele>167.0</ele><time>2026-03-26T14:03:00Z</time></trkpt><trkpt lat="45.586764865407964" lon="11.396827312067174"><ele>167.0</ele><time>2026-03-26T14:03:01Z</time></trkpt><trkpt lat="45.586716806693815" lon="11.396687234514427"><ele>167.0</ele><time>2026-03-26T14:03:02Z</time></trkpt><trkpt lat="45.586724704528216" lon="11.396581748221777"><ele>167.0</ele><time>2026-03-26T14:03:03Z</time></trkpt><trkpt lat="45.586729744657305" lon="11.39643200768854"><ele>167.0</ele><time>2026-03-26T14:03:05Z</time></trkpt><trkpt lat="45.58679444991788" lon="11.396359648028845"><ele>167.0</ele><time>2026-03-26T14:03:07Z</time></trkpt><trkpt lat="45.58692165697564" lon="11.396404186416937"><ele>167.0</ele><time>2026-03-26T14:03:08Z</time></trkpt><trkpt lat="45.58703970758096" lon="11.396375713691267"><ele>167.0</ele><time>2026-03-26T14:03:09Z</time></trkpt><trkpt lat="45.58713707867896" lon="11.396316821600497"><ele>167.0</ele><time>2026-03-26T14:03:10Z</time></trkpt><trkpt lat="45.58721562786335" lon="11.396223301786153"><ele>167.0</ele><time>2026-03-26T14:03:11Z</time></trkpt><trkpt lat="45.58728511123345" lon="11.39613008799527"><ele>167.0</ele><time>2026-03-26T14:03:12Z</time></trkpt><trkpt lat="45.5873252269183" lon="11.396009829236345"><ele>167.0</ele><time>2026-03-26T14:03:13Z</time></trkpt><trkpt lat="45.587354116995954" lon="11.395891283978505"><ele>167.0</ele><time>2026-03-26T14:03:14Z</time></trkpt><trkpt lat="45.587311029696714" lon="11.395750982392123"><ele>167.0</ele><time>2026-03-26T14:03:14.999Z</time></trkpt><trkpt lat="45.58728200976343" lon="11.395636321544243"><ele>167.0</ele><time>2026-03-26T14:03:15.999Z</time></trkpt><trkpt lat="45.58728476320857" lon="11.39552455313806"><ele>167.0</ele><time>2026-03-26T14:03:16.999Z</time></trkpt><trkpt lat="45.58730937853711" lon="11.395433618290506"><ele>167.0</ele><time>2026-03-26T14:03:17.999Z</time></trkpt><trkpt lat="45.58733134335613" lon="11.395292142728367"><ele>167.0</ele><time>2026-03-26T14:03:18.999Z</time></trkpt><trkpt lat="45.58735636564219" lon="11.39515699844276"><ele>165.0</ele><time>2026-03-26T14:03:19.999Z</time></trkpt><trkpt lat="45.58738155149075" lon="11.395038480386177"><ele>163.0</ele><time>2026-03-26T14:03:20.999Z</time></trkpt><trkpt lat="45.58740494115177" lon="11.394930296141563"><ele>161.0</ele><time>2026-03-26T14:03:21.999Z</time></trkpt><trkpt lat="45.58742823342246" lon="11.394834647768546"><ele>159.0</ele><time>2026-03-26T14:03:22.999Z</time></trkpt><trkpt lat="45.58747956352773" lon="11.394741356896592"><ele>157.0</ele><time>2026-03-26T14:03:24.999Z</time></trkpt><trkpt lat="45.58762645938286" lon="11.394662617563686"><ele>155.6</ele><time>2026-03-26T14:03:26.999Z</time></trkpt><trkpt lat="45.58770449991984" lon="11.394634573812631"><ele>154.2</ele><time>2026-03-26T14:03:27.999Z</time></trkpt><trkpt lat="45.58783142418471" lon="11.394629033616107"><ele>152.8</ele><time>2026-03-26T14:03:29.999Z</time></trkpt><trkpt lat="45.58791476082784" lon="11.394645371304899"><ele>151.4</ele><time>2026-03-26T14:03:30.999Z</time></trkpt><trkpt lat="45.587979565871734" lon="11.394690800357958"><ele>150.0</ele><time>2026-03-26T14:03:31.999Z</time></trkpt><trkpt lat="45.58805961644638" lon="11.394752926112684"><ele>152.8</ele><time>2026-03-26T14:03:32.999Z</time></trkpt><trkpt lat="45.588139213586864" lon="11.39481291502184"><ele>155.6</ele><time>2026-03-26T14:03:33.999Z</time></trkpt><trkpt lat="45.58821662650377" lon="11.394908363433553"><ele>158.39999999999998</ele><time>2026-03-26T14:03:34.999Z</time></trkpt><trkpt lat="45.58830782699581" lon="11.395000587552127"><ele>161.2</ele><time>2026-03-26T14:03:35.999Z</time></trkpt><trkpt lat="45.58836626998743" lon="11.395079294296862"><ele>164.0</ele><time>2026-03-26T14:03:36.999Z</time></trkpt><trkpt lat="45.5884297529216" lon="11.39513122275572"><ele>164.0</ele><time>2026-03-26T14:03:37.999Z</time></trkpt><trkpt lat="45.588524675812" lon="11.39516933248558"><ele>164.0</ele><time>2026-03-26T14:03:38.999Z</time></trkpt><trkpt lat="45.58862812525151" lon="11.39516772383251"><ele>164.0</ele><time>2026-03-26T14:03:39.999Z</time></trkpt><trkpt lat="45.588738051248164" lon="11.395158669664932"><ele>164.0</ele><time>2026-03-26T14:03:40.999Z</time></trkpt><trkpt lat="45.58882433548498" lon="11.395155606474528"><ele>164.0</ele><time>2026-03-26T14:03:41.999Z</time></trkpt><trkpt lat="45.58890023353858" lon="11.395161846965468"><ele>164.16666666666666</ele><time>2026-03-26T14:03:42.999Z</time></trkpt><trkpt lat="45.5889695906117" lon="11.395186468454092"><ele>164.33333333333331</ele><time>2026-03-26T14:03:43.999Z</time></trkpt><trkpt lat="45.58904982044109" lon="11.395217515437139"><ele>164.5</ele><time>2026-03-26T14:03:44.999Z</time></trkpt><trkpt lat="45.58912447300123" lon="11.395250452079763"><ele>164.66666666666666</ele><time>2026-03-26T14:03:45.999Z</time></trkpt><trkpt lat="45.58919337011141" lon="11.39527256460959"><ele>164.83333333333334</ele><time>2026-03-26T14:03:46.999Z</time></trkpt><trkpt lat="45.58927691270099" lon="11.395299923175978"><ele>165.0</ele><time>2026-03-26T14:03:47.999Z</time></trkpt><trkpt lat="45.58935571331293" lon="11.395336413259425"><ele>165.0</ele><time>2026-03-26T14:03:48.999Z</time></trkpt><trkpt lat="45.5894554743839" lon="11.39541639474674"><ele>165.0</ele><time>2026-03-26T14:03:49.999Z</time></trkpt><trkpt lat="45.5895394215014" lon="11.395483002218118"><ele>165.0</ele><time>2026-03-26T14:03:50.999Z</time></trkpt><trkpt lat="45.589656561503034" lon="11.39558843293966"><ele>165.0</ele><time>2026-03-26T14:03:52.999Z</time></trkpt><trkpt lat="45.589741668228136" lon="11.395672161083096"><ele>168.0</ele><time>2026-03-26T14:03:53.999Z</time></trkpt><trkpt lat="45.58982830526934" lon="11.395765825602707"><ele>171.0</ele><time>2026-03-26T14:03:54.998Z</time></trkpt><trkpt lat="45.58990184251103" lon="11.395853473032666"><ele>174.0</ele><time>2026-03-26T14:03:55.998Z</time></trkpt><trkpt lat="45.58998038529764" lon="11.395949797373026"><ele>177.0</ele><time>2026-03-26T14:03:56.998Z</time></trkpt><trkpt lat="45.5900283019238" lon="11.396008561679704"><ele>180.0</ele><time>2026-03-26T14:03:57.998Z</time></trkpt><trkpt lat="45.590084736708896" lon="11.396081528318208"><ele>183.0</ele><time>2026-03-26T14:03:58.998Z</time></trkpt><trkpt lat="45.59015045611958" lon="11.396177133481464"><ele>183.0</ele><time>2026-03-26T14:03:59.998Z</time></trkpt><trkpt lat="45.59020652369066" lon="11.396281655170219"><ele>183.0</ele><time>2026-03-26T14:04:00.998Z</time></trkpt><trkpt lat="45.590255008545185" lon="11.3963835957146"><ele>183.0</ele><time>2026-03-26T14:04:01.998Z</time></trkpt><trkpt lat="45.590314110720776" lon="11.396481553927837"><ele>183.0</ele><time>2026-03-26T14:04:02.998Z</time></trkpt><trkpt lat="45.59036777147299" lon="11.396628894127726"><ele>183.0</ele><time>2026-03-26T14:04:03.998Z</time></trkpt><trkpt lat="45.590425399861786" lon="11.396719808370479"><ele>182.83333333333334</ele><time>2026-03-26T14:04:04.998Z</time></trkpt><trkpt lat="45.59047936494069" lon="11.396846008901507"><ele>182.66666666666666</ele><time>2026-03-26T14:04:05.998Z</time></trkpt><trkpt lat="45.590521407896915" lon="11.39694278088569"><ele>182.5</ele><time>2026-03-26T14:04:06.998Z</time></trkpt><trkpt lat="45.59055370048017" lon="11.397052528565869"><ele>182.33333333333331</ele><time>2026-03-26T14:04:07.998Z</time></trkpt><trkpt lat="45.590593995432926" lon="11.397147016804782"><ele>182.16666666666666</ele><time>2026-03-26T14:04:08.998Z</time></trkpt><trkpt lat="45.590648487972125" lon="11.397224004561428"><ele>182.0</ele><time>2026-03-26T14:04:09.998Z</time></trkpt><trkpt lat="45.59071395970239" lon="11.3973374933298"><ele>185.8</ele><time>2026-03-26T14:04:10.998Z</time></trkpt><trkpt lat="45.59076776529212" lon="11.397451315550155"><ele>189.6</ele><time>2026-03-26T14:04:11.998Z</time></trkpt><trkpt lat="45.59084210085799" lon="11.397544284700432"><ele>193.4</ele><time>2026-03-26T14:04:12.998Z</time></trkpt><trkpt lat="45.59092708499439" lon="11.39762539281786"><ele>197.20000000000002</ele><time>2026-03-26T14:04:13.998Z</time></trkpt><trkpt lat="45.59102441417919" lon="11.397709060403947"><ele>201.0</ele><time>2026-03-26T14:04:14.998Z</time></trkpt><trkpt lat="45.59109268499849" lon="11.397798891315722"><ele>201.0</ele><time>2026-03-26T14:04:15.998Z</time></trkpt><trkpt lat="45.59115444397323" lon="11.39787090013661"><ele>201.0</ele><time>2026-03-26T14:04:16.998Z</time></trkpt><trkpt lat="45.5912399247973" lon="11.398001992718772"><ele>201.0</ele><time>2026-03-26T14:04:18.998Z</time></trkpt><trkpt lat="45.5912821097034" lon="11.398102188332617"><ele>201.0</ele><time>2026-03-26T14:04:19.998Z</time></trkpt><trkpt lat="45.59127943577952" lon="11.398252287507317"><ele>201.0</ele><time>2026-03-26T14:04:20.998Z</time></trkpt><trkpt lat="45.59135015651615" lon="11.398372600176758"><ele>199.66666666666666</ele><time>2026-03-26T14:04:21.998Z</time></trkpt><trkpt lat="45.59140547356544" lon="11.39843974814229"><ele>198.33333333333331</ele><time>2026-03-26T14:04:22.998Z</time></trkpt><trkpt lat="45.59148654629714" lon="11.398550699187053"><ele>197.0</ele><time>2026-03-26T14:04:23.998Z</time></trkpt><trkpt lat="45.5915665003495" lon="11.39861292587359"><ele>195.66666666666666</ele><time>2026-03-26T14:04:24.998Z</time></trkpt><trkpt lat="45.5916254617431" lon="11.398686002239387"><ele>194.33333333333331</ele><time>2026-03-26T14:04:25.998Z</time></trkpt><trkpt lat="45.5916926987653" lon="11.39876711382394"><ele>193.0</ele><time>2026-03-26T14:04:26.998Z</time></trkpt><trkpt lat="45.59170317278344" lon="11.398867394678929"><ele>195.83333333333331</ele><time>2026-03-26T14:04:27.998Z</time></trkpt><trkpt lat="45.591719968127826" lon="11.398987776991357"><ele>198.66666666666666</ele><time>2026-03-26T14:04:28.998Z</time></trkpt><trkpt lat="45.59172323317944" lon="11.399110537449092"><ele>201.5</ele><time>2026-03-26T14:04:29.998Z</time></trkpt><trkpt lat="45.59173954067992" lon="11.399229781710238"><ele>204.33333333333331</ele><time>2026-03-26T14:04:30.998Z</time></trkpt><trkpt lat="45.59177591895817" lon="11.399306456326048"><ele>207.16666666666666</ele><time>2026-03-26T14:04:31.998Z</time></trkpt><trkpt lat="45.591830738238016" lon="11.399407852723408"><ele>210.0</ele><time>2026-03-26T14:04:32.998Z</time></trkpt><trkpt lat="45.59194070684389" lon="11.399467277265096"><ele>209.33333333333334</ele><time>2026-03-26T14:04:33.998Z</time></trkpt><trkpt lat="45.59200792115829" lon="11.399551489989268"><ele>208.66666666666669</ele><time>2026-03-26T14:04:34.998Z</time></trkpt><trkpt lat="45.592080581251246" lon="11.399607302224744"><ele>208.0</ele><time>2026-03-26T14:04:35.997Z</time></trkpt><trkpt lat="45.59216774056584" lon="11.399655938803344"><ele>207.33333333333334</ele><time>2026-03-26T14:04:36.997Z</time></trkpt><trkpt lat="45.59224119488842" lon="11.399695850021594"><ele>206.66666666666669</ele><time>2026-03-26T14:04:37.997Z</time></trkpt><trkpt lat="45.59230090889013" lon="11.399744561051522"><ele>206.0</ele><time>2026-03-26T14:04:38.997Z</time></trkpt><trkpt lat="45.59235383646707" lon="11.39982970219345"><ele>206.0</ele><time>2026-03-26T14:04:39.997Z</time></trkpt><trkpt lat="45.592414791721225" lon="11.399885475736246"><ele>206.0</ele><time>2026-03-26T14:04:40.997Z</time></trkpt><trkpt lat="45.59249524246622" lon="11.399926246326231"><ele>206.0</ele><time>2026-03-26T14:04:42.997Z</time></trkpt><trkpt lat="45.5926863280692" lon="11.399738591811246"><ele>206.0</ele><time>2026-03-26T14:04:45Z</time></trkpt><trkpt lat="45.59277258268024" lon="11.399668681689322"><ele>209.4</ele><time>2026-03-26T14:04:46Z</time></trkpt><trkpt lat="45.592860264835885" lon="11.39961907998923"><ele>212.8</ele><time>2026-03-26T14:04:47Z</time></trkpt><trkpt lat="45.59295459609591" lon="11.39960317984461"><ele>216.20000000000002</ele><time>2026-03-26T14:04:48Z</time></trkpt><trkpt lat="45.59304382626256" lon="11.399615306321534"><ele>219.60000000000002</ele><time>2026-03-26T14:04:49Z</time></trkpt><trkpt lat="45.59312823035237" lon="11.399615308363558"><ele>223.0</ele><time>2026-03-26T14:04:50Z</time></trkpt><trkpt lat="45.59318296914166" lon="11.39942967915694"><ele>223.0</ele><time>2026-03-26T14:04:51Z</time></trkpt><trkpt lat="45.593236790961235" lon="11.399326172600851"><ele>223.0</ele><time>2026-03-26T14:04:52Z</time></trkpt><trkpt lat="45.59329449532118" lon="11.399225712738279"><ele>223.0</ele><time>2026-03-26T14:04:53Z</time></trkpt><trkpt lat="45.59335929405107" lon="11.399114914009314"><ele>223.0</ele><time>2026-03-26T14:04:54Z</time></trkpt><trkpt lat="45.59341758765578" lon="11.398985111976339"><ele>223.0</ele><time>2026-03-26T14:04:55Z</time></trkpt><trkpt lat="45.593463807256846" lon="11.398854774422825"><ele>221.25</ele><time>2026-03-26T14:04:56Z</time></trkpt><trkpt lat="45.59349950378702" lon="11.39870919903277"><ele>219.5</ele><time>2026-03-26T14:04:57Z</time></trkpt><trkpt lat="45.593525718859546" lon="11.398499344917598"><ele>217.75</ele><time>2026-03-26T14:04:58Z</time></trkpt><trkpt lat="45.593539811954024" lon="11.398299354373217"><ele>216.0</ele><time>2026-03-26T14:04:59Z</time></trkpt><trkpt lat="45.59355038609087" lon="11.39811537196506"><ele>215.5</ele><time>2026-03-26T14:05:00Z</time></trkpt><trkpt lat="45.59355568817732" lon="11.397912519541466"><ele>215.0</ele><time>2026-03-26T14:05:01Z</time></trkpt><trkpt lat="45.59355587512407" lon="11.397703413781212"><ele>214.5</ele><time>2026-03-26T14:05:02Z</time></trkpt><trkpt lat="45.59354861954361" lon="11.397497269306749"><ele>214.0</ele><time>2026-03-26T14:05:03Z</time></trkpt><trkpt lat="45.593540603854024" lon="11.397298241635713"><ele>214.25</ele><time>2026-03-26T14:05:04Z</time></trkpt><trkpt lat="45.59354228816578" lon="11.39709913583831"><ele>214.5</ele><time>2026-03-26T14:05:05Z</time></trkpt><trkpt lat="45.59355433217169" lon="11.39690335122719"><ele>214.75</ele><time>2026-03-26T14:05:06Z</time></trkpt><trkpt lat="45.593545176233576" lon="11.396734778088964"><ele>215.0</ele><time>2026-03-26T14:05:07Z</time></trkpt><trkpt lat="45.59356569968826" lon="11.396582024245598"><ele>215.0</ele><time>2026-03-26T14:05:08Z</time></trkpt><trkpt lat="45.59359684663791" lon="11.396424343961433"><ele>215.0</ele><time>2026-03-26T14:05:09Z</time></trkpt><trkpt lat="45.59365725612199" lon="11.396297049073363"><ele>215.0</ele><time>2026-03-26T14:05:10Z</time></trkpt><trkpt lat="45.5937384201783" lon="11.39619680591829"><ele>215.0</ele><time>2026-03-26T14:05:11Z</time></trkpt><trkpt lat="45.59383552496101" lon="11.396138785082048"><ele>215.0</ele><time>2026-03-26T14:05:12Z</time></trkpt><trkpt lat="45.59394686344239" lon="11.396101981234954"><ele>219.25</ele><time>2026-03-26T14:05:13Z</time></trkpt><trkpt lat="45.5940586118758" lon="11.39609063663239"><ele>223.5</ele><time>2026-03-26T14:05:14Z</time></trkpt><trkpt lat="45.59418260686649" lon="11.39606627096935"><ele>227.75</ele><time>2026-03-26T14:05:15Z</time></trkpt><trkpt lat="45.59431399682291" lon="11.39605593176174"><ele>232.0</ele><time>2026-03-26T14:05:16Z</time></trkpt><trkpt lat="45.594462874799376" lon="11.396022212413955"><ele>237.66666666666666</ele><time>2026-03-26T14:05:17Z</time></trkpt><trkpt lat="45.59461646122921" lon="11.395924820081332"><ele>243.33333333333331</ele><time>2026-03-26T14:05:18Z</time></trkpt><trkpt lat="45.594759099461484" lon="11.395827737921417"><ele>249.0</ele><time>2026-03-26T14:05:19Z</time></trkpt><trkpt lat="45.59490617461361" lon="11.395739305903263"><ele>249.0</ele><time>2026-03-26T14:05:20Z</time></trkpt><trkpt lat="45.59505220701532" lon="11.395620388013162"><ele>249.0</ele><time>2026-03-26T14:05:21Z</time></trkpt><trkpt lat="45.59518388456535" lon="11.395459678891154"><ele>249.0</ele><time>2026-03-26T14:05:22Z</time></trkpt><trkpt lat="45.59532870606297" lon="11.395328750511041"><ele>253.0</ele><time>2026-03-26T14:05:22.999Z</time></trkpt><trkpt lat="45.59543212886835" lon="11.39519251845862"><ele>257.0</ele><time>2026-03-26T14:05:23.999Z</time></trkpt><trkpt lat="45.59551741500966" lon="11.395042410179498"><ele>261.0</ele><time>2026-03-26T14:05:24.999Z</time></trkpt><trkpt lat="45.595574755622465" lon="11.394867587216853"><ele>265.0</ele><time>2026-03-26T14:05:25.999Z</time></trkpt><trkpt lat="45.59559260769323" lon="11.394695335757767"><ele>266.8</ele><time>2026-03-26T14:05:26.999Z</time></trkpt><trkpt lat="45.595560985014984" lon="11.394539835746306"><ele>268.6</ele><time>2026-03-26T14:05:27.999Z</time></trkpt><trkpt lat="45.595517453189956" lon="11.39444335032822"><ele>270.4</ele><time>2026-03-26T14:05:28.999Z</time></trkpt><trkpt lat="45.59554176557028" lon="11.394348686357397"><ele>272.2</ele><time>2026-03-26T14:05:30.999Z</time></trkpt><trkpt lat="45.59560522669261" lon="11.394511043168015"><ele>274.0</ele><time>2026-03-26T14:05:32.999Z</time></trkpt><trkpt lat="45.595684090044706" lon="11.39462531448819"><ele>271.75</ele><time>2026-03-26T14:05:33.999Z</time></trkpt><trkpt lat="45.59577739505637" lon="11.394750811633973"><ele>269.5</ele><time>2026-03-26T14:05:34.999Z</time></trkpt><trkpt lat="45.595869701559096" lon="11.394872766075308"><ele>267.25</ele><time>2026-03-26T14:05:35.999Z</time></trkpt><trkpt lat="45.595961320617945" lon="11.394978921491944"><ele>265.0</ele><time>2026-03-26T14:05:36.999Z</time></trkpt><trkpt lat="45.59606161364432" lon="11.395112267697295"><ele>265.0</ele><time>2026-03-26T14:05:37.999Z</time></trkpt><trkpt lat="45.596164058679044" lon="11.39524771894737"><ele>265.0</ele><time>2026-03-26T14:05:38.999Z</time></trkpt><trkpt lat="45.59624243930041" lon="11.395348132476112"><ele>265.0</ele><time>2026-03-26T14:05:39.999Z</time></trkpt><trkpt lat="45.59630201591962" lon="11.395415405529612"><ele>265.0</ele><time>2026-03-26T14:05:40.999Z</time></trkpt><trkpt lat="45.596371931122846" lon="11.395450261473698"><ele>265.0</ele><time>2026-03-26T14:05:41.999Z</time></trkpt><trkpt lat="45.59645243048651" lon="11.395425780178561"><ele>267.6</ele><time>2026-03-26T14:05:42.999Z</time></trkpt><trkpt lat="45.596535462523136" lon="11.395342220816673"><ele>270.2</ele><time>2026-03-26T14:05:43.999Z</time></trkpt><trkpt lat="45.59659900416131" lon="11.395280022224757"><ele>272.8</ele><time>2026-03-26T14:05:44.999Z</time></trkpt><trkpt lat="45.59666159335119" lon="11.395371525681867"><ele>275.4</ele><time>2026-03-26T14:05:47.999Z</time></trkpt><trkpt lat="45.59662955495987" lon="11.395469106354557"><ele>278.0</ele><time>2026-03-26T14:05:49.999Z</time></trkpt><trkpt lat="45.59663350438612" lon="11.395621110281105"><ele>278.0</ele><time>2026-03-26T14:05:52.999Z</time></trkpt><trkpt lat="45.59671031059034" lon="11.395664485356157"><ele>278.0</ele><time>2026-03-26T14:05:53.999Z</time></trkpt><trkpt lat="45.59683892194009" lon="11.395631427103185"><ele>278.0</ele><time>2026-03-26T14:05:54.999Z</time></trkpt><trkpt lat="45.59690793318502" lon="11.395595613618772"><ele>278.0</ele><time>2026-03-26T14:05:55.999Z</time></trkpt><trkpt lat="45.59699078133387" lon="11.395593177854296"><ele>278.0</ele><time>2026-03-26T14:05:56.999Z</time></trkpt><trkpt lat="45.5970773619422" lon="11.395624393198606"><ele>277.6</ele><time>2026-03-26T14:05:57.999Z</time></trkpt><trkpt lat="45.59719202822609" lon="11.39566702249923"><ele>277.20000000000005</ele><time>2026-03-26T14:05:58.999Z</time></trkpt><trkpt lat="45.59729458826189" lon="11.39568851450944"><ele>276.8</ele><time>2026-03-26T14:05:59.999Z</time></trkpt><trkpt lat="45.59739342709576" lon="11.395739063097782"><ele>276.40000000000003</ele><time>2026-03-26T14:06:00.999Z</time></trkpt><trkpt lat="45.59744296759132" lon="11.3958095786021"><ele>276.0</ele><time>2026-03-26T14:06:01.999Z</time></trkpt><trkpt lat="45.597502826844455" lon="11.395880924736147"><ele>276.0</ele><time>2026-03-26T14:06:02.998Z</time></trkpt><trkpt lat="45.5975936995383" lon="11.395958058224481"><ele>276.0</ele><time>2026-03-26T14:06:03.998Z</time></trkpt><trkpt lat="45.59772452021124" lon="11.396005625517962"><ele>276.0</ele><time>2026-03-26T14:06:04.998Z</time></trkpt><trkpt lat="45.59781526119162" lon="11.396062744473683"><ele>276.0</ele><time>2026-03-26T14:06:05.998Z</time></trkpt><trkpt lat="45.597911122800596" lon="11.39614639469092"><ele>278.8</ele><time>2026-03-26T14:06:06.998Z</time></trkpt><trkpt lat="45.59798878550578" lon="11.396236082963787"><ele>281.6</ele><time>2026-03-26T14:06:07.998Z</time></trkpt><trkpt lat="45.59807407253933" lon="11.396290310952429"><ele>284.4</ele><time>2026-03-26T14:06:08.998Z</time></trkpt><trkpt lat="45.598156863818396" lon="11.396358520758088"><ele>287.2</ele><time>2026-03-26T14:06:09.998Z</time></trkpt><trkpt lat="45.59821749699412" lon="11.396426578292104"><ele>290.0</ele><time>2026-03-26T14:06:10.998Z</time></trkpt><trkpt lat="45.59828531782707" lon="11.396509611714677"><ele>284.33333333333337</ele><time>2026-03-26T14:06:11.998Z</time></trkpt><trkpt lat="45.598369541599276" lon="11.39659736833403"><ele>278.6666666666667</ele><time>2026-03-26T14:06:12.998Z</time></trkpt><trkpt lat="45.59842589592805" lon="11.3966641688743"><ele>273.0</ele><time>2026-03-26T14:06:13.998Z</time></trkpt><trkpt lat="45.598493747030005" lon="11.396755009523025"><ele>267.3333333333333</ele><time>2026-03-26T14:06:15.998Z</time></trkpt><trkpt lat="45.598528354956045" lon="11.396874957126414"><ele>261.66666666666663</ele><time>2026-03-26T14:06:17.998Z</time></trkpt><trkpt lat="45.5985869846027" lon="11.396945262426676"><ele>256.0</ele><time>2026-03-26T14:06:19.998Z</time></trkpt><trkpt lat="45.59865694992082" lon="11.397022111647406"><ele>254.60000000000002</ele><time>2026-03-26T14:06:23.998Z</time></trkpt><trkpt lat="45.59880048747335" lon="11.396952665731614"><ele>253.20000000000002</ele><time>2026-03-26T14:06:26.998Z</time></trkpt><trkpt lat="45.59888413321611" lon="11.396918613330431"><ele>251.79999999999998</ele><time>2026-03-26T14:06:28.998Z</time></trkpt><trkpt lat="45.59887323279361" lon="11.39702662051336"><ele>250.39999999999998</ele><time>2026-03-26T14:06:36.998Z</time></trkpt><trkpt lat="45.59883614098498" lon="11.397107689022487"><ele>249.0</ele><time>2026-03-26T14:06:38.998Z</time></trkpt><trkpt lat="45.598816913275236" lon="11.3972312597001"><ele>244.5</ele><time>2026-03-26T14:06:41.998Z</time></trkpt><trkpt lat="45.59876703910518" lon="11.397323942932811"><ele>240.0</ele><time>2026-03-26T14:06:43.997Z</time></trkpt><trkpt lat="45.5987700555971" lon="11.397432622025944"><ele>235.5</ele><time>2026-03-26T14:06:45.997Z</time></trkpt><trkpt lat="45.59872952321419" lon="11.397536548656484"><ele>231.0</ele><time>2026-03-26T14:06:47.997Z</time></trkpt><trkpt lat="45.59869735863679" lon="11.397615293429155"><ele>226.5</ele><time>2026-03-26T14:06:53Z</time></trkpt><trkpt lat="45.59876945731904" lon="11.397603923032207"><ele>222.0</ele><time>2026-03-26T14:07:42.999Z</time></trkpt><trkpt lat="45.59885513272119" lon="11.39752779494887"><ele>222.0</ele><time>2026-03-26T14:07:45.999Z</time></trkpt><trkpt lat="45.5989187203209" lon="11.397480063863776"><ele>222.0</ele><time>2026-03-26T14:07:46.999Z</time></trkpt><trkpt lat="45.59901978194567" lon="11.397419600085332"><ele>222.0</ele><time>2026-03-26T14:07:48.999Z</time></trkpt><trkpt lat="45.5990981889993" lon="11.397345705256464"><ele>222.0</ele><time>2026-03-26T14:07:50.999Z</time></trkpt><trkpt lat="45.599167473882645" lon="11.397310101251916"><ele>222.0</ele><time>2026-03-26T14:07:51.999Z</time></trkpt><trkpt lat="45.59928019313677" lon="11.397272712001314"><ele>222.0</ele><time>2026-03-26T14:07:53.999Z</time></trkpt><trkpt lat="45.599357417477584" lon="11.397219422194224"><ele>222.0</ele><time>2026-03-26T14:07:55.999Z</time></trkpt><trkpt lat="45.599418327780654" lon="11.39718314897971"><ele>222.0</ele><time>2026-03-26T14:07:57.999Z</time></trkpt><trkpt lat="45.59944477770312" lon="11.397099180124545"><ele>222.0</ele><time>2026-03-26T14:08:00.999Z</time></trkpt><trkpt lat="45.599529745592136" lon="11.397028254573904"><ele>222.0</ele><time>2026-03-26T14:08:03.999Z</time></trkpt><trkpt lat="45.59964595454829" lon="11.396952451808236"><ele>222.0</ele><time>2026-03-26T14:08:06.999Z</time></trkpt><trkpt lat="45.599735595293055" lon="11.39696493966037"><ele>219.8</ele><time>2026-03-26T14:08:08.998Z</time></trkpt><trkpt lat="45.59984728536476" lon="11.397037569705672"><ele>217.6</ele><time>2026-03-26T14:08:10.998Z</time></trkpt><trkpt lat="45.599931503012336" lon="11.39713851929443"><ele>215.4</ele><time>2026-03-26T14:08:12.998Z</time></trkpt><trkpt lat="45.59999085233664" lon="11.397196002401332"><ele>213.20000000000002</ele><time>2026-03-26T14:08:13.998Z</time></trkpt><trkpt lat="45.60007603206736" lon="11.397299824761705"><ele>211.0</ele><time>2026-03-26T14:08:15.998Z</time></trkpt><trkpt lat="45.600122006238635" lon="11.397425952884666"><ele>211.0</ele><time>2026-03-26T14:08:16.998Z</time></trkpt><trkpt lat="45.60016645781167" lon="11.39759054610356"><ele>211.0</ele><time>2026-03-26T14:08:17.998Z</time></trkpt><trkpt lat="45.600217533695314" lon="11.39768738098441"><ele>211.0</ele><time>2026-03-26T14:08:18.998Z</time></trkpt><trkpt lat="45.600204479608635" lon="11.397819506975198"><ele>211.0</ele><time>2026-03-26T14:08:19.998Z</time></trkpt><trkpt lat="45.60017072601938" lon="11.397962536707132"><ele>211.0</ele><time>2026-03-26T14:08:20.998Z</time></trkpt><trkpt lat="45.60016216316072" lon="11.398081831142488"><ele>208.99999999999997</ele><time>2026-03-26T14:08:21.998Z</time></trkpt><trkpt lat="45.60015339960023" lon="11.398202649790967"><ele>207.0</ele><time>2026-03-26T14:08:22.998Z</time></trkpt><trkpt lat="45.60015578110528" lon="11.398310509765336"><ele>205.0</ele><time>2026-03-26T14:08:23.998Z</time></trkpt><trkpt lat="45.60016881078776" lon="11.398436931721038"><ele>203.0</ele><time>2026-03-26T14:08:24.998Z</time></trkpt><trkpt lat="45.60020117237698" lon="11.398573658662622"><ele>200.99999999999997</ele><time>2026-03-26T14:08:25.998Z</time></trkpt><trkpt lat="45.600208331464366" lon="11.398703891687372"><ele>199.0</ele><time>2026-03-26T14:08:26.998Z</time></trkpt><trkpt lat="45.60019900951602" lon="11.398826795403721"><ele>197.0</ele><time>2026-03-26T14:08:27.998Z</time></trkpt><trkpt lat="45.60020166351371" lon="11.39895054419655"><ele>195.0</ele><time>2026-03-26T14:08:28.998Z</time></trkpt><trkpt lat="45.60020971883751" lon="11.399071718908981"><ele>193.0</ele><time>2026-03-26T14:08:29.998Z</time></trkpt><trkpt lat="45.60018266558937" lon="11.399206759690742"><ele>191.0</ele><time>2026-03-26T14:08:30.998Z</time></trkpt><trkpt lat="45.60020336801418" lon="11.399357018383549"><ele>189.0</ele><time>2026-03-26T14:08:31.998Z</time></trkpt><trkpt lat="45.60021933141407" lon="11.399497659221964"><ele>189.0</ele><time>2026-03-26T14:08:32.998Z</time></trkpt><trkpt lat="45.60025553084056" lon="11.399615792790076"><ele>189.0</ele><time>2026-03-26T14:08:33.998Z</time></trkpt><trkpt lat="45.60029608770436" lon="11.39980828484469"><ele>189.0</ele><time>2026-03-26T14:08:35.998Z</time></trkpt><trkpt lat="45.600333973339055" lon="11.399894109236914"><ele>189.0</ele><time>2026-03-26T14:08:36.998Z</time></trkpt><trkpt lat="45.60038403337924" lon="11.400053835120337"><ele>189.0</ele><time>2026-03-26T14:08:38.998Z</time></trkpt><trkpt lat="45.60044410349116" lon="11.400119372216004"><ele>193.79999999999998</ele><time>2026-03-26T14:08:39.998Z</time></trkpt><trkpt lat="45.60051355539954" lon="11.400180973304682"><ele>198.6</ele><time>2026-03-26T14:08:40.998Z</time></trkpt><trkpt lat="45.60056811250221" lon="11.400245804308504"><ele>203.4</ele><time>2026-03-26T14:08:41.998Z</time></trkpt><trkpt lat="45.600673793613645" lon="11.400333109107732"><ele>208.2</ele><time>2026-03-26T14:08:43.998Z</time></trkpt><trkpt lat="45.60075988626691" lon="11.400298073525681"><ele>213.0</ele><time>2026-03-26T14:08:45.998Z</time></trkpt><trkpt lat="45.60083710758913" lon="11.400234840265863"><ele>213.0</ele><time>2026-03-26T14:08:46.998Z</time></trkpt><trkpt lat="45.600943409418754" lon="11.400229385061358"><ele>213.0</ele><time>2026-03-26T14:08:47.998Z</time></trkpt><trkpt lat="45.6010608955837" lon="11.400251333606516"><ele>213.0</ele><time>2026-03-26T14:08:48.998Z</time></trkpt><trkpt lat="45.60118466476608" lon="11.400261659238966"><ele>213.0</ele><time>2026-03-26T14:08:49.997Z</time></trkpt><trkpt lat="45.60128351156101" lon="11.400246793892125"><ele>213.0</ele><time>2026-03-26T14:08:50.997Z</time></trkpt><trkpt lat="45.601378147582494" lon="11.400238797423677"><ele>213.66666666666666</ele><time>2026-03-26T14:08:51.997Z</time></trkpt><trkpt lat="45.601464788174" lon="11.400265392918131"><ele>214.33333333333331</ele><time>2026-03-26T14:08:52.997Z</time></trkpt><trkpt lat="45.60156732614573" lon="11.400287430667094"><ele>215.0</ele><time>2026-03-26T14:08:54.997Z</time></trkpt><trkpt lat="45.60163487506142" lon="11.400284781088672"><ele>215.66666666666666</ele><time>2026-03-26T14:08:56Z</time></trkpt><trkpt lat="45.60171834687969" lon="11.400252024050712"><ele>216.33333333333331</ele><time>2026-03-26T14:08:57Z</time></trkpt><trkpt lat="45.6017937772853" lon="11.400197349996295"><ele>217.0</ele><time>2026-03-26T14:08:58Z</time></trkpt><trkpt lat="45.601868684960884" lon="11.400173934667992"><ele>216.99999999999997</ele><time>2026-03-26T14:09:00Z</time></trkpt><trkpt lat="45.60192067324546" lon="11.400051306381409"><ele>217.0</ele><time>2026-03-26T14:09:02Z</time></trkpt><trkpt lat="45.601982416493755" lon="11.399995626560356"><ele>217.0</ele><time>2026-03-26T14:09:06Z</time></trkpt><trkpt lat="45.60205259305002" lon="11.399947863613836"><ele>217.0</ele><time>2026-03-26T14:09:08Z</time></trkpt><trkpt lat="45.60210802177224" lon="11.399882025161556"><ele>216.99999999999997</ele><time>2026-03-26T14:09:10Z</time></trkpt><trkpt lat="45.60217717550213" lon="11.399826572715124"><ele>217.0</ele><time>2026-03-26T14:09:14Z</time></trkpt><trkpt lat="45.602262162674215" lon="11.399787364220884"><ele>213.8</ele><time>2026-03-26T14:09:16Z</time></trkpt><trkpt lat="45.60234360185131" lon="11.399737443682703"><ele>210.6</ele><time>2026-03-26T14:09:18Z</time></trkpt><trkpt lat="45.60248919106876" lon="11.39974493988545"><ele>207.4</ele><time>2026-03-26T14:09:21Z</time></trkpt><trkpt lat="45.60255639862461" lon="11.39971726173232"><ele>204.20000000000002</ele><time>2026-03-26T14:09:22Z</time></trkpt><trkpt lat="45.60262233947286" lon="11.399692375740512"><ele>201.0</ele><time>2026-03-26T14:09:23Z</time></trkpt><trkpt lat="45.60273653641035" lon="11.39965290134296"><ele>204.8</ele><time>2026-03-26T14:09:25Z</time></trkpt><trkpt lat="45.60283593366005" lon="11.399575394922069"><ele>208.60000000000002</ele><time>2026-03-26T14:09:27Z</time></trkpt><trkpt lat="45.602916731292176" lon="11.399496089175134"><ele>212.4</ele><time>2026-03-26T14:09:28.999Z</time></trkpt><trkpt lat="45.60296622349325" lon="11.399378099758922"><ele>216.2</ele><time>2026-03-26T14:09:30.999Z</time></trkpt><trkpt lat="45.60304120771073" lon="11.399271341690259"><ele>220.0</ele><time>2026-03-26T14:09:32.999Z</time></trkpt><trkpt lat="45.6030954148247" lon="11.399181897729044"><ele>220.0</ele><time>2026-03-26T14:09:34.999Z</time></trkpt><trkpt lat="45.603180710896666" lon="11.399095155556527"><ele>220.0</ele><time>2026-03-26T14:09:37.999Z</time></trkpt><trkpt lat="45.60323716938407" lon="11.399053463370937"><ele>220.0</ele><time>2026-03-26T14:09:41.999Z</time></trkpt><trkpt lat="45.60329329650924" lon="11.39896564475489"><ele>220.0</ele><time>2026-03-26T14:09:44.999Z</time></trkpt><trkpt lat="45.60339494950363" lon="11.399008585764596"><ele>220.0</ele><time>2026-03-26T14:09:46.999Z</time></trkpt><trkpt lat="45.60350509112604" lon="11.399009602088986"><ele>220.0</ele><time>2026-03-26T14:09:48.999Z</time></trkpt><trkpt lat="45.60358364952077" lon="11.39897951428892"><ele>220.0</ele><time>2026-03-26T14:09:49.999Z</time></trkpt><trkpt lat="45.60372105286552" lon="11.3989300598276"><ele>220.0</ele><time>2026-03-26T14:09:51.999Z</time></trkpt><trkpt lat="45.60378585967244" lon="11.398909474249939"><ele>220.0</ele><time>2026-03-26T14:09:52.999Z</time></trkpt><trkpt lat="45.6038566843895" lon="11.398874368292748"><ele>220.0</ele><time>2026-03-26T14:09:54.999Z</time></trkpt><trkpt lat="45.60410415576509" lon="11.398865977066743"><ele>225.25</ele><time>2026-03-26T14:09:59.999Z</time></trkpt><trkpt lat="45.60419250667801" lon="11.398824309330658"><ele>230.5</ele><time>2026-03-26T14:10:00.999Z</time></trkpt><trkpt lat="45.60428383858064" lon="11.398711093061332"><ele>235.75</ele><time>2026-03-26T14:10:02.999Z</time></trkpt><trkpt lat="45.604245736827636" lon="11.398636989714648"><ele>241.0</ele><time>2026-03-26T14:10:37.998Z</time></trkpt><trkpt lat="45.604011949462176" lon="11.398670101715426"><ele>241.0</ele><time>2026-03-26T14:10:39.998Z</time></trkpt><trkpt lat="45.60389128559846" lon="11.398713290650802"><ele>241.00000000000003</ele><time>2026-03-26T14:10:40.998Z</time></trkpt><trkpt lat="45.60379363427467" lon="11.39873066677556"><ele>241.00000000000003</ele><time>2026-03-26T14:10:41.998Z</time></trkpt><trkpt lat="45.603681638147776" lon="11.398695697227751"><ele>241.0</ele><time>2026-03-26T14:10:42.998Z</time></trkpt><trkpt lat="45.60360001779972" lon="11.398671928709657"><ele>241.0</ele><time>2026-03-26T14:10:43.998Z</time></trkpt><trkpt lat="45.60353104241653" lon="11.398645229190679"><ele>245.0</ele><time>2026-03-26T14:10:44.998Z</time></trkpt><trkpt lat="45.603447953849134" lon="11.398613353546393"><ele>249.00000000000003</ele><time>2026-03-26T14:10:45.998Z</time></trkpt><trkpt lat="45.603324930415766" lon="11.398621415885115"><ele>253.00000000000003</ele><time>2026-03-26T14:10:46.998Z</time></trkpt><trkpt lat="45.60324699987588" lon="11.398535148576428"><ele>257.0</ele><time>2026-03-26T14:10:47.998Z</time></trkpt><trkpt lat="45.60316762053807" lon="11.398502850225535"><ele>261.0</ele><time>2026-03-26T14:10:48.997Z</time></trkpt><trkpt lat="45.60309675989058" lon="11.398517747485556"><ele>261.0</ele><time>2026-03-26T14:10:49.997Z</time></trkpt><trkpt lat="45.603002370425514" lon="11.398603211220133"><ele>261.0</ele><time>2026-03-26T14:10:50.997Z</time></trkpt><trkpt lat="45.60290527775515" lon="11.398674416973469"><ele>261.0</ele><time>2026-03-26T14:10:51.997Z</time></trkpt><trkpt lat="45.602796514523234" lon="11.398738755834033"><ele>261.0</ele><time>2026-03-26T14:10:52.997Z</time></trkpt><trkpt lat="45.60270536295563" lon="11.398715579863152"><ele>261.0</ele><time>2026-03-26T14:10:53.997Z</time></trkpt><trkpt lat="45.60255110340766" lon="11.39884910547529"><ele>256.0</ele><time>2026-03-26T14:10:55.997Z</time></trkpt><trkpt lat="45.60242514212429" lon="11.398916036978974"><ele>251.0</ele><time>2026-03-26T14:10:56.997Z</time></trkpt><trkpt lat="45.6023021832538" lon="11.398942595736157"><ele>246.0</ele><time>2026-03-26T14:10:57.997Z</time></trkpt><trkpt lat="45.60218654475899" lon="11.398958955644702"><ele>241.0</ele><time>2026-03-26T14:10:58.997Z</time></trkpt><trkpt lat="45.602074560776444" lon="11.399010816904262"><ele>241.0</ele><time>2026-03-26T14:10:59.997Z</time></trkpt><trkpt lat="45.60200040311543" lon="11.399071050206876"><ele>241.00000000000003</ele><time>2026-03-26T14:11:00.997Z</time></trkpt><trkpt lat="45.60189732628114" lon="11.399114108972263"><ele>241.00000000000003</ele><time>2026-03-26T14:11:02Z</time></trkpt><trkpt lat="45.60181117920334" lon="11.399157076661378"><ele>241.0</ele><time>2026-03-26T14:11:03Z</time></trkpt><trkpt lat="45.60172430365036" lon="11.399204595956352"><ele>241.0</ele><time>2026-03-26T14:11:04Z</time></trkpt><trkpt lat="45.60164544762906" lon="11.399221573101986"><ele>243.49999999999997</ele><time>2026-03-26T14:11:05Z</time></trkpt><trkpt lat="45.601565541753914" lon="11.399227760113849"><ele>246.0</ele><time>2026-03-26T14:11:06Z</time></trkpt><trkpt lat="45.60147554646902" lon="11.399230321599367"><ele>248.5</ele><time>2026-03-26T14:11:07Z</time></trkpt><trkpt lat="45.6014045888682" lon="11.399209194055894"><ele>251.0</ele><time>2026-03-26T14:11:08Z</time></trkpt><trkpt lat="45.601325572811604" lon="11.399167642842094"><ele>253.49999999999997</ele><time>2026-03-26T14:11:09Z</time></trkpt><trkpt lat="45.60126234822322" lon="11.399138981302185"><ele>256.0</ele><time>2026-03-26T14:11:10Z</time></trkpt><trkpt lat="45.601215538662856" lon="11.399027275339828"><ele>256.0</ele><time>2026-03-26T14:11:12Z</time></trkpt><trkpt lat="45.60121863786742" lon="11.398897395571758"><ele>256.0</ele><time>2026-03-26T14:11:13Z</time></trkpt><trkpt lat="45.60121828099453" lon="11.398764947083736"><ele>256.0</ele><time>2026-03-26T14:11:14Z</time></trkpt><trkpt lat="45.601223144187195" lon="11.398650511737138"><ele>256.0</ele><time>2026-03-26T14:11:15Z</time></trkpt><trkpt lat="45.601243724682895" lon="11.398498395219194"><ele>256.0</ele><time>2026-03-26T14:11:16Z</time></trkpt><trkpt lat="45.601266955907334" lon="11.39834367510699"><ele>260.40000000000003</ele><time>2026-03-26T14:11:17Z</time></trkpt><trkpt lat="45.60130052884557" lon="11.398213101358335"><ele>264.8</ele><time>2026-03-26T14:11:18Z</time></trkpt><trkpt lat="45.60132680572907" lon="11.398068851415202"><ele>269.20000000000005</ele><time>2026-03-26T14:11:19Z</time></trkpt><trkpt lat="45.601368496150585" lon="11.397935237650467"><ele>273.6</ele><time>2026-03-26T14:11:20Z</time></trkpt><trkpt lat="45.60142548543531" lon="11.397816710987495"><ele>278.0</ele><time>2026-03-26T14:11:21Z</time></trkpt><trkpt lat="45.60147458268933" lon="11.397688359234406"><ele>278.25</ele><time>2026-03-26T14:11:22Z</time></trkpt><trkpt lat="45.60152657658071" lon="11.397553848561046"><ele>278.5</ele><time>2026-03-26T14:11:23Z</time></trkpt><trkpt lat="45.60157727545087" lon="11.39742131828246"><ele>278.75</ele><time>2026-03-26T14:11:24Z</time></trkpt><trkpt lat="45.60160894741501" lon="11.397278506443616"><ele>279.0</ele><time>2026-03-26T14:11:25Z</time></trkpt><trkpt lat="45.601662766866156" lon="11.397101038503438"><ele>278.0</ele><time>2026-03-26T14:11:26Z</time></trkpt><trkpt lat="45.601709842041835" lon="11.396933670811016"><ele>277.0</ele><time>2026-03-26T14:11:27Z</time></trkpt><trkpt lat="45.601753525778335" lon="11.396811808001098"><ele>276.0</ele><time>2026-03-26T14:11:28Z</time></trkpt><trkpt lat="45.60177473792724" lon="11.3966346078605"><ele>275.0</ele><time>2026-03-26T14:11:29Z</time></trkpt><trkpt lat="45.601807781094315" lon="11.396478552362549"><ele>275.2</ele><time>2026-03-26T14:11:30Z</time></trkpt><trkpt lat="45.60183122944503" lon="11.396328867139326"><ele>275.4</ele><time>2026-03-26T14:11:31Z</time></trkpt><trkpt lat="45.6018505590975" lon="11.396187826785926"><ele>275.6</ele><time>2026-03-26T14:11:32Z</time></trkpt><trkpt lat="45.60186861405231" lon="11.396035408503339"><ele>275.8</ele><time>2026-03-26T14:11:33Z</time></trkpt><trkpt lat="45.60186194518381" lon="11.39588203387011"><ele>276.0</ele><time>2026-03-26T14:11:33.999Z</time></trkpt><trkpt lat="45.60184348920768" lon="11.395740049574734"><ele>276.0</ele><time>2026-03-26T14:11:34.999Z</time></trkpt><trkpt lat="45.60183355876825" lon="11.395582074929536"><ele>276.0</ele><time>2026-03-26T14:11:35.999Z</time></trkpt><trkpt lat="45.60181803862291" lon="11.39544224334417"><ele>276.0</ele><time>2026-03-26T14:11:36.999Z</time></trkpt><trkpt lat="45.60179842716832" lon="11.395309602179552"><ele>276.0</ele><time>2026-03-26T14:11:37.999Z</time></trkpt><trkpt lat="45.601779434875695" lon="11.39521003370235"><ele>276.0</ele><time>2026-03-26T14:11:38.999Z</time></trkpt><trkpt lat="45.601775768756426" lon="11.395118776164505"><ele>276.0</ele><time>2026-03-26T14:11:46.999Z</time></trkpt><trkpt lat="45.60188734990199" lon="11.395111910047941"><ele>276.40000000000003</ele><time>2026-03-26T14:11:48.999Z</time></trkpt><trkpt lat="45.60198969328452" lon="11.395192775015845"><ele>276.8</ele><time>2026-03-26T14:11:50.999Z</time></trkpt><trkpt lat="45.60207164759442" lon="11.395223963983463"><ele>277.20000000000005</ele><time>2026-03-26T14:11:52.999Z</time></trkpt><trkpt lat="45.60215201739339" lon="11.395142056213318"><ele>277.6</ele><time>2026-03-26T14:11:54.999Z</time></trkpt><trkpt lat="45.602226339968354" lon="11.395194214903139"><ele>278.0</ele><time>2026-03-26T14:11:56.999Z</time></trkpt><trkpt lat="45.60228169343371" lon="11.39527808406449"><ele>280.83333333333337</ele><time>2026-03-26T14:11:58.999Z</time></trkpt><trkpt lat="45.60236290692983" lon="11.395379179904571"><ele>283.6666666666667</ele><time>2026-03-26T14:12:00.999Z</time></trkpt><trkpt lat="45.60236060297563" lon="11.39528606610426"><ele>286.5</ele><time>2026-03-26T14:12:42.998Z</time></trkpt><trkpt lat="45.602271598150836" lon="11.39530789476847"><ele>289.3333333333333</ele><time>2026-03-26T14:13:44.999Z</time></trkpt><trkpt lat="45.60220933407137" lon="11.39525371276596"><ele>292.16666666666663</ele><time>2026-03-26T14:13:46.999Z</time></trkpt><trkpt lat="45.6021315045818" lon="11.3952120223205"><ele>295.0</ele><time>2026-03-26T14:13:51.999Z</time></trkpt><trkpt lat="45.60206143870511" lon="11.3952194788017"><ele>292.16666666666663</ele><time>2026-03-26T14:13:54.999Z</time></trkpt><trkpt lat="45.60198827809736" lon="11.395200489198775"><ele>289.3333333333333</ele><time>2026-03-26T14:13:56.999Z</time></trkpt><trkpt lat="45.60192452988154" lon="11.395134767885441"><ele>286.5</ele><time>2026-03-26T14:13:58.999Z</time></trkpt><trkpt lat="45.60185653298036" lon="11.395100155043108"><ele>283.6666666666667</ele><time>2026-03-26T14:14:00.999Z</time></trkpt><trkpt lat="45.601802763136256" lon="11.395154286896037"><ele>280.83333333333337</ele><time>2026-03-26T14:14:04.999Z</time></trkpt><trkpt lat="45.601886261043525" lon="11.395260259584232"><ele>278.0</ele><time>2026-03-26T14:14:13.999Z</time></trkpt><trkpt lat="45.601962340456716" lon="11.395375617099551"><ele>281.4</ele><time>2026-03-26T14:14:15.999Z</time></trkpt><trkpt lat="45.60200245039694" lon="11.395486045789093"><ele>284.8</ele><time>2026-03-26T14:14:16.999Z</time></trkpt><trkpt lat="45.60206991801739" lon="11.3956850712845"><ele>288.2</ele><time>2026-03-26T14:14:18.999Z</time></trkpt><trkpt lat="45.60209618707506" lon="11.395817090433505"><ele>291.6</ele><time>2026-03-26T14:14:19.999Z</time></trkpt><trkpt lat="45.60213014990622" lon="11.395920071651577"><ele>295.0</ele><time>2026-03-26T14:14:20.999Z</time></trkpt><trkpt lat="45.602152107781876" lon="11.396019092168201"><ele>297.3333333333333</ele><time>2026-03-26T14:14:21.999Z</time></trkpt><trkpt lat="45.602169276784586" lon="11.396183029821838"><ele>299.66666666666663</ele><time>2026-03-26T14:14:23.998Z</time></trkpt><trkpt lat="45.602166905430735" lon="11.396296384874116"><ele>302.0</ele><time>2026-03-26T14:14:24.998Z</time></trkpt><trkpt lat="45.60216885345579" lon="11.396430034205231"><ele>304.3333333333333</ele><time>2026-03-26T14:14:25.998Z</time></trkpt><trkpt lat="45.60217440879058" lon="11.396526038271174"><ele>306.6666666666667</ele><time>2026-03-26T14:14:26.998Z</time></trkpt><trkpt lat="45.60218467347716" lon="11.396632137709432"><ele>309.0</ele><time>2026-03-26T14:14:27.998Z</time></trkpt><trkpt lat="45.60218811227834" lon="11.396736155504795"><ele>309.1666666666667</ele><time>2026-03-26T14:14:28.998Z</time></trkpt><trkpt lat="45.60218133063489" lon="11.396845400872698"><ele>309.3333333333333</ele><time>2026-03-26T14:14:29.998Z</time></trkpt><trkpt lat="45.60216627856664" lon="11.39693882194894"><ele>309.5</ele><time>2026-03-26T14:14:30.998Z</time></trkpt><trkpt lat="45.60213496573737" lon="11.397057162704007"><ele>309.66666666666663</ele><time>2026-03-26T14:14:31.998Z</time></trkpt><trkpt lat="45.60210499568724" lon="11.39717389630376"><ele>309.8333333333333</ele><time>2026-03-26T14:14:32.998Z</time></trkpt><trkpt lat="45.60206477376011" lon="11.397287564237404"><ele>310.0</ele><time>2026-03-26T14:14:33.998Z</time></trkpt><trkpt lat="45.60198924726925" lon="11.397388607836334"><ele>303.8</ele><time>2026-03-26T14:14:34.998Z</time></trkpt><trkpt lat="45.60196603300687" lon="11.397523738603988"><ele>297.6</ele><time>2026-03-26T14:14:35.998Z</time></trkpt><trkpt lat="45.601944343557925" lon="11.39765511911661"><ele>291.4</ele><time>2026-03-26T14:14:36.998Z</time></trkpt><trkpt lat="45.60192400184593" lon="11.397768529080357"><ele>285.2</ele><time>2026-03-26T14:14:37.998Z</time></trkpt><trkpt lat="45.601892125449346" lon="11.397867228243529"><ele>279.0</ele><time>2026-03-26T14:14:38.998Z</time></trkpt><trkpt lat="45.60186842291576" lon="11.398008114394846"><ele>278.8</ele><time>2026-03-26T14:14:40.998Z</time></trkpt><trkpt lat="45.60191202311731" lon="11.398147221099187"><ele>278.59999999999997</ele><time>2026-03-26T14:14:51.998Z</time></trkpt><trkpt lat="45.60197607918193" lon="11.39817410680288"><ele>278.4</ele><time>2026-03-26T14:14:52.998Z</time></trkpt><trkpt lat="45.6020620107146" lon="11.398172016476277"><ele>278.2</ele><time>2026-03-26T14:14:53.998Z</time></trkpt><trkpt lat="45.60215922355062" lon="11.398161978832313"><ele>278.0</ele><time>2026-03-26T14:14:54.998Z</time></trkpt><trkpt lat="45.602275423225585" lon="11.398120650937146"><ele>279.4</ele><time>2026-03-26T14:14:55.998Z</time></trkpt><trkpt lat="45.602362950692935" lon="11.398077251837904"><ele>280.8</ele><time>2026-03-26T14:14:56.998Z</time></trkpt><trkpt lat="45.60246085502458" lon="11.39801779585555"><ele>282.2</ele><time>2026-03-26T14:14:57.998Z</time></trkpt><trkpt lat="45.602562215449616" lon="11.397926349768934"><ele>283.6</ele><time>2026-03-26T14:14:58.998Z</time></trkpt><trkpt lat="45.60266434802296" lon="11.397836500521949"><ele>285.0</ele><time>2026-03-26T14:14:59.998Z</time></trkpt><trkpt lat="45.602732016608954" lon="11.397762942427299"><ele>288.57142857142856</ele><time>2026-03-26T14:15:00.998Z</time></trkpt><trkpt lat="45.60279671318049" lon="11.397736557557117"><ele>292.14285714285717</ele><time>2026-03-26T14:15:01.998Z</time></trkpt><trkpt lat="45.60274149572643" lon="11.397669380463045"><ele>295.7142857142857</ele><time>2026-03-26T14:15:05.997Z</time></trkpt><trkpt lat="45.60268141880749" lon="11.397696917611789"><ele>299.2857142857143</ele><time>2026-03-26T14:15:06.997Z</time></trkpt><trkpt lat="45.60261314373238" lon="11.397740330598934"><ele>302.85714285714283</ele><time>2026-03-26T14:15:07.997Z</time></trkpt><trkpt lat="45.602546438322925" lon="11.397776494669959"><ele>306.42857142857144</ele><time>2026-03-26T14:15:08.997Z</time></trkpt><trkpt lat="45.60247345914802" lon="11.397799774682829"><ele>310.0</ele><time>2026-03-26T14:15:09.997Z</time></trkpt><trkpt lat="45.60241202038672" lon="11.397825859172084"><ele>310.0</ele><time>2026-03-26T14:15:10.997Z</time></trkpt><trkpt lat="45.60232628246769" lon="11.397812380779182"><ele>310.0</ele><time>2026-03-26T14:15:12.997Z</time></trkpt><trkpt lat="45.60224921176575" lon="11.39784125564512"><ele>310.0</ele><time>2026-03-26T14:15:15Z</time></trkpt><trkpt lat="45.602195937695335" lon="11.397764294137753"><ele>310.0</ele><time>2026-03-26T14:15:25Z</time></trkpt><trkpt lat="45.60223777040068" lon="11.397676885163238"><ele>310.0</ele><time>2026-03-26T14:15:27Z</time></trkpt><trkpt lat="45.602305314378654" lon="11.397645992403902"><ele>310.0</ele><time>2026-03-26T14:15:29Z</time></trkpt><trkpt lat="45.602374189599026" lon="11.39750157464592"><ele>310.0</ele><time>2026-03-26T14:15:32Z</time></trkpt><trkpt lat="45.602429822297886" lon="11.397361743165714"><ele>310.0</ele><time>2026-03-26T14:15:34Z</time></trkpt><trkpt lat="45.602464507969124" lon="11.39725367683436"><ele>310.0</ele><time>2026-03-26T14:15:36Z</time></trkpt><trkpt lat="45.60252345605213" lon="11.397115402684646"><ele>310.0</ele><time>2026-03-26T14:15:38Z</time></trkpt><trkpt lat="45.602561094176586" lon="11.397040785391921"><ele>310.0</ele><time>2026-03-26T14:15:40Z</time></trkpt><trkpt lat="45.602585786421834" lon="11.396933806823101"><ele>310.6</ele><time>2026-03-26T14:15:42Z</time></trkpt><trkpt lat="45.60263620865335" lon="11.396849397245775"><ele>311.2</ele><time>2026-03-26T14:15:44Z</time></trkpt><trkpt lat="45.60266971455827" lon="11.396742099317407"><ele>311.8</ele><time>2026-03-26T14:15:46Z</time></trkpt><trkpt lat="45.602708604543864" lon="11.396648331691162"><ele>312.4</ele><time>2026-03-26T14:15:47.999Z</time></trkpt><trkpt lat="45.60274451797399" lon="11.396494715744394"><ele>313.0</ele><time>2026-03-26T14:15:49.999Z</time></trkpt><trkpt lat="45.60277377048484" lon="11.396347184415713"><ele>312.3333333333333</ele><time>2026-03-26T14:15:51.999Z</time></trkpt><trkpt lat="45.60279892721289" lon="11.396225231951869"><ele>311.66666666666663</ele><time>2026-03-26T14:15:53.999Z</time></trkpt><trkpt lat="45.602821407760025" lon="11.396095639583468"><ele>311.0</ele><time>2026-03-26T14:15:55.999Z</time></trkpt><trkpt lat="45.60285483262737" lon="11.39597586709233"><ele>310.3333333333333</ele><time>2026-03-26T14:15:57.999Z</time></trkpt><trkpt lat="45.60290224420258" lon="11.395869626840724"><ele>309.6666666666667</ele><time>2026-03-26T14:15:59.999Z</time></trkpt><trkpt lat="45.60295650413294" lon="11.39576989604517"><ele>309.0</ele><time>2026-03-26T14:16:02.999Z</time></trkpt><trkpt lat="45.60301545653024" lon="11.395644004700335"><ele>311.6</ele><time>2026-03-26T14:16:07.999Z</time></trkpt><trkpt lat="45.60308316539603" lon="11.395556977728587"><ele>314.2</ele><time>2026-03-26T14:16:09.999Z</time></trkpt><trkpt lat="45.60316705950106" lon="11.395457139535868"><ele>316.8</ele><time>2026-03-26T14:16:11.999Z</time></trkpt><trkpt lat="45.60326707612344" lon="11.395386341378797"><ele>319.40000000000003</ele><time>2026-03-26T14:16:13.999Z</time></trkpt><trkpt lat="45.603346853373644" lon="11.395339542291543"><ele>322.0</ele><time>2026-03-26T14:16:15.999Z</time></trkpt><trkpt lat="45.60342532567504" lon="11.395294228486403"><ele>322.0</ele><time>2026-03-26T14:16:17.999Z</time></trkpt><trkpt lat="45.6035123015793" lon="11.395252729763856"><ele>322.0</ele><time>2026-03-26T14:16:19.999Z</time></trkpt><trkpt lat="45.60361852595336" lon="11.395215004684609"><ele>322.0</ele><time>2026-03-26T14:16:21.999Z</time></trkpt><trkpt lat="45.603719332452485" lon="11.395167866756992"><ele>322.0</ele><time>2026-03-26T14:16:23.999Z</time></trkpt><trkpt lat="45.6038276632004" lon="11.395114270205195"><ele>322.0</ele><time>2026-03-26T14:16:25.999Z</time></trkpt><trkpt lat="45.603940565210465" lon="11.395043917642862"><ele>325.8333333333333</ele><time>2026-03-26T14:16:27.998Z</time></trkpt><trkpt lat="45.604005534893155" lon="11.395013558899825"><ele>329.66666666666663</ele><time>2026-03-26T14:16:28.998Z</time></trkpt><trkpt lat="45.60406875712075" lon="11.394993150409483"><ele>333.5</ele><time>2026-03-26T14:16:29.998Z</time></trkpt><trkpt lat="45.60417351656631" lon="11.394937883725778"><ele>337.3333333333333</ele><time>2026-03-26T14:16:31.998Z</time></trkpt><trkpt lat="45.60427974201357" lon="11.394855833010023"><ele>341.1666666666667</ele><time>2026-03-26T14:16:33.998Z</time></trkpt><trkpt lat="45.60434529048709" lon="11.394830692365412"><ele>345.0</ele><time>2026-03-26T14:16:34.998Z</time></trkpt><trkpt lat="45.604414042887484" lon="11.394788579745557"><ele>344.75</ele><time>2026-03-26T14:16:35.998Z</time></trkpt><trkpt lat="45.60452849767373" lon="11.39470504332915"><ele>344.5</ele><time>2026-03-26T14:16:37.998Z</time></trkpt><trkpt lat="45.60463298248836" lon="11.394645148285148"><ele>344.25</ele><time>2026-03-26T14:16:39.998Z</time></trkpt><trkpt lat="45.60471149806706" lon="11.39456126992665"><ele>344.0</ele><time>2026-03-26T14:16:41.998Z</time></trkpt><trkpt lat="45.60480214227519" lon="11.394443855106518"><ele>344.0</ele><time>2026-03-26T14:16:43.998Z</time></trkpt><trkpt lat="45.60484862792408" lon="11.39435903125228"><ele>344.0</ele><time>2026-03-26T14:16:44.998Z</time></trkpt><trkpt lat="45.60490522019032" lon="11.394288529274236"><ele>344.0</ele><time>2026-03-26T14:16:45.998Z</time></trkpt><trkpt lat="45.60496163042952" lon="11.394201459957952"><ele>344.0</ele><time>2026-03-26T14:16:47.998Z</time></trkpt><trkpt lat="45.604996723489926" lon="11.39411914496858"><ele>344.0</ele><time>2026-03-26T14:16:48.998Z</time></trkpt><trkpt lat="45.6050630185642" lon="11.394002846780483"><ele>344.0</ele><time>2026-03-26T14:16:50.998Z</time></trkpt><trkpt lat="45.605111632879485" lon="11.39388085061995"><ele>342.2</ele><time>2026-03-26T14:16:52.998Z</time></trkpt><trkpt lat="45.605164621885976" lon="11.393817679465032"><ele>340.4</ele><time>2026-03-26T14:16:53.998Z</time></trkpt><trkpt lat="45.60523884708771" lon="11.393716730680799"><ele>338.6</ele><time>2026-03-26T14:16:55.998Z</time></trkpt><trkpt lat="45.60531830278915" lon="11.393617592358632"><ele>336.8</ele><time>2026-03-26T14:16:57.998Z</time></trkpt><trkpt lat="45.60539586859577" lon="11.393512618524467"><ele>335.0</ele><time>2026-03-26T14:16:59.998Z</time></trkpt><trkpt lat="45.605457140394364" lon="11.393437165977591"><ele>340.4</ele><time>2026-03-26T14:17:01.998Z</time></trkpt><trkpt lat="45.605506749161066" lon="11.393372099972213"><ele>345.8</ele><time>2026-03-26T14:17:03.998Z</time></trkpt><trkpt lat="45.6055685275691" lon="11.393330236528326"><ele>351.20000000000005</ele><time>2026-03-26T14:17:05.998Z</time></trkpt><trkpt lat="45.605649310466134" lon="11.393190584191197"><ele>356.6</ele><time>2026-03-26T14:17:07.998Z</time></trkpt><trkpt lat="45.60571847643667" lon="11.393074369983914"><ele>362.0</ele><time>2026-03-26T14:17:09.997Z</time></trkpt><trkpt lat="45.60582234579765" lon="11.393017177831943"><ele>361.0</ele><time>2026-03-26T14:17:11.997Z</time></trkpt><trkpt lat="45.605925672062" lon="11.39296562678796"><ele>360.0</ele><time>2026-03-26T14:17:13.997Z</time></trkpt><trkpt lat="45.60601887742539" lon="11.392898018715277"><ele>359.0</ele><time>2026-03-26T14:17:15.997Z</time></trkpt><trkpt lat="45.60611102041578" lon="11.392825171620709"><ele>358.0</ele><time>2026-03-26T14:17:17.997Z</time></trkpt><trkpt lat="45.60619031745897" lon="11.392795094355124"><ele>357.0</ele><time>2026-03-26T14:17:20Z</time></trkpt><trkpt lat="45.6062307504741" lon="11.392864079183918"><ele>360.3333333333333</ele><time>2026-03-26T14:17:22Z</time></trkpt><trkpt lat="45.606293204732374" lon="11.392899766625524"><ele>363.6666666666667</ele><time>2026-03-26T14:17:25Z</time></trkpt><trkpt lat="45.606366110268" lon="11.39292691635943"><ele>367.0</ele><time>2026-03-26T14:17:29Z</time></trkpt><trkpt lat="45.606437729708574" lon="11.392930513253521"><ele>370.33333333333337</ele><time>2026-03-26T14:17:31Z</time></trkpt><trkpt lat="45.606519764197884" lon="11.392950130750812"><ele>373.6666666666667</ele><time>2026-03-26T14:17:33Z</time></trkpt><trkpt lat="45.60661994854333" lon="11.3929139197922"><ele>377.0</ele><time>2026-03-26T14:17:35Z</time></trkpt><trkpt lat="45.606725499607094" lon="11.392902846009278"><ele>377.0</ele><time>2026-03-26T14:17:37Z</time></trkpt><trkpt lat="45.60686945789483" lon="11.392907731317885"><ele>377.0</ele><time>2026-03-26T14:17:40Z</time></trkpt><trkpt lat="45.60714418555141" lon="11.39290951473418"><ele>377.0</ele><time>2026-03-26T14:17:45Z</time></trkpt><trkpt lat="45.6072141684922" lon="11.392908034710498"><ele>377.0</ele><time>2026-03-26T14:17:46Z</time></trkpt><trkpt lat="45.60728514786048" lon="11.39290473355723"><ele>377.0</ele><time>2026-03-26T14:17:47Z</time></trkpt><trkpt lat="45.607393802445735" lon="11.392951676849234"><ele>377.0</ele><time>2026-03-26T14:17:49Z</time></trkpt><trkpt lat="45.607462596118516" lon="11.392996602721324"><ele>377.0</ele><time>2026-03-26T14:17:50Z</time></trkpt><trkpt lat="45.607569668888196" lon="11.393055474098327"><ele>377.0</ele><time>2026-03-26T14:17:51.999Z</time></trkpt><trkpt lat="45.60764920461961" lon="11.393071973474818"><ele>377.33333333333337</ele><time>2026-03-26T14:17:52.999Z</time></trkpt><trkpt lat="45.6077367382762" lon="11.39306829656346"><ele>377.6666666666667</ele><time>2026-03-26T14:17:53.999Z</time></trkpt><trkpt lat="45.60782189962614" lon="11.393064368767833"><ele>378.0</ele><time>2026-03-26T14:17:54.999Z</time></trkpt><trkpt lat="45.60789408114306" lon="11.393075774165743"><ele>378.3333333333333</ele><time>2026-03-26T14:17:55.999Z</time></trkpt><trkpt lat="45.6079693939882" lon="11.39306650197659"><ele>378.66666666666663</ele><time>2026-03-26T14:17:56.999Z</time></trkpt><trkpt lat="45.60804277269232" lon="11.39304323575529"><ele>379.0</ele><time>2026-03-26T14:17:57.999Z</time></trkpt><trkpt lat="45.60811052481996" lon="11.393041972718112"><ele>379.0</ele><time>2026-03-26T14:17:58.999Z</time></trkpt><trkpt lat="45.6082214941348" lon="11.393149400184162"><ele>379.0</ele><time>2026-03-26T14:18:00.999Z</time></trkpt><trkpt lat="45.60829004475317" lon="11.393223861318106"><ele>379.0</ele><time>2026-03-26T14:18:01.999Z</time></trkpt><trkpt lat="45.60836193870448" lon="11.393309685748246"><ele>379.0</ele><time>2026-03-26T14:18:02.999Z</time></trkpt><trkpt lat="45.608425730634" lon="11.393383516338636"><ele>379.0</ele><time>2026-03-26T14:18:03.999Z</time></trkpt><trkpt lat="45.60848800863673" lon="11.39345030616"><ele>379.0</ele><time>2026-03-26T14:18:04.999Z</time></trkpt><trkpt lat="45.608551642458096" lon="11.39352992229083"><ele>379.0</ele><time>2026-03-26T14:18:05.999Z</time></trkpt><trkpt lat="45.60860991588275" lon="11.393616674034696"><ele>379.0</ele><time>2026-03-26T14:18:06.999Z</time></trkpt><trkpt lat="45.608677081736985" lon="11.393702383369918"><ele>379.0</ele><time>2026-03-26T14:18:07.999Z</time></trkpt><trkpt lat="45.608759683427486" lon="11.393759393256511"><ele>379.0</ele><time>2026-03-26T14:18:08.999Z</time></trkpt><trkpt lat="45.608838313601204" lon="11.39383342373243"><ele>379.0</ele><time>2026-03-26T14:18:09.999Z</time></trkpt><trkpt lat="45.608909009238424" lon="11.393887060576114"><ele>381.79999999999995</ele><time>2026-03-26T14:18:10.999Z</time></trkpt><trkpt lat="45.60896719850349" lon="11.393922437102955"><ele>384.59999999999997</ele><time>2026-03-26T14:18:11.999Z</time></trkpt><trkpt lat="45.609072853276174" lon="11.394028762342462"><ele>387.4</ele><time>2026-03-26T14:18:13.999Z</time></trkpt><trkpt lat="45.60913856295682" lon="11.3940676799198"><ele>390.2</ele><time>2026-03-26T14:18:14.999Z</time></trkpt><trkpt lat="45.60924379670815" lon="11.394099214863445"><ele>393.0</ele><time>2026-03-26T14:18:15.999Z</time></trkpt><trkpt lat="45.60933240790171" lon="11.394136719756995"><ele>393.0</ele><time>2026-03-26T14:18:16.999Z</time></trkpt><trkpt lat="45.609403791624345" lon="11.39419360610885"><ele>393.0</ele><time>2026-03-26T14:18:17.999Z</time></trkpt><trkpt lat="45.609507035342155" lon="11.394240158133067"><ele>393.0</ele><time>2026-03-26T14:18:18.999Z</time></trkpt><trkpt lat="45.609582583528585" lon="11.394288927377737"><ele>393.0</ele><time>2026-03-26T14:18:19.999Z</time></trkpt><trkpt lat="45.60963993652507" lon="11.394354729478605"><ele>393.0</ele><time>2026-03-26T14:18:20.999Z</time></trkpt><trkpt lat="45.60971761983752" lon="11.394451160807582"><ele>393.0</ele><time>2026-03-26T14:18:21.999Z</time></trkpt><trkpt lat="45.609763072256555" lon="11.394563592034453"><ele>393.59999999999997</ele><time>2026-03-26T14:18:22.999Z</time></trkpt><trkpt lat="45.609808504321165" lon="11.394664546194056"><ele>394.2</ele><time>2026-03-26T14:18:23.999Z</time></trkpt><trkpt lat="45.60986203607156" lon="11.394785499320635"><ele>394.8</ele><time>2026-03-26T14:18:24.999Z</time></trkpt><trkpt lat="45.609916072682545" lon="11.394904428323281"><ele>395.4</ele><time>2026-03-26T14:18:25.999Z</time></trkpt><trkpt lat="45.609957308443754" lon="11.395019777958813"><ele>396.0</ele><time>2026-03-26T14:18:26.999Z</time></trkpt><trkpt lat="45.61007917415832" lon="11.395147869908524"><ele>396.0</ele><time>2026-03-26T14:18:27.999Z</time></trkpt><trkpt lat="45.61017742864084" lon="11.395259711431292"><ele>396.0</ele><time>2026-03-26T14:18:28.999Z</time></trkpt><trkpt lat="45.61025308813345" lon="11.395381334442234"><ele>396.0</ele><time>2026-03-26T14:18:29.999Z</time></trkpt><trkpt lat="45.61031588785058" lon="11.39551006364639"><ele>396.0</ele><time>2026-03-26T14:18:30.998Z</time></trkpt><trkpt lat="45.6103867891905" lon="11.395604926374178"><ele>396.0</ele><time>2026-03-26T14:18:31.998Z</time></trkpt><trkpt lat="45.610497443367365" lon="11.395683487464881"><ele>395.20000000000005</ele><time>2026-03-26T14:18:32.998Z</time></trkpt><trkpt lat="45.6105470277713" lon="11.395816807114695"><ele>394.40000000000003</ele><time>2026-03-26T14:18:33.998Z</time></trkpt><trkpt lat="45.610599999803945" lon="11.395932635563726"><ele>393.6</ele><time>2026-03-26T14:18:34.998Z</time></trkpt><trkpt lat="45.6106711536832" lon="11.396051985357023"><ele>392.8</ele><time>2026-03-26T14:18:35.998Z</time></trkpt><trkpt lat="45.61070273545667" lon="11.39620869965838"><ele>392.0</ele><time>2026-03-26T14:18:36.998Z</time></trkpt><trkpt lat="45.61073402788575" lon="11.396347412145428"><ele>394.8</ele><time>2026-03-26T14:18:37.998Z</time></trkpt><trkpt lat="45.610749922673634" lon="11.39646124193866"><ele>397.6</ele><time>2026-03-26T14:18:38.998Z</time></trkpt><trkpt lat="45.61084667155065" lon="11.396534801809114"><ele>400.40000000000003</ele><time>2026-03-26T14:18:39.998Z</time></trkpt><trkpt lat="45.61091315123193" lon="11.396615090371467"><ele>403.20000000000005</ele><time>2026-03-26T14:18:40.998Z</time></trkpt><trkpt lat="45.61096880547908" lon="11.39672858159831"><ele>406.0</ele><time>2026-03-26T14:18:42.998Z</time></trkpt><trkpt lat="45.61095782555624" lon="11.396841067815046"><ele>406.0</ele><time>2026-03-26T14:18:43.998Z</time></trkpt><trkpt lat="45.610998448027516" lon="11.396912525251427"><ele>406.0</ele><time>2026-03-26T14:18:44.998Z</time></trkpt><trkpt lat="45.61106594735082" lon="11.397031260739643"><ele>406.0</ele><time>2026-03-26T14:18:45.998Z</time></trkpt><trkpt lat="45.61114088356433" lon="11.39713468274711"><ele>406.0</ele><time>2026-03-26T14:18:46.998Z</time></trkpt><trkpt lat="45.61119662955694" lon="11.397263089639118"><ele>406.0</ele><time>2026-03-26T14:18:47.998Z</time></trkpt><trkpt lat="45.611243795258524" lon="11.39734666244073"><ele>407.6</ele><time>2026-03-26T14:18:48.998Z</time></trkpt><trkpt lat="45.61130880920648" lon="11.397461860506347"><ele>409.20000000000005</ele><time>2026-03-26T14:18:50.998Z</time></trkpt><trkpt lat="45.61135439310792" lon="11.39753799289493"><ele>410.79999999999995</ele><time>2026-03-26T14:18:52.998Z</time></trkpt><trkpt lat="45.61143862545152" lon="11.39765257831679"><ele>412.4</ele><time>2026-03-26T14:18:54.998Z</time></trkpt><trkpt lat="45.61149024827313" lon="11.397737916530644"><ele>414.0</ele><time>2026-03-26T14:18:55.998Z</time></trkpt><trkpt lat="45.611549024950016" lon="11.397839313959098"><ele>414.0</ele><time>2026-03-26T14:18:56.998Z</time></trkpt><trkpt lat="45.61160503204424" lon="11.397928489028274"><ele>414.0</ele><time>2026-03-26T14:18:57.998Z</time></trkpt><trkpt lat="45.611650710937596" lon="11.39804470024333"><ele>414.0</ele><time>2026-03-26T14:18:58.998Z</time></trkpt><trkpt lat="45.61172354808775" lon="11.398117738457294"><ele>414.0</ele><time>2026-03-26T14:18:59.998Z</time></trkpt><trkpt lat="45.61179358916614" lon="11.398193447639313"><ele>414.0</ele><time>2026-03-26T14:19:00.998Z</time></trkpt><trkpt lat="45.6118769209684" lon="11.398249392782272"><ele>414.0</ele><time>2026-03-26T14:19:01.998Z</time></trkpt><trkpt lat="45.61197816376284" lon="11.398226356574952"><ele>415.5</ele><time>2026-03-26T14:19:02.998Z</time></trkpt><trkpt lat="45.61209146191918" lon="11.39822018977855"><ele>417.0</ele><time>2026-03-26T14:19:03.998Z</time></trkpt><trkpt lat="45.61220253364911" lon="11.398200440235952"><ele>418.5</ele><time>2026-03-26T14:19:04.998Z</time></trkpt><trkpt lat="45.61231978353348" lon="11.398186687416985"><ele>420.0</ele><time>2026-03-26T14:19:05.998Z</time></trkpt><trkpt lat="45.61244913428064" lon="11.398177723576092"><ele>420.0</ele><time>2026-03-26T14:19:06.998Z</time></trkpt><trkpt lat="45.61258094560553" lon="11.39817933204506"><ele>420.0</ele><time>2026-03-26T14:19:07.998Z</time></trkpt><trkpt lat="45.612709519277004" lon="11.39819833107194"><ele>420.0</ele><time>2026-03-26T14:19:08.998Z</time></trkpt><trkpt lat="45.61283574436499" lon="11.398226935150875"><ele>420.0</ele><time>2026-03-26T14:19:09.998Z</time></trkpt><trkpt lat="45.61294482780063" lon="11.398254705884048"><ele>420.6</ele><time>2026-03-26T14:19:10.998Z</time></trkpt><trkpt lat="45.61304270251508" lon="11.398275072215077"><ele>421.2</ele><time>2026-03-26T14:19:11.997Z</time></trkpt><trkpt lat="45.61311583769334" lon="11.3982665507564"><ele>421.79999999999995</ele><time>2026-03-26T14:19:12.997Z</time></trkpt><trkpt lat="45.61319244150379" lon="11.398299192425624"><ele>422.4</ele><time>2026-03-26T14:19:13.997Z</time></trkpt><trkpt lat="45.613286361954835" lon="11.398304695429685"><ele>423.0</ele><time>2026-03-26T14:19:14.997Z</time></trkpt><trkpt lat="45.61339472016649" lon="11.398282793713733"><ele>423.0</ele><time>2026-03-26T14:19:15.997Z</time></trkpt><trkpt lat="45.61353227021294" lon="11.398270295404775"><ele>423.0</ele><time>2026-03-26T14:19:16.997Z</time></trkpt><trkpt lat="45.61367707424097" lon="11.39825693853961"><ele>423.0</ele><time>2026-03-26T14:19:17.997Z</time></trkpt><trkpt lat="45.61382524545556" lon="11.398241615865054"><ele>423.0</ele><time>2026-03-26T14:19:18.997Z</time></trkpt><trkpt lat="45.613957778169905" lon="11.398230569792469"><ele>422.25</ele><time>2026-03-26T14:19:19.997Z</time></trkpt><trkpt lat="45.61406947146666" lon="11.398216034507671"><ele>421.5</ele><time>2026-03-26T14:19:20.997Z</time></trkpt><trkpt lat="45.61418895756007" lon="11.39816938476105"><ele>420.75</ele><time>2026-03-26T14:19:21.997Z</time></trkpt><trkpt lat="45.614316260678656" lon="11.398145801782816"><ele>420.0</ele><time>2026-03-26T14:19:22.997Z</time></trkpt><trkpt lat="45.6144414265656" lon="11.398096363224777"><ele>420.5</ele><time>2026-03-26T14:19:23.997Z</time></trkpt><trkpt lat="45.614571647995575" lon="11.398039777023383"><ele>421.0</ele><time>2026-03-26T14:19:24.997Z</time></trkpt><trkpt lat="45.61468986982641" lon="11.397988835526487"><ele>421.5</ele><time>2026-03-26T14:19:26Z</time></trkpt><trkpt lat="45.61481187602433" lon="11.397916998279653"><ele>422.0</ele><time>2026-03-26T14:19:27Z</time></trkpt><trkpt lat="45.61494299426975" lon="11.397866290026409"><ele>422.5</ele><time>2026-03-26T14:19:28Z</time></trkpt><trkpt lat="45.61507820042768" lon="11.397810879276111"><ele>423.0</ele><time>2026-03-26T14:19:29Z</time></trkpt><trkpt lat="45.61521111608667" lon="11.397765269257308"><ele>423.5</ele><time>2026-03-26T14:19:30Z</time></trkpt><trkpt lat="45.6153481408102" lon="11.397713541859634"><ele>424.0</ele><time>2026-03-26T14:19:31Z</time></trkpt><trkpt lat="45.61548457375107" lon="11.397650811797956"><ele>424.0</ele><time>2026-03-26T14:19:32Z</time></trkpt><trkpt lat="45.615624900761304" lon="11.3975958643201"><ele>424.0</ele><time>2026-03-26T14:19:33Z</time></trkpt><trkpt lat="45.61576256492469" lon="11.397531526971198"><ele>424.0</ele><time>2026-03-26T14:19:34Z</time></trkpt><trkpt lat="45.615899859714304" lon="11.39745628494206"><ele>424.0</ele><time>2026-03-26T14:19:35Z</time></trkpt><trkpt lat="45.61604450224787" lon="11.397388943886186"><ele>424.25</ele><time>2026-03-26T14:19:36Z</time></trkpt><trkpt lat="45.616180365353145" lon="11.39734942172535"><ele>424.5</ele><time>2026-03-26T14:19:37Z</time></trkpt><trkpt lat="45.61629531622165" lon="11.397285360640657"><ele>424.75</ele><time>2026-03-26T14:19:38Z</time></trkpt><trkpt lat="45.61639913408385" lon="11.397255464264461"><ele>425.0</ele><time>2026-03-26T14:19:39Z</time></trkpt><trkpt lat="45.61648751651078" lon="11.397217505715625"><ele>425.0</ele><time>2026-03-26T14:19:40Z</time></trkpt><trkpt lat="45.616565040070185" lon="11.397184210838894"><ele>425.0</ele><time>2026-03-26T14:19:41Z</time></trkpt><trkpt lat="45.61656947991549" lon="11.396849518541947"><ele>425.0</ele><time>2026-03-26T14:19:42Z</time></trkpt><trkpt lat="45.61659605212718" lon="11.396666641343788"><ele>425.0</ele><time>2026-03-26T14:19:43Z</time></trkpt><trkpt lat="45.61661982751528" lon="11.39650594197572"><ele>425.2</ele><time>2026-03-26T14:19:44Z</time></trkpt><trkpt lat="45.61665238432569" lon="11.396380951587478"><ele>425.4</ele><time>2026-03-26T14:19:45Z</time></trkpt><trkpt lat="45.61668874196901" lon="11.396269241209884"><ele>425.6</ele><time>2026-03-26T14:19:46Z</time></trkpt><trkpt lat="45.61674779054909" lon="11.39615871206136"><ele>425.8</ele><time>2026-03-26T14:19:47Z</time></trkpt><trkpt lat="45.61683261511501" lon="11.396046524011874"><ele>426.0</ele><time>2026-03-26T14:19:48Z</time></trkpt><trkpt lat="45.61692760115908" lon="11.39596506859159"><ele>425.0</ele><time>2026-03-26T14:19:49Z</time></trkpt><trkpt lat="45.6170402662702" lon="11.395915112943577"><ele>424.0</ele><time>2026-03-26T14:19:50Z</time></trkpt><trkpt lat="45.61717818380598" lon="11.395880071677139"><ele>423.0</ele><time>2026-03-26T14:19:51Z</time></trkpt><trkpt lat="45.61731505484526" lon="11.395860756113121"><ele>422.0</ele><time>2026-03-26T14:19:52Z</time></trkpt><trkpt lat="45.617432249878796" lon="11.395842719713238"><ele>422.0</ele><time>2026-03-26T14:19:53Z</time></trkpt><trkpt lat="45.617528165539696" lon="11.395816636182607"><ele>422.0</ele><time>2026-03-26T14:19:54Z</time></trkpt><trkpt lat="45.61761342237609" lon="11.395671672303518"><ele>422.0</ele><time>2026-03-26T14:19:55Z</time></trkpt><trkpt lat="45.61770636001361" lon="11.395526524645907"><ele>422.0</ele><time>2026-03-26T14:19:56Z</time></trkpt><trkpt lat="45.617810018446924" lon="11.39538575880289"><ele>418.25</ele><time>2026-03-26T14:19:56.999Z</time></trkpt><trkpt lat="45.61791139491774" lon="11.395233086163236"><ele>414.5</ele><time>2026-03-26T14:19:57.999Z</time></trkpt><trkpt lat="45.618012400601124" lon="11.395104728343991"><ele>410.75</ele><time>2026-03-26T14:19:58.999Z</time></trkpt><trkpt lat="45.61809842938304" lon="11.394979716198105"><ele>407.0</ele><time>2026-03-26T14:19:59.999Z</time></trkpt><trkpt lat="45.61818785411519" lon="11.394868207523086"><ele>407.0</ele><time>2026-03-26T14:20:00.999Z</time></trkpt><trkpt lat="45.618278534906" lon="11.394762378076376"><ele>407.0</ele><time>2026-03-26T14:20:01.999Z</time></trkpt><trkpt lat="45.61836838977827" lon="11.394664307016217"><ele>407.0</ele><time>2026-03-26T14:20:02.999Z</time></trkpt><trkpt lat="45.618468365956716" lon="11.394555883958862"><ele>407.0</ele><time>2026-03-26T14:20:03.999Z</time></trkpt><trkpt lat="45.61856660421795" lon="11.394444042480137"><ele>406.8</ele><time>2026-03-26T14:20:04.999Z</time></trkpt><trkpt lat="45.61863951274376" lon="11.394321481491442"><ele>406.6</ele><time>2026-03-26T14:20:05.999Z</time></trkpt><trkpt lat="45.618703801477366" lon="11.394201477859747"><ele>406.40000000000003</ele><time>2026-03-26T14:20:06.999Z</time></trkpt><trkpt lat="45.61877283588533" lon="11.39408169247151"><ele>406.20000000000005</ele><time>2026-03-26T14:20:07.999Z</time></trkpt><trkpt lat="45.61882319937026" lon="11.393943691835922"><ele>406.0</ele><time>2026-03-26T14:20:08.999Z</time></trkpt><trkpt lat="45.61886698285621" lon="11.393824215530472"><ele>408.0</ele><time>2026-03-26T14:20:09.999Z</time></trkpt><trkpt lat="45.61892343340969" lon="11.393700987059814"><ele>410.0</ele><time>2026-03-26T14:20:10.999Z</time></trkpt><trkpt lat="45.61898759573375" lon="11.393583737172717"><ele>412.0</ele><time>2026-03-26T14:20:11.999Z</time></trkpt><trkpt lat="45.61905563667031" lon="11.393487219283932"><ele>414.0</ele><time>2026-03-26T14:20:12.999Z</time></trkpt><trkpt lat="45.619105045015246" lon="11.393392074010656"><ele>416.0</ele><time>2026-03-26T14:20:13.999Z</time></trkpt><trkpt lat="45.61915714655084" lon="11.393322921073539"><ele>416.0</ele><time>2026-03-26T14:20:14.999Z</time></trkpt><trkpt lat="45.61922457450926" lon="11.393267097565097"><ele>416.0</ele><time>2026-03-26T14:20:15.999Z</time></trkpt><trkpt lat="45.61931457613589" lon="11.393193044384917"><ele>416.0</ele><time>2026-03-26T14:20:16.999Z</time></trkpt><trkpt lat="45.619405796916055" lon="11.393103953782857"><ele>416.0</ele><time>2026-03-26T14:20:17.999Z</time></trkpt><trkpt lat="45.619481165062645" lon="11.393026627921971"><ele>416.0</ele><time>2026-03-26T14:20:18.999Z</time></trkpt><trkpt lat="45.619549747046136" lon="11.392935533292855"><ele>417.66666666666663</ele><time>2026-03-26T14:20:19.999Z</time></trkpt><trkpt lat="45.619601741979224" lon="11.392841903152808"><ele>419.3333333333333</ele><time>2026-03-26T14:20:20.999Z</time></trkpt><trkpt lat="45.61965275871823" lon="11.392738625480115"><ele>421.0</ele><time>2026-03-26T14:20:21.999Z</time></trkpt><trkpt lat="45.61969631258421" lon="11.392614114280716"><ele>422.66666666666663</ele><time>2026-03-26T14:20:22.999Z</time></trkpt><trkpt lat="45.619716121646725" lon="11.39248916272866"><ele>424.3333333333333</ele><time>2026-03-26T14:20:23.999Z</time></trkpt><trkpt lat="45.61972838072717" lon="11.392365641481558"><ele>426.0</ele><time>2026-03-26T14:20:24.999Z</time></trkpt><trkpt lat="45.61976431835765" lon="11.392193508771518"><ele>429.20000000000005</ele><time>2026-03-26T14:20:26.999Z</time></trkpt><trkpt lat="45.61981218566417" lon="11.392107030920208"><ele>432.40000000000003</ele><time>2026-03-26T14:20:27.999Z</time></trkpt><trkpt lat="45.61995588869288" lon="11.39208517489166"><ele>435.6</ele><time>2026-03-26T14:20:29.999Z</time></trkpt><trkpt lat="45.62004339221734" lon="11.392072218736333"><ele>438.8</ele><time>2026-03-26T14:20:30.999Z</time></trkpt><trkpt lat="45.62012710425125" lon="11.392055320443987"><ele>442.0</ele><time>2026-03-26T14:20:31.999Z</time></trkpt><trkpt lat="45.62019292924667" lon="11.392023761288181"><ele>442.00000000000006</ele><time>2026-03-26T14:20:32.999Z</time></trkpt><trkpt lat="45.62027393375032" lon="11.391972027627245"><ele>442.0</ele><time>2026-03-26T14:20:33.999Z</time></trkpt><trkpt lat="45.62034556244336" lon="11.39191513905972"><ele>442.0</ele><time>2026-03-26T14:20:34.999Z</time></trkpt><trkpt lat="45.62040096946057" lon="11.391851024424199"><ele>442.0</ele><time>2026-03-26T14:20:35.999Z</time></trkpt><trkpt lat="45.62046558793841" lon="11.391798526675549"><ele>442.00000000000006</ele><time>2026-03-26T14:20:36.999Z</time></trkpt><trkpt lat="45.620560545596575" lon="11.391748638177722"><ele>442.0</ele><time>2026-03-26T14:20:38.999Z</time></trkpt><trkpt lat="45.62063229255324" lon="11.391653558185833"><ele>442.6666666666667</ele><time>2026-03-26T14:20:40.998Z</time></trkpt><trkpt lat="45.62069419232191" lon="11.391566049704995"><ele>443.33333333333337</ele><time>2026-03-26T14:20:42.998Z</time></trkpt><trkpt lat="45.620676423544694" lon="11.391452956314694"><ele>444.0</ele><time>2026-03-26T14:20:44.998Z</time></trkpt><trkpt lat="45.620692840845585" lon="11.391334600746864"><ele>444.66666666666663</ele><time>2026-03-26T14:20:46.998Z</time></trkpt><trkpt lat="45.620729856280285" lon="11.391235979825458"><ele>445.3333333333333</ele><time>2026-03-26T14:20:47.998Z</time></trkpt><trkpt lat="45.620744093176114" lon="11.391101780573578"><ele>446.0</ele><time>2026-03-26T14:20:49.998Z</time></trkpt><trkpt lat="45.62075103934243" lon="11.391004332584144"><ele>449.6</ele><time>2026-03-26T14:20:50.998Z</time></trkpt><trkpt lat="45.62078012292382" lon="11.390872279617886"><ele>453.20000000000005</ele><time>2026-03-26T14:20:52.998Z</time></trkpt><trkpt lat="45.620779934078286" lon="11.390778970691144"><ele>456.79999999999995</ele><time>2026-03-26T14:20:54.998Z</time></trkpt><trkpt lat="45.620784566816546" lon="11.390617083666788"><ele>460.4</ele><time>2026-03-26T14:20:56.998Z</time></trkpt><trkpt lat="45.62081829436877" lon="11.390529306592782"><ele>464.0</ele><time>2026-03-26T14:20:57.998Z</time></trkpt><trkpt lat="45.62084349037646" lon="11.390362598532054"><ele>466.79999999999995</ele><time>2026-03-26T14:20:59.998Z</time></trkpt><trkpt lat="45.62085663583056" lon="11.390209206158294"><ele>469.59999999999997</ele><time>2026-03-26T14:21:01.998Z</time></trkpt><trkpt lat="45.620876567702" lon="11.390118037136638"><ele>472.4</ele><time>2026-03-26T14:21:02.998Z</time></trkpt><trkpt lat="45.62091774928905" lon="11.389954561045345"><ele>475.2</ele><time>2026-03-26T14:21:04.998Z</time></trkpt><trkpt lat="45.62095266377544" lon="11.38982781252981"><ele>478.0</ele><time>2026-03-26T14:21:07.998Z</time></trkpt><trkpt lat="45.62102318509904" lon="11.389677246595028"><ele>476.79999999999995</ele><time>2026-03-26T14:21:09.998Z</time></trkpt><trkpt lat="45.621095634655504" lon="11.389592673190899"><ele>475.59999999999997</ele><time>2026-03-26T14:21:10.998Z</time></trkpt><trkpt lat="45.6211369294181" lon="11.389503595754526"><ele>474.40000000000003</ele><time>2026-03-26T14:21:11.998Z</time></trkpt><trkpt lat="45.62117441704827" lon="11.389378049332374"><ele>473.20000000000005</ele><time>2026-03-26T14:21:12.998Z</time></trkpt><trkpt lat="45.62124463292866" lon="11.389284765640337"><ele>472.0</ele><time>2026-03-26T14:21:13.998Z</time></trkpt><trkpt lat="45.62131016339024" lon="11.389185692229157"><ele>472.0</ele><time>2026-03-26T14:21:14.998Z</time></trkpt><trkpt lat="45.62140485255385" lon="11.389110906586527"><ele>472.00000000000006</ele><time>2026-03-26T14:21:15.998Z</time></trkpt><trkpt lat="45.62150075043914" lon="11.389006611958214"><ele>472.00000000000006</ele><time>2026-03-26T14:21:16.998Z</time></trkpt><trkpt lat="45.62155877091692" lon="11.388954511717367"><ele>472.0</ele><time>2026-03-26T14:21:18.998Z</time></trkpt><trkpt lat="45.62164786994805" lon="11.388920194441054"><ele>472.0</ele><time>2026-03-26T14:21:19.998Z</time></trkpt><trkpt lat="45.62174261260934" lon="11.388905776897781"><ele>472.0</ele><time>2026-03-26T14:21:20.998Z</time></trkpt><trkpt lat="45.62183556014696" lon="11.388892102392889"><ele>472.00000000000006</ele><time>2026-03-26T14:21:21.997Z</time></trkpt><trkpt lat="45.62196831122183" lon="11.388861805858069"><ele>472.00000000000006</ele><time>2026-03-26T14:21:22.997Z</time></trkpt><trkpt lat="45.62203585127965" lon="11.388832747727056"><ele>472.0</ele><time>2026-03-26T14:21:23.997Z</time></trkpt><trkpt lat="45.62213666746593" lon="11.38882276424676"><ele>472.0</ele><time>2026-03-26T14:21:24.997Z</time></trkpt><trkpt lat="45.62223982060294" lon="11.388809703163895"><ele>469.6</ele><time>2026-03-26T14:21:25.997Z</time></trkpt><trkpt lat="45.62232805705638" lon="11.388813176663046"><ele>467.20000000000005</ele><time>2026-03-26T14:21:26.997Z</time></trkpt><trkpt lat="45.62239504252325" lon="11.388794900322388"><ele>464.8</ele><time>2026-03-26T14:21:27.997Z</time></trkpt><trkpt lat="45.62248905539695" lon="11.388749670930713"><ele>462.4</ele><time>2026-03-26T14:21:28.997Z</time></trkpt><trkpt lat="45.62260229277995" lon="11.38862054497023"><ele>460.0</ele><time>2026-03-26T14:21:29.997Z</time></trkpt><trkpt lat="45.62267301449241" lon="11.388548801683658"><ele>460.0</ele><time>2026-03-26T14:21:30.997Z</time></trkpt><trkpt lat="45.6227225551957" lon="11.388473975028964"><ele>460.0</ele><time>2026-03-26T14:21:32Z</time></trkpt><trkpt lat="45.622779601234846" lon="11.388402216223941"><ele>460.0</ele><time>2026-03-26T14:21:33Z</time></trkpt><trkpt lat="45.62283663281603" lon="11.388347778741334"><ele>460.0</ele><time>2026-03-26T14:21:34Z</time></trkpt><trkpt lat="45.62293295506283" lon="11.38821490753826"><ele>460.0</ele><time>2026-03-26T14:21:36Z</time></trkpt><trkpt lat="45.62301736506415" lon="11.388085812866263"><ele>458.0</ele><time>2026-03-26T14:21:38Z</time></trkpt><trkpt lat="45.6230832908694" lon="11.387969658713196"><ele>456.0</ele><time>2026-03-26T14:21:39Z</time></trkpt><trkpt lat="45.6231562093914" lon="11.387864287525469"><ele>454.0</ele><time>2026-03-26T14:21:40Z</time></trkpt><trkpt lat="45.623213735811404" lon="11.387778212529492"><ele>452.0</ele><time>2026-03-26T14:21:41Z</time></trkpt><trkpt lat="45.62329994834834" lon="11.387689164256404"><ele>450.0</ele><time>2026-03-26T14:21:42Z</time></trkpt><trkpt lat="45.62338759225685" lon="11.387616555850729"><ele>450.0</ele><time>2026-03-26T14:21:43Z</time></trkpt><trkpt lat="45.62347809594216" lon="11.387569732953638"><ele>450.0</ele><time>2026-03-26T14:21:44Z</time></trkpt><trkpt lat="45.62356792644573" lon="11.387512759994458"><ele>450.0</ele><time>2026-03-26T14:21:45Z</time></trkpt><trkpt lat="45.62365188335931" lon="11.387481509389675"><ele>450.0</ele><time>2026-03-26T14:21:46Z</time></trkpt><trkpt lat="45.623737348748065" lon="11.387462372148415"><ele>450.0</ele><time>2026-03-26T14:21:47Z</time></trkpt><trkpt lat="45.623826293866124" lon="11.387420204028029"><ele>450.0</ele><time>2026-03-26T14:21:48Z</time></trkpt><trkpt lat="45.62394762150423" lon="11.387310772107398"><ele>450.0</ele><time>2026-03-26T14:21:50Z</time></trkpt><trkpt lat="45.62401637690373" lon="11.387240494790914"><ele>450.0</ele><time>2026-03-26T14:21:51Z</time></trkpt><trkpt lat="45.624082170005536" lon="11.387164992373105"><ele>450.0</ele><time>2026-03-26T14:21:52Z</time></trkpt><trkpt lat="45.624134712741416" lon="11.38706912706063"><ele>450.0</ele><time>2026-03-26T14:21:53Z</time></trkpt><trkpt lat="45.62418026835381" lon="11.386969469049136"><ele>450.0</ele><time>2026-03-26T14:21:54Z</time></trkpt><trkpt lat="45.624245162906156" lon="11.386877053939616"><ele>450.0</ele><time>2026-03-26T14:21:55Z</time></trkpt><trkpt lat="45.62431865205539" lon="11.386815717203367"><ele>450.0</ele><time>2026-03-26T14:21:56Z</time></trkpt><trkpt lat="45.624396316021766" lon="11.386728128041211"><ele>450.0</ele><time>2026-03-26T14:21:57Z</time></trkpt><trkpt lat="45.624462845599936" lon="11.386627272766422"><ele>450.0</ele><time>2026-03-26T14:21:58Z</time></trkpt><trkpt lat="45.624538233895876" lon="11.386567512452176"><ele>451.8333333333333</ele><time>2026-03-26T14:21:59Z</time></trkpt><trkpt lat="45.624627552809386" lon="11.386494629846199"><ele>453.66666666666663</ele><time>2026-03-26T14:22:00Z</time></trkpt><trkpt lat="45.624710899770506" lon="11.386438943664064"><ele>455.5</ele><time>2026-03-26T14:22:01Z</time></trkpt><trkpt lat="45.62477578547466" lon="11.386393267894741"><ele>457.3333333333333</ele><time>2026-03-26T14:22:02Z</time></trkpt><trkpt lat="45.624841124177706" lon="11.386336056293496"><ele>459.16666666666663</ele><time>2026-03-26T14:22:03Z</time></trkpt><trkpt lat="45.624899838155514" lon="11.386270026417032"><ele>461.0</ele><time>2026-03-26T14:22:04Z</time></trkpt><trkpt lat="45.62496128135914" lon="11.386236093022623"><ele>461.6</ele><time>2026-03-26T14:22:05Z</time></trkpt><trkpt lat="45.625026454456226" lon="11.386244914911991"><ele>462.20000000000005</ele><time>2026-03-26T14:22:05.999Z</time></trkpt><trkpt lat="45.62513277733266" lon="11.38624827768139"><ele>462.79999999999995</ele><time>2026-03-26T14:22:06.999Z</time></trkpt><trkpt lat="45.62522368286872" lon="11.38624886999023"><ele>463.4</ele><time>2026-03-26T14:22:07.999Z</time></trkpt><trkpt lat="45.62532028804293" lon="11.386219484006402"><ele>464.0</ele><time>2026-03-26T14:22:08.999Z</time></trkpt><trkpt lat="45.62540935127089" lon="11.386176812358554"><ele>469.25</ele><time>2026-03-26T14:22:09.999Z</time></trkpt><trkpt lat="45.625521736873715" lon="11.386166447343081"><ele>474.5</ele><time>2026-03-26T14:22:11.999Z</time></trkpt><trkpt lat="45.62559201120117" lon="11.386160345730667"><ele>479.75</ele><time>2026-03-26T14:22:13.999Z</time></trkpt><trkpt lat="45.62568742828901" lon="11.386143453053027"><ele>485.0</ele><time>2026-03-26T14:22:16.999Z</time></trkpt><trkpt lat="45.62587439505448" lon="11.386155151841493"><ele>485.0</ele><time>2026-03-26T14:22:29.999Z</time></trkpt><trkpt lat="45.62595426587407" lon="11.386179881507072"><ele>485.0</ele><time>2026-03-26T14:22:30.999Z</time></trkpt><trkpt lat="45.62606546223674" lon="11.386160886631064"><ele>485.0</ele><time>2026-03-26T14:22:32.999Z</time></trkpt><trkpt lat="45.62616801949826" lon="11.386108775202027"><ele>485.0</ele><time>2026-03-26T14:22:34.999Z</time></trkpt><trkpt lat="45.62626301471152" lon="11.386038263133361"><ele>485.0</ele><time>2026-03-26T14:22:36.999Z</time></trkpt><trkpt lat="45.626334631185" lon="11.385984562597457"><ele>485.4</ele><time>2026-03-26T14:22:37.999Z</time></trkpt><trkpt lat="45.62644765378339" lon="11.385889708782468"><ele>485.8</ele><time>2026-03-26T14:22:39.999Z</time></trkpt><trkpt lat="45.62654838612615" lon="11.385831831910743"><ele>486.20000000000005</ele><time>2026-03-26T14:22:41.999Z</time></trkpt><trkpt lat="45.626627419000776" lon="11.385745304231419"><ele>486.6</ele><time>2026-03-26T14:22:43.999Z</time></trkpt><trkpt lat="45.626699365339604" lon="11.38562858319005"><ele>487.0</ele><time>2026-03-26T14:22:45.999Z</time></trkpt><trkpt lat="45.62679026710024" lon="11.385573179739767"><ele>486.1666666666667</ele><time>2026-03-26T14:22:47.998Z</time></trkpt><trkpt lat="45.62687769098502" lon="11.385508408310763"><ele>485.33333333333337</ele><time>2026-03-26T14:22:49.998Z</time></trkpt><trkpt lat="45.62698518373698" lon="11.385441511394674"><ele>484.5</ele><time>2026-03-26T14:22:51.998Z</time></trkpt><trkpt lat="45.627050743126674" lon="11.385385017658672"><ele>483.66666666666663</ele><time>2026-03-26T14:22:53.998Z</time></trkpt><trkpt lat="45.62711658929034" lon="11.385388869138465"><ele>482.8333333333333</ele><time>2026-03-26T14:22:56.998Z</time></trkpt><trkpt lat="45.6272001921739" lon="11.38536677500891"><ele>482.0</ele><time>2026-03-26T14:22:59.998Z</time></trkpt><trkpt lat="45.62728231117801" lon="11.38530228793266"><ele>482.0</ele><time>2026-03-26T14:23:02.998Z</time></trkpt><trkpt lat="45.627346737536804" lon="11.385234698775937"><ele>482.00000000000006</ele><time>2026-03-26T14:23:05.998Z</time></trkpt><trkpt lat="45.62739123370671" lon="11.385126105052478"><ele>482.00000000000006</ele><time>2026-03-26T14:23:07.998Z</time></trkpt><trkpt lat="45.62747421158432" lon="11.385062888534335"><ele>482.0</ele><time>2026-03-26T14:23:10.998Z</time></trkpt><trkpt lat="45.62756216689516" lon="11.384974424638418"><ele>482.0</ele><time>2026-03-26T14:23:12.998Z</time></trkpt><trkpt lat="45.6276183202003" lon="11.384853170271848"><ele>481.99999999999994</ele><time>2026-03-26T14:23:15.998Z</time></trkpt><trkpt lat="45.627687090876485" lon="11.384714491071636"><ele>482.0</ele><time>2026-03-26T14:23:17.998Z</time></trkpt><trkpt lat="45.627745852594686" lon="11.384618647253921"><ele>482.0</ele><time>2026-03-26T14:23:19.998Z</time></trkpt><trkpt lat="45.62778542689304" lon="11.384546791154722"><ele>482.0</ele><time>2026-03-26T14:23:20.998Z</time></trkpt><trkpt lat="45.62785517528615" lon="11.384451882475442"><ele>481.99999999999994</ele><time>2026-03-26T14:23:24.998Z</time></trkpt><trkpt lat="45.627904975765475" lon="11.384379884785403"><ele>482.0</ele><time>2026-03-26T14:23:28.997Z</time></trkpt><trkpt lat="45.627953850592746" lon="11.384301036386612"><ele>480.66666666666663</ele><time>2026-03-26T14:23:30.997Z</time></trkpt><trkpt lat="45.62799565679545" lon="11.384223600324132"><ele>479.3333333333333</ele><time>2026-03-26T14:23:34.997Z</time></trkpt><trkpt lat="45.628032902005245" lon="11.384138311165744"><ele>478.0</ele><time>2026-03-26T14:23:36.997Z</time></trkpt><trkpt lat="45.62807612704536" lon="11.384068500850443"><ele>476.66666666666663</ele><time>2026-03-26T14:23:46Z</time></trkpt><trkpt lat="45.628098220625304" lon="11.383968179896785"><ele>475.3333333333333</ele><time>2026-03-26T14:23:56Z</time></trkpt><trkpt lat="45.62813444829697" lon="11.383837546666225"><ele>474.0</ele><time>2026-03-26T14:23:59Z</time></trkpt><trkpt lat="45.62817320137954" lon="11.383740109209803"><ele>474.0</ele><time>2026-03-26T14:24:02Z</time></trkpt><trkpt lat="45.628207988479616" lon="11.383645513565922"><ele>474.0</ele><time>2026-03-26T14:24:05Z</time></trkpt><trkpt lat="45.628222448072464" lon="11.383540111596998"><ele>474.0</ele><time>2026-03-26T14:24:07Z</time></trkpt><trkpt lat="45.62827397728937" lon="11.383431481393977"><ele>474.0</ele><time>2026-03-26T14:24:09Z</time></trkpt><trkpt lat="45.62830367648927" lon="11.383336320055786"><ele>474.0</ele><time>2026-03-26T14:24:11Z</time></trkpt><trkpt lat="45.62836931648463" lon="11.383220962313677"><ele>474.0</ele><time>2026-03-26T14:24:12.999Z</time></trkpt><trkpt lat="45.62838872199714" lon="11.383113379413155"><ele>475.0</ele><time>2026-03-26T14:24:14.999Z</time></trkpt><trkpt lat="45.62839073031673" lon="11.382997755791285"><ele>476.0</ele><time>2026-03-26T14:24:16.999Z</time></trkpt><trkpt lat="45.628434202563675" lon="11.382910000493998"><ele>477.0</ele><time>2026-03-26T14:24:19.999Z</time></trkpt><trkpt lat="45.62849311721998" lon="11.382835125384409"><ele>478.0</ele><time>2026-03-26T14:24:28.999Z</time></trkpt><trkpt lat="45.62853365580453" lon="11.38274506607538"><ele>479.0</ele><time>2026-03-26T14:24:59.998Z</time></trkpt><trkpt lat="45.628605674415574" lon="11.382701903590705"><ele>480.0</ele><time>2026-03-26T14:25:17.998Z</time></trkpt><trkpt lat="45.628673528777696" lon="11.382695968529514"><ele>473.0</ele><time>2026-03-26T14:25:27.998Z</time></trkpt><trkpt lat="45.62870443688494" lon="11.382587414773482"><ele>466.0</ele><time>2026-03-26T14:25:31.998Z</time></trkpt><trkpt lat="45.62876978804827" lon="11.382600542025997"><ele>459.0</ele><time>2026-03-26T14:25:34.997Z</time></trkpt><trkpt lat="45.628711861377425" lon="11.382677034508697"><ele>452.0</ele><time>2026-03-26T14:25:36.997Z</time></trkpt><trkpt lat="45.628755071289596" lon="11.382766584789774"><ele>445.0</ele><time>2026-03-26T14:25:38.997Z</time></trkpt><trkpt lat="45.62881130495863" lon="11.382842157827406"><ele>438.0</ele><time>2026-03-26T14:25:42.997Z</time></trkpt><trkpt lat="45.62882030598999" lon="11.382948357822825"><ele>436.5</ele><time>2026-03-26T14:25:46Z</time></trkpt><trkpt lat="45.62880782044125" lon="11.383056914939536"><ele>435.0</ele><time>2026-03-26T14:25:48Z</time></trkpt><trkpt lat="45.628800175904935" lon="11.383151644633813"><ele>433.5</ele><time>2026-03-26T14:25:50Z</time></trkpt><trkpt lat="45.6287719906108" lon="11.383285568740238"><ele>432.0</ele><time>2026-03-26T14:25:52Z</time></trkpt><trkpt lat="45.628736759712105" lon="11.383386016582065"><ele>430.5</ele><time>2026-03-26T14:25:54Z</time></trkpt><trkpt lat="45.62869888916741" lon="11.383525446482821"><ele>429.0</ele><time>2026-03-26T14:25:56Z</time></trkpt><trkpt lat="45.6286517396786" lon="11.383606835784587"><ele>429.0</ele><time>2026-03-26T14:25:58Z</time></trkpt><trkpt lat="45.62869355510213" lon="11.383692058716967"><ele>429.0</ele><time>2026-03-26T14:26:08Z</time></trkpt><trkpt lat="45.628661198607226" lon="11.383819764104322"><ele>429.0</ele><time>2026-03-26T14:26:12Z</time></trkpt><trkpt lat="45.62862398074776" lon="11.383916954849452"><ele>429.0</ele><time>2026-03-26T14:26:14Z</time></trkpt><trkpt lat="45.62859674794775" lon="11.384016131359058"><ele>429.0</ele><time>2026-03-26T14:26:16Z</time></trkpt><trkpt lat="45.62855888462142" lon="11.38414691595944"><ele>429.0</ele><time>2026-03-26T14:26:19Z</time></trkpt><trkpt lat="45.62857167480781" lon="11.384260575697029"><ele>432.3333333333333</ele><time>2026-03-26T14:26:20.999Z</time></trkpt><trkpt lat="45.628524692439655" lon="11.38438599960693"><ele>435.66666666666663</ele><time>2026-03-26T14:26:23.999Z</time></trkpt><trkpt lat="45.62854277393591" lon="11.384511990633873"><ele>439.0</ele><time>2026-03-26T14:26:26.999Z</time></trkpt><trkpt lat="45.62849415812393" lon="11.384629030365483"><ele>442.3333333333333</ele><time>2026-03-26T14:26:28.999Z</time></trkpt><trkpt lat="45.62847865662462" lon="11.384722704136594"><ele>445.66666666666663</ele><time>2026-03-26T14:26:31.999Z</time></trkpt><trkpt lat="45.62849602525867" lon="11.384814899861587"><ele>449.0</ele><time>2026-03-26T14:26:34.999Z</time></trkpt><trkpt lat="45.62848703183342" lon="11.3849060999451"><ele>448.99999999999994</ele><time>2026-03-26T14:26:47.999Z</time></trkpt><trkpt lat="45.62852902796273" lon="11.384990205713365"><ele>449.0</ele><time>2026-03-26T14:26:52.999Z</time></trkpt><trkpt lat="45.62856916038407" lon="11.385060844034006"><ele>449.0</ele><time>2026-03-26T14:26:57.999Z</time></trkpt><trkpt lat="45.62862817581786" lon="11.38499418297698"><ele>449.0</ele><time>2026-03-26T14:27:00.998Z</time></trkpt><trkpt lat="45.62867162201643" lon="11.384915597782113"><ele>448.99999999999994</ele><time>2026-03-26T14:27:02.998Z</time></trkpt><trkpt lat="45.62876308760771" lon="11.384822949667662"><ele>449.0</ele><time>2026-03-26T14:27:04.998Z</time></trkpt><trkpt lat="45.62882837445372" lon="11.384689571746046"><ele>444.16666666666663</ele><time>2026-03-26T14:27:07.998Z</time></trkpt><trkpt lat="45.62888636564175" lon="11.384647088521568"><ele>439.3333333333333</ele><time>2026-03-26T14:27:08.998Z</time></trkpt><trkpt lat="45.628954261775554" lon="11.384587486584635"><ele>434.5</ele><time>2026-03-26T14:27:10.998Z</time></trkpt><trkpt lat="45.62899952310193" lon="11.38448982144981"><ele>429.66666666666663</ele><time>2026-03-26T14:27:13.998Z</time></trkpt><trkpt lat="45.629090122371146" lon="11.384450379045635"><ele>424.8333333333333</ele><time>2026-03-26T14:27:20.998Z</time></trkpt><trkpt lat="45.62919769241744" lon="11.384422345040235"><ele>420.0</ele><time>2026-03-26T14:27:26.998Z</time></trkpt><trkpt lat="45.62935608052146" lon="11.384400444153963"><ele>420.0</ele><time>2026-03-26T14:27:32.998Z</time></trkpt><trkpt lat="45.629434751160275" lon="11.384283779787326"><ele>420.0</ele><time>2026-03-26T14:27:35.998Z</time></trkpt><trkpt lat="45.62948863136691" lon="11.384231721907693"><ele>420.0</ele><time>2026-03-26T14:27:37.997Z</time></trkpt><trkpt lat="45.62966228599314" lon="11.384201624302134"><ele>420.0</ele><time>2026-03-26T14:27:47.997Z</time></trkpt><trkpt lat="45.62973583044428" lon="11.384126621245338"><ele>420.0</ele><time>2026-03-26T14:27:52Z</time></trkpt><trkpt lat="45.62984955912618" lon="11.38408981443327"><ele>413.85714285714283</ele><time>2026-03-26T14:27:59Z</time></trkpt><trkpt lat="45.629899246440026" lon="11.384016207155367"><ele>407.7142857142857</ele><time>2026-03-26T14:28:03Z</time></trkpt><trkpt lat="45.62988909570082" lon="11.38391789898624"><ele>401.57142857142856</ele><time>2026-03-26T14:28:05Z</time></trkpt><trkpt lat="45.62993894457587" lon="11.383846173706255"><ele>395.42857142857144</ele><time>2026-03-26T14:28:07Z</time></trkpt><trkpt lat="45.629886098490395" lon="11.383763592219019"><ele>389.2857142857143</ele><time>2026-03-26T14:28:10Z</time></trkpt><trkpt lat="45.62992975032278" lon="11.383686337970207"><ele>383.1428571428571</ele><time>2026-03-26T14:28:13Z</time></trkpt><trkpt lat="45.62998712766243" lon="11.383596991345398"><ele>377.0</ele><time>2026-03-26T14:28:28.999Z</time></trkpt><trkpt lat="45.62998431580616" lon="11.38349585504281"><ele>377.0</ele><time>2026-03-26T14:28:30.999Z</time></trkpt><trkpt lat="45.63001736910557" lon="11.38341392665976"><ele>377.0</ele><time>2026-03-26T14:28:32.999Z</time></trkpt><trkpt lat="45.63002478479182" lon="11.383323456346504"><ele>377.0</ele><time>2026-03-26T14:29:08.998Z</time></trkpt><trkpt lat="45.630073686577354" lon="11.383214816121747"><ele>377.0</ele><time>2026-03-26T14:29:13.998Z</time></trkpt><trkpt lat="45.63011514378787" lon="11.383146932365936"><ele>377.0</ele><time>2026-03-26T14:29:15.998Z</time></trkpt><trkpt lat="45.63015961028621" lon="11.383042853482907"><ele>377.0</ele><time>2026-03-26T14:29:18.998Z</time></trkpt><trkpt lat="45.63019407279472" lon="11.382935976741885"><ele>376.40000000000003</ele><time>2026-03-26T14:29:23.998Z</time></trkpt><trkpt lat="45.63023160105831" lon="11.38284485259593"><ele>375.8</ele><time>2026-03-26T14:29:27.998Z</time></trkpt><trkpt lat="45.630257898528235" lon="11.382718108909902"><ele>375.2</ele><time>2026-03-26T14:29:30.998Z</time></trkpt><trkpt lat="45.6303255675621" lon="11.382690475303841"><ele>374.6</ele><time>2026-03-26T14:29:52.997Z</time></trkpt><trkpt lat="45.63029688229898" lon="11.38257361347717"><ele>374.0</ele><time>2026-03-26T14:30:14Z</time></trkpt><trkpt lat="45.63042323374873" lon="11.382553780676254"><ele>365.33333333333337</ele><time>2026-03-26T14:30:52.999Z</time></trkpt><trkpt lat="45.63042547856701" lon="11.38264938595357"><ele>356.6666666666667</ele><time>2026-03-26T14:30:55.999Z</time></trkpt><trkpt lat="45.63040391247534" lon="11.382737626814476"><ele>348.0</ele><time>2026-03-26T14:30:57.999Z</time></trkpt><trkpt lat="45.630483033258585" lon="11.38280457249619"><ele>339.3333333333333</ele><time>2026-03-26T14:31:00.999Z</time></trkpt><trkpt lat="45.63057912463373" lon="11.382893331627487"><ele>330.66666666666663</ele><time>2026-03-26T14:31:03.999Z</time></trkpt><trkpt lat="45.63059417011522" lon="11.383004735075938"><ele>322.0</ele><time>2026-03-26T14:31:04.999Z</time></trkpt><trkpt lat="45.63058985453773" lon="11.383128936133518"><ele>322.0</ele><time>2026-03-26T14:31:06.999Z</time></trkpt><trkpt lat="45.63065165824014" lon="11.383230940455302"><ele>322.0</ele><time>2026-03-26T14:31:09.998Z</time></trkpt><trkpt lat="45.630712554737364" lon="11.383263556666957"><ele>322.0</ele><time>2026-03-26T14:31:11.998Z</time></trkpt><trkpt lat="45.6307233361506" lon="11.38337439014717"><ele>322.0</ele><time>2026-03-26T14:31:14.998Z</time></trkpt><trkpt lat="45.630709864268326" lon="11.3834841656201"><ele>322.0</ele><time>2026-03-26T14:31:17.998Z</time></trkpt><trkpt lat="45.63068840931746" lon="11.383570800389542"><ele>322.0</ele><time>2026-03-26T14:31:20.998Z</time></trkpt><trkpt lat="45.63071691027936" lon="11.383659425444165"><ele>322.0</ele><time>2026-03-26T14:31:32.998Z</time></trkpt><trkpt lat="45.63070027422337" lon="11.383758858563837"><ele>322.0</ele><time>2026-03-26T14:31:43.998Z</time></trkpt><trkpt lat="45.630722572462986" lon="11.383858378395106"><ele>322.0</ele><time>2026-03-26T14:31:46.997Z</time></trkpt><trkpt lat="45.63075703683512" lon="11.38395846130721"><ele>322.0</ele><time>2026-03-26T14:31:48.997Z</time></trkpt><trkpt lat="45.630805188244466" lon="11.384048082833605"><ele>322.0</ele><time>2026-03-26T14:31:50.997Z</time></trkpt><trkpt lat="45.63084580860805" lon="11.384140028068225"><ele>322.0</ele><time>2026-03-26T14:31:55.997Z</time></trkpt><trkpt lat="45.630887909967" lon="11.384213264497928"><ele>322.0</ele><time>2026-03-26T14:31:57.997Z</time></trkpt><trkpt lat="45.63096113396056" lon="11.384276009689696"><ele>322.0</ele><time>2026-03-26T14:32:04Z</time></trkpt><trkpt lat="45.63109617470394" lon="11.384196979699311"><ele>322.0</ele><time>2026-03-26T14:32:08Z</time></trkpt><trkpt lat="45.63115683573779" lon="11.38413931261539"><ele>322.0</ele><time>2026-03-26T14:32:09Z</time></trkpt><trkpt lat="45.63123230420952" lon="11.384085554820011"><ele>322.0</ele><time>2026-03-26T14:32:10Z</time></trkpt><trkpt lat="45.63132198201857" lon="11.384045260830884"><ele>322.0</ele><time>2026-03-26T14:32:11Z</time></trkpt><trkpt lat="45.631415426884196" lon="11.384018311623654"><ele>318.5</ele><time>2026-03-26T14:32:12Z</time></trkpt><trkpt lat="45.63150943412686" lon="11.384004052729205"><ele>315.0</ele><time>2026-03-26T14:32:13Z</time></trkpt><trkpt lat="45.63158525210408" lon="11.38400303760114"><ele>311.5</ele><time>2026-03-26T14:32:14Z</time></trkpt><trkpt lat="45.631656346577955" lon="11.383992571470896"><ele>308.0</ele><time>2026-03-26T14:32:15Z</time></trkpt><trkpt lat="45.631715880206336" lon="11.383958706809457"><ele>304.5</ele><time>2026-03-26T14:32:16Z</time></trkpt><trkpt lat="45.63177144545183" lon="11.383872560620706"><ele>301.0</ele><time>2026-03-26T14:32:17Z</time></trkpt><trkpt lat="45.63181927463475" lon="11.383741830766054"><ele>300.2</ele><time>2026-03-26T14:32:18Z</time></trkpt><trkpt lat="45.63185756988159" lon="11.383587682064249"><ele>299.40000000000003</ele><time>2026-03-26T14:32:19Z</time></trkpt><trkpt lat="45.631924806996764" lon="11.383447317393127"><ele>298.6</ele><time>2026-03-26T14:32:20Z</time></trkpt><trkpt lat="45.63197467528837" lon="11.383340305985925"><ele>297.8</ele><time>2026-03-26T14:32:21Z</time></trkpt><trkpt lat="45.632025518572846" lon="11.383259488577576"><ele>297.0</ele><time>2026-03-26T14:32:22Z</time></trkpt><trkpt lat="45.63208328776138" lon="11.383202946903989"><ele>297.0</ele><time>2026-03-26T14:32:23Z</time></trkpt><trkpt lat="45.63214342909284" lon="11.38315119320106"><ele>297.0</ele><time>2026-03-26T14:32:24Z</time></trkpt><trkpt lat="45.63225325847257" lon="11.383109050798955"><ele>297.0</ele><time>2026-03-26T14:32:26Z</time></trkpt><trkpt lat="45.63232716495773" lon="11.38308604571669"><ele>297.0</ele><time>2026-03-26T14:32:28Z</time></trkpt><trkpt lat="45.632390501355786" lon="11.383078786136505"><ele>297.0</ele><time>2026-03-26T14:32:34Z</time></trkpt><trkpt lat="45.63231310048852" lon="11.383141370547262"><ele>297.0</ele><time>2026-03-26T14:32:45.999Z</time></trkpt><trkpt lat="45.632433325779914" lon="11.3833551143957"><ele>297.0</ele><time>2026-03-26T14:32:54.999Z</time></trkpt><trkpt lat="45.63249271824016" lon="11.383423463861256"><ele>297.0</ele><time>2026-03-26T14:32:55.999Z</time></trkpt><trkpt lat="45.632535285484586" lon="11.38356575078813"><ele>297.0</ele><time>2026-03-26T14:32:56.999Z</time></trkpt><trkpt lat="45.63257183954486" lon="11.383646470887607"><ele>297.0</ele><time>2026-03-26T14:32:57.999Z</time></trkpt><trkpt lat="45.63267207043119" lon="11.383764357211172"><ele>297.0</ele><time>2026-03-26T14:32:59.999Z</time></trkpt><trkpt lat="45.63274587846043" lon="11.383796787670061"><ele>296.2</ele><time>2026-03-26T14:33:00.999Z</time></trkpt><trkpt lat="45.632841451876224" lon="11.383837532524536"><ele>295.4</ele><time>2026-03-26T14:33:02.999Z</time></trkpt><trkpt lat="45.632951412631094" lon="11.383822209545905"><ele>294.6</ele><time>2026-03-26T14:33:04.999Z</time></trkpt><trkpt lat="45.63304199340851" lon="11.383848965281485"><ele>293.8</ele><time>2026-03-26T14:33:06.999Z</time></trkpt><trkpt lat="45.63315954087652" lon="11.383798082255925"><ele>293.0</ele><time>2026-03-26T14:33:08.999Z</time></trkpt><trkpt lat="45.63322253879531" lon="11.383754102352185"><ele>293.0</ele><time>2026-03-26T14:33:09.999Z</time></trkpt><trkpt lat="45.63329902817346" lon="11.38376518883228"><ele>293.0</ele><time>2026-03-26T14:33:11.999Z</time></trkpt><trkpt lat="45.633447610466426" lon="11.383732539319537"><ele>293.0</ele><time>2026-03-26T14:33:14.998Z</time></trkpt><trkpt lat="45.63367346791708" lon="11.383940824507446"><ele>289.85714285714283</ele><time>2026-03-26T14:33:20.998Z</time></trkpt><trkpt lat="45.63372878913945" lon="11.383993760908442"><ele>286.7142857142857</ele><time>2026-03-26T14:33:21.998Z</time></trkpt><trkpt lat="45.6337713328559" lon="11.38406745527419"><ele>283.57142857142856</ele><time>2026-03-26T14:33:22.998Z</time></trkpt><trkpt lat="45.633834690051074" lon="11.384133127038082"><ele>280.42857142857144</ele><time>2026-03-26T14:33:23.998Z</time></trkpt><trkpt lat="45.63391725936798" lon="11.384130595101707"><ele>277.2857142857143</ele><time>2026-03-26T14:33:24.998Z</time></trkpt><trkpt lat="45.63398154278491" lon="11.384185810434643"><ele>274.1428571428571</ele><time>2026-03-26T14:33:25.998Z</time></trkpt><trkpt lat="45.63405112195394" lon="11.384231056052487"><ele>271.0</ele><time>2026-03-26T14:33:26.998Z</time></trkpt><trkpt lat="45.63416603870092" lon="11.384248348736506"><ele>271.0</ele><time>2026-03-26T14:33:27.998Z</time></trkpt><trkpt lat="45.63426070146088" lon="11.384267713447903"><ele>271.0</ele><time>2026-03-26T14:33:28.998Z</time></trkpt><trkpt lat="45.63434625289138" lon="11.384287395991779"><ele>271.0</ele><time>2026-03-26T14:33:29.998Z</time></trkpt><trkpt lat="45.63441492601757" lon="11.384301354338154"><ele>271.0</ele><time>2026-03-26T14:33:30.998Z</time></trkpt><trkpt lat="45.63448967665424" lon="11.384347288877125"><ele>271.0</ele><time>2026-03-26T14:33:31.998Z</time></trkpt><trkpt lat="45.63459133726549" lon="11.384313640915627"><ele>271.0</ele><time>2026-03-26T14:33:33.998Z</time></trkpt><trkpt lat="45.63470776010531" lon="11.384300280322714"><ele>267.6</ele><time>2026-03-26T14:33:35.998Z</time></trkpt><trkpt lat="45.63476217039063" lon="11.384244590120854"><ele>264.20000000000005</ele><time>2026-03-26T14:33:36.998Z</time></trkpt><trkpt lat="45.63483855724449" lon="11.384144782859845"><ele>260.79999999999995</ele><time>2026-03-26T14:33:38.998Z</time></trkpt><trkpt lat="45.63490218824723" lon="11.384113752157583"><ele>257.4</ele><time>2026-03-26T14:33:39.998Z</time></trkpt><trkpt lat="45.63497394069191" lon="11.38397606530384"><ele>254.0</ele><time>2026-03-26T14:33:41.998Z</time></trkpt><trkpt lat="45.63503511705768" lon="11.383863253643613"><ele>252.66666666666669</ele><time>2026-03-26T14:33:42.998Z</time></trkpt><trkpt lat="45.63507932911502" lon="11.383779269065862"><ele>251.33333333333334</ele><time>2026-03-26T14:33:43.998Z</time></trkpt><trkpt lat="45.635137697393425" lon="11.383662964607598"><ele>250.0</ele><time>2026-03-26T14:33:45.998Z</time></trkpt><trkpt lat="45.635183856765224" lon="11.383577472222552"><ele>248.66666666666669</ele><time>2026-03-26T14:33:48.998Z</time></trkpt><trkpt lat="45.63521932664767" lon="11.383501192365792"><ele>247.33333333333334</ele><time>2026-03-26T14:34:11Z</time></trkpt><trkpt lat="45.635266217922045" lon="11.383438326272636"><ele>246.0</ele><time>2026-03-26T14:34:23Z</time></trkpt><trkpt lat="45.635337101975054" lon="11.383378994497065"><ele>246.0</ele><time>2026-03-26T14:34:33Z</time></trkpt><trkpt lat="45.6354093339483" lon="11.383247568079017"><ele>246.0</ele><time>2026-03-26T14:34:35Z</time></trkpt><trkpt lat="45.63548405347281" lon="11.383185295287609"><ele>246.0</ele><time>2026-03-26T14:34:36Z</time></trkpt><trkpt lat="45.6355539504073" lon="11.383136681579368"><ele>246.0</ele><time>2026-03-26T14:34:37Z</time></trkpt><trkpt lat="45.63563738708865" lon="11.383098547721305"><ele>246.0</ele><time>2026-03-26T14:34:38Z</time></trkpt><trkpt lat="45.63569627044428" lon="11.383066425077258"><ele>246.0</ele><time>2026-03-26T14:34:39Z</time></trkpt><trkpt lat="45.63581512507962" lon="11.383033762105098"><ele>244.66666666666666</ele><time>2026-03-26T14:34:40.999Z</time></trkpt><trkpt lat="45.63588454727212" lon="11.382995005188588"><ele>243.33333333333331</ele><time>2026-03-26T14:34:41.999Z</time></trkpt><trkpt lat="45.63594248349173" lon="11.38294462516363"><ele>242.0</ele><time>2026-03-26T14:34:42.999Z</time></trkpt><trkpt lat="45.63599549415167" lon="11.38288785189863"><ele>240.66666666666666</ele><time>2026-03-26T14:34:43.999Z</time></trkpt><trkpt lat="45.63611684667668" lon="11.382768261939392"><ele>239.33333333333331</ele><time>2026-03-26T14:34:45.999Z</time></trkpt><trkpt lat="45.636165698435036" lon="11.382694126835903"><ele>238.0</ele><time>2026-03-26T14:34:46.999Z</time></trkpt><trkpt lat="45.63621028071093" lon="11.382627384180228"><ele>237.99999999999997</ele><time>2026-03-26T14:34:47.999Z</time></trkpt><trkpt lat="45.63623452879913" lon="11.382492025458552"><ele>238.0</ele><time>2026-03-26T14:34:49.999Z</time></trkpt><trkpt lat="45.636277928189344" lon="11.382413461603885"><ele>238.0</ele><time>2026-03-26T14:34:52.999Z</time></trkpt><trkpt lat="45.63634534277186" lon="11.382312323096082"><ele>238.0</ele><time>2026-03-26T14:34:54.999Z</time></trkpt><trkpt lat="45.636404581134606" lon="11.382210415700342"><ele>237.99999999999997</ele><time>2026-03-26T14:34:55.999Z</time></trkpt><trkpt lat="45.63646006262062" lon="11.382117008339069"><ele>238.0</ele><time>2026-03-26T14:34:56.999Z</time></trkpt><trkpt lat="45.63653124161496" lon="11.382010534716727"><ele>239.8</ele><time>2026-03-26T14:34:58.999Z</time></trkpt><trkpt lat="45.63663390505645" lon="11.381999033802979"><ele>241.60000000000002</ele><time>2026-03-26T14:35:00.999Z</time></trkpt><trkpt lat="45.63669667765" lon="11.381981012946259"><ele>243.39999999999998</ele><time>2026-03-26T14:35:01.999Z</time></trkpt><trkpt lat="45.636817353800566" lon="11.381916092905177"><ele>245.2</ele><time>2026-03-26T14:35:03.999Z</time></trkpt><trkpt lat="45.63688131449314" lon="11.38183400183255"><ele>247.0</ele><time>2026-03-26T14:35:04.999Z</time></trkpt><trkpt lat="45.6369555498026" lon="11.381741504512043"><ele>244.8</ele><time>2026-03-26T14:35:05.999Z</time></trkpt><trkpt lat="45.63703110018633" lon="11.381649722135936"><ele>242.6</ele><time>2026-03-26T14:35:06.999Z</time></trkpt><trkpt lat="45.63711388574794" lon="11.381558297630848"><ele>240.40000000000003</ele><time>2026-03-26T14:35:07.999Z</time></trkpt><trkpt lat="45.63719234514836" lon="11.381477040362476"><ele>238.20000000000002</ele><time>2026-03-26T14:35:08.999Z</time></trkpt><trkpt lat="45.637262542795256" lon="11.38141038482392"><ele>236.0</ele><time>2026-03-26T14:35:09.999Z</time></trkpt><trkpt lat="45.637344486980275" lon="11.381347458800224"><ele>236.00000000000003</ele><time>2026-03-26T14:35:10.999Z</time></trkpt><trkpt lat="45.637432801390844" lon="11.381302493639582"><ele>236.0</ele><time>2026-03-26T14:35:11.999Z</time></trkpt><trkpt lat="45.637511559370346" lon="11.381245022947267"><ele>236.0</ele><time>2026-03-26T14:35:12.999Z</time></trkpt><trkpt lat="45.63759203015698" lon="11.381208848923835"><ele>236.0</ele><time>2026-03-26T14:35:13.999Z</time></trkpt><trkpt lat="45.63765992822754" lon="11.38114502479653"><ele>236.00000000000003</ele><time>2026-03-26T14:35:14.999Z</time></trkpt><trkpt lat="45.63773501963076" lon="11.381092837850892"><ele>236.0</ele><time>2026-03-26T14:35:15.999Z</time></trkpt><trkpt lat="45.63781965212528" lon="11.38101884120912"><ele>231.20000000000002</ele><time>2026-03-26T14:35:16.999Z</time></trkpt><trkpt lat="45.63789048367898" lon="11.38092517923107"><ele>226.40000000000003</ele><time>2026-03-26T14:35:17.999Z</time></trkpt><trkpt lat="45.637955546591996" lon="11.380807061858256"><ele>221.6</ele><time>2026-03-26T14:35:18.999Z</time></trkpt><trkpt lat="45.63801131160613" lon="11.380696463620286"><ele>216.8</ele><time>2026-03-26T14:35:19.999Z</time></trkpt><trkpt lat="45.638059636396214" lon="11.380595196338902"><ele>212.0</ele><time>2026-03-26T14:35:20.998Z</time></trkpt><trkpt lat="45.63812070227005" lon="11.380474811237635"><ele>211.83333333333334</ele><time>2026-03-26T14:35:22.998Z</time></trkpt><trkpt lat="45.63818979676129" lon="11.380390081388997"><ele>211.66666666666669</ele><time>2026-03-26T14:35:24.998Z</time></trkpt><trkpt lat="45.63826098973179" lon="11.38038197619556"><ele>211.5</ele><time>2026-03-26T14:35:25.998Z</time></trkpt><trkpt lat="45.63832502613839" lon="11.380383733636974"><ele>211.33333333333331</ele><time>2026-03-26T14:35:26.998Z</time></trkpt><trkpt lat="45.6383932569571" lon="11.380378729741254"><ele>211.16666666666666</ele><time>2026-03-26T14:35:27.998Z</time></trkpt><trkpt lat="45.63847740289607" lon="11.380349346794977"><ele>211.0</ele><time>2026-03-26T14:35:29.998Z</time></trkpt><trkpt lat="45.63854867637273" lon="11.38035312172366"><ele>198.5</ele><time>2026-03-26T14:35:31.998Z</time></trkpt><trkpt lat="45.638973549519214" lon="11.380334806185193"><ele>186.0</ele><time>2026-03-26T14:35:33.998Z</time></trkpt><trkpt lat="45.63901952310976" lon="11.380469965716273"><ele>184.5</ele><time>2026-03-26T14:35:35.998Z</time></trkpt><trkpt lat="45.63903705963169" lon="11.380621358084323"><ele>183.0</ele><time>2026-03-26T14:35:37.998Z</time></trkpt><trkpt lat="45.63855032171562" lon="11.381088600337074"><ele>186.66666666666666</ele><time>2026-03-26T14:35:38.998Z</time></trkpt><trkpt lat="45.63850183099074" lon="11.38119322940653"><ele>190.33333333333331</ele><time>2026-03-26T14:35:39.998Z</time></trkpt><trkpt lat="45.63846491497471" lon="11.381373930290824"><ele>194.0</ele><time>2026-03-26T14:35:41.998Z</time></trkpt><trkpt lat="45.63845798934638" lon="11.381466320028792"><ele>197.66666666666666</ele><time>2026-03-26T14:35:42.998Z</time></trkpt><trkpt lat="45.63844379598544" lon="11.381571304621776"><ele>201.33333333333331</ele><time>2026-03-26T14:35:43.998Z</time></trkpt><trkpt lat="45.63842417878588" lon="11.381682876685757"><ele>205.0</ele><time>2026-03-26T14:35:44.998Z</time></trkpt><trkpt lat="45.638382896158916" lon="11.381791069202826"><ele>204.99999999999997</ele><time>2026-03-26T14:35:45.998Z</time></trkpt><trkpt lat="45.63835127514862" lon="11.381898870919219"><ele>205.0</ele><time>2026-03-26T14:35:46.998Z</time></trkpt><trkpt lat="45.63831193793597" lon="11.382025446675572"><ele>205.0</ele><time>2026-03-26T14:35:47.998Z</time></trkpt><trkpt lat="45.63827671856787" lon="11.38210132115424"><ele>205.0</ele><time>2026-03-26T14:35:48.998Z</time></trkpt><trkpt lat="45.63825858770983" lon="11.382192971943626"><ele>204.99999999999997</ele><time>2026-03-26T14:35:49.998Z</time></trkpt><trkpt lat="45.638230285435235" lon="11.382273715824933"><ele>205.0</ele><time>2026-03-26T14:35:50.998Z</time></trkpt><trkpt lat="45.638257552901855" lon="11.382427923366873"><ele>201.75</ele><time>2026-03-26T14:35:52.998Z</time></trkpt><trkpt lat="45.638228754303064" lon="11.3825986765301"><ele>198.5</ele><time>2026-03-26T14:35:53.998Z</time></trkpt><trkpt lat="45.63819945923233" lon="11.382783571270153"><ele>195.25</ele><time>2026-03-26T14:35:54.998Z</time></trkpt><trkpt lat="45.63816975385303" lon="11.382933079841923"><ele>192.0</ele><time>2026-03-26T14:35:55.998Z</time></trkpt><trkpt lat="45.63815612606232" lon="11.383069077505311"><ele>189.39999999999998</ele><time>2026-03-26T14:35:56.998Z</time></trkpt><trkpt lat="45.63814443386452" lon="11.383183088786263"><ele>186.79999999999998</ele><time>2026-03-26T14:35:57.998Z</time></trkpt><trkpt lat="45.63812644179373" lon="11.383338441736386"><ele>184.2</ele><time>2026-03-26T14:35:58.997Z</time></trkpt><trkpt lat="45.63812659537788" lon="11.383497948781361"><ele>181.6</ele><time>2026-03-26T14:35:59.997Z</time></trkpt><trkpt lat="45.638113680917066" lon="11.38364664663448"><ele>179.0</ele><time>2026-03-26T14:36:00.997Z</time></trkpt><trkpt lat="45.63809444930103" lon="11.383803393360827"><ele>176.39999999999998</ele><time>2026-03-26T14:36:01.997Z</time></trkpt><trkpt lat="45.63807409037801" lon="11.38393339965451"><ele>173.8</ele><time>2026-03-26T14:36:02.997Z</time></trkpt><trkpt lat="45.638064498165676" lon="11.384047493322383"><ele>171.2</ele><time>2026-03-26T14:36:03.997Z</time></trkpt><trkpt lat="45.63806076218263" lon="11.38416106654277"><ele>168.60000000000002</ele><time>2026-03-26T14:36:04.997Z</time></trkpt><trkpt lat="45.63805410729724" lon="11.384293098441724"><ele>166.0</ele><time>2026-03-26T14:36:06.997Z</time></trkpt><trkpt lat="45.638117556934844" lon="11.38444134324665"><ele>166.0</ele><time>2026-03-26T14:36:08.997Z</time></trkpt><trkpt lat="45.638211934197514" lon="11.384477121060817"><ele>166.0</ele><time>2026-03-26T14:36:10.997Z</time></trkpt><trkpt lat="45.63828332764353" lon="11.384503327273892"><ele>166.0</ele><time>2026-03-26T14:36:11.997Z</time></trkpt><trkpt lat="45.63834720672708" lon="11.384522120896774"><ele>166.0</ele><time>2026-03-26T14:36:12.997Z</time></trkpt><trkpt lat="45.638478638863745" lon="11.384469260180136"><ele>166.0</ele><time>2026-03-26T14:36:15Z</time></trkpt><trkpt lat="45.63855473832036" lon="11.384414445938258"><ele>166.0</ele><time>2026-03-26T14:36:16Z</time></trkpt><trkpt lat="45.638618085202516" lon="11.384385380681394"><ele>166.0</ele><time>2026-03-26T14:36:17Z</time></trkpt><trkpt lat="45.638731193345514" lon="11.384432495051797"><ele>166.0</ele><time>2026-03-26T14:36:19Z</time></trkpt><trkpt lat="45.63878716753888" lon="11.384521016331506"><ele>166.0</ele><time>2026-03-26T14:36:20Z</time></trkpt><trkpt lat="45.63883586592441" lon="11.384641898913221"><ele>166.0</ele><time>2026-03-26T14:36:21Z</time></trkpt><trkpt lat="45.63887987079104" lon="11.384765155374982"><ele>163.0</ele><time>2026-03-26T14:36:22Z</time></trkpt><trkpt lat="45.63895069621249" lon="11.38485431803741"><ele>160.0</ele><time>2026-03-26T14:36:23Z</time></trkpt><trkpt lat="45.63902597697068" lon="11.384908695776055"><ele>157.0</ele><time>2026-03-26T14:36:24Z</time></trkpt><trkpt lat="45.639080044603624" lon="11.384960743531341"><ele>154.0</ele><time>2026-03-26T14:36:25Z</time></trkpt><trkpt lat="45.6391504786849" lon="11.38501751513496"><ele>151.0</ele><time>2026-03-26T14:36:26Z</time></trkpt><trkpt lat="45.63921011484898" lon="11.38506322168874"><ele>148.0</ele><time>2026-03-26T14:36:27Z</time></trkpt><trkpt lat="45.63928233462386" lon="11.385127170469321"><ele>148.0</ele><time>2026-03-26T14:36:28Z</time></trkpt><trkpt lat="45.63933445045509" lon="11.385194533880643"><ele>148.0</ele><time>2026-03-26T14:36:30Z</time></trkpt><trkpt lat="45.63943717771501" lon="11.385138326953966"><ele>148.0</ele><time>2026-03-26T14:36:32Z</time></trkpt><trkpt lat="45.63950406420765" lon="11.385060112404213"><ele>148.0</ele><time>2026-03-26T14:36:33Z</time></trkpt><trkpt lat="45.639576369821526" lon="11.384981573983083"><ele>148.0</ele><time>2026-03-26T14:36:34Z</time></trkpt><trkpt lat="45.639656303373165" lon="11.384895880286072"><ele>147.20000000000002</ele><time>2026-03-26T14:36:35Z</time></trkpt><trkpt lat="45.63973333877905" lon="11.384801406304925"><ele>146.4</ele><time>2026-03-26T14:36:36Z</time></trkpt><trkpt lat="45.63981487644925" lon="11.384700884341335"><ele>145.60000000000002</ele><time>2026-03-26T14:36:37Z</time></trkpt><trkpt lat="45.63990496623708" lon="11.384623833814807"><ele>144.8</ele><time>2026-03-26T14:36:38Z</time></trkpt><trkpt lat="45.63998792540515" lon="11.384557346358168"><ele>144.0</ele><time>2026-03-26T14:36:39Z</time></trkpt><trkpt lat="45.640093230789375" lon="11.38458005899552"><ele>144.0</ele><time>2026-03-26T14:36:40Z</time></trkpt><trkpt lat="45.6402023711437" lon="11.38459292404891"><ele>144.0</ele><time>2026-03-26T14:36:41Z</time></trkpt><trkpt lat="45.640331619069336" lon="11.384595259511611"><ele>144.0</ele><time>2026-03-26T14:36:42Z</time></trkpt><trkpt lat="45.640467679880054" lon="11.384596515509914"><ele>144.0</ele><time>2026-03-26T14:36:43Z</time></trkpt><trkpt lat="45.640605934369844" lon="11.384590135388581"><ele>143.4</ele><time>2026-03-26T14:36:44Z</time></trkpt><trkpt lat="45.64073734837239" lon="11.384575121400406"><ele>142.8</ele><time>2026-03-26T14:36:45Z</time></trkpt><trkpt lat="45.64084984182228" lon="11.38454928530255"><ele>142.2</ele><time>2026-03-26T14:36:46Z</time></trkpt><trkpt lat="45.64094387166598" lon="11.384531575957777"><ele>141.6</ele><time>2026-03-26T14:36:46.999Z</time></trkpt><trkpt lat="45.64105090959487" lon="11.384516313589035"><ele>141.0</ele><time>2026-03-26T14:36:47.999Z</time></trkpt><trkpt lat="45.64116602357073" lon="11.3844786604462"><ele>140.8</ele><time>2026-03-26T14:36:48.999Z</time></trkpt><trkpt lat="45.6412758804686" lon="11.3844152179867"><ele>140.6</ele><time>2026-03-26T14:36:49.999Z</time></trkpt><trkpt lat="45.6413646327922" lon="11.384356393200688"><ele>140.4</ele><time>2026-03-26T14:36:50.999Z</time></trkpt><trkpt lat="45.64144108686994" lon="11.384296804055252"><ele>140.2</ele><time>2026-03-26T14:36:51.999Z</time></trkpt><trkpt lat="45.64150107112239" lon="11.384268805696625"><ele>140.0</ele><time>2026-03-26T14:36:52.999Z</time></trkpt><trkpt lat="45.641613541304004" lon="11.384413887252169"><ele>140.0</ele><time>2026-03-26T14:36:54.999Z</time></trkpt><trkpt lat="45.64170638699064" lon="11.384558557393895"><ele>140.0</ele><time>2026-03-26T14:36:55.999Z</time></trkpt><trkpt lat="45.641823545989396" lon="11.384709323753956"><ele>140.0</ele><time>2026-03-26T14:36:56.999Z</time></trkpt><trkpt lat="45.64189965354676" lon="11.38486460884154"><ele>140.0</ele><time>2026-03-26T14:36:57.999Z</time></trkpt><trkpt lat="45.64197575857103" lon="11.384980988170284"><ele>139.2</ele><time>2026-03-26T14:36:58.999Z</time></trkpt><trkpt lat="45.64204433848899" lon="11.385081696987156"><ele>138.4</ele><time>2026-03-26T14:36:59.999Z</time></trkpt><trkpt lat="45.6421013448587" lon="11.385152905904668"><ele>137.6</ele><time>2026-03-26T14:37:00.999Z</time></trkpt><trkpt lat="45.6421707668216" lon="11.385193521010063"><ele>136.8</ele><time>2026-03-26T14:37:01.999Z</time></trkpt><trkpt lat="45.64223762112029" lon="11.385203322813862"><ele>136.0</ele><time>2026-03-26T14:37:02.999Z</time></trkpt><trkpt lat="45.64231809940619" lon="11.384967682670196"><ele>136.0</ele><time>2026-03-26T14:37:03.999Z</time></trkpt><trkpt lat="45.642403931229396" lon="11.384830338736128"><ele>136.0</ele><time>2026-03-26T14:37:04.999Z</time></trkpt><trkpt lat="45.642471503461195" lon="11.384680923175077"><ele>136.0</ele><time>2026-03-26T14:37:05.999Z</time></trkpt><trkpt lat="45.642521326076455" lon="11.384548817442012"><ele>136.0</ele><time>2026-03-26T14:37:06.999Z</time></trkpt><trkpt lat="45.64254806770793" lon="11.384368981676893"><ele>136.2</ele><time>2026-03-26T14:37:07.999Z</time></trkpt><trkpt lat="45.64254295358032" lon="11.384196677874426"><ele>136.39999999999998</ele><time>2026-03-26T14:37:08.999Z</time></trkpt><trkpt lat="45.64256594127779" lon="11.38407552728532"><ele>136.6</ele><time>2026-03-26T14:37:09.999Z</time></trkpt><trkpt lat="45.642625860852846" lon="11.38398700344701"><ele>136.79999999999998</ele><time>2026-03-26T14:37:10.999Z</time></trkpt><trkpt lat="45.64265339816772" lon="11.383879791409589"><ele>137.0</ele><time>2026-03-26T14:37:12.999Z</time></trkpt><trkpt lat="45.64277045246056" lon="11.383644950123147"><ele>137.6</ele><time>2026-03-26T14:37:17.999Z</time></trkpt><trkpt lat="45.6428203943051" lon="11.383531495847905"><ele>138.2</ele><time>2026-03-26T14:37:18.999Z</time></trkpt><trkpt lat="45.642896372693386" lon="11.383432618147527"><ele>138.8</ele><time>2026-03-26T14:37:19.999Z</time></trkpt><trkpt lat="45.64297087992741" lon="11.383293187544151"><ele>139.4</ele><time>2026-03-26T14:37:20.999Z</time></trkpt><trkpt lat="45.64303734704935" lon="11.38313873809739"><ele>140.0</ele><time>2026-03-26T14:37:21.999Z</time></trkpt><trkpt lat="45.64308495703579" lon="11.383038573715433"><ele>143.8</ele><time>2026-03-26T14:37:22.999Z</time></trkpt><trkpt lat="45.64314109493538" lon="11.382949997167449"><ele>147.6</ele><time>2026-03-26T14:37:23.999Z</time></trkpt><trkpt lat="45.64321038954171" lon="11.382883148267505"><ele>151.4</ele><time>2026-03-26T14:37:24.999Z</time></trkpt><trkpt lat="45.64329376357304" lon="11.382816556443972"><ele>155.2</ele><time>2026-03-26T14:37:25.998Z</time></trkpt><trkpt lat="45.64337888780125" lon="11.38273705358611"><ele>159.0</ele><time>2026-03-26T14:37:26.998Z</time></trkpt><trkpt lat="45.643451187736616" lon="11.382651031943576"><ele>159.0</ele><time>2026-03-26T14:37:27.998Z</time></trkpt><trkpt lat="45.64351045164666" lon="11.382583204533574"><ele>159.0</ele><time>2026-03-26T14:37:28.998Z</time></trkpt><trkpt lat="45.64356371933985" lon="11.382531647074998"><ele>159.0</ele><time>2026-03-26T14:37:29.998Z</time></trkpt><trkpt lat="45.64367893326896" lon="11.382616495353158"><ele>159.0</ele><time>2026-03-26T14:37:31.998Z</time></trkpt><trkpt lat="45.643774886383035" lon="11.382707028933645"><ele>159.0</ele><time>2026-03-26T14:37:32.998Z</time></trkpt><trkpt lat="45.64386235501215" lon="11.382825741412585"><ele>157.8</ele><time>2026-03-26T14:37:33.998Z</time></trkpt><trkpt lat="45.64394113446919" lon="11.382890907395936"><ele>156.60000000000002</ele><time>2026-03-26T14:37:34.998Z</time></trkpt><trkpt lat="45.644005316948835" lon="11.382911997575103"><ele>155.4</ele><time>2026-03-26T14:37:35.998Z</time></trkpt><trkpt lat="45.64413495027525" lon="11.382873816443112"><ele>154.20000000000002</ele><time>2026-03-26T14:37:37.998Z</time></trkpt><trkpt lat="45.64424462325908" lon="11.382834726312792"><ele>153.0</ele><time>2026-03-26T14:37:39.998Z</time></trkpt><trkpt lat="45.6443462740501" lon="11.382825262851334"><ele>153.0</ele><time>2026-03-26T14:37:40.998Z</time></trkpt><trkpt lat="45.64441265296821" lon="11.382795377326358"><ele>153.0</ele><time>2026-03-26T14:37:41.998Z</time></trkpt><trkpt lat="45.644462757274496" lon="11.382735176466086"><ele>153.0</ele><time>2026-03-26T14:37:42.998Z</time></trkpt><trkpt lat="45.64451682855671" lon="11.382660169768736"><ele>153.0</ele><time>2026-03-26T14:37:43.998Z</time></trkpt><trkpt lat="45.64456819155273" lon="11.382600293932049"><ele>153.0</ele><time>2026-03-26T14:37:44.998Z</time></trkpt><trkpt lat="45.644643103658076" lon="11.38250278829012"><ele>153.0</ele><time>2026-03-26T14:37:46.998Z</time></trkpt><trkpt lat="45.64470141467106" lon="11.382414186655675"><ele>154.0</ele><time>2026-03-26T14:37:48.998Z</time></trkpt><trkpt lat="45.64491787264785" lon="11.382604416449738"><ele>155.0</ele><time>2026-03-26T14:37:49.998Z</time></trkpt><trkpt lat="45.64503087854465" lon="11.38261031524778"><ele>156.0</ele><time>2026-03-26T14:37:51.998Z</time></trkpt><trkpt lat="45.6450932724441" lon="11.382666103193108"><ele>157.0</ele><time>2026-03-26T14:37:52.998Z</time></trkpt><trkpt lat="45.64515714920363" lon="11.382721491060744"><ele>157.0</ele><time>2026-03-26T14:37:53.998Z</time></trkpt><trkpt lat="45.645225531471056" lon="11.382754888879349"><ele>157.0</ele><time>2026-03-26T14:37:54.998Z</time></trkpt><trkpt lat="45.645289537784535" lon="11.382773947753698"><ele>157.0</ele><time>2026-03-26T14:37:55.998Z</time></trkpt><trkpt lat="45.64537760155618" lon="11.382801512994671"><ele>157.0</ele><time>2026-03-26T14:37:56.998Z</time></trkpt><trkpt lat="45.645471258998555" lon="11.382834901484612"><ele>157.0</ele><time>2026-03-26T14:37:57.998Z</time></trkpt><trkpt lat="45.64555905127153" lon="11.382883705740817"><ele>157.0</ele><time>2026-03-26T14:37:58.998Z</time></trkpt><trkpt lat="45.645645179782306" lon="11.382937822475029"><ele>157.66666666666669</ele><time>2026-03-26T14:37:59.998Z</time></trkpt><trkpt lat="45.645720085675514" lon="11.382988320642387"><ele>158.33333333333334</ele><time>2026-03-26T14:38:00.998Z</time></trkpt><trkpt lat="45.64577145122452" lon="11.383050293186413"><ele>159.0</ele><time>2026-03-26T14:38:01.998Z</time></trkpt><trkpt lat="45.645835032988956" lon="11.383101696767552"><ele>159.66666666666666</ele><time>2026-03-26T14:38:02.998Z</time></trkpt><trkpt lat="45.64590638685979" lon="11.38314162291086"><ele>160.33333333333331</ele><time>2026-03-26T14:38:03.998Z</time></trkpt><trkpt lat="45.64597502343134" lon="11.383163305369143"><ele>161.0</ele><time>2026-03-26T14:38:04.997Z</time></trkpt><trkpt lat="45.646076103192804" lon="11.383202961262738"><ele>157.8</ele><time>2026-03-26T14:38:06.997Z</time></trkpt><trkpt lat="45.646124539427746" lon="11.383355398325135"><ele>154.60000000000002</ele><time>2026-03-26T14:38:08.997Z</time></trkpt><trkpt lat="45.646171743106144" lon="11.383500297267634"><ele>151.4</ele><time>2026-03-26T14:38:09.997Z</time></trkpt><trkpt lat="45.646179180950305" lon="11.38365606598922"><ele>148.2</ele><time>2026-03-26T14:38:10.997Z</time></trkpt><trkpt lat="45.64618731900145" lon="11.383779686011353"><ele>145.0</ele><time>2026-03-26T14:38:11.997Z</time></trkpt><trkpt lat="45.64620020655202" lon="11.383879541889394"><ele>144.4</ele><time>2026-03-26T14:38:12.997Z</time></trkpt><trkpt lat="45.64626099153933" lon="11.384016645169815"><ele>143.8</ele><time>2026-03-26T14:38:14.997Z</time></trkpt><trkpt lat="45.64634363509947" lon="11.384005559554742"><ele>143.2</ele><time>2026-03-26T14:38:16.997Z</time></trkpt><trkpt lat="45.64642203439732" lon="11.383944231512933"><ele>142.6</ele><time>2026-03-26T14:38:17.997Z</time></trkpt><trkpt lat="45.64649890059775" lon="11.383877627323981"><ele>142.0</ele><time>2026-03-26T14:38:18.997Z</time></trkpt><trkpt lat="45.64659750653804" lon="11.383803086705377"><ele>142.0</ele><time>2026-03-26T14:38:20Z</time></trkpt><trkpt lat="45.646683328800236" lon="11.383737505143507"><ele>142.0</ele><time>2026-03-26T14:38:21Z</time></trkpt><trkpt lat="45.64675191575569" lon="11.38369413397306"><ele>142.0</ele><time>2026-03-26T14:38:22Z</time></trkpt><trkpt lat="45.64681456726706" lon="11.38365042427538"><ele>142.0</ele><time>2026-03-26T14:38:23Z</time></trkpt><trkpt lat="45.64691298501622" lon="11.383601469001693"><ele>142.0</ele><time>2026-03-26T14:38:25Z</time></trkpt><trkpt lat="45.64702887596308" lon="11.383517281043384"><ele>142.5</ele><time>2026-03-26T14:38:27Z</time></trkpt><trkpt lat="45.64708383782162" lon="11.38347225741317"><ele>143.0</ele><time>2026-03-26T14:38:28Z</time></trkpt><trkpt lat="45.6471409155002" lon="11.383425684693155"><ele>143.5</ele><time>2026-03-26T14:38:29Z</time></trkpt><trkpt lat="45.647234118177664" lon="11.383340448804507"><ele>144.0</ele><time>2026-03-26T14:38:31Z</time></trkpt><trkpt lat="45.647340328059606" lon="11.38334140029986"><ele>144.5</ele><time>2026-03-26T14:38:33Z</time></trkpt><trkpt lat="45.64740367413401" lon="11.383366580346108"><ele>145.0</ele><time>2026-03-26T14:38:34Z</time></trkpt><trkpt lat="45.64749560769128" lon="11.383381440384122"><ele>145.0</ele><time>2026-03-26T14:38:35Z</time></trkpt><trkpt lat="45.647589992028244" lon="11.383388764830062"><ele>145.0</ele><time>2026-03-26T14:38:36Z</time></trkpt><trkpt lat="45.64766917031306" lon="11.383387559290975"><ele>145.0</ele><time>2026-03-26T14:38:37Z</time></trkpt><trkpt lat="45.647737329364155" lon="11.383371894066869"><ele>145.0</ele><time>2026-03-26T14:38:38Z</time></trkpt><trkpt lat="45.647824173148095" lon="11.383258562026832"><ele>145.0</ele><time>2026-03-26T14:38:40Z</time></trkpt><trkpt lat="45.64794227489784" lon="11.383142438673087"><ele>146.0</ele><time>2026-03-26T14:38:42Z</time></trkpt><trkpt lat="45.64803382760722" lon="11.38304402992587"><ele>147.0</ele><time>2026-03-26T14:38:43Z</time></trkpt><trkpt lat="45.648099396114944" lon="11.382911844784545"><ele>148.0</ele><time>2026-03-26T14:38:44Z</time></trkpt><trkpt lat="45.64812743714756" lon="11.382816660489393"><ele>149.0</ele><time>2026-03-26T14:38:46Z</time></trkpt><trkpt lat="45.64804133042027" lon="11.382766709388036"><ele>150.0</ele><time>2026-03-26T14:38:49Z</time></trkpt><trkpt lat="45.64797278821688" lon="11.382726034172816"><ele>152.0</ele><time>2026-03-26T14:38:50Z</time></trkpt><trkpt lat="45.64789385521382" lon="11.382654928817011"><ele>154.0</ele><time>2026-03-26T14:38:50.999Z</time></trkpt><trkpt lat="45.64784608629619" lon="11.382525671153457"><ele>156.0</ele><time>2026-03-26T14:38:51.999Z</time></trkpt><trkpt lat="45.64782144400992" lon="11.382381060830202"><ele>158.0</ele><time>2026-03-26T14:38:52.999Z</time></trkpt><trkpt lat="45.64783456041195" lon="11.382224716809025"><ele>160.0</ele><time>2026-03-26T14:38:53.999Z</time></trkpt><trkpt lat="45.647847144725844" lon="11.382045378505893"><ele>162.0</ele><time>2026-03-26T14:38:54.999Z</time></trkpt><trkpt lat="45.64783874395118" lon="11.3818587634337"><ele>164.0</ele><time>2026-03-26T14:38:55.999Z</time></trkpt><trkpt lat="45.64780855344507" lon="11.38164492966338"><ele>166.0</ele><time>2026-03-26T14:38:56.999Z</time></trkpt><trkpt lat="45.64776752426846" lon="11.381459869128646"><ele>168.0</ele><time>2026-03-26T14:38:57.999Z</time></trkpt><trkpt lat="45.64774775169662" lon="11.381290244453567"><ele>170.0</ele><time>2026-03-26T14:38:58.999Z</time></trkpt><trkpt lat="45.647769536016334" lon="11.381123867851182"><ele>172.0</ele><time>2026-03-26T14:38:59.999Z</time></trkpt><trkpt lat="45.64777947788744" lon="11.380935427727099"><ele>174.0</ele><time>2026-03-26T14:39:00.999Z</time></trkpt><trkpt lat="45.64780291271673" lon="11.380756780340187"><ele>176.0</ele><time>2026-03-26T14:39:01.999Z</time></trkpt><trkpt lat="45.64783805074032" lon="11.380594228196221"><ele>179.75</ele><time>2026-03-26T14:39:02.999Z</time></trkpt><trkpt lat="45.6479150857505" lon="11.380461566948508"><ele>183.5</ele><time>2026-03-26T14:39:03.999Z</time></trkpt><trkpt lat="45.64799444159783" lon="11.380321122297051"><ele>187.25</ele><time>2026-03-26T14:39:04.999Z</time></trkpt><trkpt lat="45.648068669445394" lon="11.380157945518562"><ele>191.0</ele><time>2026-03-26T14:39:05.999Z</time></trkpt><trkpt lat="45.64814640076265" lon="11.379989061580496"><ele>191.0</ele><time>2026-03-26T14:39:06.999Z</time></trkpt><trkpt lat="45.64821240992218" lon="11.379809169008913"><ele>191.0</ele><time>2026-03-26T14:39:07.999Z</time></trkpt><trkpt lat="45.648275660443176" lon="11.379631998468161"><ele>191.0</ele><time>2026-03-26T14:39:08.999Z</time></trkpt><trkpt lat="45.64833796250904" lon="11.379464527399044"><ele>191.0</ele><time>2026-03-26T14:39:09.999Z</time></trkpt><trkpt lat="45.64839030814008" lon="11.379296814355122"><ele>192.25</ele><time>2026-03-26T14:39:10.999Z</time></trkpt><trkpt lat="45.6484264687851" lon="11.379107324127547"><ele>193.5</ele><time>2026-03-26T14:39:11.999Z</time></trkpt><trkpt lat="45.64847136463599" lon="11.378955366665451"><ele>194.75</ele><time>2026-03-26T14:39:12.999Z</time></trkpt><trkpt lat="45.64849813734872" lon="11.378781526870691"><ele>196.0</ele><time>2026-03-26T14:39:13.999Z</time></trkpt><trkpt lat="45.64853000420809" lon="11.37858479316347"><ele>196.0</ele><time>2026-03-26T14:39:14.999Z</time></trkpt><trkpt lat="45.64855979339777" lon="11.378365383719586"><ele>196.0</ele><time>2026-03-26T14:39:15.999Z</time></trkpt><trkpt lat="45.64858614148167" lon="11.378152095044861"><ele>196.0</ele><time>2026-03-26T14:39:16.999Z</time></trkpt><trkpt lat="45.648601454073486" lon="11.377981153434803"><ele>196.0</ele><time>2026-03-26T14:39:17.999Z</time></trkpt><trkpt lat="45.648606003148124" lon="11.377863208979376"><ele>199.25</ele><time>2026-03-26T14:39:18.999Z</time></trkpt><trkpt lat="45.64881967108384" lon="11.377890386321104"><ele>202.5</ele><time>2026-03-26T14:39:22.999Z</time></trkpt><trkpt lat="45.648930932862655" lon="11.37789503449861"><ele>205.75</ele><time>2026-03-26T14:39:23.999Z</time></trkpt><trkpt lat="45.649013754709415" lon="11.377912236568962"><ele>209.0</ele><time>2026-03-26T14:39:24.999Z</time></trkpt><trkpt lat="45.64908974121354" lon="11.377940707717212"><ele>209.00000000000003</ele><time>2026-03-26T14:39:25.999Z</time></trkpt><trkpt lat="45.64916391426257" lon="11.377944225347772"><ele>209.0</ele><time>2026-03-26T14:39:26.999Z</time></trkpt><trkpt lat="45.649236396267156" lon="11.377913274609167"><ele>209.0</ele><time>2026-03-26T14:39:27.999Z</time></trkpt><trkpt lat="45.64932587063591" lon="11.377882391200645"><ele>209.0</ele><time>2026-03-26T14:39:28.999Z</time></trkpt><trkpt lat="45.64940284700337" lon="11.377836879665557"><ele>209.00000000000003</ele><time>2026-03-26T14:39:29.998Z</time></trkpt><trkpt lat="45.649466801569986" lon="11.37778754965531"><ele>209.0</ele><time>2026-03-26T14:39:30.998Z</time></trkpt><trkpt lat="45.64956741257811" lon="11.377710067795228"><ele>207.50000000000003</ele><time>2026-03-26T14:39:32.998Z</time></trkpt><trkpt lat="45.64962898629743" lon="11.377734277089388"><ele>206.0</ele><time>2026-03-26T14:39:33.998Z</time></trkpt><trkpt lat="45.64966777970474" lon="11.377834074465637"><ele>204.5</ele><time>2026-03-26T14:39:34.998Z</time></trkpt><trkpt lat="45.649734960963" lon="11.37789843746463"><ele>203.0</ele><time>2026-03-26T14:39:35.998Z</time></trkpt><trkpt lat="45.64977581020029" lon="11.377970546112707"><ele>201.50000000000003</ele><time>2026-03-26T14:39:36.998Z</time></trkpt><trkpt lat="45.64985229248469" lon="11.378075201248649"><ele>200.0</ele><time>2026-03-26T14:39:38.998Z</time></trkpt><trkpt lat="45.64992650232571" lon="11.378173160332057"><ele>198.4</ele><time>2026-03-26T14:39:40.998Z</time></trkpt><trkpt lat="45.64985376786856" lon="11.378444891666318"><ele>196.8</ele><time>2026-03-26T14:39:42.998Z</time></trkpt><trkpt lat="45.64985073859407" lon="11.378572266290199"><ele>195.2</ele><time>2026-03-26T14:39:44.998Z</time></trkpt><trkpt lat="45.649804210328234" lon="11.378501557843299"><ele>193.6</ele><time>2026-03-26T14:40:02.998Z</time></trkpt><trkpt lat="45.649803477602354" lon="11.378402038011334"><ele>192.0</ele><time>2026-03-26T14:40:03.998Z</time></trkpt><trkpt lat="45.649803905139606" lon="11.378291816506545"><ele>192.0</ele><time>2026-03-26T14:40:04.998Z</time></trkpt><trkpt lat="45.64978267824831" lon="11.378183414036803"><ele>192.0</ele><time>2026-03-26T14:40:05.998Z</time></trkpt><trkpt lat="45.64976499311219" lon="11.378035606534475"><ele>192.0</ele><time>2026-03-26T14:40:07.998Z</time></trkpt><trkpt lat="45.64972765033652" lon="11.377869235701583"><ele>192.0</ele><time>2026-03-26T14:40:09.997Z</time></trkpt><trkpt lat="45.64968478963495" lon="11.377793752925287"><ele>192.0</ele><time>2026-03-26T14:40:10.997Z</time></trkpt><trkpt lat="45.649622926772956" lon="11.37773575260506"><ele>192.0</ele><time>2026-03-26T14:40:11.997Z</time></trkpt><trkpt lat="45.64954917469937" lon="11.377655000068943"><ele>193.33333333333334</ele><time>2026-03-26T14:40:13.997Z</time></trkpt><trkpt lat="45.64946185449653" lon="11.377737694801649"><ele>194.66666666666669</ele><time>2026-03-26T14:43:01.999Z</time></trkpt><trkpt lat="45.649401036274206" lon="11.377782938209231"><ele>196.0</ele><time>2026-03-26T14:43:02.999Z</time></trkpt><trkpt lat="45.64934073663813" lon="11.377822798932733"><ele>197.33333333333334</ele><time>2026-03-26T14:43:03.999Z</time></trkpt><trkpt lat="45.64927140890087" lon="11.377859902658832"><ele>198.66666666666669</ele><time>2026-03-26T14:43:04.999Z</time></trkpt><trkpt lat="45.64919421085387" lon="11.377892574162821"><ele>200.0</ele><time>2026-03-26T14:43:05.999Z</time></trkpt><trkpt lat="45.64906597760284" lon="11.377913168009599"><ele>200.83333333333334</ele><time>2026-03-26T14:43:07.999Z</time></trkpt><trkpt lat="45.648986433238456" lon="11.37787158750071"><ele>201.66666666666669</ele><time>2026-03-26T14:43:08.999Z</time></trkpt><trkpt lat="45.648884295648614" lon="11.377852721876156"><ele>202.5</ele><time>2026-03-26T14:43:09.999Z</time></trkpt><trkpt lat="45.648795214217365" lon="11.37784870325009"><ele>203.33333333333331</ele><time>2026-03-26T14:43:10.999Z</time></trkpt><trkpt lat="45.64872197509519" lon="11.377849438374584"><ele>204.16666666666666</ele><time>2026-03-26T14:43:11.999Z</time></trkpt><trkpt lat="45.6486361855666" lon="11.377816506311696"><ele>205.0</ele><time>2026-03-26T14:43:13.999Z</time></trkpt><trkpt lat="45.64858270675019" lon="11.377678802159934"><ele>205.0</ele><time>2026-03-26T14:43:16.999Z</time></trkpt><trkpt lat="45.64857268164812" lon="11.377540284699014"><ele>205.0</ele><time>2026-03-26T14:43:17.999Z</time></trkpt><trkpt lat="45.64858958809464" lon="11.377380778935558"><ele>205.0</ele><time>2026-03-26T14:43:18.999Z</time></trkpt><trkpt lat="45.6485866708643" lon="11.377220558593537"><ele>205.0</ele><time>2026-03-26T14:43:19.999Z</time></trkpt><trkpt lat="45.648573631190565" lon="11.377050279644045"><ele>205.0</ele><time>2026-03-26T14:43:20.999Z</time></trkpt><trkpt lat="45.64857087003271" lon="11.376865879056721"><ele>208.0</ele><time>2026-03-26T14:43:21.999Z</time></trkpt><trkpt lat="45.64857578246463" lon="11.37664796443078"><ele>211.0</ele><time>2026-03-26T14:43:22.999Z</time></trkpt><trkpt lat="45.64854258183058" lon="11.376472057584422"><ele>214.0</ele><time>2026-03-26T14:43:23.999Z</time></trkpt><trkpt lat="45.64853714205777" lon="11.3763286979531"><ele>217.0</ele><time>2026-03-26T14:43:24.999Z</time></trkpt><trkpt lat="45.64853368359796" lon="11.37619857569962"><ele>218.5</ele><time>2026-03-26T14:43:25.999Z</time></trkpt><trkpt lat="45.64853937363587" lon="11.376053749546672"><ele>220.0</ele><time>2026-03-26T14:43:26.999Z</time></trkpt><trkpt lat="45.64855048998332" lon="11.375899040302254"><ele>221.5</ele><time>2026-03-26T14:43:27.999Z</time></trkpt><trkpt lat="45.64856419198568" lon="11.375729710609619"><ele>223.0</ele><time>2026-03-26T14:43:28.999Z</time></trkpt><trkpt lat="45.64857604615999" lon="11.375530984455418"><ele>225.0</ele><time>2026-03-26T14:43:29.999Z</time></trkpt><trkpt lat="45.648605976171694" lon="11.37534012814688"><ele>227.0</ele><time>2026-03-26T14:43:30.999Z</time></trkpt><trkpt lat="45.64864844193134" lon="11.375153982966669"><ele>229.0</ele><time>2026-03-26T14:43:31.999Z</time></trkpt><trkpt lat="45.64868651575781" lon="11.375000546659122"><ele>231.0</ele><time>2026-03-26T14:43:32.999Z</time></trkpt><trkpt lat="45.64869715539002" lon="11.374875542880515"><ele>231.0</ele><time>2026-03-26T14:43:33.999Z</time></trkpt><trkpt lat="45.64870033440451" lon="11.374749735655877"><ele>231.00000000000003</ele><time>2026-03-26T14:43:34.999Z</time></trkpt><trkpt lat="45.64870332993478" lon="11.374620141951635"><ele>231.00000000000003</ele><time>2026-03-26T14:43:35.999Z</time></trkpt><trkpt lat="45.64871998989153" lon="11.374480591222069"><ele>231.0</ele><time>2026-03-26T14:43:37.999Z</time></trkpt><trkpt lat="45.64879201000439" lon="11.374397172008957"><ele>231.0</ele><time>2026-03-26T14:43:40.999Z</time></trkpt><trkpt lat="45.64890445211128" lon="11.374495241843041"><ele>232.66666666666666</ele><time>2026-03-26T14:43:42.998Z</time></trkpt><trkpt lat="45.64902557929894" lon="11.374524436208905"><ele>234.33333333333331</ele><time>2026-03-26T14:43:44.998Z</time></trkpt><trkpt lat="45.64909896524727" lon="11.374523193652395"><ele>236.0</ele><time>2026-03-26T14:43:45.998Z</time></trkpt><trkpt lat="45.64916620589023" lon="11.374544737803964"><ele>237.66666666666666</ele><time>2026-03-26T14:43:46.998Z</time></trkpt><trkpt lat="45.649228428392064" lon="11.374586558110623"><ele>239.33333333333331</ele><time>2026-03-26T14:43:47.998Z</time></trkpt><trkpt lat="45.649290819845895" lon="11.374605768834956"><ele>241.0</ele><time>2026-03-26T14:43:48.998Z</time></trkpt><trkpt lat="45.64936133246516" lon="11.374608735854281"><ele>241.0</ele><time>2026-03-26T14:43:49.998Z</time></trkpt><trkpt lat="45.64943122933234" lon="11.374624860764909"><ele>241.00000000000003</ele><time>2026-03-26T14:43:50.998Z</time></trkpt><trkpt lat="45.64949357545295" lon="11.374647521058423"><ele>241.00000000000003</ele><time>2026-03-26T14:43:51.998Z</time></trkpt><trkpt lat="45.64961117539318" lon="11.37469821633524"><ele>241.0</ele><time>2026-03-26T14:43:53.998Z</time></trkpt><trkpt lat="45.649705005530116" lon="11.374720497533016"><ele>241.0</ele><time>2026-03-26T14:43:55.998Z</time></trkpt><trkpt lat="45.64980677331615" lon="11.374749998061597"><ele>239.99999999999997</ele><time>2026-03-26T14:43:57.998Z</time></trkpt><trkpt lat="45.649902233404106" lon="11.374806230109963"><ele>239.0</ele><time>2026-03-26T14:44:00.998Z</time></trkpt><trkpt lat="45.65000358746096" lon="11.374895804225375"><ele>238.0</ele><time>2026-03-26T14:44:02.998Z</time></trkpt><trkpt lat="45.650051561184746" lon="11.374960229301298"><ele>237.0</ele><time>2026-03-26T14:44:03.998Z</time></trkpt><trkpt lat="45.65011090406394" lon="11.375021878086594"><ele>235.99999999999997</ele><time>2026-03-26T14:44:04.998Z</time></trkpt><trkpt lat="45.65017403688979" lon="11.375087464076314"><ele>235.0</ele><time>2026-03-26T14:44:05.998Z</time></trkpt><trkpt lat="45.650375243811695" lon="11.3748942888667"><ele>234.99999999999997</ele><time>2026-03-26T14:44:06.998Z</time></trkpt><trkpt lat="45.650466847106344" lon="11.374920980112622"><ele>235.0</ele><time>2026-03-26T14:44:07.998Z</time></trkpt><trkpt lat="45.65053276813663" lon="11.374945572296477"><ele>235.0</ele><time>2026-03-26T14:44:08.998Z</time></trkpt><trkpt lat="45.65061143141788" lon="11.374974747491711"><ele>235.0</ele><time>2026-03-26T14:44:09.998Z</time></trkpt><trkpt lat="45.65068487499378" lon="11.375025018989113"><ele>234.99999999999997</ele><time>2026-03-26T14:44:10.998Z</time></trkpt><trkpt lat="45.65077091711311" lon="11.375091683530378"><ele>235.0</ele><time>2026-03-26T14:44:11.998Z</time></trkpt><trkpt lat="45.65083849846713" lon="11.375143294206667"><ele>235.0</ele><time>2026-03-26T14:44:12.998Z</time></trkpt><trkpt lat="45.65090828417273" lon="11.375216959164085"><ele>235.0</ele><time>2026-03-26T14:44:13.998Z</time></trkpt><trkpt lat="45.65096780882548" lon="11.37529394633743"><ele>235.0</ele><time>2026-03-26T14:44:14.998Z</time></trkpt><trkpt lat="45.65103576012231" lon="11.375357359526054"><ele>235.0</ele><time>2026-03-26T14:44:15.998Z</time></trkpt><trkpt lat="45.65116233558117" lon="11.37542634562609"><ele>235.0</ele><time>2026-03-26T14:44:17.998Z</time></trkpt><trkpt lat="45.651258723477426" lon="11.375458982097634"><ele>236.0</ele><time>2026-03-26T14:44:18.998Z</time></trkpt><trkpt lat="45.65135402638732" lon="11.375510601367884"><ele>237.0</ele><time>2026-03-26T14:44:19.998Z</time></trkpt><trkpt lat="45.65143223830671" lon="11.375541348862471"><ele>238.0</ele><time>2026-03-26T14:44:20.998Z</time></trkpt><trkpt lat="45.65149683323101" lon="11.375569139081321"><ele>239.0</ele><time>2026-03-26T14:44:21.998Z</time></trkpt><trkpt lat="45.65159771261042" lon="11.375624388849154"><ele>240.0</ele><time>2026-03-26T14:44:23.997Z</time></trkpt><trkpt lat="45.65170819509407" lon="11.37580123349527"><ele>238.5</ele><time>2026-03-26T14:44:25.997Z</time></trkpt><trkpt lat="45.65173237907755" lon="11.375907062591255"><ele>237.0</ele><time>2026-03-26T14:44:26.997Z</time></trkpt><trkpt lat="45.651722511291446" lon="11.376009070400501"><ele>235.5</ele><time>2026-03-26T14:44:27.997Z</time></trkpt><trkpt lat="45.65177345322377" lon="11.376071666845212"><ele>234.0</ele><time>2026-03-26T14:44:29.997Z</time></trkpt><trkpt lat="45.65183676915722" lon="11.376085315204028"><ele>232.5</ele><time>2026-03-26T14:44:30.997Z</time></trkpt><trkpt lat="45.651961280040865" lon="11.376091258173334"><ele>231.0</ele><time>2026-03-26T14:44:32.997Z</time></trkpt><trkpt lat="45.65203950112894" lon="11.376141441156788"><ele>231.0</ele><time>2026-03-26T14:44:33.997Z</time></trkpt><trkpt lat="45.65213405207575" lon="11.376222329850627"><ele>231.00000000000003</ele><time>2026-03-26T14:44:35.997Z</time></trkpt><trkpt lat="45.65220171882878" lon="11.376289776461206"><ele>231.00000000000003</ele><time>2026-03-26T14:44:38Z</time></trkpt><trkpt lat="45.6522877753958" lon="11.376253465738033"><ele>231.0</ele><time>2026-03-26T14:44:40Z</time></trkpt><trkpt lat="45.65236893144102" lon="11.376199924224357"><ele>231.0</ele><time>2026-03-26T14:44:45Z</time></trkpt><trkpt lat="45.65248320620534" lon="11.376166005347372"><ele>231.0</ele><time>2026-03-26T14:44:47Z</time></trkpt><trkpt lat="45.652555377440464" lon="11.37615189524076"><ele>231.0</ele><time>2026-03-26T14:44:48Z</time></trkpt><trkpt lat="45.65263279220813" lon="11.376134170609811"><ele>231.0</ele><time>2026-03-26T14:44:49Z</time></trkpt><trkpt lat="45.652713310454665" lon="11.376136095130846"><ele>231.0</ele><time>2026-03-26T14:44:50Z</time></trkpt><trkpt lat="45.652782463110945" lon="11.376119877779612"><ele>231.0</ele><time>2026-03-26T14:44:52Z</time></trkpt><trkpt lat="45.65284849136181" lon="11.376107161548731"><ele>231.0</ele><time>2026-03-26T14:45:09Z</time></trkpt><trkpt lat="45.65278489809682" lon="11.376110178375713"><ele>231.0</ele><time>2026-03-26T14:45:13.999Z</time></trkpt><trkpt lat="45.65266623850022" lon="11.376146204299348"><ele>231.0</ele><time>2026-03-26T14:45:15.999Z</time></trkpt><trkpt lat="45.6525679026767" lon="11.376145065456203"><ele>231.0</ele><time>2026-03-26T14:45:17.999Z</time></trkpt><trkpt lat="45.65247401103542" lon="11.37615274667861"><ele>231.0</ele><time>2026-03-26T14:45:19.999Z</time></trkpt><trkpt lat="45.65238868621355" lon="11.37619721564681"><ele>231.0</ele><time>2026-03-26T14:45:21.999Z</time></trkpt><trkpt lat="45.652334228393904" lon="11.376249251968236"><ele>231.0</ele><time>2026-03-26T14:45:24.999Z</time></trkpt><trkpt lat="45.65236910861329" lon="11.376164078143882"><ele>231.0</ele><time>2026-03-26T14:45:49.999Z</time></trkpt><trkpt lat="45.65232836738639" lon="11.37584786914428"><ele>231.0</ele><time>2026-03-26T14:45:51.999Z</time></trkpt><trkpt lat="45.65231926787889" lon="11.375718661962065"><ele>231.0</ele><time>2026-03-26T14:45:53.999Z</time></trkpt><trkpt lat="45.65233322407477" lon="11.375630809513735"><ele>231.0</ele><time>2026-03-26T14:45:55.998Z</time></trkpt><trkpt lat="45.65232682039046" lon="11.375531630377834"><ele>231.0</ele><time>2026-03-26T14:45:57.998Z</time></trkpt><trkpt lat="45.65229002567583" lon="11.375420747265279"><ele>231.0</ele><time>2026-03-26T14:45:59.998Z</time></trkpt><trkpt lat="45.65228553014427" lon="11.375312167975638"><ele>231.0</ele><time>2026-03-26T14:46:01.998Z</time></trkpt><trkpt lat="45.65228582311294" lon="11.375190932262175"><ele>233.0</ele><time>2026-03-26T14:46:03.998Z</time></trkpt><trkpt lat="45.652280740191436" lon="11.375077064237436"><ele>235.0</ele><time>2026-03-26T14:46:05.998Z</time></trkpt><trkpt lat="45.652269303687234" lon="11.374943996698844"><ele>237.0</ele><time>2026-03-26T14:46:07.998Z</time></trkpt><trkpt lat="45.6522715204227" lon="11.374824460203595"><ele>239.0</ele><time>2026-03-26T14:46:09.998Z</time></trkpt><trkpt lat="45.65228141140337" lon="11.374728359888591"><ele>241.0</ele><time>2026-03-26T14:46:19.998Z</time></trkpt><trkpt lat="45.652251950707964" lon="11.374565433648211"><ele>243.0</ele><time>2026-03-26T14:46:21.998Z</time></trkpt><trkpt lat="45.652230804582146" lon="11.374471766304326"><ele>245.0</ele><time>2026-03-26T14:46:22.998Z</time></trkpt><trkpt lat="45.6522069166006" lon="11.37438213653903"><ele>247.0</ele><time>2026-03-26T14:46:23.998Z</time></trkpt><trkpt lat="45.652187399844486" lon="11.37429448382562"><ele>249.0</ele><time>2026-03-26T14:46:24.998Z</time></trkpt><trkpt lat="45.6521526575758" lon="11.374117211143826"><ele>251.0</ele><time>2026-03-26T14:46:26.998Z</time></trkpt><trkpt lat="45.65213152056891" lon="11.374010260031751"><ele>253.0</ele><time>2026-03-26T14:46:27.998Z</time></trkpt><trkpt lat="45.652109352262244" lon="11.37389855080723"><ele>255.0</ele><time>2026-03-26T14:46:28.998Z</time></trkpt><trkpt lat="45.652088003680845" lon="11.373765551801446"><ele>256.5</ele><time>2026-03-26T14:46:29.998Z</time></trkpt><trkpt lat="45.65205932769716" lon="11.373644261658294"><ele>258.0</ele><time>2026-03-26T14:46:30.998Z</time></trkpt><trkpt lat="45.652041586287915" lon="11.373512958793153"><ele>259.5</ele><time>2026-03-26T14:46:31.998Z</time></trkpt><trkpt lat="45.65201862806859" lon="11.373394349507802"><ele>261.0</ele><time>2026-03-26T14:46:32.998Z</time></trkpt><trkpt lat="45.65199897066305" lon="11.373269550999582"><ele>262.5</ele><time>2026-03-26T14:46:33.998Z</time></trkpt><trkpt lat="45.65196825241647" lon="11.373173956082658"><ele>264.0</ele><time>2026-03-26T14:46:34.998Z</time></trkpt><trkpt lat="45.651967603680994" lon="11.373014483972083"><ele>265.59999999999997</ele><time>2026-03-26T14:46:36.997Z</time></trkpt><trkpt lat="45.65195192545043" lon="11.372912587113063"><ele>267.2</ele><time>2026-03-26T14:46:37.997Z</time></trkpt><trkpt lat="45.65197641531102" lon="11.372799996057852"><ele>268.79999999999995</ele><time>2026-03-26T14:46:38.997Z</time></trkpt><trkpt lat="45.65202637206719" lon="11.37267487888712"><ele>270.4</ele><time>2026-03-26T14:46:39.997Z</time></trkpt><trkpt lat="45.65204745350603" lon="11.372532833919609"><ele>272.0</ele><time>2026-03-26T14:46:40.997Z</time></trkpt><trkpt lat="45.65207381852685" lon="11.37238839547872"><ele>272.0</ele><time>2026-03-26T14:46:41.997Z</time></trkpt><trkpt lat="45.652100650998634" lon="11.372249287157132"><ele>272.0</ele><time>2026-03-26T14:46:42.997Z</time></trkpt><trkpt lat="45.65213834360022" lon="11.37213946122778"><ele>272.0</ele><time>2026-03-26T14:46:44Z</time></trkpt><trkpt lat="45.65215924868041" lon="11.372015641260129"><ele>272.0</ele><time>2026-03-26T14:46:45Z</time></trkpt><trkpt lat="45.65218172340426" lon="11.37190664384687"><ele>272.0</ele><time>2026-03-26T14:46:46Z</time></trkpt><trkpt lat="45.65220331768169" lon="11.37178445820494"><ele>272.0</ele><time>2026-03-26T14:46:47Z</time></trkpt><trkpt lat="45.65221881229673" lon="11.371666438366663"><ele>274.2</ele><time>2026-03-26T14:47:01Z</time></trkpt><trkpt lat="45.65224193404033" lon="11.371511911290716"><ele>276.4</ele><time>2026-03-26T14:47:03Z</time></trkpt><trkpt lat="45.652273306310796" lon="11.371327426521518"><ele>278.6</ele><time>2026-03-26T14:47:05Z</time></trkpt><trkpt lat="45.65231590776052" lon="11.371198098581143"><ele>280.8</ele><time>2026-03-26T14:47:07Z</time></trkpt><trkpt lat="45.652389900777884" lon="11.37110778904519"><ele>283.0</ele><time>2026-03-26T14:47:09Z</time></trkpt><trkpt lat="45.652449335232006" lon="11.37104879451029"><ele>285.4</ele><time>2026-03-26T14:47:10Z</time></trkpt><trkpt lat="45.652516105947555" lon="11.370983436602396"><ele>287.8</ele><time>2026-03-26T14:47:11Z</time></trkpt><trkpt lat="45.65256939351716" lon="11.370860357171237"><ele>290.2</ele><time>2026-03-26T14:47:12Z</time></trkpt><trkpt lat="45.6526462692094" lon="11.37075725922425"><ele>292.6</ele><time>2026-03-26T14:47:13Z</time></trkpt><trkpt lat="45.65270396762115" lon="11.370698937937831"><ele>295.0</ele><time>2026-03-26T14:47:14Z</time></trkpt><trkpt lat="45.652847816054724" lon="11.370684237269085"><ele>295.0</ele><time>2026-03-26T14:47:16Z</time></trkpt><trkpt lat="45.652927883998025" lon="11.370662056078585"><ele>295.0</ele><time>2026-03-26T14:47:17Z</time></trkpt><trkpt lat="45.65301815412" lon="11.37067325616337"><ele>295.0</ele><time>2026-03-26T14:47:17.999Z</time></trkpt><trkpt lat="45.653100920950195" lon="11.370716115887042"><ele>295.0</ele><time>2026-03-26T14:47:18.999Z</time></trkpt><trkpt lat="45.65319048107083" lon="11.37078226591172"><ele>295.0</ele><time>2026-03-26T14:47:19.999Z</time></trkpt><trkpt lat="45.653288865841766" lon="11.370848212022619"><ele>295.0</ele><time>2026-03-26T14:47:20.999Z</time></trkpt><trkpt lat="45.65339407855534" lon="11.370900142911742"><ele>295.0</ele><time>2026-03-26T14:47:21.999Z</time></trkpt><trkpt lat="45.65349032677646" lon="11.370932409372584"><ele>295.0</ele><time>2026-03-26T14:47:22.999Z</time></trkpt><trkpt lat="45.653572896696836" lon="11.370967954465046"><ele>295.0</ele><time>2026-03-26T14:47:23.999Z</time></trkpt><trkpt lat="45.65364760494414" lon="11.371000689551652"><ele>295.0</ele><time>2026-03-26T14:47:24.999Z</time></trkpt><trkpt lat="45.65371561360631" lon="11.371027498026061"><ele>295.0</ele><time>2026-03-26T14:47:25.999Z</time></trkpt><trkpt lat="45.653796921933214" lon="11.371021513555243"><ele>295.0</ele><time>2026-03-26T14:47:27.999Z</time></trkpt><trkpt lat="45.65386411589883" lon="11.370984436875876"><ele>295.0</ele><time>2026-03-26T14:47:29.999Z</time></trkpt><trkpt lat="45.65391524054413" lon="11.370876567547462"><ele>295.0</ele><time>2026-03-26T14:47:30.999Z</time></trkpt><trkpt lat="45.65395288074684" lon="11.370777483800856"><ele>295.0</ele><time>2026-03-26T14:47:31.999Z</time></trkpt><trkpt lat="45.653934443943506" lon="11.370640414355975"><ele>295.0</ele><time>2026-03-26T14:47:32.999Z</time></trkpt><trkpt lat="45.653943671997766" lon="11.37042053554621"><ele>295.4</ele><time>2026-03-26T14:47:34.999Z</time></trkpt><trkpt lat="45.65399826715329" lon="11.370275805024377"><ele>295.8</ele><time>2026-03-26T14:47:35.999Z</time></trkpt><trkpt lat="45.65404293651401" lon="11.370194539522796"><ele>296.2</ele><time>2026-03-26T14:47:36.999Z</time></trkpt><trkpt lat="45.65410255191424" lon="11.370053857556766"><ele>296.6</ele><time>2026-03-26T14:47:37.999Z</time></trkpt><trkpt lat="45.654156067177205" lon="11.369932094082094"><ele>297.0</ele><time>2026-03-26T14:47:38.999Z</time></trkpt><trkpt lat="45.65419883193776" lon="11.369800220853358"><ele>296.5</ele><time>2026-03-26T14:47:39.999Z</time></trkpt><trkpt lat="45.65419820297626" lon="11.369661264975889"><ele>296.0</ele><time>2026-03-26T14:47:40.999Z</time></trkpt><trkpt lat="45.65417408556207" lon="11.369513821165187"><ele>295.5</ele><time>2026-03-26T14:47:41.999Z</time></trkpt><trkpt lat="45.654126308113995" lon="11.36934143464382"><ele>295.0</ele><time>2026-03-26T14:47:42.999Z</time></trkpt><trkpt lat="45.65407590883068" lon="11.36914192847498"><ele>295.0</ele><time>2026-03-26T14:47:43.999Z</time></trkpt><trkpt lat="45.65404079499099" lon="11.368945647535643"><ele>295.0</ele><time>2026-03-26T14:47:44.999Z</time></trkpt><trkpt lat="45.65400929494537" lon="11.368787313772021"><ele>295.0</ele><time>2026-03-26T14:47:45.999Z</time></trkpt><trkpt lat="45.65398168552395" lon="11.368614468194666"><ele>295.0</ele><time>2026-03-26T14:47:46.999Z</time></trkpt><trkpt lat="45.65395713872583" lon="11.36847497065037"><ele>295.6</ele><time>2026-03-26T14:47:47.999Z</time></trkpt><trkpt lat="45.65393421456932" lon="11.368376601355429"><ele>296.2</ele><time>2026-03-26T14:47:48.999Z</time></trkpt><trkpt lat="45.65393888896067" lon="11.368260514353004"><ele>296.8</ele><time>2026-03-26T14:47:50.999Z</time></trkpt><trkpt lat="45.653846103210014" lon="11.36821597206148"><ele>297.4</ele><time>2026-03-26T14:47:52.999Z</time></trkpt><trkpt lat="45.65373275843877" lon="11.368112637557912"><ele>298.0</ele><time>2026-03-26T14:47:54.999Z</time></trkpt><trkpt lat="45.65364687854331" lon="11.368053684245236"><ele>301.6</ele><time>2026-03-26T14:47:55.999Z</time></trkpt><trkpt lat="45.653557142222965" lon="11.36801740159412"><ele>305.20000000000005</ele><time>2026-03-26T14:47:56.999Z</time></trkpt><trkpt lat="45.653448398807534" lon="11.368002386087651"><ele>308.8</ele><time>2026-03-26T14:47:57.998Z</time></trkpt><trkpt lat="45.65333519753905" lon="11.368001166723156"><ele>312.40000000000003</ele><time>2026-03-26T14:47:58.998Z</time></trkpt><trkpt lat="45.65322360914722" lon="11.367998247838996"><ele>316.0</ele><time>2026-03-26T14:47:59.998Z</time></trkpt><trkpt lat="45.653110130439586" lon="11.367963926675975"><ele>316.0</ele><time>2026-03-26T14:48:00.998Z</time></trkpt><trkpt lat="45.652997759478474" lon="11.367940373836586"><ele>316.0</ele><time>2026-03-26T14:48:01.998Z</time></trkpt><trkpt lat="45.652928507111795" lon="11.367932398022198"><ele>316.0</ele><time>2026-03-26T14:48:02.998Z</time></trkpt><trkpt lat="45.652859224102905" lon="11.368011009111594"><ele>316.0</ele><time>2026-03-26T14:48:03.998Z</time></trkpt><trkpt lat="45.65277271449044" lon="11.368078671119743"><ele>316.0</ele><time>2026-03-26T14:48:04.998Z</time></trkpt><trkpt lat="45.65275764712067" lon="11.36825174639868"><ele>317.0</ele><time>2026-03-26T14:48:05.998Z</time></trkpt><trkpt lat="45.65272028470536" lon="11.368396723739131"><ele>318.0</ele><time>2026-03-26T14:48:06.998Z</time></trkpt><trkpt lat="45.65268851407692" lon="11.368503011732253"><ele>319.0</ele><time>2026-03-26T14:48:07.998Z</time></trkpt><trkpt lat="45.65265268661553" lon="11.368589975487813"><ele>320.0</ele><time>2026-03-26T14:48:08.998Z</time></trkpt><trkpt lat="45.65256577887839" lon="11.368665885653954"><ele>321.0</ele><time>2026-03-26T14:48:10.998Z</time></trkpt><trkpt lat="45.65245551868929" lon="11.368662127989683"><ele>321.0</ele><time>2026-03-26T14:48:12.998Z</time></trkpt><trkpt lat="45.65234411616165" lon="11.368589231031493"><ele>321.0</ele><time>2026-03-26T14:48:14.998Z</time></trkpt><trkpt lat="45.652301075554504" lon="11.368462784847043"><ele>321.0</ele><time>2026-03-26T14:48:16.998Z</time></trkpt><trkpt lat="45.65235326787583" lon="11.368321816480018"><ele>321.0</ele><time>2026-03-26T14:48:18.998Z</time></trkpt><trkpt lat="45.652388304724774" lon="11.368238166088654"><ele>321.0</ele><time>2026-03-26T14:48:19.998Z</time></trkpt><trkpt lat="45.652417010132616" lon="11.368136917338218"><ele>321.0</ele><time>2026-03-26T14:48:20.998Z</time></trkpt><trkpt lat="45.65242348235853" lon="11.368030426674542"><ele>321.0</ele><time>2026-03-26T14:48:21.998Z</time></trkpt><trkpt lat="45.65240830897269" lon="11.367921694465311"><ele>321.0</ele><time>2026-03-26T14:48:22.998Z</time></trkpt><trkpt lat="45.65240524226424" lon="11.367806314040187"><ele>321.0</ele><time>2026-03-26T14:48:23.998Z</time></trkpt><trkpt lat="45.652403954877826" lon="11.367684594250912"><ele>321.0</ele><time>2026-03-26T14:48:24.998Z</time></trkpt><trkpt lat="45.65240588374217" lon="11.36759093626753"><ele>321.0</ele><time>2026-03-26T14:48:25.998Z</time></trkpt><trkpt lat="45.65240371636907" lon="11.367447135641353"><ele>322.6666666666667</ele><time>2026-03-26T14:48:26.998Z</time></trkpt><trkpt lat="45.65238125218114" lon="11.367340623074488"><ele>324.3333333333333</ele><time>2026-03-26T14:48:27.998Z</time></trkpt><trkpt lat="45.65232594506685" lon="11.367285452622783"><ele>326.0</ele><time>2026-03-26T14:48:28.998Z</time></trkpt><trkpt lat="45.65225832035975" lon="11.367217804168588"><ele>327.66666666666663</ele><time>2026-03-26T14:48:29.998Z</time></trkpt><trkpt lat="45.65218931187708" lon="11.367150435484383"><ele>329.3333333333333</ele><time>2026-03-26T14:48:30.998Z</time></trkpt><trkpt lat="45.65210269044616" lon="11.367062971228117"><ele>331.0</ele><time>2026-03-26T14:48:31.998Z</time></trkpt><trkpt lat="45.65204507350611" lon="11.366965181259456"><ele>331.6</ele><time>2026-03-26T14:48:32.998Z</time></trkpt><trkpt lat="45.65196455445115" lon="11.366865972961717"><ele>332.20000000000005</ele><time>2026-03-26T14:48:34.998Z</time></trkpt><trkpt lat="45.65193078946773" lon="11.366774288780332"><ele>332.79999999999995</ele><time>2026-03-26T14:48:36.998Z</time></trkpt><trkpt lat="45.65203764366929" lon="11.366653449178918"><ele>333.4</ele><time>2026-03-26T14:48:37.997Z</time></trkpt><trkpt lat="45.65206107376877" lon="11.366568187865619"><ele>334.0</ele><time>2026-03-26T14:48:39.997Z</time></trkpt><trkpt lat="45.65193660389321" lon="11.366559364771778"><ele>334.0</ele><time>2026-03-26T14:48:42.997Z</time></trkpt><trkpt lat="45.65191029185089" lon="11.366438419932612"><ele>334.0</ele><time>2026-03-26T14:48:44.997Z</time></trkpt><trkpt lat="45.65191629916976" lon="11.36634555052109"><ele>334.0</ele><time>2026-03-26T14:48:45.997Z</time></trkpt><trkpt lat="45.651933994415884" lon="11.366233762205043"><ele>334.0</ele><time>2026-03-26T14:48:46.997Z</time></trkpt><trkpt lat="45.6519619269811" lon="11.366132566135516"><ele>334.0</ele><time>2026-03-26T14:48:47.997Z</time></trkpt><trkpt lat="45.651987765988274" lon="11.366019082310947"><ele>334.0</ele><time>2026-03-26T14:48:48.997Z</time></trkpt><trkpt lat="45.6519990535809" lon="11.365910832771627"><ele>336.4</ele><time>2026-03-26T14:48:50Z</time></trkpt><trkpt lat="45.65203091336471" lon="11.365764691217326"><ele>338.79999999999995</ele><time>2026-03-26T14:48:51Z</time></trkpt><trkpt lat="45.65206546700548" lon="11.365610517224905"><ele>341.20000000000005</ele><time>2026-03-26T14:48:52Z</time></trkpt><trkpt lat="45.65210478951422" lon="11.365437812309942"><ele>343.6</ele><time>2026-03-26T14:48:54Z</time></trkpt><trkpt lat="45.652124231307376" lon="11.365333739601946"><ele>346.0</ele><time>2026-03-26T14:48:55Z</time></trkpt><trkpt lat="45.65214662636516" lon="11.365235849584616"><ele>348.5</ele><time>2026-03-26T14:48:56Z</time></trkpt><trkpt lat="45.65217676543511" lon="11.365147219081196"><ele>351.0</ele><time>2026-03-26T14:48:57Z</time></trkpt><trkpt lat="45.652211678418716" lon="11.365063905595013"><ele>353.5</ele><time>2026-03-26T14:48:58Z</time></trkpt><trkpt lat="45.65225800770305" lon="11.36496006372199"><ele>356.0</ele><time>2026-03-26T14:48:59Z</time></trkpt><trkpt lat="45.65228317146685" lon="11.36483188240797"><ele>358.5</ele><time>2026-03-26T14:49:00Z</time></trkpt><trkpt lat="45.65231230790691" lon="11.364702681780669"><ele>361.0</ele><time>2026-03-26T14:49:02Z</time></trkpt><trkpt lat="45.652339846845315" lon="11.364564900659536"><ele>363.16666666666663</ele><time>2026-03-26T14:49:04Z</time></trkpt><trkpt lat="45.65237627724181" lon="11.364432035349846"><ele>365.3333333333333</ele><time>2026-03-26T14:49:05Z</time></trkpt><trkpt lat="45.652416244500586" lon="11.36432185644777"><ele>367.5</ele><time>2026-03-26T14:49:06Z</time></trkpt><trkpt lat="45.65242051277563" lon="11.36422237328244"><ele>369.6666666666667</ele><time>2026-03-26T14:49:07Z</time></trkpt><trkpt lat="45.652419951875004" lon="11.364084233058897"><ele>371.83333333333337</ele><time>2026-03-26T14:49:09Z</time></trkpt><trkpt lat="45.652448578152836" lon="11.3639561269614"><ele>374.0</ele><time>2026-03-26T14:49:11Z</time></trkpt><trkpt lat="45.65243382451367" lon="11.363858395035358"><ele>376.6666666666667</ele><time>2026-03-26T14:49:12Z</time></trkpt><trkpt lat="45.6524262121885" lon="11.36376443442253"><ele>379.33333333333337</ele><time>2026-03-26T14:49:13Z</time></trkpt><trkpt lat="45.65242076787834" lon="11.363654464089372"><ele>382.0</ele><time>2026-03-26T14:49:14Z</time></trkpt><trkpt lat="45.65244905327188" lon="11.363486195244485"><ele>384.6666666666667</ele><time>2026-03-26T14:49:16Z</time></trkpt><trkpt lat="45.65247745358071" lon="11.363392932875273"><ele>387.3333333333333</ele><time>2026-03-26T14:49:17Z</time></trkpt><trkpt lat="45.65248581637776" lon="11.363302775795292"><ele>390.0</ele><time>2026-03-26T14:49:18Z</time></trkpt><trkpt lat="45.65249353949624" lon="11.363186602845268"><ele>390.0</ele><time>2026-03-26T14:49:19Z</time></trkpt><trkpt lat="45.6525192901256" lon="11.363092817280979"><ele>390.0</ele><time>2026-03-26T14:49:20Z</time></trkpt><trkpt lat="45.65256826484082" lon="11.363010776559499"><ele>390.0</ele><time>2026-03-26T14:49:21Z</time></trkpt><trkpt lat="45.65262864946205" lon="11.362961651446804"><ele>390.0</ele><time>2026-03-26T14:49:22Z</time></trkpt><trkpt lat="45.65268470275525" lon="11.362903824943174"><ele>390.0</ele><time>2026-03-26T14:49:23Z</time></trkpt><trkpt lat="45.65283895670815" lon="11.362837610106057"><ele>390.0</ele><time>2026-03-26T14:49:25Z</time></trkpt><trkpt lat="45.652945872028695" lon="11.362713412703359"><ele>392.6</ele><time>2026-03-26T14:49:26.999Z</time></trkpt><trkpt lat="45.65302521610304" lon="11.362636216331513"><ele>395.2</ele><time>2026-03-26T14:49:27.999Z</time></trkpt><trkpt lat="45.65309814159978" lon="11.362503973431808"><ele>397.79999999999995</ele><time>2026-03-26T14:49:28.999Z</time></trkpt><trkpt lat="45.65318110580709" lon="11.362420557062968"><ele>400.4</ele><time>2026-03-26T14:49:29.999Z</time></trkpt><trkpt lat="45.65325319128415" lon="11.362353310857204"><ele>403.0</ele><time>2026-03-26T14:49:30.999Z</time></trkpt><trkpt lat="45.653327961207246" lon="11.36227974299211"><ele>405.33333333333337</ele><time>2026-03-26T14:49:31.999Z</time></trkpt><trkpt lat="45.653380729081334" lon="11.362183672604983"><ele>407.6666666666667</ele><time>2026-03-26T14:49:32.999Z</time></trkpt><trkpt lat="45.653401930674995" lon="11.362079260383373"><ele>410.0</ele><time>2026-03-26T14:49:33.999Z</time></trkpt><trkpt lat="45.65344411093597" lon="11.361946567949364"><ele>412.33333333333337</ele><time>2026-03-26T14:49:34.999Z</time></trkpt><trkpt lat="45.65350133613209" lon="11.361853502020566"><ele>414.6666666666667</ele><time>2026-03-26T14:49:35.999Z</time></trkpt><trkpt lat="45.65356891647005" lon="11.361788650003392"><ele>417.0</ele><time>2026-03-26T14:49:36.999Z</time></trkpt><trkpt lat="45.6536425983814" lon="11.361739278573502"><ele>417.0</ele><time>2026-03-26T14:49:37.999Z</time></trkpt><trkpt lat="45.65375895875046" lon="11.361674665251858"><ele>417.0</ele><time>2026-03-26T14:49:38.999Z</time></trkpt><trkpt lat="45.65383487182814" lon="11.361655906435413"><ele>417.0</ele><time>2026-03-26T14:49:39.999Z</time></trkpt><trkpt lat="45.65391675282447" lon="11.361604164201092"><ele>417.0</ele><time>2026-03-26T14:49:40.999Z</time></trkpt><trkpt lat="45.65401064331325" lon="11.361572693765275"><ele>417.0</ele><time>2026-03-26T14:49:41.999Z</time></trkpt><trkpt lat="45.65408230947135" lon="11.361430172201759"><ele>422.6666666666667</ele><time>2026-03-26T14:49:42.999Z</time></trkpt><trkpt lat="45.6541331532675" lon="11.36129449512612"><ele>428.33333333333337</ele><time>2026-03-26T14:49:43.999Z</time></trkpt><trkpt lat="45.654191286845354" lon="11.361205112708197"><ele>434.0</ele><time>2026-03-26T14:49:44.999Z</time></trkpt><trkpt lat="45.65426062893519" lon="11.361128334500288"><ele>439.6666666666667</ele><time>2026-03-26T14:49:45.999Z</time></trkpt><trkpt lat="45.65432757092431" lon="11.361056170180268"><ele>445.33333333333337</ele><time>2026-03-26T14:49:46.999Z</time></trkpt><trkpt lat="45.654387323522634" lon="11.360971946526854"><ele>451.0</ele><time>2026-03-26T14:49:47.999Z</time></trkpt><trkpt lat="45.654430134540014" lon="11.360852952246532"><ele>453.00000000000006</ele><time>2026-03-26T14:49:48.999Z</time></trkpt><trkpt lat="45.654480581907706" lon="11.36077913897365"><ele>455.0</ele><time>2026-03-26T14:49:49.999Z</time></trkpt><trkpt lat="45.654493754000534" lon="11.360673779935873"><ele>457.0</ele><time>2026-03-26T14:49:50.999Z</time></trkpt><trkpt lat="45.654497339283" lon="11.360553030198485"><ele>459.0</ele><time>2026-03-26T14:49:51.999Z</time></trkpt><trkpt lat="45.65448511015948" lon="11.360455583173596"><ele>461.00000000000006</ele><time>2026-03-26T14:49:52.999Z</time></trkpt><trkpt lat="45.654433368881236" lon="11.360310081481694"><ele>463.0</ele><time>2026-03-26T14:49:54.999Z</time></trkpt><trkpt lat="45.65440215449813" lon="11.360225529711606"><ele>463.0</ele><time>2026-03-26T14:49:55.999Z</time></trkpt><trkpt lat="45.65437986420592" lon="11.360140156010592"><ele>462.99999999999994</ele><time>2026-03-26T14:49:57.999Z</time></trkpt><trkpt lat="45.65434133556319" lon="11.360054788762568"><ele>463.0</ele><time>2026-03-26T14:51:07Z</time></trkpt><trkpt lat="45.65429622622886" lon="11.3599857141353"><ele>463.0</ele><time>2026-03-26T14:51:09Z</time></trkpt><trkpt lat="45.65421872940969" lon="11.359917791815406"><ele>462.99999999999994</ele><time>2026-03-26T14:51:11Z</time></trkpt><trkpt lat="45.65416543685561" lon="11.359842091398606"><ele>463.0</ele><time>2026-03-26T14:51:13Z</time></trkpt><trkpt lat="45.654209218616906" lon="11.359751135446427"><ele>463.0</ele><time>2026-03-26T14:51:20Z</time></trkpt><trkpt lat="45.65424128701815" lon="11.359648500071648"><ele>461.85714285714283</ele><time>2026-03-26T14:51:30Z</time></trkpt><trkpt lat="45.65426706867184" lon="11.35956600745245"><ele>460.71428571428567</ele><time>2026-03-26T14:51:38.999Z</time></trkpt><trkpt lat="45.654258388765726" lon="11.359467743586164"><ele>459.57142857142856</ele><time>2026-03-26T14:51:52.999Z</time></trkpt><trkpt lat="45.65430311452172" lon="11.359402095603345"><ele>458.42857142857144</ele><time>2026-03-26T14:52:16.998Z</time></trkpt><trkpt lat="45.65423951948641" lon="11.359407139671546"><ele>457.2857142857143</ele><time>2026-03-26T14:52:50.997Z</time></trkpt><trkpt lat="45.65420044410091" lon="11.359323313823898"><ele>456.1428571428571</ele><time>2026-03-26T14:53:10Z</time></trkpt><trkpt lat="45.65415982913984" lon="11.359252949071154"><ele>455.0</ele><time>2026-03-26T14:53:12Z</time></trkpt><trkpt lat="45.65409847896534" lon="11.359141646890397"><ele>454.99999999999994</ele><time>2026-03-26T14:53:14Z</time></trkpt><trkpt lat="45.6540340416763" lon="11.359021501364598"><ele>455.0</ele><time>2026-03-26T14:53:16Z</time></trkpt><trkpt lat="45.653984767165234" lon="11.35893193505347"><ele>455.0</ele><time>2026-03-26T14:53:18Z</time></trkpt><trkpt lat="45.65392837616101" lon="11.358887195299308"><ele>455.0</ele><time>2026-03-26T14:53:19Z</time></trkpt><trkpt lat="45.65385341811783" lon="11.358791201010632"><ele>454.99999999999994</ele><time>2026-03-26T14:53:21Z</time></trkpt><trkpt lat="45.653826315319385" lon="11.358678877245472"><ele>455.0</ele><time>2026-03-26T14:53:23Z</time></trkpt><trkpt lat="45.65380358927231" lon="11.358588516484344"><ele>456.16666666666663</ele><time>2026-03-26T14:53:25Z</time></trkpt><trkpt lat="45.65375772006671" lon="11.358515100611285"><ele>457.3333333333333</ele><time>2026-03-26T14:53:51.999Z</time></trkpt><trkpt lat="45.65370403101117" lon="11.358437088261395"><ele>458.5</ele><time>2026-03-26T14:53:54.999Z</time></trkpt><trkpt lat="45.65370964550135" lon="11.358333590001465"><ele>459.66666666666663</ele><time>2026-03-26T14:53:57.999Z</time></trkpt><trkpt lat="45.65363528484897" lon="11.358249395436435"><ele>460.8333333333333</ele><time>2026-03-26T14:54:06.999Z</time></trkpt><trkpt lat="45.653663267371144" lon="11.358336591199404"><ele>462.0</ele><time>2026-03-26T14:54:52.998Z</time></trkpt><trkpt lat="45.65358555991151" lon="11.358256360996872"><ele>462.0</ele><time>2026-03-26T14:55:55.998Z</time></trkpt><trkpt lat="45.6535263973901" lon="11.358211033178263"><ele>462.0</ele><time>2026-03-26T14:56:08.998Z</time></trkpt><trkpt lat="45.653506942260414" lon="11.3581212454796"><ele>462.0</ele><time>2026-03-26T14:56:27.998Z</time></trkpt><trkpt lat="45.6535800571295" lon="11.358049476669837"><ele>462.0</ele><time>2026-03-26T14:57:29Z</time></trkpt><trkpt lat="45.65351786148502" lon="11.357991892958033"><ele>462.0</ele><time>2026-03-26T14:58:08.999Z</time></trkpt><trkpt lat="45.653454648339974" lon="11.35794439465632"><ele>462.0</ele><time>2026-03-26T14:58:15.999Z</time></trkpt><trkpt lat="45.65340150906888" lon="11.357895803790612"><ele>462.0</ele><time>2026-03-26T14:58:19.999Z</time></trkpt><trkpt lat="45.6533270989978" lon="11.357836061720812"><ele>458.8333333333333</ele><time>2026-03-26T14:58:22.999Z</time></trkpt><trkpt lat="45.65327314892269" lon="11.357777892873541"><ele>455.66666666666663</ele><time>2026-03-26T14:58:24.999Z</time></trkpt><trkpt lat="45.65321267407796" lon="11.35766836414889"><ele>452.5</ele><time>2026-03-26T14:58:26.998Z</time></trkpt><trkpt lat="45.653154557850534" lon="11.357606744173712"><ele>449.3333333333333</ele><time>2026-03-26T14:58:30.998Z</time></trkpt><trkpt lat="45.653224534038515" lon="11.357496031313213"><ele>446.16666666666663</ele><time>2026-03-26T14:58:33.998Z</time></trkpt><trkpt lat="45.65332093693658" lon="11.357458700642784"><ele>443.0</ele><time>2026-03-26T14:58:38.998Z</time></trkpt><trkpt lat="45.65347664386543" lon="11.357406150394516"><ele>443.0</ele><time>2026-03-26T14:58:40.998Z</time></trkpt><trkpt lat="45.65360948069471" lon="11.357313099420963"><ele>443.0</ele><time>2026-03-26T14:58:41.998Z</time></trkpt><trkpt lat="45.65374143064267" lon="11.357275043813944"><ele>443.0</ele><time>2026-03-26T14:58:42.998Z</time></trkpt><trkpt lat="45.653828319703045" lon="11.357212523743671"><ele>443.0</ele><time>2026-03-26T14:58:43.998Z</time></trkpt><trkpt lat="45.653909244448386" lon="11.357163021479009"><ele>445.66666666666663</ele><time>2026-03-26T14:58:44.998Z</time></trkpt><trkpt lat="45.65397895893927" lon="11.35713333233664"><ele>448.3333333333333</ele><time>2026-03-26T14:58:45.998Z</time></trkpt><trkpt lat="45.65406630964117" lon="11.357096445837309"><ele>451.0</ele><time>2026-03-26T14:58:46.998Z</time></trkpt><trkpt lat="45.65416462633555" lon="11.357069939100704"><ele>453.66666666666663</ele><time>2026-03-26T14:58:47.998Z</time></trkpt><trkpt lat="45.654235044117094" lon="11.357031803015483"><ele>456.3333333333333</ele><time>2026-03-26T14:58:48.998Z</time></trkpt><trkpt lat="45.6543312623831" lon="11.35700929984751"><ele>459.0</ele><time>2026-03-26T14:58:49.998Z</time></trkpt><trkpt lat="45.65441440924579" lon="11.356990106695743"><ele>455.4</ele><time>2026-03-26T14:58:50.998Z</time></trkpt><trkpt lat="45.65447836077553" lon="11.356957215649567"><ele>451.79999999999995</ele><time>2026-03-26T14:58:51.998Z</time></trkpt><trkpt lat="45.65461072683259" lon="11.356864645803249"><ele>448.20000000000005</ele><time>2026-03-26T14:58:53.998Z</time></trkpt><trkpt lat="45.654690846362314" lon="11.356829817782431"><ele>444.6</ele><time>2026-03-26T14:58:54.998Z</time></trkpt><trkpt lat="45.654769292077724" lon="11.356791744632838"><ele>441.0</ele><time>2026-03-26T14:58:55.998Z</time></trkpt><trkpt lat="45.654850111929335" lon="11.356766860547594"><ele>441.0</ele><time>2026-03-26T14:58:56.998Z</time></trkpt><trkpt lat="45.6549190858108" lon="11.356739796600726"><ele>441.0</ele><time>2026-03-26T14:58:57.998Z</time></trkpt><trkpt lat="45.65500006312689" lon="11.356729545143528"><ele>441.0</ele><time>2026-03-26T14:58:59.998Z</time></trkpt><trkpt lat="45.65506089263843" lon="11.356696204891524"><ele>441.0</ele><time>2026-03-26T14:59:02.997Z</time></trkpt><trkpt lat="45.655122643015694" lon="11.356611345748732"><ele>441.0</ele><time>2026-03-26T14:59:04.997Z</time></trkpt><trkpt lat="45.65515391274984" lon="11.356493936365007"><ele>441.0</ele><time>2026-03-26T14:59:05.997Z</time></trkpt><trkpt lat="45.65519118040954" lon="11.35637860239373"><ele>438.8333333333333</ele><time>2026-03-26T14:59:06.997Z</time></trkpt><trkpt lat="45.65525436895201" lon="11.356265841786971"><ele>436.66666666666663</ele><time>2026-03-26T14:59:07.997Z</time></trkpt><trkpt lat="45.65529631840753" lon="11.356188309070877"><ele>434.5</ele><time>2026-03-26T14:59:08.997Z</time></trkpt><trkpt lat="45.655296739176634" lon="11.356050312695825"><ele>432.3333333333333</ele><time>2026-03-26T14:59:09.997Z</time></trkpt><trkpt lat="45.65530530474844" lon="11.355910903516081"><ele>430.16666666666663</ele><time>2026-03-26T14:59:10.997Z</time></trkpt><trkpt lat="45.65531094158052" lon="11.355803150981592"><ele>428.0</ele><time>2026-03-26T14:59:11.997Z</time></trkpt><trkpt lat="45.65530021788309" lon="11.355674224569013"><ele>428.0</ele><time>2026-03-26T14:59:12.997Z</time></trkpt><trkpt lat="45.65529152588528" lon="11.355564926259682"><ele>427.99999999999994</ele><time>2026-03-26T14:59:13.997Z</time></trkpt><trkpt lat="45.65531182827567" lon="11.355419331005644"><ele>427.99999999999994</ele><time>2026-03-26T14:59:15.997Z</time></trkpt><trkpt lat="45.65531676041254" lon="11.35531356231498"><ele>428.0</ele><time>2026-03-26T14:59:16.997Z</time></trkpt><trkpt lat="45.6552749827914" lon="11.355136625720863"><ele>428.0</ele><time>2026-03-26T14:59:17.997Z</time></trkpt><trkpt lat="45.655265039072724" lon="11.35501893298495"><ele>430.79999999999995</ele><time>2026-03-26T14:59:18.997Z</time></trkpt><trkpt lat="45.65527585121229" lon="11.354897677993325"><ele>433.59999999999997</ele><time>2026-03-26T14:59:21Z</time></trkpt><trkpt lat="45.65538228322853" lon="11.354879483572242"><ele>436.40000000000003</ele><time>2026-03-26T14:59:23Z</time></trkpt><trkpt lat="45.65553329202175" lon="11.354982811365518"><ele>439.20000000000005</ele><time>2026-03-26T14:59:25Z</time></trkpt><trkpt lat="45.65559046248671" lon="11.355059984705417"><ele>442.0</ele><time>2026-03-26T14:59:26Z</time></trkpt><trkpt lat="45.65566595420362" lon="11.355041397098812"><ele>442.00000000000006</ele><time>2026-03-26T14:59:27Z</time></trkpt><trkpt lat="45.65572854913376" lon="11.354999186569406"><ele>442.0</ele><time>2026-03-26T14:59:28Z</time></trkpt><trkpt lat="45.65577659519649" lon="11.354932860784357"><ele>442.0</ele><time>2026-03-26T14:59:29Z</time></trkpt><trkpt lat="45.655824722425855" lon="11.35486475065253"><ele>442.0</ele><time>2026-03-26T14:59:30Z</time></trkpt><trkpt lat="45.655885446339965" lon="11.354800298798672"><ele>442.00000000000006</ele><time>2026-03-26T14:59:31Z</time></trkpt><trkpt lat="45.65595706236074" lon="11.354806389537746"><ele>442.0</ele><time>2026-03-26T14:59:32Z</time></trkpt><trkpt lat="45.65604735038972" lon="11.354872662932603"><ele>439.83333333333337</ele><time>2026-03-26T14:59:33Z</time></trkpt><trkpt lat="45.65615717933089" lon="11.354970228351029"><ele>437.6666666666667</ele><time>2026-03-26T14:59:34Z</time></trkpt><trkpt lat="45.65622756106483" lon="11.355000374028414"><ele>435.5</ele><time>2026-03-26T14:59:35Z</time></trkpt><trkpt lat="45.65630955964283" lon="11.35496655793391"><ele>433.33333333333337</ele><time>2026-03-26T14:59:37Z</time></trkpt><trkpt lat="45.65638197996652" lon="11.354943467124412"><ele>431.1666666666667</ele><time>2026-03-26T14:59:39Z</time></trkpt><trkpt lat="45.65644554521068" lon="11.354917124678119"><ele>429.0</ele><time>2026-03-26T14:59:40Z</time></trkpt><trkpt lat="45.6565528850436" lon="11.35483690142784"><ele>429.0</ele><time>2026-03-26T14:59:42Z</time></trkpt><trkpt lat="45.65663014721575" lon="11.354831354056264"><ele>429.0</ele><time>2026-03-26T14:59:43Z</time></trkpt><trkpt lat="45.656715032307424" lon="11.354826131946"><ele>429.0</ele><time>2026-03-26T14:59:44Z</time></trkpt><trkpt lat="45.65681080068358" lon="11.354774284551617"><ele>429.0</ele><time>2026-03-26T14:59:45Z</time></trkpt><trkpt lat="45.656879718272016" lon="11.354730064751976"><ele>429.0</ele><time>2026-03-26T14:59:46Z</time></trkpt><trkpt lat="45.65701043607254" lon="11.354727166296781"><ele>426.79999999999995</ele><time>2026-03-26T14:59:48Z</time></trkpt><trkpt lat="45.657102528135496" lon="11.35472827940068"><ele>424.59999999999997</ele><time>2026-03-26T14:59:49Z</time></trkpt><trkpt lat="45.65722774427868" lon="11.354755330724766"><ele>422.4</ele><time>2026-03-26T14:59:50Z</time></trkpt><trkpt lat="45.65735306349032" lon="11.354744328450792"><ele>420.2</ele><time>2026-03-26T14:59:51.999Z</time></trkpt><trkpt lat="45.65742639448544" lon="11.354755473929082"><ele>418.0</ele><time>2026-03-26T14:59:52.999Z</time></trkpt><trkpt lat="45.657501845138015" lon="11.354753398235284"><ele>418.00000000000006</ele><time>2026-03-26T14:59:53.999Z</time></trkpt><trkpt lat="45.65756398228569" lon="11.354738027275275"><ele>418.0</ele><time>2026-03-26T14:59:54.999Z</time></trkpt><trkpt lat="45.6576740263274" lon="11.354756141305131"><ele>418.0</ele><time>2026-03-26T14:59:56.999Z</time></trkpt><trkpt lat="45.657785415376715" lon="11.35471812142504"><ele>418.0</ele><time>2026-03-26T14:59:58.999Z</time></trkpt><trkpt lat="45.65784629521223" lon="11.354632442688336"><ele>418.00000000000006</ele><time>2026-03-26T14:59:59.999Z</time></trkpt><trkpt lat="45.65791920468117" lon="11.354616193938416"><ele>418.0</ele><time>2026-03-26T15:00:00.999Z</time></trkpt><trkpt lat="45.65800512983372" lon="11.354592518175055"><ele>418.0</ele><time>2026-03-26T15:00:01.999Z</time></trkpt><trkpt lat="45.65809229416705" lon="11.354570750861326"><ele>418.0</ele><time>2026-03-26T15:00:02.999Z</time></trkpt><trkpt lat="45.6581746959028" lon="11.3545405646881"><ele>418.0</ele><time>2026-03-26T15:00:03.999Z</time></trkpt><trkpt lat="45.658256971569394" lon="11.354495153851111"><ele>418.0</ele><time>2026-03-26T15:00:04.999Z</time></trkpt><trkpt lat="45.658361801802855" lon="11.354410108067755"><ele>418.0</ele><time>2026-03-26T15:00:06.999Z</time></trkpt><trkpt lat="45.65842976463696" lon="11.354390051762032"><ele>418.0</ele><time>2026-03-26T15:00:08.999Z</time></trkpt><trkpt lat="45.6583679731325" lon="11.354280216565016"><ele>418.0</ele><time>2026-03-26T15:00:11.999Z</time></trkpt><trkpt lat="45.65830026691262" lon="11.354139284526427"><ele>418.0</ele><time>2026-03-26T15:00:13.999Z</time></trkpt><trkpt lat="45.65824726258842" lon="11.353974385456024"><ele>418.0</ele><time>2026-03-26T15:00:15.999Z</time></trkpt><trkpt lat="45.65822414776692" lon="11.353878665089667"><ele>418.0</ele><time>2026-03-26T15:00:16.999Z</time></trkpt><trkpt lat="45.65819320531078" lon="11.353772346506242"><ele>420.00000000000006</ele><time>2026-03-26T15:00:17.999Z</time></trkpt><trkpt lat="45.65815282783677" lon="11.353689009121915"><ele>422.0</ele><time>2026-03-26T15:00:18.999Z</time></trkpt><trkpt lat="45.65805543706054" lon="11.353628916846649"><ele>424.0</ele><time>2026-03-26T15:00:20.999Z</time></trkpt><trkpt lat="45.6579489559058" lon="11.35365458798967"><ele>426.0</ele><time>2026-03-26T15:00:22.999Z</time></trkpt><trkpt lat="45.65787373890764" lon="11.353632743220968"><ele>428.00000000000006</ele><time>2026-03-26T15:00:24.999Z</time></trkpt><trkpt lat="45.65782822270696" lon="11.35355475025465"><ele>430.0</ele><time>2026-03-26T15:00:32.998Z</time></trkpt><trkpt lat="45.65791454553776" lon="11.353605311924767"><ele>430.00000000000006</ele><time>2026-03-26T15:00:36.998Z</time></trkpt><trkpt lat="45.65787184507053" lon="11.353691943110201"><ele>430.0</ele><time>2026-03-26T15:00:38.998Z</time></trkpt><trkpt lat="45.65780029058915" lon="11.353709232902998"><ele>430.0</ele><time>2026-03-26T15:00:40.998Z</time></trkpt><trkpt lat="45.65772113499866" lon="11.353594298726614"><ele>430.0</ele><time>2026-03-26T15:00:42.998Z</time></trkpt><trkpt lat="45.65767076893123" lon="11.353536240823525"><ele>430.00000000000006</ele><time>2026-03-26T15:00:43.998Z</time></trkpt><trkpt lat="45.65761463869893" lon="11.353463618270816"><ele>430.0</ele><time>2026-03-26T15:00:44.998Z</time></trkpt><trkpt lat="45.657558026328516" lon="11.353374336262164"><ele>433.6666666666667</ele><time>2026-03-26T15:00:45.998Z</time></trkpt><trkpt lat="45.65750962061091" lon="11.353300691910029"><ele>437.33333333333337</ele><time>2026-03-26T15:00:46.998Z</time></trkpt><trkpt lat="45.65747360790294" lon="11.353192568052572"><ele>441.0</ele><time>2026-03-26T15:00:48.998Z</time></trkpt><trkpt lat="45.65744765815596" lon="11.35310736716292"><ele>444.66666666666663</ele><time>2026-03-26T15:00:50.998Z</time></trkpt><trkpt lat="45.65744626105642" lon="11.35297672265678"><ele>448.3333333333333</ele><time>2026-03-26T15:00:51.998Z</time></trkpt><trkpt lat="45.657407948843016" lon="11.35284142439315"><ele>452.0</ele><time>2026-03-26T15:00:53.998Z</time></trkpt><trkpt lat="45.657392440332394" lon="11.352693272617584"><ele>455.6</ele><time>2026-03-26T15:00:55.998Z</time></trkpt><trkpt lat="45.65735969830658" lon="11.352510694533045"><ele>459.20000000000005</ele><time>2026-03-26T15:00:57.998Z</time></trkpt><trkpt lat="45.65734155195623" lon="11.352398631532836"><ele>462.8</ele><time>2026-03-26T15:00:58.998Z</time></trkpt><trkpt lat="45.65733585480602" lon="11.352265706405479"><ele>466.4</ele><time>2026-03-26T15:00:59.998Z</time></trkpt><trkpt lat="45.6573558932042" lon="11.352087066216335"><ele>470.0</ele><time>2026-03-26T15:01:00.998Z</time></trkpt><trkpt lat="45.657398436535644" lon="11.351996898750407"><ele>471.4285714285714</ele><time>2026-03-26T15:01:01.998Z</time></trkpt><trkpt lat="45.65742639962988" lon="11.35191015435869"><ele>472.8571428571428</ele><time>2026-03-26T15:01:03.998Z</time></trkpt><trkpt lat="45.65744932012896" lon="11.351789422994667"><ele>474.2857142857143</ele><time>2026-03-26T15:01:07.997Z</time></trkpt><trkpt lat="45.6574852224437" lon="11.351714877041994"><ele>475.71428571428567</ele><time>2026-03-26T15:01:22.997Z</time></trkpt><trkpt lat="45.657484194969655" lon="11.351603518286824"><ele>477.1428571428571</ele><time>2026-03-26T15:01:30Z</time></trkpt><trkpt lat="45.65753877406219" lon="11.351542050918804"><ele>478.57142857142856</ele><time>2026-03-26T15:01:33Z</time></trkpt><trkpt lat="45.6576123053453" lon="11.351496820090768"><ele>480.0</ele><time>2026-03-26T15:01:35Z</time></trkpt><trkpt lat="45.6576738168761" lon="11.3514288977257"><ele>481.8</ele><time>2026-03-26T15:01:36Z</time></trkpt><trkpt lat="45.65772812695076" lon="11.351356340902525"><ele>483.6</ele><time>2026-03-26T15:01:37Z</time></trkpt><trkpt lat="45.657792185740725" lon="11.351314763080186"><ele>485.4</ele><time>2026-03-26T15:01:38Z</time></trkpt><trkpt lat="45.65780241120528" lon="11.351225881952237"><ele>487.2</ele><time>2026-03-26T15:01:39Z</time></trkpt><trkpt lat="45.65789040129705" lon="11.351051057589848"><ele>489.0</ele><time>2026-03-26T15:01:41Z</time></trkpt><trkpt lat="45.6579499025196" lon="11.350912865638483"><ele>484.25</ele><time>2026-03-26T15:01:42Z</time></trkpt><trkpt lat="45.65802195641646" lon="11.350728533391758"><ele>479.5</ele><time>2026-03-26T15:01:43Z</time></trkpt><trkpt lat="45.65809641779896" lon="11.350551415999409"><ele>474.75</ele><time>2026-03-26T15:01:44Z</time></trkpt><trkpt lat="45.658162048258326" lon="11.350398772078622"><ele>470.0</ele><time>2026-03-26T15:01:45Z</time></trkpt><trkpt lat="45.65820593258296" lon="11.350246935391322"><ele>470.0</ele><time>2026-03-26T15:01:46Z</time></trkpt><trkpt lat="45.65825074861566" lon="11.350107438208818"><ele>470.0</ele><time>2026-03-26T15:01:47Z</time></trkpt><trkpt lat="45.65829950576358" lon="11.349973529888553"><ele>470.0</ele><time>2026-03-26T15:01:48Z</time></trkpt><trkpt lat="45.658342762384144" lon="11.34985919728578"><ele>470.0</ele><time>2026-03-26T15:01:49Z</time></trkpt><trkpt lat="45.658432045757394" lon="11.349678861004081"><ele>473.5</ele><time>2026-03-26T15:01:50Z</time></trkpt><trkpt lat="45.65848688893255" lon="11.349495491830377"><ele>477.0</ele><time>2026-03-26T15:01:51Z</time></trkpt><trkpt lat="45.65853225906931" lon="11.34932271224588"><ele>480.5</ele><time>2026-03-26T15:01:52Z</time></trkpt><trkpt lat="45.65858173376848" lon="11.349161621536487"><ele>484.0</ele><time>2026-03-26T15:01:53Z</time></trkpt><trkpt lat="45.658607955725245" lon="11.349017026036314"><ele>479.50000000000006</ele><time>2026-03-26T15:01:54Z</time></trkpt><trkpt lat="45.658643300746895" lon="11.348905017387516"><ele>475.0</ele><time>2026-03-26T15:01:55Z</time></trkpt><trkpt lat="45.658681606024054" lon="11.348818290844108"><ele>470.5</ele><time>2026-03-26T15:01:56Z</time></trkpt><trkpt lat="45.65874082291196" lon="11.348729515082391"><ele>466.0</ele><time>2026-03-26T15:01:56.999Z</time></trkpt><trkpt lat="45.658801167816655" lon="11.34866613490636"><ele>461.50000000000006</ele><time>2026-03-26T15:01:57.999Z</time></trkpt><trkpt lat="45.658884615770596" lon="11.34859356609084"><ele>457.0</ele><time>2026-03-26T15:01:58.999Z</time></trkpt><trkpt lat="45.658937704283716" lon="11.34852829323288"><ele>457.00000000000006</ele><time>2026-03-26T15:01:59.999Z</time></trkpt><trkpt lat="45.659024541390366" lon="11.348437667417974"><ele>457.0</ele><time>2026-03-26T15:02:00.999Z</time></trkpt><trkpt lat="45.6590817662153" lon="11.348395856370042"><ele>457.0</ele><time>2026-03-26T15:02:01.999Z</time></trkpt><trkpt lat="45.65913459380708" lon="11.348338097821296"><ele>457.0</ele><time>2026-03-26T15:02:02.999Z</time></trkpt><trkpt lat="45.65920503664707" lon="11.348280218182433"><ele>457.00000000000006</ele><time>2026-03-26T15:02:03.999Z</time></trkpt><trkpt lat="45.659280490678" lon="11.348221771754945"><ele>457.0</ele><time>2026-03-26T15:02:04.999Z</time></trkpt><trkpt lat="45.65933988792669" lon="11.348065084164833"><ele>457.75</ele><time>2026-03-26T15:02:05.999Z</time></trkpt><trkpt lat="45.65935327455184" lon="11.347899329897988"><ele>458.5</ele><time>2026-03-26T15:02:06.999Z</time></trkpt><trkpt lat="45.659405960538656" lon="11.347766261589722"><ele>459.25</ele><time>2026-03-26T15:02:07.999Z</time></trkpt><trkpt lat="45.65945847763237" lon="11.347623178837365"><ele>460.0</ele><time>2026-03-26T15:02:08.999Z</time></trkpt><trkpt lat="45.65950618146208" lon="11.34747075147668"><ele>460.00000000000006</ele><time>2026-03-26T15:02:09.999Z</time></trkpt><trkpt lat="45.65954652077264" lon="11.347327061433393"><ele>460.0</ele><time>2026-03-26T15:02:10.999Z</time></trkpt><trkpt lat="45.65958711768216" lon="11.347189360246537"><ele>460.0</ele><time>2026-03-26T15:02:11.999Z</time></trkpt><trkpt lat="45.65962673716028" lon="11.347067265200721"><ele>460.0</ele><time>2026-03-26T15:02:12.999Z</time></trkpt><trkpt lat="45.65966394105067" lon="11.346970310045402"><ele>460.00000000000006</ele><time>2026-03-26T15:02:13.999Z</time></trkpt><trkpt lat="45.659692997409024" lon="11.346888718099116"><ele>460.0</ele><time>2026-03-26T15:02:14.999Z</time></trkpt><trkpt lat="45.65976199325056" lon="11.346867554233606"><ele>462.00000000000006</ele><time>2026-03-26T15:02:15.999Z</time></trkpt><trkpt lat="45.65983812411058" lon="11.346905157561697"><ele>464.0</ele><time>2026-03-26T15:02:16.999Z</time></trkpt><trkpt lat="45.659930224826645" lon="11.346900179291906"><ele>466.0</ele><time>2026-03-26T15:02:17.999Z</time></trkpt><trkpt lat="45.660018799752" lon="11.346880159649416"><ele>468.0</ele><time>2026-03-26T15:02:18.999Z</time></trkpt><trkpt lat="45.660088285944425" lon="11.346831093662582"><ele>470.00000000000006</ele><time>2026-03-26T15:02:19.999Z</time></trkpt><trkpt lat="45.660142134448854" lon="11.346753064028446"><ele>472.0</ele><time>2026-03-26T15:02:20.999Z</time></trkpt><trkpt lat="45.66018062118633" lon="11.346638733689945"><ele>472.00000000000006</ele><time>2026-03-26T15:02:21.999Z</time></trkpt><trkpt lat="45.6601943193644" lon="11.346491547520191"><ele>472.0</ele><time>2026-03-26T15:02:22.999Z</time></trkpt><trkpt lat="45.66020841242638" lon="11.346357934148974"><ele>472.0</ele><time>2026-03-26T15:02:23.999Z</time></trkpt><trkpt lat="45.660197804127804" lon="11.346248947753905"><ele>472.0</ele><time>2026-03-26T15:02:24.999Z</time></trkpt><trkpt lat="45.66019173984347" lon="11.346134411886773"><ele>472.00000000000006</ele><time>2026-03-26T15:02:26.999Z</time></trkpt><trkpt lat="45.660188143695066" lon="11.346004231268703"><ele>472.0</ele><time>2026-03-26T15:02:29.999Z</time></trkpt><trkpt lat="45.660032923627405" lon="11.345744635847035"><ele>474.8</ele><time>2026-03-26T15:02:36.998Z</time></trkpt><trkpt lat="45.66004132669659" lon="11.345570135916985"><ele>477.6</ele><time>2026-03-26T15:02:38.998Z</time></trkpt><trkpt lat="45.66004088398461" lon="11.345440862555638"><ele>480.40000000000003</ele><time>2026-03-26T15:02:40.998Z</time></trkpt><trkpt lat="45.6601152236904" lon="11.345376804423758"><ele>483.20000000000005</ele><time>2026-03-26T15:02:52.998Z</time></trkpt><trkpt lat="45.660231627060405" lon="11.345360780349887"><ele>486.0</ele><time>2026-03-26T15:02:54.998Z</time></trkpt><trkpt lat="45.6602986659131" lon="11.345370434737864"><ele>487.5</ele><time>2026-03-26T15:02:55.998Z</time></trkpt><trkpt lat="45.66039081651736" lon="11.345361603195308"><ele>489.0</ele><time>2026-03-26T15:02:57.998Z</time></trkpt><trkpt lat="45.66031517741157" lon="11.345213367717673"><ele>490.5</ele><time>2026-03-26T15:03:03.998Z</time></trkpt><trkpt lat="45.66019136093166" lon="11.34508123359958"><ele>492.0</ele><time>2026-03-26T15:03:41.413Z</time></trkpt><trkpt lat="45.66011252082568" lon="11.34496693506819"><ele>492.40000000000003</ele><time>2026-03-26T15:03:43.027Z</time></trkpt><trkpt lat="45.66003784022549" lon="11.344876426589066"><ele>492.80000000000007</ele><time>2026-03-26T15:03:44.027Z</time></trkpt><trkpt lat="45.659972523453064" lon="11.344822854688978"><ele>493.2</ele><time>2026-03-26T15:03:45.025Z</time></trkpt><trkpt lat="45.65988716249672" lon="11.344752137762095"><ele>493.6</ele><time>2026-03-26T15:03:46.028Z</time></trkpt><trkpt lat="45.65980615987931" lon="11.344686788917215"><ele>494.0</ele><time>2026-03-26T15:03:47Z</time></trkpt><trkpt lat="45.65970896953676" lon="11.344717002861968"><ele>493.99999999999994</ele><time>2026-03-26T15:03:48Z</time></trkpt><trkpt lat="45.659615335357245" lon="11.344748334439133"><ele>494.0</ele><time>2026-03-26T15:03:49Z</time></trkpt><trkpt lat="45.65952687019836" lon="11.344779725820834"><ele>494.0</ele><time>2026-03-26T15:03:50Z</time></trkpt><trkpt lat="45.65945299819215" lon="11.344787157795132"><ele>494.0</ele><time>2026-03-26T15:03:51Z</time></trkpt><trkpt lat="45.65937283012572" lon="11.34473519016039"><ele>493.99999999999994</ele><time>2026-03-26T15:03:52Z</time></trkpt><trkpt lat="45.6593059240691" lon="11.344664490372805"><ele>494.0</ele><time>2026-03-26T15:03:53Z</time></trkpt><trkpt lat="45.659249448242115" lon="11.344557752725"><ele>495.79999999999995</ele><time>2026-03-26T15:03:54Z</time></trkpt><trkpt lat="45.6591548985294" lon="11.344511188834366"><ele>497.59999999999997</ele><time>2026-03-26T15:03:55Z</time></trkpt><trkpt lat="45.659052859030986" lon="11.344540703788802"><ele>499.4</ele><time>2026-03-26T15:03:56Z</time></trkpt><trkpt lat="45.6589764915961" lon="11.344536286802148"><ele>501.2</ele><time>2026-03-26T15:03:57Z</time></trkpt><trkpt lat="45.658887319951006" lon="11.344613633179238"><ele>503.0</ele><time>2026-03-26T15:03:58Z</time></trkpt><trkpt lat="45.65881521132075" lon="11.3447264931974"><ele>503.0</ele><time>2026-03-26T15:03:59Z</time></trkpt><trkpt lat="45.658785449580414" lon="11.344939576367464"><ele>502.99999999999994</ele><time>2026-03-26T15:04:00Z</time></trkpt><trkpt lat="45.65878258781103" lon="11.345030051408584"><ele>502.99999999999994</ele><time>2026-03-26T15:04:01Z</time></trkpt><trkpt lat="45.65876225381298" lon="11.345119097362877"><ele>503.0</ele><time>2026-03-26T15:04:02Z</time></trkpt><trkpt lat="45.65865851051807" lon="11.345153402549125"><ele>503.0</ele><time>2026-03-26T15:04:04Z</time></trkpt><trkpt lat="45.6585882094529" lon="11.345162979419849"><ele>507.5</ele><time>2026-03-26T15:04:05Z</time></trkpt><trkpt lat="45.65846082536296" lon="11.34515473196586"><ele>512.0</ele><time>2026-03-26T15:04:06Z</time></trkpt><trkpt lat="45.65836975175789" lon="11.345153649174165"><ele>516.5</ele><time>2026-03-26T15:04:07Z</time></trkpt><trkpt lat="45.65824286582352" lon="11.34511328587039"><ele>521.0</ele><time>2026-03-26T15:04:08Z</time></trkpt><trkpt lat="45.658100707542026" lon="11.345045758045481"><ele>521.0</ele><time>2026-03-26T15:04:09Z</time></trkpt><trkpt lat="45.6579862521674" lon="11.34501491239395"><ele>521.0</ele><time>2026-03-26T15:04:10Z</time></trkpt><trkpt lat="45.65790631620882" lon="11.344959063210482"><ele>521.0</ele><time>2026-03-26T15:04:11Z</time></trkpt><trkpt lat="45.65782049579156" lon="11.344926044194805"><ele>521.0</ele><time>2026-03-26T15:04:12Z</time></trkpt><trkpt lat="45.6577108268025" lon="11.344876550316862"><ele>521.0</ele><time>2026-03-26T15:04:14Z</time></trkpt><trkpt lat="45.65759677712102" lon="11.344825714078237"><ele>524.8</ele><time>2026-03-26T15:04:16Z</time></trkpt><trkpt lat="45.657710200440086" lon="11.34465341268635"><ele>528.6</ele><time>2026-03-26T15:04:17.999Z</time></trkpt><trkpt lat="45.65770498010024" lon="11.344538573639909"><ele>532.4</ele><time>2026-03-26T15:04:18.999Z</time></trkpt><trkpt lat="45.65765220895041" lon="11.344444923616058"><ele>536.2</ele><time>2026-03-26T15:04:19.999Z</time></trkpt><trkpt lat="45.65758959860358" lon="11.344333803985753"><ele>540.0</ele><time>2026-03-26T15:04:21.999Z</time></trkpt><trkpt lat="45.65755874874928" lon="11.344240270304107"><ele>540.0</ele><time>2026-03-26T15:04:23.999Z</time></trkpt><trkpt lat="45.65759994054337" lon="11.34414633410192"><ele>540.0</ele><time>2026-03-26T15:04:24.999Z</time></trkpt><trkpt lat="45.65765449176112" lon="11.344005896723205"><ele>540.0</ele><time>2026-03-26T15:04:26.999Z</time></trkpt><trkpt lat="45.65772111009212" lon="11.34385181985164"><ele>540.0</ele><time>2026-03-26T15:04:28.999Z</time></trkpt><trkpt lat="45.657794260275864" lon="11.343818357602983"><ele>540.0</ele><time>2026-03-26T15:04:29.999Z</time></trkpt><trkpt lat="45.657858937709854" lon="11.343754552040279"><ele>540.6</ele><time>2026-03-26T15:04:30.999Z</time></trkpt><trkpt lat="45.65793472732056" lon="11.343675374181863"><ele>541.2</ele><time>2026-03-26T15:04:31.999Z</time></trkpt><trkpt lat="45.65799487948683" lon="11.343577717708726"><ele>541.8</ele><time>2026-03-26T15:04:32.999Z</time></trkpt><trkpt lat="45.65806811273298" lon="11.343450420909619"><ele>542.4</ele><time>2026-03-26T15:04:33.999Z</time></trkpt><trkpt lat="45.65813325973324" lon="11.343370564854428"><ele>543.0</ele><time>2026-03-26T15:04:34.999Z</time></trkpt><trkpt lat="45.65820919484123" lon="11.34327079257178"><ele>543.0</ele><time>2026-03-26T15:04:35.999Z</time></trkpt><trkpt lat="45.65826053578279" lon="11.34316823834389"><ele>543.0</ele><time>2026-03-26T15:04:36.999Z</time></trkpt><trkpt lat="45.65832486004981" lon="11.343071230763394"><ele>543.0</ele><time>2026-03-26T15:04:37.999Z</time></trkpt><trkpt lat="45.658387233408824" lon="11.342951198245919"><ele>543.0</ele><time>2026-03-26T15:04:38.999Z</time></trkpt><trkpt lat="45.65842958801184" lon="11.342807371652754"><ele>543.0</ele><time>2026-03-26T15:04:39.999Z</time></trkpt><trkpt lat="45.6584265022894" lon="11.342648492038578"><ele>545.4</ele><time>2026-03-26T15:04:40.999Z</time></trkpt><trkpt lat="45.6584539835701" lon="11.342528520668086"><ele>547.8</ele><time>2026-03-26T15:04:41.999Z</time></trkpt><trkpt lat="45.658471149041716" lon="11.342418977081094"><ele>550.2</ele><time>2026-03-26T15:04:42.999Z</time></trkpt><trkpt lat="45.658482520470905" lon="11.342297766258039"><ele>552.6</ele><time>2026-03-26T15:04:43.999Z</time></trkpt><trkpt lat="45.658470879721314" lon="11.342137795237438"><ele>555.0</ele><time>2026-03-26T15:04:44.999Z</time></trkpt><trkpt lat="45.65844257763262" lon="11.341984244638992"><ele>556.8</ele><time>2026-03-26T15:04:45.999Z</time></trkpt><trkpt lat="45.65844728120828" lon="11.341841804170635"><ele>558.6</ele><time>2026-03-26T15:04:46.999Z</time></trkpt><trkpt lat="45.65845714596969" lon="11.341715819418063"><ele>560.4</ele><time>2026-03-26T15:04:47.999Z</time></trkpt><trkpt lat="45.65851892083288" lon="11.341594561531625"><ele>562.2</ele><time>2026-03-26T15:04:48.999Z</time></trkpt><trkpt lat="45.658535022461" lon="11.341470794035212"><ele>564.0</ele><time>2026-03-26T15:04:49.999Z</time></trkpt><trkpt lat="45.658544761902355" lon="11.341353379901179"><ele>566.2</ele><time>2026-03-26T15:04:50.999Z</time></trkpt><trkpt lat="45.658535011224515" lon="11.341233325974017"><ele>568.4</ele><time>2026-03-26T15:04:51.999Z</time></trkpt><trkpt lat="45.65851345608389" lon="11.341111515853195"><ele>570.6</ele><time>2026-03-26T15:04:52.999Z</time></trkpt><trkpt lat="45.658500521259526" lon="11.340985076209186"><ele>572.8</ele><time>2026-03-26T15:04:53.999Z</time></trkpt><trkpt lat="45.6584483121625" lon="11.340855442368996"><ele>575.0</ele><time>2026-03-26T15:04:54.998Z</time></trkpt><trkpt lat="45.65842825494032" lon="11.340735340888966"><ele>575.0</ele><time>2026-03-26T15:04:55.998Z</time></trkpt><trkpt lat="45.65841435679666" lon="11.340613398514238"><ele>575.0</ele><time>2026-03-26T15:04:56.998Z</time></trkpt><trkpt lat="45.65844071516197" lon="11.340514658475204"><ele>575.0</ele><time>2026-03-26T15:04:57.998Z</time></trkpt><trkpt lat="45.65845889962806" lon="11.34041206446377"><ele>575.0</ele><time>2026-03-26T15:04:58.998Z</time></trkpt><trkpt lat="45.65848153118598" lon="11.340321020759262"><ele>575.0</ele><time>2026-03-26T15:04:59.998Z</time></trkpt><trkpt lat="45.65846800496825" lon="11.340217932870283"><ele>575.0</ele><time>2026-03-26T15:05:01.998Z</time></trkpt><trkpt lat="45.658434303171596" lon="11.340129784490422"><ele>575.0</ele><time>2026-03-26T15:05:02.998Z</time></trkpt><trkpt lat="45.65833683984439" lon="11.340143164634451"><ele>577.8333333333333</ele><time>2026-03-26T15:05:04.998Z</time></trkpt><trkpt lat="45.65829925449416" lon="11.340261695865411"><ele>580.6666666666666</ele><time>2026-03-26T15:05:06.998Z</time></trkpt><trkpt lat="45.65826242625855" lon="11.340348289174942"><ele>583.5</ele><time>2026-03-26T15:05:07.998Z</time></trkpt><trkpt lat="45.658196358731054" lon="11.340374165517325"><ele>586.3333333333334</ele><time>2026-03-26T15:05:08.998Z</time></trkpt><trkpt lat="45.65810739098906" lon="11.340383387030776"><ele>589.1666666666667</ele><time>2026-03-26T15:05:09.998Z</time></trkpt><trkpt lat="45.65801776104697" lon="11.340434648060276"><ele>592.0</ele><time>2026-03-26T15:05:10.998Z</time></trkpt><trkpt lat="45.65794223900026" lon="11.340494022714088"><ele>592.0</ele><time>2026-03-26T15:05:11.998Z</time></trkpt><trkpt lat="45.65787926450415" lon="11.340549592952351"><ele>592.0</ele><time>2026-03-26T15:05:12.998Z</time></trkpt><trkpt lat="45.657741803049866" lon="11.34055638119234"><ele>592.0</ele><time>2026-03-26T15:05:14.998Z</time></trkpt><trkpt lat="45.65765904274518" lon="11.340539900922167"><ele>592.0</ele><time>2026-03-26T15:05:15.998Z</time></trkpt><trkpt lat="45.657569362330335" lon="11.340524285765245"><ele>592.0</ele><time>2026-03-26T15:05:16.998Z</time></trkpt><trkpt lat="45.65748896373784" lon="11.340579114011861"><ele>590.0</ele><time>2026-03-26T15:05:17.998Z</time></trkpt><trkpt lat="45.65738736242621" lon="11.340659124878533"><ele>588.0</ele><time>2026-03-26T15:05:35.997Z</time></trkpt><trkpt lat="45.65729733335957" lon="11.340746965353414"><ele>586.0</ele><time>2026-03-26T15:05:37.997Z</time></trkpt><trkpt lat="45.65720323743644" lon="11.340831590909977"><ele>584.0</ele><time>2026-03-26T15:05:39.997Z</time></trkpt><trkpt lat="45.657105681542376" lon="11.340914889813398"><ele>584.0</ele><time>2026-03-26T15:05:41.997Z</time></trkpt><trkpt lat="45.657035420542634" lon="11.340979750459518"><ele>584.0</ele><time>2026-03-26T15:05:43.997Z</time></trkpt><trkpt lat="45.65698623266313" lon="11.34104381293293"><ele>584.0</ele><time>2026-03-26T15:05:46.997Z</time></trkpt><trkpt lat="45.65694072950592" lon="11.341124928245588"><ele>584.0</ele><time>2026-03-26T15:05:58Z</time></trkpt><trkpt lat="45.656865489180795" lon="11.341191697935963"><ele>584.0</ele><time>2026-03-26T15:06:01Z</time></trkpt><trkpt lat="45.656778360744326" lon="11.341250033271"><ele>584.0</ele><time>2026-03-26T15:06:03Z</time></trkpt><trkpt lat="45.65671750783219" lon="11.341208541171845"><ele>584.2</ele><time>2026-03-26T15:06:05Z</time></trkpt><trkpt lat="45.65660718057221" lon="11.34117004149952"><ele>584.4</ele><time>2026-03-26T15:06:07Z</time></trkpt><trkpt lat="45.65660694662182" lon="11.341275916555604"><ele>584.6</ele><time>2026-03-26T15:06:09Z</time></trkpt><trkpt lat="45.656511483833455" lon="11.341371467508354"><ele>584.8</ele><time>2026-03-26T15:06:10Z</time></trkpt><trkpt lat="45.656446894131115" lon="11.341453754005967"><ele>585.0</ele><time>2026-03-26T15:06:11Z</time></trkpt><trkpt lat="45.6564004916496" lon="11.341578668144233"><ele>585.0</ele><time>2026-03-26T15:06:12Z</time></trkpt><trkpt lat="45.65636829054894" lon="11.341728258558941"><ele>585.0</ele><time>2026-03-26T15:06:13Z</time></trkpt><trkpt lat="45.656323949740646" lon="11.341881164559489"><ele>585.0</ele><time>2026-03-26T15:06:14Z</time></trkpt><trkpt lat="45.65628745605756" lon="11.342023002299713"><ele>585.0</ele><time>2026-03-26T15:06:15Z</time></trkpt><trkpt lat="45.65624171527793" lon="11.342147449586651"><ele>585.0</ele><time>2026-03-26T15:06:16Z</time></trkpt><trkpt lat="45.656185784322524" lon="11.342261012032697"><ele>584.0</ele><time>2026-03-26T15:06:17Z</time></trkpt><trkpt lat="45.6561760779143" lon="11.34238584595161"><ele>583.0</ele><time>2026-03-26T15:06:18Z</time></trkpt><trkpt lat="45.65614089885371" lon="11.342481187802065"><ele>582.0</ele><time>2026-03-26T15:06:20Z</time></trkpt><trkpt lat="45.6560911969212" lon="11.34255842668983"><ele>581.0</ele><time>2026-03-26T15:06:22.999Z</time></trkpt><trkpt lat="45.656020274873846" lon="11.342666458109418"><ele>580.0</ele><time>2026-03-26T15:06:24.999Z</time></trkpt><trkpt lat="45.655987717935105" lon="11.342759709691782"><ele>579.0</ele><time>2026-03-26T15:06:25.999Z</time></trkpt><trkpt lat="45.655931061198935" lon="11.342874817665807"><ele>582.0</ele><time>2026-03-26T15:06:26.999Z</time></trkpt><trkpt lat="45.655875673769444" lon="11.342991229037171"><ele>585.0</ele><time>2026-03-26T15:06:27.999Z</time></trkpt><trkpt lat="45.65583389875872" lon="11.343069814419747"><ele>588.0</ele><time>2026-03-26T15:06:28.999Z</time></trkpt><trkpt lat="45.655780965732795" lon="11.343124284576259"><ele>591.0</ele><time>2026-03-26T15:06:29.999Z</time></trkpt><trkpt lat="45.65575678396807" lon="11.343219611954003"><ele>594.0</ele><time>2026-03-26T15:06:30.999Z</time></trkpt><trkpt lat="45.65571441080406" lon="11.343301382105102"><ele>597.0</ele><time>2026-03-26T15:06:31.999Z</time></trkpt><trkpt lat="45.655653213815505" lon="11.343437253421481"><ele>597.0</ele><time>2026-03-26T15:06:33.999Z</time></trkpt><trkpt lat="45.65561283749251" lon="11.343514511737226"><ele>597.0</ele><time>2026-03-26T15:06:34.999Z</time></trkpt><trkpt lat="45.65555141166018" lon="11.343576462488546"><ele>597.0</ele><time>2026-03-26T15:06:35.999Z</time></trkpt><trkpt lat="45.65547910039494" lon="11.343615582872772"><ele>597.0</ele><time>2026-03-26T15:06:36.999Z</time></trkpt><trkpt lat="45.65539962821347" lon="11.343714801690922"><ele>597.0</ele><time>2026-03-26T15:06:38.999Z</time></trkpt><trkpt lat="45.65539545598336" lon="11.343815549749976"><ele>597.0</ele><time>2026-03-26T15:06:40.999Z</time></trkpt><trkpt lat="45.655390639871705" lon="11.34393507710362"><ele>596.0</ele><time>2026-03-26T15:06:41.999Z</time></trkpt><trkpt lat="45.65531808941201" lon="11.343981450787398"><ele>595.0</ele><time>2026-03-26T15:06:42.999Z</time></trkpt><trkpt lat="45.655248787029976" lon="11.344036794674114"><ele>594.0</ele><time>2026-03-26T15:06:44.999Z</time></trkpt><trkpt lat="45.655181731173045" lon="11.344104088682238"><ele>593.0</ele><time>2026-03-26T15:06:46.999Z</time></trkpt><trkpt lat="45.65509072005854" lon="11.344130286755474"><ele>592.0</ele><time>2026-03-26T15:06:48.999Z</time></trkpt><trkpt lat="45.654972716380456" lon="11.344168964076088"><ele>592.0</ele><time>2026-03-26T15:06:50.999Z</time></trkpt><trkpt lat="45.65484778505116" lon="11.344197199949994"><ele>592.0</ele><time>2026-03-26T15:06:52.999Z</time></trkpt><trkpt lat="45.65478073785905" lon="11.344223081274619"><ele>592.0</ele><time>2026-03-26T15:06:53.999Z</time></trkpt><trkpt lat="45.65469837718139" lon="11.344243476219406"><ele>592.0</ele><time>2026-03-26T15:06:54.999Z</time></trkpt><trkpt lat="45.65460269372084" lon="11.344309099511303"><ele>592.0</ele><time>2026-03-26T15:06:56.999Z</time></trkpt><trkpt lat="45.65449387771229" lon="11.344397555610694"><ele>591.6</ele><time>2026-03-26T15:06:58.999Z</time></trkpt><trkpt lat="45.65441684021875" lon="11.344475273269744"><ele>591.2</ele><time>2026-03-26T15:07:00.998Z</time></trkpt><trkpt lat="45.654350018494334" lon="11.344565954365674"><ele>590.8</ele><time>2026-03-26T15:07:02.998Z</time></trkpt><trkpt lat="45.65425756760808" lon="11.344579343395734"><ele>590.4</ele><time>2026-03-26T15:07:05.998Z</time></trkpt><trkpt lat="45.65419754349789" lon="11.344500986383283"><ele>590.0</ele><time>2026-03-26T15:07:06.998Z</time></trkpt><trkpt lat="45.654115002696884" lon="11.344430504544057"><ele>590.0</ele><time>2026-03-26T15:07:07.998Z</time></trkpt><trkpt lat="45.65401011025886" lon="11.344366420748825"><ele>590.0</ele><time>2026-03-26T15:07:08.998Z</time></trkpt><trkpt lat="45.65390601559354" lon="11.344310969653996"><ele>590.0</ele><time>2026-03-26T15:07:09.998Z</time></trkpt><trkpt lat="45.65381623132981" lon="11.344253662618762"><ele>590.0</ele><time>2026-03-26T15:07:10.998Z</time></trkpt><trkpt lat="45.65372932977671" lon="11.344195476932388"><ele>590.0</ele><time>2026-03-26T15:07:11.998Z</time></trkpt><trkpt lat="45.653631828757455" lon="11.344158040897767"><ele>593.0</ele><time>2026-03-26T15:07:12.998Z</time></trkpt><trkpt lat="45.653509306332076" lon="11.344164539800422"><ele>596.0</ele><time>2026-03-26T15:07:13.998Z</time></trkpt><trkpt lat="45.65341163510446" lon="11.344179953119621"><ele>599.0</ele><time>2026-03-26T15:07:14.998Z</time></trkpt><trkpt lat="45.65332772741464" lon="11.344169124930131"><ele>602.0</ele><time>2026-03-26T15:07:15.998Z</time></trkpt><trkpt lat="45.653271012262245" lon="11.344118783290108"><ele>605.0</ele><time>2026-03-26T15:07:16.998Z</time></trkpt><trkpt lat="45.65324584938563" lon="11.344005407720736"><ele>605.0</ele><time>2026-03-26T15:07:17.998Z</time></trkpt><trkpt lat="45.65322244238552" lon="11.34389159254326"><ele>605.0</ele><time>2026-03-26T15:07:18.998Z</time></trkpt><trkpt lat="45.65320981486604" lon="11.343764142702701"><ele>605.0</ele><time>2026-03-26T15:07:19.998Z</time></trkpt><trkpt lat="45.653170064703524" lon="11.343612666692772"><ele>605.0</ele><time>2026-03-26T15:07:20.998Z</time></trkpt><trkpt lat="45.65311540482491" lon="11.343468214003575"><ele>605.0</ele><time>2026-03-26T15:07:21.998Z</time></trkpt><trkpt lat="45.65306707691773" lon="11.343362568201227"><ele>603.6</ele><time>2026-03-26T15:07:22.998Z</time></trkpt><trkpt lat="45.65304540708538" lon="11.34324580340062"><ele>602.2</ele><time>2026-03-26T15:07:23.998Z</time></trkpt><trkpt lat="45.65289500453153" lon="11.343171359360976"><ele>600.8</ele><time>2026-03-26T15:07:25.998Z</time></trkpt><trkpt lat="45.652793111205085" lon="11.34312033276019"><ele>599.4</ele><time>2026-03-26T15:07:26.998Z</time></trkpt><trkpt lat="45.652701477625925" lon="11.343073798876915"><ele>598.0</ele><time>2026-03-26T15:07:27.998Z</time></trkpt><trkpt lat="45.65257707002877" lon="11.34295231124238"><ele>602.0</ele><time>2026-03-26T15:07:28.998Z</time></trkpt><trkpt lat="45.652458021975164" lon="11.342858820403247"><ele>606.0</ele><time>2026-03-26T15:07:29.998Z</time></trkpt><trkpt lat="45.65236060722731" lon="11.342771325299712"><ele>610.0</ele><time>2026-03-26T15:07:30.998Z</time></trkpt><trkpt lat="45.65227209561416" lon="11.34267983975996"><ele>614.0</ele><time>2026-03-26T15:07:31.998Z</time></trkpt><trkpt lat="45.652156571137525" lon="11.34259642154358"><ele>614.0</ele><time>2026-03-26T15:07:32.998Z</time></trkpt><trkpt lat="45.65208331331083" lon="11.342506247704847"><ele>614.0</ele><time>2026-03-26T15:07:33.998Z</time></trkpt><trkpt lat="45.65201951993868" lon="11.342419382688627"><ele>614.0</ele><time>2026-03-26T15:07:34.998Z</time></trkpt><trkpt lat="45.65198682904587" lon="11.342303935674693"><ele>614.0</ele><time>2026-03-26T15:07:35.998Z</time></trkpt><trkpt lat="45.65194767090533" lon="11.342184135812598"><ele>614.0</ele><time>2026-03-26T15:07:36.998Z</time></trkpt><trkpt lat="45.65189911501953" lon="11.342043879881206"><ele>619.0</ele><time>2026-03-26T15:07:37.998Z</time></trkpt><trkpt lat="45.65187934322585" lon="11.341940017609065"><ele>624.0</ele><time>2026-03-26T15:07:38.998Z</time></trkpt><trkpt lat="45.651795692112046" lon="11.341906150026833"><ele>629.0</ele><time>2026-03-26T15:07:39.997Z</time></trkpt><trkpt lat="45.65170058882307" lon="11.341851917353766"><ele>634.0</ele><time>2026-03-26T15:07:40.997Z</time></trkpt><trkpt lat="45.65160187801699" lon="11.341813584091181"><ele>639.0</ele><time>2026-03-26T15:07:41.997Z</time></trkpt><trkpt lat="45.65147196330372" lon="11.341795789253371"><ele>639.0</ele><time>2026-03-26T15:07:42.997Z</time></trkpt><trkpt lat="45.651327901154225" lon="11.341786906271272"><ele>639.0</ele><time>2026-03-26T15:07:43.997Z</time></trkpt><trkpt lat="45.65119882650875" lon="11.3417438375239"><ele>639.0</ele><time>2026-03-26T15:07:44.997Z</time></trkpt><trkpt lat="45.65109814952458" lon="11.341711363808212"><ele>639.0</ele><time>2026-03-26T15:07:45.997Z</time></trkpt><trkpt lat="45.65100373193701" lon="11.341721754541037"><ele>641.0</ele><time>2026-03-26T15:07:46.997Z</time></trkpt><trkpt lat="45.65091038050497" lon="11.341694227855527"><ele>643.0</ele><time>2026-03-26T15:07:47.997Z</time></trkpt><trkpt lat="45.65082483649555" lon="11.34160493841494"><ele>645.0</ele><time>2026-03-26T15:07:48.997Z</time></trkpt><trkpt lat="45.65074896939749" lon="11.341550004545786"><ele>647.0</ele><time>2026-03-26T15:07:49.997Z</time></trkpt><trkpt lat="45.65067069713351" lon="11.341530715810105"><ele>649.0</ele><time>2026-03-26T15:07:50.997Z</time></trkpt><trkpt lat="45.65060115416453" lon="11.34155383529938"><ele>651.0</ele><time>2026-03-26T15:07:51.997Z</time></trkpt><trkpt lat="45.65054097805014" lon="11.341600207573046"><ele>651.0</ele><time>2026-03-26T15:07:52.997Z</time></trkpt><trkpt lat="45.6504522488588" lon="11.341652888933545"><ele>651.0</ele><time>2026-03-26T15:07:53.997Z</time></trkpt><trkpt lat="45.65036734926868" lon="11.341663496075567"><ele>651.0</ele><time>2026-03-26T15:07:54.997Z</time></trkpt><trkpt lat="45.65028756804221" lon="11.341618504051112"><ele>651.0</ele><time>2026-03-26T15:07:55.997Z</time></trkpt><trkpt lat="45.650245136770536" lon="11.34154305456088"><ele>651.0</ele><time>2026-03-26T15:07:56.997Z</time></trkpt><trkpt lat="45.65016045702766" lon="11.341443211910436"><ele>651.0</ele><time>2026-03-26T15:07:59Z</time></trkpt><trkpt lat="45.65013879131651" lon="11.341342236526852"><ele>651.3333333333334</ele><time>2026-03-26T15:08:00Z</time></trkpt><trkpt lat="45.650096471786625" lon="11.34127116334795"><ele>651.6666666666666</ele><time>2026-03-26T15:08:01Z</time></trkpt><trkpt lat="45.65006810423238" lon="11.3411701333633"><ele>652.0</ele><time>2026-03-26T15:08:02Z</time></trkpt><trkpt lat="45.650052305267636" lon="11.3410671615439"><ele>652.3333333333333</ele><time>2026-03-26T15:08:03Z</time></trkpt><trkpt lat="45.65003843540671" lon="11.340945217396472"><ele>652.6666666666666</ele><time>2026-03-26T15:08:04Z</time></trkpt><trkpt lat="45.65001827540738" lon="11.340814436830017"><ele>653.0</ele><time>2026-03-26T15:08:05Z</time></trkpt><trkpt lat="45.64998389703554" lon="11.340695766246139"><ele>653.0</ele><time>2026-03-26T15:08:06Z</time></trkpt><trkpt lat="45.649993120329974" lon="11.340605685372225"><ele>653.0</ele><time>2026-03-26T15:08:07Z</time></trkpt><trkpt lat="45.64997199999304" lon="11.340514321143319"><ele>653.0</ele><time>2026-03-26T15:08:08Z</time></trkpt><trkpt lat="45.64996370924761" lon="11.340378534221784"><ele>653.0</ele><time>2026-03-26T15:08:10Z</time></trkpt><trkpt lat="45.6499748253187" lon="11.340278820062801"><ele>653.0</ele><time>2026-03-26T15:08:13Z</time></trkpt><trkpt lat="45.64997423954052" lon="11.34016576941399"><ele>653.0</ele><time>2026-03-26T15:08:15Z</time></trkpt><trkpt lat="45.65022098885313" lon="11.340077894492872"><ele>653.8</ele><time>2026-03-26T15:08:16Z</time></trkpt><trkpt lat="45.65030942787801" lon="11.339984401038267"><ele>654.5999999999999</ele><time>2026-03-26T15:08:18Z</time></trkpt><trkpt lat="45.650367341026744" lon="11.339841708382371"><ele>655.4000000000001</ele><time>2026-03-26T15:08:20Z</time></trkpt><trkpt lat="45.65035685283582" lon="11.339654559151505"><ele>656.2</ele><time>2026-03-26T15:08:22Z</time></trkpt><trkpt lat="45.65030534687554" lon="11.339579664143299"><ele>657.0</ele><time>2026-03-26T15:08:23Z</time></trkpt><trkpt lat="45.65025996696267" lon="11.339502839267512"><ele>658.0</ele><time>2026-03-26T15:08:24Z</time></trkpt><trkpt lat="45.65021360629524" lon="11.339412754877923"><ele>659.0</ele><time>2026-03-26T15:08:25Z</time></trkpt><trkpt lat="45.65017379024045" lon="11.339307033317397"><ele>660.0</ele><time>2026-03-26T15:08:26Z</time></trkpt><trkpt lat="45.65014331920722" lon="11.339200881993452"><ele>661.0</ele><time>2026-03-26T15:08:26.999Z</time></trkpt><trkpt lat="45.65019379149564" lon="11.339096540388653"><ele>662.0</ele><time>2026-03-26T15:08:28.999Z</time></trkpt><trkpt lat="45.650199625642784" lon="11.338995975540806"><ele>663.0</ele><time>2026-03-26T15:08:29.999Z</time></trkpt><trkpt lat="45.65021186100789" lon="11.338853474550318"><ele>664.0</ele><time>2026-03-26T15:08:30.999Z</time></trkpt><trkpt lat="45.65022816772264" lon="11.338757093084817"><ele>665.0</ele><time>2026-03-26T15:08:31.999Z</time></trkpt><trkpt lat="45.65027416605825" lon="11.338681841417785"><ele>666.0</ele><time>2026-03-26T15:08:32.999Z</time></trkpt><trkpt lat="45.65033019927756" lon="11.338609744890823"><ele>667.0</ele><time>2026-03-26T15:08:33.999Z</time></trkpt><trkpt lat="45.65038283453498" lon="11.338529428041966"><ele>668.0</ele><time>2026-03-26T15:08:34.999Z</time></trkpt><trkpt lat="45.650442900480826" lon="11.338458119713893"><ele>669.0</ele><time>2026-03-26T15:08:36.999Z</time></trkpt><trkpt lat="45.65051541773597" lon="11.338399723049475"><ele>669.0</ele><time>2026-03-26T15:08:40.999Z</time></trkpt><trkpt lat="45.65059359301083" lon="11.33831839196927"><ele>669.0</ele><time>2026-03-26T15:08:42.999Z</time></trkpt><trkpt lat="45.650704860534056" lon="11.338202731106861"><ele>669.0</ele><time>2026-03-26T15:08:44.999Z</time></trkpt><trkpt lat="45.65078712719093" lon="11.338109690760602"><ele>669.0</ele><time>2026-03-26T15:08:46.999Z</time></trkpt><trkpt lat="45.65085884271394" lon="11.337995894723951"><ele>669.0</ele><time>2026-03-26T15:08:48.999Z</time></trkpt><trkpt lat="45.65093736646283" lon="11.33790816053867"><ele>669.4000000000001</ele><time>2026-03-26T15:08:50.999Z</time></trkpt><trkpt lat="45.65097778815243" lon="11.337817533758338"><ele>669.8</ele><time>2026-03-26T15:08:52.999Z</time></trkpt><trkpt lat="45.65104912819513" lon="11.337736078901234"><ele>670.2</ele><time>2026-03-26T15:08:53.999Z</time></trkpt><trkpt lat="45.65116048832383" lon="11.337585837632023"><ele>670.5999999999999</ele><time>2026-03-26T15:08:55.999Z</time></trkpt><trkpt lat="45.65122168942805" lon="11.337544197308835"><ele>671.0</ele><time>2026-03-26T15:08:56.999Z</time></trkpt><trkpt lat="45.65126066180449" lon="11.337461841277145"><ele>671.0</ele><time>2026-03-26T15:08:57.999Z</time></trkpt><trkpt lat="45.651283197112434" lon="11.337375495474147"><ele>671.0</ele><time>2026-03-26T15:08:58.999Z</time></trkpt><trkpt lat="45.65130622446967" lon="11.337265252247017"><ele>671.0</ele><time>2026-03-26T15:08:59.999Z</time></trkpt><trkpt lat="45.65133508449214" lon="11.337150676913666"><ele>671.0</ele><time>2026-03-26T15:09:00.999Z</time></trkpt><trkpt lat="45.65134075775199" lon="11.337045079949409"><ele>671.0</ele><time>2026-03-26T15:09:01.999Z</time></trkpt><trkpt lat="45.65135337856757" lon="11.33695003495592"><ele>671.0</ele><time>2026-03-26T15:09:02.999Z</time></trkpt><trkpt lat="45.65136139526268" lon="11.336830646767158"><ele>673.5999999999999</ele><time>2026-03-26T15:09:03.999Z</time></trkpt><trkpt lat="45.651369442842324" lon="11.336698913693063"><ele>676.2</ele><time>2026-03-26T15:09:04.999Z</time></trkpt><trkpt lat="45.65137976013345" lon="11.336609019863895"><ele>678.8</ele><time>2026-03-26T15:09:11.998Z</time></trkpt><trkpt lat="45.651471414510716" lon="11.336457995589164"><ele>681.4000000000001</ele><time>2026-03-26T15:09:13.998Z</time></trkpt><trkpt lat="45.65151555666438" lon="11.336353498305037"><ele>684.0</ele><time>2026-03-26T15:09:14.998Z</time></trkpt><trkpt lat="45.6516057548612" lon="11.336225251570418"><ele>685.2</ele><time>2026-03-26T15:09:16.998Z</time></trkpt><trkpt lat="45.65164488437895" lon="11.336120096617476"><ele>686.4000000000001</ele><time>2026-03-26T15:09:18.998Z</time></trkpt><trkpt lat="45.65168047840172" lon="11.336033800787062"><ele>687.6</ele><time>2026-03-26T15:09:19.998Z</time></trkpt><trkpt lat="45.65165942818129" lon="11.335881583820251"><ele>688.8</ele><time>2026-03-26T15:09:21.998Z</time></trkpt><trkpt lat="45.651600815412664" lon="11.33571043342271"><ele>690.0</ele><time>2026-03-26T15:09:24.998Z</time></trkpt><trkpt lat="45.65161961872141" lon="11.335600803411795"><ele>691.0</ele><time>2026-03-26T15:09:25.998Z</time></trkpt><trkpt lat="45.65162089486072" lon="11.335448151127583"><ele>692.0</ele><time>2026-03-26T15:09:26.998Z</time></trkpt><trkpt lat="45.65160864094369" lon="11.335345031566762"><ele>693.0</ele><time>2026-03-26T15:09:27.998Z</time></trkpt><trkpt lat="45.65157479007059" lon="11.335246599411352"><ele>694.0</ele><time>2026-03-26T15:09:28.998Z</time></trkpt><trkpt lat="45.651466497263286" lon="11.335074985276057"><ele>695.0</ele><time>2026-03-26T15:09:30.998Z</time></trkpt><trkpt lat="45.65140888837349" lon="11.33500909340631"><ele>695.0</ele><time>2026-03-26T15:09:31.998Z</time></trkpt><trkpt lat="45.65136056522314" lon="11.334893414601753"><ele>695.0</ele><time>2026-03-26T15:09:33.998Z</time></trkpt><trkpt lat="45.65130063118962" lon="11.334799018945995"><ele>695.0</ele><time>2026-03-26T15:09:35.998Z</time></trkpt><trkpt lat="45.651255406055206" lon="11.334654026617912"><ele>695.0</ele><time>2026-03-26T15:09:37.998Z</time></trkpt><trkpt lat="45.65125636921084" lon="11.334482298205817"><ele>695.0</ele><time>2026-03-26T15:09:39.998Z</time></trkpt><trkpt lat="45.65120157774065" lon="11.334374738142802"><ele>696.0</ele><time>2026-03-26T15:09:42.998Z</time></trkpt><trkpt lat="45.65115898696197" lon="11.334292633197727"><ele>697.0</ele><time>2026-03-26T15:09:43.998Z</time></trkpt><trkpt lat="45.65110837333811" lon="11.334204227863113"><ele>698.0</ele><time>2026-03-26T15:09:44.998Z</time></trkpt><trkpt lat="45.65104381577985" lon="11.334137982822869"><ele>699.0</ele><time>2026-03-26T15:09:46.998Z</time></trkpt><trkpt lat="45.650959335738555" lon="11.334091392095464"><ele>700.0</ele><time>2026-03-26T15:09:48.997Z</time></trkpt><trkpt lat="45.65091215188048" lon="11.334025966281734"><ele>701.0</ele><time>2026-03-26T15:09:49.997Z</time></trkpt><trkpt lat="45.65086210366293" lon="11.333896250318999"><ele>705.3333333333333</ele><time>2026-03-26T15:09:51.997Z</time></trkpt><trkpt lat="45.65076419270061" lon="11.333869606231579"><ele>709.6666666666666</ele><time>2026-03-26T15:09:53.997Z</time></trkpt><trkpt lat="45.65073918267663" lon="11.33374498391648"><ele>714.0</ele><time>2026-03-26T15:09:54.997Z</time></trkpt><trkpt lat="45.65067654771306" lon="11.333665218834323"><ele>718.3333333333334</ele><time>2026-03-26T15:09:56.997Z</time></trkpt><trkpt lat="45.65062396418908" lon="11.333558680567796"><ele>722.6666666666667</ele><time>2026-03-26T15:09:58.997Z</time></trkpt><trkpt lat="45.65064382071295" lon="11.33344611771507"><ele>727.0</ele><time>2026-03-26T15:09:59.997Z</time></trkpt><trkpt lat="45.650656864548836" lon="11.333356223580095"><ele>727.0</ele><time>2026-03-26T15:10:00.997Z</time></trkpt><trkpt lat="45.6506496033941" lon="11.333265795766655"><ele>727.0</ele><time>2026-03-26T15:10:01.997Z</time></trkpt><trkpt lat="45.650626259405286" lon="11.333116789365842"><ele>727.0</ele><time>2026-03-26T15:10:03.997Z</time></trkpt><trkpt lat="45.650555117878234" lon="11.333038041273769"><ele>727.0</ele><time>2026-03-26T15:10:06Z</time></trkpt><trkpt lat="45.65050224182937" lon="11.332959272172879"><ele>727.0</ele><time>2026-03-26T15:10:07Z</time></trkpt><trkpt lat="45.650453775265845" lon="11.332833689958488"><ele>727.0</ele><time>2026-03-26T15:10:08Z</time></trkpt><trkpt lat="45.65042729774432" lon="11.332687218408408"><ele>727.6</ele><time>2026-03-26T15:10:09Z</time></trkpt><trkpt lat="45.65040086925298" lon="11.332596634818335"><ele>728.2</ele><time>2026-03-26T15:10:10Z</time></trkpt><trkpt lat="45.650335566139006" lon="11.33256352288495"><ele>728.8</ele><time>2026-03-26T15:10:11Z</time></trkpt><trkpt lat="45.650224054357416" lon="11.332465791864614"><ele>729.4</ele><time>2026-03-26T15:10:13Z</time></trkpt><trkpt lat="45.65016404938954" lon="11.332411122691026"><ele>730.0</ele><time>2026-03-26T15:10:14Z</time></trkpt><trkpt lat="45.650069347344136" lon="11.332281912630735"><ele>730.6666666666667</ele><time>2026-03-26T15:10:16Z</time></trkpt><trkpt lat="45.650019836979645" lon="11.332179704986489"><ele>731.3333333333334</ele><time>2026-03-26T15:10:17Z</time></trkpt><trkpt lat="45.649961632198206" lon="11.33208898007934"><ele>732.0</ele><time>2026-03-26T15:10:18Z</time></trkpt><trkpt lat="45.649908367220206" lon="11.332030508908506"><ele>732.6666666666666</ele><time>2026-03-26T15:10:19Z</time></trkpt><trkpt lat="45.649827251298355" lon="11.331993761546173"><ele>733.3333333333333</ele><time>2026-03-26T15:10:21Z</time></trkpt><trkpt lat="45.64975212136543" lon="11.331939910517098"><ele>734.0</ele><time>2026-03-26T15:10:22Z</time></trkpt><trkpt lat="45.64974188402126" lon="11.33207030197365"><ele>734.0</ele><time>2026-03-26T15:10:23Z</time></trkpt><trkpt lat="45.64969154607952" lon="11.332133054103794"><ele>734.0</ele><time>2026-03-26T15:10:24Z</time></trkpt><trkpt lat="45.649647767173015" lon="11.332273551536252"><ele>734.0</ele><time>2026-03-26T15:10:25Z</time></trkpt><trkpt lat="45.64956721278141" lon="11.332414934474189"><ele>734.0</ele><time>2026-03-26T15:10:27Z</time></trkpt><trkpt lat="45.64950791373833" lon="11.332458096725487"><ele>734.0</ele><time>2026-03-26T15:10:28Z</time></trkpt><trkpt lat="45.649401093885864" lon="11.332512545100535"><ele>735.5</ele><time>2026-03-26T15:10:30Z</time></trkpt><trkpt lat="45.64933212917344" lon="11.332518928241527"><ele>737.0</ele><time>2026-03-26T15:10:31Z</time></trkpt><trkpt lat="45.649262077363346" lon="11.332514734862189"><ele>738.5</ele><time>2026-03-26T15:10:32Z</time></trkpt><trkpt lat="45.64919236412084" lon="11.332514379238173"><ele>740.0</ele><time>2026-03-26T15:10:33Z</time></trkpt><trkpt lat="45.64911568677408" lon="11.332593757903227"><ele>741.5</ele><time>2026-03-26T15:10:35Z</time></trkpt><trkpt lat="45.649032730335115" lon="11.33267307189743"><ele>743.0</ele><time>2026-03-26T15:10:37Z</time></trkpt><trkpt lat="45.648983257569306" lon="11.332731901119466"><ele>743.0</ele><time>2026-03-26T15:10:37.999Z</time></trkpt><trkpt lat="45.64890712347685" lon="11.332776462515568"><ele>743.0</ele><time>2026-03-26T15:10:39.999Z</time></trkpt><trkpt lat="45.64879371056311" lon="11.33287176451681"><ele>743.0</ele><time>2026-03-26T15:10:41.999Z</time></trkpt><trkpt lat="45.64873434227124" lon="11.332916902265504"><ele>743.0</ele><time>2026-03-26T15:10:42.999Z</time></trkpt><trkpt lat="45.64868115531127" lon="11.332978331806093"><ele>743.0</ele><time>2026-03-26T15:10:45.999Z</time></trkpt><trkpt lat="45.64858860705357" lon="11.333057690962072"><ele>743.2</ele><time>2026-03-26T15:10:47.999Z</time></trkpt><trkpt lat="45.64852105552003" lon="11.333118464046665"><ele>743.4</ele><time>2026-03-26T15:10:48.999Z</time></trkpt><trkpt lat="45.64845736338682" lon="11.333147749887285"><ele>743.6</ele><time>2026-03-26T15:10:49.999Z</time></trkpt><trkpt lat="45.648377491471145" lon="11.333214669086994"><ele>743.8000000000001</ele><time>2026-03-26T15:10:51.999Z</time></trkpt><trkpt lat="45.648267675883154" lon="11.333255671318708"><ele>744.0</ele><time>2026-03-26T15:10:53.999Z</time></trkpt><trkpt lat="45.648161988448805" lon="11.333295898346684"><ele>744.0</ele><time>2026-03-26T15:10:54.999Z</time></trkpt><trkpt lat="45.64803911627948" lon="11.333322564127512"><ele>744.0</ele><time>2026-03-26T15:10:55.999Z</time></trkpt><trkpt lat="45.64794240133034" lon="11.333371439741992"><ele>744.0</ele><time>2026-03-26T15:10:56.999Z</time></trkpt><trkpt lat="45.64784960727448" lon="11.333400567782627"><ele>744.0</ele><time>2026-03-26T15:10:57.999Z</time></trkpt><trkpt lat="45.64778271796051" lon="11.333414800451834"><ele>744.0</ele><time>2026-03-26T15:10:58.999Z</time></trkpt><trkpt lat="45.64768210733306" lon="11.33350498381713"><ele>742.6666666666666</ele><time>2026-03-26T15:11:00.999Z</time></trkpt><trkpt lat="45.647590918984456" lon="11.333512912481272"><ele>741.3333333333334</ele><time>2026-03-26T15:11:01.999Z</time></trkpt><trkpt lat="45.64751465414728" lon="11.33353414524928"><ele>740.0</ele><time>2026-03-26T15:11:02.999Z</time></trkpt><trkpt lat="45.64744475949661" lon="11.333555334777328"><ele>738.6666666666667</ele><time>2026-03-26T15:11:03.999Z</time></trkpt><trkpt lat="45.64737606425626" lon="11.333570157631577"><ele>737.3333333333334</ele><time>2026-03-26T15:11:04.999Z</time></trkpt><trkpt lat="45.647301010309" lon="11.333550601117404"><ele>736.0</ele><time>2026-03-26T15:11:05.999Z</time></trkpt><trkpt lat="45.647203787106214" lon="11.333551983352828"><ele>736.0</ele><time>2026-03-26T15:11:06.999Z</time></trkpt><trkpt lat="45.64713474451308" lon="11.333622487822431"><ele>736.0</ele><time>2026-03-26T15:11:08.999Z</time></trkpt><trkpt lat="45.64707205580257" lon="11.333668929217055"><ele>736.0</ele><time>2026-03-26T15:11:09.999Z</time></trkpt><trkpt lat="45.646973682616526" lon="11.33368963717786"><ele>736.0</ele><time>2026-03-26T15:11:11.999Z</time></trkpt><trkpt lat="45.64688129812639" lon="11.33370384889732"><ele>736.0</ele><time>2026-03-26T15:11:13.999Z</time></trkpt><trkpt lat="45.64681352570799" lon="11.333713856722115"><ele>736.0</ele><time>2026-03-26T15:11:14.999Z</time></trkpt><trkpt lat="45.64674373645865" lon="11.333711582937612"><ele>735.1999999999999</ele><time>2026-03-26T15:11:15.999Z</time></trkpt><trkpt lat="45.64667771419007" lon="11.333725017441381"><ele>734.4</ele><time>2026-03-26T15:11:16.999Z</time></trkpt><trkpt lat="45.646540898222" lon="11.333694642723275"><ele>733.6</ele><time>2026-03-26T15:11:18.998Z</time></trkpt><trkpt lat="45.64644019460116" lon="11.333700559340286"><ele>732.8</ele><time>2026-03-26T15:11:19.998Z</time></trkpt><trkpt lat="45.64637630429876" lon="11.333669649101045"><ele>732.0</ele><time>2026-03-26T15:11:20.998Z</time></trkpt><trkpt lat="45.64625312173612" lon="11.33358792028923"><ele>732.0</ele><time>2026-03-26T15:11:22.998Z</time></trkpt><trkpt lat="45.646182259904585" lon="11.333584201294213"><ele>732.0</ele><time>2026-03-26T15:11:23.998Z</time></trkpt><trkpt lat="45.646100242081566" lon="11.333611296856894"><ele>732.0</ele><time>2026-03-26T15:11:25.998Z</time></trkpt><trkpt lat="45.645997907821474" lon="11.333687458466967"><ele>732.0</ele><time>2026-03-26T15:11:27.998Z</time></trkpt><trkpt lat="45.6459279769582" lon="11.33374075040405"><ele>732.0</ele><time>2026-03-26T15:11:28.998Z</time></trkpt><trkpt lat="45.645853213782935" lon="11.33376375234481"><ele>732.0</ele><time>2026-03-26T15:11:29.998Z</time></trkpt><trkpt lat="45.64579034250234" lon="11.333793560099796"><ele>736.0</ele><time>2026-03-26T15:11:30.998Z</time></trkpt><trkpt lat="45.6457696508482" lon="11.333905467904108"><ele>740.0</ele><time>2026-03-26T15:11:32.998Z</time></trkpt><trkpt lat="45.6456972395404" lon="11.333934070766604"><ele>744.0</ele><time>2026-03-26T15:11:35.998Z</time></trkpt><trkpt lat="45.645616301707264" lon="11.333796102532814"><ele>748.0</ele><time>2026-03-26T15:11:37.998Z</time></trkpt><trkpt lat="45.64556281741484" lon="11.33370550275773"><ele>752.0</ele><time>2026-03-26T15:11:38.998Z</time></trkpt><trkpt lat="45.64548651294162" lon="11.333647083290096"><ele>752.0</ele><time>2026-03-26T15:11:40.998Z</time></trkpt><trkpt lat="45.64541579804373" lon="11.33356692440427"><ele>752.0</ele><time>2026-03-26T15:11:42.998Z</time></trkpt><trkpt lat="45.64540175090148" lon="11.333478632369355"><ele>752.0</ele><time>2026-03-26T15:11:44.998Z</time></trkpt><trkpt lat="45.64533339095214" lon="11.333434776123084"><ele>752.0</ele><time>2026-03-26T15:11:46.998Z</time></trkpt><trkpt lat="45.64524696884065" lon="11.333401181050613"><ele>752.0</ele><time>2026-03-26T15:11:48.998Z</time></trkpt><trkpt lat="45.64513917248182" lon="11.333296106941898"><ele>752.0</ele><time>2026-03-26T15:11:50.998Z</time></trkpt><trkpt lat="45.64508509472718" lon="11.333218183732818"><ele>754.1666666666666</ele><time>2026-03-26T15:11:51.998Z</time></trkpt><trkpt lat="45.64504975987427" lon="11.333112133265994"><ele>756.3333333333333</ele><time>2026-03-26T15:11:52.998Z</time></trkpt><trkpt lat="45.644971846447525" lon="11.332984284732442"><ele>758.5</ele><time>2026-03-26T15:11:54.998Z</time></trkpt><trkpt lat="45.644894470662706" lon="11.332920489392704"><ele>760.6666666666666</ele><time>2026-03-26T15:11:56.998Z</time></trkpt><trkpt lat="45.644829515553184" lon="11.332906296639619"><ele>762.8333333333334</ele><time>2026-03-26T15:11:57.997Z</time></trkpt><trkpt lat="45.6447630791793" lon="11.33286048805805"><ele>765.0</ele><time>2026-03-26T15:11:58.997Z</time></trkpt><trkpt lat="45.644660375149535" lon="11.332832174091529"><ele>765.0</ele><time>2026-03-26T15:12:00.997Z</time></trkpt><trkpt lat="45.6445902734883" lon="11.332837422576251"><ele>765.0</ele><time>2026-03-26T15:12:02.997Z</time></trkpt><trkpt lat="45.64451058120405" lon="11.332918208995071"><ele>765.0</ele><time>2026-03-26T15:12:04.997Z</time></trkpt><trkpt lat="45.644406547516944" lon="11.332935866564211"><ele>765.0</ele><time>2026-03-26T15:12:06.997Z</time></trkpt><trkpt lat="45.644343496379385" lon="11.332987392312656"><ele>765.0</ele><time>2026-03-26T15:12:07.997Z</time></trkpt><trkpt lat="45.644257148942565" lon="11.332977299656491"><ele>765.0</ele><time>2026-03-26T15:12:09.997Z</time></trkpt><trkpt lat="45.644172564733275" lon="11.333034246221297"><ele>767.1666666666666</ele><time>2026-03-26T15:12:11Z</time></trkpt><trkpt lat="45.64408012257274" lon="11.333093743232972"><ele>769.3333333333333</ele><time>2026-03-26T15:12:12Z</time></trkpt><trkpt lat="45.64399783901025" lon="11.333157588948753"><ele>771.5</ele><time>2026-03-26T15:12:14Z</time></trkpt><trkpt lat="45.64393710283402" lon="11.33318226949052"><ele>773.6666666666666</ele><time>2026-03-26T15:12:15Z</time></trkpt><trkpt lat="45.64386036992138" lon="11.33320341958979"><ele>775.8333333333333</ele><time>2026-03-26T15:12:16Z</time></trkpt><trkpt lat="45.64380530551309" lon="11.333333404892919"><ele>778.0</ele><time>2026-03-26T15:12:18Z</time></trkpt><trkpt lat="45.6437839359745" lon="11.333431381027934"><ele>778.0</ele><time>2026-03-26T15:12:19Z</time></trkpt><trkpt lat="45.64376379248124" lon="11.333523739568221"><ele>778.0</ele><time>2026-03-26T15:12:20Z</time></trkpt><trkpt lat="45.64368440355866" lon="11.33365001765292"><ele>778.0</ele><time>2026-03-26T15:12:22Z</time></trkpt><trkpt lat="45.6436102348584" lon="11.33379158214819"><ele>778.0</ele><time>2026-03-26T15:12:24Z</time></trkpt><trkpt lat="45.643521152184455" lon="11.333872097848486"><ele>778.0</ele><time>2026-03-26T15:12:25Z</time></trkpt><trkpt lat="45.64344972351644" lon="11.333947905764251"><ele>775.4999999999999</ele><time>2026-03-26T15:12:26Z</time></trkpt><trkpt lat="45.643391282380904" lon="11.33403380639225"><ele>773.0</ele><time>2026-03-26T15:12:27Z</time></trkpt><trkpt lat="45.643356830259144" lon="11.334109762400256"><ele>770.5</ele><time>2026-03-26T15:12:28Z</time></trkpt><trkpt lat="45.643306466358084" lon="11.334251639741176"><ele>768.0</ele><time>2026-03-26T15:12:30Z</time></trkpt><trkpt lat="45.643255668405175" lon="11.334330485638915"><ele>765.5</ele><time>2026-03-26T15:12:34Z</time></trkpt><trkpt lat="45.64319983706797" lon="11.334372463777514"><ele>763.0</ele><time>2026-03-26T15:12:36Z</time></trkpt><trkpt lat="45.643267316874" lon="11.334394656814915"><ele>763.0</ele><time>2026-03-26T15:12:40Z</time></trkpt><trkpt lat="45.64332464107588" lon="11.334262472255693"><ele>763.0</ele><time>2026-03-26T15:12:42Z</time></trkpt><trkpt lat="45.64331732951982" lon="11.334152415817963"><ele>763.0</ele><time>2026-03-26T15:12:44Z</time></trkpt><trkpt lat="45.64323618624234" lon="11.334093098014053"><ele>763.0</ele><time>2026-03-26T15:12:45.999Z</time></trkpt><trkpt lat="45.64313837498439" lon="11.334088114555055"><ele>763.0</ele><time>2026-03-26T15:12:48.999Z</time></trkpt><trkpt lat="45.643070668542336" lon="11.334058223962696"><ele>763.0</ele><time>2026-03-26T15:12:50.999Z</time></trkpt><trkpt lat="45.642999902010885" lon="11.334016621613367"><ele>763.0</ele><time>2026-03-26T15:12:53.999Z</time></trkpt><trkpt lat="45.64293534504913" lon="11.333990049597078"><ele>763.0</ele><time>2026-03-26T15:12:56.999Z</time></trkpt><trkpt lat="45.64287899076918" lon="11.33403650239236"><ele>763.0</ele><time>2026-03-26T15:13:10.999Z</time></trkpt><trkpt lat="45.642812928528144" lon="11.334057443030336"><ele>763.0</ele><time>2026-03-26T15:13:55.998Z</time></trkpt><trkpt lat="45.642748979472856" lon="11.334039557129035"><ele>763.0</ele><time>2026-03-26T15:14:07.997Z</time></trkpt><trkpt lat="45.64265978344045" lon="11.333990573795933"><ele>763.0</ele><time>2026-03-26T15:17:19.999Z</time></trkpt><trkpt lat="45.64259741010458" lon="11.33396294563317"><ele>763.0</ele><time>2026-03-26T15:19:03.999Z</time></trkpt><trkpt lat="45.64263740561691" lon="11.333884843429129"><ele>756.8333333333334</ele><time>2026-03-26T15:19:26.999Z</time></trkpt><trkpt lat="45.64266102372208" lon="11.33380105343571"><ele>750.6666666666667</ele><time>2026-03-26T15:19:42.998Z</time></trkpt><trkpt lat="45.642691693837236" lon="11.333702503070727"><ele>744.5</ele><time>2026-03-26T15:20:05.998Z</time></trkpt><trkpt lat="45.64270770800542" lon="11.333602769451504"><ele>738.3333333333334</ele><time>2026-03-26T15:20:08.998Z</time></trkpt><trkpt lat="45.642707622288725" lon="11.33350435697382"><ele>732.1666666666666</ele><time>2026-03-26T15:20:10.998Z</time></trkpt><trkpt lat="45.64266874690464" lon="11.333416391735641"><ele>726.0</ele><time>2026-03-26T15:21:42.999Z</time></trkpt><trkpt lat="45.642581238707784" lon="11.333259014853102"><ele>725.9999999999999</ele><time>2026-03-26T15:27:10Z</time></trkpt><trkpt lat="45.642522688477605" lon="11.333301981866015"><ele>726.0</ele><time>2026-03-26T15:27:33.999Z</time></trkpt><trkpt lat="45.64246561613099" lon="11.333253952257127"><ele>726.0</ele><time>2026-03-26T15:27:55.999Z</time></trkpt><trkpt lat="45.642427224950765" lon="11.33316975847323"><ele>726.0</ele><time>2026-03-26T15:28:12.998Z</time></trkpt><trkpt lat="45.64241711903884" lon="11.333077920520171"><ele>726.0</ele><time>2026-03-26T15:28:27.998Z</time></trkpt><trkpt lat="45.64240094773188" lon="11.332967139111458"><ele>725.9999999999999</ele><time>2026-03-26T15:28:49.997Z</time></trkpt><trkpt lat="45.64233774209999" lon="11.332995990509644"><ele>726.0</ele><time>2026-03-26T15:29:09Z</time></trkpt><trkpt lat="45.64229610719735" lon="11.333081143842342"><ele>725.9999999999999</ele><time>2026-03-26T15:29:15Z</time></trkpt><trkpt lat="45.64226160396114" lon="11.33315979958929"><ele>726.0</ele><time>2026-03-26T15:29:18Z</time></trkpt><trkpt lat="45.64222695554343" lon="11.333237011142103"><ele>726.0</ele><time>2026-03-26T15:29:21Z</time></trkpt><trkpt lat="45.64217611838379" lon="11.333310661124226"><ele>726.0</ele><time>2026-03-26T15:29:25Z</time></trkpt><trkpt lat="45.64213046781682" lon="11.333373346295094"><ele>726.0</ele><time>2026-03-26T15:29:32.999Z</time></trkpt><trkpt lat="45.64213316860959" lon="11.33326803339218"><ele>725.9999999999999</ele><time>2026-03-26T15:29:44.999Z</time></trkpt><trkpt lat="45.64212513941892" lon="11.333153297170735"><ele>726.0</ele><time>2026-03-26T15:29:48.999Z</time></trkpt><trkpt lat="45.642114374914854" lon="11.333030304515459"><ele>724.5</ele><time>2026-03-26T15:29:55.999Z</time></trkpt><trkpt lat="45.642119327194784" lon="11.332932611907841"><ele>723.0</ele><time>2026-03-26T15:30:04.999Z</time></trkpt><trkpt lat="45.64216632274175" lon="11.332848685428436"><ele>721.5</ele><time>2026-03-26T15:30:08.998Z</time></trkpt><trkpt lat="45.64215923057185" lon="11.332723458167644"><ele>720.0</ele><time>2026-03-26T15:30:12.998Z</time></trkpt><trkpt lat="45.64213749872073" lon="11.332634878128276"><ele>718.5</ele><time>2026-03-26T15:30:16.998Z</time></trkpt><trkpt lat="45.64206562329197" lon="11.332549185406817"><ele>717.0</ele><time>2026-03-26T15:30:19.998Z</time></trkpt><trkpt lat="45.642040209880115" lon="11.33245578696691"><ele>717.0</ele><time>2026-03-26T15:30:23.998Z</time></trkpt><trkpt lat="45.641966940522195" lon="11.332385911436663"><ele>717.0</ele><time>2026-03-26T15:30:26.998Z</time></trkpt><trkpt lat="45.641912939189936" lon="11.332304640574812"><ele>717.0</ele><time>2026-03-26T15:30:29.998Z</time></trkpt><trkpt lat="45.64191074988002" lon="11.332186473938012"><ele>717.0</ele><time>2026-03-26T15:30:31.998Z</time></trkpt><trkpt lat="45.64189773616787" lon="11.332081921170504"><ele>717.0</ele><time>2026-03-26T15:30:33.998Z</time></trkpt><trkpt lat="45.64186030906592" lon="11.332004754763547"><ele>717.0</ele><time>2026-03-26T15:30:35.998Z</time></trkpt><trkpt lat="45.64183259928053" lon="11.331883238533035"><ele>710.0</ele><time>2026-03-26T15:30:37.998Z</time></trkpt><trkpt lat="45.641788100138974" lon="11.33180669502851"><ele>703.0</ele><time>2026-03-26T15:30:39.998Z</time></trkpt><trkpt lat="45.64172713037156" lon="11.331687095790047"><ele>696.0</ele><time>2026-03-26T15:30:42.997Z</time></trkpt><trkpt lat="45.64170342850237" lon="11.331549411204977"><ele>689.0</ele><time>2026-03-26T15:30:44.997Z</time></trkpt><trkpt lat="45.64165375875099" lon="11.331439557735811"><ele>682.0</ele><time>2026-03-26T15:30:47.997Z</time></trkpt><trkpt lat="45.64161534047797" lon="11.331363902282082"><ele>675.0</ele><time>2026-03-26T15:30:48.997Z</time></trkpt><trkpt lat="45.641570838561506" lon="11.331285218286753"><ele>673.7142857142857</ele><time>2026-03-26T15:30:55.997Z</time></trkpt><trkpt lat="45.64150381751135" lon="11.331270327690147"><ele>672.4285714285714</ele><time>2026-03-26T15:31:08Z</time></trkpt><trkpt lat="45.641446465230814" lon="11.331212882446039"><ele>671.1428571428571</ele><time>2026-03-26T15:31:13Z</time></trkpt><trkpt lat="45.641402454490105" lon="11.331136713686112"><ele>669.8571428571429</ele><time>2026-03-26T15:31:17Z</time></trkpt><trkpt lat="45.64132641999773" lon="11.3311442900476"><ele>668.5714285714286</ele><time>2026-03-26T15:31:41.999Z</time></trkpt><trkpt lat="45.641388232539235" lon="11.331191503741197"><ele>667.2857142857143</ele><time>2026-03-26T15:31:48.999Z</time></trkpt><trkpt lat="45.64140310155569" lon="11.331307635477875"><ele>666.0</ele><time>2026-03-26T15:31:54.999Z</time></trkpt><trkpt lat="45.64132587438047" lon="11.331352624378656"><ele>666.0</ele><time>2026-03-26T15:32:04.999Z</time></trkpt><trkpt lat="45.641251849791225" lon="11.33131292918998"><ele>666.0</ele><time>2026-03-26T15:32:08.999Z</time></trkpt><trkpt lat="45.64117674848597" lon="11.331249322962584"><ele>666.0</ele><time>2026-03-26T15:32:12.999Z</time></trkpt><trkpt lat="45.641112033012995" lon="11.331261248119057"><ele>666.0</ele><time>2026-03-26T15:32:16.998Z</time></trkpt><trkpt lat="45.64105602781836" lon="11.33121481424488"><ele>666.0</ele><time>2026-03-26T15:32:18.998Z</time></trkpt><trkpt lat="45.64100498683374" lon="11.331152190083525"><ele>666.0</ele><time>2026-03-26T15:32:21.998Z</time></trkpt><trkpt lat="45.640942564960596" lon="11.331093695967958"><ele>666.0</ele><time>2026-03-26T15:32:25.998Z</time></trkpt><trkpt lat="45.640885587403744" lon="11.33104477424648"><ele>662.6666666666666</ele><time>2026-03-26T15:32:27.998Z</time></trkpt><trkpt lat="45.640817464289135" lon="11.330955337103163"><ele>659.3333333333334</ele><time>2026-03-26T15:32:30.998Z</time></trkpt><trkpt lat="45.64074629699665" lon="11.33083062807694"><ele>656.0</ele><time>2026-03-26T15:32:32.998Z</time></trkpt><trkpt lat="45.6407174326409" lon="11.330737984367413"><ele>652.6666666666667</ele><time>2026-03-26T15:32:34.998Z</time></trkpt><trkpt lat="45.640692719760914" lon="11.330616561849551"><ele>649.3333333333334</ele><time>2026-03-26T15:32:36.998Z</time></trkpt><trkpt lat="45.640658118301815" lon="11.330529790108658"><ele>646.0</ele><time>2026-03-26T15:32:39.998Z</time></trkpt><trkpt lat="45.64054601086271" lon="11.330453411552936"><ele>643.0</ele><time>2026-03-26T15:32:55.997Z</time></trkpt><trkpt lat="45.64044551048365" lon="11.33046067501915"><ele>640.0</ele><time>2026-03-26T15:32:56.997Z</time></trkpt><trkpt lat="45.6403745383965" lon="11.33045961163449"><ele>637.0</ele><time>2026-03-26T15:32:57.997Z</time></trkpt><trkpt lat="45.640293704625506" lon="11.33047067373572"><ele>634.0</ele><time>2026-03-26T15:32:58.997Z</time></trkpt><trkpt lat="45.64013031307683" lon="11.330503503750638"><ele>631.0</ele><time>2026-03-26T15:33:01.997Z</time></trkpt><trkpt lat="45.64001983122972" lon="11.330576550343045"><ele>629.4</ele><time>2026-03-26T15:33:02.997Z</time></trkpt><trkpt lat="45.63990925255183" lon="11.330618635711186"><ele>627.8</ele><time>2026-03-26T15:33:03.997Z</time></trkpt><trkpt lat="45.63979770923088" lon="11.330649038124793"><ele>626.1999999999999</ele><time>2026-03-26T15:33:04.997Z</time></trkpt><trkpt lat="45.63970779095664" lon="11.33068862047477"><ele>624.6</ele><time>2026-03-26T15:33:05.997Z</time></trkpt><trkpt lat="45.63961750230477" lon="11.330746122371274"><ele>623.0</ele><time>2026-03-26T15:33:06.997Z</time></trkpt><trkpt lat="45.63954642513737" lon="11.330800558580457"><ele>620.0</ele><time>2026-03-26T15:33:07.997Z</time></trkpt><trkpt lat="45.63942555017045" lon="11.330782253923553"><ele>617.0</ele><time>2026-03-26T15:33:09.997Z</time></trkpt><trkpt lat="45.63931671211814" lon="11.330664863612915"><ele>614.0</ele><time>2026-03-26T15:33:12Z</time></trkpt><trkpt lat="45.639198566761124" lon="11.330672499311332"><ele>611.0</ele><time>2026-03-26T15:33:14Z</time></trkpt><trkpt lat="45.63912750568782" lon="11.330715227226943"><ele>611.0</ele><time>2026-03-26T15:33:16Z</time></trkpt><trkpt lat="45.63905913239981" lon="11.33072037294039"><ele>611.0</ele><time>2026-03-26T15:33:18Z</time></trkpt><trkpt lat="45.63895502577708" lon="11.330710296281747"><ele>611.0</ele><time>2026-03-26T15:33:28Z</time></trkpt><trkpt lat="45.63888340748768" lon="11.33069854322152"><ele>611.0</ele><time>2026-03-26T15:33:29Z</time></trkpt><trkpt lat="45.638807103233475" lon="11.330687707032354"><ele>611.0</ele><time>2026-03-26T15:33:30Z</time></trkpt><trkpt lat="45.638725576456245" lon="11.330662972731147"><ele>611.0</ele><time>2026-03-26T15:33:31Z</time></trkpt><trkpt lat="45.63864552095191" lon="11.33063359754133"><ele>610.8</ele><time>2026-03-26T15:33:32Z</time></trkpt><trkpt lat="45.63856235736109" lon="11.33060215901306"><ele>610.6</ele><time>2026-03-26T15:33:33Z</time></trkpt><trkpt lat="45.638486117450256" lon="11.330560332445007"><ele>610.4</ele><time>2026-03-26T15:33:34Z</time></trkpt><trkpt lat="45.63837316767936" lon="11.330537759172786"><ele>610.2</ele><time>2026-03-26T15:33:35Z</time></trkpt><trkpt lat="45.638268488375395" lon="11.330483501926741"><ele>610.0</ele><time>2026-03-26T15:33:37Z</time></trkpt><trkpt lat="45.638144965546" lon="11.33043218964648"><ele>610.5</ele><time>2026-03-26T15:33:39Z</time></trkpt><trkpt lat="45.638014599806866" lon="11.33043045644549"><ele>611.0</ele><time>2026-03-26T15:33:40Z</time></trkpt><trkpt lat="45.63787016766182" lon="11.330425493835872"><ele>611.5</ele><time>2026-03-26T15:33:41.999Z</time></trkpt><trkpt lat="45.63780338805899" lon="11.330384916264599"><ele>612.0</ele><time>2026-03-26T15:33:42.999Z</time></trkpt><trkpt lat="45.63766978592462" lon="11.330278535162304"><ele>612.0</ele><time>2026-03-26T15:33:44.999Z</time></trkpt><trkpt lat="45.63760932909872" lon="11.330244483197541"><ele>612.0</ele><time>2026-03-26T15:33:45.999Z</time></trkpt><trkpt lat="45.637521976031806" lon="11.330146755714951"><ele>612.0</ele><time>2026-03-26T15:33:46.999Z</time></trkpt><trkpt lat="45.63744831158949" lon="11.330046531179306"><ele>612.0</ele><time>2026-03-26T15:33:47.999Z</time></trkpt><trkpt lat="45.63737945807958" lon="11.329920033237217"><ele>612.0</ele><time>2026-03-26T15:33:48.999Z</time></trkpt><trkpt lat="45.63732478243273" lon="11.329800057157929"><ele>610.0</ele><time>2026-03-26T15:33:49.999Z</time></trkpt><trkpt lat="45.63726203123979" lon="11.329679800136386"><ele>608.0</ele><time>2026-03-26T15:33:50.999Z</time></trkpt><trkpt lat="45.637184964720795" lon="11.329578729797682"><ele>606.0</ele><time>2026-03-26T15:33:51.999Z</time></trkpt><trkpt lat="45.63714333976998" lon="11.32946851795429"><ele>604.0</ele><time>2026-03-26T15:33:52.999Z</time></trkpt><trkpt lat="45.63710888206362" lon="11.329376712082944"><ele>602.0</ele><time>2026-03-26T15:33:53.999Z</time></trkpt><trkpt lat="45.63701256521566" lon="11.329243898421911"><ele>602.0</ele><time>2026-03-26T15:33:55.999Z</time></trkpt><trkpt lat="45.63696252484796" lon="11.32916649435605"><ele>602.0</ele><time>2026-03-26T15:33:57.999Z</time></trkpt><trkpt lat="45.63701286513112" lon="11.329248619529489"><ele>602.0</ele><time>2026-03-26T15:34:02.999Z</time></trkpt><trkpt lat="45.63708921284176" lon="11.329336186835963"><ele>602.0</ele><time>2026-03-26T15:34:03.999Z</time></trkpt><trkpt lat="45.637135408092355" lon="11.329431995617046"><ele>602.0</ele><time>2026-03-26T15:34:04.999Z</time></trkpt><trkpt lat="45.63718215357775" lon="11.329513454438722"><ele>602.0</ele><time>2026-03-26T15:34:05.999Z</time></trkpt><trkpt lat="45.63722560242274" lon="11.329608816187296"><ele>602.0</ele><time>2026-03-26T15:34:07.999Z</time></trkpt><trkpt lat="45.63726740784044" lon="11.329703835624969"><ele>602.0</ele><time>2026-03-26T15:34:09.999Z</time></trkpt><trkpt lat="45.63732551533012" lon="11.32980012876742"><ele>602.0</ele><time>2026-03-26T15:34:10.999Z</time></trkpt><trkpt lat="45.63736804796727" lon="11.329888785902451"><ele>602.0</ele><time>2026-03-26T15:34:11.999Z</time></trkpt><trkpt lat="45.63741476962308" lon="11.329991290259759"><ele>602.0</ele><time>2026-03-26T15:34:12.999Z</time></trkpt><trkpt lat="45.6375210161616" lon="11.330155452083435"><ele>602.0</ele><time>2026-03-26T15:34:14.999Z</time></trkpt><trkpt lat="45.63743479981277" lon="11.3299715343161"><ele>602.0</ele><time>2026-03-26T15:34:25.998Z</time></trkpt><trkpt lat="45.63731497418337" lon="11.32978213641898"><ele>602.0</ele><time>2026-03-26T15:34:27.998Z</time></trkpt><trkpt lat="45.63723919639145" lon="11.329704108211704"><ele>602.0</ele><time>2026-03-26T15:34:28.998Z</time></trkpt><trkpt lat="45.63723933623534" lon="11.329613121971658"><ele>602.0</ele><time>2026-03-26T15:34:29.998Z</time></trkpt><trkpt lat="45.63731118342743" lon="11.32944056845362"><ele>602.0</ele><time>2026-03-26T15:34:33.998Z</time></trkpt><trkpt lat="45.637312128482215" lon="11.329288672916812"><ele>602.0</ele><time>2026-03-26T15:34:35.998Z</time></trkpt><trkpt lat="45.63732763348669" lon="11.329115730788228"><ele>602.0</ele><time>2026-03-26T15:34:37.998Z</time></trkpt><trkpt lat="45.63728926967865" lon="11.32894635592937"><ele>600.5</ele><time>2026-03-26T15:34:39.998Z</time></trkpt><trkpt lat="45.63730488978075" lon="11.3288421128962"><ele>599.0</ele><time>2026-03-26T15:34:40.998Z</time></trkpt><trkpt lat="45.6373246276598" lon="11.328744215045136"><ele>597.5</ele><time>2026-03-26T15:34:41.998Z</time></trkpt><trkpt lat="45.63735223620146" lon="11.328578087514783"><ele>596.0</ele><time>2026-03-26T15:34:43.998Z</time></trkpt><trkpt lat="45.63739313454395" lon="11.328438639366261"><ele>594.5</ele><time>2026-03-26T15:34:45.998Z</time></trkpt><trkpt lat="45.63743711439839" lon="11.328359919670907"><ele>593.0</ele><time>2026-03-26T15:34:47.998Z</time></trkpt><trkpt lat="45.637499579099355" lon="11.328389605452202"><ele>593.0</ele><time>2026-03-26T15:34:49.998Z</time></trkpt><trkpt lat="45.637530908347856" lon="11.328473830747324"><ele>593.0</ele><time>2026-03-26T15:34:50.998Z</time></trkpt><trkpt lat="45.63756504727332" lon="11.328555447696726"><ele>593.0</ele><time>2026-03-26T15:34:51.998Z</time></trkpt><trkpt lat="45.63757522403506" lon="11.328677537002847"><ele>593.0</ele><time>2026-03-26T15:34:53.998Z</time></trkpt><trkpt lat="45.63767102199476" lon="11.328713779072812"><ele>593.0</ele><time>2026-03-26T15:34:55.998Z</time></trkpt><trkpt lat="45.6377365850284" lon="11.328696894568978"><ele>593.0</ele><time>2026-03-26T15:34:57.997Z</time></trkpt><trkpt lat="45.63782514041074" lon="11.328662153135099"><ele>589.8571428571428</ele><time>2026-03-26T15:34:59.997Z</time></trkpt><trkpt lat="45.637909755746506" lon="11.328610157926885"><ele>586.7142857142857</ele><time>2026-03-26T15:35:01.997Z</time></trkpt><trkpt lat="45.63797083959545" lon="11.328576093746188"><ele>583.5714285714286</ele><time>2026-03-26T15:35:02.997Z</time></trkpt><trkpt lat="45.63803488976754" lon="11.328524693982143"><ele>580.4285714285713</ele><time>2026-03-26T15:35:03.997Z</time></trkpt><trkpt lat="45.63808895711636" lon="11.328469391151897"><ele>577.2857142857142</ele><time>2026-03-26T15:35:04.997Z</time></trkpt><trkpt lat="45.63813906712614" lon="11.328402220082705"><ele>574.1428571428571</ele><time>2026-03-26T15:35:05.997Z</time></trkpt><trkpt lat="45.63818029634894" lon="11.32833379095547"><ele>571.0</ele><time>2026-03-26T15:35:06.997Z</time></trkpt><trkpt lat="45.63821717109982" lon="11.328250056928816"><ele>571.0</ele><time>2026-03-26T15:35:07.997Z</time></trkpt><trkpt lat="45.63825297586975" lon="11.328150488266237"><ele>571.0</ele><time>2026-03-26T15:35:08.997Z</time></trkpt><trkpt lat="45.638302610874774" lon="11.328079116513386"><ele>571.0</ele><time>2026-03-26T15:35:09.997Z</time></trkpt><trkpt lat="45.638359690791766" lon="11.327943391675252"><ele>571.0</ele><time>2026-03-26T15:35:11.997Z</time></trkpt><trkpt lat="45.63839306480747" lon="11.327828499640262"><ele>571.0</ele><time>2026-03-26T15:35:13.997Z</time></trkpt><trkpt lat="45.63843814139937" lon="11.32772614995467"><ele>571.0</ele><time>2026-03-26T15:35:15.997Z</time></trkpt><trkpt lat="45.638459779812514" lon="11.327622439524822"><ele>570.5</ele><time>2026-03-26T15:35:18Z</time></trkpt><trkpt lat="45.63847209301494" lon="11.327522606201374"><ele>570.0</ele><time>2026-03-26T15:35:20Z</time></trkpt><trkpt lat="45.63858224693207" lon="11.327473716688294"><ele>569.5</ele><time>2026-03-26T15:35:22Z</time></trkpt><trkpt lat="45.63867979911913" lon="11.327505500531975"><ele>569.0</ele><time>2026-03-26T15:35:24Z</time></trkpt><trkpt lat="45.63874302042858" lon="11.32751957431713"><ele>568.5</ele><time>2026-03-26T15:35:25Z</time></trkpt><trkpt lat="45.638817497146974" lon="11.32752298269452"><ele>568.0</ele><time>2026-03-26T15:35:26Z</time></trkpt><trkpt lat="45.63887804611189" lon="11.327576911579314"><ele>567.3333333333334</ele><time>2026-03-26T15:35:27Z</time></trkpt><trkpt lat="45.63897156581188" lon="11.327674776836448"><ele>566.6666666666667</ele><time>2026-03-26T15:35:29Z</time></trkpt><trkpt lat="45.639002472535935" lon="11.327765561140561"><ele>566.0</ele><time>2026-03-26T15:35:30Z</time></trkpt><trkpt lat="45.63904675151152" lon="11.327838513096527"><ele>565.3333333333334</ele><time>2026-03-26T15:35:31Z</time></trkpt><trkpt lat="45.6390965428652" lon="11.32790801105148"><ele>564.6666666666666</ele><time>2026-03-26T15:35:32Z</time></trkpt><trkpt lat="45.63919972295595" lon="11.328000554931103"><ele>564.0</ele><time>2026-03-26T15:35:34Z</time></trkpt><trkpt lat="45.63928814972594" lon="11.328104472144881"><ele>564.0</ele><time>2026-03-26T15:35:36Z</time></trkpt><trkpt lat="45.63938126848748" lon="11.328154145951405"><ele>564.0</ele><time>2026-03-26T15:35:37Z</time></trkpt><trkpt lat="45.63946451136476" lon="11.328152202953087"><ele>564.0</ele><time>2026-03-26T15:35:38Z</time></trkpt><trkpt lat="45.639560084362046" lon="11.328134444465011"><ele>564.0</ele><time>2026-03-26T15:35:39Z</time></trkpt><trkpt lat="45.6396643940534" lon="11.328110490569994"><ele>564.0</ele><time>2026-03-26T15:35:40Z</time></trkpt><trkpt lat="45.639774851660135" lon="11.328085124716294"><ele>562.4</ele><time>2026-03-26T15:35:42Z</time></trkpt><trkpt lat="45.63995205722385" lon="11.328051930915775"><ele>560.8</ele><time>2026-03-26T15:35:43Z</time></trkpt><trkpt lat="45.640023666502536" lon="11.328005789006498"><ele>559.2</ele><time>2026-03-26T15:35:45Z</time></trkpt><trkpt lat="45.64008204893479" lon="11.327965405184289"><ele>557.6</ele><time>2026-03-26T15:35:46Z</time></trkpt><trkpt lat="45.64014503351207" lon="11.327922771733663"><ele>556.0</ele><time>2026-03-26T15:35:47.999Z</time></trkpt><trkpt lat="45.64021900316993" lon="11.327875579979262"><ele>556.0</ele><time>2026-03-26T15:35:49.999Z</time></trkpt><trkpt lat="45.639792926768386" lon="11.32740666740276"><ele>556.0</ele><time>2026-03-26T15:36:09.999Z</time></trkpt><trkpt lat="45.63971575022535" lon="11.327476750607529"><ele>556.0</ele><time>2026-03-26T15:36:10.999Z</time></trkpt><trkpt lat="45.639605072601874" lon="11.327571996821376"><ele>556.0</ele><time>2026-03-26T15:36:12.999Z</time></trkpt><trkpt lat="45.63955105688309" lon="11.327651906218236"><ele>556.0</ele><time>2026-03-26T15:36:13.999Z</time></trkpt><trkpt lat="45.63948922493353" lon="11.327702167856947"><ele>556.0</ele><time>2026-03-26T15:36:14.999Z</time></trkpt><trkpt lat="45.639437690648585" lon="11.327754470119988"><ele>556.0</ele><time>2026-03-26T15:36:15.999Z</time></trkpt><trkpt lat="45.63938234184078" lon="11.327809461375171"><ele>556.3333333333334</ele><time>2026-03-26T15:36:17.999Z</time></trkpt><trkpt lat="45.63933107827185" lon="11.32790941052853"><ele>556.6666666666667</ele><time>2026-03-26T15:36:27.998Z</time></trkpt><trkpt lat="45.63925444601583" lon="11.327977509251072"><ele>557.0</ele><time>2026-03-26T15:36:29.998Z</time></trkpt><trkpt lat="45.63919753682429" lon="11.327918414555112"><ele>557.3333333333334</ele><time>2026-03-26T15:36:32.998Z</time></trkpt><trkpt lat="45.63910482672453" lon="11.327840879478677"><ele>557.6666666666666</ele><time>2026-03-26T15:36:36.998Z</time></trkpt><trkpt lat="45.63908647090198" lon="11.327746474080033"><ele>558.0</ele><time>2026-03-26T15:36:39.998Z</time></trkpt><trkpt lat="45.63925582609853" lon="11.327531661219725"><ele>558.0</ele><time>2026-03-26T15:36:40.998Z</time></trkpt><trkpt lat="45.63924060122562" lon="11.327441804158873"><ele>558.0</ele><time>2026-03-26T15:36:42.998Z</time></trkpt><trkpt lat="45.63919908760731" lon="11.32737049471234"><ele>558.0</ele><time>2026-03-26T15:36:46.998Z</time></trkpt><trkpt lat="45.63914349480681" lon="11.327305266373422"><ele>558.0</ele><time>2026-03-26T15:36:52.998Z</time></trkpt><trkpt lat="45.63920814002828" lon="11.327400866902245"><ele>558.0</ele><time>2026-03-26T15:37:21.997Z</time></trkpt><trkpt lat="45.63922450444106" lon="11.327522879615"><ele>558.0</ele><time>2026-03-26T15:37:24Z</time></trkpt><trkpt lat="45.63918677947296" lon="11.327692310361726"><ele>558.0</ele><time>2026-03-26T15:37:26Z</time></trkpt><trkpt lat="45.63916615251294" lon="11.327837237898848"><ele>558.0</ele><time>2026-03-26T15:37:28Z</time></trkpt><trkpt lat="45.6392095930878" lon="11.327933568530714"><ele>558.0</ele><time>2026-03-26T15:37:30Z</time></trkpt><trkpt lat="45.63925525832772" lon="11.328048863919992"><ele>558.0</ele><time>2026-03-26T15:37:32Z</time></trkpt><trkpt lat="45.63930655835393" lon="11.32810889026642"><ele>558.0</ele><time>2026-03-26T15:37:33Z</time></trkpt><trkpt lat="45.639381334551516" lon="11.328154139406127"><ele>558.0</ele><time>2026-03-26T15:37:34Z</time></trkpt><trkpt lat="45.639446060966264" lon="11.328155744418472"><ele>557.5</ele><time>2026-03-26T15:37:35Z</time></trkpt><trkpt lat="45.63954555001886" lon="11.328137782204227"><ele>557.0</ele><time>2026-03-26T15:37:37Z</time></trkpt><trkpt lat="45.63965221812588" lon="11.32811328667467"><ele>556.5</ele><time>2026-03-26T15:37:39Z</time></trkpt><trkpt lat="45.63973590819142" lon="11.32809406784986"><ele>556.0</ele><time>2026-03-26T15:37:40Z</time></trkpt><trkpt lat="45.63997198725669" lon="11.32803908869951"><ele>556.0</ele><time>2026-03-26T15:37:42Z</time></trkpt><trkpt lat="45.64003455414139" lon="11.327998193892306"><ele>556.0</ele><time>2026-03-26T15:37:43Z</time></trkpt><trkpt lat="45.640128824376504" lon="11.327933113062135"><ele>556.0</ele><time>2026-03-26T15:37:45Z</time></trkpt><trkpt lat="45.64022616795447" lon="11.327871008916484"><ele>556.0</ele><time>2026-03-26T15:37:48Z</time></trkpt><trkpt lat="45.640053011697375" lon="11.327089679712623"><ele>553.6</ele><time>2026-03-26T15:37:49Z</time></trkpt><trkpt lat="45.64010419125085" lon="11.326994057421857"><ele>551.2</ele><time>2026-03-26T15:37:50Z</time></trkpt><trkpt lat="45.64016212794424" lon="11.326898505720006"><ele>548.8</ele><time>2026-03-26T15:37:52Z</time></trkpt><trkpt lat="45.64028010692499" lon="11.326836364429312"><ele>546.4</ele><time>2026-03-26T15:37:53.999Z</time></trkpt><trkpt lat="45.64039954129297" lon="11.326766883445567"><ele>544.0</ele><time>2026-03-26T15:37:55.999Z</time></trkpt><trkpt lat="45.6404878341535" lon="11.326729400905453"><ele>544.0</ele><time>2026-03-26T15:37:56.999Z</time></trkpt><trkpt lat="45.640596994364465" lon="11.326703990812915"><ele>544.0</ele><time>2026-03-26T15:37:57.999Z</time></trkpt><trkpt lat="45.640704239192225" lon="11.326708026366406"><ele>544.0</ele><time>2026-03-26T15:37:58.999Z</time></trkpt><trkpt lat="45.64078004098622" lon="11.326713586813563"><ele>544.0</ele><time>2026-03-26T15:37:59.999Z</time></trkpt><trkpt lat="45.64089138210499" lon="11.326672573536792"><ele>544.0</ele><time>2026-03-26T15:38:01.999Z</time></trkpt><trkpt lat="45.640948158346404" lon="11.326625862723239"><ele>544.0</ele><time>2026-03-26T15:38:02.999Z</time></trkpt><trkpt lat="45.641006467106365" lon="11.326583150476608"><ele>544.0</ele><time>2026-03-26T15:38:03.999Z</time></trkpt><trkpt lat="45.641107860903325" lon="11.326478073242054"><ele>544.0</ele><time>2026-03-26T15:38:05.999Z</time></trkpt><trkpt lat="45.641150590163946" lon="11.326410533263433"><ele>544.0</ele><time>2026-03-26T15:38:06.999Z</time></trkpt><trkpt lat="45.6412043523172" lon="11.326335080884741"><ele>544.0</ele><time>2026-03-26T15:38:08.999Z</time></trkpt><trkpt lat="45.64125483886364" lon="11.326247971465436"><ele>544.0</ele><time>2026-03-26T15:38:11.999Z</time></trkpt><trkpt lat="45.641285583078044" lon="11.326160434086297"><ele>539.4</ele><time>2026-03-26T15:38:14.999Z</time></trkpt><trkpt lat="45.64121730326568" lon="11.326096257484782"><ele>534.8</ele><time>2026-03-26T15:38:17.999Z</time></trkpt><trkpt lat="45.64109871141289" lon="11.32603699405033"><ele>530.2</ele><time>2026-03-26T15:38:19.999Z</time></trkpt><trkpt lat="45.64104143087493" lon="11.325994489810762"><ele>525.6</ele><time>2026-03-26T15:38:20.999Z</time></trkpt><trkpt lat="45.640975470630025" lon="11.325846556816066"><ele>521.0</ele><time>2026-03-26T15:38:22.999Z</time></trkpt><trkpt lat="45.640929852137184" lon="11.32574207906056"><ele>521.0</ele><time>2026-03-26T15:38:23.999Z</time></trkpt><trkpt lat="45.640872545938905" lon="11.325641511299708"><ele>521.0</ele><time>2026-03-26T15:38:24.999Z</time></trkpt><trkpt lat="45.6408223762267" lon="11.325560422465077"><ele>521.0</ele><time>2026-03-26T15:38:25.999Z</time></trkpt><trkpt lat="45.640735249331556" lon="11.325455495687855"><ele>521.0</ele><time>2026-03-26T15:38:27.999Z</time></trkpt><trkpt lat="45.64071744088151" lon="11.325347230779197"><ele>521.0</ele><time>2026-03-26T15:38:29.999Z</time></trkpt><trkpt lat="45.640712939690715" lon="11.32520737797598"><ele>517.5</ele><time>2026-03-26T15:38:31.998Z</time></trkpt><trkpt lat="45.64069787470732" lon="11.32510240716138"><ele>514.0</ele><time>2026-03-26T15:38:33.998Z</time></trkpt><trkpt lat="45.6407170320838" lon="11.325012700424008"><ele>510.5</ele><time>2026-03-26T15:38:37.998Z</time></trkpt><trkpt lat="45.64062429055918" lon="11.324911043667289"><ele>507.0</ele><time>2026-03-26T15:38:42.998Z</time></trkpt><trkpt lat="45.64056814088909" lon="11.324830982388246"><ele>503.49999999999994</ele><time>2026-03-26T15:38:44.998Z</time></trkpt><trkpt lat="45.64053070181523" lon="11.324732225590722"><ele>500.0</ele><time>2026-03-26T15:38:46.998Z</time></trkpt><trkpt lat="45.64047565329263" lon="11.324638774977792"><ele>497.3333333333333</ele><time>2026-03-26T15:38:49.998Z</time></trkpt><trkpt lat="45.64044315955561" lon="11.324526245517347"><ele>494.66666666666663</ele><time>2026-03-26T15:38:51.998Z</time></trkpt><trkpt lat="45.64037282892352" lon="11.324420222462365"><ele>492.0</ele><time>2026-03-26T15:38:53.998Z</time></trkpt><trkpt lat="45.640295391299034" lon="11.32435468890361"><ele>489.33333333333337</ele><time>2026-03-26T15:38:55.998Z</time></trkpt><trkpt lat="45.64023362623346" lon="11.32432439302671"><ele>486.6666666666667</ele><time>2026-03-26T15:38:57.998Z</time></trkpt><trkpt lat="45.64014240198237" lon="11.32427581115525"><ele>484.0</ele><time>2026-03-26T15:38:59.998Z</time></trkpt><trkpt lat="45.64005312089237" lon="11.324192022459153"><ele>483.2</ele><time>2026-03-26T15:39:01.998Z</time></trkpt><trkpt lat="45.6399662770015" lon="11.324083996262784"><ele>482.4</ele><time>2026-03-26T15:39:03.998Z</time></trkpt><trkpt lat="45.639925484278095" lon="11.323982955621059"><ele>481.6</ele><time>2026-03-26T15:39:05.998Z</time></trkpt><trkpt lat="45.639952484764905" lon="11.323865418332408"><ele>480.8</ele><time>2026-03-26T15:39:07.998Z</time></trkpt><trkpt lat="45.639895647115296" lon="11.323790851642581"><ele>480.0</ele><time>2026-03-26T15:39:10.997Z</time></trkpt><trkpt lat="45.63981018437092" lon="11.323659317166623"><ele>476.3333333333333</ele><time>2026-03-26T15:39:12.997Z</time></trkpt><trkpt lat="45.63978238252255" lon="11.323577946910376"><ele>472.66666666666663</ele><time>2026-03-26T15:39:13.997Z</time></trkpt><trkpt lat="45.63978473919821" lon="11.323430308910732"><ele>469.0</ele><time>2026-03-26T15:39:15.997Z</time></trkpt><trkpt lat="45.63976061012264" lon="11.323308333409468"><ele>465.3333333333333</ele><time>2026-03-26T15:39:18.997Z</time></trkpt><trkpt lat="45.639729581315805" lon="11.323217497202684"><ele>461.66666666666663</ele><time>2026-03-26T15:39:22.997Z</time></trkpt><trkpt lat="45.63966448338577" lon="11.323198567976458"><ele>458.0</ele><time>2026-03-26T15:39:30Z</time></trkpt><trkpt lat="45.639635075438875" lon="11.323093524791728"><ele>456.1428571428571</ele><time>2026-03-26T15:39:43Z</time></trkpt><trkpt lat="45.63962899194333" lon="11.322998868225145"><ele>454.28571428571433</ele><time>2026-03-26T15:39:51Z</time></trkpt><trkpt lat="45.63959713042478" lon="11.322908653555137"><ele>452.42857142857144</ele><time>2026-03-26T15:39:57Z</time></trkpt><trkpt lat="45.639589252286065" lon="11.322803848694843"><ele>450.57142857142856</ele><time>2026-03-26T15:40:18.999Z</time></trkpt><trkpt lat="45.639569975156974" lon="11.322709525046324"><ele>448.71428571428567</ele><time>2026-03-26T15:40:23.999Z</time></trkpt><trkpt lat="45.63952815110659" lon="11.322624381004712"><ele>446.8571428571429</ele><time>2026-03-26T15:40:25.999Z</time></trkpt><trkpt lat="45.63948142332049" lon="11.322534424919871"><ele>445.0</ele><time>2026-03-26T15:40:27.999Z</time></trkpt><trkpt lat="45.6394980925104" lon="11.322438757736828"><ele>443.00000000000006</ele><time>2026-03-26T15:40:28.999Z</time></trkpt><trkpt lat="45.639439802817265" lon="11.322360561519474"><ele>441.0</ele><time>2026-03-26T15:40:30.999Z</time></trkpt><trkpt lat="45.63938035027255" lon="11.322326396261207"><ele>439.0</ele><time>2026-03-26T15:40:32.999Z</time></trkpt><trkpt lat="45.6392943814011" lon="11.322301919594963"><ele>437.0</ele><time>2026-03-26T15:40:34.999Z</time></trkpt><trkpt lat="45.63920721845797" lon="11.32227003594374"><ele>435.00000000000006</ele><time>2026-03-26T15:40:36.999Z</time></trkpt><trkpt lat="45.63911922149063" lon="11.322290899951662"><ele>433.0</ele><time>2026-03-26T15:40:38.999Z</time></trkpt><trkpt lat="45.63905311990128" lon="11.322381074740893"><ele>433.00000000000006</ele><time>2026-03-26T15:40:40.998Z</time></trkpt><trkpt lat="45.6389765658849" lon="11.322461350265684"><ele>433.0</ele><time>2026-03-26T15:40:42.998Z</time></trkpt><trkpt lat="45.63891430915915" lon="11.322567010626146"><ele>433.0</ele><time>2026-03-26T15:40:44.998Z</time></trkpt><trkpt lat="45.638870013401366" lon="11.322665532276355"><ele>433.0</ele><time>2026-03-26T15:40:46.998Z</time></trkpt><trkpt lat="45.63882989418085" lon="11.322753302282337"><ele>433.00000000000006</ele><time>2026-03-26T15:40:48.998Z</time></trkpt><trkpt lat="45.638803000427586" lon="11.322841437202186"><ele>433.0</ele><time>2026-03-26T15:40:50.998Z</time></trkpt><trkpt lat="45.6387661280289" lon="11.322931028467387"><ele>433.6666666666667</ele><time>2026-03-26T15:40:52.998Z</time></trkpt><trkpt lat="45.6387563127069" lon="11.32310296721378"><ele>434.33333333333337</ele><time>2026-03-26T15:40:54.998Z</time></trkpt><trkpt lat="45.63868086019531" lon="11.323125598481822"><ele>435.0</ele><time>2026-03-26T15:40:58.998Z</time></trkpt><trkpt lat="45.638622708632255" lon="11.323066739164842"><ele>435.66666666666663</ele><time>2026-03-26T15:41:01.998Z</time></trkpt><trkpt lat="45.63856647689334" lon="11.323000891641637"><ele>436.3333333333333</ele><time>2026-03-26T15:41:03.998Z</time></trkpt><trkpt lat="45.638478022506135" lon="11.322946588130664"><ele>437.0</ele><time>2026-03-26T15:41:05.998Z</time></trkpt><trkpt lat="45.638364959518874" lon="11.32293137115603"><ele>433.6</ele><time>2026-03-26T15:41:07.998Z</time></trkpt><trkpt lat="45.63824127189757" lon="11.322903342863144"><ele>430.20000000000005</ele><time>2026-03-26T15:41:09.998Z</time></trkpt><trkpt lat="45.63816450201285" lon="11.322922392557485"><ele>426.8</ele><time>2026-03-26T15:41:10.998Z</time></trkpt><trkpt lat="45.63809914294961" lon="11.322929164451617"><ele>423.4</ele><time>2026-03-26T15:41:11.998Z</time></trkpt><trkpt lat="45.63796425602972" lon="11.322920063865457"><ele>420.0</ele><time>2026-03-26T15:41:13.998Z</time></trkpt><trkpt lat="45.63789925171711" lon="11.322904774119404"><ele>420.6</ele><time>2026-03-26T15:41:14.998Z</time></trkpt><trkpt lat="45.6377940618735" lon="11.322947097096131"><ele>421.2</ele><time>2026-03-26T15:41:16.998Z</time></trkpt><trkpt lat="45.63772129323007" lon="11.323026490940991"><ele>421.79999999999995</ele><time>2026-03-26T15:41:18.997Z</time></trkpt><trkpt lat="45.63763274660395" lon="11.323127506379388"><ele>422.4</ele><time>2026-03-26T15:41:20.997Z</time></trkpt><trkpt lat="45.637562400112806" lon="11.323115825042823"><ele>423.0</ele><time>2026-03-26T15:41:22.997Z</time></trkpt><trkpt lat="45.637532410785134" lon="11.322971549025384"><ele>423.0</ele><time>2026-03-26T15:41:24.997Z</time></trkpt><trkpt lat="45.637532440599315" lon="11.32283692537815"><ele>423.0</ele><time>2026-03-26T15:41:26.997Z</time></trkpt><trkpt lat="45.637512304816" lon="11.322690527724188"><ele>423.0</ele><time>2026-03-26T15:41:28.997Z</time></trkpt><trkpt lat="45.63751513562052" lon="11.322559106189605"><ele>423.0</ele><time>2026-03-26T15:41:30.997Z</time></trkpt><trkpt lat="45.6375677156144" lon="11.322448508090977"><ele>423.0</ele><time>2026-03-26T15:41:32.997Z</time></trkpt><trkpt lat="45.63765472925082" lon="11.322331895886025"><ele>420.0</ele><time>2026-03-26T15:41:35Z</time></trkpt><trkpt lat="45.637742434173205" lon="11.322218679201654"><ele>417.0</ele><time>2026-03-26T15:41:37Z</time></trkpt><trkpt lat="45.63778577578311" lon="11.322142977742613"><ele>414.0</ele><time>2026-03-26T15:41:38Z</time></trkpt><trkpt lat="45.63777991458763" lon="11.322050506859368"><ele>411.0</ele><time>2026-03-26T15:41:39Z</time></trkpt><trkpt lat="45.637784710463926" lon="11.321957312863113"><ele>408.0</ele><time>2026-03-26T15:41:40Z</time></trkpt><trkpt lat="45.63770608156686" lon="11.321886993135788"><ele>405.0</ele><time>2026-03-26T15:41:41Z</time></trkpt><trkpt lat="45.63769206257249" lon="11.321797048413385"><ele>405.0</ele><time>2026-03-26T15:41:42Z</time></trkpt><trkpt lat="45.63757054506363" lon="11.321695330460834"><ele>405.0</ele><time>2026-03-26T15:41:44Z</time></trkpt><trkpt lat="45.63750298841" lon="11.321696576342255"><ele>405.0</ele><time>2026-03-26T15:41:45Z</time></trkpt><trkpt lat="45.637411893461866" lon="11.321719308516943"><ele>405.0</ele><time>2026-03-26T15:41:46Z</time></trkpt><trkpt lat="45.63732728791658" lon="11.321734506173899"><ele>405.0</ele><time>2026-03-26T15:41:47Z</time></trkpt><trkpt lat="45.637251299616054" lon="11.32175583497414"><ele>405.0</ele><time>2026-03-26T15:41:48Z</time></trkpt><trkpt lat="45.63717458659988" lon="11.321774061605169"><ele>405.0</ele><time>2026-03-26T15:41:49Z</time></trkpt><trkpt lat="45.6371014460048" lon="11.321782927574729"><ele>405.0</ele><time>2026-03-26T15:41:50Z</time></trkpt><trkpt lat="45.637023429981" lon="11.321756114188206"><ele>405.0</ele><time>2026-03-26T15:41:51Z</time></trkpt><trkpt lat="45.636959903792196" lon="11.321684198806945"><ele>405.0</ele><time>2026-03-26T15:41:52Z</time></trkpt><trkpt lat="45.63689964445084" lon="11.321605354602692"><ele>405.0</ele><time>2026-03-26T15:41:53Z</time></trkpt><trkpt lat="45.6368402895585" lon="11.321545192606532"><ele>405.2</ele><time>2026-03-26T15:41:54Z</time></trkpt><trkpt lat="45.63678145722326" lon="11.321500646491954"><ele>405.4</ele><time>2026-03-26T15:41:55Z</time></trkpt><trkpt lat="45.63660045288612" lon="11.321433201635944"><ele>405.6</ele><time>2026-03-26T15:41:57Z</time></trkpt><trkpt lat="45.63650876863233" lon="11.321436582922377"><ele>405.8</ele><time>2026-03-26T15:41:58Z</time></trkpt><trkpt lat="45.636414639229216" lon="11.321446691083947"><ele>406.0</ele><time>2026-03-26T15:41:59Z</time></trkpt><trkpt lat="45.63633010905827" lon="11.32144092050851"><ele>406.0</ele><time>2026-03-26T15:42:00Z</time></trkpt><trkpt lat="45.636273320133135" lon="11.321479837330573"><ele>406.0</ele><time>2026-03-26T15:42:01Z</time></trkpt><trkpt lat="45.63619188388695" lon="11.321473518466084"><ele>406.0</ele><time>2026-03-26T15:42:03Z</time></trkpt><trkpt lat="45.63620746980804" lon="11.321338334189301"><ele>406.0</ele><time>2026-03-26T15:42:06Z</time></trkpt><trkpt lat="45.636288576048855" lon="11.321290586160739"><ele>406.0</ele><time>2026-03-26T15:42:07Z</time></trkpt><trkpt lat="45.6364027664116" lon="11.321230262919387"><ele>401.50000000000006</ele><time>2026-03-26T15:42:08Z</time></trkpt><trkpt lat="45.63649451853547" lon="11.321179872978533"><ele>397.0</ele><time>2026-03-26T15:42:08.999Z</time></trkpt><trkpt lat="45.636579518896426" lon="11.321126641519443"><ele>392.5</ele><time>2026-03-26T15:42:09.999Z</time></trkpt><trkpt lat="45.63665523753705" lon="11.321081030349157"><ele>388.0</ele><time>2026-03-26T15:42:10.999Z</time></trkpt><trkpt lat="45.63671842800504" lon="11.321061002704925"><ele>383.5</ele><time>2026-03-26T15:42:11.999Z</time></trkpt><trkpt lat="45.63674232350464" lon="11.320948923209775"><ele>379.0</ele><time>2026-03-26T15:42:13.999Z</time></trkpt><trkpt lat="45.636635953863056" lon="11.320885720722908"><ele>379.0</ele><time>2026-03-26T15:42:15.999Z</time></trkpt><trkpt lat="45.636540566066486" lon="11.320906496498182"><ele>379.0</ele><time>2026-03-26T15:42:16.999Z</time></trkpt><trkpt lat="45.63643054992448" lon="11.320884550775272"><ele>379.0</ele><time>2026-03-26T15:42:17.999Z</time></trkpt><trkpt lat="45.63630989957566" lon="11.320834459468331"><ele>379.0</ele><time>2026-03-26T15:42:18.999Z</time></trkpt><trkpt lat="45.63619768974726" lon="11.320838062469734"><ele>379.0</ele><time>2026-03-26T15:42:19.999Z</time></trkpt><trkpt lat="45.636100725821954" lon="11.320802796222555"><ele>378.0</ele><time>2026-03-26T15:42:20.999Z</time></trkpt><trkpt lat="45.63599570099054" lon="11.320794106648451"><ele>377.0</ele><time>2026-03-26T15:42:21.999Z</time></trkpt><trkpt lat="45.63588961014532" lon="11.320778917139325"><ele>376.0</ele><time>2026-03-26T15:42:22.999Z</time></trkpt><trkpt lat="45.63579793051604" lon="11.320768079359002"><ele>375.0</ele><time>2026-03-26T15:42:23.999Z</time></trkpt><trkpt lat="45.63572445117458" lon="11.320768056605935"><ele>374.0</ele><time>2026-03-26T15:42:24.999Z</time></trkpt><trkpt lat="45.6356576009357" lon="11.320767035014557"><ele>373.0</ele><time>2026-03-26T15:42:25.999Z</time></trkpt><trkpt lat="45.635548533864394" lon="11.320753339346826"><ele>373.0</ele><time>2026-03-26T15:42:27.999Z</time></trkpt><trkpt lat="45.63553650636375" lon="11.320582363067743"><ele>373.0</ele><time>2026-03-26T15:42:29.999Z</time></trkpt><trkpt lat="45.63553674760482" lon="11.320428049189912"><ele>373.0</ele><time>2026-03-26T15:42:30.999Z</time></trkpt><trkpt lat="45.63553387867908" lon="11.320208555094155"><ele>373.0</ele><time>2026-03-26T15:42:31.999Z</time></trkpt><trkpt lat="45.63553030318545" lon="11.319953353695471"><ele>367.5</ele><time>2026-03-26T15:42:32.999Z</time></trkpt><trkpt lat="45.635509441367205" lon="11.319719140048045"><ele>362.0</ele><time>2026-03-26T15:42:33.999Z</time></trkpt><trkpt lat="45.63551458240712" lon="11.31952186432754"><ele>356.5</ele><time>2026-03-26T15:42:34.999Z</time></trkpt><trkpt lat="45.63551071767533" lon="11.319340635670148"><ele>351.0</ele><time>2026-03-26T15:42:35.999Z</time></trkpt><trkpt lat="45.63550910360762" lon="11.319186808602208"><ele>351.0</ele><time>2026-03-26T15:42:36.999Z</time></trkpt><trkpt lat="45.63550246278797" lon="11.319060069035933"><ele>351.0</ele><time>2026-03-26T15:42:37.999Z</time></trkpt><trkpt lat="45.63546543172577" lon="11.318968513360415"><ele>351.0</ele><time>2026-03-26T15:42:38.999Z</time></trkpt><trkpt lat="45.63537275892297" lon="11.318937105855625"><ele>351.0</ele><time>2026-03-26T15:42:39.999Z</time></trkpt><trkpt lat="45.63527067541909" lon="11.318867972229675"><ele>351.0</ele><time>2026-03-26T15:42:40.999Z</time></trkpt><trkpt lat="45.63512991707579" lon="11.318825782328297"><ele>348.0</ele><time>2026-03-26T15:42:41.999Z</time></trkpt><trkpt lat="45.63497306038754" lon="11.318756976231406"><ele>345.0</ele><time>2026-03-26T15:42:42.999Z</time></trkpt><trkpt lat="45.63483424340715" lon="11.318691395046427"><ele>342.0</ele><time>2026-03-26T15:42:43.999Z</time></trkpt><trkpt lat="45.63470855835839" lon="11.318635318230166"><ele>339.0</ele><time>2026-03-26T15:42:44.999Z</time></trkpt><trkpt lat="45.634594836501115" lon="11.31858423926899"><ele>339.0</ele><time>2026-03-26T15:42:45.998Z</time></trkpt><trkpt lat="45.6344975100619" lon="11.318539679285074"><ele>339.0</ele><time>2026-03-26T15:42:46.998Z</time></trkpt><trkpt lat="45.63438388041192" lon="11.318480971231306"><ele>339.0</ele><time>2026-03-26T15:42:47.998Z</time></trkpt><trkpt lat="45.63430650488683" lon="11.318369186542483"><ele>339.0</ele><time>2026-03-26T15:42:49.998Z</time></trkpt><trkpt lat="45.63441851367495" lon="11.31832493444148"><ele>339.0</ele><time>2026-03-26T15:42:51.998Z</time></trkpt><trkpt lat="45.634509352168415" lon="11.318171497904014"><ele>339.0</ele><time>2026-03-26T15:42:53.998Z</time></trkpt><trkpt lat="45.634594920855015" lon="11.318107439593179"><ele>339.0</ele><time>2026-03-26T15:42:54.998Z</time></trkpt><trkpt lat="45.63466984456375" lon="11.31800406882041"><ele>339.0</ele><time>2026-03-26T15:42:56.998Z</time></trkpt><trkpt lat="45.634762057778076" lon="11.317944883837342"><ele>339.0</ele><time>2026-03-26T15:42:58.998Z</time></trkpt><trkpt lat="45.634646835290845" lon="11.317989744059679"><ele>339.0</ele><time>2026-03-26T15:43:05.998Z</time></trkpt><trkpt lat="45.63457882411322" lon="11.318062948583721"><ele>339.0</ele><time>2026-03-26T15:43:06.998Z</time></trkpt><trkpt lat="45.63450702753955" lon="11.318137859618464"><ele>339.0</ele><time>2026-03-26T15:43:07.998Z</time></trkpt><trkpt lat="45.634438507071486" lon="11.318228480318329"><ele>339.0</ele><time>2026-03-26T15:43:08.998Z</time></trkpt><trkpt lat="45.63439235101175" lon="11.31831503658942"><ele>339.0</ele><time>2026-03-26T15:43:09.998Z</time></trkpt><trkpt lat="45.63434225489186" lon="11.31842923046728"><ele>339.0</ele><time>2026-03-26T15:43:11.998Z</time></trkpt><trkpt lat="45.63429708330449" lon="11.318530273778157"><ele>339.0</ele><time>2026-03-26T15:43:14.998Z</time></trkpt><trkpt lat="45.634288109912205" lon="11.318674767406687"><ele>337.79999999999995</ele><time>2026-03-26T15:43:16.998Z</time></trkpt><trkpt lat="45.63428366709327" lon="11.318767182186367"><ele>336.59999999999997</ele><time>2026-03-26T15:43:17.998Z</time></trkpt><trkpt lat="45.63427472879372" lon="11.318953107093721"><ele>335.4</ele><time>2026-03-26T15:43:19.998Z</time></trkpt><trkpt lat="45.63427030888999" lon="11.319044512888157"><ele>334.2</ele><time>2026-03-26T15:43:20.998Z</time></trkpt><trkpt lat="45.63426290319949" lon="11.319189919198527"><ele>333.0</ele><time>2026-03-26T15:43:22.997Z</time></trkpt><trkpt lat="45.63425301532455" lon="11.319340676440795"><ele>333.0</ele><time>2026-03-26T15:43:24.997Z</time></trkpt><trkpt lat="45.634244911496545" lon="11.319464232635974"><ele>333.0</ele><time>2026-03-26T15:43:26.997Z</time></trkpt><trkpt lat="45.63425217458593" lon="11.319582168811202"><ele>333.0</ele><time>2026-03-26T15:43:28.997Z</time></trkpt><trkpt lat="45.63423938245885" lon="11.319764634980187"><ele>333.0</ele><time>2026-03-26T15:43:30.997Z</time></trkpt><trkpt lat="45.6342308461305" lon="11.319894961728785"><ele>333.0</ele><time>2026-03-26T15:43:31.997Z</time></trkpt><trkpt lat="45.634225944646786" lon="11.3200028593823"><ele>333.3333333333333</ele><time>2026-03-26T15:43:32.997Z</time></trkpt><trkpt lat="45.634212983303854" lon="11.320165871365724"><ele>333.6666666666667</ele><time>2026-03-26T15:43:33.997Z</time></trkpt><trkpt lat="45.63419609174692" lon="11.320276628488982"><ele>334.0</ele><time>2026-03-26T15:43:34.997Z</time></trkpt><trkpt lat="45.634149966649275" lon="11.320362249511051"><ele>334.33333333333337</ele><time>2026-03-26T15:43:35.997Z</time></trkpt><trkpt lat="45.634076163600014" lon="11.32040676877718"><ele>334.6666666666667</ele><time>2026-03-26T15:43:36.997Z</time></trkpt><trkpt lat="45.63398785389776" lon="11.320376172159737"><ele>335.0</ele><time>2026-03-26T15:43:37.997Z</time></trkpt><trkpt lat="45.63389204432287" lon="11.320383872564758"><ele>335.0</ele><time>2026-03-26T15:43:38.997Z</time></trkpt><trkpt lat="45.633791243491025" lon="11.32035584549874"><ele>335.0</ele><time>2026-03-26T15:43:40Z</time></trkpt><trkpt lat="45.63368825824837" lon="11.320343208710963"><ele>335.0</ele><time>2026-03-26T15:43:41Z</time></trkpt><trkpt lat="45.633596911293154" lon="11.320324762912309"><ele>335.0</ele><time>2026-03-26T15:43:42Z</time></trkpt><trkpt lat="45.63352336241328" lon="11.320312435274962"><ele>335.0</ele><time>2026-03-26T15:43:43Z</time></trkpt><trkpt lat="45.63343909772235" lon="11.320316317287187"><ele>333.1666666666667</ele><time>2026-03-26T15:43:44Z</time></trkpt><trkpt lat="45.63336849991913" lon="11.320356284088454"><ele>331.33333333333337</ele><time>2026-03-26T15:43:45Z</time></trkpt><trkpt lat="45.6332924445571" lon="11.32040318055812"><ele>329.5</ele><time>2026-03-26T15:43:46Z</time></trkpt><trkpt lat="45.63320011826714" lon="11.320454600307965"><ele>327.6666666666667</ele><time>2026-03-26T15:43:47Z</time></trkpt><trkpt lat="45.63309879643656" lon="11.320475573334646"><ele>325.8333333333333</ele><time>2026-03-26T15:43:48Z</time></trkpt><trkpt lat="45.6330143717815" lon="11.320483239472454"><ele>324.0</ele><time>2026-03-26T15:43:49Z</time></trkpt><trkpt lat="45.632934211033714" lon="11.320512091621678"><ele>324.0</ele><time>2026-03-26T15:43:50Z</time></trkpt><trkpt lat="45.63288185438228" lon="11.32056343849475"><ele>324.0</ele><time>2026-03-26T15:43:51Z</time></trkpt><trkpt lat="45.6328442374944" lon="11.320669453424589"><ele>324.0</ele><time>2026-03-26T15:43:52Z</time></trkpt><trkpt lat="45.6328033481188" lon="11.320786449641455"><ele>324.0</ele><time>2026-03-26T15:43:53Z</time></trkpt><trkpt lat="45.632767366706865" lon="11.320916434039619"><ele>324.0</ele><time>2026-03-26T15:43:54Z</time></trkpt><trkpt lat="45.63274309152583" lon="11.321021504996237"><ele>324.0</ele><time>2026-03-26T15:43:55Z</time></trkpt><trkpt lat="45.63271401693547" lon="11.321157033949481"><ele>326.0</ele><time>2026-03-26T15:43:56Z</time></trkpt><trkpt lat="45.63268274043837" lon="11.321287577609231"><ele>328.0</ele><time>2026-03-26T15:43:58Z</time></trkpt><trkpt lat="45.632728700728215" lon="11.321715860036411"><ele>330.0</ele><time>2026-03-26T15:44:07Z</time></trkpt><trkpt lat="45.63272782603766" lon="11.321162316343107"><ele>330.0</ele><time>2026-03-26T15:44:08Z</time></trkpt><trkpt lat="45.63276680013576" lon="11.320992297061222"><ele>330.0</ele><time>2026-03-26T15:44:09Z</time></trkpt><trkpt lat="45.63280204444" lon="11.320873905569927"><ele>330.0</ele><time>2026-03-26T15:44:10Z</time></trkpt><trkpt lat="45.63284807434396" lon="11.3207397858771"><ele>330.0</ele><time>2026-03-26T15:44:12Z</time></trkpt><trkpt lat="45.63289294088864" lon="11.320654713091201"><ele>330.0</ele><time>2026-03-26T15:44:13.999Z</time></trkpt><trkpt lat="45.63293685640344" lon="11.320544202771627"><ele>329.0</ele><time>2026-03-26T15:44:15.999Z</time></trkpt><trkpt lat="45.63302315492569" lon="11.32049317537056"><ele>328.0</ele><time>2026-03-26T15:44:17.999Z</time></trkpt><trkpt lat="45.633174127286054" lon="11.320478101142525"><ele>327.0</ele><time>2026-03-26T15:44:19.999Z</time></trkpt><trkpt lat="45.63323665290671" lon="11.320495302187899"><ele>326.0</ele><time>2026-03-26T15:44:20.999Z</time></trkpt><trkpt lat="45.63330162589554" lon="11.320445558123001"><ele>325.0</ele><time>2026-03-26T15:44:22.999Z</time></trkpt><trkpt lat="45.63323469594252" lon="11.320445340147272"><ele>324.0</ele><time>2026-03-26T15:44:29.999Z</time></trkpt><trkpt lat="45.63312893305413" lon="11.320476764362207"><ele>324.0</ele><time>2026-03-26T15:44:31.999Z</time></trkpt><trkpt lat="45.63305952658533" lon="11.320456564921411"><ele>324.0</ele><time>2026-03-26T15:44:33.999Z</time></trkpt><trkpt lat="45.63301105796409" lon="11.320331370393468"><ele>324.0</ele><time>2026-03-26T15:44:37.999Z</time></trkpt><trkpt lat="45.63323880624798" lon="11.320447248650582"><ele>324.0</ele><time>2026-03-26T15:44:38.999Z</time></trkpt><trkpt lat="45.63331320280788" lon="11.320419735132399"><ele>324.0</ele><time>2026-03-26T15:44:39.999Z</time></trkpt><trkpt lat="45.633400055596184" lon="11.320373405797646"><ele>324.0</ele><time>2026-03-26T15:44:40.999Z</time></trkpt><trkpt lat="45.63348634354108" lon="11.320337845894999"><ele>324.0</ele><time>2026-03-26T15:44:41.999Z</time></trkpt><trkpt lat="45.63357396745016" lon="11.320357075198022"><ele>324.0</ele><time>2026-03-26T15:44:43.999Z</time></trkpt><trkpt lat="45.633669237513026" lon="11.320374575343996"><ele>324.0</ele><time>2026-03-26T15:44:44.999Z</time></trkpt><trkpt lat="45.6337595094168" lon="11.320390578093226"><ele>325.8333333333333</ele><time>2026-03-26T15:44:45.999Z</time></trkpt><trkpt lat="45.633852947507215" lon="11.320405740938044"><ele>327.6666666666667</ele><time>2026-03-26T15:44:46.999Z</time></trkpt><trkpt lat="45.63394110804031" lon="11.320417877560187"><ele>329.5</ele><time>2026-03-26T15:44:47.999Z</time></trkpt><trkpt lat="45.634021950925344" lon="11.320423043768598"><ele>331.33333333333337</ele><time>2026-03-26T15:44:48.999Z</time></trkpt><trkpt lat="45.634098021825345" lon="11.320420749413136"><ele>333.1666666666667</ele><time>2026-03-26T15:44:49.999Z</time></trkpt><trkpt lat="45.634174673897675" lon="11.320377478230128"><ele>335.0</ele><time>2026-03-26T15:44:50.998Z</time></trkpt><trkpt lat="45.63421929560137" lon="11.32026932539488"><ele>335.0</ele><time>2026-03-26T15:44:51.998Z</time></trkpt><trkpt lat="45.63423929264141" lon="11.320149223277246"><ele>335.0</ele><time>2026-03-26T15:44:52.998Z</time></trkpt><trkpt lat="45.63424383610484" lon="11.320010781959756"><ele>335.0</ele><time>2026-03-26T15:44:53.998Z</time></trkpt><trkpt lat="45.63424200095" lon="11.319862874755607"><ele>335.0</ele><time>2026-03-26T15:44:54.998Z</time></trkpt><trkpt lat="45.63424751728646" lon="11.319726037544989"><ele>335.0</ele><time>2026-03-26T15:44:55.998Z</time></trkpt><trkpt lat="45.634256139296156" lon="11.31960716225961"><ele>334.6666666666667</ele><time>2026-03-26T15:44:56.998Z</time></trkpt><trkpt lat="45.634266425925674" lon="11.319502491540756"><ele>334.33333333333337</ele><time>2026-03-26T15:44:57.998Z</time></trkpt><trkpt lat="45.63427444271812" lon="11.319397923033492"><ele>334.0</ele><time>2026-03-26T15:44:58.998Z</time></trkpt><trkpt lat="45.63428014646618" lon="11.319287676385551"><ele>333.6666666666667</ele><time>2026-03-26T15:44:59.998Z</time></trkpt><trkpt lat="45.63428371531617" lon="11.319173540955495"><ele>333.3333333333333</ele><time>2026-03-26T15:45:00.998Z</time></trkpt><trkpt lat="45.63429228337009" lon="11.319062467740054"><ele>333.0</ele><time>2026-03-26T15:45:01.998Z</time></trkpt><trkpt lat="45.63429864734135" lon="11.318952408613034"><ele>333.0</ele><time>2026-03-26T15:45:02.998Z</time></trkpt><trkpt lat="45.63430677776968" lon="11.318857886646846"><ele>333.0</ele><time>2026-03-26T15:45:03.998Z</time></trkpt><trkpt lat="45.63431355574064" lon="11.318711430868886"><ele>333.0</ele><time>2026-03-26T15:45:05.998Z</time></trkpt><trkpt lat="45.63431386098748" lon="11.318545395074478"><ele>333.0</ele><time>2026-03-26T15:45:07.998Z</time></trkpt><trkpt lat="45.634243437649396" lon="11.31859747267072"><ele>333.0</ele><time>2026-03-26T15:45:14.998Z</time></trkpt><trkpt lat="45.63405460980267" lon="11.318463950394715"><ele>333.0</ele><time>2026-03-26T15:45:16.998Z</time></trkpt><trkpt lat="45.63395065734159" lon="11.318446283074175"><ele>333.0</ele><time>2026-03-26T15:45:18.998Z</time></trkpt><trkpt lat="45.633863345975385" lon="11.318406845300595"><ele>333.0</ele><time>2026-03-26T15:45:20.998Z</time></trkpt><trkpt lat="45.63376288810122" lon="11.318334296424712"><ele>333.0</ele><time>2026-03-26T15:45:22.998Z</time></trkpt><trkpt lat="45.63366256203417" lon="11.318222143717293"><ele>333.0</ele><time>2026-03-26T15:45:24.998Z</time></trkpt><trkpt lat="45.633609607474995" lon="11.318158623049259"><ele>330.3333333333333</ele><time>2026-03-26T15:45:25.998Z</time></trkpt><trkpt lat="45.63355607262791" lon="11.318105106002662"><ele>327.6666666666667</ele><time>2026-03-26T15:45:26.998Z</time></trkpt><trkpt lat="45.63350473665139" lon="11.318043377829053"><ele>325.0</ele><time>2026-03-26T15:45:27.998Z</time></trkpt><trkpt lat="45.633423185742835" lon="11.31793923561574"><ele>322.33333333333337</ele><time>2026-03-26T15:45:29.997Z</time></trkpt><trkpt lat="45.63335327955847" lon="11.317835516271822"><ele>319.6666666666667</ele><time>2026-03-26T15:45:31.997Z</time></trkpt><trkpt lat="45.63329842295907" lon="11.317770089852065"><ele>317.0</ele><time>2026-03-26T15:45:33.997Z</time></trkpt><trkpt lat="45.633250109845726" lon="11.317657661786903"><ele>316.0</ele><time>2026-03-26T15:45:35.997Z</time></trkpt><trkpt lat="45.633212527876715" lon="11.317579207425329"><ele>315.0</ele><time>2026-03-26T15:45:37.997Z</time></trkpt><trkpt lat="45.63320109629301" lon="11.31743459195093"><ele>314.0</ele><time>2026-03-26T15:45:39.997Z</time></trkpt><trkpt lat="45.6331430029018" lon="11.317333514560897"><ele>313.0</ele><time>2026-03-26T15:45:41.997Z</time></trkpt><trkpt lat="45.63308200011896" lon="11.317303006841987"><ele>312.0</ele><time>2026-03-26T15:45:43.997Z</time></trkpt><trkpt lat="45.632968528587845" lon="11.31731541146663"><ele>311.0</ele><time>2026-03-26T15:45:46Z</time></trkpt><trkpt lat="45.63286023531654" lon="11.3173428771426"><ele>308.33333333333337</ele><time>2026-03-26T15:45:48Z</time></trkpt><trkpt lat="45.63275928890819" lon="11.317376726323484"><ele>305.6666666666667</ele><time>2026-03-26T15:45:50Z</time></trkpt><trkpt lat="45.63267990029917" lon="11.31739522979383"><ele>303.0</ele><time>2026-03-26T15:45:51Z</time></trkpt><trkpt lat="45.6325897167196" lon="11.317404535294886"><ele>300.3333333333333</ele><time>2026-03-26T15:45:52Z</time></trkpt><trkpt lat="45.63251306658287" lon="11.317443652888835"><ele>297.66666666666663</ele><time>2026-03-26T15:45:53Z</time></trkpt><trkpt lat="45.63245047582711" lon="11.317509961084577"><ele>295.0</ele><time>2026-03-26T15:45:54Z</time></trkpt><trkpt lat="45.63238050071848" lon="11.317578419210914"><ele>295.0</ele><time>2026-03-26T15:45:55Z</time></trkpt><trkpt lat="45.632316912302834" lon="11.317602162769328"><ele>295.0</ele><time>2026-03-26T15:45:56Z</time></trkpt><trkpt lat="45.63222582335472" lon="11.317630293130291"><ele>295.0</ele><time>2026-03-26T15:45:57Z</time></trkpt><trkpt lat="45.632154030403086" lon="11.317627792339808"><ele>295.0</ele><time>2026-03-26T15:45:58Z</time></trkpt><trkpt lat="45.63205571708776" lon="11.317625057551396"><ele>295.0</ele><time>2026-03-26T15:46:00Z</time></trkpt><trkpt lat="45.63197127526121" lon="11.317614260024268"><ele>295.0</ele><time>2026-03-26T15:46:02Z</time></trkpt><trkpt lat="45.631916002259" lon="11.317658817734126"><ele>292.6</ele><time>2026-03-26T15:46:07Z</time></trkpt><trkpt lat="45.63182721442706" lon="11.31776766195532"><ele>290.2</ele><time>2026-03-26T15:46:09Z</time></trkpt><trkpt lat="45.631735174459834" lon="11.317857690032394"><ele>287.8</ele><time>2026-03-26T15:46:10Z</time></trkpt><trkpt lat="45.63165302220734" lon="11.317925491363509"><ele>285.4</ele><time>2026-03-26T15:46:11Z</time></trkpt><trkpt lat="45.631575947608226" lon="11.3179981241615"><ele>283.0</ele><time>2026-03-26T15:46:12Z</time></trkpt><trkpt lat="45.63150260707623" lon="11.318065751595565"><ele>282.5</ele><time>2026-03-26T15:46:13Z</time></trkpt><trkpt lat="45.63143740850475" lon="11.318115315111248"><ele>282.0</ele><time>2026-03-26T15:46:14Z</time></trkpt><trkpt lat="45.631363954161614" lon="11.318152624835689"><ele>281.5</ele><time>2026-03-26T15:46:15Z</time></trkpt><trkpt lat="45.63128909834571" lon="11.318178335532531"><ele>281.0</ele><time>2026-03-26T15:46:16Z</time></trkpt><trkpt lat="45.63120783088837" lon="11.31813414766409"><ele>280.5</ele><time>2026-03-26T15:46:17Z</time></trkpt><trkpt lat="45.63111758390792" lon="11.318086487886708"><ele>280.0</ele><time>2026-03-26T15:46:18Z</time></trkpt><trkpt lat="45.63104120174291" lon="11.318050066650269"><ele>277.8</ele><time>2026-03-26T15:46:18.999Z</time></trkpt><trkpt lat="45.6309588064221" lon="11.317983531770844"><ele>275.6</ele><time>2026-03-26T15:46:19.999Z</time></trkpt><trkpt lat="45.63087694560859" lon="11.317901340114934"><ele>273.4</ele><time>2026-03-26T15:46:20.999Z</time></trkpt><trkpt lat="45.63076889662092" lon="11.317832780111626"><ele>271.2</ele><time>2026-03-26T15:46:21.999Z</time></trkpt><trkpt lat="45.63066534331575" lon="11.317778569264338"><ele>269.0</ele><time>2026-03-26T15:46:22.999Z</time></trkpt><trkpt lat="45.63055931507865" lon="11.317724343636703"><ele>269.0</ele><time>2026-03-26T15:46:23.999Z</time></trkpt><trkpt lat="45.630447173429815" lon="11.317695058647498"><ele>269.0</ele><time>2026-03-26T15:46:24.999Z</time></trkpt><trkpt lat="45.63033936878874" lon="11.317644013274055"><ele>269.0</ele><time>2026-03-26T15:46:25.999Z</time></trkpt><trkpt lat="45.63024981794605" lon="11.317586329689421"><ele>269.0</ele><time>2026-03-26T15:46:26.999Z</time></trkpt><trkpt lat="45.630159519444824" lon="11.317557768649674"><ele>269.0</ele><time>2026-03-26T15:46:27.999Z</time></trkpt><trkpt lat="45.6300879497609" lon="11.317530969189573"><ele>264.25</ele><time>2026-03-26T15:46:28.999Z</time></trkpt><trkpt lat="45.62997092200932" lon="11.31742967358687"><ele>259.5</ele><time>2026-03-26T15:46:30.999Z</time></trkpt><trkpt lat="45.62989905464725" lon="11.31731069332998"><ele>254.75</ele><time>2026-03-26T15:46:31.999Z</time></trkpt><trkpt lat="45.62979970657211" lon="11.317161762057294"><ele>250.0</ele><time>2026-03-26T15:46:32.999Z</time></trkpt><trkpt lat="45.629704493716744" lon="11.317022682468814"><ele>249.8</ele><time>2026-03-26T15:46:33.999Z</time></trkpt><trkpt lat="45.62961461860005" lon="11.316904389562206"><ele>249.6</ele><time>2026-03-26T15:46:34.999Z</time></trkpt><trkpt lat="45.62954052669367" lon="11.316793309591125"><ele>249.39999999999998</ele><time>2026-03-26T15:46:35.999Z</time></trkpt><trkpt lat="45.629482798333285" lon="11.316693188307886"><ele>249.2</ele><time>2026-03-26T15:46:36.999Z</time></trkpt><trkpt lat="45.629430103734805" lon="11.316615969620038"><ele>249.0</ele><time>2026-03-26T15:46:37.999Z</time></trkpt><trkpt lat="45.62933682474111" lon="11.31651598792724"><ele>247.5</ele><time>2026-03-26T15:46:39.999Z</time></trkpt><trkpt lat="45.62927296339164" lon="11.316477578039056"><ele>246.0</ele><time>2026-03-26T15:46:53.999Z</time></trkpt><trkpt lat="45.629198605331204" lon="11.31643697021724"><ele>244.5</ele><time>2026-03-26T15:47:05.998Z</time></trkpt><trkpt lat="45.629160053361645" lon="11.316325914061117"><ele>243.0</ele><time>2026-03-26T15:47:07.998Z</time></trkpt><trkpt lat="45.629120036946695" lon="11.316247772826168"><ele>241.5</ele><time>2026-03-26T15:47:09.998Z</time></trkpt><trkpt lat="45.629069046433706" lon="11.316126813098196"><ele>240.0</ele><time>2026-03-26T15:47:12.998Z</time></trkpt><trkpt lat="45.62900414030702" lon="11.316052167531312"><ele>238.83333333333334</ele><time>2026-03-26T15:47:14.998Z</time></trkpt><trkpt lat="45.62896361607707" lon="11.315971149903579"><ele>237.66666666666669</ele><time>2026-03-26T15:47:16.998Z</time></trkpt><trkpt lat="45.62888678289089" lon="11.315867240844332"><ele>236.5</ele><time>2026-03-26T15:47:18.998Z</time></trkpt><trkpt lat="45.62880294367717" lon="11.315774408529519"><ele>235.33333333333334</ele><time>2026-03-26T15:47:20.998Z</time></trkpt><trkpt lat="45.62874246187373" lon="11.31570590901264"><ele>234.16666666666669</ele><time>2026-03-26T15:47:22.998Z</time></trkpt><trkpt lat="45.62869044987124" lon="11.315622272392924"><ele>233.0</ele><time>2026-03-26T15:47:24.998Z</time></trkpt><trkpt lat="45.628469893335996" lon="11.31581293690787"><ele>232.0</ele><time>2026-03-26T15:47:40.997Z</time></trkpt><trkpt lat="45.62837848716469" lon="11.31587765297398"><ele>231.0</ele><time>2026-03-26T15:47:41.997Z</time></trkpt><trkpt lat="45.62828474000449" lon="11.31595078976026"><ele>230.0</ele><time>2026-03-26T15:47:42.997Z</time></trkpt><trkpt lat="45.62818853333657" lon="11.316045034623752"><ele>229.0</ele><time>2026-03-26T15:47:43.997Z</time></trkpt><trkpt lat="45.62809438443442" lon="11.316138254472618"><ele>228.0</ele><time>2026-03-26T15:47:44.997Z</time></trkpt><trkpt lat="45.62801362847899" lon="11.316220017000866"><ele>228.0</ele><time>2026-03-26T15:47:45.997Z</time></trkpt><trkpt lat="45.627937869316604" lon="11.316284271854325"><ele>228.0</ele><time>2026-03-26T15:47:46.997Z</time></trkpt><trkpt lat="45.627862656735864" lon="11.316353021362554"><ele>228.0</ele><time>2026-03-26T15:47:47.997Z</time></trkpt><trkpt lat="45.62779734637203" lon="11.316404722104696"><ele>228.0</ele><time>2026-03-26T15:47:48.997Z</time></trkpt><trkpt lat="45.62774474699646" lon="11.316455610357501"><ele>228.0</ele><time>2026-03-26T15:47:49.997Z</time></trkpt><trkpt lat="45.627697491620886" lon="11.316561945483674"><ele>228.0</ele><time>2026-03-26T15:47:52Z</time></trkpt><trkpt lat="45.62773173809344" lon="11.31669135259973"><ele>227.5</ele><time>2026-03-26T15:47:54Z</time></trkpt><trkpt lat="45.62777479059509" lon="11.316767709800756"><ele>227.0</ele><time>2026-03-26T15:47:55Z</time></trkpt><trkpt lat="45.627817102733566" lon="11.316843921767846"><ele>226.5</ele><time>2026-03-26T15:47:56Z</time></trkpt><trkpt lat="45.62786533098055" lon="11.3169393537819"><ele>226.0</ele><time>2026-03-26T15:47:57Z</time></trkpt><trkpt lat="45.62790828665753" lon="11.317035208195767"><ele>225.5</ele><time>2026-03-26T15:47:58Z</time></trkpt><trkpt lat="45.62795924932162" lon="11.317137493078162"><ele>225.0</ele><time>2026-03-26T15:47:59Z</time></trkpt><trkpt lat="45.62801578084927" lon="11.317233034468735"><ele>226.5</ele><time>2026-03-26T15:48:00Z</time></trkpt><trkpt lat="45.62807329613208" lon="11.317331002993932"><ele>228.0</ele><time>2026-03-26T15:48:01Z</time></trkpt><trkpt lat="45.62811084101671" lon="11.317415464435138"><ele>229.5</ele><time>2026-03-26T15:48:02Z</time></trkpt><trkpt lat="45.62815926732839" lon="11.317525874466527"><ele>231.0</ele><time>2026-03-26T15:48:04Z</time></trkpt><trkpt lat="45.62819150736798" lon="11.317624406278913"><ele>232.5</ele><time>2026-03-26T15:48:06Z</time></trkpt><trkpt lat="45.62815541549108" lon="11.317709044325944"><ele>234.0</ele><time>2026-03-26T15:48:08Z</time></trkpt><trkpt lat="45.628038848225955" lon="11.317802716477807"><ele>234.0</ele><time>2026-03-26T15:48:10Z</time></trkpt><trkpt lat="45.62796316522032" lon="11.31786900502413"><ele>234.0</ele><time>2026-03-26T15:48:11Z</time></trkpt><trkpt lat="45.62789897487977" lon="11.317925192615192"><ele>234.0</ele><time>2026-03-26T15:48:12Z</time></trkpt><trkpt lat="45.62781954524809" lon="11.317993804554675"><ele>234.0</ele><time>2026-03-26T15:48:13Z</time></trkpt><trkpt lat="45.62773775631058" lon="11.31806060041565"><ele>234.0</ele><time>2026-03-26T15:48:14Z</time></trkpt><trkpt lat="45.627662836741756" lon="11.318130997769325"><ele>234.0</ele><time>2026-03-26T15:48:15Z</time></trkpt><trkpt lat="45.627581056876494" lon="11.318226594279702"><ele>233.83333333333334</ele><time>2026-03-26T15:48:16Z</time></trkpt><trkpt lat="45.62750837689181" lon="11.318319304135075"><ele>233.66666666666669</ele><time>2026-03-26T15:48:17Z</time></trkpt><trkpt lat="45.62744757184784" lon="11.318404094408782"><ele>233.5</ele><time>2026-03-26T15:48:18Z</time></trkpt><trkpt lat="45.62738944432565" lon="11.318509058224883"><ele>233.33333333333334</ele><time>2026-03-26T15:48:19Z</time></trkpt><trkpt lat="45.62734864598952" lon="11.318598726520468"><ele>233.16666666666669</ele><time>2026-03-26T15:48:20Z</time></trkpt><trkpt lat="45.62731846303271" lon="11.31868169412525"><ele>233.0</ele><time>2026-03-26T15:48:21Z</time></trkpt><trkpt lat="45.627277788328534" lon="11.318785325849312"><ele>233.00000000000003</ele><time>2026-03-26T15:48:22Z</time></trkpt><trkpt lat="45.62724124565625" lon="11.3188867136898"><ele>233.0</ele><time>2026-03-26T15:48:23Z</time></trkpt><trkpt lat="45.62720295976835" lon="11.318992128114138"><ele>233.0</ele><time>2026-03-26T15:48:23.999Z</time></trkpt><trkpt lat="45.62716736372642" lon="11.319117241389147"><ele>233.0</ele><time>2026-03-26T15:48:24.999Z</time></trkpt><trkpt lat="45.62711459551524" lon="11.31922931754241"><ele>233.00000000000003</ele><time>2026-03-26T15:48:25.999Z</time></trkpt><trkpt lat="45.62707550280481" lon="11.319320484778762"><ele>233.0</ele><time>2026-03-26T15:48:26.999Z</time></trkpt><trkpt lat="45.62703839252196" lon="11.319419188333372"><ele>234.0</ele><time>2026-03-26T15:48:27.999Z</time></trkpt><trkpt lat="45.62699542075533" lon="11.319511847227323"><ele>235.0</ele><time>2026-03-26T15:48:28.999Z</time></trkpt><trkpt lat="45.62694691868297" lon="11.319631775119863"><ele>236.0</ele><time>2026-03-26T15:48:29.999Z</time></trkpt><trkpt lat="45.62689385203316" lon="11.319789427284574"><ele>237.0</ele><time>2026-03-26T15:48:30.999Z</time></trkpt><trkpt lat="45.626854730800105" lon="11.319934763738345"><ele>238.0</ele><time>2026-03-26T15:48:31.999Z</time></trkpt><trkpt lat="45.6268197019906" lon="11.320055759614215"><ele>237.99999999999997</ele><time>2026-03-26T15:48:32.999Z</time></trkpt><trkpt lat="45.626769624641014" lon="11.320143776383036"><ele>238.0</ele><time>2026-03-26T15:48:33.999Z</time></trkpt><trkpt lat="45.62670214747755" lon="11.320196079777126"><ele>238.0</ele><time>2026-03-26T15:48:34.999Z</time></trkpt><trkpt lat="45.62661990931278" lon="11.320260633780457"><ele>238.0</ele><time>2026-03-26T15:48:35.999Z</time></trkpt><trkpt lat="45.62654643744974" lon="11.320322905494598"><ele>237.99999999999997</ele><time>2026-03-26T15:48:36.999Z</time></trkpt><trkpt lat="45.62649198599538" lon="11.320416047665153"><ele>238.0</ele><time>2026-03-26T15:48:37.999Z</time></trkpt><trkpt lat="45.62642626760296" lon="11.320536293314944"><ele>241.2</ele><time>2026-03-26T15:48:38.999Z</time></trkpt><trkpt lat="45.62634505007323" lon="11.320640059558004"><ele>244.4</ele><time>2026-03-26T15:48:39.999Z</time></trkpt><trkpt lat="45.626256504753215" lon="11.320703085875499"><ele>247.59999999999997</ele><time>2026-03-26T15:48:40.999Z</time></trkpt><trkpt lat="45.62619613060368" lon="11.320761019173522"><ele>250.79999999999998</ele><time>2026-03-26T15:48:41.999Z</time></trkpt><trkpt lat="45.62619888690662" lon="11.320946397425132"><ele>254.0</ele><time>2026-03-26T15:48:43.999Z</time></trkpt><trkpt lat="45.62624847391672" lon="11.321064493018302"><ele>254.0</ele><time>2026-03-26T15:48:44.999Z</time></trkpt><trkpt lat="45.62630735643368" lon="11.321182329855333"><ele>253.99999999999997</ele><time>2026-03-26T15:48:45.999Z</time></trkpt><trkpt lat="45.626372031413815" lon="11.321314132674374"><ele>253.99999999999997</ele><time>2026-03-26T15:48:46.999Z</time></trkpt><trkpt lat="45.62643356100592" lon="11.321420415455576"><ele>254.0</ele><time>2026-03-26T15:48:47.999Z</time></trkpt><trkpt lat="45.626479890637825" lon="11.321500553237"><ele>254.0</ele><time>2026-03-26T15:48:48.999Z</time></trkpt><trkpt lat="45.626561865645066" lon="11.321583127631817"><ele>255.33333333333334</ele><time>2026-03-26T15:48:50.999Z</time></trkpt><trkpt lat="45.62665443959516" lon="11.321641924401366"><ele>256.6666666666667</ele><time>2026-03-26T15:48:57.999Z</time></trkpt><trkpt lat="45.62671976979403" lon="11.321670838727986"><ele>258.0</ele><time>2026-03-26T15:48:58.999Z</time></trkpt><trkpt lat="45.62678506398253" lon="11.321697800249483"><ele>259.3333333333333</ele><time>2026-03-26T15:48:59.999Z</time></trkpt><trkpt lat="45.62685108072122" lon="11.321746560960609"><ele>260.66666666666663</ele><time>2026-03-26T15:49:00.998Z</time></trkpt><trkpt lat="45.62695809620212" lon="11.321774547859194"><ele>262.0</ele><time>2026-03-26T15:49:01.998Z</time></trkpt><trkpt lat="45.627043687083386" lon="11.321781485777224"><ele>267.0</ele><time>2026-03-26T15:49:02.998Z</time></trkpt><trkpt lat="45.62705786458297" lon="11.321884177192631"><ele>272.0</ele><time>2026-03-26T15:49:06.998Z</time></trkpt><trkpt lat="45.62705742168084" lon="11.322010989456167"><ele>277.0</ele><time>2026-03-26T15:49:09.998Z</time></trkpt><trkpt lat="45.6270601137669" lon="11.322115432938997"><ele>282.0</ele><time>2026-03-26T15:49:10.998Z</time></trkpt><trkpt lat="45.62706182116815" lon="11.322241343598241"><ele>287.0</ele><time>2026-03-26T15:49:11.998Z</time></trkpt><trkpt lat="45.62706745890788" lon="11.322351647279385"><ele>292.0</ele><time>2026-03-26T15:49:12.998Z</time></trkpt><trkpt lat="45.62703757252462" lon="11.322448205396272"><ele>294.6</ele><time>2026-03-26T15:49:13.998Z</time></trkpt><trkpt lat="45.626981141284006" lon="11.32263867053552"><ele>297.2</ele><time>2026-03-26T15:49:15.998Z</time></trkpt><trkpt lat="45.62691025049082" lon="11.322679025720728"><ele>299.8</ele><time>2026-03-26T15:49:17.998Z</time></trkpt><trkpt lat="45.62686372571163" lon="11.322557147220746"><ele>302.4</ele><time>2026-03-26T15:49:19.998Z</time></trkpt><trkpt lat="45.6267940985263" lon="11.322455403183302"><ele>305.0</ele><time>2026-03-26T15:49:21.998Z</time></trkpt><trkpt lat="45.626656837835974" lon="11.322456491170318"><ele>297.6</ele><time>2026-03-26T15:49:23.998Z</time></trkpt><trkpt lat="45.626595245413085" lon="11.322487360643322"><ele>290.2</ele><time>2026-03-26T15:49:24.998Z</time></trkpt><trkpt lat="45.62653563860227" lon="11.322558932816655"><ele>282.8</ele><time>2026-03-26T15:49:45.997Z</time></trkpt><trkpt lat="45.62640778914912" lon="11.322696844993429"><ele>275.4</ele><time>2026-03-26T15:50:57.999Z</time></trkpt><trkpt lat="45.626343165895754" lon="11.322754254972416"><ele>268.0</ele><time>2026-03-26T15:50:58.999Z</time></trkpt><trkpt lat="45.62627096668823" lon="11.32280966952926"><ele>268.0</ele><time>2026-03-26T15:50:59.999Z</time></trkpt><trkpt lat="45.626164078624136" lon="11.32279247588908"><ele>268.0</ele><time>2026-03-26T15:51:00.999Z</time></trkpt><trkpt lat="45.62606821296675" lon="11.322809701731448"><ele>268.0</ele><time>2026-03-26T15:51:01.999Z</time></trkpt><trkpt lat="45.62595753692872" lon="11.322828478997762"><ele>268.0</ele><time>2026-03-26T15:51:02.999Z</time></trkpt><trkpt lat="45.62585085271283" lon="11.322839593347377"><ele>268.0</ele><time>2026-03-26T15:51:03.999Z</time></trkpt><trkpt lat="45.62576928100931" lon="11.322846097202632"><ele>266.3333333333333</ele><time>2026-03-26T15:51:04.999Z</time></trkpt><trkpt lat="45.6256983766647" lon="11.322850537908382"><ele>264.66666666666663</ele><time>2026-03-26T15:51:05.999Z</time></trkpt><trkpt lat="45.62558262414377" lon="11.322853098964444"><ele>263.0</ele><time>2026-03-26T15:51:07.999Z</time></trkpt><trkpt lat="45.62548043879271" lon="11.32281375789644"><ele>261.3333333333333</ele><time>2026-03-26T15:51:09.998Z</time></trkpt><trkpt lat="45.62541184265311" lon="11.32276602709838"><ele>259.6666666666667</ele><time>2026-03-26T15:51:10.998Z</time></trkpt><trkpt lat="45.62534780963573" lon="11.322720885183115"><ele>258.0</ele><time>2026-03-26T15:51:11.998Z</time></trkpt><trkpt lat="45.62528704806052" lon="11.322637984652218"><ele>257.57142857142856</ele><time>2026-03-26T15:51:13.998Z</time></trkpt><trkpt lat="45.62526695114723" lon="11.322550530379402"><ele>257.1428571428571</ele><time>2026-03-26T15:51:14.998Z</time></trkpt><trkpt lat="45.62526564416144" lon="11.322454107151076"><ele>256.7142857142857</ele><time>2026-03-26T15:51:15.998Z</time></trkpt><trkpt lat="45.62525602206374" lon="11.322353869749042"><ele>256.2857142857143</ele><time>2026-03-26T15:51:16.998Z</time></trkpt><trkpt lat="45.62523957932898" lon="11.322257221755315"><ele>255.8571428571429</ele><time>2026-03-26T15:51:17.998Z</time></trkpt><trkpt lat="45.625200981529765" lon="11.322168256557342"><ele>255.42857142857144</ele><time>2026-03-26T15:51:18.998Z</time></trkpt><trkpt lat="45.625142959503" lon="11.32211687441634"><ele>255.0</ele><time>2026-03-26T15:51:19.998Z</time></trkpt><trkpt lat="45.625094705601555" lon="11.322045380903086"><ele>253.33333333333334</ele><time>2026-03-26T15:51:20.998Z</time></trkpt><trkpt lat="45.62499487281866" lon="11.322031775902163"><ele>251.66666666666669</ele><time>2026-03-26T15:51:21.998Z</time></trkpt><trkpt lat="45.62491265628946" lon="11.321999305298972"><ele>250.0</ele><time>2026-03-26T15:51:22.998Z</time></trkpt><trkpt lat="45.624843137347064" lon="11.3219908199481"><ele>248.33333333333334</ele><time>2026-03-26T15:51:23.998Z</time></trkpt><trkpt lat="45.62477562608832" lon="11.321991570813456"><ele>246.66666666666669</ele><time>2026-03-26T15:51:24.998Z</time></trkpt><trkpt lat="45.6247045411265" lon="11.322002801469694"><ele>245.0</ele><time>2026-03-26T15:51:25.998Z</time></trkpt><trkpt lat="45.62462744204667" lon="11.322032133302539"><ele>245.00000000000003</ele><time>2026-03-26T15:51:26.998Z</time></trkpt><trkpt lat="45.62457141209607" lon="11.322104120746449"><ele>245.0</ele><time>2026-03-26T15:51:27.998Z</time></trkpt><trkpt lat="45.62450176139879" lon="11.322138899639631"><ele>245.0</ele><time>2026-03-26T15:51:28.998Z</time></trkpt><trkpt lat="45.624465879152176" lon="11.322236358295477"><ele>245.0</ele><time>2026-03-26T15:51:29.998Z</time></trkpt><trkpt lat="45.62440305593312" lon="11.322312562445969"><ele>245.00000000000003</ele><time>2026-03-26T15:51:30.998Z</time></trkpt><trkpt lat="45.62432994395934" lon="11.32242330324004"><ele>245.0</ele><time>2026-03-26T15:51:32.998Z</time></trkpt><trkpt lat="45.62423220659279" lon="11.322401514384529"><ele>244.33333333333334</ele><time>2026-03-26T15:51:34.998Z</time></trkpt><trkpt lat="45.62415220700712" lon="11.32239413832887"><ele>243.66666666666669</ele><time>2026-03-26T15:51:35.998Z</time></trkpt><trkpt lat="45.62407682202112" lon="11.322415634865594"><ele>243.0</ele><time>2026-03-26T15:51:36.998Z</time></trkpt><trkpt lat="45.62399885371586" lon="11.3224290550626"><ele>242.33333333333331</ele><time>2026-03-26T15:51:37.998Z</time></trkpt><trkpt lat="45.623918075606085" lon="11.322479764019777"><ele>241.66666666666666</ele><time>2026-03-26T15:51:38.998Z</time></trkpt><trkpt lat="45.62382258084451" lon="11.322464251967698"><ele>241.0</ele><time>2026-03-26T15:51:39.998Z</time></trkpt><trkpt lat="45.6237247255653" lon="11.322437714507013"><ele>238.60000000000002</ele><time>2026-03-26T15:51:40.998Z</time></trkpt><trkpt lat="45.62362437308876" lon="11.322406697077993"><ele>236.20000000000002</ele><time>2026-03-26T15:51:41.998Z</time></trkpt><trkpt lat="45.6235340181985" lon="11.322348359296125"><ele>233.79999999999998</ele><time>2026-03-26T15:51:42.998Z</time></trkpt><trkpt lat="45.62344961416098" lon="11.322290148789866"><ele>231.39999999999998</ele><time>2026-03-26T15:51:43.998Z</time></trkpt><trkpt lat="45.62337749721846" lon="11.322232228569174"><ele>229.0</ele><time>2026-03-26T15:51:44.998Z</time></trkpt><trkpt lat="45.623320967168986" lon="11.322158998145825"><ele>227.49999999999997</ele><time>2026-03-26T15:51:45.998Z</time></trkpt><trkpt lat="45.62327136734068" lon="11.3220680336782"><ele>226.0</ele><time>2026-03-26T15:51:46.997Z</time></trkpt><trkpt lat="45.62322824981449" lon="11.321970746592383"><ele>224.5</ele><time>2026-03-26T15:51:47.997Z</time></trkpt><trkpt lat="45.62318740928134" lon="11.32186876089261"><ele>223.0</ele><time>2026-03-26T15:51:48.997Z</time></trkpt><trkpt lat="45.62315576160985" lon="11.321778168585322"><ele>221.49999999999997</ele><time>2026-03-26T15:51:49.997Z</time></trkpt><trkpt lat="45.62312070967367" lon="11.32169213004249"><ele>220.0</ele><time>2026-03-26T15:51:51.997Z</time></trkpt><trkpt lat="45.623010946408144" lon="11.321845791547796"><ele>220.0</ele><time>2026-03-26T15:51:53.997Z</time></trkpt><trkpt lat="45.62287075771287" lon="11.321981997751003"><ele>220.0</ele><time>2026-03-26T15:51:55.997Z</time></trkpt><trkpt lat="45.62278154380979" lon="11.322055205383226"><ele>220.0</ele><time>2026-03-26T15:51:56.997Z</time></trkpt><trkpt lat="45.62268572201848" lon="11.322131890668837"><ele>220.0</ele><time>2026-03-26T15:51:57.997Z</time></trkpt><trkpt lat="45.622576778272666" lon="11.322219077332372"><ele>220.0</ele><time>2026-03-26T15:51:58.997Z</time></trkpt><trkpt lat="45.62244868258501" lon="11.322335998738604"><ele>220.0</ele><time>2026-03-26T15:51:59.997Z</time></trkpt><trkpt lat="45.62229654561738" lon="11.322401113379486"><ele>220.0</ele><time>2026-03-26T15:52:00.997Z</time></trkpt><trkpt lat="45.622166984437904" lon="11.32247358428053"><ele>220.0</ele><time>2026-03-26T15:52:01.997Z</time></trkpt><trkpt lat="45.62205439311055" lon="11.322536743270833"><ele>220.0</ele><time>2026-03-26T15:52:02.997Z</time></trkpt><trkpt lat="45.62196181684789" lon="11.322618444055358"><ele>220.0</ele><time>2026-03-26T15:52:04Z</time></trkpt><trkpt lat="45.62184821554768" lon="11.3226829756955"><ele>220.0</ele><time>2026-03-26T15:52:05Z</time></trkpt><trkpt lat="45.62172913332968" lon="11.322728133060387"><ele>218.75</ele><time>2026-03-26T15:52:06Z</time></trkpt><trkpt lat="45.62162969164214" lon="11.32277443671644"><ele>217.5</ele><time>2026-03-26T15:52:07Z</time></trkpt><trkpt lat="45.621497545673186" lon="11.322808159230242"><ele>216.25</ele><time>2026-03-26T15:52:08Z</time></trkpt><trkpt lat="45.621367184506255" lon="11.322839354948268"><ele>215.0</ele><time>2026-03-26T15:52:09Z</time></trkpt><trkpt lat="45.62124156225672" lon="11.322877135450732"><ele>214.6</ele><time>2026-03-26T15:52:10Z</time></trkpt><trkpt lat="45.621141253328666" lon="11.322928193272372"><ele>214.2</ele><time>2026-03-26T15:52:11Z</time></trkpt><trkpt lat="45.62105059860104" lon="11.322924700453544"><ele>213.8</ele><time>2026-03-26T15:52:12Z</time></trkpt><trkpt lat="45.62097146337232" lon="11.322934739566863"><ele>213.4</ele><time>2026-03-26T15:52:13Z</time></trkpt><trkpt lat="45.620900389605204" lon="11.322828976661375"><ele>213.0</ele><time>2026-03-26T15:52:14Z</time></trkpt><trkpt lat="45.62081581042513" lon="11.322794794042036"><ele>213.0</ele><time>2026-03-26T15:52:15Z</time></trkpt><trkpt lat="45.62072995304269" lon="11.32276303812174"><ele>213.0</ele><time>2026-03-26T15:52:16Z</time></trkpt><trkpt lat="45.62065873704998" lon="11.322780523851717"><ele>213.0</ele><time>2026-03-26T15:52:17Z</time></trkpt><trkpt lat="45.62055014629471" lon="11.322676824135348"><ele>213.0</ele><time>2026-03-26T15:52:19Z</time></trkpt><trkpt lat="45.62048298847202" lon="11.322598955378746"><ele>213.0</ele><time>2026-03-26T15:52:20Z</time></trkpt><trkpt lat="45.62043348870391" lon="11.32251415204453"><ele>213.0</ele><time>2026-03-26T15:52:21Z</time></trkpt><trkpt lat="45.620370107333486" lon="11.322456237683987"><ele>213.0</ele><time>2026-03-26T15:52:22Z</time></trkpt><trkpt lat="45.62030174499814" lon="11.322384558457074"><ele>213.0</ele><time>2026-03-26T15:52:23Z</time></trkpt><trkpt lat="45.6202225288392" lon="11.322309662481443"><ele>213.0</ele><time>2026-03-26T15:52:24Z</time></trkpt><trkpt lat="45.62016944335694" lon="11.322252495938468"><ele>213.0</ele><time>2026-03-26T15:52:25Z</time></trkpt><trkpt lat="45.62010474741256" lon="11.322155514468443"><ele>213.0</ele><time>2026-03-26T15:52:26Z</time></trkpt><trkpt lat="45.620054219246256" lon="11.322089556631687"><ele>212.60000000000002</ele><time>2026-03-26T15:52:27Z</time></trkpt><trkpt lat="45.619977807129814" lon="11.321989815796941"><ele>212.20000000000002</ele><time>2026-03-26T15:52:29Z</time></trkpt><trkpt lat="45.619852060393534" lon="11.32209285926425"><ele>211.8</ele><time>2026-03-26T15:52:30Z</time></trkpt><trkpt lat="45.61979672557611" lon="11.32204124394098"><ele>211.4</ele><time>2026-03-26T15:52:32Z</time></trkpt><trkpt lat="45.61973769806607" lon="11.321978328648552"><ele>211.0</ele><time>2026-03-26T15:52:43.999Z</time></trkpt><trkpt lat="45.61965187716354" lon="11.32187967538758"><ele>211.0</ele><time>2026-03-26T15:52:45.999Z</time></trkpt><trkpt lat="45.619553719020175" lon="11.321756045009007"><ele>211.0</ele><time>2026-03-26T15:52:47.999Z</time></trkpt><trkpt lat="45.619497443576044" lon="11.32170255242948"><ele>211.0</ele><time>2026-03-26T15:52:48.999Z</time></trkpt><trkpt lat="45.61943580792872" lon="11.321640804516743"><ele>211.0</ele><time>2026-03-26T15:52:49.999Z</time></trkpt><trkpt lat="45.61937159848893" lon="11.321576477061498"><ele>211.0</ele><time>2026-03-26T15:52:50.999Z</time></trkpt><trkpt lat="45.61929040382573" lon="11.321494554776264"><ele>210.60000000000002</ele><time>2026-03-26T15:52:51.999Z</time></trkpt><trkpt lat="45.61922177768934" lon="11.321425424089675"><ele>210.2</ele><time>2026-03-26T15:52:52.999Z</time></trkpt><trkpt lat="45.61915664179648" lon="11.321365116647543"><ele>209.8</ele><time>2026-03-26T15:52:53.999Z</time></trkpt><trkpt lat="45.61908081234186" lon="11.321297113760421"><ele>209.39999999999998</ele><time>2026-03-26T15:52:55.999Z</time></trkpt><trkpt lat="45.618945745204755" lon="11.321424660268827"><ele>209.0</ele><time>2026-03-26T15:52:58.999Z</time></trkpt><trkpt lat="45.61888445999064" lon="11.32153560317162"><ele>209.0</ele><time>2026-03-26T15:52:59.999Z</time></trkpt><trkpt lat="45.61882693802904" lon="11.32165916888968"><ele>209.0</ele><time>2026-03-26T15:53:00.999Z</time></trkpt><trkpt lat="45.618764625791265" lon="11.321804907020153"><ele>209.0</ele><time>2026-03-26T15:53:01.999Z</time></trkpt><trkpt lat="45.61868197777333" lon="11.321968425857785"><ele>209.0</ele><time>2026-03-26T15:53:02.999Z</time></trkpt><trkpt lat="45.61860532156194" lon="11.322116532628854"><ele>208.5</ele><time>2026-03-26T15:53:03.999Z</time></trkpt><trkpt lat="45.61853299079899" lon="11.322255514173284"><ele>208.0</ele><time>2026-03-26T15:53:04.999Z</time></trkpt><trkpt lat="45.61846291145728" lon="11.322398081490274"><ele>207.5</ele><time>2026-03-26T15:53:05.999Z</time></trkpt><trkpt lat="45.618381030677334" lon="11.322539323362621"><ele>207.0</ele><time>2026-03-26T15:53:06.999Z</time></trkpt><trkpt lat="45.61831119098131" lon="11.322688355193703"><ele>207.0</ele><time>2026-03-26T15:53:07.999Z</time></trkpt><trkpt lat="45.61823842606645" lon="11.32283718956074"><ele>207.0</ele><time>2026-03-26T15:53:08.999Z</time></trkpt><trkpt lat="45.61816502680068" lon="11.322984681853109"><ele>207.0</ele><time>2026-03-26T15:53:09.999Z</time></trkpt><trkpt lat="45.61808941133685" lon="11.323127964716923"><ele>207.0</ele><time>2026-03-26T15:53:10.999Z</time></trkpt><trkpt lat="45.618016964274055" lon="11.323270253059167"><ele>207.25</ele><time>2026-03-26T15:53:11.999Z</time></trkpt><trkpt lat="45.617947453926675" lon="11.323413716852611"><ele>207.5</ele><time>2026-03-26T15:53:12.999Z</time></trkpt><trkpt lat="45.617867217987914" lon="11.323545733591201"><ele>207.75</ele><time>2026-03-26T15:53:13.998Z</time></trkpt><trkpt lat="45.61779319361157" lon="11.323693850801325"><ele>208.0</ele><time>2026-03-26T15:53:14.998Z</time></trkpt><trkpt lat="45.61772693113552" lon="11.323826979167647"><ele>207.60000000000002</ele><time>2026-03-26T15:53:15.998Z</time></trkpt><trkpt lat="45.61766006411933" lon="11.323961322009225"><ele>207.20000000000002</ele><time>2026-03-26T15:53:16.998Z</time></trkpt><trkpt lat="45.617604465333045" lon="11.324073026132341"><ele>206.8</ele><time>2026-03-26T15:53:17.998Z</time></trkpt><trkpt lat="45.61754813414489" lon="11.324184747420864"><ele>206.4</ele><time>2026-03-26T15:53:18.998Z</time></trkpt><trkpt lat="45.617496462062675" lon="11.324286581415953"><ele>206.0</ele><time>2026-03-26T15:53:19.998Z</time></trkpt><trkpt lat="45.61745682662802" lon="11.324381188335533"><ele>206.0</ele><time>2026-03-26T15:53:20.998Z</time></trkpt><trkpt lat="45.61741141336782" lon="11.324473421323285"><ele>206.0</ele><time>2026-03-26T15:53:21.998Z</time></trkpt><trkpt lat="45.61731039544557" lon="11.324411926129496"><ele>206.0</ele><time>2026-03-26T15:53:27.998Z</time></trkpt><trkpt lat="45.61723948054257" lon="11.324324636530868"><ele>206.0</ele><time>2026-03-26T15:53:28.998Z</time></trkpt><trkpt lat="45.617158103146224" lon="11.324239528827567"><ele>206.0</ele><time>2026-03-26T15:53:29.998Z</time></trkpt><trkpt lat="45.61706649647027" lon="11.324128440412483"><ele>206.0</ele><time>2026-03-26T15:53:30.998Z</time></trkpt><trkpt lat="45.61698591310469" lon="11.324032290221695"><ele>206.0</ele><time>2026-03-26T15:53:31.998Z</time></trkpt><trkpt lat="45.61689146356993" lon="11.323925469949076"><ele>206.0</ele><time>2026-03-26T15:53:32.998Z</time></trkpt><trkpt lat="45.616793408986254" lon="11.323810294741417"><ele>206.0</ele><time>2026-03-26T15:53:33.998Z</time></trkpt><trkpt lat="45.61671825663694" lon="11.323703707871557"><ele>205.8</ele><time>2026-03-26T15:53:34.998Z</time></trkpt><trkpt lat="45.61665800172347" lon="11.323629140181021"><ele>205.60000000000002</ele><time>2026-03-26T15:53:35.998Z</time></trkpt><trkpt lat="45.616597523173745" lon="11.323592621848784"><ele>205.4</ele><time>2026-03-26T15:53:36.998Z</time></trkpt><trkpt lat="45.61652579805696" lon="11.323563001664146"><ele>205.2</ele><time>2026-03-26T15:53:37.998Z</time></trkpt><trkpt lat="45.616432599162586" lon="11.323613935668513"><ele>205.0</ele><time>2026-03-26T15:53:38.998Z</time></trkpt><trkpt lat="45.61637459240083" lon="11.32379214114486"><ele>205.2</ele><time>2026-03-26T15:53:39.998Z</time></trkpt><trkpt lat="45.61630395098206" lon="11.323939339590634"><ele>205.4</ele><time>2026-03-26T15:53:40.998Z</time></trkpt><trkpt lat="45.616242487613675" lon="11.324060071134411"><ele>205.60000000000002</ele><time>2026-03-26T15:53:41.998Z</time></trkpt><trkpt lat="45.61619752138514" lon="11.324139412537573"><ele>205.8</ele><time>2026-03-26T15:53:42.998Z</time></trkpt><trkpt lat="45.616103272892396" lon="11.324211058723291"><ele>206.0</ele><time>2026-03-26T15:53:44.998Z</time></trkpt><trkpt lat="45.61601127759012" lon="11.324150799165832"><ele>205.83333333333334</ele><time>2026-03-26T15:53:46.998Z</time></trkpt><trkpt lat="45.615973955672565" lon="11.324061189100986"><ele>205.66666666666669</ele><time>2026-03-26T15:53:47.998Z</time></trkpt><trkpt lat="45.615917722288486" lon="11.323993464877498"><ele>205.5</ele><time>2026-03-26T15:53:48.998Z</time></trkpt><trkpt lat="45.61584888071381" lon="11.323933938449992"><ele>205.33333333333331</ele><time>2026-03-26T15:53:49.998Z</time></trkpt><trkpt lat="45.615780590083666" lon="11.323839703585517"><ele>205.16666666666666</ele><time>2026-03-26T15:53:51.997Z</time></trkpt><trkpt lat="45.61573642171877" lon="11.32375046167224"><ele>205.0</ele><time>2026-03-26T15:53:55.997Z</time></trkpt><trkpt lat="45.61567308482711" lon="11.323730625238444"><ele>205.0</ele><time>2026-03-26T15:55:36.998Z</time></trkpt><trkpt lat="45.6156238186781" lon="11.323666184494499"><ele>205.0</ele><time>2026-03-26T15:55:43.998Z</time></trkpt><trkpt lat="45.61570620808532" lon="11.323419659431133"><ele>205.0</ele><time>2026-03-26T15:55:46.998Z</time></trkpt><trkpt lat="45.615783272541336" lon="11.32326829266319"><ele>205.0</ele><time>2026-03-26T15:55:47.998Z</time></trkpt><trkpt lat="45.61587266144351" lon="11.323112925238961"><ele>205.33333333333331</ele><time>2026-03-26T15:55:48.998Z</time></trkpt><trkpt lat="45.61597603301088" lon="11.322925249340438"><ele>205.66666666666669</ele><time>2026-03-26T15:55:49.998Z</time></trkpt><trkpt lat="45.61609882483433" lon="11.322728079697452"><ele>206.0</ele><time>2026-03-26T15:55:50.998Z</time></trkpt><trkpt lat="45.61624069295159" lon="11.322522589982023"><ele>206.0</ele><time>2026-03-26T15:55:51.998Z</time></trkpt><trkpt lat="45.61640188239632" lon="11.322301829512766"><ele>206.0</ele><time>2026-03-26T15:55:52.998Z</time></trkpt><trkpt lat="45.616526562731984" lon="11.322119797853837"><ele>206.0</ele><time>2026-03-26T15:55:53.998Z</time></trkpt><trkpt lat="45.61664288444824" lon="11.321956677151052"><ele>206.0</ele><time>2026-03-26T15:55:54.998Z</time></trkpt><trkpt lat="45.61674941901323" lon="11.321813782893258"><ele>206.0</ele><time>2026-03-26T15:55:55.998Z</time></trkpt><trkpt lat="45.616850988329915" lon="11.321665171651222"><ele>206.0</ele><time>2026-03-26T15:55:56.997Z</time></trkpt><trkpt lat="45.61695583175208" lon="11.321516035837776"><ele>206.0</ele><time>2026-03-26T15:55:57.997Z</time></trkpt><trkpt lat="45.61707574154998" lon="11.321354991519703"><ele>206.0</ele><time>2026-03-26T15:55:58.997Z</time></trkpt><trkpt lat="45.6172168613061" lon="11.321169963608542"><ele>206.0</ele><time>2026-03-26T15:55:59.997Z</time></trkpt><trkpt lat="45.61736367317657" lon="11.32096938802487"><ele>206.0</ele><time>2026-03-26T15:56:00.997Z</time></trkpt><trkpt lat="45.61749455715605" lon="11.3207778413144"><ele>206.0</ele><time>2026-03-26T15:56:01.997Z</time></trkpt><trkpt lat="45.61762194150428" lon="11.320593274293351"><ele>206.0</ele><time>2026-03-26T15:56:02.997Z</time></trkpt><trkpt lat="45.617751820024885" lon="11.320397459642955"><ele>206.0</ele><time>2026-03-26T15:56:03.997Z</time></trkpt><trkpt lat="45.617876441716085" lon="11.320174184867938"><ele>206.66666666666669</ele><time>2026-03-26T15:56:04.997Z</time></trkpt><trkpt lat="45.6179705382501" lon="11.319966543297303"><ele>207.33333333333331</ele><time>2026-03-26T15:56:05.997Z</time></trkpt><trkpt lat="45.618047119913776" lon="11.319767935306778"><ele>208.0</ele><time>2026-03-26T15:56:06.997Z</time></trkpt><trkpt lat="45.61810753684348" lon="11.319565898940677"><ele>208.0</ele><time>2026-03-26T15:56:07.997Z</time></trkpt><trkpt lat="45.61816157127783" lon="11.319368924076459"><ele>208.0</ele><time>2026-03-26T15:56:08.997Z</time></trkpt><trkpt lat="45.61820447884276" lon="11.31919654702307"><ele>208.0</ele><time>2026-03-26T15:56:09.997Z</time></trkpt><trkpt lat="45.61825633883256" lon="11.31903742066598"><ele>208.0</ele><time>2026-03-26T15:56:10.997Z</time></trkpt><trkpt lat="45.618267318419875" lon="11.31891463489213"><ele>208.8</ele><time>2026-03-26T15:56:11.997Z</time></trkpt><trkpt lat="45.618291948735774" lon="11.318789866866025"><ele>209.60000000000002</ele><time>2026-03-26T15:56:12.997Z</time></trkpt><trkpt lat="45.618323278090955" lon="11.318640049822518"><ele>210.39999999999998</ele><time>2026-03-26T15:56:13.997Z</time></trkpt><trkpt lat="45.618346089711466" lon="11.318513487898093"><ele>211.2</ele><time>2026-03-26T15:56:14.997Z</time></trkpt><trkpt lat="45.61837514599376" lon="11.31837959450338"><ele>212.0</ele><time>2026-03-26T15:56:16Z</time></trkpt><trkpt lat="45.61840530205678" lon="11.318223304474374"><ele>212.0</ele><time>2026-03-26T15:56:17Z</time></trkpt><trkpt lat="45.61843551569186" lon="11.31808466780357"><ele>212.0</ele><time>2026-03-26T15:56:18Z</time></trkpt><trkpt lat="45.618455358505884" lon="11.3179518348266"><ele>212.0</ele><time>2026-03-26T15:56:19Z</time></trkpt><trkpt lat="45.61847796938663" lon="11.317800067543283"><ele>212.0</ele><time>2026-03-26T15:56:20Z</time></trkpt><trkpt lat="45.61850036065773" lon="11.31767962783385"><ele>212.0</ele><time>2026-03-26T15:56:21Z</time></trkpt><trkpt lat="45.618541166744" lon="11.317509842904654"><ele>212.83333333333334</ele><time>2026-03-26T15:56:23Z</time></trkpt><trkpt lat="45.618555252686576" lon="11.317410739936273"><ele>213.66666666666669</ele><time>2026-03-26T15:56:24Z</time></trkpt><trkpt lat="45.61858533076046" lon="11.317301699417284"><ele>214.5</ele><time>2026-03-26T15:56:26Z</time></trkpt><trkpt lat="45.618595195307236" lon="11.317173701316024"><ele>215.33333333333331</ele><time>2026-03-26T15:56:28Z</time></trkpt><trkpt lat="45.61862450308328" lon="11.317061993497939"><ele>216.16666666666666</ele><time>2026-03-26T15:56:30Z</time></trkpt><trkpt lat="45.61866861286235" lon="11.316930193985092"><ele>217.0</ele><time>2026-03-26T15:56:32Z</time></trkpt><trkpt lat="45.61873569717476" lon="11.316868017833402"><ele>217.2</ele><time>2026-03-26T15:56:33Z</time></trkpt><trkpt lat="45.61881519212425" lon="11.316799385731914"><ele>217.39999999999998</ele><time>2026-03-26T15:56:34Z</time></trkpt><trkpt lat="45.61888052313874" lon="11.31673993684002"><ele>217.60000000000002</ele><time>2026-03-26T15:56:35Z</time></trkpt><trkpt lat="45.618951248757114" lon="11.31662484262697"><ele>217.8</ele><time>2026-03-26T15:56:36Z</time></trkpt><trkpt lat="45.61900151413537" lon="11.316506546913756"><ele>218.0</ele><time>2026-03-26T15:56:37Z</time></trkpt><trkpt lat="45.618988591244396" lon="11.31634826734332"><ele>217.60000000000002</ele><time>2026-03-26T15:56:38Z</time></trkpt><trkpt lat="45.6189706579122" lon="11.316203302096634"><ele>217.20000000000002</ele><time>2026-03-26T15:56:39Z</time></trkpt><trkpt lat="45.618882588232516" lon="11.316105715744234"><ele>216.8</ele><time>2026-03-26T15:56:40Z</time></trkpt><trkpt lat="45.618779736401194" lon="11.316033132821225"><ele>216.4</ele><time>2026-03-26T15:56:41Z</time></trkpt><trkpt lat="45.61866100090868" lon="11.316013608193412"><ele>216.0</ele><time>2026-03-26T15:56:41.999Z</time></trkpt><trkpt lat="45.618529115557656" lon="11.316038095421593"><ele>217.0</ele><time>2026-03-26T15:56:42.999Z</time></trkpt><trkpt lat="45.61840011971008" lon="11.31602137975432"><ele>218.0</ele><time>2026-03-26T15:56:43.999Z</time></trkpt><trkpt lat="45.61829988753198" lon="11.315942297847663"><ele>219.0</ele><time>2026-03-26T15:56:44.999Z</time></trkpt><trkpt lat="45.61822534726529" lon="11.315806108303585"><ele>220.0</ele><time>2026-03-26T15:56:45.999Z</time></trkpt><trkpt lat="45.618130537392645" lon="11.315702946901672"><ele>220.0</ele><time>2026-03-26T15:56:46.999Z</time></trkpt><trkpt lat="45.618050328658136" lon="11.315574824064122"><ele>220.0</ele><time>2026-03-26T15:56:47.999Z</time></trkpt><trkpt lat="45.6179764284529" lon="11.315460107020721"><ele>220.0</ele><time>2026-03-26T15:56:48.999Z</time></trkpt><trkpt lat="45.61792995495839" lon="11.315352074216404"><ele>220.0</ele><time>2026-03-26T15:56:49.999Z</time></trkpt><trkpt lat="45.617710699100435" lon="11.315433188003507"><ele>220.5</ele><time>2026-03-26T15:56:51.999Z</time></trkpt><trkpt lat="45.61762405807742" lon="11.315519205133079"><ele>221.0</ele><time>2026-03-26T15:56:52.999Z</time></trkpt><trkpt lat="45.61755179296696" lon="11.315581321524231"><ele>221.5</ele><time>2026-03-26T15:56:53.999Z</time></trkpt><trkpt lat="45.61742786814487" lon="11.315444266481537"><ele>222.0</ele><time>2026-03-26T15:56:55.999Z</time></trkpt><trkpt lat="45.61735335967485" lon="11.315309911221357"><ele>222.5</ele><time>2026-03-26T15:56:56.999Z</time></trkpt><trkpt lat="45.61727203957501" lon="11.315163272065831"><ele>223.0</ele><time>2026-03-26T15:56:57.999Z</time></trkpt><trkpt lat="45.61718896673465" lon="11.315013473084498"><ele>223.5</ele><time>2026-03-26T15:56:58.999Z</time></trkpt><trkpt lat="45.6170879255165" lon="11.314870203596318"><ele>224.0</ele><time>2026-03-26T15:56:59.999Z</time></trkpt><trkpt lat="45.61700198980849" lon="11.314693351416523"><ele>226.75</ele><time>2026-03-26T15:57:00.999Z</time></trkpt><trkpt lat="45.61690253773503" lon="11.314514278626275"><ele>229.5</ele><time>2026-03-26T15:57:01.999Z</time></trkpt><trkpt lat="45.616828491745224" lon="11.314367678416845"><ele>232.25</ele><time>2026-03-26T15:57:02.999Z</time></trkpt><trkpt lat="45.616763768083665" lon="11.314233405542074"><ele>235.0</ele><time>2026-03-26T15:57:03.999Z</time></trkpt><trkpt lat="45.61670953404841" lon="11.314104953826"><ele>235.0</ele><time>2026-03-26T15:57:04.999Z</time></trkpt><trkpt lat="45.61661910260914" lon="11.313970215482314"><ele>235.0</ele><time>2026-03-26T15:57:05.999Z</time></trkpt><trkpt lat="45.616528252970916" lon="11.31383205274099"><ele>235.0</ele><time>2026-03-26T15:57:06.999Z</time></trkpt><trkpt lat="45.61643519862278" lon="11.313692537071255"><ele>235.0</ele><time>2026-03-26T15:57:07.999Z</time></trkpt><trkpt lat="45.616356502305024" lon="11.31354818614783"><ele>235.75</ele><time>2026-03-26T15:57:08.999Z</time></trkpt><trkpt lat="45.61627689642527" lon="11.313396477713605"><ele>236.5</ele><time>2026-03-26T15:57:09.999Z</time></trkpt><trkpt lat="45.61620158295078" lon="11.313255420249382"><ele>237.25</ele><time>2026-03-26T15:57:10.999Z</time></trkpt><trkpt lat="45.61612836483041" lon="11.313115777213019"><ele>238.0</ele><time>2026-03-26T15:57:11.999Z</time></trkpt><trkpt lat="45.616046396232946" lon="11.312966445932188"><ele>239.5</ele><time>2026-03-26T15:57:12.999Z</time></trkpt><trkpt lat="45.615968482399666" lon="11.312830454232135"><ele>241.0</ele><time>2026-03-26T15:57:13.999Z</time></trkpt><trkpt lat="45.61589318431284" lon="11.312695649791356"><ele>242.5</ele><time>2026-03-26T15:57:14.999Z</time></trkpt><trkpt lat="45.61581546776665" lon="11.312561257657803"><ele>244.0</ele><time>2026-03-26T15:57:15.999Z</time></trkpt><trkpt lat="45.61574837219812" lon="11.312435467095492"><ele>243.99999999999997</ele><time>2026-03-26T15:57:16.999Z</time></trkpt><trkpt lat="45.615683692859335" lon="11.312338573255781"><ele>244.0</ele><time>2026-03-26T15:57:17.999Z</time></trkpt><trkpt lat="45.615624837422914" lon="11.312252863290817"><ele>244.0</ele><time>2026-03-26T15:57:18.999Z</time></trkpt><trkpt lat="45.61554338350794" lon="11.31218527432006"><ele>244.0</ele><time>2026-03-26T15:57:19.999Z</time></trkpt><trkpt lat="45.615482169464336" lon="11.312093920530584"><ele>243.99999999999997</ele><time>2026-03-26T15:57:20.999Z</time></trkpt><trkpt lat="45.61541799888009" lon="11.312043331796414"><ele>244.0</ele><time>2026-03-26T15:57:21.998Z</time></trkpt><trkpt lat="45.61535444786713" lon="11.311946901133055"><ele>246.2</ele><time>2026-03-26T15:57:22.998Z</time></trkpt><trkpt lat="45.61529176314391" lon="11.311865008433223"><ele>248.39999999999998</ele><time>2026-03-26T15:57:23.998Z</time></trkpt><trkpt lat="45.615238850594174" lon="11.311779119877396"><ele>250.6</ele><time>2026-03-26T15:57:24.998Z</time></trkpt><trkpt lat="45.61517131907013" lon="11.311664208712042"><ele>252.8</ele><time>2026-03-26T15:57:26.998Z</time></trkpt><trkpt lat="45.61510929663042" lon="11.311599674154976"><ele>255.0</ele><time>2026-03-26T15:57:28.998Z</time></trkpt><trkpt lat="45.61501590784584" lon="11.311744065102003"><ele>255.0</ele><time>2026-03-26T15:57:29.998Z</time></trkpt><trkpt lat="45.61495724651376" lon="11.311855982230494"><ele>255.0</ele><time>2026-03-26T15:57:30.998Z</time></trkpt><trkpt lat="45.61489611473952" lon="11.311955507545795"><ele>255.0</ele><time>2026-03-26T15:57:31.998Z</time></trkpt><trkpt lat="45.6148142954526" lon="11.312011844676695"><ele>255.0</ele><time>2026-03-26T15:57:32.998Z</time></trkpt><trkpt lat="45.61474740275869" lon="11.312082809853832"><ele>255.0</ele><time>2026-03-26T15:57:33.998Z</time></trkpt><trkpt lat="45.61465698193676" lon="11.312068319432383"><ele>255.0</ele><time>2026-03-26T15:57:34.998Z</time></trkpt><trkpt lat="45.61454994321684" lon="11.312094913057333"><ele>255.0</ele><time>2026-03-26T15:57:35.998Z</time></trkpt><trkpt lat="45.61442652476557" lon="11.312097050227843"><ele>255.0</ele><time>2026-03-26T15:57:36.998Z</time></trkpt><trkpt lat="45.614315070962945" lon="11.312094235832163"><ele>255.0</ele><time>2026-03-26T15:57:37.998Z</time></trkpt><trkpt lat="45.61424135538825" lon="11.31211476084594"><ele>255.0</ele><time>2026-03-26T15:57:38.998Z</time></trkpt><trkpt lat="45.61418381261832" lon="11.31215938199156"><ele>260.5</ele><time>2026-03-26T15:57:39.998Z</time></trkpt><trkpt lat="45.614160690679" lon="11.312273552842521"><ele>266.0</ele><time>2026-03-26T15:57:40.998Z</time></trkpt><trkpt lat="45.61422093365461" lon="11.312457603489555"><ele>271.5</ele><time>2026-03-26T15:57:41.998Z</time></trkpt><trkpt lat="45.61424181956528" lon="11.312622882544716"><ele>277.0</ele><time>2026-03-26T15:57:42.998Z</time></trkpt><trkpt lat="45.61429851518682" lon="11.312768610208098"><ele>277.0</ele><time>2026-03-26T15:57:43.998Z</time></trkpt><trkpt lat="45.61440469731418" lon="11.31285343592258"><ele>277.0</ele><time>2026-03-26T15:57:44.998Z</time></trkpt><trkpt lat="45.61447716377528" lon="11.312935042947164"><ele>277.0</ele><time>2026-03-26T15:57:46.998Z</time></trkpt><trkpt lat="45.61439638752122" lon="11.312907277298395"><ele>277.0</ele><time>2026-03-26T15:57:49.998Z</time></trkpt><trkpt lat="45.61425215453867" lon="11.312872797056533"><ele>277.0</ele><time>2026-03-26T15:57:51.998Z</time></trkpt><trkpt lat="45.61416937700194" lon="11.312845826998592"><ele>277.0</ele><time>2026-03-26T15:57:52.998Z</time></trkpt><trkpt lat="45.61409696361061" lon="11.312784985181613"><ele>277.0</ele><time>2026-03-26T15:57:53.998Z</time></trkpt><trkpt lat="45.61403762081611" lon="11.31267935185736"><ele>277.0</ele><time>2026-03-26T15:57:54.998Z</time></trkpt><trkpt lat="45.61396956880769" lon="11.31258378475031"><ele>277.0</ele><time>2026-03-26T15:57:55.998Z</time></trkpt><trkpt lat="45.61389155958891" lon="11.312504037838135"><ele>277.0</ele><time>2026-03-26T15:57:56.998Z</time></trkpt><trkpt lat="45.61382949920138" lon="11.312477567503368"><ele>277.0</ele><time>2026-03-26T15:57:58.998Z</time></trkpt><trkpt lat="45.613719126668784" lon="11.312431745236504"><ele>280.5</ele><time>2026-03-26T15:58:04.997Z</time></trkpt><trkpt lat="45.613624315132085" lon="11.312351856966016"><ele>284.0</ele><time>2026-03-26T15:58:05.997Z</time></trkpt><trkpt lat="45.61350813282052" lon="11.312304923682351"><ele>287.5</ele><time>2026-03-26T15:58:06.997Z</time></trkpt><trkpt lat="45.613391339759026" lon="11.312248226369624"><ele>291.0</ele><time>2026-03-26T15:58:07.997Z</time></trkpt><trkpt lat="45.613275220878734" lon="11.312160125813277"><ele>291.0</ele><time>2026-03-26T15:58:08.997Z</time></trkpt><trkpt lat="45.613191289412434" lon="11.31199864945422"><ele>291.0</ele><time>2026-03-26T15:58:09.997Z</time></trkpt><trkpt lat="45.61310532736542" lon="11.311830492975353"><ele>291.0</ele><time>2026-03-26T15:58:10.997Z</time></trkpt><trkpt lat="45.61302313362203" lon="11.311707211656302"><ele>291.0</ele><time>2026-03-26T15:58:11.997Z</time></trkpt><trkpt lat="45.61297609208692" lon="11.311591219136163"><ele>291.0</ele><time>2026-03-26T15:58:12.997Z</time></trkpt><trkpt lat="45.61292969044609" lon="11.31148522897846"><ele>291.0</ele><time>2026-03-26T15:58:13.997Z</time></trkpt><trkpt lat="45.612886096755055" lon="11.311365296775175"><ele>291.0</ele><time>2026-03-26T15:58:14.997Z</time></trkpt><trkpt lat="45.612846809066085" lon="11.311238042198504"><ele>291.0</ele><time>2026-03-26T15:58:15.997Z</time></trkpt><trkpt lat="45.612820289488106" lon="11.311078987654833"><ele>291.0</ele><time>2026-03-26T15:58:16.997Z</time></trkpt><trkpt lat="45.6127738838544" lon="11.310973547071473"><ele>291.2</ele><time>2026-03-26T15:58:17.997Z</time></trkpt><trkpt lat="45.61275850554721" lon="11.31088059766043"><ele>291.40000000000003</ele><time>2026-03-26T15:58:18.997Z</time></trkpt><trkpt lat="45.612696763376476" lon="11.310786507611885"><ele>291.6</ele><time>2026-03-26T15:58:19.997Z</time></trkpt><trkpt lat="45.61263816799" lon="11.31069093517736"><ele>291.8</ele><time>2026-03-26T15:58:20.997Z</time></trkpt><trkpt lat="45.61255589683132" lon="11.310610775375277"><ele>292.0</ele><time>2026-03-26T15:58:22Z</time></trkpt><trkpt lat="45.61243755099367" lon="11.310527993425467"><ele>292.0</ele><time>2026-03-26T15:58:23Z</time></trkpt><trkpt lat="45.612350719262075" lon="11.310410149836345"><ele>292.0</ele><time>2026-03-26T15:58:24Z</time></trkpt><trkpt lat="45.61227501831711" lon="11.31031415300085"><ele>292.0</ele><time>2026-03-26T15:58:25Z</time></trkpt><trkpt lat="45.6122065670935" lon="11.31022701004185"><ele>292.0</ele><time>2026-03-26T15:58:26Z</time></trkpt><trkpt lat="45.612145988780824" lon="11.310149889476321"><ele>292.0</ele><time>2026-03-26T15:58:27Z</time></trkpt><trkpt lat="45.612078624221155" lon="11.310064127189023"><ele>292.0</ele><time>2026-03-26T15:58:28Z</time></trkpt><trkpt lat="45.61199965851938" lon="11.309963595403932"><ele>292.0</ele><time>2026-03-26T15:58:29Z</time></trkpt><trkpt lat="45.61184579794647" lon="11.309976156246394"><ele>292.0</ele><time>2026-03-26T15:58:30Z</time></trkpt><trkpt lat="45.61173431471715" lon="11.30990505527916"><ele>292.0</ele><time>2026-03-26T15:58:31Z</time></trkpt><trkpt lat="45.6116328398456" lon="11.309841593400279"><ele>292.66666666666663</ele><time>2026-03-26T15:58:32Z</time></trkpt><trkpt lat="45.61155313093445" lon="11.309780625183631"><ele>293.3333333333333</ele><time>2026-03-26T15:58:33Z</time></trkpt><trkpt lat="45.611469727444984" lon="11.309723383698381"><ele>294.0</ele><time>2026-03-26T15:58:34Z</time></trkpt><trkpt lat="45.61139422732093" lon="11.30964763771362"><ele>294.6666666666667</ele><time>2026-03-26T15:58:35Z</time></trkpt><trkpt lat="45.61131192862404" lon="11.309611974159044"><ele>295.33333333333337</ele><time>2026-03-26T15:58:36Z</time></trkpt><trkpt lat="45.61122777535019" lon="11.30959979386742"><ele>296.0</ele><time>2026-03-26T15:58:37Z</time></trkpt><trkpt lat="45.61113732193335" lon="11.309636676026061"><ele>299.0</ele><time>2026-03-26T15:58:38Z</time></trkpt><trkpt lat="45.61106323762445" lon="11.30967880883277"><ele>302.0</ele><time>2026-03-26T15:58:39Z</time></trkpt><trkpt lat="45.61097297003431" lon="11.309619054381464"><ele>305.0</ele><time>2026-03-26T15:58:41Z</time></trkpt><trkpt lat="45.61095172080612" lon="11.30942694634062"><ele>308.0</ele><time>2026-03-26T15:58:43Z</time></trkpt><trkpt lat="45.61091991020075" lon="11.30933517111948"><ele>311.0</ele><time>2026-03-26T15:58:44Z</time></trkpt><trkpt lat="45.61086397997155" lon="11.309274863103877"><ele>311.0</ele><time>2026-03-26T15:58:45Z</time></trkpt><trkpt lat="45.61079336354438" lon="11.309202502186517"><ele>311.0</ele><time>2026-03-26T15:58:46Z</time></trkpt><trkpt lat="45.61074153838897" lon="11.309135884442012"><ele>311.0</ele><time>2026-03-26T15:58:47Z</time></trkpt><trkpt lat="45.610681953194124" lon="11.30907124165285"><ele>311.0</ele><time>2026-03-26T15:58:48Z</time></trkpt><trkpt lat="45.61061998634056" lon="11.308994127001851"><ele>311.0</ele><time>2026-03-26T15:58:49Z</time></trkpt><trkpt lat="45.61059891691148" lon="11.308876205698501"><ele>311.0</ele><time>2026-03-26T15:58:50Z</time></trkpt><trkpt lat="45.61061789409794" lon="11.308762064167968"><ele>310.6666666666667</ele><time>2026-03-26T15:58:51Z</time></trkpt><trkpt lat="45.61061243897902" lon="11.308596720992291"><ele>310.33333333333337</ele><time>2026-03-26T15:58:52.999Z</time></trkpt><trkpt lat="45.610572381204186" lon="11.308524480166989"><ele>310.0</ele><time>2026-03-26T15:58:53.999Z</time></trkpt><trkpt lat="45.61054441681816" lon="11.308435937814323"><ele>309.6666666666667</ele><time>2026-03-26T15:58:54.999Z</time></trkpt><trkpt lat="45.61050214143155" lon="11.308357062956619"><ele>309.3333333333333</ele><time>2026-03-26T15:58:55.999Z</time></trkpt><trkpt lat="45.61041223691848" lon="11.308302312500286"><ele>309.0</ele><time>2026-03-26T15:58:56.999Z</time></trkpt><trkpt lat="45.61033762834194" lon="11.30821156710698"><ele>311.25</ele><time>2026-03-26T15:58:57.999Z</time></trkpt><trkpt lat="45.61023584480334" lon="11.308113447060997"><ele>313.5</ele><time>2026-03-26T15:58:58.999Z</time></trkpt><trkpt lat="45.61011818548183" lon="11.307979218424977"><ele>315.75</ele><time>2026-03-26T15:58:59.999Z</time></trkpt><trkpt lat="45.61001643032842" lon="11.307907549460648"><ele>318.0</ele><time>2026-03-26T15:59:00.999Z</time></trkpt><trkpt lat="45.60990852432573" lon="11.307802407766825"><ele>318.0</ele><time>2026-03-26T15:59:01.999Z</time></trkpt><trkpt lat="45.60983155457782" lon="11.30772868196939"><ele>318.0</ele><time>2026-03-26T15:59:02.999Z</time></trkpt><trkpt lat="45.60977088550281" lon="11.307659544162956"><ele>318.0</ele><time>2026-03-26T15:59:03.999Z</time></trkpt><trkpt lat="45.60970527007849" lon="11.307569142828248"><ele>318.0</ele><time>2026-03-26T15:59:05.999Z</time></trkpt><trkpt lat="45.60974401177281" lon="11.307465020277414"><ele>318.0</ele><time>2026-03-26T15:59:07.999Z</time></trkpt><trkpt lat="45.609832878501535" lon="11.307292957360211"><ele>320.75</ele><time>2026-03-26T15:59:09.999Z</time></trkpt><trkpt lat="45.60991505003277" lon="11.307210482369548"><ele>323.5</ele><time>2026-03-26T15:59:10.999Z</time></trkpt><trkpt lat="45.61002008391519" lon="11.30717293212205"><ele>326.25</ele><time>2026-03-26T15:59:11.999Z</time></trkpt><trkpt lat="45.61013939610718" lon="11.307173333778461"><ele>329.0</ele><time>2026-03-26T15:59:12.999Z</time></trkpt><trkpt lat="45.61026591964376" lon="11.307180838959892"><ele>327.79999999999995</ele><time>2026-03-26T15:59:13.999Z</time></trkpt><trkpt lat="45.61037814743003" lon="11.307141753114498"><ele>326.59999999999997</ele><time>2026-03-26T15:59:14.999Z</time></trkpt><trkpt lat="45.61047009210347" lon="11.307066373914127"><ele>325.4</ele><time>2026-03-26T15:59:15.999Z</time></trkpt><trkpt lat="45.61052876216774" lon="11.306987630434165"><ele>324.2</ele><time>2026-03-26T15:59:16.999Z</time></trkpt><trkpt lat="45.610571310641575" lon="11.306850872331298"><ele>323.0</ele><time>2026-03-26T15:59:17.999Z</time></trkpt><trkpt lat="45.610578693306586" lon="11.306728222327017"><ele>323.0</ele><time>2026-03-26T15:59:18.999Z</time></trkpt><trkpt lat="45.61057962108674" lon="11.306608333294463"><ele>323.0</ele><time>2026-03-26T15:59:19.999Z</time></trkpt><trkpt lat="45.61055356973844" lon="11.306482213481189"><ele>323.0</ele><time>2026-03-26T15:59:20.999Z</time></trkpt><trkpt lat="45.610534630507274" lon="11.306360488652047"><ele>323.0</ele><time>2026-03-26T15:59:21.999Z</time></trkpt><trkpt lat="45.61052378575581" lon="11.30626678793389"><ele>323.0</ele><time>2026-03-26T15:59:22.999Z</time></trkpt><trkpt lat="45.61059061906712" lon="11.306224281803638"><ele>323.0</ele><time>2026-03-26T15:59:27.999Z</time></trkpt><trkpt lat="45.61034585488544" lon="11.30636941967602"><ele>324.2</ele><time>2026-03-26T15:59:28.999Z</time></trkpt><trkpt lat="45.61023785053841" lon="11.306393900363076"><ele>325.4</ele><time>2026-03-26T15:59:30.999Z</time></trkpt><trkpt lat="45.61012678474713" lon="11.306412525425081"><ele>326.59999999999997</ele><time>2026-03-26T15:59:32.999Z</time></trkpt><trkpt lat="45.61003728934981" lon="11.306406942079755"><ele>327.79999999999995</ele><time>2026-03-26T15:59:34.998Z</time></trkpt><trkpt lat="45.60995137935587" lon="11.306414853286102"><ele>329.0</ele><time>2026-03-26T15:59:36.998Z</time></trkpt><trkpt lat="45.6098326576334" lon="11.306477174501703"><ele>329.0</ele><time>2026-03-26T15:59:38.998Z</time></trkpt><trkpt lat="45.609778802270306" lon="11.306545825024953"><ele>329.0</ele><time>2026-03-26T15:59:39.998Z</time></trkpt><trkpt lat="45.60967755449927" lon="11.306604005392733"><ele>329.0</ele><time>2026-03-26T15:59:41.998Z</time></trkpt><trkpt lat="45.609589796426846" lon="11.30660386555268"><ele>329.0</ele><time>2026-03-26T15:59:42.998Z</time></trkpt><trkpt lat="45.60950179597598" lon="11.30656634992907"><ele>329.0</ele><time>2026-03-26T15:59:44.998Z</time></trkpt><trkpt lat="45.609465400708686" lon="11.306492009963605"><ele>329.0</ele><time>2026-03-26T15:59:45.998Z</time></trkpt><trkpt lat="45.60938152431583" lon="11.306421293816127"><ele>329.83333333333337</ele><time>2026-03-26T15:59:47.998Z</time></trkpt><trkpt lat="45.60931177999437" lon="11.306433041799059"><ele>330.6666666666667</ele><time>2026-03-26T15:59:49.998Z</time></trkpt><trkpt lat="45.60929395692718" lon="11.306318458084066"><ele>331.5</ele><time>2026-03-26T15:59:51.998Z</time></trkpt><trkpt lat="45.60929861218266" lon="11.306144967791043"><ele>332.3333333333333</ele><time>2026-03-26T15:59:53.998Z</time></trkpt><trkpt lat="45.60929340644227" lon="11.306046216007694"><ele>333.16666666666663</ele><time>2026-03-26T15:59:54.998Z</time></trkpt><trkpt lat="45.609327900760285" lon="11.305928705859358"><ele>334.0</ele><time>2026-03-26T15:59:56.998Z</time></trkpt><trkpt lat="45.60938834135704" lon="11.305880618436134"><ele>334.8333333333333</ele><time>2026-03-26T15:59:57.998Z</time></trkpt><trkpt lat="45.609462484552935" lon="11.30585394659644"><ele>335.66666666666663</ele><time>2026-03-26T15:59:58.998Z</time></trkpt><trkpt lat="45.6095261330666" lon="11.305812703705845"><ele>336.5</ele><time>2026-03-26T15:59:59.998Z</time></trkpt><trkpt lat="45.609575653710664" lon="11.305730145004159"><ele>337.3333333333333</ele><time>2026-03-26T16:00:00.998Z</time></trkpt><trkpt lat="45.60961157912247" lon="11.305569502332407"><ele>338.1666666666667</ele><time>2026-03-26T16:00:02.998Z</time></trkpt><trkpt lat="45.609632534459806" lon="11.305470786032211"><ele>339.0</ele><time>2026-03-26T16:00:03.998Z</time></trkpt><trkpt lat="45.609668156627095" lon="11.305373621475946"><ele>340.0</ele><time>2026-03-26T16:00:04.998Z</time></trkpt><trkpt lat="45.60970552584008" lon="11.305296262149719"><ele>341.0</ele><time>2026-03-26T16:00:05.998Z</time></trkpt><trkpt lat="45.60975207962015" lon="11.305171545621528"><ele>342.0</ele><time>2026-03-26T16:00:07.998Z</time></trkpt><trkpt lat="45.60980163254595" lon="11.304989021277771"><ele>343.0</ele><time>2026-03-26T16:00:09.998Z</time></trkpt><trkpt lat="45.60984703335787" lon="11.304870539966865"><ele>344.0</ele><time>2026-03-26T16:00:10.998Z</time></trkpt><trkpt lat="45.60990114903941" lon="11.30474506551532"><ele>344.79999999999995</ele><time>2026-03-26T16:00:11.998Z</time></trkpt><trkpt lat="45.60997533915011" lon="11.304636382219185"><ele>345.59999999999997</ele><time>2026-03-26T16:00:12.997Z</time></trkpt><trkpt lat="45.61007815451608" lon="11.304553138657026"><ele>346.4</ele><time>2026-03-26T16:00:13.997Z</time></trkpt><trkpt lat="45.610154722702255" lon="11.30444681968589"><ele>347.2</ele><time>2026-03-26T16:00:14.997Z</time></trkpt><trkpt lat="45.610224608987366" lon="11.304369782791136"><ele>348.0</ele><time>2026-03-26T16:00:15.997Z</time></trkpt><trkpt lat="45.61028871688332" lon="11.304331211887286"><ele>348.0</ele><time>2026-03-26T16:00:17.997Z</time></trkpt><trkpt lat="45.610217578083926" lon="11.30418825157647"><ele>348.0</ele><time>2026-03-26T16:00:20.997Z</time></trkpt><trkpt lat="45.610153329292054" lon="11.304125083865461"><ele>348.0</ele><time>2026-03-26T16:00:21.997Z</time></trkpt><trkpt lat="45.610106232945" lon="11.304031665058798"><ele>348.0</ele><time>2026-03-26T16:00:22.997Z</time></trkpt><trkpt lat="45.610070811156234" lon="11.303934162959894"><ele>348.0</ele><time>2026-03-26T16:00:24.997Z</time></trkpt><trkpt lat="45.61009416729704" lon="11.30384196355874"><ele>348.0</ele><time>2026-03-26T16:00:25.997Z</time></trkpt><trkpt lat="45.61013250209878" lon="11.303713584937922"><ele>348.2</ele><time>2026-03-26T16:00:26.997Z</time></trkpt><trkpt lat="45.610144518048685" lon="11.30357577610145"><ele>348.4</ele><time>2026-03-26T16:00:28Z</time></trkpt><trkpt lat="45.61011879202268" lon="11.303433469500018"><ele>348.59999999999997</ele><time>2026-03-26T16:00:29Z</time></trkpt><trkpt lat="45.610045759473394" lon="11.303303854747533"><ele>348.79999999999995</ele><time>2026-03-26T16:00:30Z</time></trkpt><trkpt lat="45.60995634923799" lon="11.30318792551848"><ele>349.0</ele><time>2026-03-26T16:00:31Z</time></trkpt><trkpt lat="45.609853706024474" lon="11.303052838249673"><ele>349.75</ele><time>2026-03-26T16:00:32Z</time></trkpt><trkpt lat="45.60977092801152" lon="11.302921683702214"><ele>350.5</ele><time>2026-03-26T16:00:33Z</time></trkpt><trkpt lat="45.609678169403445" lon="11.302782173805008"><ele>351.25</ele><time>2026-03-26T16:00:34Z</time></trkpt><trkpt lat="45.60960053537892" lon="11.302637054321211"><ele>352.0</ele><time>2026-03-26T16:00:35Z</time></trkpt><trkpt lat="45.609519120904736" lon="11.302489190377752"><ele>353.6</ele><time>2026-03-26T16:00:36Z</time></trkpt><trkpt lat="45.609436662697384" lon="11.302367860045074"><ele>355.20000000000005</ele><time>2026-03-26T16:00:37Z</time></trkpt><trkpt lat="45.60936166041205" lon="11.302272721430128"><ele>356.8</ele><time>2026-03-26T16:00:38Z</time></trkpt><trkpt lat="45.60928105547145" lon="11.302171389283844"><ele>358.4</ele><time>2026-03-26T16:00:39Z</time></trkpt><trkpt lat="45.60919561412888" lon="11.302068671295812"><ele>360.0</ele><time>2026-03-26T16:00:40Z</time></trkpt><trkpt lat="45.60911036061408" lon="11.30195289826094"><ele>361.4</ele><time>2026-03-26T16:00:41Z</time></trkpt><trkpt lat="45.60898667062329" lon="11.301933609352892"><ele>362.8</ele><time>2026-03-26T16:00:42Z</time></trkpt><trkpt lat="45.608883750082846" lon="11.301959485506526"><ele>364.20000000000005</ele><time>2026-03-26T16:00:43Z</time></trkpt><trkpt lat="45.60878443261435" lon="11.301975177764021"><ele>365.6</ele><time>2026-03-26T16:00:44Z</time></trkpt><trkpt lat="45.60868375749632" lon="11.30198044567724"><ele>367.0</ele><time>2026-03-26T16:00:45Z</time></trkpt><trkpt lat="45.60858823099423" lon="11.301985665248685"><ele>369.0</ele><time>2026-03-26T16:00:46Z</time></trkpt><trkpt lat="45.60849988648763" lon="11.301985106496444"><ele>371.0</ele><time>2026-03-26T16:00:47Z</time></trkpt><trkpt lat="45.60842281154674" lon="11.301964508448968"><ele>373.0</ele><time>2026-03-26T16:00:48Z</time></trkpt><trkpt lat="45.60833704110158" lon="11.301969118418704"><ele>375.0</ele><time>2026-03-26T16:00:49Z</time></trkpt><trkpt lat="45.60824966964435" lon="11.301998933041284"><ele>377.0</ele><time>2026-03-26T16:00:50Z</time></trkpt><trkpt lat="45.60818006886176" lon="11.302064605212772"><ele>379.0</ele><time>2026-03-26T16:00:51Z</time></trkpt><trkpt lat="45.608112680449" lon="11.302153757558727"><ele>379.0</ele><time>2026-03-26T16:00:52Z</time></trkpt><trkpt lat="45.608112841354455" lon="11.30228618325429"><ele>379.0</ele><time>2026-03-26T16:00:53Z</time></trkpt><trkpt lat="45.60807320308452" lon="11.302363206171787"><ele>379.0</ele><time>2026-03-26T16:00:54Z</time></trkpt><trkpt lat="45.608012823031935" lon="11.302390136574894"><ele>379.0</ele><time>2026-03-26T16:00:56Z</time></trkpt><trkpt lat="45.607937080461205" lon="11.302253150608061"><ele>379.0</ele><time>2026-03-26T16:00:57Z</time></trkpt><trkpt lat="45.607900324585735" lon="11.302129283325867"><ele>379.0</ele><time>2026-03-26T16:00:58Z</time></trkpt><trkpt lat="45.60784865071395" lon="11.30203102661167"><ele>383.0</ele><time>2026-03-26T16:00:59Z</time></trkpt><trkpt lat="45.60776941814846" lon="11.301953069911692"><ele>387.0</ele><time>2026-03-26T16:01:00Z</time></trkpt><trkpt lat="45.60768822601898" lon="11.301900141291103"><ele>391.0</ele><time>2026-03-26T16:01:00.999Z</time></trkpt><trkpt lat="45.60758229860179" lon="11.301896234047446"><ele>395.0</ele><time>2026-03-26T16:01:01.999Z</time></trkpt><trkpt lat="45.60747635701207" lon="11.301883740823067"><ele>399.0</ele><time>2026-03-26T16:01:02.999Z</time></trkpt><trkpt lat="45.60734757886147" lon="11.301859487221392"><ele>399.0</ele><time>2026-03-26T16:01:03.999Z</time></trkpt><trkpt lat="45.60720974266495" lon="11.301792971897436"><ele>399.0</ele><time>2026-03-26T16:01:04.999Z</time></trkpt><trkpt lat="45.60707914372866" lon="11.30179283706559"><ele>399.0</ele><time>2026-03-26T16:01:05.999Z</time></trkpt><trkpt lat="45.60696427747414" lon="11.301761691194967"><ele>399.0</ele><time>2026-03-26T16:01:06.999Z</time></trkpt><trkpt lat="45.60685772812647" lon="11.301739534739777"><ele>402.5</ele><time>2026-03-26T16:01:07.999Z</time></trkpt><trkpt lat="45.606751932816394" lon="11.301683404946969"><ele>406.0</ele><time>2026-03-26T16:01:08.999Z</time></trkpt><trkpt lat="45.606655158031124" lon="11.301584648860555"><ele>409.5</ele><time>2026-03-26T16:01:09.999Z</time></trkpt><trkpt lat="45.60656149695768" lon="11.301491711235194"><ele>413.0</ele><time>2026-03-26T16:01:10.999Z</time></trkpt><trkpt lat="45.606450126680315" lon="11.301380362428048"><ele>413.0</ele><time>2026-03-26T16:01:11.999Z</time></trkpt><trkpt lat="45.606344635436066" lon="11.301268465501396"><ele>413.0</ele><time>2026-03-26T16:01:12.999Z</time></trkpt><trkpt lat="45.60621033726198" lon="11.301186563478998"><ele>413.0</ele><time>2026-03-26T16:01:13.999Z</time></trkpt><trkpt lat="45.60605606741653" lon="11.301130750200029"><ele>413.0</ele><time>2026-03-26T16:01:14.999Z</time></trkpt><trkpt lat="45.60590089368845" lon="11.30104217473541"><ele>418.5</ele><time>2026-03-26T16:01:15.999Z</time></trkpt><trkpt lat="45.605764774405614" lon="11.300909025581253"><ele>424.0</ele><time>2026-03-26T16:01:16.999Z</time></trkpt><trkpt lat="45.605643585493986" lon="11.30078171066672"><ele>429.5</ele><time>2026-03-26T16:01:17.999Z</time></trkpt><trkpt lat="45.60556195715106" lon="11.300732073770202"><ele>435.0</ele><time>2026-03-26T16:01:18.999Z</time></trkpt><trkpt lat="45.60545339831309" lon="11.300748025982946"><ele>435.0</ele><time>2026-03-26T16:01:20.999Z</time></trkpt><trkpt lat="45.605431651683915" lon="11.300930330334447"><ele>435.0</ele><time>2026-03-26T16:01:21.999Z</time></trkpt><trkpt lat="45.60542049666907" lon="11.301143235246514"><ele>435.0</ele><time>2026-03-26T16:01:22.999Z</time></trkpt><trkpt lat="45.60539328068556" lon="11.301290151927827"><ele>435.0</ele><time>2026-03-26T16:01:23.999Z</time></trkpt><trkpt lat="45.60536758425094" lon="11.301376611043729"><ele>443.5</ele><time>2026-03-26T16:01:24.999Z</time></trkpt><trkpt lat="45.60531462596361" lon="11.301524181388334"><ele>452.0</ele><time>2026-03-26T16:01:25.999Z</time></trkpt><trkpt lat="45.605263180642865" lon="11.301676510823048"><ele>460.5</ele><time>2026-03-26T16:01:26.999Z</time></trkpt><trkpt lat="45.60521046491704" lon="11.301871990157352"><ele>469.0</ele><time>2026-03-26T16:01:27.999Z</time></trkpt><trkpt lat="45.60519672613737" lon="11.302102779317863"><ele>468.2</ele><time>2026-03-26T16:01:28.999Z</time></trkpt><trkpt lat="45.60520168077742" lon="11.3023037941403"><ele>467.4</ele><time>2026-03-26T16:01:29.999Z</time></trkpt><trkpt lat="45.60518708454354" lon="11.302422833295577"><ele>466.6</ele><time>2026-03-26T16:01:30.999Z</time></trkpt><trkpt lat="45.605140266978374" lon="11.302507546561987"><ele>465.8</ele><time>2026-03-26T16:01:32.999Z</time></trkpt><trkpt lat="45.60508006433077" lon="11.30246408748561"><ele>465.0</ele><time>2026-03-26T16:01:33.999Z</time></trkpt><trkpt lat="45.60505411500552" lon="11.302350777584312"><ele>465.0</ele><time>2026-03-26T16:01:34.999Z</time></trkpt><trkpt lat="45.60498984549436" lon="11.302260253991868"><ele>465.0</ele><time>2026-03-26T16:01:35.999Z</time></trkpt><trkpt lat="45.60490403112226" lon="11.302168263217556"><ele>465.0</ele><time>2026-03-26T16:01:36.999Z</time></trkpt><trkpt lat="45.604814177946" lon="11.30212991629102"><ele>465.0</ele><time>2026-03-26T16:01:37.999Z</time></trkpt><trkpt lat="45.60472706477246" lon="11.302107652166931"><ele>465.0</ele><time>2026-03-26T16:01:38.999Z</time></trkpt><trkpt lat="45.60462767366443" lon="11.302129696844322"><ele>465.6666666666667</ele><time>2026-03-26T16:01:39.998Z</time></trkpt><trkpt lat="45.60456440237771" lon="11.302138063923573"><ele>466.33333333333337</ele><time>2026-03-26T16:01:40.998Z</time></trkpt><trkpt lat="45.60446063217179" lon="11.30209747631506"><ele>467.0</ele><time>2026-03-26T16:01:42.998Z</time></trkpt><trkpt lat="45.60437174547394" lon="11.301977559416272"><ele>467.6666666666667</ele><time>2026-03-26T16:01:44.998Z</time></trkpt><trkpt lat="45.6043217841694" lon="11.301910206214549"><ele>468.33333333333337</ele><time>2026-03-26T16:01:45.998Z</time></trkpt><trkpt lat="45.60425978029283" lon="11.301877737202954"><ele>469.0</ele><time>2026-03-26T16:01:46.998Z</time></trkpt><trkpt lat="45.60417546192643" lon="11.301774239480357"><ele>469.0</ele><time>2026-03-26T16:01:48.998Z</time></trkpt><trkpt lat="45.604148378307876" lon="11.301663549868461"><ele>469.0</ele><time>2026-03-26T16:01:49.998Z</time></trkpt><trkpt lat="45.60424594708747" lon="11.301619419955008"><ele>469.0</ele><time>2026-03-26T16:01:51.998Z</time></trkpt><trkpt lat="45.604335480676205" lon="11.301676519051624"><ele>469.0</ele><time>2026-03-26T16:01:54.998Z</time></trkpt><trkpt lat="45.60440283693471" lon="11.30173415319523"><ele>469.0</ele><time>2026-03-26T16:01:55.998Z</time></trkpt><trkpt lat="45.60450165458163" lon="11.301746851633514"><ele>469.00000000000006</ele><time>2026-03-26T16:01:57.998Z</time></trkpt><trkpt lat="45.60459366217265" lon="11.301633577367424"><ele>469.0</ele><time>2026-03-26T16:01:59.998Z</time></trkpt><trkpt lat="45.604562996134874" lon="11.30153378315532"><ele>469.0</ele><time>2026-03-26T16:02:00.998Z</time></trkpt><trkpt lat="45.60450971710923" lon="11.301450893607907"><ele>469.0</ele><time>2026-03-26T16:02:01.998Z</time></trkpt><trkpt lat="45.60446569569428" lon="11.30137123541361"><ele>469.00000000000006</ele><time>2026-03-26T16:02:02.998Z</time></trkpt><trkpt lat="45.604415774642256" lon="11.30128811756508"><ele>469.0</ele><time>2026-03-26T16:02:03.998Z</time></trkpt><trkpt lat="45.60435646756425" lon="11.301200504189834"><ele>474.0</ele><time>2026-03-26T16:02:04.998Z</time></trkpt><trkpt lat="45.60429341505387" lon="11.301110442066317"><ele>479.0</ele><time>2026-03-26T16:02:05.998Z</time></trkpt><trkpt lat="45.60422893602764" lon="11.301018336217382"><ele>484.0</ele><time>2026-03-26T16:02:06.998Z</time></trkpt><trkpt lat="45.60416959091675" lon="11.300931651861445"><ele>489.0</ele><time>2026-03-26T16:02:07.998Z</time></trkpt><trkpt lat="45.604116356650074" lon="11.300836698776834"><ele>494.0</ele><time>2026-03-26T16:02:08.998Z</time></trkpt><trkpt lat="45.604039445239316" lon="11.300704894151039"><ele>493.5</ele><time>2026-03-26T16:02:09.998Z</time></trkpt><trkpt lat="45.60395875438619" lon="11.300567145726403"><ele>493.0</ele><time>2026-03-26T16:02:10.998Z</time></trkpt><trkpt lat="45.60389795774392" lon="11.300409242083616"><ele>492.5</ele><time>2026-03-26T16:02:11.998Z</time></trkpt><trkpt lat="45.60382675663833" lon="11.30025836225639"><ele>492.0</ele><time>2026-03-26T16:02:12.998Z</time></trkpt><trkpt lat="45.60374304438175" lon="11.300116841498639"><ele>497.5</ele><time>2026-03-26T16:02:13.998Z</time></trkpt><trkpt lat="45.60363984836359" lon="11.299954737956659"><ele>503.0</ele><time>2026-03-26T16:02:14.998Z</time></trkpt><trkpt lat="45.60351354342611" lon="11.299827187319574"><ele>508.5</ele><time>2026-03-26T16:02:15.998Z</time></trkpt><trkpt lat="45.60341710963413" lon="11.299692031088647"><ele>514.0</ele><time>2026-03-26T16:02:16.998Z</time></trkpt><trkpt lat="45.60331854308473" lon="11.299598352165699"><ele>514.0</ele><time>2026-03-26T16:02:17.998Z</time></trkpt><trkpt lat="45.60323112383894" lon="11.299521142687217"><ele>514.0</ele><time>2026-03-26T16:02:18.997Z</time></trkpt><trkpt lat="45.6031680326175" lon="11.299451647700387"><ele>514.0</ele><time>2026-03-26T16:02:19.997Z</time></trkpt><trkpt lat="45.6030671049566" lon="11.299470090025672"><ele>514.0</ele><time>2026-03-26T16:02:21.997Z</time></trkpt><trkpt lat="45.603049256215265" lon="11.299668026049217"><ele>514.0</ele><time>2026-03-26T16:02:22.997Z</time></trkpt><trkpt lat="45.603135650745" lon="11.299785653974507"><ele>515.0</ele><time>2026-03-26T16:02:23.997Z</time></trkpt><trkpt lat="45.603240196857186" lon="11.299904800691298"><ele>516.0</ele><time>2026-03-26T16:02:24.997Z</time></trkpt><trkpt lat="45.60329533296004" lon="11.299993045233624"><ele>517.0</ele><time>2026-03-26T16:02:25.997Z</time></trkpt><trkpt lat="45.60334239011553" lon="11.300097471591645"><ele>518.0</ele><time>2026-03-26T16:02:26.997Z</time></trkpt><trkpt lat="45.60340521307058" lon="11.300242772361605"><ele>519.0</ele><time>2026-03-26T16:02:28.997Z</time></trkpt><trkpt lat="45.60337638807887" lon="11.30039887384178"><ele>519.0</ele><time>2026-03-26T16:02:30.997Z</time></trkpt><trkpt lat="45.60330072173961" lon="11.300433073157967"><ele>519.0</ele><time>2026-03-26T16:02:31.997Z</time></trkpt><trkpt lat="45.603224323711046" lon="11.300447345458384"><ele>519.0</ele><time>2026-03-26T16:02:32.997Z</time></trkpt><trkpt lat="45.603137247157086" lon="11.30046869356223"><ele>519.0</ele><time>2026-03-26T16:02:34Z</time></trkpt><trkpt lat="45.6030415871135" lon="11.300491639161729"><ele>519.0</ele><time>2026-03-26T16:02:35Z</time></trkpt><trkpt lat="45.60294431750629" lon="11.300523413600965"><ele>519.0</ele><time>2026-03-26T16:02:36Z</time></trkpt><trkpt lat="45.60285939033302" lon="11.300577465009429"><ele>521.0</ele><time>2026-03-26T16:02:37Z</time></trkpt><trkpt lat="45.60279782544321" lon="11.30064272928624"><ele>523.0</ele><time>2026-03-26T16:02:38Z</time></trkpt><trkpt lat="45.602732750055246" lon="11.300712394990775"><ele>525.0</ele><time>2026-03-26T16:02:40Z</time></trkpt><trkpt lat="45.60266733360538" lon="11.300733177719449"><ele>527.0</ele><time>2026-03-26T16:02:42Z</time></trkpt><trkpt lat="45.60262938355388" lon="11.300656987727239"><ele>529.0</ele><time>2026-03-26T16:02:44Z</time></trkpt><trkpt lat="45.602566688505284" lon="11.3005831005609"><ele>531.0</ele><time>2026-03-26T16:02:46Z</time></trkpt><trkpt lat="45.60247209563188" lon="11.300501273625615"><ele>532.3333333333334</ele><time>2026-03-26T16:02:48Z</time></trkpt><trkpt lat="45.60242478861333" lon="11.300437761977285"><ele>533.6666666666666</ele><time>2026-03-26T16:02:49Z</time></trkpt><trkpt lat="45.602318099963895" lon="11.300348355934366"><ele>535.0</ele><time>2026-03-26T16:02:51Z</time></trkpt><trkpt lat="45.60225897238623" lon="11.300390527290325"><ele>536.3333333333333</ele><time>2026-03-26T16:02:52Z</time></trkpt><trkpt lat="45.60218785899839" lon="11.300416793186937"><ele>537.6666666666666</ele><time>2026-03-26T16:02:53Z</time></trkpt><trkpt lat="45.60212383186486" lon="11.300460220312763"><ele>539.0</ele><time>2026-03-26T16:02:54Z</time></trkpt><trkpt lat="45.60203418865209" lon="11.300531677947642"><ele>539.8</ele><time>2026-03-26T16:02:55Z</time></trkpt><trkpt lat="45.60194928344718" lon="11.300602399747575"><ele>540.5999999999999</ele><time>2026-03-26T16:02:56Z</time></trkpt><trkpt lat="45.60186925435195" lon="11.3006835612725"><ele>541.4</ele><time>2026-03-26T16:02:57Z</time></trkpt><trkpt lat="45.60179639100328" lon="11.300761779041075"><ele>542.1999999999999</ele><time>2026-03-26T16:02:58Z</time></trkpt><trkpt lat="45.60174266163703" lon="11.300876676188816"><ele>543.0</ele><time>2026-03-26T16:02:59Z</time></trkpt><trkpt lat="45.60169664980293" lon="11.301022740036542"><ele>543.0</ele><time>2026-03-26T16:03:00Z</time></trkpt><trkpt lat="45.601620208561364" lon="11.301144437216996"><ele>543.0</ele><time>2026-03-26T16:03:01Z</time></trkpt><trkpt lat="45.60157557339016" lon="11.301233500018823"><ele>543.0</ele><time>2026-03-26T16:03:02Z</time></trkpt><trkpt lat="45.60152022575287" lon="11.301317608449951"><ele>543.0</ele><time>2026-03-26T16:03:04Z</time></trkpt><trkpt lat="45.601422215349054" lon="11.301268658703444"><ele>543.0</ele><time>2026-03-26T16:03:05Z</time></trkpt><trkpt lat="45.601349147080704" lon="11.301210128780394"><ele>543.0</ele><time>2026-03-26T16:03:06Z</time></trkpt><trkpt lat="45.60125407661574" lon="11.301171553246748"><ele>543.0</ele><time>2026-03-26T16:03:07Z</time></trkpt><trkpt lat="45.60118426000197" lon="11.301150928141379"><ele>543.0</ele><time>2026-03-26T16:03:08Z</time></trkpt><trkpt lat="45.601101066677856" lon="11.301105927814858"><ele>543.0</ele><time>2026-03-26T16:03:11.999Z</time></trkpt><trkpt lat="45.60111968880757" lon="11.300755408925006"><ele>544.75</ele><time>2026-03-26T16:03:13.999Z</time></trkpt><trkpt lat="45.60110212085294" lon="11.30061544192145"><ele>546.5</ele><time>2026-03-26T16:03:14.999Z</time></trkpt><trkpt lat="45.60109454890107" lon="11.300443023804432"><ele>548.25</ele><time>2026-03-26T16:03:15.999Z</time></trkpt><trkpt lat="45.60107780416175" lon="11.300279482019327"><ele>550.0</ele><time>2026-03-26T16:03:16.999Z</time></trkpt><trkpt lat="45.60107345281953" lon="11.30011473425705"><ele>552.0</ele><time>2026-03-26T16:03:17.999Z</time></trkpt><trkpt lat="45.60106157058807" lon="11.299988820450793"><ele>554.0</ele><time>2026-03-26T16:03:18.999Z</time></trkpt><trkpt lat="45.60105039292293" lon="11.299884530878842"><ele>556.0</ele><time>2026-03-26T16:03:19.999Z</time></trkpt><trkpt lat="45.600931396635936" lon="11.29973809493689"><ele>558.0</ele><time>2026-03-26T16:03:21.999Z</time></trkpt><trkpt lat="45.60085898649934" lon="11.299651046659843"><ele>560.0</ele><time>2026-03-26T16:03:22.999Z</time></trkpt><trkpt lat="45.60079215824457" lon="11.299546820742284"><ele>562.0</ele><time>2026-03-26T16:03:23.999Z</time></trkpt><trkpt lat="45.60070798185471" lon="11.299432162020397"><ele>564.0</ele><time>2026-03-26T16:03:24.999Z</time></trkpt><trkpt lat="45.6006419128557" lon="11.29933968478517"><ele>566.0</ele><time>2026-03-26T16:03:25.999Z</time></trkpt><trkpt lat="45.600574237287" lon="11.299242422257656"><ele>568.0</ele><time>2026-03-26T16:03:26.999Z</time></trkpt><trkpt lat="45.600510703382334" lon="11.29913160733151"><ele>570.0</ele><time>2026-03-26T16:03:27.999Z</time></trkpt><trkpt lat="45.60045628070859" lon="11.299033816996717"><ele>570.0</ele><time>2026-03-26T16:03:28.999Z</time></trkpt><trkpt lat="45.60042416192862" lon="11.298949074140731"><ele>570.0</ele><time>2026-03-26T16:03:29.999Z</time></trkpt><trkpt lat="45.60043597898271" lon="11.298817377998903"><ele>570.0</ele><time>2026-03-26T16:03:31.999Z</time></trkpt><trkpt lat="45.600566017124045" lon="11.298815169466883"><ele>570.0</ele><time>2026-03-26T16:03:34.999Z</time></trkpt><trkpt lat="45.6006463291215" lon="11.298834265300147"><ele>570.0</ele><time>2026-03-26T16:03:35.999Z</time></trkpt><trkpt lat="45.60068144909755" lon="11.29870201529762"><ele>571.6666666666666</ele><time>2026-03-26T16:03:37.999Z</time></trkpt><trkpt lat="45.60069261868703" lon="11.298609050702545"><ele>573.3333333333334</ele><time>2026-03-26T16:03:38.999Z</time></trkpt><trkpt lat="45.600730789501924" lon="11.298506489106638"><ele>575.0</ele><time>2026-03-26T16:03:39.999Z</time></trkpt><trkpt lat="45.600791438628384" lon="11.298432622007946"><ele>576.6666666666667</ele><time>2026-03-26T16:03:40.999Z</time></trkpt><trkpt lat="45.6008650448771" lon="11.298383321319143"><ele>578.3333333333334</ele><time>2026-03-26T16:03:41.999Z</time></trkpt><trkpt lat="45.60094022747302" lon="11.298327712851172"><ele>580.0</ele><time>2026-03-26T16:03:42.999Z</time></trkpt><trkpt lat="45.60099710969933" lon="11.298271286414604"><ele>580.0</ele><time>2026-03-26T16:03:43.999Z</time></trkpt><trkpt lat="45.601056779030586" lon="11.298198765058762"><ele>580.0</ele><time>2026-03-26T16:03:44.999Z</time></trkpt><trkpt lat="45.60110956594321" lon="11.298107384686075"><ele>580.0</ele><time>2026-03-26T16:03:45.999Z</time></trkpt><trkpt lat="45.60114484147266" lon="11.297969406338755"><ele>580.0</ele><time>2026-03-26T16:03:46.999Z</time></trkpt><trkpt lat="45.601176055871086" lon="11.297833934955515"><ele>580.0</ele><time>2026-03-26T16:03:47.999Z</time></trkpt><trkpt lat="45.601197320565426" lon="11.297721391744464"><ele>580.0</ele><time>2026-03-26T16:03:48.999Z</time></trkpt><trkpt lat="45.601206087779836" lon="11.297626746483319"><ele>580.8333333333334</ele><time>2026-03-26T16:03:49.998Z</time></trkpt><trkpt lat="45.601208220209706" lon="11.297526014581134"><ele>581.6666666666667</ele><time>2026-03-26T16:03:50.998Z</time></trkpt><trkpt lat="45.60119116966411" lon="11.297392880905242"><ele>582.5</ele><time>2026-03-26T16:03:51.998Z</time></trkpt><trkpt lat="45.60114684792736" lon="11.297286954882093"><ele>583.3333333333334</ele><time>2026-03-26T16:03:52.998Z</time></trkpt><trkpt lat="45.60110652740832" lon="11.297216853309072"><ele>584.1666666666666</ele><time>2026-03-26T16:03:53.998Z</time></trkpt><trkpt lat="45.60106323963213" lon="11.29713438648987"><ele>585.0</ele><time>2026-03-26T16:03:54.998Z</time></trkpt><trkpt lat="45.60101467837806" lon="11.297039670096368"><ele>585.1666666666666</ele><time>2026-03-26T16:03:55.998Z</time></trkpt><trkpt lat="45.6009470983933" lon="11.296982120736299"><ele>585.3333333333334</ele><time>2026-03-26T16:03:56.998Z</time></trkpt><trkpt lat="45.60087561012111" lon="11.296934842146568"><ele>585.5</ele><time>2026-03-26T16:03:57.998Z</time></trkpt><trkpt lat="45.60080641905579" lon="11.296893002409563"><ele>585.6666666666667</ele><time>2026-03-26T16:03:58.998Z</time></trkpt><trkpt lat="45.60074859694693" lon="11.296845830245053"><ele>585.8333333333334</ele><time>2026-03-26T16:03:59.998Z</time></trkpt><trkpt lat="45.60064666841423" lon="11.296815074158122"><ele>586.0</ele><time>2026-03-26T16:04:01.998Z</time></trkpt><trkpt lat="45.60052592190325" lon="11.296890111165737"><ele>586.0</ele><time>2026-03-26T16:04:03.998Z</time></trkpt><trkpt lat="45.60046026611788" lon="11.29692118405538"><ele>586.0</ele><time>2026-03-26T16:04:04.998Z</time></trkpt><trkpt lat="45.60038097522781" lon="11.296834196875235"><ele>586.0</ele><time>2026-03-26T16:04:06.998Z</time></trkpt><trkpt lat="45.60033520210093" lon="11.296725213271273"><ele>586.0</ele><time>2026-03-26T16:04:07.998Z</time></trkpt><trkpt lat="45.600269354838595" lon="11.296596841765844"><ele>586.0</ele><time>2026-03-26T16:04:08.998Z</time></trkpt><trkpt lat="45.60018030606378" lon="11.296440794274275"><ele>589.6</ele><time>2026-03-26T16:04:09.998Z</time></trkpt><trkpt lat="45.60008166909248" lon="11.296321141927786"><ele>593.2</ele><time>2026-03-26T16:04:10.998Z</time></trkpt><trkpt lat="45.60002133283361" lon="11.296247265922437"><ele>596.8</ele><time>2026-03-26T16:04:11.998Z</time></trkpt><trkpt lat="45.59999273172365" lon="11.296131212555958"><ele>600.4</ele><time>2026-03-26T16:04:13.998Z</time></trkpt><trkpt lat="45.59994343723602" lon="11.296074326105105"><ele>604.0</ele><time>2026-03-26T16:04:14.998Z</time></trkpt><trkpt lat="45.59986867428143" lon="11.295967482511799"><ele>604.0</ele><time>2026-03-26T16:04:15.998Z</time></trkpt><trkpt lat="45.59981051238201" lon="11.295883174527113"><ele>604.0</ele><time>2026-03-26T16:04:16.998Z</time></trkpt><trkpt lat="45.59976250849363" lon="11.295787341479096"><ele>604.0</ele><time>2026-03-26T16:04:17.998Z</time></trkpt><trkpt lat="45.59972163806403" lon="11.295695851171624"><ele>604.0</ele><time>2026-03-26T16:04:18.998Z</time></trkpt><trkpt lat="45.5996792121418" lon="11.295618619011485"><ele>604.0</ele><time>2026-03-26T16:04:19.998Z</time></trkpt><trkpt lat="45.59958712187182" lon="11.295519651006451"><ele>604.0</ele><time>2026-03-26T16:04:20.998Z</time></trkpt><trkpt lat="45.599484019868264" lon="11.295419503333433"><ele>606.4</ele><time>2026-03-26T16:04:21.998Z</time></trkpt><trkpt lat="45.59940351430924" lon="11.295334830833708"><ele>608.8</ele><time>2026-03-26T16:04:22.998Z</time></trkpt><trkpt lat="45.5993374467124" lon="11.29526808606575"><ele>611.2</ele><time>2026-03-26T16:04:23.998Z</time></trkpt><trkpt lat="45.59925569764095" lon="11.295186340014432"><ele>613.6</ele><time>2026-03-26T16:04:24.998Z</time></trkpt><trkpt lat="45.59916024112457" lon="11.295083075796157"><ele>616.0</ele><time>2026-03-26T16:04:25.998Z</time></trkpt><trkpt lat="45.599067528941184" lon="11.294980358969577"><ele>616.0</ele><time>2026-03-26T16:04:26.998Z</time></trkpt><trkpt lat="45.598974772428086" lon="11.29487700484946"><ele>616.0</ele><time>2026-03-26T16:04:27.998Z</time></trkpt><trkpt lat="45.598890389456315" lon="11.294774240596288"><ele>616.0</ele><time>2026-03-26T16:04:28.997Z</time></trkpt><trkpt lat="45.59880893110722" lon="11.29465864143811"><ele>616.0</ele><time>2026-03-26T16:04:29.997Z</time></trkpt><trkpt lat="45.5987091052892" lon="11.29454052358543"><ele>616.8</ele><time>2026-03-26T16:04:30.997Z</time></trkpt><trkpt lat="45.59860957124974" lon="11.294440059080832"><ele>617.6</ele><time>2026-03-26T16:04:31.997Z</time></trkpt><trkpt lat="45.598519927256426" lon="11.294356797015528"><ele>618.4</ele><time>2026-03-26T16:04:32.997Z</time></trkpt><trkpt lat="45.59845425450348" lon="11.29428447139703"><ele>619.2</ele><time>2026-03-26T16:04:33.997Z</time></trkpt><trkpt lat="45.59839685957049" lon="11.29422169826737"><ele>620.0</ele><time>2026-03-26T16:04:34.997Z</time></trkpt><trkpt lat="45.598316861398125" lon="11.294083306460465"><ele>620.0</ele><time>2026-03-26T16:04:36.997Z</time></trkpt><trkpt lat="45.59830402038029" lon="11.293989496171685"><ele>620.0</ele><time>2026-03-26T16:04:37.997Z</time></trkpt><trkpt lat="45.59832549983144" lon="11.293876899865369"><ele>620.0</ele><time>2026-03-26T16:04:38.997Z</time></trkpt><trkpt lat="45.59832529578816" lon="11.29374229252444"><ele>620.0</ele><time>2026-03-26T16:04:40Z</time></trkpt><trkpt lat="45.59834493116248" lon="11.293610940187465"><ele>620.0</ele><time>2026-03-26T16:04:41Z</time></trkpt><trkpt lat="45.598360052006164" lon="11.29345082707774"><ele>621.3333333333333</ele><time>2026-03-26T16:04:42Z</time></trkpt><trkpt lat="45.59839424543665" lon="11.293335403959704"><ele>622.6666666666666</ele><time>2026-03-26T16:04:43Z</time></trkpt><trkpt lat="45.59842036033439" lon="11.293245793945351"><ele>624.0</ele><time>2026-03-26T16:04:44Z</time></trkpt><trkpt lat="45.598451594227406" lon="11.293158443357262"><ele>625.3333333333334</ele><time>2026-03-26T16:04:45Z</time></trkpt><trkpt lat="45.59849430233293" lon="11.29300311800622"><ele>626.6666666666667</ele><time>2026-03-26T16:04:47Z</time></trkpt><trkpt lat="45.59848553737295" lon="11.292911970133718"><ele>628.0</ele><time>2026-03-26T16:04:48Z</time></trkpt><trkpt lat="45.59842547767178" lon="11.292841653600204"><ele>628.6</ele><time>2026-03-26T16:04:49Z</time></trkpt><trkpt lat="45.59832164948332" lon="11.29278473235919"><ele>629.1999999999999</ele><time>2026-03-26T16:04:50Z</time></trkpt><trkpt lat="45.598248604977165" lon="11.292753737078206"><ele>629.8</ele><time>2026-03-26T16:04:51Z</time></trkpt><trkpt lat="45.598193243190046" lon="11.292703087916669"><ele>630.4</ele><time>2026-03-26T16:04:52Z</time></trkpt><trkpt lat="45.59808875610012" lon="11.292587852916766"><ele>631.0</ele><time>2026-03-26T16:04:54Z</time></trkpt><trkpt lat="45.5980396013146" lon="11.292512743532333"><ele>631.0</ele><time>2026-03-26T16:04:55Z</time></trkpt><trkpt lat="45.59798962202566" lon="11.292435197223362"><ele>631.0</ele><time>2026-03-26T16:04:56Z</time></trkpt><trkpt lat="45.59793022234718" lon="11.29231209830522"><ele>631.0</ele><time>2026-03-26T16:04:58Z</time></trkpt><trkpt lat="45.59795003526901" lon="11.292220301200878"><ele>631.0</ele><time>2026-03-26T16:05:00Z</time></trkpt><trkpt lat="45.59788143560116" lon="11.292103848460668"><ele>631.0</ele><time>2026-03-26T16:05:02Z</time></trkpt><trkpt lat="45.59780572546236" lon="11.292031969892337"><ele>631.0</ele><time>2026-03-26T16:05:03Z</time></trkpt><trkpt lat="45.597728108924315" lon="11.291966054474566"><ele>633.0</ele><time>2026-03-26T16:05:04Z</time></trkpt><trkpt lat="45.597662436944255" lon="11.291939428884245"><ele>635.0</ele><time>2026-03-26T16:05:05Z</time></trkpt><trkpt lat="45.59756697907845" lon="11.291919807622978"><ele>637.0</ele><time>2026-03-26T16:05:07Z</time></trkpt><trkpt lat="45.597489917475556" lon="11.291714686899446"><ele>639.0</ele><time>2026-03-26T16:05:12Z</time></trkpt><trkpt lat="45.5974355391996" lon="11.29160482592524"><ele>641.0</ele><time>2026-03-26T16:05:13Z</time></trkpt><trkpt lat="45.59738558336625" lon="11.29150683803314"><ele>641.0</ele><time>2026-03-26T16:05:14Z</time></trkpt><trkpt lat="45.59733083444132" lon="11.291429707872545"><ele>641.0</ele><time>2026-03-26T16:05:15Z</time></trkpt><trkpt lat="45.59726562873849" lon="11.291392130613584"><ele>641.0</ele><time>2026-03-26T16:05:15.999Z</time></trkpt><trkpt lat="45.59717395809592" lon="11.291365698132017"><ele>641.0</ele><time>2026-03-26T16:05:16.999Z</time></trkpt><trkpt lat="45.597066642048276" lon="11.291426945677326"><ele>641.0</ele><time>2026-03-26T16:05:17.999Z</time></trkpt><trkpt lat="45.596986997177254" lon="11.291533793387824"><ele>642.0</ele><time>2026-03-26T16:05:18.999Z</time></trkpt><trkpt lat="45.59687092450241" lon="11.291570372189808"><ele>643.0</ele><time>2026-03-26T16:05:20.999Z</time></trkpt><trkpt lat="45.596800463618294" lon="11.291557272853257"><ele>644.0</ele><time>2026-03-26T16:05:21.999Z</time></trkpt><trkpt lat="45.59676592872864" lon="11.291456891513404"><ele>645.0</ele><time>2026-03-26T16:05:23.999Z</time></trkpt><trkpt lat="45.59684586348773" lon="11.291323933780976"><ele>646.0</ele><time>2026-03-26T16:05:25.999Z</time></trkpt><trkpt lat="45.596941364116844" lon="11.291263941429241"><ele>646.4</ele><time>2026-03-26T16:05:26.999Z</time></trkpt><trkpt lat="45.596983582983405" lon="11.2911554209523"><ele>646.8</ele><time>2026-03-26T16:05:27.999Z</time></trkpt><trkpt lat="45.59703440555307" lon="11.29100142495617"><ele>647.1999999999999</ele><time>2026-03-26T16:05:28.999Z</time></trkpt><trkpt lat="45.59709636432005" lon="11.290853364281217"><ele>647.5999999999999</ele><time>2026-03-26T16:05:29.999Z</time></trkpt><trkpt lat="45.59713404094608" lon="11.290732828737879"><ele>648.0</ele><time>2026-03-26T16:05:30.999Z</time></trkpt><trkpt lat="45.59714721241189" lon="11.290644122601924"><ele>650.0</ele><time>2026-03-26T16:05:31.999Z</time></trkpt><trkpt lat="45.59713143542446" lon="11.290544615720629"><ele>652.0</ele><time>2026-03-26T16:05:32.999Z</time></trkpt><trkpt lat="45.5970747978031" lon="11.290470169012192"><ele>654.0</ele><time>2026-03-26T16:05:33.999Z</time></trkpt><trkpt lat="45.597018460048325" lon="11.290383313464945"><ele>656.0</ele><time>2026-03-26T16:05:34.999Z</time></trkpt><trkpt lat="45.59696865083895" lon="11.290314239272774"><ele>658.0</ele><time>2026-03-26T16:05:35.999Z</time></trkpt><trkpt lat="45.59700289126046" lon="11.290165205483246"><ele>660.0</ele><time>2026-03-26T16:05:37.999Z</time></trkpt><trkpt lat="45.59704236650527" lon="11.290069744398474"><ele>660.0</ele><time>2026-03-26T16:05:38.999Z</time></trkpt><trkpt lat="45.597089015105944" lon="11.289946685248813"><ele>660.0</ele><time>2026-03-26T16:05:39.999Z</time></trkpt><trkpt lat="45.59713374372231" lon="11.289839426413618"><ele>660.0</ele><time>2026-03-26T16:05:40.999Z</time></trkpt><trkpt lat="45.597160896912385" lon="11.289723928528245"><ele>660.0</ele><time>2026-03-26T16:05:41.999Z</time></trkpt><trkpt lat="45.597142324790596" lon="11.289598899320065"><ele>660.0</ele><time>2026-03-26T16:05:42.999Z</time></trkpt><trkpt lat="45.597130125209844" lon="11.28947841038502"><ele>660.0</ele><time>2026-03-26T16:05:43.999Z</time></trkpt><trkpt lat="45.59711944920534" lon="11.289361170865932"><ele>662.0</ele><time>2026-03-26T16:05:44.999Z</time></trkpt><trkpt lat="45.597096660515554" lon="11.289230236659076"><ele>664.0</ele><time>2026-03-26T16:05:45.999Z</time></trkpt><trkpt lat="45.59707368211022" lon="11.289108748198299"><ele>666.0</ele><time>2026-03-26T16:05:46.999Z</time></trkpt><trkpt lat="45.59705502073685" lon="11.28897974649869"><ele>668.0</ele><time>2026-03-26T16:05:47.999Z</time></trkpt><trkpt lat="45.59703183023966" lon="11.288866964752101"><ele>670.0</ele><time>2026-03-26T16:05:48.999Z</time></trkpt><trkpt lat="45.59701515285878" lon="11.288763432294598"><ele>672.0</ele><time>2026-03-26T16:05:49.999Z</time></trkpt><trkpt lat="45.5970063472962" lon="11.28866542010161"><ele>673.5</ele><time>2026-03-26T16:05:50.999Z</time></trkpt><trkpt lat="45.5970186841187" lon="11.288556491728242"><ele>675.0</ele><time>2026-03-26T16:05:51.999Z</time></trkpt><trkpt lat="45.5970183328105" lon="11.288417392138786"><ele>676.5</ele><time>2026-03-26T16:05:52.999Z</time></trkpt><trkpt lat="45.5970054835705" lon="11.288285743794175"><ele>678.0</ele><time>2026-03-26T16:05:53.999Z</time></trkpt><trkpt lat="45.59698358766404" lon="11.288157168962558"><ele>679.5</ele><time>2026-03-26T16:05:54.999Z</time></trkpt><trkpt lat="45.59694908140595" lon="11.28804596976737"><ele>681.0</ele><time>2026-03-26T16:05:55.998Z</time></trkpt><trkpt lat="45.59690445600649" lon="11.287931941523656"><ele>681.5</ele><time>2026-03-26T16:05:56.998Z</time></trkpt><trkpt lat="45.596863801138596" lon="11.287838976845014"><ele>682.0</ele><time>2026-03-26T16:05:57.998Z</time></trkpt><trkpt lat="45.59683381791391" lon="11.287756200381526"><ele>682.5</ele><time>2026-03-26T16:05:58.998Z</time></trkpt><trkpt lat="45.59687330882511" lon="11.287632073254885"><ele>683.0</ele><time>2026-03-26T16:06:00.998Z</time></trkpt><trkpt lat="45.59693937707422" lon="11.287568579305981"><ele>683.5</ele><time>2026-03-26T16:06:01.998Z</time></trkpt><trkpt lat="45.597019386770825" lon="11.287501963441715"><ele>684.0</ele><time>2026-03-26T16:06:02.998Z</time></trkpt><trkpt lat="45.5970732777388" lon="11.287433724885494"><ele>685.6</ele><time>2026-03-26T16:06:03.998Z</time></trkpt><trkpt lat="45.59710573871613" lon="11.28723173582239"><ele>687.2</ele><time>2026-03-26T16:06:05.998Z</time></trkpt><trkpt lat="45.59710273563725" lon="11.287116124344834"><ele>688.8000000000001</ele><time>2026-03-26T16:06:06.998Z</time></trkpt><trkpt lat="45.59711882558217" lon="11.286944181230192"><ele>690.4000000000001</ele><time>2026-03-26T16:06:08.998Z</time></trkpt><trkpt lat="45.59715709812182" lon="11.286855328169633"><ele>692.0</ele><time>2026-03-26T16:06:09.998Z</time></trkpt><trkpt lat="45.59721102801812" lon="11.286800933737158"><ele>692.0</ele><time>2026-03-26T16:06:10.998Z</time></trkpt><trkpt lat="45.59728121719428" lon="11.286732998458476"><ele>692.0</ele><time>2026-03-26T16:06:11.998Z</time></trkpt><trkpt lat="45.59734445036195" lon="11.286701867513397"><ele>692.0</ele><time>2026-03-26T16:06:12.998Z</time></trkpt><trkpt lat="45.597409983475586" lon="11.286619492393015"><ele>692.0</ele><time>2026-03-26T16:06:14.998Z</time></trkpt><trkpt lat="45.59732422333522" lon="11.286334701132942"><ele>693.1666666666666</ele><time>2026-03-26T16:06:16.998Z</time></trkpt><trkpt lat="45.59730139387849" lon="11.286201927210586"><ele>694.3333333333333</ele><time>2026-03-26T16:06:18.998Z</time></trkpt><trkpt lat="45.59726017343363" lon="11.286110685901155"><ele>695.5</ele><time>2026-03-26T16:06:19.998Z</time></trkpt><trkpt lat="45.5972826061897" lon="11.28599407466018"><ele>696.6666666666666</ele><time>2026-03-26T16:06:20.998Z</time></trkpt><trkpt lat="45.597277837757346" lon="11.285870158656504"><ele>697.8333333333334</ele><time>2026-03-26T16:06:21.998Z</time></trkpt><trkpt lat="45.59728461746522" lon="11.28576213689031"><ele>699.0</ele><time>2026-03-26T16:06:22.998Z</time></trkpt><trkpt lat="45.59728941244622" lon="11.285660603690756"><ele>701.0</ele><time>2026-03-26T16:06:23.998Z</time></trkpt><trkpt lat="45.59734304546462" lon="11.285506929838695"><ele>703.0</ele><time>2026-03-26T16:06:25.998Z</time></trkpt><trkpt lat="45.59739082184946" lon="11.285327338304445"><ele>705.0</ele><time>2026-03-26T16:06:27.998Z</time></trkpt><trkpt lat="45.597410536084055" lon="11.285225888564764"><ele>707.0</ele><time>2026-03-26T16:06:28.998Z</time></trkpt><trkpt lat="45.597437547760315" lon="11.285099588348013"><ele>709.0</ele><time>2026-03-26T16:06:29.998Z</time></trkpt><trkpt lat="45.59747920828682" lon="11.28499703649521"><ele>709.0</ele><time>2026-03-26T16:06:30.998Z</time></trkpt><trkpt lat="45.597514106578444" lon="11.284892498942467"><ele>709.0</ele><time>2026-03-26T16:06:31.998Z</time></trkpt><trkpt lat="45.59752808880126" lon="11.284761384548599"><ele>709.0</ele><time>2026-03-26T16:06:32.998Z</time></trkpt><trkpt lat="45.597537108037976" lon="11.284636949367721"><ele>709.0</ele><time>2026-03-26T16:06:33.998Z</time></trkpt><trkpt lat="45.597503117550474" lon="11.284541120618496"><ele>709.0</ele><time>2026-03-26T16:06:34.997Z</time></trkpt><trkpt lat="45.59751365727377" lon="11.284425716667634"><ele>709.0</ele><time>2026-03-26T16:06:35.997Z</time></trkpt><trkpt lat="45.597524668613936" lon="11.284334611194547"><ele>710.8333333333334</ele><time>2026-03-26T16:06:36.997Z</time></trkpt><trkpt lat="45.59757662201348" lon="11.284227317727089"><ele>712.6666666666667</ele><time>2026-03-26T16:06:38.997Z</time></trkpt><trkpt lat="45.597615977440356" lon="11.284122425944835"><ele>714.5</ele><time>2026-03-26T16:06:41.997Z</time></trkpt><trkpt lat="45.59766012017136" lon="11.284045221235376"><ele>716.3333333333334</ele><time>2026-03-26T16:06:43.997Z</time></trkpt><trkpt lat="45.597708147755746" lon="11.283977659277028"><ele>718.1666666666666</ele><time>2026-03-26T16:06:44.997Z</time></trkpt><trkpt lat="45.5977791229298" lon="11.283896527553743"><ele>720.0</ele><time>2026-03-26T16:06:47Z</time></trkpt><trkpt lat="45.59783639731655" lon="11.283813790620014"><ele>721.5</ele><time>2026-03-26T16:06:49Z</time></trkpt><trkpt lat="45.5978943967183" lon="11.283755721009138"><ele>723.0</ele><time>2026-03-26T16:07:04Z</time></trkpt><trkpt lat="45.59794743804163" lon="11.283662541638378"><ele>724.5</ele><time>2026-03-26T16:07:11Z</time></trkpt><trkpt lat="45.598013166528574" lon="11.283560818560964"><ele>726.0</ele><time>2026-03-26T16:07:13Z</time></trkpt><trkpt lat="45.598043960757" lon="11.283471984265416"><ele>727.5</ele><time>2026-03-26T16:07:15Z</time></trkpt><trkpt lat="45.59814679653986" lon="11.283405693969922"><ele>729.0</ele><time>2026-03-26T16:07:17Z</time></trkpt><trkpt lat="45.5981989243145" lon="11.283338384419073"><ele>729.0</ele><time>2026-03-26T16:07:18Z</time></trkpt><trkpt lat="45.59825820146198" lon="11.283298752848692"><ele>729.0</ele><time>2026-03-26T16:07:19Z</time></trkpt><trkpt lat="45.5982885341122" lon="11.2831934484783"><ele>729.0</ele><time>2026-03-26T16:07:21Z</time></trkpt><trkpt lat="45.598349012085066" lon="11.282970498602236"><ele>729.0</ele><time>2026-03-26T16:07:22.999Z</time></trkpt><trkpt lat="45.598393521099005" lon="11.282879050300842"><ele>729.0</ele><time>2026-03-26T16:07:23.999Z</time></trkpt><trkpt lat="45.59841685697926" lon="11.282794429616395"><ele>731.2</ele><time>2026-03-26T16:07:24.999Z</time></trkpt><trkpt lat="45.5985407970351" lon="11.282778625412787"><ele>733.4000000000001</ele><time>2026-03-26T16:07:26.999Z</time></trkpt><trkpt lat="45.59861097385715" lon="11.282807269260276"><ele>735.6</ele><time>2026-03-26T16:07:28.999Z</time></trkpt><trkpt lat="45.59871420535038" lon="11.282892791782706"><ele>737.8</ele><time>2026-03-26T16:07:30.999Z</time></trkpt><trkpt lat="45.59878681136187" lon="11.28289545482949"><ele>740.0</ele><time>2026-03-26T16:07:31.999Z</time></trkpt><trkpt lat="45.59886704244525" lon="11.28288177743572"><ele>740.0</ele><time>2026-03-26T16:07:32.999Z</time></trkpt><trkpt lat="45.5989316574595" lon="11.282893487713608"><ele>740.0</ele><time>2026-03-26T16:07:33.999Z</time></trkpt><trkpt lat="45.599023946447474" lon="11.282862529987815"><ele>740.0</ele><time>2026-03-26T16:07:35.999Z</time></trkpt><trkpt lat="45.599103964678676" lon="11.282705435755904"><ele>740.0</ele><time>2026-03-26T16:07:37.999Z</time></trkpt><trkpt lat="45.59918077075297" lon="11.282634944085112"><ele>740.0</ele><time>2026-03-26T16:07:38.999Z</time></trkpt><trkpt lat="45.59925277131956" lon="11.282631223566879"><ele>740.0</ele><time>2026-03-26T16:07:40.999Z</time></trkpt><trkpt lat="45.59929478474899" lon="11.282482096221619"><ele>740.0</ele><time>2026-03-26T16:07:42.999Z</time></trkpt><trkpt lat="45.59932728329913" lon="11.282372613767269"><ele>740.0</ele><time>2026-03-26T16:07:43.999Z</time></trkpt><trkpt lat="45.59936089932303" lon="11.282231098736604"><ele>740.0</ele><time>2026-03-26T16:07:44.999Z</time></trkpt><trkpt lat="45.59938873080049" lon="11.282071302008916"><ele>740.0</ele><time>2026-03-26T16:07:45.999Z</time></trkpt><trkpt lat="45.5994655806224" lon="11.28197611308077"><ele>740.8</ele><time>2026-03-26T16:07:47.999Z</time></trkpt><trkpt lat="45.599534693415016" lon="11.281969750588765"><ele>741.6</ele><time>2026-03-26T16:07:48.999Z</time></trkpt><trkpt lat="45.59964359396795" lon="11.281946671311246"><ele>742.4000000000001</ele><time>2026-03-26T16:07:49.999Z</time></trkpt><trkpt lat="45.59974897016499" lon="11.281921943974274"><ele>743.2</ele><time>2026-03-26T16:07:50.999Z</time></trkpt><trkpt lat="45.599875772845195" lon="11.281912472894573"><ele>744.0</ele><time>2026-03-26T16:07:51.999Z</time></trkpt><trkpt lat="45.59999902905874" lon="11.28193819477373"><ele>744.0</ele><time>2026-03-26T16:07:52.999Z</time></trkpt><trkpt lat="45.60012573375013" lon="11.281975808580802"><ele>744.0</ele><time>2026-03-26T16:07:53.999Z</time></trkpt><trkpt lat="45.60024544386179" lon="11.282016169299148"><ele>744.0</ele><time>2026-03-26T16:07:54.999Z</time></trkpt><trkpt lat="45.60034589944603" lon="11.282047292786414"><ele>744.0</ele><time>2026-03-26T16:07:55.999Z</time></trkpt><trkpt lat="45.60042137491736" lon="11.28210424805469"><ele>744.0</ele><time>2026-03-26T16:07:56.999Z</time></trkpt><trkpt lat="45.60052610318844" lon="11.282214521989882"><ele>746.75</ele><time>2026-03-26T16:07:57.999Z</time></trkpt><trkpt lat="45.60065219689485" lon="11.282339734668676"><ele>749.5</ele><time>2026-03-26T16:07:58.998Z</time></trkpt><trkpt lat="45.60075631603703" lon="11.282456203507206"><ele>752.25</ele><time>2026-03-26T16:07:59.998Z</time></trkpt><trkpt lat="45.60085019736584" lon="11.282578928078415"><ele>755.0</ele><time>2026-03-26T16:08:00.998Z</time></trkpt><trkpt lat="45.600937029707985" lon="11.28267386278786"><ele>755.0</ele><time>2026-03-26T16:08:01.998Z</time></trkpt><trkpt lat="45.601078978071264" lon="11.282739770235633"><ele>755.0</ele><time>2026-03-26T16:08:02.998Z</time></trkpt><trkpt lat="45.60123789138468" lon="11.282774962146116"><ele>755.0</ele><time>2026-03-26T16:08:03.998Z</time></trkpt><trkpt lat="45.6013942882289" lon="11.282789655968742"><ele>757.0</ele><time>2026-03-26T16:08:04.998Z</time></trkpt><trkpt lat="45.60153806620885" lon="11.282794009628967"><ele>759.0</ele><time>2026-03-26T16:08:05.998Z</time></trkpt><trkpt lat="45.60168193625001" lon="11.282771938775808"><ele>761.0</ele><time>2026-03-26T16:08:06.998Z</time></trkpt><trkpt lat="45.60178216357185" lon="11.282732979637398"><ele>763.0</ele><time>2026-03-26T16:08:07.998Z</time></trkpt><trkpt lat="45.60188714358483" lon="11.282759738574166"><ele>763.0</ele><time>2026-03-26T16:08:08.998Z</time></trkpt><trkpt lat="45.60195564560446" lon="11.282670226969596"><ele>763.0</ele><time>2026-03-26T16:08:09.998Z</time></trkpt><trkpt lat="45.602060009552616" lon="11.282696343866064"><ele>763.0</ele><time>2026-03-26T16:08:10.998Z</time></trkpt><trkpt lat="45.602162183869304" lon="11.282743972721697"><ele>763.0</ele><time>2026-03-26T16:08:11.998Z</time></trkpt><trkpt lat="45.60225868272219" lon="11.282806495756464"><ele>763.0</ele><time>2026-03-26T16:08:12.998Z</time></trkpt><trkpt lat="45.6023544808273" lon="11.282846374069969"><ele>766.5</ele><time>2026-03-26T16:08:13.998Z</time></trkpt><trkpt lat="45.60249469889917" lon="11.282756791958604"><ele>770.0</ele><time>2026-03-26T16:08:14.998Z</time></trkpt><trkpt lat="45.60258518112163" lon="11.282748216731228"><ele>773.5</ele><time>2026-03-26T16:08:15.998Z</time></trkpt><trkpt lat="45.60268278642931" lon="11.282715637765744"><ele>777.0</ele><time>2026-03-26T16:08:16.998Z</time></trkpt><trkpt lat="45.602793407321215" lon="11.282634557274232"><ele>779.75</ele><time>2026-03-26T16:08:17.998Z</time></trkpt><trkpt lat="45.60291179191066" lon="11.282527939977442"><ele>782.5</ele><time>2026-03-26T16:08:18.998Z</time></trkpt><trkpt lat="45.6030193459122" lon="11.282435324152855"><ele>785.25</ele><time>2026-03-26T16:08:19.998Z</time></trkpt><trkpt lat="45.60313069962387" lon="11.282390085280143"><ele>788.0</ele><time>2026-03-26T16:08:20.998Z</time></trkpt><trkpt lat="45.60323930578138" lon="11.28234699875694"><ele>789.25</ele><time>2026-03-26T16:08:21.998Z</time></trkpt><trkpt lat="45.60329677503228" lon="11.282233111220082"><ele>790.5</ele><time>2026-03-26T16:08:22.998Z</time></trkpt><trkpt lat="45.603372891355406" lon="11.282191259965192"><ele>791.75</ele><time>2026-03-26T16:08:23.998Z</time></trkpt><trkpt lat="45.60353137134805" lon="11.282153336333563"><ele>793.0</ele><time>2026-03-26T16:08:24.998Z</time></trkpt><trkpt lat="45.60368172478935" lon="11.28210682705986"><ele>793.3333333333333</ele><time>2026-03-26T16:08:25.998Z</time></trkpt><trkpt lat="45.60384242976977" lon="11.282042148144205"><ele>793.6666666666667</ele><time>2026-03-26T16:08:26.998Z</time></trkpt><trkpt lat="45.60399524256098" lon="11.282023765986507"><ele>794.0</ele><time>2026-03-26T16:08:27.998Z</time></trkpt><trkpt lat="45.60413337765841" lon="11.28198961754275"><ele>794.0</ele><time>2026-03-26T16:08:28.998Z</time></trkpt><trkpt lat="45.60422928709744" lon="11.281904916273103"><ele>794.0</ele><time>2026-03-26T16:08:29.998Z</time></trkpt><trkpt lat="45.604352179913896" lon="11.281804333745013"><ele>794.0</ele><time>2026-03-26T16:08:30.998Z</time></trkpt><trkpt lat="45.60446141026491" lon="11.28171204656497"><ele>794.0</ele><time>2026-03-26T16:08:31.998Z</time></trkpt><trkpt lat="45.60457513219461" lon="11.281623141761512"><ele>794.4000000000001</ele><time>2026-03-26T16:08:32.998Z</time></trkpt><trkpt lat="45.60465782464071" lon="11.281501433856626"><ele>794.8</ele><time>2026-03-26T16:08:33.998Z</time></trkpt><trkpt lat="45.60471463750599" lon="11.281435522403138"><ele>795.2</ele><time>2026-03-26T16:08:34.998Z</time></trkpt><trkpt lat="45.60477586983772" lon="11.281361784517749"><ele>795.5999999999999</ele><time>2026-03-26T16:08:35.998Z</time></trkpt><trkpt lat="45.604851817325276" lon="11.281278461038097"><ele>796.0</ele><time>2026-03-26T16:08:36.998Z</time></trkpt><trkpt lat="45.60493979312339" lon="11.2811596912341"><ele>794.4</ele><time>2026-03-26T16:08:38.997Z</time></trkpt><trkpt lat="45.60503365886818" lon="11.281087158173795"><ele>792.8</ele><time>2026-03-26T16:08:40.997Z</time></trkpt><trkpt lat="45.60511544607416" lon="11.281060031633602"><ele>791.1999999999999</ele><time>2026-03-26T16:08:42.997Z</time></trkpt><trkpt lat="45.605202771647285" lon="11.281023720474899"><ele>789.5999999999999</ele><time>2026-03-26T16:08:44.997Z</time></trkpt><trkpt lat="45.605286568032334" lon="11.280960109829916"><ele>788.0</ele><time>2026-03-26T16:08:45.997Z</time></trkpt><trkpt lat="45.605369298631125" lon="11.28090054479094"><ele>791.2</ele><time>2026-03-26T16:08:46.997Z</time></trkpt><trkpt lat="45.60543568970645" lon="11.280874319711206"><ele>794.4</ele><time>2026-03-26T16:08:47.997Z</time></trkpt><trkpt lat="45.6055445922585" lon="11.280842888107165"><ele>797.6</ele><time>2026-03-26T16:08:49.997Z</time></trkpt><trkpt lat="45.60564906105762" lon="11.280928637877583"><ele>800.8000000000001</ele><time>2026-03-26T16:08:52Z</time></trkpt><trkpt lat="45.60572900506359" lon="11.28102439809287"><ele>804.0</ele><time>2026-03-26T16:08:54Z</time></trkpt><trkpt lat="45.60581298770995" lon="11.281064022484284"><ele>804.0</ele><time>2026-03-26T16:08:56Z</time></trkpt><trkpt lat="45.605937170400736" lon="11.281041814443045"><ele>804.0</ele><time>2026-03-26T16:10:26.998Z</time></trkpt><trkpt lat="45.60607701930435" lon="11.281079809136106"><ele>804.0</ele><time>2026-03-26T16:10:28.998Z</time></trkpt><trkpt lat="45.60617789602086" lon="11.281080902108432"><ele>804.0</ele><time>2026-03-26T16:10:30.998Z</time></trkpt><trkpt lat="45.606240280881096" lon="11.281106225880675"><ele>804.0</ele><time>2026-03-26T16:10:32.998Z</time></trkpt><trkpt lat="45.606250798279056" lon="11.281207037222721"><ele>802.5</ele><time>2026-03-26T16:10:34.998Z</time></trkpt><trkpt lat="45.60625110667417" lon="11.281335825058678"><ele>801.0</ele><time>2026-03-26T16:10:36.998Z</time></trkpt><trkpt lat="45.60625421740442" lon="11.28146803447606"><ele>799.5</ele><time>2026-03-26T16:10:38.998Z</time></trkpt><trkpt lat="45.606273872251585" lon="11.28158098304362"><ele>798.0</ele><time>2026-03-26T16:10:40.997Z</time></trkpt><trkpt lat="45.606227680245034" lon="11.281673458299794"><ele>796.5</ele><time>2026-03-26T16:10:41.997Z</time></trkpt><trkpt lat="45.606161054863826" lon="11.28173843255391"><ele>795.0</ele><time>2026-03-26T16:10:42.997Z</time></trkpt><trkpt lat="45.606075676962945" lon="11.281779360962657"><ele>795.0</ele><time>2026-03-26T16:10:43.997Z</time></trkpt><trkpt lat="45.60601797143936" lon="11.281816233624992"><ele>795.0</ele><time>2026-03-26T16:10:44.997Z</time></trkpt><trkpt lat="45.605972081121394" lon="11.28191300884922"><ele>795.0</ele><time>2026-03-26T16:10:46.997Z</time></trkpt><trkpt lat="45.60591936348204" lon="11.282020094000483"><ele>795.0</ele><time>2026-03-26T16:10:49.997Z</time></trkpt><trkpt lat="45.605859984533176" lon="11.282096313086429"><ele>795.0</ele><time>2026-03-26T16:10:50.997Z</time></trkpt><trkpt lat="45.6057790365743" lon="11.282197811292665"><ele>795.0</ele><time>2026-03-26T16:10:51.997Z</time></trkpt><trkpt lat="45.6057168394533" lon="11.282290006238346"><ele>795.0</ele><time>2026-03-26T16:10:52.997Z</time></trkpt><trkpt lat="45.60567131659009" lon="11.28235602737004"><ele>795.0</ele><time>2026-03-26T16:10:53.997Z</time></trkpt><trkpt lat="45.60557280880519" lon="11.282412796019333"><ele>795.0</ele><time>2026-03-26T16:10:55.997Z</time></trkpt><trkpt lat="45.60550570837681" lon="11.28241565437557"><ele>795.0</ele><time>2026-03-26T16:10:56.997Z</time></trkpt><trkpt lat="45.60542113444579" lon="11.282435352292472"><ele>795.0</ele><time>2026-03-26T16:10:58Z</time></trkpt><trkpt lat="45.605355770736516" lon="11.282427800689808"><ele>795.0</ele><time>2026-03-26T16:10:59Z</time></trkpt><trkpt lat="45.60524245288307" lon="11.282384443537497"><ele>795.1666666666666</ele><time>2026-03-26T16:11:01Z</time></trkpt><trkpt lat="45.60518865182394" lon="11.28231866914676"><ele>795.3333333333333</ele><time>2026-03-26T16:11:02Z</time></trkpt><trkpt lat="45.60510931882378" lon="11.282281623193434"><ele>795.5</ele><time>2026-03-26T16:11:04Z</time></trkpt><trkpt lat="45.605028218963035" lon="11.282253736217491"><ele>795.6666666666666</ele><time>2026-03-26T16:11:06Z</time></trkpt><trkpt lat="45.60495664409589" lon="11.282148816997662"><ele>795.8333333333333</ele><time>2026-03-26T16:11:08Z</time></trkpt><trkpt lat="45.60498162741749" lon="11.282044197453411"><ele>796.0</ele><time>2026-03-26T16:11:11Z</time></trkpt><trkpt lat="45.60489744856591" lon="11.282023257392348"><ele>796.0</ele><time>2026-03-26T16:11:41.999Z</time></trkpt><trkpt lat="45.60486578467237" lon="11.281925975917476"><ele>796.0</ele><time>2026-03-26T16:11:43.999Z</time></trkpt><trkpt lat="45.60481223412666" lon="11.281859393483565"><ele>796.0</ele><time>2026-03-26T16:11:45.999Z</time></trkpt><trkpt lat="45.6047267637467" lon="11.281795080023445"><ele>796.0</ele><time>2026-03-26T16:11:47.999Z</time></trkpt><trkpt lat="45.60463061571647" lon="11.28182892510595"><ele>796.0</ele><time>2026-03-26T16:11:49.999Z</time></trkpt><trkpt lat="45.604499794475984" lon="11.281917359117356"><ele>795.5999999999999</ele><time>2026-03-26T16:11:51.999Z</time></trkpt><trkpt lat="45.60433691639054" lon="11.2818011997678"><ele>795.2</ele><time>2026-03-26T16:11:53.999Z</time></trkpt><trkpt lat="45.60428176711924" lon="11.281846742338386"><ele>794.8</ele><time>2026-03-26T16:11:56.999Z</time></trkpt><trkpt lat="45.604231855990875" lon="11.281945991732083"><ele>794.4000000000001</ele><time>2026-03-26T16:12:03.999Z</time></trkpt><trkpt lat="45.60412823346895" lon="11.282016600220627"><ele>794.0</ele><time>2026-03-26T16:12:05.999Z</time></trkpt><trkpt lat="45.604003574852" lon="11.28207519935602"><ele>794.0</ele><time>2026-03-26T16:12:07.999Z</time></trkpt><trkpt lat="45.60389943202455" lon="11.282071500469845"><ele>794.0</ele><time>2026-03-26T16:12:08.999Z</time></trkpt><trkpt lat="45.60378029370257" lon="11.282109938412788"><ele>794.0</ele><time>2026-03-26T16:12:09.999Z</time></trkpt><trkpt lat="45.60362458248733" lon="11.282159317312196"><ele>794.0</ele><time>2026-03-26T16:12:10.998Z</time></trkpt><trkpt lat="45.60350099980123" lon="11.28220286768607"><ele>793.8000000000001</ele><time>2026-03-26T16:12:11.998Z</time></trkpt><trkpt lat="45.60338998194656" lon="11.282245875892075"><ele>793.6</ele><time>2026-03-26T16:12:12.998Z</time></trkpt><trkpt lat="45.60328282806028" lon="11.282301256321919"><ele>793.4</ele><time>2026-03-26T16:12:13.998Z</time></trkpt><trkpt lat="45.60318635987241" lon="11.282377109368026"><ele>793.2</ele><time>2026-03-26T16:12:14.998Z</time></trkpt><trkpt lat="45.60309384361122" lon="11.282426049552868"><ele>793.0</ele><time>2026-03-26T16:12:15.998Z</time></trkpt><trkpt lat="45.60299254666037" lon="11.282462310635989"><ele>791.75</ele><time>2026-03-26T16:12:16.998Z</time></trkpt><trkpt lat="45.60289984396737" lon="11.282519994596788"><ele>790.5</ele><time>2026-03-26T16:12:17.998Z</time></trkpt><trkpt lat="45.602781339461195" lon="11.282615576274042"><ele>789.25</ele><time>2026-03-26T16:12:18.998Z</time></trkpt><trkpt lat="45.602664745035575" lon="11.2826735879592"><ele>788.0</ele><time>2026-03-26T16:12:19.998Z</time></trkpt><trkpt lat="45.60257026980518" lon="11.282724288456517"><ele>785.8</ele><time>2026-03-26T16:12:20.998Z</time></trkpt><trkpt lat="45.60249028627356" lon="11.282742854719135"><ele>783.5999999999999</ele><time>2026-03-26T16:12:21.998Z</time></trkpt><trkpt lat="45.60240323884829" lon="11.282736459332426"><ele>781.4000000000001</ele><time>2026-03-26T16:12:22.998Z</time></trkpt><trkpt lat="45.602289180330764" lon="11.282739099674215"><ele>779.2</ele><time>2026-03-26T16:12:23.998Z</time></trkpt><trkpt lat="45.60217309261892" lon="11.282750913844431"><ele>777.0</ele><time>2026-03-26T16:12:24.998Z</time></trkpt><trkpt lat="45.602047307327474" lon="11.282744698778027"><ele>773.5</ele><time>2026-03-26T16:12:25.998Z</time></trkpt><trkpt lat="45.60194264967794" lon="11.28274748450396"><ele>770.0</ele><time>2026-03-26T16:12:26.998Z</time></trkpt><trkpt lat="45.60184243583288" lon="11.282762500776473"><ele>766.5</ele><time>2026-03-26T16:12:27.998Z</time></trkpt><trkpt lat="45.60174255911998" lon="11.282758760744658"><ele>763.0</ele><time>2026-03-26T16:12:28.998Z</time></trkpt><trkpt lat="45.60150632404624" lon="11.282762357964545"><ele>763.0</ele><time>2026-03-26T16:12:30.998Z</time></trkpt><trkpt lat="45.601329094368964" lon="11.282768525313568"><ele>763.0</ele><time>2026-03-26T16:12:31.998Z</time></trkpt><trkpt lat="45.60118129892638" lon="11.282736860073173"><ele>763.0</ele><time>2026-03-26T16:12:32.998Z</time></trkpt><trkpt lat="45.60103166283399" lon="11.282692722552216"><ele>761.0</ele><time>2026-03-26T16:12:33.998Z</time></trkpt><trkpt lat="45.60093114812502" lon="11.28260786919068"><ele>759.0</ele><time>2026-03-26T16:12:34.998Z</time></trkpt><trkpt lat="45.600830055086874" lon="11.282515658507908"><ele>757.0</ele><time>2026-03-26T16:12:35.998Z</time></trkpt><trkpt lat="45.60071576206596" lon="11.282420066728823"><ele>755.0</ele><time>2026-03-26T16:12:36.998Z</time></trkpt><trkpt lat="45.600580633467345" lon="11.28228173501132"><ele>753.5</ele><time>2026-03-26T16:12:37.998Z</time></trkpt><trkpt lat="45.60046214225228" lon="11.282148755141526"><ele>752.0</ele><time>2026-03-26T16:12:38.998Z</time></trkpt><trkpt lat="45.60036453256567" lon="11.282054919401778"><ele>750.5</ele><time>2026-03-26T16:12:39.998Z</time></trkpt><trkpt lat="45.600274160782085" lon="11.281992998761856"><ele>749.0</ele><time>2026-03-26T16:12:40.998Z</time></trkpt><trkpt lat="45.6001272519855" lon="11.281958923795303"><ele>747.75</ele><time>2026-03-26T16:12:41.998Z</time></trkpt><trkpt lat="45.59999384183321" lon="11.281948773274932"><ele>746.5</ele><time>2026-03-26T16:12:42.998Z</time></trkpt><trkpt lat="45.59986903169548" lon="11.281928660369568"><ele>745.25</ele><time>2026-03-26T16:12:43.998Z</time></trkpt><trkpt lat="45.59977033453207" lon="11.28192110345191"><ele>744.0</ele><time>2026-03-26T16:12:44.998Z</time></trkpt><trkpt lat="45.59967538688579" lon="11.281955708975365"><ele>744.0</ele><time>2026-03-26T16:12:45.998Z</time></trkpt><trkpt lat="45.59957340515348" lon="11.28198361616383"><ele>744.0</ele><time>2026-03-26T16:12:46.998Z</time></trkpt><trkpt lat="45.599498496865074" lon="11.281970074055211"><ele>744.0</ele><time>2026-03-26T16:12:47.997Z</time></trkpt><trkpt lat="45.59943412851042" lon="11.281936613636304"><ele>744.0</ele><time>2026-03-26T16:12:49.997Z</time></trkpt><trkpt lat="45.599206565180495" lon="11.28197808194772"><ele>743.8333333333334</ele><time>2026-03-26T16:12:51.997Z</time></trkpt><trkpt lat="45.59914282492636" lon="11.281972874474484"><ele>743.6666666666666</ele><time>2026-03-26T16:12:52.997Z</time></trkpt><trkpt lat="45.59905096460335" lon="11.281979880947786"><ele>743.5</ele><time>2026-03-26T16:12:53.997Z</time></trkpt><trkpt lat="45.59897859019569" lon="11.282004671056091"><ele>743.3333333333333</ele><time>2026-03-26T16:12:54.997Z</time></trkpt><trkpt lat="45.59890571389343" lon="11.28202230851931"><ele>743.1666666666666</ele><time>2026-03-26T16:12:55.997Z</time></trkpt><trkpt lat="45.59882726892929" lon="11.282034386976857"><ele>743.0</ele><time>2026-03-26T16:12:56.997Z</time></trkpt><trkpt lat="45.59873854166116" lon="11.28206970130895"><ele>743.0</ele><time>2026-03-26T16:12:57.997Z</time></trkpt><trkpt lat="45.59867296894194" lon="11.28208043898055"><ele>743.0</ele><time>2026-03-26T16:12:58.997Z</time></trkpt><trkpt lat="45.598589973238816" lon="11.282075914772049"><ele>743.0</ele><time>2026-03-26T16:12:59.997Z</time></trkpt><trkpt lat="45.598512464424275" lon="11.282020649835017"><ele>743.0</ele><time>2026-03-26T16:13:00.997Z</time></trkpt><trkpt lat="45.598404836263306" lon="11.281969058036571"><ele>743.0</ele><time>2026-03-26T16:13:01.997Z</time></trkpt><trkpt lat="45.59829840310013" lon="11.28197033104381"><ele>743.0</ele><time>2026-03-26T16:13:02.997Z</time></trkpt><trkpt lat="45.598183250152495" lon="11.282007463522067"><ele>743.0</ele><time>2026-03-26T16:13:04Z</time></trkpt><trkpt lat="45.59806960731306" lon="11.282043870662378"><ele>743.0</ele><time>2026-03-26T16:13:05Z</time></trkpt><trkpt lat="45.597961790218044" lon="11.282068415551704"><ele>743.0</ele><time>2026-03-26T16:13:06Z</time></trkpt><trkpt lat="45.59785414349638" lon="11.2820811829482"><ele>745.0</ele><time>2026-03-26T16:13:07Z</time></trkpt><trkpt lat="45.597766699005845" lon="11.282096567954008"><ele>747.0</ele><time>2026-03-26T16:13:08Z</time></trkpt><trkpt lat="45.59763918724384" lon="11.282112124458482"><ele>749.0</ele><time>2026-03-26T16:13:09Z</time></trkpt><trkpt lat="45.59752194074499" lon="11.282109211199069"><ele>751.0</ele><time>2026-03-26T16:13:10Z</time></trkpt><trkpt lat="45.59742328065267" lon="11.282036852929041"><ele>753.0</ele><time>2026-03-26T16:13:11Z</time></trkpt><trkpt lat="45.59735184531223" lon="11.281960743344662"><ele>753.0</ele><time>2026-03-26T16:13:12Z</time></trkpt><trkpt lat="45.597262009082876" lon="11.28193724968285"><ele>753.0</ele><time>2026-03-26T16:13:13Z</time></trkpt><trkpt lat="45.59705766130962" lon="11.282049141796218"><ele>753.0</ele><time>2026-03-26T16:13:15Z</time></trkpt><trkpt lat="45.59694531275814" lon="11.282074952697796"><ele>753.0</ele><time>2026-03-26T16:13:16Z</time></trkpt><trkpt lat="45.59684533375155" lon="11.282088050759318"><ele>754.0</ele><time>2026-03-26T16:13:17Z</time></trkpt><trkpt lat="45.59675249572401" lon="11.282043942251898"><ele>755.0</ele><time>2026-03-26T16:13:18Z</time></trkpt><trkpt lat="45.596624229394614" lon="11.282022773523975"><ele>756.0</ele><time>2026-03-26T16:13:19Z</time></trkpt><trkpt lat="45.596504523046654" lon="11.282026963085373"><ele>757.0</ele><time>2026-03-26T16:13:20Z</time></trkpt><trkpt lat="45.59641029709205" lon="11.282009281063873"><ele>758.0</ele><time>2026-03-26T16:13:21Z</time></trkpt><trkpt lat="45.59634619319124" lon="11.282008928701659"><ele>758.0</ele><time>2026-03-26T16:13:22Z</time></trkpt><trkpt lat="45.59627388129091" lon="11.282041748700784"><ele>758.0</ele><time>2026-03-26T16:13:23Z</time></trkpt><trkpt lat="45.5961829757462" lon="11.282084680471215"><ele>758.0</ele><time>2026-03-26T16:13:24Z</time></trkpt><trkpt lat="45.59609874777367" lon="11.282158393774324"><ele>758.0</ele><time>2026-03-26T16:13:25Z</time></trkpt><trkpt lat="45.59603186732915" lon="11.28220075233869"><ele>758.0</ele><time>2026-03-26T16:13:26Z</time></trkpt><trkpt lat="45.59593397666264" lon="11.282302577239927"><ele>760.8</ele><time>2026-03-26T16:13:28Z</time></trkpt><trkpt lat="45.59590059081265" lon="11.282392028996322"><ele>763.5999999999999</ele><time>2026-03-26T16:13:31Z</time></trkpt><trkpt lat="45.59582740514241" lon="11.282437620128267"><ele>766.4000000000001</ele><time>2026-03-26T16:13:33Z</time></trkpt><trkpt lat="45.595747131220925" lon="11.282470679448632"><ele>769.2</ele><time>2026-03-26T16:13:35.999Z</time></trkpt><trkpt lat="45.5956245913053" lon="11.282551383859657"><ele>772.0</ele><time>2026-03-26T16:14:25.998Z</time></trkpt><trkpt lat="45.59554315596247" lon="11.282576285457006"><ele>772.0</ele><time>2026-03-26T16:14:27.998Z</time></trkpt><trkpt lat="45.59547384119443" lon="11.28264171887188"><ele>772.0</ele><time>2026-03-26T16:14:29.998Z</time></trkpt><trkpt lat="45.59537939923013" lon="11.282708373212076"><ele>772.0</ele><time>2026-03-26T16:14:31.998Z</time></trkpt><trkpt lat="45.595286424768474" lon="11.282769561952277"><ele>772.0</ele><time>2026-03-26T16:14:33.998Z</time></trkpt><trkpt lat="45.59518847141101" lon="11.28284337010385"><ele>772.0</ele><time>2026-03-26T16:14:35.998Z</time></trkpt><trkpt lat="45.59508715548729" lon="11.28280991581102"><ele>775.3333333333333</ele><time>2026-03-26T16:14:37.998Z</time></trkpt><trkpt lat="45.59500611748226" lon="11.28282065342473"><ele>778.6666666666666</ele><time>2026-03-26T16:14:39.998Z</time></trkpt><trkpt lat="45.59493798427" lon="11.282847398899838"><ele>782.0</ele><time>2026-03-26T16:14:41.998Z</time></trkpt><trkpt lat="45.594866962876814" lon="11.28289651990871"><ele>785.3333333333333</ele><time>2026-03-26T16:14:43.998Z</time></trkpt><trkpt lat="45.59479251135463" lon="11.282989365882514"><ele>788.6666666666666</ele><time>2026-03-26T16:14:45.998Z</time></trkpt><trkpt lat="45.594725973312826" lon="11.283086339984408"><ele>792.0</ele><time>2026-03-26T16:14:46.998Z</time></trkpt><trkpt lat="45.59465636938247" lon="11.283145528284633"><ele>792.0</ele><time>2026-03-26T16:14:47.997Z</time></trkpt><trkpt lat="45.59458504399781" lon="11.283198675417298"><ele>792.0</ele><time>2026-03-26T16:14:48.997Z</time></trkpt><trkpt lat="45.594515116286814" lon="11.283232128512685"><ele>792.0</ele><time>2026-03-26T16:14:49.997Z</time></trkpt><trkpt lat="45.594444887210045" lon="11.283255128967655"><ele>792.0</ele><time>2026-03-26T16:14:51.997Z</time></trkpt><trkpt lat="45.59439472730121" lon="11.283318495064545"><ele>792.0</ele><time>2026-03-26T16:15:00.997Z</time></trkpt><trkpt lat="45.59431588385581" lon="11.283295997961728"><ele>792.0</ele><time>2026-03-26T16:15:08.997Z</time></trkpt><trkpt lat="45.59424494649162" lon="11.283369979208684"><ele>795.6666666666666</ele><time>2026-03-26T16:15:12Z</time></trkpt><trkpt lat="45.594170828161516" lon="11.283385952677458"><ele>799.3333333333333</ele><time>2026-03-26T16:15:14Z</time></trkpt><trkpt lat="45.594102902764554" lon="11.283424837552158"><ele>803.0</ele><time>2026-03-26T16:15:15Z</time></trkpt><trkpt lat="45.59404162480162" lon="11.283558115077906"><ele>806.6666666666666</ele><time>2026-03-26T16:15:17Z</time></trkpt><trkpt lat="45.594037347416766" lon="11.283702196662015"><ele>810.3333333333333</ele><time>2026-03-26T16:15:18Z</time></trkpt><trkpt lat="45.59406837171502" lon="11.283794083848974"><ele>814.0</ele><time>2026-03-26T16:15:19Z</time></trkpt><trkpt lat="45.59405826646017" lon="11.283942851323511"><ele>813.9999999999999</ele><time>2026-03-26T16:15:21Z</time></trkpt><trkpt lat="45.5939836474748" lon="11.284076413843511"><ele>814.0</ele><time>2026-03-26T16:15:23Z</time></trkpt><trkpt lat="45.59391686969237" lon="11.284104595411124"><ele>814.0</ele><time>2026-03-26T16:15:24Z</time></trkpt><trkpt lat="45.59382804636369" lon="11.284113364983195"><ele>814.0</ele><time>2026-03-26T16:15:25Z</time></trkpt><trkpt lat="45.59376005741362" lon="11.284115448607059"><ele>813.9999999999999</ele><time>2026-03-26T16:15:26Z</time></trkpt><trkpt lat="45.59367692428839" lon="11.284092807375531"><ele>814.0</ele><time>2026-03-26T16:15:27Z</time></trkpt><trkpt lat="45.593598659961465" lon="11.284097755509725"><ele>818.0</ele><time>2026-03-26T16:15:28Z</time></trkpt><trkpt lat="45.5934973689224" lon="11.284081104866015"><ele>822.0</ele><time>2026-03-26T16:15:29Z</time></trkpt><trkpt lat="45.5934414647185" lon="11.28400896018238"><ele>826.0</ele><time>2026-03-26T16:15:30Z</time></trkpt><trkpt lat="45.59333465069254" lon="11.283973230310238"><ele>830.0</ele><time>2026-03-26T16:15:32Z</time></trkpt><trkpt lat="45.59322737473474" lon="11.284071181569285"><ele>834.0</ele><time>2026-03-26T16:15:34Z</time></trkpt><trkpt lat="45.59317442477683" lon="11.284136052425989"><ele>834.0</ele><time>2026-03-26T16:15:35Z</time></trkpt><trkpt lat="45.59312661933215" lon="11.284212718131329"><ele>834.0</ele><time>2026-03-26T16:15:36Z</time></trkpt><trkpt lat="45.5930727642061" lon="11.284357358598653"><ele>834.0</ele><time>2026-03-26T16:15:38Z</time></trkpt><trkpt lat="45.59302823000705" lon="11.284502345793479"><ele>834.0</ele><time>2026-03-26T16:15:40Z</time></trkpt><trkpt lat="45.59302708129713" lon="11.284639984820574"><ele>834.0</ele><time>2026-03-26T16:15:42Z</time></trkpt><trkpt lat="45.59302539972293" lon="11.284793288682675"><ele>834.0</ele><time>2026-03-26T16:15:42.999Z</time></trkpt><trkpt lat="45.593022699403924" lon="11.284939291437178"><ele>834.0</ele><time>2026-03-26T16:15:43.999Z</time></trkpt><trkpt lat="45.593027527380585" lon="11.285082958461473"><ele>834.0</ele><time>2026-03-26T16:15:44.999Z</time></trkpt><trkpt lat="45.593046010629386" lon="11.285186524856138"><ele>834.0</ele><time>2026-03-26T16:15:45.999Z</time></trkpt><trkpt lat="45.59303932751525" lon="11.28531091607325"><ele>834.0</ele><time>2026-03-26T16:15:48.999Z</time></trkpt><trkpt lat="45.59305550812302" lon="11.285508699621545"><ele>834.0</ele><time>2026-03-26T16:16:11.999Z</time></trkpt><trkpt lat="45.59304229658377" lon="11.28564341861223"><ele>834.0</ele><time>2026-03-26T16:16:13.999Z</time></trkpt><trkpt lat="45.592983885743344" lon="11.285769625547646"><ele>834.0</ele><time>2026-03-26T16:16:15.999Z</time></trkpt><trkpt lat="45.59294015224731" lon="11.285875837990426"><ele>834.0</ele><time>2026-03-26T16:16:16.999Z</time></trkpt><trkpt lat="45.5928623255933" lon="11.28601162000008"><ele>834.0</ele><time>2026-03-26T16:16:17.999Z</time></trkpt><trkpt lat="45.59280295735097" lon="11.286080859771888"><ele>833.2</ele><time>2026-03-26T16:16:18.999Z</time></trkpt><trkpt lat="45.592715295871855" lon="11.286224573630273"><ele>832.4000000000001</ele><time>2026-03-26T16:16:20.998Z</time></trkpt><trkpt lat="45.592660562147344" lon="11.286304037153176"><ele>831.6</ele><time>2026-03-26T16:16:22.998Z</time></trkpt><trkpt lat="45.59264220228407" lon="11.286457093504021"><ele>830.8</ele><time>2026-03-26T16:16:24.998Z</time></trkpt><trkpt lat="45.59262005774" lon="11.286547734161621"><ele>830.0</ele><time>2026-03-26T16:16:25.998Z</time></trkpt><trkpt lat="45.59255402353539" lon="11.28670307826824"><ele>830.0</ele><time>2026-03-26T16:16:27.998Z</time></trkpt><trkpt lat="45.59250657818312" lon="11.286814325168832"><ele>830.0</ele><time>2026-03-26T16:16:28.998Z</time></trkpt><trkpt lat="45.592486955326315" lon="11.28692087709228"><ele>830.0</ele><time>2026-03-26T16:16:29.998Z</time></trkpt><trkpt lat="45.592400197307896" lon="11.287044873652514"><ele>830.0</ele><time>2026-03-26T16:16:30.998Z</time></trkpt><trkpt lat="45.5922978411241" lon="11.287160623308214"><ele>830.0</ele><time>2026-03-26T16:16:31.998Z</time></trkpt><trkpt lat="45.59225143541722" lon="11.287298728576122"><ele>828.25</ele><time>2026-03-26T16:16:32.998Z</time></trkpt><trkpt lat="45.59219752435131" lon="11.287464046501695"><ele>826.5</ele><time>2026-03-26T16:16:33.998Z</time></trkpt><trkpt lat="45.59209643112285" lon="11.28761184162649"><ele>824.75</ele><time>2026-03-26T16:16:34.998Z</time></trkpt><trkpt lat="45.5920277137835" lon="11.287774795523422"><ele>823.0</ele><time>2026-03-26T16:16:35.998Z</time></trkpt><trkpt lat="45.59193951148485" lon="11.28794772321487"><ele>819.25</ele><time>2026-03-26T16:16:36.998Z</time></trkpt><trkpt lat="45.59187341536113" lon="11.288101190567415"><ele>815.5</ele><time>2026-03-26T16:16:37.998Z</time></trkpt><trkpt lat="45.59180043492788" lon="11.288241172366543"><ele>811.75</ele><time>2026-03-26T16:16:38.998Z</time></trkpt><trkpt lat="45.59174261712154" lon="11.288394902252985"><ele>808.0</ele><time>2026-03-26T16:16:39.998Z</time></trkpt><trkpt lat="45.591688583157946" lon="11.288553846086122"><ele>808.0</ele><time>2026-03-26T16:16:40.998Z</time></trkpt><trkpt lat="45.5916441223285" lon="11.288710284724965"><ele>808.0</ele><time>2026-03-26T16:16:41.998Z</time></trkpt><trkpt lat="45.59160963152485" lon="11.288875819282135"><ele>808.0</ele><time>2026-03-26T16:16:42.998Z</time></trkpt><trkpt lat="45.591539279447154" lon="11.28898856920374"><ele>808.0</ele><time>2026-03-26T16:16:43.998Z</time></trkpt><trkpt lat="45.591442778152114" lon="11.289105518401255"><ele>806.75</ele><time>2026-03-26T16:16:44.998Z</time></trkpt><trkpt lat="45.591321115844316" lon="11.289232825355189"><ele>805.5</ele><time>2026-03-26T16:16:45.998Z</time></trkpt><trkpt lat="45.591200276704996" lon="11.289361234515548"><ele>804.25</ele><time>2026-03-26T16:16:46.998Z</time></trkpt><trkpt lat="45.59108912082026" lon="11.28945080046549"><ele>803.0</ele><time>2026-03-26T16:16:47.998Z</time></trkpt><trkpt lat="45.590986920097" lon="11.289549442355062"><ele>801.75</ele><time>2026-03-26T16:16:48.998Z</time></trkpt><trkpt lat="45.590886810404825" lon="11.28960736580833"><ele>800.5</ele><time>2026-03-26T16:16:49.998Z</time></trkpt><trkpt lat="45.590782687917354" lon="11.28963075063108"><ele>799.25</ele><time>2026-03-26T16:16:50.998Z</time></trkpt><trkpt lat="45.590660331346214" lon="11.289613882853136"><ele>798.0</ele><time>2026-03-26T16:16:51.998Z</time></trkpt><trkpt lat="45.59052719335664" lon="11.289572113831355"><ele>798.0</ele><time>2026-03-26T16:16:52.998Z</time></trkpt><trkpt lat="45.59041359375474" lon="11.289518799690056"><ele>798.0</ele><time>2026-03-26T16:16:53.998Z</time></trkpt><trkpt lat="45.59030295936807" lon="11.289471716798731"><ele>798.0</ele><time>2026-03-26T16:16:54.998Z</time></trkpt><trkpt lat="45.590193853510186" lon="11.28943130815533"><ele>798.0</ele><time>2026-03-26T16:16:55.998Z</time></trkpt><trkpt lat="45.59009368234811" lon="11.289434904095643"><ele>798.0</ele><time>2026-03-26T16:16:56.997Z</time></trkpt><trkpt lat="45.589998608743905" lon="11.289452793111602"><ele>796.25</ele><time>2026-03-26T16:16:57.997Z</time></trkpt><trkpt lat="45.589875272456155" lon="11.289504368162412"><ele>794.5</ele><time>2026-03-26T16:16:58.997Z</time></trkpt><trkpt lat="45.58975474768491" lon="11.289571028970055"><ele>792.75</ele><time>2026-03-26T16:16:59.997Z</time></trkpt><trkpt lat="45.58965177623115" lon="11.289618502590404"><ele>791.0</ele><time>2026-03-26T16:17:00.997Z</time></trkpt><trkpt lat="45.589557881037514" lon="11.289664852081996"><ele>790.0</ele><time>2026-03-26T16:17:01.997Z</time></trkpt><trkpt lat="45.58947355701777" lon="11.28970925445857"><ele>789.0</ele><time>2026-03-26T16:17:02.997Z</time></trkpt><trkpt lat="45.589378172486946" lon="11.289739818533912"><ele>788.0</ele><time>2026-03-26T16:17:03.997Z</time></trkpt><trkpt lat="45.589263678336515" lon="11.289758130387149"><ele>787.0</ele><time>2026-03-26T16:17:04.997Z</time></trkpt><trkpt lat="45.58915283084511" lon="11.289757866637713"><ele>786.0</ele><time>2026-03-26T16:17:05.997Z</time></trkpt><trkpt lat="45.589048924679545" lon="11.289774831820363"><ele>788.0</ele><time>2026-03-26T16:17:06.997Z</time></trkpt><trkpt lat="45.58896085417904" lon="11.289784135915102"><ele>790.0</ele><time>2026-03-26T16:17:07.997Z</time></trkpt><trkpt lat="45.588885488236016" lon="11.289781687048654"><ele>792.0</ele><time>2026-03-26T16:17:08.997Z</time></trkpt><trkpt lat="45.5887717164981" lon="11.289782588713512"><ele>794.0</ele><time>2026-03-26T16:17:10.997Z</time></trkpt><trkpt lat="45.58869793247762" lon="11.28976507034644"><ele>796.0</ele><time>2026-03-26T16:17:11.997Z</time></trkpt><trkpt lat="45.58861816585768" lon="11.28978586505465"><ele>798.0</ele><time>2026-03-26T16:17:12.997Z</time></trkpt><trkpt lat="45.58854647889057" lon="11.289823936541767"><ele>798.0</ele><time>2026-03-26T16:17:13.997Z</time></trkpt><trkpt lat="45.58843690737181" lon="11.28983726595625"><ele>798.0</ele><time>2026-03-26T16:17:16Z</time></trkpt><trkpt lat="45.588362374013776" lon="11.289823025974473"><ele>798.0</ele><time>2026-03-26T16:17:20Z</time></trkpt><trkpt lat="45.588372276526684" lon="11.289704625368495"><ele>798.0</ele><time>2026-03-26T16:17:23Z</time></trkpt><trkpt lat="45.588262403994236" lon="11.289651655889367"><ele>798.0</ele><time>2026-03-26T16:17:26Z</time></trkpt><trkpt lat="45.58818864659632" lon="11.28964300740138"><ele>796.4</ele><time>2026-03-26T16:17:27Z</time></trkpt><trkpt lat="45.58808265490203" lon="11.289666567285256"><ele>794.8</ele><time>2026-03-26T16:17:29Z</time></trkpt><trkpt lat="45.58799543074507" lon="11.28963744704338"><ele>793.2</ele><time>2026-03-26T16:17:31Z</time></trkpt><trkpt lat="45.58792821730677" lon="11.289607751926741"><ele>791.6</ele><time>2026-03-26T16:17:32Z</time></trkpt><trkpt lat="45.58782345187375" lon="11.289583211669784"><ele>790.0</ele><time>2026-03-26T16:17:34Z</time></trkpt><trkpt lat="45.5877369085696" lon="11.289572435291268"><ele>789.6666666666666</ele><time>2026-03-26T16:17:36Z</time></trkpt><trkpt lat="45.58766795061786" lon="11.289582656185821"><ele>789.3333333333333</ele><time>2026-03-26T16:17:37Z</time></trkpt><trkpt lat="45.587550106361526" lon="11.289564449558249"><ele>789.0</ele><time>2026-03-26T16:17:39Z</time></trkpt><trkpt lat="45.58747698635451" lon="11.289541531353724"><ele>788.6666666666667</ele><time>2026-03-26T16:17:40Z</time></trkpt><trkpt lat="45.58739595409673" lon="11.289518783391648"><ele>788.3333333333334</ele><time>2026-03-26T16:17:41Z</time></trkpt><trkpt lat="45.58729927167204" lon="11.28947684869797"><ele>788.0</ele><time>2026-03-26T16:17:42Z</time></trkpt><trkpt lat="45.58722087355788" lon="11.289471185722588"><ele>788.0000000000001</ele><time>2026-03-26T16:17:43Z</time></trkpt><trkpt lat="45.5871566170083" lon="11.289446711244796"><ele>788.0</ele><time>2026-03-26T16:17:44Z</time></trkpt><trkpt lat="45.587011257449156" lon="11.289417401961863"><ele>788.0</ele><time>2026-03-26T16:17:46Z</time></trkpt><trkpt lat="45.58692500814015" lon="11.289425122892421"><ele>788.0</ele><time>2026-03-26T16:17:47Z</time></trkpt><trkpt lat="45.586849108708016" lon="11.289438725297833"><ele>788.0000000000001</ele><time>2026-03-26T16:17:48Z</time></trkpt><trkpt lat="45.586781757416965" lon="11.289463822106667"><ele>788.0</ele><time>2026-03-26T16:17:49Z</time></trkpt><trkpt lat="45.5866653180509" lon="11.289522461189295"><ele>785.0</ele><time>2026-03-26T16:17:50.999Z</time></trkpt><trkpt lat="45.586547461212184" lon="11.28956402493582"><ele>782.0</ele><time>2026-03-26T16:17:52.999Z</time></trkpt><trkpt lat="45.586482259868674" lon="11.289572793384599"><ele>779.0</ele><time>2026-03-26T16:17:53.999Z</time></trkpt><trkpt lat="45.586398854421624" lon="11.28957337009209"><ele>776.0</ele><time>2026-03-26T16:17:54.999Z</time></trkpt><trkpt lat="45.58628306664804" lon="11.289643218924882"><ele>773.0</ele><time>2026-03-26T16:17:56.999Z</time></trkpt><trkpt lat="45.58619682341397" lon="11.289738336471268"><ele>770.3333333333334</ele><time>2026-03-26T16:17:58.999Z</time></trkpt><trkpt lat="45.586119459657056" lon="11.289790117012744"><ele>767.6666666666667</ele><time>2026-03-26T16:18:00.999Z</time></trkpt><trkpt lat="45.586035577830266" lon="11.289857905944501"><ele>765.0</ele><time>2026-03-26T16:18:01.999Z</time></trkpt><trkpt lat="45.58596422702435" lon="11.289892418120816"><ele>762.3333333333334</ele><time>2026-03-26T16:18:02.999Z</time></trkpt><trkpt lat="45.58586939316696" lon="11.28990690077824"><ele>759.6666666666667</ele><time>2026-03-26T16:18:04.999Z</time></trkpt><trkpt lat="45.5858081334105" lon="11.289859020725812"><ele>757.0</ele><time>2026-03-26T16:18:05.999Z</time></trkpt><trkpt lat="45.58573887362734" lon="11.289798216214384"><ele>757.0</ele><time>2026-03-26T16:18:06.999Z</time></trkpt><trkpt lat="45.58569070175644" lon="11.289724718414863"><ele>757.0</ele><time>2026-03-26T16:18:07.999Z</time></trkpt><trkpt lat="45.58561503117493" lon="11.289738470410143"><ele>757.0</ele><time>2026-03-26T16:18:11.999Z</time></trkpt><trkpt lat="45.58553764041375" lon="11.289779517210993"><ele>757.0</ele><time>2026-03-26T16:18:14.999Z</time></trkpt><trkpt lat="45.585472754677916" lon="11.289816107837574"><ele>757.0</ele><time>2026-03-26T16:18:17.999Z</time></trkpt><trkpt lat="45.58541667108644" lon="11.289890310884495"><ele>757.0</ele><time>2026-03-26T16:18:20.999Z</time></trkpt><trkpt lat="45.58532744646099" lon="11.289900326059666"><ele>753.8</ele><time>2026-03-26T16:18:22.999Z</time></trkpt><trkpt lat="45.58521412129997" lon="11.289988855724888"><ele>750.6</ele><time>2026-03-26T16:18:24.999Z</time></trkpt><trkpt lat="45.58510217137864" lon="11.290035390919543"><ele>747.4</ele><time>2026-03-26T16:18:26.999Z</time></trkpt><trkpt lat="45.58502690035093" lon="11.290073278905394"><ele>744.1999999999999</ele><time>2026-03-26T16:18:27.998Z</time></trkpt><trkpt lat="45.58495957180146" lon="11.290086572656769"><ele>741.0</ele><time>2026-03-26T16:18:28.998Z</time></trkpt><trkpt lat="45.584863883907936" lon="11.290166878109929"><ele>741.0</ele><time>2026-03-26T16:18:32.998Z</time></trkpt><trkpt lat="45.5847847657112" lon="11.290201252977017"><ele>741.0</ele><time>2026-03-26T16:18:36.998Z</time></trkpt><trkpt lat="45.58473170296875" lon="11.29025948787676"><ele>741.0</ele><time>2026-03-26T16:18:38.998Z</time></trkpt><trkpt lat="45.58471283913633" lon="11.290356817644197"><ele>741.0</ele><time>2026-03-26T16:18:46.998Z</time></trkpt><trkpt lat="45.5847803601417" lon="11.290473141155125"><ele>741.0</ele><time>2026-03-26T16:18:53.998Z</time></trkpt><trkpt lat="45.5848559580253" lon="11.290529935635597"><ele>741.0</ele><time>2026-03-26T16:18:54.998Z</time></trkpt><trkpt lat="45.584940381131595" lon="11.29061290105661"><ele>742.1999999999999</ele><time>2026-03-26T16:18:55.998Z</time></trkpt><trkpt lat="45.5849935577375" lon="11.290667678850733"><ele>743.4</ele><time>2026-03-26T16:18:56.998Z</time></trkpt><trkpt lat="45.585106636994865" lon="11.290737217012268"><ele>744.6</ele><time>2026-03-26T16:18:58.998Z</time></trkpt><trkpt lat="45.58521312907743" lon="11.290758089969106"><ele>745.8</ele><time>2026-03-26T16:19:00.998Z</time></trkpt><trkpt lat="45.585294929978716" lon="11.290767442492378"><ele>747.0</ele><time>2026-03-26T16:19:01.998Z</time></trkpt><trkpt lat="45.585394760679215" lon="11.29090466506138"><ele>747.0</ele><time>2026-03-26T16:19:03.998Z</time></trkpt><trkpt lat="45.58544810662034" lon="11.29102764505384"><ele>747.0</ele><time>2026-03-26T16:19:04.997Z</time></trkpt><trkpt lat="45.5854876513827" lon="11.291169077594015"><ele>747.0</ele><time>2026-03-26T16:19:05.997Z</time></trkpt><trkpt lat="45.58551631879293" lon="11.291297396169327"><ele>747.0</ele><time>2026-03-26T16:19:06.997Z</time></trkpt><trkpt lat="45.585540488207535" lon="11.291423558811433"><ele>747.0</ele><time>2026-03-26T16:19:07.997Z</time></trkpt><trkpt lat="45.58554359535803" lon="11.291577958712383"><ele>745.0</ele><time>2026-03-26T16:19:08.997Z</time></trkpt><trkpt lat="45.58554960924247" lon="11.291672978468192"><ele>743.0</ele><time>2026-03-26T16:19:09.997Z</time></trkpt><trkpt lat="45.585566289464836" lon="11.291778418933015"><ele>741.0</ele><time>2026-03-26T16:19:10.997Z</time></trkpt><trkpt lat="45.58559372722601" lon="11.291872238410766"><ele>739.0</ele><time>2026-03-26T16:19:11.997Z</time></trkpt><trkpt lat="45.58567502032209" lon="11.292021915110489"><ele>737.0</ele><time>2026-03-26T16:19:13.997Z</time></trkpt><trkpt lat="45.585751857334216" lon="11.292045261077869"><ele>735.0</ele><time>2026-03-26T16:19:14.997Z</time></trkpt><trkpt lat="45.58581662995198" lon="11.292042374416683"><ele>735.0</ele><time>2026-03-26T16:19:15.997Z</time></trkpt><trkpt lat="45.585869827474085" lon="11.292138000138639"><ele>735.0</ele><time>2026-03-26T16:19:16.997Z</time></trkpt><trkpt lat="45.58590647801887" lon="11.29227935055973"><ele>735.0</ele><time>2026-03-26T16:19:17.997Z</time></trkpt><trkpt lat="45.585932805546264" lon="11.292409066910023"><ele>735.0</ele><time>2026-03-26T16:19:18.997Z</time></trkpt><trkpt lat="45.58598813161978" lon="11.29250098659349"><ele>735.0</ele><time>2026-03-26T16:19:19.997Z</time></trkpt><trkpt lat="45.58605768105478" lon="11.292613547945932"><ele>734.6</ele><time>2026-03-26T16:19:20.997Z</time></trkpt><trkpt lat="45.586165153063135" lon="11.292721050756219"><ele>734.2</ele><time>2026-03-26T16:19:22Z</time></trkpt><trkpt lat="45.58624170045494" lon="11.292780128996966"><ele>733.8</ele><time>2026-03-26T16:19:23Z</time></trkpt><trkpt lat="45.58629558312193" lon="11.29289041407721"><ele>733.4</ele><time>2026-03-26T16:19:24Z</time></trkpt><trkpt lat="45.58632889277243" lon="11.29303998798436"><ele>733.0</ele><time>2026-03-26T16:19:25Z</time></trkpt><trkpt lat="45.58638352998504" lon="11.293160961424489"><ele>730.4</ele><time>2026-03-26T16:19:26Z</time></trkpt><trkpt lat="45.586446934708185" lon="11.293258509671881"><ele>727.8</ele><time>2026-03-26T16:19:27Z</time></trkpt><trkpt lat="45.58653995230264" lon="11.29336222219525"><ele>725.2</ele><time>2026-03-26T16:19:28Z</time></trkpt><trkpt lat="45.58661015068699" lon="11.293443383302836"><ele>722.6</ele><time>2026-03-26T16:19:29Z</time></trkpt><trkpt lat="45.586686199979574" lon="11.293513020640363"><ele>720.0</ele><time>2026-03-26T16:19:30Z</time></trkpt><trkpt lat="45.586758577970244" lon="11.293565409854283"><ele>720.0</ele><time>2026-03-26T16:19:31Z</time></trkpt><trkpt lat="45.586870925318614" lon="11.293595434893689"><ele>720.0</ele><time>2026-03-26T16:19:33Z</time></trkpt><trkpt lat="45.58697917173225" lon="11.29360580743379"><ele>720.0</ele><time>2026-03-26T16:19:34Z</time></trkpt><trkpt lat="45.58708093915154" lon="11.293633009272755"><ele>720.0</ele><time>2026-03-26T16:19:35Z</time></trkpt><trkpt lat="45.58715888325282" lon="11.293618688392334"><ele>720.0</ele><time>2026-03-26T16:19:36Z</time></trkpt><trkpt lat="45.58724703652818" lon="11.29358751930646"><ele>719.8</ele><time>2026-03-26T16:19:37Z</time></trkpt><trkpt lat="45.58730869879691" lon="11.293665665542349"><ele>719.6</ele><time>2026-03-26T16:19:39Z</time></trkpt><trkpt lat="45.58729546606287" lon="11.293828176491813"><ele>719.4000000000001</ele><time>2026-03-26T16:19:41Z</time></trkpt><trkpt lat="45.58728611189767" lon="11.293962082394117"><ele>719.2</ele><time>2026-03-26T16:19:42Z</time></trkpt><trkpt lat="45.5872954606493" lon="11.294117778612582"><ele>719.0</ele><time>2026-03-26T16:19:43Z</time></trkpt><trkpt lat="45.5873320672182" lon="11.29423550071368"><ele>719.0</ele><time>2026-03-26T16:19:44Z</time></trkpt><trkpt lat="45.58738377293328" lon="11.294310259022627"><ele>719.0</ele><time>2026-03-26T16:19:46Z</time></trkpt><trkpt lat="45.58744712861428" lon="11.294522089438459"><ele>719.0</ele><time>2026-03-26T16:19:48Z</time></trkpt><trkpt lat="45.58744756431169" lon="11.294764511543189"><ele>719.0</ele><time>2026-03-26T16:19:49Z</time></trkpt><trkpt lat="45.587455355934374" lon="11.294913996779231"><ele>716.6</ele><time>2026-03-26T16:19:50Z</time></trkpt><trkpt lat="45.58746120799902" lon="11.295004533048486"><ele>714.2</ele><time>2026-03-26T16:19:51Z</time></trkpt><trkpt lat="45.58742174311271" lon="11.29515453210008"><ele>711.8000000000001</ele><time>2026-03-26T16:19:52.999Z</time></trkpt><trkpt lat="45.587362724248585" lon="11.295284213439723"><ele>709.4000000000001</ele><time>2026-03-26T16:19:53.999Z</time></trkpt><trkpt lat="45.587300890768454" lon="11.295427892216138"><ele>707.0</ele><time>2026-03-26T16:19:54.999Z</time></trkpt><trkpt lat="45.58727169417668" lon="11.295548277596984"><ele>705.5</ele><time>2026-03-26T16:19:55.999Z</time></trkpt><trkpt lat="45.587217862771276" lon="11.295661325620463"><ele>704.0</ele><time>2026-03-26T16:19:56.999Z</time></trkpt><trkpt lat="45.58721388448487" lon="11.295770164741871"><ele>702.5</ele><time>2026-03-26T16:19:57.999Z</time></trkpt><trkpt lat="45.58721277121005" lon="11.29590194920174"><ele>701.0</ele><time>2026-03-26T16:19:58.999Z</time></trkpt><trkpt lat="45.58720065171199" lon="11.296016664195486"><ele>699.5</ele><time>2026-03-26T16:19:59.999Z</time></trkpt><trkpt lat="45.58719669985677" lon="11.296116511129426"><ele>698.0</ele><time>2026-03-26T16:20:00.999Z</time></trkpt><trkpt lat="45.587176061341395" lon="11.29620689391968"><ele>698.0</ele><time>2026-03-26T16:20:01.999Z</time></trkpt><trkpt lat="45.58716451082259" lon="11.296301404108217"><ele>698.0</ele><time>2026-03-26T16:20:02.999Z</time></trkpt><trkpt lat="45.58716445834857" lon="11.296410795706597"><ele>698.0</ele><time>2026-03-26T16:20:04.999Z</time></trkpt><trkpt lat="45.5870795403219" lon="11.296359123099535"><ele>698.0</ele><time>2026-03-26T16:20:06.999Z</time></trkpt><trkpt lat="45.5870111437405" lon="11.296257852530509"><ele>698.0</ele><time>2026-03-26T16:20:08.999Z</time></trkpt><trkpt lat="45.58696380148631" lon="11.29618256410177"><ele>698.0</ele><time>2026-03-26T16:20:10.999Z</time></trkpt><trkpt lat="45.586943071874714" lon="11.295997169642687"><ele>696.5</ele><time>2026-03-26T16:20:12.999Z</time></trkpt><trkpt lat="45.58692182035855" lon="11.295905766818905"><ele>695.0</ele><time>2026-03-26T16:20:13.999Z</time></trkpt><trkpt lat="45.58689136333474" lon="11.295817200798655"><ele>693.5</ele><time>2026-03-26T16:20:14.999Z</time></trkpt><trkpt lat="45.58683066658705" lon="11.295713050177886"><ele>692.0</ele><time>2026-03-26T16:20:16.999Z</time></trkpt><trkpt lat="45.58674303505347" lon="11.295668261838577"><ele>690.5</ele><time>2026-03-26T16:20:18.999Z</time></trkpt><trkpt lat="45.58664120949742" lon="11.295595688886829"><ele>689.0</ele><time>2026-03-26T16:20:20.999Z</time></trkpt><trkpt lat="45.586534225159994" lon="11.2955107071421"><ele>689.0</ele><time>2026-03-26T16:20:22.999Z</time></trkpt><trkpt lat="45.58650941694069" lon="11.295357930058037"><ele>689.0</ele><time>2026-03-26T16:20:24.999Z</time></trkpt><trkpt lat="45.586524541318106" lon="11.295252107741334"><ele>689.0</ele><time>2026-03-26T16:20:26.999Z</time></trkpt><trkpt lat="45.58653922283564" lon="11.295118697548666"><ele>689.0</ele><time>2026-03-26T16:20:28.999Z</time></trkpt><trkpt lat="45.58647231508296" lon="11.29510543830456"><ele>689.0</ele><time>2026-03-26T16:20:31.998Z</time></trkpt><trkpt lat="45.586417208463416" lon="11.295161410339043"><ele>689.0</ele><time>2026-03-26T16:20:33.998Z</time></trkpt><trkpt lat="45.586367585041714" lon="11.29528546848713"><ele>689.0</ele><time>2026-03-26T16:20:35.998Z</time></trkpt><trkpt lat="45.5863752613028" lon="11.295398167100691"><ele>689.0</ele><time>2026-03-26T16:20:36.998Z</time></trkpt><trkpt lat="45.586371983917566" lon="11.295494634103015"><ele>689.0</ele><time>2026-03-26T16:20:37.998Z</time></trkpt><trkpt lat="45.58636755089436" lon="11.295674013204874"><ele>689.0</ele><time>2026-03-26T16:20:39.998Z</time></trkpt><trkpt lat="45.5864140110095" lon="11.295824824334607"><ele>689.0</ele><time>2026-03-26T16:20:41.998Z</time></trkpt><trkpt lat="45.58644507256526" lon="11.295910808058018"><ele>688.0</ele><time>2026-03-26T16:20:42.998Z</time></trkpt><trkpt lat="45.58645114342829" lon="11.296023657369357"><ele>687.0</ele><time>2026-03-26T16:20:44.998Z</time></trkpt><trkpt lat="45.58646063268614" lon="11.296159551613256"><ele>686.0</ele><time>2026-03-26T16:20:46.998Z</time></trkpt><trkpt lat="45.586430761763616" lon="11.296059751877177"><ele>685.0</ele><time>2026-03-26T16:21:40Z</time></trkpt><trkpt lat="45.5864394775633" lon="11.295969096550982"><ele>684.0</ele><time>2026-03-26T16:21:41Z</time></trkpt><trkpt lat="45.58642715456271" lon="11.295829744596197"><ele>683.0</ele><time>2026-03-26T16:21:43Z</time></trkpt><trkpt lat="45.586386162893305" lon="11.295684165089794"><ele>684.0</ele><time>2026-03-26T16:21:45Z</time></trkpt><trkpt lat="45.5863659458718" lon="11.29558571210411"><ele>685.0</ele><time>2026-03-26T16:21:46Z</time></trkpt><trkpt lat="45.58637490384893" lon="11.295474886516455"><ele>686.0</ele><time>2026-03-26T16:21:47Z</time></trkpt><trkpt lat="45.586363625346095" lon="11.295380288713801"><ele>687.0</ele><time>2026-03-26T16:21:48Z</time></trkpt><trkpt lat="45.58639336518885" lon="11.295210323729183"><ele>688.0</ele><time>2026-03-26T16:21:50Z</time></trkpt><trkpt lat="45.586467681961935" lon="11.295123261888513"><ele>689.0</ele><time>2026-03-26T16:21:52Z</time></trkpt><trkpt lat="45.58647809650151" lon="11.295453454008381"><ele>689.0</ele><time>2026-03-26T16:21:59Z</time></trkpt><trkpt lat="45.58652347064598" lon="11.295529581013161"><ele>689.0</ele><time>2026-03-26T16:21:59.999Z</time></trkpt><trkpt lat="45.586622065417046" lon="11.295606483718842"><ele>689.0</ele><time>2026-03-26T16:22:01.999Z</time></trkpt><trkpt lat="45.58668330923346" lon="11.295693571831217"><ele>689.0</ele><time>2026-03-26T16:22:02.999Z</time></trkpt><trkpt lat="45.58673825376477" lon="11.295741122415045"><ele>689.0</ele><time>2026-03-26T16:22:03.999Z</time></trkpt><trkpt lat="45.58680819174212" lon="11.295759660165439"><ele>689.0</ele><time>2026-03-26T16:22:04.999Z</time></trkpt><trkpt lat="45.586878580122374" lon="11.295791095209777"><ele>687.8000000000001</ele><time>2026-03-26T16:22:06.999Z</time></trkpt><trkpt lat="45.5869281748902" lon="11.295986266765466"><ele>686.6</ele><time>2026-03-26T16:22:08.999Z</time></trkpt><trkpt lat="45.58694823762433" lon="11.296109944587169"><ele>685.4</ele><time>2026-03-26T16:22:09.999Z</time></trkpt><trkpt lat="45.58696179228763" lon="11.296206164716963"><ele>684.2</ele><time>2026-03-26T16:22:10.999Z</time></trkpt><trkpt lat="45.58701927414206" lon="11.29632282095142"><ele>683.0</ele><time>2026-03-26T16:22:12.999Z</time></trkpt><trkpt lat="45.587170327422704" lon="11.296156110719705"><ele>685.5</ele><time>2026-03-26T16:22:18.999Z</time></trkpt><trkpt lat="45.58718843785241" lon="11.296065774814487"><ele>688.0</ele><time>2026-03-26T16:22:19.999Z</time></trkpt><trkpt lat="45.58720192261707" lon="11.295928813309995"><ele>690.5</ele><time>2026-03-26T16:22:21.999Z</time></trkpt><trkpt lat="45.5872254511002" lon="11.295837296281286"><ele>693.0</ele><time>2026-03-26T16:22:23.999Z</time></trkpt><trkpt lat="45.5872321502386" lon="11.295717811420518"><ele>695.5</ele><time>2026-03-26T16:22:24.999Z</time></trkpt><trkpt lat="45.58723900500496" lon="11.295592095957984"><ele>698.0</ele><time>2026-03-26T16:22:25.999Z</time></trkpt><trkpt lat="45.58726035960291" lon="11.295463302888729"><ele>699.5</ele><time>2026-03-26T16:22:26.999Z</time></trkpt><trkpt lat="45.58730979020153" lon="11.2953480933551"><ele>701.0</ele><time>2026-03-26T16:22:27.999Z</time></trkpt><trkpt lat="45.58734741142912" lon="11.295235306130625"><ele>702.5</ele><time>2026-03-26T16:22:28.999Z</time></trkpt><trkpt lat="45.58738522394889" lon="11.295119507952213"><ele>704.0</ele><time>2026-03-26T16:22:29.999Z</time></trkpt><trkpt lat="45.58743630927735" lon="11.295041257829224"><ele>705.5</ele><time>2026-03-26T16:22:30.999Z</time></trkpt><trkpt lat="45.58743690365104" lon="11.294943354514391"><ele>707.0</ele><time>2026-03-26T16:22:32.999Z</time></trkpt><trkpt lat="45.58740869470845" lon="11.294833035124688"><ele>709.4000000000001</ele><time>2026-03-26T16:22:33.999Z</time></trkpt><trkpt lat="45.58740967094291" lon="11.294705348511911"><ele>711.8000000000001</ele><time>2026-03-26T16:22:34.999Z</time></trkpt><trkpt lat="45.58740328719347" lon="11.294592976204196"><ele>714.2</ele><time>2026-03-26T16:22:35.999Z</time></trkpt><trkpt lat="45.5873809549864" lon="11.294498521758971"><ele>716.6</ele><time>2026-03-26T16:22:36.998Z</time></trkpt><trkpt lat="45.58737754768591" lon="11.29433994025582"><ele>719.0</ele><time>2026-03-26T16:22:38.998Z</time></trkpt><trkpt lat="45.58752039722788" lon="11.294335191107841"><ele>719.0</ele><time>2026-03-26T16:22:47.998Z</time></trkpt><trkpt lat="45.58762028072461" lon="11.294312818966073"><ele>719.0</ele><time>2026-03-26T16:22:49.998Z</time></trkpt><trkpt lat="45.587684384482564" lon="11.294281056525554"><ele>719.0</ele><time>2026-03-26T16:22:50.998Z</time></trkpt><trkpt lat="45.58776900215526" lon="11.294230377612045"><ele>719.0</ele><time>2026-03-26T16:22:51.998Z</time></trkpt><trkpt lat="45.58783278959858" lon="11.294213692489606"><ele>719.0</ele><time>2026-03-26T16:22:52.998Z</time></trkpt><trkpt lat="45.587906192871785" lon="11.294215323526604"><ele>719.0</ele><time>2026-03-26T16:22:53.998Z</time></trkpt><trkpt lat="45.58803291804042" lon="11.294168994864553"><ele>720.4000000000001</ele><time>2026-03-26T16:22:55.998Z</time></trkpt><trkpt lat="45.58809817629689" lon="11.29411016156348"><ele>721.8</ele><time>2026-03-26T16:22:56.998Z</time></trkpt><trkpt lat="45.588159251266426" lon="11.294016942425573"><ele>723.2</ele><time>2026-03-26T16:22:57.998Z</time></trkpt><trkpt lat="45.588206742319045" lon="11.293957429479553"><ele>724.5999999999999</ele><time>2026-03-26T16:22:58.998Z</time></trkpt><trkpt lat="45.588357542891195" lon="11.294107914057493"><ele>726.0</ele><time>2026-03-26T16:23:06.998Z</time></trkpt><trkpt lat="45.588482267090555" lon="11.294124866791334"><ele>726.0</ele><time>2026-03-26T16:23:08.998Z</time></trkpt><trkpt lat="45.58859264225183" lon="11.29411529059815"><ele>726.0</ele><time>2026-03-26T16:23:09.998Z</time></trkpt><trkpt lat="45.58868732039024" lon="11.294089472775582"><ele>726.0</ele><time>2026-03-26T16:23:10.998Z</time></trkpt><trkpt lat="45.588780513744986" lon="11.294026006229565"><ele>726.0</ele><time>2026-03-26T16:23:11.998Z</time></trkpt><trkpt lat="45.58888912258174" lon="11.293972209658266"><ele>726.0</ele><time>2026-03-26T16:23:12.998Z</time></trkpt><trkpt lat="45.5889799936334" lon="11.293912085045791"><ele>726.1666666666666</ele><time>2026-03-26T16:23:13.998Z</time></trkpt><trkpt lat="45.589065099873096" lon="11.293862974005053"><ele>726.3333333333334</ele><time>2026-03-26T16:23:14.997Z</time></trkpt><trkpt lat="45.58913205380787" lon="11.293868858922114"><ele>726.5</ele><time>2026-03-26T16:23:15.997Z</time></trkpt><trkpt lat="45.58922816213108" lon="11.293905743889415"><ele>726.6666666666667</ele><time>2026-03-26T16:23:16.997Z</time></trkpt><trkpt lat="45.589305387879996" lon="11.293947567844636"><ele>726.8333333333334</ele><time>2026-03-26T16:23:17.997Z</time></trkpt><trkpt lat="45.58941092754244" lon="11.293967686412282"><ele>727.0</ele><time>2026-03-26T16:23:18.997Z</time></trkpt><trkpt lat="45.58949294128825" lon="11.294023810248724"><ele>726.5</ele><time>2026-03-26T16:23:19.997Z</time></trkpt><trkpt lat="45.58954407946634" lon="11.294076857574634"><ele>726.0</ele><time>2026-03-26T16:23:20.997Z</time></trkpt><trkpt lat="45.5896096420971" lon="11.294070899603021"><ele>725.5</ele><time>2026-03-26T16:23:21.997Z</time></trkpt><trkpt lat="45.589682670913085" lon="11.294003075377907"><ele>725.0</ele><time>2026-03-26T16:23:22.997Z</time></trkpt><trkpt lat="45.58974859260978" lon="11.294000842591398"><ele>724.5</ele><time>2026-03-26T16:23:23.997Z</time></trkpt><trkpt lat="45.58982081370449" lon="11.293986792126821"><ele>724.0</ele><time>2026-03-26T16:23:24.997Z</time></trkpt><trkpt lat="45.58988438458024" lon="11.293884381873628"><ele>728.25</ele><time>2026-03-26T16:23:25.997Z</time></trkpt><trkpt lat="45.58999294241438" lon="11.293824221058362"><ele>732.5</ele><time>2026-03-26T16:23:26.997Z</time></trkpt><trkpt lat="45.59009929112076" lon="11.293772780395912"><ele>736.75</ele><time>2026-03-26T16:23:27.997Z</time></trkpt><trkpt lat="45.590192920139586" lon="11.293697934966653"><ele>741.0</ele><time>2026-03-26T16:23:28.997Z</time></trkpt><trkpt lat="45.590288287716994" lon="11.293569478019041"><ele>739.5999999999999</ele><time>2026-03-26T16:23:29.997Z</time></trkpt><trkpt lat="45.59041284806254" lon="11.293446540073354"><ele>738.2</ele><time>2026-03-26T16:23:30.997Z</time></trkpt><trkpt lat="45.59051690273861" lon="11.293368292423526"><ele>736.8</ele><time>2026-03-26T16:23:31.997Z</time></trkpt><trkpt lat="45.59059528015893" lon="11.293283955611418"><ele>735.4000000000001</ele><time>2026-03-26T16:23:32.997Z</time></trkpt><trkpt lat="45.590647501982865" lon="11.29320682342561"><ele>734.0</ele><time>2026-03-26T16:23:34Z</time></trkpt><trkpt lat="45.59072993691331" lon="11.293229679563899"><ele>734.0</ele><time>2026-03-26T16:23:36Z</time></trkpt><trkpt lat="45.590760549745916" lon="11.29333294961916"><ele>734.0</ele><time>2026-03-26T16:23:39Z</time></trkpt><trkpt lat="45.59076152418291" lon="11.29352696286357"><ele>734.0</ele><time>2026-03-26T16:23:41Z</time></trkpt><trkpt lat="45.59076881561058" lon="11.293688578149379"><ele>734.0</ele><time>2026-03-26T16:23:42Z</time></trkpt><trkpt lat="45.59076977741809" lon="11.293822571455651"><ele>734.0</ele><time>2026-03-26T16:23:43Z</time></trkpt><trkpt lat="45.590773798459445" lon="11.29394412425852"><ele>732.8000000000001</ele><time>2026-03-26T16:23:44Z</time></trkpt><trkpt lat="45.59079387891357" lon="11.29408729705073"><ele>731.6</ele><time>2026-03-26T16:23:45Z</time></trkpt><trkpt lat="45.5908147321625" lon="11.294249995035829"><ele>730.4</ele><time>2026-03-26T16:23:46Z</time></trkpt><trkpt lat="45.590838519836325" lon="11.294399642464908"><ele>729.2</ele><time>2026-03-26T16:23:47Z</time></trkpt><trkpt lat="45.59090529581801" lon="11.294537142427108"><ele>728.0</ele><time>2026-03-26T16:23:48Z</time></trkpt><trkpt lat="45.590924768613874" lon="11.294632602693124"><ele>728.0</ele><time>2026-03-26T16:23:49Z</time></trkpt><trkpt lat="45.59089452740558" lon="11.294714560514091"><ele>728.0</ele><time>2026-03-26T16:23:51Z</time></trkpt><trkpt lat="45.59087405099443" lon="11.294471752394864"><ele>728.0</ele><time>2026-03-26T16:24:05Z</time></trkpt><trkpt lat="45.59082793963791" lon="11.294360094592104"><ele>728.0</ele><time>2026-03-26T16:24:05.999Z</time></trkpt><trkpt lat="45.59082257122522" lon="11.294246105490304"><ele>728.0</ele><time>2026-03-26T16:24:06.999Z</time></trkpt><trkpt lat="45.59081659888785" lon="11.294099734582577"><ele>728.0</ele><time>2026-03-26T16:24:07.999Z</time></trkpt><trkpt lat="45.59079113090044" lon="11.293960371783848"><ele>728.0</ele><time>2026-03-26T16:24:08.999Z</time></trkpt><trkpt lat="45.59077505199475" lon="11.293777302656933"><ele>728.0</ele><time>2026-03-26T16:24:09.999Z</time></trkpt><trkpt lat="45.590779707333" lon="11.293638596861614"><ele>728.0</ele><time>2026-03-26T16:24:10.999Z</time></trkpt><trkpt lat="45.590780601025855" lon="11.293515333563766"><ele>728.0</ele><time>2026-03-26T16:24:11.999Z</time></trkpt><trkpt lat="45.590759956236965" lon="11.293361163475636"><ele>729.2</ele><time>2026-03-26T16:24:13.999Z</time></trkpt><trkpt lat="45.5907703585182" lon="11.293260099416754"><ele>730.4</ele><time>2026-03-26T16:24:15.999Z</time></trkpt><trkpt lat="45.59085317714416" lon="11.293213307640599"><ele>731.6</ele><time>2026-03-26T16:24:18.999Z</time></trkpt><trkpt lat="45.59095200766701" lon="11.293118005560968"><ele>732.8000000000001</ele><time>2026-03-26T16:24:20.999Z</time></trkpt><trkpt lat="45.59097899765146" lon="11.292991728639766"><ele>734.0</ele><time>2026-03-26T16:24:23.999Z</time></trkpt><trkpt lat="45.59104805562557" lon="11.292888191821739"><ele>736.6</ele><time>2026-03-26T16:24:25.999Z</time></trkpt><trkpt lat="45.59112340026756" lon="11.29286516871938"><ele>739.2</ele><time>2026-03-26T16:24:26.999Z</time></trkpt><trkpt lat="45.59127910411665" lon="11.2927861602371"><ele>741.8000000000001</ele><time>2026-03-26T16:24:30.999Z</time></trkpt><trkpt lat="45.59134555115678" lon="11.292731233996028"><ele>744.4000000000001</ele><time>2026-03-26T16:24:49.998Z</time></trkpt><trkpt lat="45.59140458543773" lon="11.292694280371274"><ele>747.0</ele><time>2026-03-26T16:24:51.998Z</time></trkpt><trkpt lat="45.59146072574919" lon="11.292770114929986"><ele>747.0</ele><time>2026-03-26T16:25:44Z</time></trkpt><trkpt lat="45.59137375373638" lon="11.292803460474383"><ele>747.0</ele><time>2026-03-26T16:26:02Z</time></trkpt><trkpt lat="45.59129484772633" lon="11.29282175923266"><ele>747.0</ele><time>2026-03-26T16:26:04Z</time></trkpt><trkpt lat="45.591195013082725" lon="11.292879785662022"><ele>747.0</ele><time>2026-03-26T16:26:07Z</time></trkpt><trkpt lat="45.59111927470455" lon="11.29293293630185"><ele>747.0</ele><time>2026-03-26T16:26:10Z</time></trkpt><trkpt lat="45.59105635815625" lon="11.292988853444394"><ele>747.0</ele><time>2026-03-26T16:26:11.999Z</time></trkpt><trkpt lat="45.59097898845119" lon="11.293039643082356"><ele>744.4000000000001</ele><time>2026-03-26T16:26:14.999Z</time></trkpt><trkpt lat="45.59090164517082" lon="11.293177264951128"><ele>741.8000000000001</ele><time>2026-03-26T16:26:16.999Z</time></trkpt><trkpt lat="45.590814735178206" lon="11.293190838395498"><ele>739.2</ele><time>2026-03-26T16:26:18.999Z</time></trkpt><trkpt lat="45.59078183601491" lon="11.293336429969044"><ele>736.6</ele><time>2026-03-26T16:26:22.999Z</time></trkpt><trkpt lat="45.59078352495082" lon="11.293516085663104"><ele>734.0</ele><time>2026-03-26T16:26:23.999Z</time></trkpt><trkpt lat="45.59078936761102" lon="11.293699719161285"><ele>734.0</ele><time>2026-03-26T16:26:24.999Z</time></trkpt><trkpt lat="45.59080166065184" lon="11.293858454559226"><ele>734.0</ele><time>2026-03-26T16:26:25.999Z</time></trkpt><trkpt lat="45.59080173481146" lon="11.294017777362262"><ele>734.0</ele><time>2026-03-26T16:26:26.999Z</time></trkpt><trkpt lat="45.59081673365205" lon="11.294171181345503"><ele>734.0</ele><time>2026-03-26T16:26:27.999Z</time></trkpt><trkpt lat="45.590829040760724" lon="11.29432299840335"><ele>734.0</ele><time>2026-03-26T16:26:28.999Z</time></trkpt><trkpt lat="45.59086015315416" lon="11.294474307679785"><ele>732.8000000000001</ele><time>2026-03-26T16:26:29.999Z</time></trkpt><trkpt lat="45.59089793657101" lon="11.294612580694672"><ele>731.6</ele><time>2026-03-26T16:26:30.999Z</time></trkpt><trkpt lat="45.59093575569064" lon="11.294741244702243"><ele>730.4</ele><time>2026-03-26T16:26:31.999Z</time></trkpt><trkpt lat="45.59098849419946" lon="11.29487112550878"><ele>729.2</ele><time>2026-03-26T16:26:32.999Z</time></trkpt><trkpt lat="45.59104076022122" lon="11.29501492676261"><ele>728.0</ele><time>2026-03-26T16:26:33.999Z</time></trkpt><trkpt lat="45.59107321838952" lon="11.295108185100434"><ele>726.5</ele><time>2026-03-26T16:26:34.999Z</time></trkpt><trkpt lat="45.59115056238744" lon="11.29524200865285"><ele>725.0</ele><time>2026-03-26T16:26:36.999Z</time></trkpt><trkpt lat="45.59124151616493" lon="11.295311128916259"><ele>723.5</ele><time>2026-03-26T16:26:37.999Z</time></trkpt><trkpt lat="45.59134451477817" lon="11.295349254258477"><ele>722.0</ele><time>2026-03-26T16:26:38.999Z</time></trkpt><trkpt lat="45.59145941737192" lon="11.295392865554959"><ele>722.4000000000001</ele><time>2026-03-26T16:26:39.999Z</time></trkpt><trkpt lat="45.59159616657617" lon="11.29542336172825"><ele>722.8000000000001</ele><time>2026-03-26T16:26:40.999Z</time></trkpt><trkpt lat="45.591706157540656" lon="11.295487080607156"><ele>723.2</ele><time>2026-03-26T16:26:41.999Z</time></trkpt><trkpt lat="45.591796007987696" lon="11.295558017924744"><ele>723.6</ele><time>2026-03-26T16:26:42.999Z</time></trkpt><trkpt lat="45.59186173022778" lon="11.295642331325123"><ele>724.0</ele><time>2026-03-26T16:26:43.999Z</time></trkpt><trkpt lat="45.591937304887814" lon="11.295655520757265"><ele>724.0</ele><time>2026-03-26T16:26:44.999Z</time></trkpt><trkpt lat="45.59199237460258" lon="11.295713577455784"><ele>724.0</ele><time>2026-03-26T16:26:45.999Z</time></trkpt><trkpt lat="45.592046485485035" lon="11.295814331700866"><ele>724.0</ele><time>2026-03-26T16:26:46.999Z</time></trkpt><trkpt lat="45.59207201095193" lon="11.295942883463857"><ele>724.0</ele><time>2026-03-26T16:26:47.998Z</time></trkpt><trkpt lat="45.592103090658384" lon="11.29604157759018"><ele>724.0</ele><time>2026-03-26T16:26:48.998Z</time></trkpt><trkpt lat="45.592150648433844" lon="11.296109417151964"><ele>724.0</ele><time>2026-03-26T16:26:49.998Z</time></trkpt><trkpt lat="45.59220995046666" lon="11.29616257897487"><ele>724.0</ele><time>2026-03-26T16:26:52.998Z</time></trkpt><trkpt lat="45.59230410415944" lon="11.296113328643418"><ele>724.0</ele><time>2026-03-26T16:26:54.998Z</time></trkpt><trkpt lat="45.59237528728676" lon="11.296060308153411"><ele>724.0</ele><time>2026-03-26T16:26:55.998Z</time></trkpt><trkpt lat="45.592469670488626" lon="11.296025073913007"><ele>724.0</ele><time>2026-03-26T16:26:56.998Z</time></trkpt><trkpt lat="45.59256097955828" lon="11.29600496547664"><ele>724.0</ele><time>2026-03-26T16:26:57.998Z</time></trkpt><trkpt lat="45.59263677943988" lon="11.296016134528983"><ele>724.0</ele><time>2026-03-26T16:26:58.998Z</time></trkpt><trkpt lat="45.592721988494354" lon="11.296047804941683"><ele>724.0</ele><time>2026-03-26T16:27:00.998Z</time></trkpt><trkpt lat="45.59277891124963" lon="11.29616333924315"><ele>724.0</ele><time>2026-03-26T16:27:02.998Z</time></trkpt><trkpt lat="45.592785645769276" lon="11.296298965798746"><ele>724.0</ele><time>2026-03-26T16:27:03.998Z</time></trkpt><trkpt lat="45.59278441280226" lon="11.296452902823798"><ele>724.0</ele><time>2026-03-26T16:27:04.998Z</time></trkpt><trkpt lat="45.592797241926476" lon="11.296555784018167"><ele>724.0</ele><time>2026-03-26T16:27:05.998Z</time></trkpt><trkpt lat="45.59280401137031" lon="11.296652232787316"><ele>724.0</ele><time>2026-03-26T16:27:06.998Z</time></trkpt><trkpt lat="45.592802390019735" lon="11.296815820209504"><ele>721.25</ele><time>2026-03-26T16:27:07.998Z</time></trkpt><trkpt lat="45.59278605636099" lon="11.296994968895289"><ele>718.5</ele><time>2026-03-26T16:27:08.998Z</time></trkpt><trkpt lat="45.59277420801587" lon="11.297179488012553"><ele>715.75</ele><time>2026-03-26T16:27:09.998Z</time></trkpt><trkpt lat="45.592754327322126" lon="11.29736684783721"><ele>713.0</ele><time>2026-03-26T16:27:10.998Z</time></trkpt><trkpt lat="45.59275086418686" lon="11.297497569869533"><ele>711.5</ele><time>2026-03-26T16:27:11.998Z</time></trkpt><trkpt lat="45.5927470993821" lon="11.297622902301393"><ele>710.0</ele><time>2026-03-26T16:27:12.998Z</time></trkpt><trkpt lat="45.59278425564083" lon="11.297764278989762"><ele>708.5</ele><time>2026-03-26T16:27:13.998Z</time></trkpt><trkpt lat="45.592834437829744" lon="11.297872260898554"><ele>707.0</ele><time>2026-03-26T16:27:14.998Z</time></trkpt><trkpt lat="45.59289094445206" lon="11.297956122511144"><ele>705.5</ele><time>2026-03-26T16:27:15.998Z</time></trkpt><trkpt lat="45.59294807824473" lon="11.29801229894758"><ele>704.0</ele><time>2026-03-26T16:27:16.998Z</time></trkpt><trkpt lat="45.59299977876959" lon="11.298067443326326"><ele>702.3333333333333</ele><time>2026-03-26T16:27:17.998Z</time></trkpt><trkpt lat="45.59302189392726" lon="11.298162417613305"><ele>700.6666666666666</ele><time>2026-03-26T16:27:18.998Z</time></trkpt><trkpt lat="45.59307757745271" lon="11.29821479828163"><ele>699.0</ele><time>2026-03-26T16:27:19.998Z</time></trkpt><trkpt lat="45.59313206611016" lon="11.298314668960804"><ele>697.3333333333334</ele><time>2026-03-26T16:27:21.998Z</time></trkpt><trkpt lat="45.59312722623771" lon="11.29844677999379"><ele>695.6666666666667</ele><time>2026-03-26T16:27:22.998Z</time></trkpt><trkpt lat="45.59318488026032" lon="11.298573724289477"><ele>694.0</ele><time>2026-03-26T16:27:24.998Z</time></trkpt><trkpt lat="45.59318872127479" lon="11.298748472024268"><ele>694.0</ele><time>2026-03-26T16:27:26.997Z</time></trkpt><trkpt lat="45.59320331308668" lon="11.298860619447762"><ele>694.0</ele><time>2026-03-26T16:27:27.997Z</time></trkpt><trkpt lat="45.59319749520581" lon="11.298990002774737"><ele>694.0</ele><time>2026-03-26T16:27:28.997Z</time></trkpt><trkpt lat="45.59318049490059" lon="11.299102091571399"><ele>694.0</ele><time>2026-03-26T16:27:29.997Z</time></trkpt><trkpt lat="45.593177202054825" lon="11.299223328728091"><ele>694.0</ele><time>2026-03-26T16:27:30.997Z</time></trkpt><trkpt lat="45.59318382689999" lon="11.299328132670572"><ele>694.0</ele><time>2026-03-26T16:27:31.997Z</time></trkpt><trkpt lat="45.59319824147276" lon="11.299466328528245"><ele>692.75</ele><time>2026-03-26T16:27:32.997Z</time></trkpt><trkpt lat="45.59322830814925" lon="11.299630366763527"><ele>691.5</ele><time>2026-03-26T16:27:33.997Z</time></trkpt><trkpt lat="45.59326634592683" lon="11.299813263090343"><ele>690.25</ele><time>2026-03-26T16:27:34.997Z</time></trkpt><trkpt lat="45.59330841395214" lon="11.299968512619474"><ele>689.0</ele><time>2026-03-26T16:27:35.997Z</time></trkpt><trkpt lat="45.593349844132284" lon="11.300130634715265"><ele>688.4000000000001</ele><time>2026-03-26T16:27:36.997Z</time></trkpt><trkpt lat="45.59339308526882" lon="11.300276920265103"><ele>687.8</ele><time>2026-03-26T16:27:37.997Z</time></trkpt><trkpt lat="45.593442253210895" lon="11.300404704350491"><ele>687.2</ele><time>2026-03-26T16:27:38.997Z</time></trkpt><trkpt lat="45.593494260173465" lon="11.300505896216242"><ele>686.5999999999999</ele><time>2026-03-26T16:27:39.997Z</time></trkpt><trkpt lat="45.59357276517322" lon="11.300586877652389"><ele>686.0</ele><time>2026-03-26T16:27:40.997Z</time></trkpt><trkpt lat="45.59366404063976" lon="11.300661776967136"><ele>683.5999999999999</ele><time>2026-03-26T16:27:41.997Z</time></trkpt><trkpt lat="45.593762053827135" lon="11.300694700767968"><ele>681.2</ele><time>2026-03-26T16:27:42.997Z</time></trkpt><trkpt lat="45.59383693805837" lon="11.3007569701882"><ele>678.8</ele><time>2026-03-26T16:27:43.997Z</time></trkpt><trkpt lat="45.59389252859797" lon="11.300839791358198"><ele>676.4000000000001</ele><time>2026-03-26T16:27:44.997Z</time></trkpt><trkpt lat="45.59396010861418" lon="11.300937247195966"><ele>674.0</ele><time>2026-03-26T16:27:46Z</time></trkpt><trkpt lat="45.594036604544534" lon="11.301032523386256"><ele>674.0</ele><time>2026-03-26T16:27:47Z</time></trkpt><trkpt lat="45.594094220259436" lon="11.301143314964436"><ele>674.0</ele><time>2026-03-26T16:27:48Z</time></trkpt><trkpt lat="45.594170049867934" lon="11.301265062359839"><ele>674.0</ele><time>2026-03-26T16:27:49Z</time></trkpt><trkpt lat="45.59425309637708" lon="11.301373627316462"><ele>674.0</ele><time>2026-03-26T16:27:50Z</time></trkpt><trkpt lat="45.594351197856774" lon="11.301457503856362"><ele>674.0</ele><time>2026-03-26T16:27:51Z</time></trkpt><trkpt lat="45.59443251681193" lon="11.301525507614251"><ele>670.4000000000001</ele><time>2026-03-26T16:27:52Z</time></trkpt><trkpt lat="45.59451551955207" lon="11.301588469017444"><ele>666.8</ele><time>2026-03-26T16:27:53Z</time></trkpt><trkpt lat="45.594596605580186" lon="11.301649599011954"><ele>663.2</ele><time>2026-03-26T16:27:54Z</time></trkpt><trkpt lat="45.59469693572003" lon="11.301732106697328"><ele>659.5999999999999</ele><time>2026-03-26T16:27:55Z</time></trkpt><trkpt lat="45.594788769932855" lon="11.301799610941739"><ele>656.0</ele><time>2026-03-26T16:27:56Z</time></trkpt><trkpt lat="45.59485635911733" lon="11.301873451834519"><ele>656.0</ele><time>2026-03-26T16:27:57Z</time></trkpt><trkpt lat="45.59492404292114" lon="11.301933534657838"><ele>656.0</ele><time>2026-03-26T16:27:58Z</time></trkpt><trkpt lat="45.59498362434268" lon="11.301993322511743"><ele>656.0</ele><time>2026-03-26T16:27:59Z</time></trkpt><trkpt lat="45.595038259947096" lon="11.30210768306075"><ele>656.0</ele><time>2026-03-26T16:28:00Z</time></trkpt><trkpt lat="45.59510117613308" lon="11.302243956389152"><ele>656.0</ele><time>2026-03-26T16:28:01Z</time></trkpt><trkpt lat="45.5951571402435" lon="11.302363396716506"><ele>655.5</ele><time>2026-03-26T16:28:02Z</time></trkpt><trkpt lat="45.59519085371975" lon="11.302504461773106"><ele>655.0</ele><time>2026-03-26T16:28:03Z</time></trkpt><trkpt lat="45.59523559422666" lon="11.302571548996482"><ele>654.5</ele><time>2026-03-26T16:28:04Z</time></trkpt><trkpt lat="45.59529983479233" lon="11.302645713304434"><ele>654.0</ele><time>2026-03-26T16:28:05Z</time></trkpt><trkpt lat="45.59537691202975" lon="11.302760073704823"><ele>653.5</ele><time>2026-03-26T16:28:07Z</time></trkpt><trkpt lat="45.59541717391386" lon="11.302867501709569"><ele>653.0</ele><time>2026-03-26T16:28:09Z</time></trkpt><trkpt lat="45.595364879973815" lon="11.302957451938536"><ele>653.0</ele><time>2026-03-26T16:28:11Z</time></trkpt><trkpt lat="45.595272382202936" lon="11.302952582334449"><ele>653.0</ele><time>2026-03-26T16:28:13Z</time></trkpt><trkpt lat="45.59523496213816" lon="11.303045583754429"><ele>653.0</ele><time>2026-03-26T16:28:15Z</time></trkpt><trkpt lat="45.595341327465846" lon="11.303182791689474"><ele>653.0</ele><time>2026-03-26T16:28:17Z</time></trkpt><trkpt lat="45.59541128059187" lon="11.303214683861077"><ele>653.0</ele><time>2026-03-26T16:28:17.999Z</time></trkpt><trkpt lat="45.59547755936779" lon="11.30322199725536"><ele>647.8333333333333</ele><time>2026-03-26T16:28:18.999Z</time></trkpt><trkpt lat="45.59555697403461" lon="11.303231023775297"><ele>642.6666666666666</ele><time>2026-03-26T16:28:19.999Z</time></trkpt><trkpt lat="45.59562461556561" lon="11.303264320584674"><ele>637.5</ele><time>2026-03-26T16:28:20.999Z</time></trkpt><trkpt lat="45.59574040134288" lon="11.30328504131371"><ele>632.3333333333334</ele><time>2026-03-26T16:28:22.999Z</time></trkpt><trkpt lat="45.59581724901484" lon="11.303388671404598"><ele>627.1666666666667</ele><time>2026-03-26T16:28:24.999Z</time></trkpt><trkpt lat="45.59586870012187" lon="11.303459481377976"><ele>622.0</ele><time>2026-03-26T16:28:25.999Z</time></trkpt><trkpt lat="45.595904249564754" lon="11.303547687168521"><ele>622.0</ele><time>2026-03-26T16:28:26.999Z</time></trkpt><trkpt lat="45.59589356389118" lon="11.303671387174226"><ele>622.0</ele><time>2026-03-26T16:28:27.999Z</time></trkpt><trkpt lat="45.595920502405505" lon="11.303792189391036"><ele>622.0</ele><time>2026-03-26T16:28:28.999Z</time></trkpt><trkpt lat="45.5959654226874" lon="11.303900026507508"><ele>622.0</ele><time>2026-03-26T16:28:29.999Z</time></trkpt><trkpt lat="45.5959654825849" lon="11.304039577502504"><ele>622.0</ele><time>2026-03-26T16:28:30.999Z</time></trkpt><trkpt lat="45.59599592464928" lon="11.304157750540556"><ele>622.0</ele><time>2026-03-26T16:28:31.999Z</time></trkpt><trkpt lat="45.59601172997085" lon="11.3042746719863"><ele>620.6</ele><time>2026-03-26T16:28:32.999Z</time></trkpt><trkpt lat="45.596032994705894" lon="11.304378921942703"><ele>619.2</ele><time>2026-03-26T16:28:33.999Z</time></trkpt><trkpt lat="45.59605440723429" lon="11.304503054266537"><ele>617.8</ele><time>2026-03-26T16:28:34.999Z</time></trkpt><trkpt lat="45.59606090838678" lon="11.304654484327674"><ele>616.4</ele><time>2026-03-26T16:28:35.999Z</time></trkpt><trkpt lat="45.596069813521076" lon="11.304807127677178"><ele>615.0</ele><time>2026-03-26T16:28:36.999Z</time></trkpt><trkpt lat="45.5960650143672" lon="11.304971591164483"><ele>614.0</ele><time>2026-03-26T16:28:37.999Z</time></trkpt><trkpt lat="45.59599332678117" lon="11.305108056317708"><ele>613.0</ele><time>2026-03-26T16:28:38.999Z</time></trkpt><trkpt lat="45.59593849809322" lon="11.305241142780236"><ele>612.0</ele><time>2026-03-26T16:28:39.999Z</time></trkpt><trkpt lat="45.59588403281093" lon="11.305359504200991"><ele>611.0</ele><time>2026-03-26T16:28:40.999Z</time></trkpt><trkpt lat="45.595824737401244" lon="11.30545930284894"><ele>610.0</ele><time>2026-03-26T16:28:41.999Z</time></trkpt><trkpt lat="45.595773749702154" lon="11.305565362216202"><ele>609.0</ele><time>2026-03-26T16:28:42.999Z</time></trkpt><trkpt lat="45.595740414839355" lon="11.305664144516538"><ele>608.0</ele><time>2026-03-26T16:28:43.999Z</time></trkpt><trkpt lat="45.59573301390231" lon="11.30579602187557"><ele>607.0</ele><time>2026-03-26T16:28:44.999Z</time></trkpt><trkpt lat="45.595706671688944" lon="11.305941398940506"><ele>606.0</ele><time>2026-03-26T16:28:45.999Z</time></trkpt><trkpt lat="45.595694642832605" lon="11.306120110010921"><ele>605.0</ele><time>2026-03-26T16:28:46.999Z</time></trkpt><trkpt lat="45.595697783802414" lon="11.306282960061255"><ele>604.75</ele><time>2026-03-26T16:28:47.999Z</time></trkpt><trkpt lat="45.59573277255874" lon="11.306446077697768"><ele>604.5</ele><time>2026-03-26T16:28:48.999Z</time></trkpt><trkpt lat="45.59576561891358" lon="11.30662789313555"><ele>604.25</ele><time>2026-03-26T16:28:49.999Z</time></trkpt><trkpt lat="45.595774113855356" lon="11.306800090359138"><ele>604.0</ele><time>2026-03-26T16:28:50.999Z</time></trkpt><trkpt lat="45.59579291974476" lon="11.306957824271613"><ele>604.0</ele><time>2026-03-26T16:28:51.999Z</time></trkpt><trkpt lat="45.59580661210139" lon="11.307106212200807"><ele>604.0</ele><time>2026-03-26T16:28:52.999Z</time></trkpt><trkpt lat="45.595814048907705" lon="11.307252021512062"><ele>604.0</ele><time>2026-03-26T16:28:53.999Z</time></trkpt><trkpt lat="45.595817083757034" lon="11.307409782394853"><ele>604.0</ele><time>2026-03-26T16:28:54.998Z</time></trkpt><trkpt lat="45.59583310050511" lon="11.307563225139033"><ele>604.0</ele><time>2026-03-26T16:28:55.998Z</time></trkpt><trkpt lat="45.5958032583258" lon="11.307708458773002"><ele>602.6</ele><time>2026-03-26T16:28:56.998Z</time></trkpt><trkpt lat="45.59579666787337" lon="11.307860638699644"><ele>601.2</ele><time>2026-03-26T16:28:57.998Z</time></trkpt><trkpt lat="45.59580984299627" lon="11.308005061722852"><ele>599.8000000000001</ele><time>2026-03-26T16:28:58.998Z</time></trkpt><trkpt lat="45.59583025101236" lon="11.308153615113449"><ele>598.4</ele><time>2026-03-26T16:28:59.998Z</time></trkpt><trkpt lat="45.595830920516626" lon="11.308257132256927"><ele>597.0</ele><time>2026-03-26T16:29:00.998Z</time></trkpt><trkpt lat="45.595785784820414" lon="11.308429475481313"><ele>595.8000000000001</ele><time>2026-03-26T16:29:02.998Z</time></trkpt><trkpt lat="45.59570539309674" lon="11.308503771828134"><ele>594.6</ele><time>2026-03-26T16:29:03.998Z</time></trkpt><trkpt lat="45.59559969454673" lon="11.30848726625402"><ele>593.4000000000001</ele><time>2026-03-26T16:29:04.998Z</time></trkpt><trkpt lat="45.59551627679872" lon="11.308538524169217"><ele>592.2</ele><time>2026-03-26T16:29:05.998Z</time></trkpt><trkpt lat="45.5954266339564" lon="11.308659809531955"><ele>591.0</ele><time>2026-03-26T16:29:06.998Z</time></trkpt><trkpt lat="45.59534017366222" lon="11.308834125646747"><ele>583.3333333333334</ele><time>2026-03-26T16:29:07.998Z</time></trkpt><trkpt lat="45.595236050424255" lon="11.309029013082426"><ele>575.6666666666667</ele><time>2026-03-26T16:29:08.998Z</time></trkpt><trkpt lat="45.59510508794699" lon="11.309264458341206"><ele>568.0</ele><time>2026-03-26T16:29:09.998Z</time></trkpt><trkpt lat="45.59498387582963" lon="11.309492014753818"><ele>568.0</ele><time>2026-03-26T16:29:10.998Z</time></trkpt><trkpt lat="45.59488472254504" lon="11.309722926008789"><ele>568.0</ele><time>2026-03-26T16:29:11.998Z</time></trkpt><trkpt lat="45.594833931844164" lon="11.309913992643633"><ele>568.0</ele><time>2026-03-26T16:29:12.998Z</time></trkpt><trkpt lat="45.59476976455488" lon="11.31008010711274"><ele>566.5</ele><time>2026-03-26T16:29:13.998Z</time></trkpt><trkpt lat="45.59469875821101" lon="11.310256235510689"><ele>565.0</ele><time>2026-03-26T16:29:14.998Z</time></trkpt><trkpt lat="45.59462449889505" lon="11.310417995911164"><ele>563.5</ele><time>2026-03-26T16:29:15.998Z</time></trkpt><trkpt lat="45.59453423267271" lon="11.310572963471614"><ele>562.0</ele><time>2026-03-26T16:29:16.998Z</time></trkpt><trkpt lat="45.59443733288442" lon="11.310731839363566"><ele>560.5</ele><time>2026-03-26T16:29:17.998Z</time></trkpt><trkpt lat="45.594338051988395" lon="11.310897898445257"><ele>559.0</ele><time>2026-03-26T16:29:18.998Z</time></trkpt><trkpt lat="45.594257234622425" lon="11.311054966837073"><ele>557.5</ele><time>2026-03-26T16:29:19.998Z</time></trkpt><trkpt lat="45.594193598048" lon="11.311203891824139"><ele>556.0</ele><time>2026-03-26T16:29:20.998Z</time></trkpt><trkpt lat="45.59415021830992" lon="11.311323635664445"><ele>554.5</ele><time>2026-03-26T16:29:21.998Z</time></trkpt><trkpt lat="45.594104115054165" lon="11.311447177867453"><ele>553.0</ele><time>2026-03-26T16:29:22.998Z</time></trkpt><trkpt lat="45.59404375437796" lon="11.311568656284766"><ele>551.5</ele><time>2026-03-26T16:29:23.998Z</time></trkpt><trkpt lat="45.59396286844672" lon="11.311698477136353"><ele>550.0</ele><time>2026-03-26T16:29:24.998Z</time></trkpt><trkpt lat="45.59387843153997" lon="11.31183578131263"><ele>550.0</ele><time>2026-03-26T16:29:25.998Z</time></trkpt><trkpt lat="45.59380108848387" lon="11.311961555440032"><ele>550.0</ele><time>2026-03-26T16:29:26.998Z</time></trkpt><trkpt lat="45.593725451018244" lon="11.312095762531994"><ele>550.0</ele><time>2026-03-26T16:29:27.998Z</time></trkpt><trkpt lat="45.593656521930825" lon="11.312231448808808"><ele>550.0</ele><time>2026-03-26T16:29:28.998Z</time></trkpt><trkpt lat="45.59355314532039" lon="11.312320028102842"><ele>545.0</ele><time>2026-03-26T16:29:29.998Z</time></trkpt><trkpt lat="45.59341709787995" lon="11.312410900396"><ele>540.0</ele><time>2026-03-26T16:29:30.998Z</time></trkpt><trkpt lat="45.59328163144038" lon="11.312551072945269"><ele>535.0</ele><time>2026-03-26T16:29:31.997Z</time></trkpt><trkpt lat="45.59315922520661" lon="11.312677822511976"><ele>535.0</ele><time>2026-03-26T16:29:32.997Z</time></trkpt><trkpt lat="45.59307370248698" lon="11.312800900823861"><ele>535.0</ele><time>2026-03-26T16:29:33.997Z</time></trkpt><trkpt lat="45.592988054833576" lon="11.312869434052196"><ele>535.0</ele><time>2026-03-26T16:29:34.997Z</time></trkpt><trkpt lat="45.592906173744566" lon="11.312930412098082"><ele>535.0</ele><time>2026-03-26T16:29:35.997Z</time></trkpt><trkpt lat="45.59280446994861" lon="11.312931426493492"><ele>535.0</ele><time>2026-03-26T16:29:36.997Z</time></trkpt><trkpt lat="45.592677997610615" lon="11.312927392142392"><ele>533.75</ele><time>2026-03-26T16:29:37.997Z</time></trkpt><trkpt lat="45.59252619235877" lon="11.312889833637659"><ele>532.5</ele><time>2026-03-26T16:29:38.997Z</time></trkpt><trkpt lat="45.59238500527059" lon="11.312867668193407"><ele>531.25</ele><time>2026-03-26T16:29:39.997Z</time></trkpt><trkpt lat="45.59227195681497" lon="11.312892157586866"><ele>530.0</ele><time>2026-03-26T16:29:40.997Z</time></trkpt><trkpt lat="45.59215259114867" lon="11.312949599484869"><ele>528.6666666666666</ele><time>2026-03-26T16:29:41.997Z</time></trkpt><trkpt lat="45.592043621321324" lon="11.313105546225195"><ele>527.3333333333334</ele><time>2026-03-26T16:29:42.997Z</time></trkpt><trkpt lat="45.591933041415075" lon="11.313281869801152"><ele>526.0</ele><time>2026-03-26T16:29:43.997Z</time></trkpt><trkpt lat="45.591822926927954" lon="11.313441555485017"><ele>526.0</ele><time>2026-03-26T16:29:44.997Z</time></trkpt><trkpt lat="45.59176287812692" lon="11.313616864359384"><ele>526.0</ele><time>2026-03-26T16:29:45.997Z</time></trkpt><trkpt lat="45.591708637658705" lon="11.313800825888348"><ele>526.0</ele><time>2026-03-26T16:29:46.997Z</time></trkpt><trkpt lat="45.59166853124595" lon="11.314024362660943"><ele>526.0</ele><time>2026-03-26T16:29:47.997Z</time></trkpt><trkpt lat="45.59163662251756" lon="11.314268302131188"><ele>525.0</ele><time>2026-03-26T16:29:48.997Z</time></trkpt><trkpt lat="45.59160454280585" lon="11.314509225426622"><ele>524.0</ele><time>2026-03-26T16:29:49.997Z</time></trkpt><trkpt lat="45.59156575900983" lon="11.314743009664308"><ele>523.0</ele><time>2026-03-26T16:29:50.997Z</time></trkpt><trkpt lat="45.591491831252405" lon="11.31496384453734"><ele>522.3333333333334</ele><time>2026-03-26T16:29:52Z</time></trkpt><trkpt lat="45.59143315359767" lon="11.315187845786637"><ele>521.6666666666666</ele><time>2026-03-26T16:29:53Z</time></trkpt><trkpt lat="45.59138256256416" lon="11.315426276807974"><ele>521.0</ele><time>2026-03-26T16:29:54Z</time></trkpt><trkpt lat="45.591329302217694" lon="11.315664476873645"><ele>521.0</ele><time>2026-03-26T16:29:55Z</time></trkpt><trkpt lat="45.59125278466832" lon="11.31589842324189"><ele>521.0</ele><time>2026-03-26T16:29:56Z</time></trkpt><trkpt lat="45.59120161131503" lon="11.316133300805474"><ele>521.0</ele><time>2026-03-26T16:29:57Z</time></trkpt><trkpt lat="45.59117829166099" lon="11.316322040077791"><ele>519.0</ele><time>2026-03-26T16:29:58Z</time></trkpt><trkpt lat="45.591149209909894" lon="11.316508777319775"><ele>517.0</ele><time>2026-03-26T16:29:59Z</time></trkpt><trkpt lat="45.591119756816774" lon="11.31671391958665"><ele>515.0</ele><time>2026-03-26T16:30:00Z</time></trkpt><trkpt lat="45.591115556203164" lon="11.316905863708579"><ele>513.0</ele><time>2026-03-26T16:30:01Z</time></trkpt><trkpt lat="45.59113556902752" lon="11.317096974169365"><ele>513.25</ele><time>2026-03-26T16:30:02Z</time></trkpt><trkpt lat="45.591143133799285" lon="11.317299295358804"><ele>513.5</ele><time>2026-03-26T16:30:03Z</time></trkpt><trkpt lat="45.59116177221015" lon="11.317507799777777"><ele>513.75</ele><time>2026-03-26T16:30:04Z</time></trkpt><trkpt lat="45.591186604304625" lon="11.317720786611266"><ele>514.0</ele><time>2026-03-26T16:30:05Z</time></trkpt><trkpt lat="45.59119247898928" lon="11.317914691903942"><ele>513.25</ele><time>2026-03-26T16:30:06Z</time></trkpt><trkpt lat="45.591195303234905" lon="11.318091527289294"><ele>512.5</ele><time>2026-03-26T16:30:07Z</time></trkpt><trkpt lat="45.59118861301274" lon="11.318278538754226"><ele>511.75</ele><time>2026-03-26T16:30:08Z</time></trkpt><trkpt lat="45.59121675116426" lon="11.318465968589434"><ele>511.0</ele><time>2026-03-26T16:30:09Z</time></trkpt><trkpt lat="45.59124366322699" lon="11.3186616471882"><ele>511.0</ele><time>2026-03-26T16:30:10Z</time></trkpt><trkpt lat="45.591284814757216" lon="11.318823348275513"><ele>511.0</ele><time>2026-03-26T16:30:11Z</time></trkpt><trkpt lat="45.591322325807624" lon="11.318980005689737"><ele>511.0</ele><time>2026-03-26T16:30:12Z</time></trkpt><trkpt lat="45.591357203043735" lon="11.319113431917676"><ele>511.0</ele><time>2026-03-26T16:30:13Z</time></trkpt><trkpt lat="45.59134459930173" lon="11.31925763658878"><ele>511.0</ele><time>2026-03-26T16:30:14Z</time></trkpt><trkpt lat="45.59128777749703" lon="11.319384960102253"><ele>510.5</ele><time>2026-03-26T16:30:15Z</time></trkpt><trkpt lat="45.59122970626971" lon="11.319524299378664"><ele>510.0</ele><time>2026-03-26T16:30:16Z</time></trkpt><trkpt lat="45.59115753946464" lon="11.319699322605082"><ele>509.5</ele><time>2026-03-26T16:30:17Z</time></trkpt><trkpt lat="45.591081121646084" lon="11.31987936868852"><ele>509.0</ele><time>2026-03-26T16:30:18Z</time></trkpt><trkpt lat="45.59099674308639" lon="11.320081457584902"><ele>507.25</ele><time>2026-03-26T16:30:19Z</time></trkpt><trkpt lat="45.59093269376741" lon="11.320280956799722"><ele>505.5</ele><time>2026-03-26T16:30:20Z</time></trkpt><trkpt lat="45.59085776810347" lon="11.320450616108866"><ele>503.75</ele><time>2026-03-26T16:30:21Z</time></trkpt><trkpt lat="45.59078514695249" lon="11.320615315401403"><ele>502.0</ele><time>2026-03-26T16:30:22Z</time></trkpt><trkpt lat="45.590710996675114" lon="11.3207711429393"><ele>499.75</ele><time>2026-03-26T16:30:23Z</time></trkpt><trkpt lat="45.59063515646143" lon="11.320925014612309"><ele>497.5</ele><time>2026-03-26T16:30:23.999Z</time></trkpt><trkpt lat="45.590562880327354" lon="11.321070637988628"><ele>495.25</ele><time>2026-03-26T16:30:24.999Z</time></trkpt><trkpt lat="45.59050031511769" lon="11.321214326950617"><ele>493.0</ele><time>2026-03-26T16:30:25.999Z</time></trkpt><trkpt lat="45.590442668465286" lon="11.32135626577065"><ele>492.5</ele><time>2026-03-26T16:30:26.999Z</time></trkpt><trkpt lat="45.59040289533127" lon="11.321533389245193"><ele>492.0</ele><time>2026-03-26T16:30:27.999Z</time></trkpt><trkpt lat="45.590382709067704" lon="11.321727797529528"><ele>491.5</ele><time>2026-03-26T16:30:28.999Z</time></trkpt><trkpt lat="45.59037023029232" lon="11.321894734176261"><ele>491.0</ele><time>2026-03-26T16:30:29.999Z</time></trkpt><trkpt lat="45.59033993100045" lon="11.322036518186055"><ele>491.0</ele><time>2026-03-26T16:30:30.999Z</time></trkpt><trkpt lat="45.59029337555193" lon="11.322170063109287"><ele>491.0</ele><time>2026-03-26T16:30:31.999Z</time></trkpt><trkpt lat="45.59020934125953" lon="11.322260114283527"><ele>491.0</ele><time>2026-03-26T16:30:32.999Z</time></trkpt><trkpt lat="45.590118982285276" lon="11.322356312481928"><ele>491.0</ele><time>2026-03-26T16:30:33.999Z</time></trkpt><trkpt lat="45.59000080582318" lon="11.32239092729054"><ele>491.0</ele><time>2026-03-26T16:30:34.999Z</time></trkpt><trkpt lat="45.58986134868681" lon="11.322448188911801"><ele>488.75</ele><time>2026-03-26T16:30:35.999Z</time></trkpt><trkpt lat="45.58973379885312" lon="11.322514946601647"><ele>486.5</ele><time>2026-03-26T16:30:36.999Z</time></trkpt><trkpt lat="45.58962320492109" lon="11.322615103481368"><ele>484.25</ele><time>2026-03-26T16:30:37.999Z</time></trkpt><trkpt lat="45.58954277998013" lon="11.322706962701796"><ele>482.0</ele><time>2026-03-26T16:30:38.999Z</time></trkpt><trkpt lat="45.58946504527229" lon="11.322794974024696"><ele>481.99999999999994</ele><time>2026-03-26T16:30:39.999Z</time></trkpt><trkpt lat="45.589386342461395" lon="11.322851909014851"><ele>482.0</ele><time>2026-03-26T16:30:40.999Z</time></trkpt><trkpt lat="45.58932747625759" lon="11.322883823503856"><ele>482.0</ele><time>2026-03-26T16:30:41.999Z</time></trkpt><trkpt lat="45.589264882090006" lon="11.322905043631533"><ele>482.0</ele><time>2026-03-26T16:30:44.999Z</time></trkpt><trkpt lat="45.58919978386541" lon="11.322919994612594"><ele>481.99999999999994</ele><time>2026-03-26T16:30:46.999Z</time></trkpt><trkpt lat="45.589178711108254" lon="11.323132850803105"><ele>482.0</ele><time>2026-03-26T16:30:47.999Z</time></trkpt><trkpt lat="45.58915246585338" lon="11.323279765173252"><ele>480.75</ele><time>2026-03-26T16:30:48.999Z</time></trkpt><trkpt lat="45.589121488859575" lon="11.323444399279499"><ele>479.5</ele><time>2026-03-26T16:30:49.999Z</time></trkpt><trkpt lat="45.58906919926536" lon="11.323619138336738"><ele>478.25</ele><time>2026-03-26T16:30:50.999Z</time></trkpt><trkpt lat="45.58902060319298" lon="11.323810111335945"><ele>477.0</ele><time>2026-03-26T16:30:51.999Z</time></trkpt><trkpt lat="45.588937517961675" lon="11.32398786186511"><ele>476.75</ele><time>2026-03-26T16:30:52.999Z</time></trkpt><trkpt lat="45.588840051070676" lon="11.324163987533566"><ele>476.5</ele><time>2026-03-26T16:30:53.999Z</time></trkpt><trkpt lat="45.588755504372024" lon="11.32432013954805"><ele>476.25</ele><time>2026-03-26T16:30:54.999Z</time></trkpt><trkpt lat="45.588688708075075" lon="11.324476801932578"><ele>476.0</ele><time>2026-03-26T16:30:55.999Z</time></trkpt><trkpt lat="45.5886604428146" lon="11.324646209932252"><ele>477.3333333333333</ele><time>2026-03-26T16:30:56.999Z</time></trkpt><trkpt lat="45.58866633763134" lon="11.324874041141229"><ele>478.66666666666663</ele><time>2026-03-26T16:30:57.999Z</time></trkpt><trkpt lat="45.588654624754554" lon="11.325119978938146"><ele>480.0</ele><time>2026-03-26T16:30:58.999Z</time></trkpt><trkpt lat="45.58863099829486" lon="11.325358059089377"><ele>478.66666666666663</ele><time>2026-03-26T16:30:59.999Z</time></trkpt><trkpt lat="45.5886003915961" lon="11.325595910469204"><ele>477.3333333333333</ele><time>2026-03-26T16:31:00.998Z</time></trkpt><trkpt lat="45.5885528879413" lon="11.325811114371467"><ele>476.0</ele><time>2026-03-26T16:31:01.998Z</time></trkpt><trkpt lat="45.58851448617051" lon="11.32603248568721"><ele>476.0</ele><time>2026-03-26T16:31:02.998Z</time></trkpt><trkpt lat="45.588471522956766" lon="11.326228158570627"><ele>476.0</ele><time>2026-03-26T16:31:03.998Z</time></trkpt><trkpt lat="45.58846451201677" lon="11.326428380730071"><ele>476.0</ele><time>2026-03-26T16:31:04.998Z</time></trkpt><trkpt lat="45.58849293787898" lon="11.326638814594748"><ele>476.0</ele><time>2026-03-26T16:31:05.998Z</time></trkpt><trkpt lat="45.588541028280126" lon="11.326824031785575"><ele>474.8</ele><time>2026-03-26T16:31:06.998Z</time></trkpt><trkpt lat="45.58857919094315" lon="11.326958236093239"><ele>473.6</ele><time>2026-03-26T16:31:07.998Z</time></trkpt><trkpt lat="45.588571537417934" lon="11.32709107917829"><ele>472.4</ele><time>2026-03-26T16:31:08.998Z</time></trkpt><trkpt lat="45.588519144476805" lon="11.327218323524676"><ele>471.2</ele><time>2026-03-26T16:31:09.998Z</time></trkpt><trkpt lat="45.5884774982393" lon="11.327370581124791"><ele>470.0</ele><time>2026-03-26T16:31:10.998Z</time></trkpt><trkpt lat="45.58838904815158" lon="11.327518070890562"><ele>469.8</ele><time>2026-03-26T16:31:11.998Z</time></trkpt><trkpt lat="45.5883052087909" lon="11.32765302706584"><ele>469.6</ele><time>2026-03-26T16:31:12.998Z</time></trkpt><trkpt lat="45.588224603823974" lon="11.327758401598748"><ele>469.4</ele><time>2026-03-26T16:31:13.998Z</time></trkpt><trkpt lat="45.58814331852504" lon="11.327849906831448"><ele>469.2</ele><time>2026-03-26T16:31:14.998Z</time></trkpt><trkpt lat="45.5880673696551" lon="11.327945974236652"><ele>469.0</ele><time>2026-03-26T16:31:15.998Z</time></trkpt><trkpt lat="45.58799235725039" lon="11.328022010165126"><ele>469.50000000000006</ele><time>2026-03-26T16:31:16.998Z</time></trkpt><trkpt lat="45.58791393131625" lon="11.328072798783872"><ele>470.0</ele><time>2026-03-26T16:31:17.998Z</time></trkpt><trkpt lat="45.58785159524625" lon="11.328149934890858"><ele>470.5</ele><time>2026-03-26T16:31:18.998Z</time></trkpt><trkpt lat="45.58779073825236" lon="11.328234900879579"><ele>471.0</ele><time>2026-03-26T16:31:19.998Z</time></trkpt><trkpt lat="45.58774829831889" lon="11.328331619972621"><ele>471.50000000000006</ele><time>2026-03-26T16:31:20.998Z</time></trkpt><trkpt lat="45.587724853561255" lon="11.328438439404206"><ele>472.0</ele><time>2026-03-26T16:31:21.998Z</time></trkpt><trkpt lat="45.58771816482496" lon="11.328569204696421"><ele>470.50000000000006</ele><time>2026-03-26T16:31:22.998Z</time></trkpt><trkpt lat="45.58772844383036" lon="11.328694895435342"><ele>469.0</ele><time>2026-03-26T16:31:23.998Z</time></trkpt><trkpt lat="45.5877495935793" lon="11.32880362921226"><ele>467.5</ele><time>2026-03-26T16:31:24.998Z</time></trkpt><trkpt lat="45.58778714206114" lon="11.328918768308883"><ele>466.0</ele><time>2026-03-26T16:31:25.998Z</time></trkpt><trkpt lat="45.58786125719683" lon="11.329002033806457"><ele>464.50000000000006</ele><time>2026-03-26T16:31:26.998Z</time></trkpt><trkpt lat="45.58792677895782" lon="11.329074332133851"><ele>463.0</ele><time>2026-03-26T16:31:27.998Z</time></trkpt><trkpt lat="45.58797937705996" lon="11.329158934748795"><ele>463.00000000000006</ele><time>2026-03-26T16:31:28.998Z</time></trkpt><trkpt lat="45.58803531004795" lon="11.329218358049394"><ele>463.0</ele><time>2026-03-26T16:31:29.998Z</time></trkpt><trkpt lat="45.588088830296535" lon="11.329285261175649"><ele>463.0</ele><time>2026-03-26T16:31:30.998Z</time></trkpt><trkpt lat="45.58814738811049" lon="11.329350575207489"><ele>463.0</ele><time>2026-03-26T16:31:31.998Z</time></trkpt><trkpt lat="45.58820868207258" lon="11.329413077105729"><ele>463.00000000000006</ele><time>2026-03-26T16:31:32.998Z</time></trkpt><trkpt lat="45.58827536019416" lon="11.329498055379934"><ele>463.0</ele><time>2026-03-26T16:31:33.998Z</time></trkpt><trkpt lat="45.5883858196343" lon="11.329557645020534"><ele>463.0</ele><time>2026-03-26T16:31:34.998Z</time></trkpt><trkpt lat="45.58848412381001" lon="11.329586521533445"><ele>462.99999999999994</ele><time>2026-03-26T16:31:35.998Z</time></trkpt><trkpt lat="45.58856479066205" lon="11.329631206760387"><ele>462.99999999999994</ele><time>2026-03-26T16:31:36.998Z</time></trkpt><trkpt lat="45.58865473295396" lon="11.329743097269835"><ele>463.0</ele><time>2026-03-26T16:31:37.997Z</time></trkpt><trkpt lat="45.58870257551483" lon="11.32982589909814"><ele>463.0</ele><time>2026-03-26T16:31:38.997Z</time></trkpt><trkpt lat="45.58872828594172" lon="11.329939498148345"><ele>462.59999999999997</ele><time>2026-03-26T16:31:39.997Z</time></trkpt><trkpt lat="45.5887156424629" lon="11.330058299891652"><ele>462.19999999999993</ele><time>2026-03-26T16:31:40.997Z</time></trkpt><trkpt lat="45.58865628505481" lon="11.330154022663123"><ele>461.8</ele><time>2026-03-26T16:31:41.997Z</time></trkpt><trkpt lat="45.58859695927658" lon="11.330222967789409"><ele>461.4</ele><time>2026-03-26T16:31:42.997Z</time></trkpt><trkpt lat="45.58849654803589" lon="11.330262111343785"><ele>461.0</ele><time>2026-03-26T16:31:43.997Z</time></trkpt><trkpt lat="45.58840178356886" lon="11.330335987410198"><ele>458.0</ele><time>2026-03-26T16:31:44.997Z</time></trkpt><trkpt lat="45.58833759219147" lon="11.33043945067413"><ele>455.0</ele><time>2026-03-26T16:31:45.997Z</time></trkpt><trkpt lat="45.58827100762665" lon="11.330582672178014"><ele>452.0</ele><time>2026-03-26T16:31:46.997Z</time></trkpt><trkpt lat="45.588222824101855" lon="11.330753853005891"><ele>449.0</ele><time>2026-03-26T16:31:47.997Z</time></trkpt><trkpt lat="45.588196771375905" lon="11.330930750471284"><ele>446.75</ele><time>2026-03-26T16:31:48.997Z</time></trkpt><trkpt lat="45.588184434225056" lon="11.331100939414323"><ele>444.5</ele><time>2026-03-26T16:31:49.997Z</time></trkpt><trkpt lat="45.588166867410045" lon="11.331260098479373"><ele>442.25</ele><time>2026-03-26T16:31:50.997Z</time></trkpt><trkpt lat="45.58814738704608" lon="11.331423806997842"><ele>440.0</ele><time>2026-03-26T16:31:51.997Z</time></trkpt><trkpt lat="45.58812903706285" lon="11.331596051764246"><ele>438.8</ele><time>2026-03-26T16:31:52.997Z</time></trkpt><trkpt lat="45.58810921951872" lon="11.331753531830111"><ele>437.6</ele><time>2026-03-26T16:31:53.997Z</time></trkpt><trkpt lat="45.58808624761763" lon="11.331920014572946"><ele>436.4</ele><time>2026-03-26T16:31:54.997Z</time></trkpt><trkpt lat="45.58805920205148" lon="11.332074163518616"><ele>435.2</ele><time>2026-03-26T16:31:55.997Z</time></trkpt><trkpt lat="45.58802327689485" lon="11.332219035501163"><ele>434.0</ele><time>2026-03-26T16:31:56.997Z</time></trkpt><trkpt lat="45.58798778517534" lon="11.332365483801533"><ele>432.75</ele><time>2026-03-26T16:31:58Z</time></trkpt><trkpt lat="45.58794740833308" lon="11.33252122437279"><ele>431.5</ele><time>2026-03-26T16:31:59Z</time></trkpt><trkpt lat="45.58790050854663" lon="11.332690510888323"><ele>430.25</ele><time>2026-03-26T16:32:00Z</time></trkpt><trkpt lat="45.58785307044848" lon="11.332873988685606"><ele>429.0</ele><time>2026-03-26T16:32:01Z</time></trkpt><trkpt lat="45.58780012106415" lon="11.333050393395727"><ele>428.0</ele><time>2026-03-26T16:32:02Z</time></trkpt><trkpt lat="45.58772392034352" lon="11.333235589385373"><ele>427.0</ele><time>2026-03-26T16:32:03Z</time></trkpt><trkpt lat="45.58768486243432" lon="11.333443045163472"><ele>426.0</ele><time>2026-03-26T16:32:04Z</time></trkpt><trkpt lat="45.5876209179951" lon="11.33370478444844"><ele>425.33333333333337</ele><time>2026-03-26T16:32:05Z</time></trkpt><trkpt lat="45.58749034024227" lon="11.333916470203185"><ele>424.6666666666667</ele><time>2026-03-26T16:32:06Z</time></trkpt><trkpt lat="45.58743614675537" lon="11.33412382995668"><ele>424.0</ele><time>2026-03-26T16:32:07Z</time></trkpt><trkpt lat="45.587407000730735" lon="11.33430656265362"><ele>424.0</ele><time>2026-03-26T16:32:08Z</time></trkpt><trkpt lat="45.58738533047973" lon="11.334466256323"><ele>424.0</ele><time>2026-03-26T16:32:09Z</time></trkpt><trkpt lat="45.587358350722916" lon="11.334592610614825"><ele>424.0</ele><time>2026-03-26T16:32:10Z</time></trkpt><trkpt lat="45.587354895677144" lon="11.334745007346102"><ele>424.0</ele><time>2026-03-26T16:32:11Z</time></trkpt><trkpt lat="45.58737276996279" lon="11.334937553111688"><ele>424.0</ele><time>2026-03-26T16:32:12Z</time></trkpt><trkpt lat="45.58739448034294" lon="11.335159250559874"><ele>422.75</ele><time>2026-03-26T16:32:13Z</time></trkpt><trkpt lat="45.58738417233707" lon="11.335347283772666"><ele>421.5</ele><time>2026-03-26T16:32:14Z</time></trkpt><trkpt lat="45.58741281815782" lon="11.335518639571601"><ele>420.25</ele><time>2026-03-26T16:32:15Z</time></trkpt><trkpt lat="45.58741792153715" lon="11.335681159774547"><ele>419.0</ele><time>2026-03-26T16:32:16Z</time></trkpt><trkpt lat="45.587427271464534" lon="11.335846774903539"><ele>418.6</ele><time>2026-03-26T16:32:17Z</time></trkpt><trkpt lat="45.587431922612076" lon="11.335995819755855"><ele>418.2</ele><time>2026-03-26T16:32:18Z</time></trkpt><trkpt lat="45.58741664896965" lon="11.336147038567228"><ele>417.8</ele><time>2026-03-26T16:32:19Z</time></trkpt><trkpt lat="45.58741208059072" lon="11.336280815240082"><ele>417.40000000000003</ele><time>2026-03-26T16:32:20Z</time></trkpt><trkpt lat="45.58740475137111" lon="11.336408899959773"><ele>417.0</ele><time>2026-03-26T16:32:21Z</time></trkpt><trkpt lat="45.58739447420378" lon="11.336530754181151"><ele>415.25</ele><time>2026-03-26T16:32:22Z</time></trkpt><trkpt lat="45.58738506625868" lon="11.336667240911094"><ele>413.5</ele><time>2026-03-26T16:32:23Z</time></trkpt><trkpt lat="45.587372307100495" lon="11.336844409011073"><ele>411.75</ele><time>2026-03-26T16:32:24Z</time></trkpt><trkpt lat="45.587281422631726" lon="11.337036481365008"><ele>410.0</ele><time>2026-03-26T16:32:25Z</time></trkpt><trkpt lat="45.587250694904284" lon="11.337277080194314"><ele>409.0</ele><time>2026-03-26T16:32:26Z</time></trkpt><trkpt lat="45.587223954750975" lon="11.337537118084823"><ele>408.0</ele><time>2026-03-26T16:32:26.999Z</time></trkpt><trkpt lat="45.58721955502385" lon="11.337812617401331"><ele>407.0</ele><time>2026-03-26T16:32:27.999Z</time></trkpt><trkpt lat="45.587171585598824" lon="11.338034380157575"><ele>406.3333333333333</ele><time>2026-03-26T16:32:28.999Z</time></trkpt><trkpt lat="45.587106213804695" lon="11.338266794891753"><ele>405.66666666666663</ele><time>2026-03-26T16:32:29.999Z</time></trkpt><trkpt lat="45.587039634895234" lon="11.338515359025596"><ele>405.0</ele><time>2026-03-26T16:32:30.999Z</time></trkpt><trkpt lat="45.586958703292666" lon="11.338738596247241"><ele>406.66666666666663</ele><time>2026-03-26T16:32:31.999Z</time></trkpt><trkpt lat="45.5868849087425" lon="11.338972083222652"><ele>408.3333333333333</ele><time>2026-03-26T16:32:32.999Z</time></trkpt><trkpt lat="45.58680589391162" lon="11.339197207243156"><ele>410.0</ele><time>2026-03-26T16:32:33.999Z</time></trkpt><trkpt lat="45.58676829406335" lon="11.33944326475724"><ele>410.0</ele><time>2026-03-26T16:32:34.999Z</time></trkpt><trkpt lat="45.58673494982552" lon="11.339688958750758"><ele>410.0</ele><time>2026-03-26T16:32:35.999Z</time></trkpt><trkpt lat="45.58669618990003" lon="11.339919919219952"><ele>410.0</ele><time>2026-03-26T16:32:36.999Z</time></trkpt><trkpt lat="45.5866597928869" lon="11.340129347717717"><ele>409.75</ele><time>2026-03-26T16:32:37.999Z</time></trkpt><trkpt lat="45.586633214275665" lon="11.340292513732962"><ele>409.5</ele><time>2026-03-26T16:32:38.999Z</time></trkpt><trkpt lat="45.586615638913216" lon="11.34044970618874"><ele>409.25</ele><time>2026-03-26T16:32:39.999Z</time></trkpt><trkpt lat="45.58662073028075" lon="11.340651292685235"><ele>409.0</ele><time>2026-03-26T16:32:40.999Z</time></trkpt><trkpt lat="45.58666916763226" lon="11.340860257118358"><ele>408.0</ele><time>2026-03-26T16:32:41.999Z</time></trkpt><trkpt lat="45.58673985734918" lon="11.341068445852319"><ele>407.0</ele><time>2026-03-26T16:32:42.999Z</time></trkpt><trkpt lat="45.58682451906319" lon="11.34127964123626"><ele>406.0</ele><time>2026-03-26T16:32:43.999Z</time></trkpt><trkpt lat="45.58691492141767" lon="11.341492673247627"><ele>405.33333333333337</ele><time>2026-03-26T16:32:44.999Z</time></trkpt><trkpt lat="45.586996709777495" lon="11.341696922083765"><ele>404.66666666666663</ele><time>2026-03-26T16:32:45.999Z</time></trkpt><trkpt lat="45.58707691037198" lon="11.341928166742125"><ele>404.0</ele><time>2026-03-26T16:32:46.999Z</time></trkpt><trkpt lat="45.587146757960454" lon="11.3421189625452"><ele>403.5</ele><time>2026-03-26T16:32:47.999Z</time></trkpt><trkpt lat="45.58721434421568" lon="11.34231731224822"><ele>403.0</ele><time>2026-03-26T16:32:48.999Z</time></trkpt><trkpt lat="45.58723533407151" lon="11.34250249897785"><ele>402.5</ele><time>2026-03-26T16:32:49.999Z</time></trkpt><trkpt lat="45.58718850662337" lon="11.342660511040188"><ele>402.0</ele><time>2026-03-26T16:32:50.999Z</time></trkpt><trkpt lat="45.58714183362414" lon="11.342832097017894"><ele>402.0</ele><time>2026-03-26T16:32:51.999Z</time></trkpt><trkpt lat="45.58711608160651" lon="11.343030986388685"><ele>402.0</ele><time>2026-03-26T16:32:52.999Z</time></trkpt><trkpt lat="45.58712357908665" lon="11.343266577535985"><ele>402.0</ele><time>2026-03-26T16:32:53.999Z</time></trkpt><trkpt lat="45.587162895203555" lon="11.34352743625094"><ele>401.66666666666663</ele><time>2026-03-26T16:32:54.999Z</time></trkpt><trkpt lat="45.58722585022617" lon="11.34381964210796"><ele>401.3333333333333</ele><time>2026-03-26T16:32:55.999Z</time></trkpt><trkpt lat="45.58725622108856" lon="11.34404612072176"><ele>401.0</ele><time>2026-03-26T16:32:56.999Z</time></trkpt><trkpt lat="45.58726202780442" lon="11.344255795052714"><ele>399.66666666666663</ele><time>2026-03-26T16:32:57.999Z</time></trkpt><trkpt lat="45.587235287920755" lon="11.3444758173464"><ele>398.33333333333337</ele><time>2026-03-26T16:32:58.999Z</time></trkpt><trkpt lat="45.5871921343827" lon="11.344705082454125"><ele>397.0</ele><time>2026-03-26T16:32:59.999Z</time></trkpt><trkpt lat="45.587170475942195" lon="11.344965537612149"><ele>397.0</ele><time>2026-03-26T16:33:00.999Z</time></trkpt><trkpt lat="45.58715039270717" lon="11.3451806875528"><ele>397.0</ele><time>2026-03-26T16:33:01.999Z</time></trkpt><trkpt lat="45.587156564164815" lon="11.345375257687158"><ele>397.0</ele><time>2026-03-26T16:33:02.998Z</time></trkpt><trkpt lat="45.58716093379772" lon="11.34552122024269"><ele>397.0</ele><time>2026-03-26T16:33:03.998Z</time></trkpt><trkpt lat="45.58715872280283" lon="11.345668130562068"><ele>394.75</ele><time>2026-03-26T16:33:04.998Z</time></trkpt><trkpt lat="45.58712486349336" lon="11.34580869028297"><ele>392.5</ele><time>2026-03-26T16:33:05.998Z</time></trkpt><trkpt lat="45.587052814119374" lon="11.345919188975298"><ele>390.25</ele><time>2026-03-26T16:33:06.998Z</time></trkpt><trkpt lat="45.586920898588474" lon="11.345983980644311"><ele>388.0</ele><time>2026-03-26T16:33:07.998Z</time></trkpt><trkpt lat="45.58678029930177" lon="11.346077704536103"><ele>386.0</ele><time>2026-03-26T16:33:08.998Z</time></trkpt><trkpt lat="45.58663584664535" lon="11.346172650634912"><ele>384.0</ele><time>2026-03-26T16:33:09.998Z</time></trkpt><trkpt lat="45.58650445683603" lon="11.346271286617915"><ele>382.0</ele><time>2026-03-26T16:33:10.998Z</time></trkpt><trkpt lat="45.5863876250203" lon="11.346360067984655"><ele>380.0</ele><time>2026-03-26T16:33:11.998Z</time></trkpt><trkpt lat="45.586276159310586" lon="11.34644307628218"><ele>377.5</ele><time>2026-03-26T16:33:12.998Z</time></trkpt><trkpt lat="45.58617566061122" lon="11.346531986697824"><ele>375.0</ele><time>2026-03-26T16:33:13.998Z</time></trkpt><trkpt lat="45.58606874115808" lon="11.34661208672767"><ele>372.5</ele><time>2026-03-26T16:33:14.998Z</time></trkpt><trkpt lat="45.58594976884759" lon="11.346697681727509"><ele>370.0</ele><time>2026-03-26T16:33:15.998Z</time></trkpt><trkpt lat="45.585836432279855" lon="11.346780650137756"><ele>370.0</ele><time>2026-03-26T16:33:16.998Z</time></trkpt><trkpt lat="45.58572907419866" lon="11.346847758235116"><ele>370.0</ele><time>2026-03-26T16:33:17.998Z</time></trkpt><trkpt lat="45.585631631762375" lon="11.346918386394288"><ele>370.0</ele><time>2026-03-26T16:33:18.998Z</time></trkpt><trkpt lat="45.58555332119221" lon="11.347019301270688"><ele>370.0</ele><time>2026-03-26T16:33:19.998Z</time></trkpt><trkpt lat="45.585497214807276" lon="11.347138991956717"><ele>370.0</ele><time>2026-03-26T16:33:20.998Z</time></trkpt><trkpt lat="45.58546856149796" lon="11.347286050930503"><ele>369.5</ele><time>2026-03-26T16:33:21.998Z</time></trkpt><trkpt lat="45.585453005976994" lon="11.347450274067427"><ele>369.0</ele><time>2026-03-26T16:33:22.998Z</time></trkpt><trkpt lat="45.58544232833081" lon="11.347633984685743"><ele>368.5</ele><time>2026-03-26T16:33:23.998Z</time></trkpt><trkpt lat="45.58543607442153" lon="11.347835114185047"><ele>368.0</ele><time>2026-03-26T16:33:24.998Z</time></trkpt><trkpt lat="45.58543603011056" lon="11.348047251198091"><ele>366.25</ele><time>2026-03-26T16:33:25.998Z</time></trkpt><trkpt lat="45.58543335772036" lon="11.348253650863205"><ele>364.5</ele><time>2026-03-26T16:33:26.998Z</time></trkpt><trkpt lat="45.58542641976829" lon="11.34844677223449"><ele>362.75</ele><time>2026-03-26T16:33:27.998Z</time></trkpt><trkpt lat="45.585424913321575" lon="11.348629078859489"><ele>361.0</ele><time>2026-03-26T16:33:28.998Z</time></trkpt><trkpt lat="45.58542531880678" lon="11.348805181953615"><ele>360.20000000000005</ele><time>2026-03-26T16:33:29.998Z</time></trkpt><trkpt lat="45.58542162996153" lon="11.34897518335426"><ele>359.40000000000003</ele><time>2026-03-26T16:33:30.998Z</time></trkpt><trkpt lat="45.585426513885935" lon="11.349137991967895"><ele>358.6</ele><time>2026-03-26T16:33:31.998Z</time></trkpt><trkpt lat="45.58542443830637" lon="11.34928826431721"><ele>357.8</ele><time>2026-03-26T16:33:32.998Z</time></trkpt><trkpt lat="45.58541896372787" lon="11.349437733292618"><ele>357.0</ele><time>2026-03-26T16:33:33.998Z</time></trkpt><trkpt lat="45.58537458369181" lon="11.349600134677605"><ele>356.25</ele><time>2026-03-26T16:33:34.998Z</time></trkpt><trkpt lat="45.585320770565374" lon="11.34976835135846"><ele>355.5</ele><time>2026-03-26T16:33:35.998Z</time></trkpt><trkpt lat="45.585264279763784" lon="11.349951036197279"><ele>354.75</ele><time>2026-03-26T16:33:36.998Z</time></trkpt><trkpt lat="45.58519317554496" lon="11.35010963838165"><ele>354.0</ele><time>2026-03-26T16:33:37.998Z</time></trkpt><trkpt lat="45.58512184096283" lon="11.35026817181596"><ele>354.0</ele><time>2026-03-26T16:33:38.998Z</time></trkpt><trkpt lat="45.585044554968" lon="11.350442031001144"><ele>354.0</ele><time>2026-03-26T16:33:39.997Z</time></trkpt><trkpt lat="45.58498041589956" lon="11.350628337189903"><ele>354.0</ele><time>2026-03-26T16:33:40.997Z</time></trkpt><trkpt lat="45.58491698532545" lon="11.350815302821921"><ele>354.0</ele><time>2026-03-26T16:33:41.997Z</time></trkpt><trkpt lat="45.58485748176042" lon="11.351013147985558"><ele>351.25</ele><time>2026-03-26T16:33:42.997Z</time></trkpt><trkpt lat="45.58480301133442" lon="11.351224627344887"><ele>348.5</ele><time>2026-03-26T16:33:43.997Z</time></trkpt><trkpt lat="45.584754079789604" lon="11.351426212218227"><ele>345.75</ele><time>2026-03-26T16:33:44.997Z</time></trkpt><trkpt lat="45.584706667665344" lon="11.35161050052"><ele>343.0</ele><time>2026-03-26T16:33:45.997Z</time></trkpt><trkpt lat="45.58465640513352" lon="11.351791900926958"><ele>340.5</ele><time>2026-03-26T16:33:46.997Z</time></trkpt><trkpt lat="45.584608308749715" lon="11.351962120582503"><ele>338.0</ele><time>2026-03-26T16:33:47.997Z</time></trkpt><trkpt lat="45.584556973625006" lon="11.35214137200473"><ele>335.5</ele><time>2026-03-26T16:33:48.997Z</time></trkpt><trkpt lat="45.58448662155716" lon="11.352323699839"><ele>333.0</ele><time>2026-03-26T16:33:49.997Z</time></trkpt><trkpt lat="45.584387507147675" lon="11.352490210994391"><ele>332.25</ele><time>2026-03-26T16:33:50.997Z</time></trkpt><trkpt lat="45.584277214047816" lon="11.352628023818744"><ele>331.5</ele><time>2026-03-26T16:33:51.997Z</time></trkpt><trkpt lat="45.584160840321424" lon="11.352736681495612"><ele>330.75</ele><time>2026-03-26T16:33:52.997Z</time></trkpt><trkpt lat="45.5840327380784" lon="11.352833134405564"><ele>330.0</ele><time>2026-03-26T16:33:53.997Z</time></trkpt><trkpt lat="45.583899725879604" lon="11.352930636246654"><ele>330.0</ele><time>2026-03-26T16:33:54.997Z</time></trkpt><trkpt lat="45.5837622715751" lon="11.353028675391844"><ele>330.0</ele><time>2026-03-26T16:33:55.997Z</time></trkpt><trkpt lat="45.583621445084205" lon="11.35313725929907"><ele>330.0</ele><time>2026-03-26T16:33:56.997Z</time></trkpt><trkpt lat="45.58348239364877" lon="11.353245807168417"><ele>327.75</ele><time>2026-03-26T16:33:57.997Z</time></trkpt><trkpt lat="45.58334923981439" lon="11.353337555979012"><ele>325.5</ele><time>2026-03-26T16:33:58.997Z</time></trkpt><trkpt lat="45.583217724843976" lon="11.353426169045342"><ele>323.25</ele><time>2026-03-26T16:33:59.997Z</time></trkpt><trkpt lat="45.583098422030844" lon="11.35350502247526"><ele>321.0</ele><time>2026-03-26T16:34:00.997Z</time></trkpt><trkpt lat="45.5830385505632" lon="11.353634248734988"><ele>320.6666666666667</ele><time>2026-03-26T16:34:01.997Z</time></trkpt><trkpt lat="45.58289063090452" lon="11.353923339745046"><ele>320.33333333333337</ele><time>2026-03-26T16:34:02.997Z</time></trkpt><trkpt lat="45.58281624096543" lon="11.354116908937222"><ele>320.0</ele><time>2026-03-26T16:34:04Z</time></trkpt><trkpt lat="45.582746247081054" lon="11.354348461800553"><ele>320.0</ele><time>2026-03-26T16:34:05Z</time></trkpt><trkpt lat="45.58268026661961" lon="11.354576538404308"><ele>320.0</ele><time>2026-03-26T16:34:06Z</time></trkpt><trkpt lat="45.58262967370035" lon="11.354787060856292"><ele>320.0</ele><time>2026-03-26T16:34:07Z</time></trkpt><trkpt lat="45.58257930934707" lon="11.354984928521882"><ele>319.8</ele><time>2026-03-26T16:34:08Z</time></trkpt><trkpt lat="45.582529312934064" lon="11.35516653485342"><ele>319.6</ele><time>2026-03-26T16:34:09Z</time></trkpt><trkpt lat="45.5824812782824" lon="11.355331518599504"><ele>319.4</ele><time>2026-03-26T16:34:10Z</time></trkpt><trkpt lat="45.58244540564807" lon="11.35547216935913"><ele>319.2</ele><time>2026-03-26T16:34:11Z</time></trkpt><trkpt lat="45.58242555372212" lon="11.355583976687763"><ele>319.0</ele><time>2026-03-26T16:34:12Z</time></trkpt><trkpt lat="45.582417661088364" lon="11.355692312185992"><ele>316.8</ele><time>2026-03-26T16:34:13Z</time></trkpt><trkpt lat="45.58244985550096" lon="11.355777733932136"><ele>314.59999999999997</ele><time>2026-03-26T16:34:14Z</time></trkpt><trkpt lat="45.58254101349342" lon="11.355864210627944"><ele>312.4</ele><time>2026-03-26T16:34:15Z</time></trkpt><trkpt lat="45.582634627204094" lon="11.355898917392631"><ele>310.2</ele><time>2026-03-26T16:34:16Z</time></trkpt><trkpt lat="45.582740989513105" lon="11.355863858286963"><ele>308.0</ele><time>2026-03-26T16:34:17Z</time></trkpt><trkpt lat="45.58286693791646" lon="11.35578945020093"><ele>306.2</ele><time>2026-03-26T16:34:18Z</time></trkpt><trkpt lat="45.582977385810786" lon="11.35573328003881"><ele>304.4</ele><time>2026-03-26T16:34:19Z</time></trkpt><trkpt lat="45.583100566566515" lon="11.35566206305472"><ele>302.59999999999997</ele><time>2026-03-26T16:34:20Z</time></trkpt><trkpt lat="45.583183129129836" lon="11.355637892007477"><ele>300.8</ele><time>2026-03-26T16:34:21Z</time></trkpt><trkpt lat="45.583263603399274" lon="11.355645854215034"><ele>299.0</ele><time>2026-03-26T16:34:22Z</time></trkpt><trkpt lat="45.58334890399611" lon="11.355704126886735"><ele>299.0</ele><time>2026-03-26T16:34:23Z</time></trkpt><trkpt lat="45.58343745862052" lon="11.355806423795396"><ele>299.0</ele><time>2026-03-26T16:34:24Z</time></trkpt><trkpt lat="45.583513864603816" lon="11.355938895593786"><ele>299.0</ele><time>2026-03-26T16:34:25Z</time></trkpt><trkpt lat="45.58359770510114" lon="11.356087401610912"><ele>299.0</ele><time>2026-03-26T16:34:26Z</time></trkpt><trkpt lat="45.583677373881194" lon="11.35622795588897"><ele>296.25</ele><time>2026-03-26T16:34:27Z</time></trkpt><trkpt lat="45.58376025515178" lon="11.356351829757084"><ele>293.5</ele><time>2026-03-26T16:34:28Z</time></trkpt><trkpt lat="45.583843760609724" lon="11.356483770891156"><ele>290.75</ele><time>2026-03-26T16:34:29Z</time></trkpt><trkpt lat="45.583922989208624" lon="11.35662146555887"><ele>288.0</ele><time>2026-03-26T16:34:30Z</time></trkpt><trkpt lat="45.58400615247356" lon="11.356787401963285"><ele>286.3333333333333</ele><time>2026-03-26T16:34:31Z</time></trkpt><trkpt lat="45.58409080586551" lon="11.356971162243243"><ele>284.66666666666663</ele><time>2026-03-26T16:34:32Z</time></trkpt><trkpt lat="45.584174473100084" lon="11.357166872934675"><ele>283.0</ele><time>2026-03-26T16:34:33Z</time></trkpt><trkpt lat="45.5842590006451" lon="11.357363426189542"><ele>282.75</ele><time>2026-03-26T16:34:34Z</time></trkpt><trkpt lat="45.58433570444947" lon="11.35753937068997"><ele>282.5</ele><time>2026-03-26T16:34:34.999Z</time></trkpt><trkpt lat="45.58440808777169" lon="11.35771325827468"><ele>282.25</ele><time>2026-03-26T16:34:35.999Z</time></trkpt><trkpt lat="45.58447947681944" lon="11.357893784833337"><ele>282.0</ele><time>2026-03-26T16:34:36.999Z</time></trkpt><trkpt lat="45.58455267772183" lon="11.358074082425446"><ele>277.5</ele><time>2026-03-26T16:34:37.999Z</time></trkpt><trkpt lat="45.58462737258971" lon="11.35826278809442"><ele>273.0</ele><time>2026-03-26T16:34:38.999Z</time></trkpt><trkpt lat="45.58470231219198" lon="11.358452074035911"><ele>268.5</ele><time>2026-03-26T16:34:39.999Z</time></trkpt><trkpt lat="45.584775337503814" lon="11.358626223207432"><ele>264.0</ele><time>2026-03-26T16:34:40.999Z</time></trkpt><trkpt lat="45.58485979284809" lon="11.358783964815833"><ele>263.25</ele><time>2026-03-26T16:34:41.999Z</time></trkpt><trkpt lat="45.58492007600719" lon="11.358969511661947"><ele>262.5</ele><time>2026-03-26T16:34:42.999Z</time></trkpt><trkpt lat="45.58498423311543" lon="11.359128829360127"><ele>261.75</ele><time>2026-03-26T16:34:43.999Z</time></trkpt><trkpt lat="45.58504755209745" lon="11.359271393222647"><ele>261.0</ele><time>2026-03-26T16:34:44.999Z</time></trkpt><trkpt lat="45.58510248578435" lon="11.359446465057598"><ele>261.0</ele><time>2026-03-26T16:34:45.999Z</time></trkpt><trkpt lat="45.58515036356519" lon="11.359638516980645"><ele>261.0</ele><time>2026-03-26T16:34:46.999Z</time></trkpt><trkpt lat="45.5852038794067" lon="11.359812786819148"><ele>261.0</ele><time>2026-03-26T16:34:47.999Z</time></trkpt><trkpt lat="45.585227866934886" lon="11.360007959432078"><ele>261.0</ele><time>2026-03-26T16:34:48.999Z</time></trkpt><trkpt lat="45.585252566971704" lon="11.360216432957078"><ele>260.0</ele><time>2026-03-26T16:34:49.999Z</time></trkpt><trkpt lat="45.585269127816396" lon="11.36043287568488"><ele>259.0</ele><time>2026-03-26T16:34:50.999Z</time></trkpt><trkpt lat="45.58527911744755" lon="11.360621210254061"><ele>258.0</ele><time>2026-03-26T16:34:51.999Z</time></trkpt><trkpt lat="45.5852965550453" lon="11.360790149809755"><ele>257.0</ele><time>2026-03-26T16:34:52.999Z</time></trkpt><trkpt lat="45.58530223486216" lon="11.360936295803118"><ele>255.2</ele><time>2026-03-26T16:34:53.999Z</time></trkpt><trkpt lat="45.585291822510335" lon="11.361070729048238"><ele>253.39999999999998</ele><time>2026-03-26T16:34:54.999Z</time></trkpt><trkpt lat="45.58524329381724" lon="11.361198807055807"><ele>251.60000000000002</ele><time>2026-03-26T16:34:55.999Z</time></trkpt><trkpt lat="45.5851653304316" lon="11.361312424672464"><ele>249.8</ele><time>2026-03-26T16:34:56.999Z</time></trkpt><trkpt lat="45.585065496482635" lon="11.361370621459697"><ele>248.0</ele><time>2026-03-26T16:34:57.999Z</time></trkpt><trkpt lat="45.58496450869807" lon="11.361421088142482"><ele>246.60000000000002</ele><time>2026-03-26T16:34:58.999Z</time></trkpt><trkpt lat="45.584866438824164" lon="11.361458153445193"><ele>245.20000000000002</ele><time>2026-03-26T16:34:59.999Z</time></trkpt><trkpt lat="45.58480280323003" lon="11.361553089087225"><ele>243.8</ele><time>2026-03-26T16:35:00.999Z</time></trkpt><trkpt lat="45.58477482325283" lon="11.361673544651977"><ele>242.4</ele><time>2026-03-26T16:35:01.999Z</time></trkpt><trkpt lat="45.584787454568634" lon="11.361807901471396"><ele>241.0</ele><time>2026-03-26T16:35:02.999Z</time></trkpt><trkpt lat="45.58483344190112" lon="11.361961754768155"><ele>241.0</ele><time>2026-03-26T16:35:03.999Z</time></trkpt><trkpt lat="45.58487942931995" lon="11.36211078286049"><ele>241.0</ele><time>2026-03-26T16:35:04.999Z</time></trkpt><trkpt lat="45.58491672771486" lon="11.362252483677011"><ele>241.0</ele><time>2026-03-26T16:35:05.999Z</time></trkpt><trkpt lat="45.58495494665601" lon="11.362408023495986"><ele>241.0</ele><time>2026-03-26T16:35:06.999Z</time></trkpt><trkpt lat="45.58500452796511" lon="11.362577277568128"><ele>239.8</ele><time>2026-03-26T16:35:07.999Z</time></trkpt><trkpt lat="45.58504740393733" lon="11.362739441285955"><ele>238.60000000000002</ele><time>2026-03-26T16:35:08.999Z</time></trkpt><trkpt lat="45.585090056419" lon="11.362888103766796"><ele>237.4</ele><time>2026-03-26T16:35:09.999Z</time></trkpt><trkpt lat="45.58514427688803" lon="11.36301468870347"><ele>236.2</ele><time>2026-03-26T16:35:10.999Z</time></trkpt><trkpt lat="45.58521963941881" lon="11.363120982283913"><ele>235.0</ele><time>2026-03-26T16:35:11.999Z</time></trkpt><trkpt lat="45.58530373822136" lon="11.363198483979406"><ele>231.8</ele><time>2026-03-26T16:35:12.999Z</time></trkpt><trkpt lat="45.5853909967201" lon="11.363251920820655"><ele>228.6</ele><time>2026-03-26T16:35:13.998Z</time></trkpt><trkpt lat="45.5854758535822" lon="11.363290348159149"><ele>225.39999999999998</ele><time>2026-03-26T16:35:14.998Z</time></trkpt><trkpt lat="45.58556158957035" lon="11.363421764020398"><ele>222.2</ele><time>2026-03-26T16:35:16.998Z</time></trkpt><trkpt lat="45.58555985314049" lon="11.363516844315976"><ele>219.0</ele><time>2026-03-26T16:35:17.998Z</time></trkpt><trkpt lat="45.58551219536614" lon="11.363611784302002"><ele>219.0</ele><time>2026-03-26T16:35:18.998Z</time></trkpt><trkpt lat="45.58541694616464" lon="11.363641518496353"><ele>219.0</ele><time>2026-03-26T16:35:19.998Z</time></trkpt><trkpt lat="45.585300460405406" lon="11.363693673385363"><ele>219.0</ele><time>2026-03-26T16:35:20.998Z</time></trkpt><trkpt lat="45.58517730869251" lon="11.3637390915796"><ele>219.0</ele><time>2026-03-26T16:35:21.998Z</time></trkpt><trkpt lat="45.585067950411336" lon="11.363790072746884"><ele>218.0</ele><time>2026-03-26T16:35:22.998Z</time></trkpt><trkpt lat="45.58497755170909" lon="11.363827335308907"><ele>217.0</ele><time>2026-03-26T16:35:23.998Z</time></trkpt><trkpt lat="45.584901093447634" lon="11.363878769420356"><ele>216.0</ele><time>2026-03-26T16:35:24.998Z</time></trkpt><trkpt lat="45.5848494618244" lon="11.363955720521032"><ele>215.0</ele><time>2026-03-26T16:35:25.998Z</time></trkpt><trkpt lat="45.58482286645959" lon="11.364060986980379"><ele>214.0</ele><time>2026-03-26T16:35:26.998Z</time></trkpt><trkpt lat="45.58484642204174" lon="11.364163271091886"><ele>213.0</ele><time>2026-03-26T16:35:27.998Z</time></trkpt><trkpt lat="45.584912400592174" lon="11.364245720997758"><ele>213.0</ele><time>2026-03-26T16:35:28.998Z</time></trkpt><trkpt lat="45.58501834153428" lon="11.364283924218489"><ele>213.0</ele><time>2026-03-26T16:35:29.998Z</time></trkpt><trkpt lat="45.585138527558286" lon="11.364298819999863"><ele>213.0</ele><time>2026-03-26T16:35:30.998Z</time></trkpt><trkpt lat="45.5852322577126" lon="11.364348321436369"><ele>213.0</ele><time>2026-03-26T16:35:31.998Z</time></trkpt><trkpt lat="45.58531905179199" lon="11.364420620354904"><ele>213.0</ele><time>2026-03-26T16:35:32.998Z</time></trkpt><trkpt lat="45.5853991388146" lon="11.3645125925103"><ele>211.8</ele><time>2026-03-26T16:35:33.998Z</time></trkpt><trkpt lat="45.58547886170012" lon="11.364595916121518"><ele>210.60000000000002</ele><time>2026-03-26T16:35:34.998Z</time></trkpt><trkpt lat="45.58555895926429" lon="11.364659476393445"><ele>209.39999999999998</ele><time>2026-03-26T16:35:35.998Z</time></trkpt><trkpt lat="45.5856219116392" lon="11.364702391731813"><ele>208.2</ele><time>2026-03-26T16:35:36.998Z</time></trkpt><trkpt lat="45.58575285928831" lon="11.364733395262611"><ele>207.0</ele><time>2026-03-26T16:35:38.998Z</time></trkpt><trkpt lat="45.58586051988336" lon="11.364646338170507"><ele>207.0</ele><time>2026-03-26T16:35:39.998Z</time></trkpt><trkpt lat="45.58597840093708" lon="11.36458513837757"><ele>207.0</ele><time>2026-03-26T16:35:40.998Z</time></trkpt><trkpt lat="45.58608237547436" lon="11.364521068075518"><ele>207.0</ele><time>2026-03-26T16:35:41.998Z</time></trkpt><trkpt lat="45.58618405148876" lon="11.36446656473504"><ele>207.0</ele><time>2026-03-26T16:35:42.998Z</time></trkpt><trkpt lat="45.58629562894141" lon="11.364423857831436"><ele>203.8</ele><time>2026-03-26T16:35:43.998Z</time></trkpt><trkpt lat="45.58640834198899" lon="11.364366218756828"><ele>200.6</ele><time>2026-03-26T16:35:44.998Z</time></trkpt><trkpt lat="45.58652427127308" lon="11.364313565819584"><ele>197.4</ele><time>2026-03-26T16:35:45.998Z</time></trkpt><trkpt lat="45.586613574946384" lon="11.36425446307481"><ele>194.20000000000002</ele><time>2026-03-26T16:35:46.998Z</time></trkpt><trkpt lat="45.58670626639503" lon="11.364198999988808"><ele>191.0</ele><time>2026-03-26T16:35:47.998Z</time></trkpt><trkpt lat="45.58679405099491" lon="11.364143998358674"><ele>191.0</ele><time>2026-03-26T16:35:48.998Z</time></trkpt><trkpt lat="45.58687933072414" lon="11.364095805758494"><ele>191.0</ele><time>2026-03-26T16:35:49.998Z</time></trkpt><trkpt lat="45.58697258371117" lon="11.364071455264794"><ele>191.0</ele><time>2026-03-26T16:35:50.997Z</time></trkpt><trkpt lat="45.587060951473696" lon="11.364107416588432"><ele>191.0</ele><time>2026-03-26T16:35:51.997Z</time></trkpt><trkpt lat="45.587140342585734" lon="11.364141808384831"><ele>191.0</ele><time>2026-03-26T16:35:52.997Z</time></trkpt><trkpt lat="45.58722464323592" lon="11.364164493595664"><ele>191.0</ele><time>2026-03-26T16:35:53.997Z</time></trkpt><trkpt lat="45.587291183671006" lon="11.364264688523413"><ele>189.4</ele><time>2026-03-26T16:35:54.997Z</time></trkpt><trkpt lat="45.58738071138538" lon="11.364362204933473"><ele>187.8</ele><time>2026-03-26T16:35:55.997Z</time></trkpt><trkpt lat="45.58747522716656" lon="11.364446562467359"><ele>186.20000000000002</ele><time>2026-03-26T16:35:56.997Z</time></trkpt><trkpt lat="45.587575978955044" lon="11.364484994460499"><ele>184.60000000000002</ele><time>2026-03-26T16:35:57.997Z</time></trkpt><trkpt lat="45.58765909881182" lon="11.364549843087048"><ele>183.0</ele><time>2026-03-26T16:35:58.997Z</time></trkpt><trkpt lat="45.58774869844324" lon="11.364598207891094"><ele>183.0</ele><time>2026-03-26T16:35:59.997Z</time></trkpt><trkpt lat="45.58783844369115" lon="11.364633177193317"><ele>183.0</ele><time>2026-03-26T16:36:00.997Z</time></trkpt><trkpt lat="45.58794575052783" lon="11.364707936656487"><ele>183.0</ele><time>2026-03-26T16:36:01.997Z</time></trkpt><trkpt lat="45.588036578975334" lon="11.364788176966893"><ele>183.0</ele><time>2026-03-26T16:36:02.997Z</time></trkpt><trkpt lat="45.58812920605715" lon="11.36487252836924"><ele>183.0</ele><time>2026-03-26T16:36:03.997Z</time></trkpt><trkpt lat="45.58821219223817" lon="11.364952498313542"><ele>181.83333333333334</ele><time>2026-03-26T16:36:04.997Z</time></trkpt><trkpt lat="45.58830216705102" lon="11.36499496580275"><ele>180.66666666666666</ele><time>2026-03-26T16:36:05.997Z</time></trkpt><trkpt lat="45.588376352177306" lon="11.365041877787437"><ele>179.5</ele><time>2026-03-26T16:36:06.997Z</time></trkpt><trkpt lat="45.5884444300486" lon="11.365041623614749"><ele>178.33333333333331</ele><time>2026-03-26T16:36:07.997Z</time></trkpt><trkpt lat="45.58855091731809" lon="11.365071212649587"><ele>177.16666666666666</ele><time>2026-03-26T16:36:10Z</time></trkpt><trkpt lat="45.58862796987177" lon="11.36511023028175"><ele>176.0</ele><time>2026-03-26T16:36:12Z</time></trkpt><trkpt lat="45.58869412675304" lon="11.365195655671283"><ele>175.5</ele><time>2026-03-26T16:36:14Z</time></trkpt><trkpt lat="45.58878433236021" lon="11.3649317136161"><ele>175.0</ele><time>2026-03-26T16:36:17Z</time></trkpt><trkpt lat="45.58878249550091" lon="11.364814073424572"><ele>174.5</ele><time>2026-03-26T16:36:18Z</time></trkpt><trkpt lat="45.5888424591478" lon="11.364672421460615"><ele>174.0</ele><time>2026-03-26T16:36:20Z</time></trkpt><trkpt lat="45.588939536959934" lon="11.364643411539616"><ele>174.0</ele><time>2026-03-26T16:36:22Z</time></trkpt><trkpt lat="45.589021474705575" lon="11.364681875170305"><ele>174.0</ele><time>2026-03-26T16:36:23Z</time></trkpt><trkpt lat="45.589115319569295" lon="11.364725495095811"><ele>174.0</ele><time>2026-03-26T16:36:24Z</time></trkpt><trkpt lat="45.58921568230342" lon="11.364722175812743"><ele>174.0</ele><time>2026-03-26T16:36:25Z</time></trkpt><trkpt lat="45.58932108227352" lon="11.364751683426938"><ele>174.0</ele><time>2026-03-26T16:36:26Z</time></trkpt><trkpt lat="45.589404436354144" lon="11.364790052437897"><ele>174.0</ele><time>2026-03-26T16:36:27Z</time></trkpt><trkpt lat="45.589488163495126" lon="11.364844806667016"><ele>174.0</ele><time>2026-03-26T16:36:28Z</time></trkpt><trkpt lat="45.589565025513515" lon="11.364905526577829"><ele>174.0</ele><time>2026-03-26T16:36:29Z</time></trkpt><trkpt lat="45.589642272056295" lon="11.364987326364133"><ele>174.0</ele><time>2026-03-26T16:36:30Z</time></trkpt><trkpt lat="45.58969640457588" lon="11.365105039072636"><ele>174.0</ele><time>2026-03-26T16:36:31Z</time></trkpt><trkpt lat="45.58972871080002" lon="11.365250422673265"><ele>170.75</ele><time>2026-03-26T16:36:32Z</time></trkpt><trkpt lat="45.58973894429856" lon="11.365418368823304"><ele>167.5</ele><time>2026-03-26T16:36:33Z</time></trkpt><trkpt lat="45.589732654177986" lon="11.36560279945163"><ele>164.25</ele><time>2026-03-26T16:36:34Z</time></trkpt><trkpt lat="45.58973029785189" lon="11.365798221056144"><ele>161.0</ele><time>2026-03-26T16:36:35Z</time></trkpt><trkpt lat="45.58978142787234" lon="11.365972692561218"><ele>160.75</ele><time>2026-03-26T16:36:36Z</time></trkpt><trkpt lat="45.58987107117283" lon="11.366111680302893"><ele>160.5</ele><time>2026-03-26T16:36:37Z</time></trkpt><trkpt lat="45.58997363301369" lon="11.366217826891194"><ele>160.25</ele><time>2026-03-26T16:36:38Z</time></trkpt><trkpt lat="45.5900556938306" lon="11.366365380730004"><ele>160.0</ele><time>2026-03-26T16:36:39Z</time></trkpt><trkpt lat="45.590112223477846" lon="11.366555102435704"><ele>160.75</ele><time>2026-03-26T16:36:40Z</time></trkpt><trkpt lat="45.59014141716505" lon="11.366742013222149"><ele>161.5</ele><time>2026-03-26T16:36:41Z</time></trkpt><trkpt lat="45.590149219903594" lon="11.366906695049703"><ele>162.25</ele><time>2026-03-26T16:36:41.999Z</time></trkpt><trkpt lat="45.590145270415576" lon="11.367066237938523"><ele>163.0</ele><time>2026-03-26T16:36:42.999Z</time></trkpt><trkpt lat="45.590131363771604" lon="11.36720523878787"><ele>163.0</ele><time>2026-03-26T16:36:43.999Z</time></trkpt><trkpt lat="45.59011445481103" lon="11.36733024471049"><ele>163.0</ele><time>2026-03-26T16:36:44.999Z</time></trkpt><trkpt lat="45.59008840651953" lon="11.36743951059"><ele>163.0</ele><time>2026-03-26T16:36:45.999Z</time></trkpt><trkpt lat="45.59004917228786" lon="11.367551756374434"><ele>163.0</ele><time>2026-03-26T16:36:46.999Z</time></trkpt><trkpt lat="45.58999320724912" lon="11.367686141209573"><ele>163.0</ele><time>2026-03-26T16:36:47.999Z</time></trkpt><trkpt lat="45.58988885332875" lon="11.367787272592405"><ele>163.0</ele><time>2026-03-26T16:36:48.999Z</time></trkpt><trkpt lat="45.58979968678034" lon="11.367857150479761"><ele>163.0</ele><time>2026-03-26T16:36:49.999Z</time></trkpt><trkpt lat="45.58971579311606" lon="11.36790099388651"><ele>163.0</ele><time>2026-03-26T16:36:50.999Z</time></trkpt><trkpt lat="45.58962375850867" lon="11.367910235210466"><ele>163.0</ele><time>2026-03-26T16:36:51.999Z</time></trkpt><trkpt lat="45.589534346431314" lon="11.367903057903684"><ele>163.0</ele><time>2026-03-26T16:36:52.999Z</time></trkpt><trkpt lat="45.58947522134232" lon="11.367945808612644"><ele>163.0</ele><time>2026-03-26T16:36:53.999Z</time></trkpt><trkpt lat="45.58945501227852" lon="11.36807123619612"><ele>162.4</ele><time>2026-03-26T16:36:54.999Z</time></trkpt><trkpt lat="45.58947716358941" lon="11.368183179334121"><ele>161.8</ele><time>2026-03-26T16:36:55.999Z</time></trkpt><trkpt lat="45.589560170478364" lon="11.368285974979248"><ele>161.2</ele><time>2026-03-26T16:36:57.999Z</time></trkpt><trkpt lat="45.58962460273798" lon="11.368333939800642"><ele>160.6</ele><time>2026-03-26T16:37:01.999Z</time></trkpt><trkpt lat="45.589646704692235" lon="11.368574460028745"><ele>160.0</ele><time>2026-03-26T16:37:04.999Z</time></trkpt><trkpt lat="45.58966441791608" lon="11.368661950297412"><ele>160.0</ele><time>2026-03-26T16:37:05.999Z</time></trkpt><trkpt lat="45.5896888006209" lon="11.368750093349538"><ele>160.0</ele><time>2026-03-26T16:37:06.999Z</time></trkpt><trkpt lat="45.5897283041898" lon="11.368841292500802"><ele>160.0</ele><time>2026-03-26T16:37:07.999Z</time></trkpt><trkpt lat="45.58977534577132" lon="11.36893264582562"><ele>160.0</ele><time>2026-03-26T16:37:08.999Z</time></trkpt><trkpt lat="45.5898305539954" lon="11.369026017541504"><ele>160.0</ele><time>2026-03-26T16:37:09.999Z</time></trkpt><trkpt lat="45.589862771946365" lon="11.369140485446904"><ele>160.0</ele><time>2026-03-26T16:37:10.999Z</time></trkpt><trkpt lat="45.58992125806243" lon="11.369240636194785"><ele>159.2</ele><time>2026-03-26T16:37:11.999Z</time></trkpt><trkpt lat="45.58997731944644" lon="11.36936279184079"><ele>158.4</ele><time>2026-03-26T16:37:12.999Z</time></trkpt><trkpt lat="45.590045457910534" lon="11.369499749131032"><ele>157.6</ele><time>2026-03-26T16:37:13.999Z</time></trkpt><trkpt lat="45.59010431829742" lon="11.369635251073857"><ele>156.8</ele><time>2026-03-26T16:37:14.999Z</time></trkpt><trkpt lat="45.590151463481696" lon="11.369751241827627"><ele>156.0</ele><time>2026-03-26T16:37:15.999Z</time></trkpt><trkpt lat="45.590206457720605" lon="11.369864529577443"><ele>155.8</ele><time>2026-03-26T16:37:16.999Z</time></trkpt><trkpt lat="45.59025113443952" lon="11.369967603716551"><ele>155.6</ele><time>2026-03-26T16:37:17.999Z</time></trkpt><trkpt lat="45.59029735097503" lon="11.370074740531553"><ele>155.4</ele><time>2026-03-26T16:37:18.999Z</time></trkpt><trkpt lat="45.590351976655896" lon="11.370193674879594"><ele>155.2</ele><time>2026-03-26T16:37:19.998Z</time></trkpt><trkpt lat="45.59039381188285" lon="11.370335074460936"><ele>155.0</ele><time>2026-03-26T16:37:20.998Z</time></trkpt><trkpt lat="45.590446202335464" lon="11.370464511938417"><ele>155.6</ele><time>2026-03-26T16:37:21.998Z</time></trkpt><trkpt lat="45.59050066779434" lon="11.370599075885542"><ele>156.2</ele><time>2026-03-26T16:37:22.998Z</time></trkpt><trkpt lat="45.590559107285216" lon="11.370744172062887"><ele>156.8</ele><time>2026-03-26T16:37:23.998Z</time></trkpt><trkpt lat="45.59062532221211" lon="11.37087295475387"><ele>157.4</ele><time>2026-03-26T16:37:24.998Z</time></trkpt><trkpt lat="45.590670909138545" lon="11.3709978004231"><ele>158.0</ele><time>2026-03-26T16:37:25.998Z</time></trkpt><trkpt lat="45.59071831591262" lon="11.371116094456411"><ele>158.0</ele><time>2026-03-26T16:37:26.998Z</time></trkpt><trkpt lat="45.590764772879034" lon="11.371249612936275"><ele>158.0</ele><time>2026-03-26T16:37:27.998Z</time></trkpt><trkpt lat="45.59080880065231" lon="11.371377462735197"><ele>158.0</ele><time>2026-03-26T16:37:28.998Z</time></trkpt><trkpt lat="45.59085512924392" lon="11.37149822563744"><ele>158.0</ele><time>2026-03-26T16:37:29.998Z</time></trkpt><trkpt lat="45.59090133467516" lon="11.371631204770132"><ele>158.0</ele><time>2026-03-26T16:37:30.998Z</time></trkpt><trkpt lat="45.59093972988387" lon="11.37176816152594"><ele>158.0</ele><time>2026-03-26T16:37:31.998Z</time></trkpt><trkpt lat="45.59096953930389" lon="11.371917709801952"><ele>158.0</ele><time>2026-03-26T16:37:32.998Z</time></trkpt><trkpt lat="45.590988080750634" lon="11.372077217217889"><ele>158.0</ele><time>2026-03-26T16:37:33.998Z</time></trkpt><trkpt lat="45.590991696598145" lon="11.372241612575872"><ele>158.0</ele><time>2026-03-26T16:37:34.998Z</time></trkpt><trkpt lat="45.59098399466029" lon="11.372403513942787"><ele>157.75</ele><time>2026-03-26T16:37:35.998Z</time></trkpt><trkpt lat="45.59096697789143" lon="11.372572247125916"><ele>157.5</ele><time>2026-03-26T16:37:36.998Z</time></trkpt><trkpt lat="45.59094729764206" lon="11.372741725198543"><ele>157.25</ele><time>2026-03-26T16:37:37.998Z</time></trkpt><trkpt lat="45.5909290368292" lon="11.372919447139958"><ele>157.0</ele><time>2026-03-26T16:37:38.998Z</time></trkpt><trkpt lat="45.590903051680385" lon="11.373098634594372"><ele>156.75</ele><time>2026-03-26T16:37:39.998Z</time></trkpt><trkpt lat="45.59088172120285" lon="11.37328015989692"><ele>156.5</ele><time>2026-03-26T16:37:40.998Z</time></trkpt><trkpt lat="45.59086322836799" lon="11.373468814889744"><ele>156.25</ele><time>2026-03-26T16:37:41.998Z</time></trkpt><trkpt lat="45.59084743812354" lon="11.373652208795132"><ele>156.0</ele><time>2026-03-26T16:37:42.998Z</time></trkpt><trkpt lat="45.590839691162444" lon="11.373827863776594"><ele>155.5</ele><time>2026-03-26T16:37:43.998Z</time></trkpt><trkpt lat="45.5908422733629" lon="11.374003431866468"><ele>155.0</ele><time>2026-03-26T16:37:44.998Z</time></trkpt><trkpt lat="45.590854903754575" lon="11.37416989052004"><ele>154.5</ele><time>2026-03-26T16:37:45.998Z</time></trkpt><trkpt lat="45.59087493427933" lon="11.374310349929894"><ele>154.0</ele><time>2026-03-26T16:37:46.998Z</time></trkpt><trkpt lat="45.590896957016795" lon="11.374500683811641"><ele>154.0</ele><time>2026-03-26T16:37:47.998Z</time></trkpt><trkpt lat="45.59094052300982" lon="11.374672702988725"><ele>154.0</ele><time>2026-03-26T16:37:48.998Z</time></trkpt><trkpt lat="45.59098765814138" lon="11.374841468116742"><ele>154.0</ele><time>2026-03-26T16:37:49.998Z</time></trkpt><trkpt lat="45.59103975850017" lon="11.37499918796386"><ele>154.0</ele><time>2026-03-26T16:37:50.998Z</time></trkpt><trkpt lat="45.591101881271946" lon="11.375120418449978"><ele>154.0</ele><time>2026-03-26T16:37:51.998Z</time></trkpt><trkpt lat="45.59116321151601" lon="11.375239375271935"><ele>154.0</ele><time>2026-03-26T16:37:52.998Z</time></trkpt><trkpt lat="45.591215767834115" lon="11.375348456065987"><ele>154.0</ele><time>2026-03-26T16:37:53.998Z</time></trkpt><trkpt lat="45.591268985280564" lon="11.375447695091328"><ele>154.0</ele><time>2026-03-26T16:37:54.998Z</time></trkpt><trkpt lat="45.59131765302162" lon="11.375540801257984"><ele>154.0</ele><time>2026-03-26T16:37:55.998Z</time></trkpt><trkpt lat="45.59135832569472" lon="11.37562088534207"><ele>154.0</ele><time>2026-03-26T16:37:56.997Z</time></trkpt><trkpt lat="45.59139020189728" lon="11.375735109543701"><ele>154.0</ele><time>2026-03-26T16:37:58.997Z</time></trkpt><trkpt lat="45.591432685267286" lon="11.375864622244796"><ele>154.0</ele><time>2026-03-26T16:38:00.997Z</time></trkpt><trkpt lat="45.59140677308824" lon="11.375976298480403"><ele>154.0</ele><time>2026-03-26T16:38:01.997Z</time></trkpt><trkpt lat="45.59136591000038" lon="11.376061407345473"><ele>154.0</ele><time>2026-03-26T16:38:02.997Z</time></trkpt><trkpt lat="45.5913566555188" lon="11.376161094376677"><ele>154.0</ele><time>2026-03-26T16:38:03.997Z</time></trkpt><trkpt lat="45.59136799395502" lon="11.376277807358443"><ele>154.0</ele><time>2026-03-26T16:38:04.997Z</time></trkpt><trkpt lat="45.591389789833386" lon="11.376378436889551"><ele>154.16666666666669</ele><time>2026-03-26T16:38:05.997Z</time></trkpt><trkpt lat="45.591444490967284" lon="11.376460382481307"><ele>154.33333333333334</ele><time>2026-03-26T16:38:06.997Z</time></trkpt><trkpt lat="45.59149413855749" lon="11.376538822519278"><ele>154.5</ele><time>2026-03-26T16:38:07.997Z</time></trkpt><trkpt lat="45.591497006544934" lon="11.37667618129158"><ele>154.66666666666666</ele><time>2026-03-26T16:38:08.997Z</time></trkpt><trkpt lat="45.59148765408164" lon="11.376791443788951"><ele>154.83333333333331</ele><time>2026-03-26T16:38:09.997Z</time></trkpt><trkpt lat="45.591446201179416" lon="11.376913626857831"><ele>155.0</ele><time>2026-03-26T16:38:10.997Z</time></trkpt><trkpt lat="45.591432824852" lon="11.377042089200218"><ele>155.0</ele><time>2026-03-26T16:38:11.997Z</time></trkpt><trkpt lat="45.59130848954756" lon="11.3771141591559"><ele>155.0</ele><time>2026-03-26T16:38:12.997Z</time></trkpt><trkpt lat="45.59121919453668" lon="11.377198704134566"><ele>155.0</ele><time>2026-03-26T16:38:13.997Z</time></trkpt><trkpt lat="45.59111461022953" lon="11.377262467056617"><ele>155.0</ele><time>2026-03-26T16:38:14.997Z</time></trkpt><trkpt lat="45.5909973550342" lon="11.377291396516119"><ele>154.0</ele><time>2026-03-26T16:38:16Z</time></trkpt><trkpt lat="45.590876808120534" lon="11.377289486643923"><ele>153.0</ele><time>2026-03-26T16:38:17Z</time></trkpt><trkpt lat="45.59074811579625" lon="11.377273786460856"><ele>152.0</ele><time>2026-03-26T16:38:18Z</time></trkpt><trkpt lat="45.59061811982485" lon="11.37728454949795"><ele>151.0</ele><time>2026-03-26T16:38:19Z</time></trkpt><trkpt lat="45.590498501863166" lon="11.377315985197116"><ele>151.0</ele><time>2026-03-26T16:38:20Z</time></trkpt><trkpt lat="45.59038614102169" lon="11.377366094751455"><ele>151.0</ele><time>2026-03-26T16:38:21Z</time></trkpt><trkpt lat="45.590281380121816" lon="11.37743261913485"><ele>151.0</ele><time>2026-03-26T16:38:22Z</time></trkpt><trkpt lat="45.59017924266142" lon="11.377513555256572"><ele>151.0</ele><time>2026-03-26T16:38:23Z</time></trkpt><trkpt lat="45.59008788806103" lon="11.37760534659355"><ele>150.8</ele><time>2026-03-26T16:38:24Z</time></trkpt><trkpt lat="45.58999799609151" lon="11.377668330215384"><ele>150.6</ele><time>2026-03-26T16:38:25Z</time></trkpt><trkpt lat="45.589919260020025" lon="11.377736673078322"><ele>150.4</ele><time>2026-03-26T16:38:26Z</time></trkpt><trkpt lat="45.58983917333954" lon="11.377806364518898"><ele>150.2</ele><time>2026-03-26T16:38:27Z</time></trkpt><trkpt lat="45.58972142045765" lon="11.377914000466122"><ele>150.0</ele><time>2026-03-26T16:38:28Z</time></trkpt><trkpt lat="45.589573404249634" lon="11.378029056325063"><ele>150.0</ele><time>2026-03-26T16:38:29Z</time></trkpt><trkpt lat="45.58940421845984" lon="11.378161610286329"><ele>150.0</ele><time>2026-03-26T16:38:30Z</time></trkpt><trkpt lat="45.58921102245791" lon="11.378291466796501"><ele>150.0</ele><time>2026-03-26T16:38:31Z</time></trkpt><trkpt lat="45.589003389821826" lon="11.378411678146003"><ele>150.0</ele><time>2026-03-26T16:38:32Z</time></trkpt><trkpt lat="45.58886063660778" lon="11.378512021618633"><ele>150.0</ele><time>2026-03-26T16:38:33Z</time></trkpt><trkpt lat="45.58867616355153" lon="11.378626213537125"><ele>150.0</ele><time>2026-03-26T16:38:34Z</time></trkpt><trkpt lat="45.58849278955749" lon="11.378726213315693"><ele>150.33333333333334</ele><time>2026-03-26T16:38:35Z</time></trkpt><trkpt lat="45.588303903603986" lon="11.37882872800795"><ele>150.66666666666669</ele><time>2026-03-26T16:38:36Z</time></trkpt><trkpt lat="45.588129930736386" lon="11.378927362034993"><ele>151.0</ele><time>2026-03-26T16:38:37Z</time></trkpt><trkpt lat="45.58795507768895" lon="11.379031443304864"><ele>150.33333333333334</ele><time>2026-03-26T16:38:38Z</time></trkpt><trkpt lat="45.587787764338145" lon="11.379142874031674"><ele>149.66666666666666</ele><time>2026-03-26T16:38:39Z</time></trkpt><trkpt lat="45.5876233685511" lon="11.379230389935664"><ele>149.0</ele><time>2026-03-26T16:38:40Z</time></trkpt><trkpt lat="45.587451793409485" lon="11.379338982498195"><ele>149.0</ele><time>2026-03-26T16:38:41Z</time></trkpt><trkpt lat="45.58727511231488" lon="11.379432688930983"><ele>149.0</ele><time>2026-03-26T16:38:42Z</time></trkpt><trkpt lat="45.58710257446151" lon="11.379531203883115"><ele>149.0</ele><time>2026-03-26T16:38:43Z</time></trkpt><trkpt lat="45.58693362877604" lon="11.379617071174536"><ele>148.33333333333331</ele><time>2026-03-26T16:38:44Z</time></trkpt><trkpt lat="45.58676844213492" lon="11.37970234523881"><ele>147.66666666666666</ele><time>2026-03-26T16:38:45Z</time></trkpt><trkpt lat="45.58660515508998" lon="11.37978868336809"><ele>147.0</ele><time>2026-03-26T16:38:46Z</time></trkpt><trkpt lat="45.58644575408278" lon="11.379861595580998"><ele>147.0</ele><time>2026-03-26T16:38:47Z</time></trkpt><trkpt lat="45.58629586426194" lon="11.379925560302215"><ele>147.0</ele><time>2026-03-26T16:38:48Z</time></trkpt><trkpt lat="45.58615236956065" lon="11.379987227094286"><ele>147.0</ele><time>2026-03-26T16:38:48.999Z</time></trkpt><trkpt lat="45.58600717671348" lon="11.380058764681518"><ele>146.75</ele><time>2026-03-26T16:38:49.999Z</time></trkpt><trkpt lat="45.58586750620132" lon="11.380124790919556"><ele>146.5</ele><time>2026-03-26T16:38:50.999Z</time></trkpt><trkpt lat="45.58572517772951" lon="11.380184870666216"><ele>146.25</ele><time>2026-03-26T16:38:51.999Z</time></trkpt><trkpt lat="45.58558131790511" lon="11.380238774809724"><ele>146.0</ele><time>2026-03-26T16:38:52.999Z</time></trkpt><trkpt lat="45.58543214342467" lon="11.380293075262509"><ele>146.33333333333331</ele><time>2026-03-26T16:38:53.999Z</time></trkpt><trkpt lat="45.585276191840485" lon="11.380362764394075"><ele>146.66666666666666</ele><time>2026-03-26T16:38:54.999Z</time></trkpt><trkpt lat="45.58512707036583" lon="11.380421053937997"><ele>147.0</ele><time>2026-03-26T16:38:55.999Z</time></trkpt><trkpt lat="45.58498539698136" lon="11.380465370934354"><ele>147.0</ele><time>2026-03-26T16:38:56.999Z</time></trkpt><trkpt lat="45.584851073553736" lon="11.380510120529433"><ele>147.0</ele><time>2026-03-26T16:38:57.999Z</time></trkpt><trkpt lat="45.584711997555985" lon="11.380558377114989"><ele>147.0</ele><time>2026-03-26T16:38:58.999Z</time></trkpt><trkpt lat="45.584587717189535" lon="11.380600434515966"><ele>147.0</ele><time>2026-03-26T16:38:59.999Z</time></trkpt><trkpt lat="45.584456843758026" lon="11.38063375946369"><ele>147.0</ele><time>2026-03-26T16:39:00.999Z</time></trkpt><trkpt lat="45.5843103621489" lon="11.380676609847173"><ele>147.0</ele><time>2026-03-26T16:39:01.999Z</time></trkpt><trkpt lat="45.584154216276566" lon="11.380734624021743"><ele>147.0</ele><time>2026-03-26T16:39:02.999Z</time></trkpt><trkpt lat="45.583987256328065" lon="11.380803005450167"><ele>147.0</ele><time>2026-03-26T16:39:03.999Z</time></trkpt><trkpt lat="45.58379335108735" lon="11.380872624186107"><ele>147.0</ele><time>2026-03-26T16:39:04.999Z</time></trkpt><trkpt lat="45.583588532441524" lon="11.380949350311704"><ele>147.0</ele><time>2026-03-26T16:39:05.999Z</time></trkpt><trkpt lat="45.58338199947756" lon="11.381021499248451"><ele>147.0</ele><time>2026-03-26T16:39:06.999Z</time></trkpt><trkpt lat="45.58319406388887" lon="11.381085900379203"><ele>147.0</ele><time>2026-03-26T16:39:07.999Z</time></trkpt><trkpt lat="45.583029072271046" lon="11.381145441002044"><ele>147.0</ele><time>2026-03-26T16:39:08.999Z</time></trkpt><trkpt lat="45.58286375736752" lon="11.381209219936462"><ele>147.0</ele><time>2026-03-26T16:39:09.999Z</time></trkpt><trkpt lat="45.58270592219946" lon="11.38127362250396"><ele>147.0</ele><time>2026-03-26T16:39:10.999Z</time></trkpt><trkpt lat="45.58255835251576" lon="11.38133282206257"><ele>147.0</ele><time>2026-03-26T16:39:11.999Z</time></trkpt><trkpt lat="45.58241271438509" lon="11.381383980671831"><ele>146.25</ele><time>2026-03-26T16:39:12.999Z</time></trkpt><trkpt lat="45.58227567848824" lon="11.381429138999513"><ele>145.5</ele><time>2026-03-26T16:39:13.999Z</time></trkpt><trkpt lat="45.58214080992217" lon="11.381474848459797"><ele>144.75</ele><time>2026-03-26T16:39:14.999Z</time></trkpt><trkpt lat="45.58200523155003" lon="11.38151412082776"><ele>144.0</ele><time>2026-03-26T16:39:15.999Z</time></trkpt><trkpt lat="45.58187450514163" lon="11.381530501861926"><ele>144.0</ele><time>2026-03-26T16:39:16.999Z</time></trkpt><trkpt lat="45.58173223248385" lon="11.381524421299888"><ele>144.0</ele><time>2026-03-26T16:39:17.999Z</time></trkpt><trkpt lat="45.581591362564154" lon="11.381495504629342"><ele>144.0</ele><time>2026-03-26T16:39:18.999Z</time></trkpt><trkpt lat="45.58146999363459" lon="11.381434301603607"><ele>144.0</ele><time>2026-03-26T16:39:19.999Z</time></trkpt><trkpt lat="45.581355617344556" lon="11.38139192068074"><ele>144.25</ele><time>2026-03-26T16:39:20.999Z</time></trkpt><trkpt lat="45.58124960039299" lon="11.381340587393655"><ele>144.5</ele><time>2026-03-26T16:39:21.999Z</time></trkpt><trkpt lat="45.58114029511274" lon="11.38129198786194"><ele>144.75</ele><time>2026-03-26T16:39:22.999Z</time></trkpt><trkpt lat="45.58102322530955" lon="11.381263095801467"><ele>145.0</ele><time>2026-03-26T16:39:23.999Z</time></trkpt><trkpt lat="45.58089018191768" lon="11.381268549731347"><ele>145.0</ele><time>2026-03-26T16:39:24.999Z</time></trkpt><trkpt lat="45.58074555688919" lon="11.381307691290319"><ele>145.0</ele><time>2026-03-26T16:39:25.998Z</time></trkpt><trkpt lat="45.580591620313974" lon="11.381367816857146"><ele>145.0</ele><time>2026-03-26T16:39:26.998Z</time></trkpt><trkpt lat="45.580441234183915" lon="11.381440310696638"><ele>144.6</ele><time>2026-03-26T16:39:27.998Z</time></trkpt><trkpt lat="45.580316578463666" lon="11.381529178026307"><ele>144.2</ele><time>2026-03-26T16:39:28.998Z</time></trkpt><trkpt lat="45.5802176361514" lon="11.3816270058919"><ele>143.8</ele><time>2026-03-26T16:39:29.998Z</time></trkpt><trkpt lat="45.5801396621664" lon="11.381689330214728"><ele>143.4</ele><time>2026-03-26T16:39:30.998Z</time></trkpt><trkpt lat="45.58007036581444" lon="11.381740974976342"><ele>143.0</ele><time>2026-03-26T16:39:31.998Z</time></trkpt><trkpt lat="45.58012051553758" lon="11.381940646076695"><ele>143.0</ele><time>2026-03-26T16:39:32.998Z</time></trkpt><trkpt lat="45.58017938320278" lon="11.382049525503863"><ele>143.0</ele><time>2026-03-26T16:39:33.998Z</time></trkpt><trkpt lat="45.580264332746005" lon="11.382126679806047"><ele>143.0</ele><time>2026-03-26T16:39:34.998Z</time></trkpt><trkpt lat="45.58037864520645" lon="11.382154144626949"><ele>143.0</ele><time>2026-03-26T16:39:35.998Z</time></trkpt><trkpt lat="45.58050946225544" lon="11.382123175060155"><ele>143.0</ele><time>2026-03-26T16:39:36.998Z</time></trkpt><trkpt lat="45.580638945584774" lon="11.382065044264165"><ele>143.4</ele><time>2026-03-26T16:39:37.998Z</time></trkpt><trkpt lat="45.58074244445736" lon="11.382041990700797"><ele>143.8</ele><time>2026-03-26T16:39:38.998Z</time></trkpt><trkpt lat="45.58082869127722" lon="11.382063170555213"><ele>144.2</ele><time>2026-03-26T16:39:39.998Z</time></trkpt><trkpt lat="45.58089109982633" lon="11.382151094282278"><ele>144.6</ele><time>2026-03-26T16:39:40.998Z</time></trkpt><trkpt lat="45.580934454818745" lon="11.382268684750146"><ele>145.0</ele><time>2026-03-26T16:39:41.998Z</time></trkpt><trkpt lat="45.580961505813825" lon="11.382438933666785"><ele>145.0</ele><time>2026-03-26T16:39:42.998Z</time></trkpt><trkpt lat="45.580981051325196" lon="11.382658366550197"><ele>145.0</ele><time>2026-03-26T16:39:43.998Z</time></trkpt><trkpt lat="45.5810166575205" lon="11.382909557985958"><ele>145.0</ele><time>2026-03-26T16:39:44.998Z</time></trkpt><trkpt lat="45.581071751768434" lon="11.383175693096613"><ele>145.0</ele><time>2026-03-26T16:39:45.998Z</time></trkpt><trkpt lat="45.58111612078343" lon="11.383430711337517"><ele>145.0</ele><time>2026-03-26T16:39:46.998Z</time></trkpt><trkpt lat="45.581165101544855" lon="11.383683364689752"><ele>145.0</ele><time>2026-03-26T16:39:47.998Z</time></trkpt><trkpt lat="45.58120507990338" lon="11.383944953685326"><ele>144.33333333333334</ele><time>2026-03-26T16:39:48.998Z</time></trkpt><trkpt lat="45.581237622007045" lon="11.384197716317674"><ele>143.66666666666666</ele><time>2026-03-26T16:39:49.998Z</time></trkpt><trkpt lat="45.58128265263105" lon="11.384440097964475"><ele>143.0</ele><time>2026-03-26T16:39:50.998Z</time></trkpt><trkpt lat="45.581318973443" lon="11.384637839435952"><ele>143.25</ele><time>2026-03-26T16:39:51.998Z</time></trkpt><trkpt lat="45.581343217714945" lon="11.384799661242884"><ele>143.5</ele><time>2026-03-26T16:39:52.998Z</time></trkpt><trkpt lat="45.58137699298125" lon="11.384966167805478"><ele>143.75</ele><time>2026-03-26T16:39:53.998Z</time></trkpt><trkpt lat="45.58141124196659" lon="11.385128957519823"><ele>144.0</ele><time>2026-03-26T16:39:54.998Z</time></trkpt><trkpt lat="45.58142989176923" lon="11.385283172471874"><ele>144.0</ele><time>2026-03-26T16:39:55.998Z</time></trkpt><trkpt lat="45.581461087659235" lon="11.385438923390016"><ele>144.0</ele><time>2026-03-26T16:39:56.998Z</time></trkpt><trkpt lat="45.58149247528127" lon="11.385592410458136"><ele>144.0</ele><time>2026-03-26T16:39:57.998Z</time></trkpt><trkpt lat="45.58151065379068" lon="11.385750267536379"><ele>144.0</ele><time>2026-03-26T16:39:58.998Z</time></trkpt><trkpt lat="45.58153731774487" lon="11.385888128353495"><ele>144.0</ele><time>2026-03-26T16:39:59.998Z</time></trkpt><trkpt lat="45.58155881253949" lon="11.386014163154522"><ele>143.8</ele><time>2026-03-26T16:40:00.998Z</time></trkpt><trkpt lat="45.58158287168437" lon="11.386141609279077"><ele>143.60000000000002</ele><time>2026-03-26T16:40:01.998Z</time></trkpt><trkpt lat="45.58160541010683" lon="11.386274368137734"><ele>143.4</ele><time>2026-03-26T16:40:02.998Z</time></trkpt><trkpt lat="45.581625554464665" lon="11.386407577889255"><ele>143.20000000000002</ele><time>2026-03-26T16:40:03.997Z</time></trkpt><trkpt lat="45.58164976192874" lon="11.386525258874011"><ele>143.0</ele><time>2026-03-26T16:40:04.997Z</time></trkpt><trkpt lat="45.58168056132241" lon="11.386636699348523"><ele>142.85714285714283</ele><time>2026-03-26T16:40:05.997Z</time></trkpt><trkpt lat="45.58169139877015" lon="11.386735043726432"><ele>142.71428571428572</ele><time>2026-03-26T16:40:06.997Z</time></trkpt><trkpt lat="45.581710890140656" lon="11.386824367244538"><ele>142.57142857142856</ele><time>2026-03-26T16:40:07.997Z</time></trkpt><trkpt lat="45.58174356652523" lon="11.386909373006283"><ele>142.42857142857142</ele><time>2026-03-26T16:40:08.997Z</time></trkpt><trkpt lat="45.58178393715296" lon="11.386987333637155"><ele>142.28571428571428</ele><time>2026-03-26T16:40:09.997Z</time></trkpt><trkpt lat="45.58181780960272" lon="11.387071825912699"><ele>142.14285714285714</ele><time>2026-03-26T16:40:10.997Z</time></trkpt><trkpt lat="45.581843528634245" lon="11.387177863001991"><ele>142.0</ele><time>2026-03-26T16:40:11.997Z</time></trkpt><trkpt lat="45.58185894462669" lon="11.387301536269364"><ele>142.0</ele><time>2026-03-26T16:40:12.997Z</time></trkpt><trkpt lat="45.58187759455455" lon="11.38747851138876"><ele>142.0</ele><time>2026-03-26T16:40:13.997Z</time></trkpt><trkpt lat="45.5818772889829" lon="11.387694513291876"><ele>142.0</ele><time>2026-03-26T16:40:14.997Z</time></trkpt><trkpt lat="45.581885598864176" lon="11.387914887236846"><ele>142.0</ele><time>2026-03-26T16:40:15.997Z</time></trkpt><trkpt lat="45.58192242124726" lon="11.388161632495676"><ele>142.0</ele><time>2026-03-26T16:40:16.997Z</time></trkpt><trkpt lat="45.58196566497979" lon="11.388385619052098"><ele>142.0</ele><time>2026-03-26T16:40:17.997Z</time></trkpt><trkpt lat="45.58200247421439" lon="11.388578697168686"><ele>142.0</ele><time>2026-03-26T16:40:18.997Z</time></trkpt><trkpt lat="45.5820320789313" lon="11.388757850830412"><ele>142.0</ele><time>2026-03-26T16:40:19.997Z</time></trkpt><trkpt lat="45.58206027332661" lon="11.388918594201995"><ele>142.0</ele><time>2026-03-26T16:40:20.997Z</time></trkpt><trkpt lat="45.582078105579164" lon="11.389043320633492"><ele>142.0</ele><time>2026-03-26T16:40:22Z</time></trkpt><trkpt lat="45.582096683966135" lon="11.389143759914873"><ele>142.0</ele><time>2026-03-26T16:40:23Z</time></trkpt><trkpt lat="45.58211418141925" lon="11.389234264058993"><ele>142.0</ele><time>2026-03-26T16:40:24Z</time></trkpt><trkpt lat="45.58212366008032" lon="11.389332334268563"><ele>142.0</ele><time>2026-03-26T16:40:25Z</time></trkpt><trkpt lat="45.58213642330845" lon="11.389445578670017"><ele>142.0</ele><time>2026-03-26T16:40:26Z</time></trkpt><trkpt lat="45.58214733396142" lon="11.389564859865748"><ele>141.79999999999998</ele><time>2026-03-26T16:40:27Z</time></trkpt><trkpt lat="45.58216982562031" lon="11.389691444434767"><ele>141.6</ele><time>2026-03-26T16:40:28Z</time></trkpt><trkpt lat="45.582191527032" lon="11.389811881771836"><ele>141.39999999999998</ele><time>2026-03-26T16:40:29Z</time></trkpt><trkpt lat="45.582215107139554" lon="11.389948802845845"><ele>141.2</ele><time>2026-03-26T16:40:30Z</time></trkpt><trkpt lat="45.582254510964205" lon="11.390105648962924"><ele>141.0</ele><time>2026-03-26T16:40:31Z</time></trkpt><trkpt lat="45.58227881636195" lon="11.390259288033272"><ele>141.0</ele><time>2026-03-26T16:40:32Z</time></trkpt><trkpt lat="45.58230139359769" lon="11.3904106940929"><ele>141.0</ele><time>2026-03-26T16:40:33Z</time></trkpt><trkpt lat="45.58232726411564" lon="11.390572981019549"><ele>141.0</ele><time>2026-03-26T16:40:34Z</time></trkpt><trkpt lat="45.5823530746685" lon="11.390699511830476"><ele>141.0</ele><time>2026-03-26T16:40:35Z</time></trkpt><trkpt lat="45.582373357059325" lon="11.390832033054378"><ele>141.0</ele><time>2026-03-26T16:40:36Z</time></trkpt><trkpt lat="45.582388865801136" lon="11.39095792247404"><ele>140.8</ele><time>2026-03-26T16:40:37Z</time></trkpt><trkpt lat="45.58241598661692" lon="11.391101543562693"><ele>140.6</ele><time>2026-03-26T16:40:38Z</time></trkpt><trkpt lat="45.58244270040279" lon="11.391249791461647"><ele>140.4</ele><time>2026-03-26T16:40:39Z</time></trkpt><trkpt lat="45.5824727721155" lon="11.391402846885205"><ele>140.2</ele><time>2026-03-26T16:40:40Z</time></trkpt><trkpt lat="45.58250287302139" lon="11.391562836800425"><ele>140.0</ele><time>2026-03-26T16:40:41Z</time></trkpt><trkpt lat="45.58253392454641" lon="11.39172641760361"><ele>139.75</ele><time>2026-03-26T16:40:42Z</time></trkpt><trkpt lat="45.58255593865938" lon="11.391889607444684"><ele>139.5</ele><time>2026-03-26T16:40:43Z</time></trkpt><trkpt lat="45.58258698720079" lon="11.392052620118857"><ele>139.25</ele><time>2026-03-26T16:40:44Z</time></trkpt><trkpt lat="45.582620063319396" lon="11.392215666391204"><ele>139.0</ele><time>2026-03-26T16:40:45Z</time></trkpt><trkpt lat="45.58264592251344" lon="11.392359004010892"><ele>139.0</ele><time>2026-03-26T16:40:46Z</time></trkpt><trkpt lat="45.58267427847983" lon="11.39249936747214"><ele>139.0</ele><time>2026-03-26T16:40:47Z</time></trkpt><trkpt lat="45.582696396899244" lon="11.392622972562565"><ele>139.0</ele><time>2026-03-26T16:40:48Z</time></trkpt><trkpt lat="45.58272632858025" lon="11.39274985078043"><ele>139.0</ele><time>2026-03-26T16:40:49Z</time></trkpt><trkpt lat="45.58274576618004" lon="11.39287908424251"><ele>139.0</ele><time>2026-03-26T16:40:50Z</time></trkpt><trkpt lat="45.58276845664465" lon="11.393011184898558"><ele>139.2</ele><time>2026-03-26T16:40:51Z</time></trkpt><trkpt lat="45.58279550809616" lon="11.393122484496539"><ele>139.4</ele><time>2026-03-26T16:40:52Z</time></trkpt><trkpt lat="45.58280975677098" lon="11.393221238184797"><ele>139.6</ele><time>2026-03-26T16:40:52.999Z</time></trkpt><trkpt lat="45.58282805981493" lon="11.393338510676534"><ele>139.8</ele><time>2026-03-26T16:40:53.999Z</time></trkpt><trkpt lat="45.582853920277465" lon="11.393436544476375"><ele>140.0</ele><time>2026-03-26T16:40:54.999Z</time></trkpt><trkpt lat="45.582885438672434" lon="11.393639884037498"><ele>140.0</ele><time>2026-03-26T16:40:55.999Z</time></trkpt><trkpt lat="45.582915330414714" lon="11.393792925837579"><ele>140.0</ele><time>2026-03-26T16:40:56.999Z</time></trkpt><trkpt lat="45.582931375423314" lon="11.393928246557635"><ele>140.0</ele><time>2026-03-26T16:40:57.999Z</time></trkpt><trkpt lat="45.582952937378444" lon="11.394064142426958"><ele>140.0</ele><time>2026-03-26T16:40:58.999Z</time></trkpt><trkpt lat="45.58297597247033" lon="11.394186696014911"><ele>140.0</ele><time>2026-03-26T16:40:59.999Z</time></trkpt><trkpt lat="45.58299423706851" lon="11.394299112513359"><ele>139.8</ele><time>2026-03-26T16:41:00.999Z</time></trkpt><trkpt lat="45.58300895114656" lon="11.394391430741814"><ele>139.6</ele><time>2026-03-26T16:41:01.999Z</time></trkpt><trkpt lat="45.5830311315543" lon="11.394527307346278"><ele>139.4</ele><time>2026-03-26T16:41:03.999Z</time></trkpt><trkpt lat="45.58305094133029" lon="11.394649460772103"><ele>139.2</ele><time>2026-03-26T16:41:05.999Z</time></trkpt><trkpt lat="45.58309165173807" lon="11.394846270385283"><ele>139.0</ele><time>2026-03-26T16:41:07.999Z</time></trkpt><trkpt lat="45.583106544315264" lon="11.39495357838244"><ele>139.0</ele><time>2026-03-26T16:41:08.999Z</time></trkpt><trkpt lat="45.58313123755277" lon="11.395073485310418"><ele>139.0</ele><time>2026-03-26T16:41:09.999Z</time></trkpt><trkpt lat="45.58315647614548" lon="11.395202494364353"><ele>139.0</ele><time>2026-03-26T16:41:10.999Z</time></trkpt><trkpt lat="45.583184994123464" lon="11.395330966306133"><ele>139.0</ele><time>2026-03-26T16:41:11.999Z</time></trkpt><trkpt lat="45.58322088662691" lon="11.395466983070234"><ele>139.0</ele><time>2026-03-26T16:41:12.999Z</time></trkpt><trkpt lat="45.58326352792757" lon="11.395603652799576"><ele>139.0</ele><time>2026-03-26T16:41:13.999Z</time></trkpt><trkpt lat="45.583306091266" lon="11.39573757286889"><ele>139.0</ele><time>2026-03-26T16:41:14.999Z</time></trkpt><trkpt lat="45.58334970549313" lon="11.395858730171177"><ele>139.0</ele><time>2026-03-26T16:41:15.999Z</time></trkpt><trkpt lat="45.58339692330504" lon="11.39597687759964"><ele>139.0</ele><time>2026-03-26T16:41:16.999Z</time></trkpt><trkpt lat="45.58344952986156" lon="11.396096155942043"><ele>139.0</ele><time>2026-03-26T16:41:17.999Z</time></trkpt><trkpt lat="45.58350753370886" lon="11.396213816567936"><ele>139.0</ele><time>2026-03-26T16:41:18.999Z</time></trkpt><trkpt lat="45.583567009418445" lon="11.396330925833265"><ele>139.0</ele><time>2026-03-26T16:41:19.999Z</time></trkpt><trkpt lat="45.583626546531946" lon="11.396451981646502"><ele>139.0</ele><time>2026-03-26T16:41:20.999Z</time></trkpt><trkpt lat="45.583694194899365" lon="11.396580019457943"><ele>139.0</ele><time>2026-03-26T16:41:21.999Z</time></trkpt><trkpt lat="45.58376881050835" lon="11.396708687884676"><ele>139.0</ele><time>2026-03-26T16:41:22.999Z</time></trkpt><trkpt lat="45.58385972355749" lon="11.39685103816679"><ele>140.0</ele><time>2026-03-26T16:41:23.999Z</time></trkpt><trkpt lat="45.5839469284236" lon="11.397053331085322"><ele>141.0</ele><time>2026-03-26T16:41:24.999Z</time></trkpt><trkpt lat="45.58405359372474" lon="11.397253742989946"><ele>142.0</ele><time>2026-03-26T16:41:25.999Z</time></trkpt><trkpt lat="45.584158072326204" lon="11.397450085750531"><ele>142.25</ele><time>2026-03-26T16:41:26.999Z</time></trkpt><trkpt lat="45.58425476989314" lon="11.397631802440095"><ele>142.5</ele><time>2026-03-26T16:41:27.999Z</time></trkpt><trkpt lat="45.58434569510079" lon="11.397802671540779"><ele>142.75</ele><time>2026-03-26T16:41:28.999Z</time></trkpt><trkpt lat="45.584438280175306" lon="11.397949431407913"><ele>143.0</ele><time>2026-03-26T16:41:29.999Z</time></trkpt><trkpt lat="45.58451249511204" lon="11.39809779413598"><ele>144.5</ele><time>2026-03-26T16:41:30.998Z</time></trkpt><trkpt lat="45.584587938112605" lon="11.398236716234369"><ele>146.0</ele><time>2026-03-26T16:41:31.998Z</time></trkpt><trkpt lat="45.58465929001475" lon="11.39836961646883"><ele>147.5</ele><time>2026-03-26T16:41:32.998Z</time></trkpt><trkpt lat="45.58472782599606" lon="11.398501464508033"><ele>149.0</ele><time>2026-03-26T16:41:33.998Z</time></trkpt><trkpt lat="45.58479881772239" lon="11.398636623820284"><ele>149.0</ele><time>2026-03-26T16:41:34.998Z</time></trkpt><trkpt lat="45.584872822849796" lon="11.398775802739157"><ele>149.0</ele><time>2026-03-26T16:41:35.998Z</time></trkpt><trkpt lat="45.5849439312891" lon="11.398920167780968"><ele>149.0</ele><time>2026-03-26T16:41:36.998Z</time></trkpt><trkpt lat="45.58501135709295" lon="11.399062500829961"><ele>149.0</ele><time>2026-03-26T16:41:37.998Z</time></trkpt><trkpt lat="45.58508376665025" lon="11.399194279711187"><ele>149.2</ele><time>2026-03-26T16:41:38.998Z</time></trkpt><trkpt lat="45.58514431192804" lon="11.399307289621161"><ele>149.4</ele><time>2026-03-26T16:41:39.998Z</time></trkpt><trkpt lat="45.585198813064856" lon="11.399405141312393"><ele>149.6</ele><time>2026-03-26T16:41:40.998Z</time></trkpt><trkpt lat="45.5852606983984" lon="11.399506605359628"><ele>149.8</ele><time>2026-03-26T16:41:41.998Z</time></trkpt><trkpt lat="45.58533077875188" lon="11.399626578248778"><ele>150.0</ele><time>2026-03-26T16:41:42.998Z</time></trkpt><trkpt lat="45.58539726986039" lon="11.399737970201993"><ele>152.4</ele><time>2026-03-26T16:41:43.998Z</time></trkpt><trkpt lat="45.585442661261055" lon="11.399832912438528"><ele>154.8</ele><time>2026-03-26T16:41:44.998Z</time></trkpt><trkpt lat="45.585443009519274" lon="11.399928342450979"><ele>157.2</ele><time>2026-03-26T16:41:45.998Z</time></trkpt><trkpt lat="45.58531292525339" lon="11.400009241425028"><ele>159.6</ele><time>2026-03-26T16:41:47.998Z</time></trkpt><trkpt lat="45.58522169965485" lon="11.40008465087546"><ele>162.0</ele><time>2026-03-26T16:41:48.998Z</time></trkpt><trkpt lat="45.58519462731029" lon="11.40023168536707"><ele>162.25</ele><time>2026-03-26T16:41:49.998Z</time></trkpt><trkpt lat="45.585180820853154" lon="11.400414336977622"><ele>162.5</ele><time>2026-03-26T16:41:50.998Z</time></trkpt><trkpt lat="45.58520897463182" lon="11.400617453018986"><ele>162.75</ele><time>2026-03-26T16:41:51.998Z</time></trkpt><trkpt lat="45.585211797471835" lon="11.400798448476754"><ele>163.0</ele><time>2026-03-26T16:41:52.998Z</time></trkpt><trkpt lat="45.5851718286985" lon="11.400936641771963"><ele>164.0</ele><time>2026-03-26T16:41:53.998Z</time></trkpt><trkpt lat="45.585097636882644" lon="11.40107354435712"><ele>165.0</ele><time>2026-03-26T16:41:54.998Z</time></trkpt><trkpt lat="45.5850067428546" lon="11.401197889918416"><ele>166.0</ele><time>2026-03-26T16:41:55.998Z</time></trkpt><trkpt lat="45.58489541106396" lon="11.401329622952886"><ele>167.0</ele><time>2026-03-26T16:41:56.998Z</time></trkpt><trkpt lat="45.584786682150565" lon="11.401476396834619"><ele>167.0</ele><time>2026-03-26T16:41:57.998Z</time></trkpt><trkpt lat="45.58469853125544" lon="11.401672181175318"><ele>167.0</ele><time>2026-03-26T16:41:58.998Z</time></trkpt><trkpt lat="45.58461332247947" lon="11.401868500244541"><ele>167.0</ele><time>2026-03-26T16:41:59.998Z</time></trkpt><trkpt lat="45.58454091419857" lon="11.402034030916127"><ele>171.75</ele><time>2026-03-26T16:42:00.998Z</time></trkpt><trkpt lat="45.58446423364282" lon="11.402151316806329"><ele>176.5</ele><time>2026-03-26T16:42:01.998Z</time></trkpt><trkpt lat="45.584354472780674" lon="11.402232859694047"><ele>181.25</ele><time>2026-03-26T16:42:02.998Z</time></trkpt><trkpt lat="45.584190010556" lon="11.402270705123984"><ele>186.0</ele><time>2026-03-26T16:42:03.998Z</time></trkpt><trkpt lat="45.58403152644669" lon="11.402305809278014"><ele>186.0</ele><time>2026-03-26T16:42:04.998Z</time></trkpt><trkpt lat="45.58385353052539" lon="11.402344272524752"><ele>186.0</ele><time>2026-03-26T16:42:05.998Z</time></trkpt><trkpt lat="45.58366123754283" lon="11.402393805002026"><ele>186.0</ele><time>2026-03-26T16:42:06.998Z</time></trkpt><trkpt lat="45.58347481267766" lon="11.40246218985399"><ele>191.0</ele><time>2026-03-26T16:42:07.998Z</time></trkpt><trkpt lat="45.583318489060545" lon="11.402503888766988"><ele>196.0</ele><time>2026-03-26T16:42:08.997Z</time></trkpt><trkpt lat="45.583177745746454" lon="11.402568165101098"><ele>201.0</ele><time>2026-03-26T16:42:09.997Z</time></trkpt><trkpt lat="45.583095772930726" lon="11.402640282982267"><ele>206.0</ele><time>2026-03-26T16:42:10.997Z</time></trkpt><trkpt lat="45.58305143250355" lon="11.402747453008967"><ele>206.0</ele><time>2026-03-26T16:42:11.997Z</time></trkpt><trkpt lat="45.58306647009086" lon="11.40290036825346"><ele>206.0</ele><time>2026-03-26T16:42:12.997Z</time></trkpt><trkpt lat="45.58312268236886" lon="11.403075524241158"><ele>206.0</ele><time>2026-03-26T16:42:13.997Z</time></trkpt><trkpt lat="45.583209877961636" lon="11.403226347727065"><ele>206.0</ele><time>2026-03-26T16:42:14.997Z</time></trkpt><trkpt lat="45.58324358669025" lon="11.403351400161087"><ele>204.75</ele><time>2026-03-26T16:42:15.997Z</time></trkpt><trkpt lat="45.58324664501616" lon="11.40348361274797"><ele>203.5</ele><time>2026-03-26T16:42:17.997Z</time></trkpt><trkpt lat="45.58302944156734" lon="11.40341469494523"><ele>202.25</ele><time>2026-03-26T16:42:19.997Z</time></trkpt><trkpt lat="45.58292820216491" lon="11.40344933873907"><ele>201.0</ele><time>2026-03-26T16:42:20.997Z</time></trkpt><trkpt lat="45.58284445083017" lon="11.4036362137655"><ele>203.75</ele><time>2026-03-26T16:42:21.997Z</time></trkpt><trkpt lat="45.58276892836792" lon="11.403818239951011"><ele>206.5</ele><time>2026-03-26T16:42:22.997Z</time></trkpt><trkpt lat="45.582682321965315" lon="11.403982828403391"><ele>209.25</ele><time>2026-03-26T16:42:23.997Z</time></trkpt><trkpt lat="45.58258639187363" lon="11.404047628695151"><ele>212.0</ele><time>2026-03-26T16:42:24.997Z</time></trkpt><trkpt lat="45.582488123584085" lon="11.40410959216841"><ele>212.0</ele><time>2026-03-26T16:42:25.997Z</time></trkpt><trkpt lat="45.58238297291528" lon="11.404089102732504"><ele>212.0</ele><time>2026-03-26T16:42:26.997Z</time></trkpt><trkpt lat="45.58227953766639" lon="11.403994451794691"><ele>212.0</ele><time>2026-03-26T16:42:28Z</time></trkpt><trkpt lat="45.58220859035163" lon="11.403815161355842"><ele>212.0</ele><time>2026-03-26T16:42:29Z</time></trkpt><trkpt lat="45.58210394301075" lon="11.403652811459787"><ele>213.0</ele><time>2026-03-26T16:42:30Z</time></trkpt><trkpt lat="45.582016275267705" lon="11.403442695557438"><ele>214.0</ele><time>2026-03-26T16:42:31Z</time></trkpt><trkpt lat="45.58189658931925" lon="11.403192589239572"><ele>215.0</ele><time>2026-03-26T16:42:32Z</time></trkpt><trkpt lat="45.58180183410303" lon="11.402982951799787"><ele>218.66666666666669</ele><time>2026-03-26T16:42:33Z</time></trkpt><trkpt lat="45.581693938902596" lon="11.402815421022767"><ele>222.33333333333331</ele><time>2026-03-26T16:42:34Z</time></trkpt><trkpt lat="45.581550394910195" lon="11.402646823922057"><ele>226.0</ele><time>2026-03-26T16:42:35Z</time></trkpt><trkpt lat="45.581375296898806" lon="11.402578846206504"><ele>227.33333333333331</ele><time>2026-03-26T16:42:36Z</time></trkpt><trkpt lat="45.58117588589211" lon="11.402529789106444"><ele>228.66666666666669</ele><time>2026-03-26T16:42:37Z</time></trkpt><trkpt lat="45.580999114562644" lon="11.402532551477464"><ele>230.0</ele><time>2026-03-26T16:42:38Z</time></trkpt><trkpt lat="45.580844128108964" lon="11.402536035664879"><ele>230.0</ele><time>2026-03-26T16:42:39Z</time></trkpt><trkpt lat="45.58069883734416" lon="11.402478178555093"><ele>230.0</ele><time>2026-03-26T16:42:40Z</time></trkpt><trkpt lat="45.58056387686578" lon="11.40244225893288"><ele>230.0</ele><time>2026-03-26T16:42:41Z</time></trkpt><trkpt lat="45.58041305976392" lon="11.402448703435304"><ele>230.0</ele><time>2026-03-26T16:42:42Z</time></trkpt><trkpt lat="45.58028987013295" lon="11.4025856162974"><ele>230.33333333333334</ele><time>2026-03-26T16:42:43Z</time></trkpt><trkpt lat="45.5802061631863" lon="11.402743208630305"><ele>230.66666666666669</ele><time>2026-03-26T16:42:44Z</time></trkpt><trkpt lat="45.58013733738785" lon="11.402966804722457"><ele>231.0</ele><time>2026-03-26T16:42:45Z</time></trkpt><trkpt lat="45.58011855476715" lon="11.403182369760106"><ele>231.0</ele><time>2026-03-26T16:42:46Z</time></trkpt><trkpt lat="45.5800762717785" lon="11.403305949187502"><ele>231.00000000000003</ele><time>2026-03-26T16:42:47Z</time></trkpt><trkpt lat="45.580024473175776" lon="11.403398093446006"><ele>231.00000000000003</ele><time>2026-03-26T16:42:48Z</time></trkpt><trkpt lat="45.579901719370085" lon="11.40339877863779"><ele>231.0</ele><time>2026-03-26T16:42:49Z</time></trkpt><trkpt lat="45.57975647846464" lon="11.403424139869735"><ele>231.0</ele><time>2026-03-26T16:42:50Z</time></trkpt><trkpt lat="45.57958514792846" lon="11.403470324225662"><ele>231.75</ele><time>2026-03-26T16:42:51Z</time></trkpt><trkpt lat="45.57941863253642" lon="11.403486248431873"><ele>232.5</ele><time>2026-03-26T16:42:52Z</time></trkpt><trkpt lat="45.57927921118409" lon="11.403446325946865"><ele>233.25</ele><time>2026-03-26T16:42:53Z</time></trkpt><trkpt lat="45.57915484006326" lon="11.403376748443565"><ele>234.0</ele><time>2026-03-26T16:42:54Z</time></trkpt><trkpt lat="45.57900609037246" lon="11.403297017003744"><ele>234.0</ele><time>2026-03-26T16:42:55Z</time></trkpt><trkpt lat="45.578879501470176" lon="11.403175082842647"><ele>234.0</ele><time>2026-03-26T16:42:56Z</time></trkpt><trkpt lat="45.57877447531063" lon="11.403045917571836"><ele>234.0</ele><time>2026-03-26T16:42:57Z</time></trkpt><trkpt lat="45.57869726016502" lon="11.402877106026684"><ele>234.0</ele><time>2026-03-26T16:42:57.999Z</time></trkpt><trkpt lat="45.57861542184507" lon="11.402700854153725"><ele>235.66666666666669</ele><time>2026-03-26T16:42:58.999Z</time></trkpt><trkpt lat="45.578529409784615" lon="11.402524500817558"><ele>237.33333333333334</ele><time>2026-03-26T16:42:59.999Z</time></trkpt><trkpt lat="45.578436387453735" lon="11.402345608886577"><ele>239.0</ele><time>2026-03-26T16:43:00.999Z</time></trkpt><trkpt lat="45.57832918995397" lon="11.402155057789468"><ele>240.5</ele><time>2026-03-26T16:43:01.999Z</time></trkpt><trkpt lat="45.578221038839956" lon="11.401967031924778"><ele>242.0</ele><time>2026-03-26T16:43:02.999Z</time></trkpt><trkpt lat="45.57813599036435" lon="11.401810786087722"><ele>243.5</ele><time>2026-03-26T16:43:03.999Z</time></trkpt><trkpt lat="45.578072979590225" lon="11.401683993398038"><ele>245.0</ele><time>2026-03-26T16:43:04.999Z</time></trkpt><trkpt lat="45.57800238891234" lon="11.401585742243013"><ele>245.0</ele><time>2026-03-26T16:43:05.999Z</time></trkpt><trkpt lat="45.57794043043945" lon="11.401540900629827"><ele>245.0</ele><time>2026-03-26T16:43:06.999Z</time></trkpt><trkpt lat="45.577873510727244" lon="11.401508161118148"><ele>245.0</ele><time>2026-03-26T16:43:07.999Z</time></trkpt><trkpt lat="45.577744540247565" lon="11.401595705363729"><ele>245.0</ele><time>2026-03-26T16:43:08.999Z</time></trkpt><trkpt lat="45.577607989377825" lon="11.40166024088046"><ele>245.0</ele><time>2026-03-26T16:43:09.999Z</time></trkpt><trkpt lat="45.57747726401097" lon="11.40163836422348"><ele>245.66666666666669</ele><time>2026-03-26T16:43:10.999Z</time></trkpt><trkpt lat="45.57735515748396" lon="11.401538884778068"><ele>246.33333333333331</ele><time>2026-03-26T16:43:11.999Z</time></trkpt><trkpt lat="45.577208071136326" lon="11.40142000108147"><ele>247.0</ele><time>2026-03-26T16:43:12.999Z</time></trkpt><trkpt lat="45.57704540764797" lon="11.401294871045474"><ele>244.66666666666666</ele><time>2026-03-26T16:43:13.999Z</time></trkpt><trkpt lat="45.576840618966536" lon="11.40119706474706"><ele>242.33333333333331</ele><time>2026-03-26T16:43:14.999Z</time></trkpt><trkpt lat="45.57666610422699" lon="11.401112265324532"><ele>240.0</ele><time>2026-03-26T16:43:15.999Z</time></trkpt><trkpt lat="45.57652634596284" lon="11.401019369332907"><ele>240.0</ele><time>2026-03-26T16:43:16.999Z</time></trkpt><trkpt lat="45.57638631590158" lon="11.400870557805026"><ele>240.0</ele><time>2026-03-26T16:43:17.999Z</time></trkpt><trkpt lat="45.576260225727985" lon="11.400662890400403"><ele>240.0</ele><time>2026-03-26T16:43:18.999Z</time></trkpt><trkpt lat="45.576144638822036" lon="11.400456576495237"><ele>238.0</ele><time>2026-03-26T16:43:19.999Z</time></trkpt><trkpt lat="45.5760077463317" lon="11.400328495299599"><ele>236.0</ele><time>2026-03-26T16:43:20.999Z</time></trkpt><trkpt lat="45.57581372844664" lon="11.400236108533651"><ele>234.0</ele><time>2026-03-26T16:43:21.999Z</time></trkpt><trkpt lat="45.5756126181087" lon="11.400215157874008"><ele>234.0</ele><time>2026-03-26T16:43:22.999Z</time></trkpt><trkpt lat="45.57544323541723" lon="11.400189221214745"><ele>234.0</ele><time>2026-03-26T16:43:23.999Z</time></trkpt><trkpt lat="45.57531252500056" lon="11.400180742039252"><ele>234.0</ele><time>2026-03-26T16:43:24.999Z</time></trkpt><trkpt lat="45.575213164210425" lon="11.40011248608542"><ele>234.0</ele><time>2026-03-26T16:43:25.999Z</time></trkpt><trkpt lat="45.57513016830267" lon="11.399990580666268"><ele>232.0</ele><time>2026-03-26T16:43:26.999Z</time></trkpt><trkpt lat="45.57504934776873" lon="11.399785039354837"><ele>230.0</ele><time>2026-03-26T16:43:27.999Z</time></trkpt><trkpt lat="45.57493469133088" lon="11.399589593252587"><ele>228.0</ele><time>2026-03-26T16:43:28.999Z</time></trkpt><trkpt lat="45.574803159702704" lon="11.399434916680505"><ele>228.0</ele><time>2026-03-26T16:43:29.999Z</time></trkpt><trkpt lat="45.57464212233417" lon="11.399378522530897"><ele>228.0</ele><time>2026-03-26T16:43:30.999Z</time></trkpt><trkpt lat="45.57446801139418" lon="11.399394258874636"><ele>228.0</ele><time>2026-03-26T16:43:31.999Z</time></trkpt><trkpt lat="45.57430538757968" lon="11.399394987989298"><ele>226.25</ele><time>2026-03-26T16:43:32.999Z</time></trkpt><trkpt lat="45.57416786482089" lon="11.399409460712535"><ele>224.5</ele><time>2026-03-26T16:43:33.999Z</time></trkpt><trkpt lat="45.57405696442781" lon="11.399355309670634"><ele>222.75</ele><time>2026-03-26T16:43:34.999Z</time></trkpt><trkpt lat="45.57394368284199" lon="11.399248609206413"><ele>221.0</ele><time>2026-03-26T16:43:35.999Z</time></trkpt><trkpt lat="45.57382906129696" lon="11.399109766007085"><ele>221.0</ele><time>2026-03-26T16:43:36.999Z</time></trkpt><trkpt lat="45.57373838882263" lon="11.39900630440378"><ele>221.0</ele><time>2026-03-26T16:43:37.998Z</time></trkpt><trkpt lat="45.57365641046582" lon="11.398938646787805"><ele>221.0</ele><time>2026-03-26T16:43:38.998Z</time></trkpt><trkpt lat="45.573536897292556" lon="11.39897689362296"><ele>221.0</ele><time>2026-03-26T16:43:39.998Z</time></trkpt><trkpt lat="45.573414043538676" lon="11.399043335286596"><ele>221.0</ele><time>2026-03-26T16:43:40.998Z</time></trkpt><trkpt lat="45.573292567125065" lon="11.399198457375721"><ele>221.0</ele><time>2026-03-26T16:43:41.998Z</time></trkpt><trkpt lat="45.573148031720926" lon="11.399281196250234"><ele>221.0</ele><time>2026-03-26T16:43:42.998Z</time></trkpt><trkpt lat="45.5730207314593" lon="11.399328150350488"><ele>221.0</ele><time>2026-03-26T16:43:43.998Z</time></trkpt><trkpt lat="45.5728853925429" lon="11.39931722492865"><ele>221.0</ele><time>2026-03-26T16:43:44.998Z</time></trkpt><trkpt lat="45.57273527769251" lon="11.399262949235197"><ele>221.0</ele><time>2026-03-26T16:43:45.998Z</time></trkpt><trkpt lat="45.57257035093928" lon="11.399178637721416"><ele>222.0</ele><time>2026-03-26T16:43:46.998Z</time></trkpt><trkpt lat="45.57241577219956" lon="11.39905026116045"><ele>223.0</ele><time>2026-03-26T16:43:47.998Z</time></trkpt><trkpt lat="45.57225774213443" lon="11.39898034721626"><ele>224.0</ele><time>2026-03-26T16:43:48.998Z</time></trkpt><trkpt lat="45.57209215757766" lon="11.398989033293669"><ele>226.33333333333334</ele><time>2026-03-26T16:43:49.998Z</time></trkpt><trkpt lat="45.5719148121026" lon="11.399079406121515"><ele>228.66666666666669</ele><time>2026-03-26T16:43:50.998Z</time></trkpt><trkpt lat="45.571734163666505" lon="11.399226258392671"><ele>231.0</ele><time>2026-03-26T16:43:51.998Z</time></trkpt><trkpt lat="45.57154465654955" lon="11.399372163208291"><ele>231.0</ele><time>2026-03-26T16:43:52.998Z</time></trkpt><trkpt lat="45.571336667051945" lon="11.399516611798482"><ele>231.0</ele><time>2026-03-26T16:43:53.998Z</time></trkpt><trkpt lat="45.571161905302" lon="11.399647559082428"><ele>231.0</ele><time>2026-03-26T16:43:54.998Z</time></trkpt><trkpt lat="45.57101104372534" lon="11.399815257213836"><ele>235.33333333333331</ele><time>2026-03-26T16:43:55.998Z</time></trkpt><trkpt lat="45.570868848931966" lon="11.400013069661894"><ele>239.66666666666666</ele><time>2026-03-26T16:43:56.998Z</time></trkpt><trkpt lat="45.57074113763264" lon="11.400241227407792"><ele>244.0</ele><time>2026-03-26T16:43:57.998Z</time></trkpt><trkpt lat="45.57065206629721" lon="11.400481389098479"><ele>243.33333333333331</ele><time>2026-03-26T16:43:58.998Z</time></trkpt><trkpt lat="45.5705948100876" lon="11.400717571548157"><ele>242.66666666666669</ele><time>2026-03-26T16:43:59.998Z</time></trkpt><trkpt lat="45.57054908081963" lon="11.400913069631844"><ele>242.0</ele><time>2026-03-26T16:44:00.998Z</time></trkpt><trkpt lat="45.57045662919946" lon="11.401047263347206"><ele>244.0</ele><time>2026-03-26T16:44:01.998Z</time></trkpt><trkpt lat="45.57034809624251" lon="11.401160622840854"><ele>246.0</ele><time>2026-03-26T16:44:02.998Z</time></trkpt><trkpt lat="45.570215058090824" lon="11.401219610219991"><ele>248.0</ele><time>2026-03-26T16:44:03.998Z</time></trkpt><trkpt lat="45.57006162666919" lon="11.40125521348678"><ele>250.0</ele><time>2026-03-26T16:44:04.998Z</time></trkpt><trkpt lat="45.5698838631256" lon="11.401284972220196"><ele>248.0</ele><time>2026-03-26T16:44:05.998Z</time></trkpt><trkpt lat="45.56969695803579" lon="11.401334992093881"><ele>246.0</ele><time>2026-03-26T16:44:06.998Z</time></trkpt><trkpt lat="45.56949991845927" lon="11.401368259855966"><ele>244.0</ele><time>2026-03-26T16:44:07.998Z</time></trkpt><trkpt lat="45.56932142008866" lon="11.401396719389982"><ele>244.0</ele><time>2026-03-26T16:44:08.998Z</time></trkpt><trkpt lat="45.56916209552566" lon="11.401423640698775"><ele>244.0</ele><time>2026-03-26T16:44:09.998Z</time></trkpt><trkpt lat="45.56902376959967" lon="11.401459277277795"><ele>244.0</ele><time>2026-03-26T16:44:10.998Z</time></trkpt><trkpt lat="45.568901019068576" lon="11.401464927360868"><ele>244.0</ele><time>2026-03-26T16:44:11.998Z</time></trkpt><trkpt lat="45.56878093356368" lon="11.401468306308614"><ele>244.25</ele><time>2026-03-26T16:44:12.998Z</time></trkpt><trkpt lat="45.56866377976701" lon="11.401440061157526"><ele>244.5</ele><time>2026-03-26T16:44:13.998Z</time></trkpt><trkpt lat="45.56853292095858" lon="11.401383053713136"><ele>244.75</ele><time>2026-03-26T16:44:14.998Z</time></trkpt><trkpt lat="45.56840995120089" lon="11.401329817882877"><ele>245.0</ele><time>2026-03-26T16:44:15.997Z</time></trkpt><trkpt lat="45.568315662216555" lon="11.401243674958035"><ele>246.25</ele><time>2026-03-26T16:44:16.997Z</time></trkpt><trkpt lat="45.56828299326588" lon="11.401093473381529"><ele>247.5</ele><time>2026-03-26T16:44:17.997Z</time></trkpt><trkpt lat="45.56819906975379" lon="11.400929230497427"><ele>248.75</ele><time>2026-03-26T16:44:18.997Z</time></trkpt><trkpt lat="45.568136137554795" lon="11.400726081334373"><ele>250.0</ele><time>2026-03-26T16:44:19.997Z</time></trkpt><trkpt lat="45.56806661684384" lon="11.400531230116849"><ele>252.25</ele><time>2026-03-26T16:44:20.997Z</time></trkpt><trkpt lat="45.56801927258031" lon="11.400355152968116"><ele>254.5</ele><time>2026-03-26T16:44:21.997Z</time></trkpt><trkpt lat="45.56800868257274" lon="11.400183997387876"><ele>256.75</ele><time>2026-03-26T16:44:22.997Z</time></trkpt><trkpt lat="45.56801771618909" lon="11.399989454730392"><ele>259.0</ele><time>2026-03-26T16:44:23.997Z</time></trkpt><trkpt lat="45.56801522095673" lon="11.399775400607446"><ele>259.3333333333333</ele><time>2026-03-26T16:44:24.997Z</time></trkpt><trkpt lat="45.56799833794765" lon="11.399537944519546"><ele>259.6666666666667</ele><time>2026-03-26T16:44:25.997Z</time></trkpt><trkpt lat="45.567881341274486" lon="11.399322865474554"><ele>260.0</ele><time>2026-03-26T16:44:26.997Z</time></trkpt><trkpt lat="45.567734680901346" lon="11.399109858452205"><ele>255.5</ele><time>2026-03-26T16:44:27.997Z</time></trkpt><trkpt lat="45.56752950417845" lon="11.398908187696405"><ele>251.0</ele><time>2026-03-26T16:44:28.997Z</time></trkpt><trkpt lat="45.567316684236424" lon="11.398724851220717"><ele>251.0</ele><time>2026-03-26T16:44:29.997Z</time></trkpt><trkpt lat="45.56714306725176" lon="11.398575623616017"><ele>251.0</ele><time>2026-03-26T16:44:30.997Z</time></trkpt><trkpt lat="45.566963809496286" lon="11.398447643275935"><ele>251.0</ele><time>2026-03-26T16:44:31.997Z</time></trkpt><trkpt lat="45.56675797062769" lon="11.39836216819111"><ele>249.5</ele><time>2026-03-26T16:44:32.997Z</time></trkpt><trkpt lat="45.56652281631463" lon="11.39830587735501"><ele>248.0</ele><time>2026-03-26T16:44:34Z</time></trkpt><trkpt lat="45.566297848202666" lon="11.39830070309425"><ele>248.0</ele><time>2026-03-26T16:44:35Z</time></trkpt><trkpt lat="45.566101409462746" lon="11.39826257891118"><ele>248.0</ele><time>2026-03-26T16:44:36Z</time></trkpt><trkpt lat="45.56593829612025" lon="11.398239926463834"><ele>248.0</ele><time>2026-03-26T16:44:37Z</time></trkpt><trkpt lat="45.56577020821258" lon="11.398178035677276"><ele>248.0</ele><time>2026-03-26T16:44:38Z</time></trkpt><trkpt lat="45.56561052094381" lon="11.398079554709815"><ele>248.0</ele><time>2026-03-26T16:44:39Z</time></trkpt><trkpt lat="45.565452941013554" lon="11.397957762192995"><ele>248.0</ele><time>2026-03-26T16:44:40Z</time></trkpt><trkpt lat="45.56529296517219" lon="11.397830239880454"><ele>245.0</ele><time>2026-03-26T16:44:41Z</time></trkpt><trkpt lat="45.56511358700764" lon="11.397724920831173"><ele>242.0</ele><time>2026-03-26T16:44:42Z</time></trkpt><trkpt lat="45.56491935288335" lon="11.397636750720693"><ele>239.0</ele><time>2026-03-26T16:44:43Z</time></trkpt><trkpt lat="45.56472055746254" lon="11.397581423951168"><ele>238.66666666666669</ele><time>2026-03-26T16:44:44Z</time></trkpt><trkpt lat="45.564522380311665" lon="11.39750298640503"><ele>238.33333333333331</ele><time>2026-03-26T16:44:45Z</time></trkpt><trkpt lat="45.56433550662884" lon="11.397442872333063"><ele>238.0</ele><time>2026-03-26T16:44:46Z</time></trkpt><trkpt lat="45.5641636899337" lon="11.397403695244256"><ele>238.0</ele><time>2026-03-26T16:44:47Z</time></trkpt><trkpt lat="45.56400902763523" lon="11.3972725365038"><ele>238.0</ele><time>2026-03-26T16:44:48Z</time></trkpt><trkpt lat="45.5638506298632" lon="11.39711249838491"><ele>238.0</ele><time>2026-03-26T16:44:49Z</time></trkpt><trkpt lat="45.563684937805554" lon="11.396928563670567"><ele>236.0</ele><time>2026-03-26T16:44:50Z</time></trkpt><trkpt lat="45.563502125801506" lon="11.396775722449032"><ele>234.0</ele><time>2026-03-26T16:44:51Z</time></trkpt><trkpt lat="45.56330009148338" lon="11.396641776819903"><ele>232.0</ele><time>2026-03-26T16:44:52Z</time></trkpt><trkpt lat="45.56309473583005" lon="11.39654656924427"><ele>232.0</ele><time>2026-03-26T16:44:53Z</time></trkpt><trkpt lat="45.5629062303852" lon="11.396483305118581"><ele>232.0</ele><time>2026-03-26T16:44:54Z</time></trkpt><trkpt lat="45.562733595416134" lon="11.396443760936759"><ele>232.0</ele><time>2026-03-26T16:44:55Z</time></trkpt><trkpt lat="45.5625565247892" lon="11.396456385743534"><ele>234.33333333333331</ele><time>2026-03-26T16:44:56Z</time></trkpt><trkpt lat="45.56237170642035" lon="11.396511219976304"><ele>236.66666666666669</ele><time>2026-03-26T16:44:57Z</time></trkpt><trkpt lat="45.56217911222953" lon="11.39661033054388"><ele>239.0</ele><time>2026-03-26T16:44:58Z</time></trkpt><trkpt lat="45.56199432649033" lon="11.396709238745204"><ele>240.66666666666669</ele><time>2026-03-26T16:44:59Z</time></trkpt><trkpt lat="45.56182905793907" lon="11.396768295489649"><ele>242.33333333333331</ele><time>2026-03-26T16:45:00Z</time></trkpt><trkpt lat="45.56168027557222" lon="11.396757665023582"><ele>244.0</ele><time>2026-03-26T16:45:01Z</time></trkpt><trkpt lat="45.561514607402955" lon="11.396697423380868"><ele>244.0</ele><time>2026-03-26T16:45:02Z</time></trkpt><trkpt lat="45.56134165504881" lon="11.396615859666085"><ele>244.0</ele><time>2026-03-26T16:45:03Z</time></trkpt><trkpt lat="45.561205696306644" lon="11.396553838605362"><ele>244.0</ele><time>2026-03-26T16:45:03.999Z</time></trkpt><trkpt lat="45.561093337890334" lon="11.39653175414648"><ele>244.0</ele><time>2026-03-26T16:45:04.999Z</time></trkpt><trkpt lat="45.560997813842555" lon="11.396580821303445"><ele>246.66666666666666</ele><time>2026-03-26T16:45:05.999Z</time></trkpt><trkpt lat="45.56091413321464" lon="11.396705086282656"><ele>249.33333333333331</ele><time>2026-03-26T16:45:06.999Z</time></trkpt><trkpt lat="45.560836942007484" lon="11.396893743929342"><ele>252.0</ele><time>2026-03-26T16:45:07.999Z</time></trkpt><trkpt lat="45.56076014044464" lon="11.397139635068324"><ele>248.66666666666669</ele><time>2026-03-26T16:45:08.999Z</time></trkpt><trkpt lat="45.560632688836066" lon="11.397347227037821"><ele>245.33333333333334</ele><time>2026-03-26T16:45:09.999Z</time></trkpt><trkpt lat="45.56050025534941" lon="11.397537218755941"><ele>242.0</ele><time>2026-03-26T16:45:10.999Z</time></trkpt><trkpt lat="45.56036948890098" lon="11.397689805674617"><ele>242.33333333333334</ele><time>2026-03-26T16:45:11.999Z</time></trkpt><trkpt lat="45.56023418275711" lon="11.397858762655764"><ele>242.66666666666669</ele><time>2026-03-26T16:45:12.999Z</time></trkpt><trkpt lat="45.5600772170649" lon="11.397954015476504"><ele>243.0</ele><time>2026-03-26T16:45:13.999Z</time></trkpt><trkpt lat="45.55993107736184" lon="11.398033210683659"><ele>243.0</ele><time>2026-03-26T16:45:14.999Z</time></trkpt><trkpt lat="45.559772083646855" lon="11.398079236613654"><ele>243.0</ele><time>2026-03-26T16:45:15.999Z</time></trkpt><trkpt lat="45.55957109786817" lon="11.398128295985924"><ele>243.0</ele><time>2026-03-26T16:45:16.999Z</time></trkpt><trkpt lat="45.559334802747784" lon="11.398186151249362"><ele>243.0</ele><time>2026-03-26T16:45:17.999Z</time></trkpt><trkpt lat="45.55911423241206" lon="11.398278771727595"><ele>243.0</ele><time>2026-03-26T16:45:18.999Z</time></trkpt><trkpt lat="45.558937916022124" lon="11.398345596567927"><ele>243.0</ele><time>2026-03-26T16:45:19.999Z</time></trkpt><trkpt lat="45.55877631921874" lon="11.39841773312439"><ele>243.75</ele><time>2026-03-26T16:45:20.999Z</time></trkpt><trkpt lat="45.558618139358316" lon="11.398442220265608"><ele>244.5</ele><time>2026-03-26T16:45:21.999Z</time></trkpt><trkpt lat="45.55847866721603" lon="11.398446812136594"><ele>245.25</ele><time>2026-03-26T16:45:22.999Z</time></trkpt><trkpt lat="45.558360310275766" lon="11.398391640173664"><ele>246.0</ele><time>2026-03-26T16:45:23.999Z</time></trkpt><trkpt lat="45.558244429839014" lon="11.398295294867388"><ele>246.0</ele><time>2026-03-26T16:45:24.999Z</time></trkpt><trkpt lat="45.55813600373297" lon="11.398147068205722"><ele>246.0</ele><time>2026-03-26T16:45:25.999Z</time></trkpt><trkpt lat="45.55803758698238" lon="11.397948015135983"><ele>246.0</ele><time>2026-03-26T16:45:26.999Z</time></trkpt><trkpt lat="45.557956142183855" lon="11.39770921027264"><ele>245.66666666666669</ele><time>2026-03-26T16:45:27.999Z</time></trkpt><trkpt lat="45.557879048609365" lon="11.397439391058779"><ele>245.33333333333334</ele><time>2026-03-26T16:45:28.999Z</time></trkpt><trkpt lat="45.55780692510614" lon="11.39720357189373"><ele>245.0</ele><time>2026-03-26T16:45:29.999Z</time></trkpt><trkpt lat="45.55776833774286" lon="11.397038512085974"><ele>246.25</ele><time>2026-03-26T16:45:30.999Z</time></trkpt><trkpt lat="45.55774892683078" lon="11.396897672925526"><ele>247.5</ele><time>2026-03-26T16:45:31.999Z</time></trkpt><trkpt lat="45.557730468912624" lon="11.396804564599645"><ele>248.75</ele><time>2026-03-26T16:45:32.999Z</time></trkpt><trkpt lat="45.557547776637755" lon="11.396737032535922"><ele>250.0</ele><time>2026-03-26T16:45:33.999Z</time></trkpt><trkpt lat="45.557471204075995" lon="11.396601384494584"><ele>250.0</ele><time>2026-03-26T16:45:34.999Z</time></trkpt><trkpt lat="45.55739070099674" lon="11.396486388031875"><ele>250.0</ele><time>2026-03-26T16:45:35.999Z</time></trkpt><trkpt lat="45.55734230059883" lon="11.396407924168189"><ele>250.0</ele><time>2026-03-26T16:45:36.999Z</time></trkpt><trkpt lat="45.55722753941897" lon="11.396500229552263"><ele>250.0</ele><time>2026-03-26T16:45:38.999Z</time></trkpt><trkpt lat="45.55714537368703" lon="11.396663716033693"><ele>250.0</ele><time>2026-03-26T16:45:39.999Z</time></trkpt><trkpt lat="45.55707283730535" lon="11.396882160524152"><ele>250.0</ele><time>2026-03-26T16:45:40.999Z</time></trkpt><trkpt lat="45.55699387052001" lon="11.397130594851834"><ele>250.0</ele><time>2026-03-26T16:45:41.999Z</time></trkpt><trkpt lat="45.55692691471672" lon="11.397369696774401"><ele>248.0</ele><time>2026-03-26T16:45:42.999Z</time></trkpt><trkpt lat="45.556875342916484" lon="11.397592356641532"><ele>246.0</ele><time>2026-03-26T16:45:43.998Z</time></trkpt><trkpt lat="45.55682947601943" lon="11.397804601392112"><ele>244.0</ele><time>2026-03-26T16:45:44.998Z</time></trkpt><trkpt lat="45.55678517130871" lon="11.397995850613885"><ele>241.0</ele><time>2026-03-26T16:45:45.998Z</time></trkpt><trkpt lat="45.55674026133277" lon="11.39817985765476"><ele>238.0</ele><time>2026-03-26T16:45:46.998Z</time></trkpt><trkpt lat="45.55669111058529" lon="11.398374575691175"><ele>235.0</ele><time>2026-03-26T16:45:47.998Z</time></trkpt><trkpt lat="45.55662806343861" lon="11.398608112849901"><ele>231.66666666666666</ele><time>2026-03-26T16:45:48.998Z</time></trkpt><trkpt lat="45.55653829664128" lon="11.398879037459535"><ele>228.33333333333331</ele><time>2026-03-26T16:45:49.998Z</time></trkpt><trkpt lat="45.55645136313182" lon="11.399159989330949"><ele>225.0</ele><time>2026-03-26T16:45:50.998Z</time></trkpt><trkpt lat="45.55637777680713" lon="11.399404188830465"><ele>225.0</ele><time>2026-03-26T16:45:51.998Z</time></trkpt><trkpt lat="45.55631789651955" lon="11.399614316505485"><ele>225.0</ele><time>2026-03-26T16:45:52.998Z</time></trkpt><trkpt lat="45.55626356673812" lon="11.399793569202966"><ele>225.0</ele><time>2026-03-26T16:45:53.998Z</time></trkpt><trkpt lat="45.55621660550186" lon="11.399931043391657"><ele>225.0</ele><time>2026-03-26T16:45:54.998Z</time></trkpt><trkpt lat="45.55620267672239" lon="11.400059494632897"><ele>224.6</ele><time>2026-03-26T16:45:55.998Z</time></trkpt><trkpt lat="45.556173697846354" lon="11.400147838058773"><ele>224.2</ele><time>2026-03-26T16:45:56.998Z</time></trkpt><trkpt lat="45.5561286805602" lon="11.400253264776534"><ele>223.8</ele><time>2026-03-26T16:45:58.998Z</time></trkpt><trkpt lat="45.555950427435846" lon="11.40025339548253"><ele>223.4</ele><time>2026-03-26T16:46:00.998Z</time></trkpt><trkpt lat="45.555835863549234" lon="11.400241950146782"><ele>223.0</ele><time>2026-03-26T16:46:01.998Z</time></trkpt><trkpt lat="45.5557196131731" lon="11.400228301869754"><ele>223.0</ele><time>2026-03-26T16:46:02.998Z</time></trkpt><trkpt lat="45.55560325164974" lon="11.400223023357809"><ele>223.0</ele><time>2026-03-26T16:46:03.998Z</time></trkpt><trkpt lat="45.5554913568793" lon="11.400215639377587"><ele>223.0</ele><time>2026-03-26T16:46:04.998Z</time></trkpt><trkpt lat="45.555359975027315" lon="11.400196827669813"><ele>223.0</ele><time>2026-03-26T16:46:05.998Z</time></trkpt><trkpt lat="45.55525962385105" lon="11.400202118963145"><ele>221.83333333333331</ele><time>2026-03-26T16:46:06.998Z</time></trkpt><trkpt lat="45.55517993480991" lon="11.400194575841782"><ele>220.66666666666666</ele><time>2026-03-26T16:46:07.998Z</time></trkpt><trkpt lat="45.5551025787179" lon="11.400194238010863"><ele>219.5</ele><time>2026-03-26T16:46:08.998Z</time></trkpt><trkpt lat="45.555029403710655" lon="11.400182816778909"><ele>218.33333333333331</ele><time>2026-03-26T16:46:09.998Z</time></trkpt><trkpt lat="45.554969294668076" lon="11.400144277404358"><ele>217.16666666666666</ele><time>2026-03-26T16:46:10.998Z</time></trkpt><trkpt lat="45.554907162669444" lon="11.400083964052875"><ele>216.0</ele><time>2026-03-26T16:46:11.998Z</time></trkpt><trkpt lat="45.55481445358671" lon="11.400005516039226"><ele>216.0</ele><time>2026-03-26T16:46:13.998Z</time></trkpt><trkpt lat="45.55476188553638" lon="11.400122265993005"><ele>216.00000000000003</ele><time>2026-03-26T16:46:15.998Z</time></trkpt><trkpt lat="45.5547382551509" lon="11.400215432627812"><ele>216.00000000000003</ele><time>2026-03-26T16:46:17.998Z</time></trkpt><trkpt lat="45.554667542212385" lon="11.400166889865863"><ele>216.0</ele><time>2026-03-26T16:46:20.998Z</time></trkpt><trkpt lat="45.554644897108474" lon="11.400055977422586"><ele>216.0</ele><time>2026-03-26T16:46:21.998Z</time></trkpt><trkpt lat="45.55461950632352" lon="11.399875944395772"><ele>216.0</ele><time>2026-03-26T16:46:22.997Z</time></trkpt><trkpt lat="45.55459991259207" lon="11.399754207294555"><ele>216.00000000000003</ele><time>2026-03-26T16:46:23.997Z</time></trkpt><trkpt lat="45.55460061586462" lon="11.399641343033279"><ele>216.00000000000003</ele><time>2026-03-26T16:46:24.997Z</time></trkpt><trkpt lat="45.55460621680007" lon="11.399490423853212"><ele>216.0</ele><time>2026-03-26T16:46:25.997Z</time></trkpt><trkpt lat="45.55461240033275" lon="11.399290510524557"><ele>216.0</ele><time>2026-03-26T16:46:26.997Z</time></trkpt><trkpt lat="45.55461046270032" lon="11.399064629237722"><ele>217.60000000000002</ele><time>2026-03-26T16:46:27.997Z</time></trkpt><trkpt lat="45.554626846577726" lon="11.398910053631235"><ele>219.20000000000002</ele><time>2026-03-26T16:46:28.997Z</time></trkpt><trkpt lat="45.554582396800974" lon="11.398742035180213"><ele>220.79999999999998</ele><time>2026-03-26T16:46:29.997Z</time></trkpt><trkpt lat="45.5545708990668" lon="11.398648396220313"><ele>222.39999999999998</ele><time>2026-03-26T16:46:30.997Z</time></trkpt><trkpt lat="45.55454670568826" lon="11.398519580797922"><ele>224.0</ele><time>2026-03-26T16:46:31.997Z</time></trkpt><trkpt lat="45.55453208392977" lon="11.398408510687293"><ele>224.79999999999998</ele><time>2026-03-26T16:46:32.997Z</time></trkpt><trkpt lat="45.55456626156045" lon="11.398229635854145"><ele>225.59999999999997</ele><time>2026-03-26T16:46:34.997Z</time></trkpt><trkpt lat="45.55457335652606" lon="11.398077985214453"><ele>226.4</ele><time>2026-03-26T16:46:35.997Z</time></trkpt><trkpt lat="45.55455458338538" lon="11.39792564250506"><ele>227.2</ele><time>2026-03-26T16:46:36.997Z</time></trkpt><trkpt lat="45.55458115871508" lon="11.397801897058192"><ele>228.0</ele><time>2026-03-26T16:46:37.997Z</time></trkpt><trkpt lat="45.554581753398935" lon="11.397656860651498"><ele>228.0</ele><time>2026-03-26T16:46:38.997Z</time></trkpt><trkpt lat="45.554568027990086" lon="11.39756719218"><ele>228.0</ele><time>2026-03-26T16:46:40Z</time></trkpt><trkpt lat="45.554552352834634" lon="11.397433018254665"><ele>228.0</ele><time>2026-03-26T16:46:41Z</time></trkpt><trkpt lat="45.554527438558026" lon="11.397294271723263"><ele>228.0</ele><time>2026-03-26T16:46:42Z</time></trkpt><trkpt lat="45.55451296472154" lon="11.39711008575353"><ele>228.0</ele><time>2026-03-26T16:46:43Z</time></trkpt><trkpt lat="45.554549383147126" lon="11.396953382498532"><ele>227.5</ele><time>2026-03-26T16:46:44Z</time></trkpt><trkpt lat="45.554539306573815" lon="11.396804410778914"><ele>227.0</ele><time>2026-03-26T16:46:45Z</time></trkpt><trkpt lat="45.55452640657972" lon="11.39667340899112"><ele>226.5</ele><time>2026-03-26T16:46:46Z</time></trkpt><trkpt lat="45.554504028076735" lon="11.396575687850126"><ele>226.0</ele><time>2026-03-26T16:46:47Z</time></trkpt><trkpt lat="45.554447297978925" lon="11.396508913959217"><ele>225.5</ele><time>2026-03-26T16:46:49Z</time></trkpt><trkpt lat="45.554363563325204" lon="11.396576245943562"><ele>225.0</ele><time>2026-03-26T16:46:51Z</time></trkpt><trkpt lat="45.55423892745515" lon="11.39673476460588"><ele>223.0</ele><time>2026-03-26T16:46:53Z</time></trkpt><trkpt lat="45.55414859475804" lon="11.396836521608094"><ele>221.0</ele><time>2026-03-26T16:46:54Z</time></trkpt><trkpt lat="45.55407740635084" lon="11.39690750031661"><ele>219.0</ele><time>2026-03-26T16:46:55Z</time></trkpt><trkpt lat="45.554003354422946" lon="11.39695732460543"><ele>217.0</ele><time>2026-03-26T16:46:56Z</time></trkpt><trkpt lat="45.55390736937631" lon="11.397079517879504"><ele>215.0</ele><time>2026-03-26T16:46:57Z</time></trkpt><trkpt lat="45.55380102256002" lon="11.397190289143355"><ele>212.75</ele><time>2026-03-26T16:46:58Z</time></trkpt><trkpt lat="45.55371390713838" lon="11.397257834377045"><ele>210.5</ele><time>2026-03-26T16:46:59Z</time></trkpt><trkpt lat="45.55363931272267" lon="11.397338312274938"><ele>208.25</ele><time>2026-03-26T16:47:00Z</time></trkpt><trkpt lat="45.553641593758876" lon="11.397606487525799"><ele>206.0</ele><time>2026-03-26T16:47:01Z</time></trkpt><trkpt lat="45.55355176606876" lon="11.397683976090189"><ele>206.0</ele><time>2026-03-26T16:47:02Z</time></trkpt><trkpt lat="45.55343239670609" lon="11.397788785525805"><ele>206.0</ele><time>2026-03-26T16:47:03Z</time></trkpt><trkpt lat="45.55332948406681" lon="11.397879975719704"><ele>206.0</ele><time>2026-03-26T16:47:04Z</time></trkpt><trkpt lat="45.55323881047432" lon="11.397963470133085"><ele>206.0</ele><time>2026-03-26T16:47:05Z</time></trkpt><trkpt lat="45.55314703495519" lon="11.398053880877885"><ele>207.50000000000003</ele><time>2026-03-26T16:47:06Z</time></trkpt><trkpt lat="45.55306956150012" lon="11.39813990888848"><ele>209.0</ele><time>2026-03-26T16:47:07Z</time></trkpt><trkpt lat="45.552986949447615" lon="11.398251922726416"><ele>210.5</ele><time>2026-03-26T16:47:08Z</time></trkpt><trkpt lat="45.55292134966937" lon="11.398351167786384"><ele>212.0</ele><time>2026-03-26T16:47:09Z</time></trkpt><trkpt lat="45.55287134941283" lon="11.398414634632244"><ele>213.50000000000003</ele><time>2026-03-26T16:47:10Z</time></trkpt><trkpt lat="45.55284576291822" lon="11.398503534884583"><ele>215.0</ele><time>2026-03-26T16:47:11Z</time></trkpt><trkpt lat="45.55278013515436" lon="11.398656370836568"><ele>215.0</ele><time>2026-03-26T16:47:12.999Z</time></trkpt><trkpt lat="45.55272222742429" lon="11.398758202427874"><ele>215.0</ele><time>2026-03-26T16:47:13.999Z</time></trkpt><trkpt lat="45.552644529510054" lon="11.398872123043999"><ele>215.0</ele><time>2026-03-26T16:47:14.999Z</time></trkpt><trkpt lat="45.55256019900941" lon="11.398999983454447"><ele>215.0</ele><time>2026-03-26T16:47:15.999Z</time></trkpt><trkpt lat="45.55246602767631" lon="11.39910520851003"><ele>215.0</ele><time>2026-03-26T16:47:16.999Z</time></trkpt><trkpt lat="45.5523712156961" lon="11.39920594369176"><ele>214.0</ele><time>2026-03-26T16:47:17.999Z</time></trkpt><trkpt lat="45.5522726897758" lon="11.399317763991718"><ele>213.0</ele><time>2026-03-26T16:47:18.999Z</time></trkpt><trkpt lat="45.552176747452805" lon="11.399383400460994"><ele>212.0</ele><time>2026-03-26T16:47:19.999Z</time></trkpt><trkpt lat="45.55210487364443" lon="11.399446696219064"><ele>211.0</ele><time>2026-03-26T16:47:20.999Z</time></trkpt><trkpt lat="45.5520560495909" lon="11.399506796533855"><ele>210.0</ele><time>2026-03-26T16:47:21.999Z</time></trkpt><trkpt lat="45.55198124448627" lon="11.399504575067313"><ele>210.0</ele><time>2026-03-26T16:47:22.999Z</time></trkpt><trkpt lat="45.551906793533654" lon="11.399526872870982"><ele>210.0</ele><time>2026-03-26T16:47:23.999Z</time></trkpt><trkpt lat="45.55182739423872" lon="11.399466900600105"><ele>210.0</ele><time>2026-03-26T16:47:24.999Z</time></trkpt><trkpt lat="45.551742237638884" lon="11.399390758981458"><ele>210.0</ele><time>2026-03-26T16:47:25.999Z</time></trkpt><trkpt lat="45.551643449404075" lon="11.399302690287614"><ele>210.0</ele><time>2026-03-26T16:47:26.999Z</time></trkpt><trkpt lat="45.551562677331106" lon="11.39917447181523"><ele>210.0</ele><time>2026-03-26T16:47:27.999Z</time></trkpt><trkpt lat="45.55144470318539" lon="11.399076480878222"><ele>210.0</ele><time>2026-03-26T16:47:28.999Z</time></trkpt><trkpt lat="45.551309544674474" lon="11.39896960970805"><ele>210.0</ele><time>2026-03-26T16:47:29.999Z</time></trkpt><trkpt lat="45.55115530276846" lon="11.398867769147866"><ele>214.0</ele><time>2026-03-26T16:47:30.999Z</time></trkpt><trkpt lat="45.550988462114276" lon="11.398761465348688"><ele>218.0</ele><time>2026-03-26T16:47:31.999Z</time></trkpt><trkpt lat="45.55082588067824" lon="11.398663454238816"><ele>222.0</ele><time>2026-03-26T16:47:32.999Z</time></trkpt><trkpt lat="45.55066388993205" lon="11.398582216600047"><ele>222.0</ele><time>2026-03-26T16:47:33.999Z</time></trkpt><trkpt lat="45.55050248826867" lon="11.398508370214532"><ele>222.0</ele><time>2026-03-26T16:47:34.999Z</time></trkpt><trkpt lat="45.55034378721796" lon="11.398440485494238"><ele>222.0</ele><time>2026-03-26T16:47:35.999Z</time></trkpt><trkpt lat="45.55017883782972" lon="11.39837861337652"><ele>220.33333333333331</ele><time>2026-03-26T16:47:36.999Z</time></trkpt><trkpt lat="45.54998651274034" lon="11.398343138810773"><ele>218.66666666666666</ele><time>2026-03-26T16:47:37.999Z</time></trkpt><trkpt lat="45.54979555751297" lon="11.398311522374977"><ele>217.0</ele><time>2026-03-26T16:47:38.999Z</time></trkpt><trkpt lat="45.54962538060948" lon="11.398260635256577"><ele>219.0</ele><time>2026-03-26T16:47:39.999Z</time></trkpt><trkpt lat="45.54945132842792" lon="11.39820219470886"><ele>221.0</ele><time>2026-03-26T16:47:40.999Z</time></trkpt><trkpt lat="45.549283373213385" lon="11.398135776431246"><ele>223.0</ele><time>2026-03-26T16:47:41.999Z</time></trkpt><trkpt lat="45.549155163114726" lon="11.398075237797498"><ele>223.0</ele><time>2026-03-26T16:47:42.999Z</time></trkpt><trkpt lat="45.549085786360635" lon="11.398018591824613"><ele>223.0</ele><time>2026-03-26T16:47:44.999Z</time></trkpt><trkpt lat="45.549028446198896" lon="11.397888746888114"><ele>223.0</ele><time>2026-03-26T16:47:46.999Z</time></trkpt><trkpt lat="45.54891039535633" lon="11.397941598937717"><ele>223.0</ele><time>2026-03-26T16:47:47.999Z</time></trkpt><trkpt lat="45.54882392909815" lon="11.397984806920078"><ele>223.0</ele><time>2026-03-26T16:47:48.999Z</time></trkpt><trkpt lat="45.54871006666124" lon="11.398037491497837"><ele>224.4</ele><time>2026-03-26T16:47:49.999Z</time></trkpt><trkpt lat="45.5485967496675" lon="11.398124677962223"><ele>225.8</ele><time>2026-03-26T16:47:50.999Z</time></trkpt><trkpt lat="45.54850139680229" lon="11.39819618012986"><ele>227.2</ele><time>2026-03-26T16:47:51.998Z</time></trkpt><trkpt lat="45.54843836518176" lon="11.398308328264566"><ele>228.6</ele><time>2026-03-26T16:47:52.998Z</time></trkpt><trkpt lat="45.54837038560149" lon="11.398415313219484"><ele>230.0</ele><time>2026-03-26T16:47:53.998Z</time></trkpt><trkpt lat="45.54832407708034" lon="11.398555521948994"><ele>230.0</ele><time>2026-03-26T16:47:54.998Z</time></trkpt><trkpt lat="45.54828561766212" lon="11.398691545005343"><ele>230.0</ele><time>2026-03-26T16:47:55.998Z</time></trkpt><trkpt lat="45.54821705510079" lon="11.398783015643671"><ele>230.0</ele><time>2026-03-26T16:47:56.998Z</time></trkpt><trkpt lat="45.54815321925646" lon="11.398864332941631"><ele>230.0</ele><time>2026-03-26T16:47:57.998Z</time></trkpt><trkpt lat="45.548070563284064" lon="11.398924617347562"><ele>230.0</ele><time>2026-03-26T16:47:58.998Z</time></trkpt><trkpt lat="45.54798667170297" lon="11.398983375281174"><ele>228.4</ele><time>2026-03-26T16:47:59.998Z</time></trkpt><trkpt lat="45.54788354477787" lon="11.399056205961047"><ele>226.8</ele><time>2026-03-26T16:48:00.998Z</time></trkpt><trkpt lat="45.54779120744348" lon="11.399111681697462"><ele>225.2</ele><time>2026-03-26T16:48:01.998Z</time></trkpt><trkpt lat="45.547703255580075" lon="11.399163463801603"><ele>223.6</ele><time>2026-03-26T16:48:02.998Z</time></trkpt><trkpt lat="45.54761414755416" lon="11.399223637918473"><ele>222.0</ele><time>2026-03-26T16:48:03.998Z</time></trkpt><trkpt lat="45.5475425252745" lon="11.399284205943129"><ele>222.0</ele><time>2026-03-26T16:48:04.998Z</time></trkpt><trkpt lat="45.547509403475324" lon="11.399377469341129"><ele>222.0</ele><time>2026-03-26T16:48:05.998Z</time></trkpt><trkpt lat="45.54749396490074" lon="11.399496360351892"><ele>222.0</ele><time>2026-03-26T16:48:06.998Z</time></trkpt><trkpt lat="45.547480236882016" lon="11.399636017025685"><ele>222.0</ele><time>2026-03-26T16:48:07.998Z</time></trkpt><trkpt lat="45.547442964102736" lon="11.399768523056936"><ele>222.0</ele><time>2026-03-26T16:48:08.998Z</time></trkpt><trkpt lat="45.54743061631291" lon="11.399994155205244"><ele>220.39999999999998</ele><time>2026-03-26T16:48:10.998Z</time></trkpt><trkpt lat="45.54739444781219" lon="11.400137331061998"><ele>218.79999999999998</ele><time>2026-03-26T16:48:11.998Z</time></trkpt><trkpt lat="45.54736452765779" lon="11.40025813255245"><ele>217.2</ele><time>2026-03-26T16:48:12.998Z</time></trkpt><trkpt lat="45.54733489021538" lon="11.400359740818166"><ele>215.6</ele><time>2026-03-26T16:48:13.998Z</time></trkpt><trkpt lat="45.54727933168747" lon="11.400511606721372"><ele>214.0</ele><time>2026-03-26T16:48:15.998Z</time></trkpt><trkpt lat="45.54720430294295" lon="11.40056810085151"><ele>214.5</ele><time>2026-03-26T16:48:16.998Z</time></trkpt><trkpt lat="45.54710091634906" lon="11.400610483261344"><ele>215.0</ele><time>2026-03-26T16:48:17.998Z</time></trkpt><trkpt lat="45.54700553605226" lon="11.40065681553214"><ele>215.5</ele><time>2026-03-26T16:48:18.998Z</time></trkpt><trkpt lat="45.54691271799906" lon="11.400746502285969"><ele>216.0</ele><time>2026-03-26T16:48:19.998Z</time></trkpt><trkpt lat="45.54680571280935" lon="11.400862716176036"><ele>216.0</ele><time>2026-03-26T16:48:20.998Z</time></trkpt><trkpt lat="45.546712699548685" lon="11.400969884390424"><ele>216.00000000000003</ele><time>2026-03-26T16:48:21.998Z</time></trkpt><trkpt lat="45.54663224934687" lon="11.401055847447642"><ele>216.00000000000003</ele><time>2026-03-26T16:48:22.998Z</time></trkpt><trkpt lat="45.54657617439518" lon="11.401106309933468"><ele>216.0</ele><time>2026-03-26T16:48:23.998Z</time></trkpt><trkpt lat="45.54649277262895" lon="11.401177595693895"><ele>216.0</ele><time>2026-03-26T16:48:24.998Z</time></trkpt><trkpt lat="45.54640511373576" lon="11.401232323000052"><ele>216.0</ele><time>2026-03-26T16:48:25.998Z</time></trkpt><trkpt lat="45.5463129337677" lon="11.401266274466963"><ele>216.00000000000003</ele><time>2026-03-26T16:48:26.998Z</time></trkpt><trkpt lat="45.54622893293877" lon="11.401312235291849"><ele>216.00000000000003</ele><time>2026-03-26T16:48:27.998Z</time></trkpt><trkpt lat="45.546158092347454" lon="11.401402026759511"><ele>216.0</ele><time>2026-03-26T16:48:28.998Z</time></trkpt><trkpt lat="45.546070662472566" lon="11.401518585399511"><ele>216.0</ele><time>2026-03-26T16:48:29.998Z</time></trkpt><trkpt lat="45.54602439847224" lon="11.401616406909078"><ele>217.5</ele><time>2026-03-26T16:48:30.997Z</time></trkpt><trkpt lat="45.54601139010567" lon="11.401747511567347"><ele>219.0</ele><time>2026-03-26T16:48:31.997Z</time></trkpt><trkpt lat="45.54602909120006" lon="11.401925877715371"><ele>220.5</ele><time>2026-03-26T16:48:32.997Z</time></trkpt><trkpt lat="45.54603964678146" lon="11.402119818201554"><ele>222.0</ele><time>2026-03-26T16:48:33.997Z</time></trkpt><trkpt lat="45.5460239605741" lon="11.40227576220514"><ele>222.0</ele><time>2026-03-26T16:48:34.997Z</time></trkpt><trkpt lat="45.546006946031184" lon="11.402472261888592"><ele>222.0</ele><time>2026-03-26T16:48:35.997Z</time></trkpt><trkpt lat="45.54596975429472" lon="11.402677761576681"><ele>222.0</ele><time>2026-03-26T16:48:36.997Z</time></trkpt><trkpt lat="45.54594135284694" lon="11.402855553663743"><ele>222.0</ele><time>2026-03-26T16:48:37.997Z</time></trkpt><trkpt lat="45.545915942331185" lon="11.403005707960695"><ele>222.39999999999998</ele><time>2026-03-26T16:48:38.997Z</time></trkpt><trkpt lat="45.54588504954728" lon="11.403157548527973"><ele>222.79999999999998</ele><time>2026-03-26T16:48:39.997Z</time></trkpt><trkpt lat="45.54589148828681" lon="11.403305781784253"><ele>223.2</ele><time>2026-03-26T16:48:40.997Z</time></trkpt><trkpt lat="45.54592885221802" lon="11.403446251446097"><ele>223.6</ele><time>2026-03-26T16:48:41.997Z</time></trkpt><trkpt lat="45.5459762844441" lon="11.4035762271267"><ele>224.0</ele><time>2026-03-26T16:48:42.997Z</time></trkpt><trkpt lat="45.54603295161348" lon="11.403668457751197"><ele>224.0</ele><time>2026-03-26T16:48:43.997Z</time></trkpt><trkpt lat="45.546106466294624" lon="11.403750994074532"><ele>223.99999999999997</ele><time>2026-03-26T16:48:44.997Z</time></trkpt><trkpt lat="45.54620759309926" lon="11.403823899075643"><ele>223.99999999999997</ele><time>2026-03-26T16:48:46Z</time></trkpt><trkpt lat="45.546322300664855" lon="11.403904563405773"><ele>224.0</ele><time>2026-03-26T16:48:47Z</time></trkpt><trkpt lat="45.54638264509857" lon="11.403952605003614"><ele>224.0</ele><time>2026-03-26T16:48:48Z</time></trkpt><trkpt lat="45.54643135336664" lon="11.404021462667997"><ele>220.25</ele><time>2026-03-26T16:48:49Z</time></trkpt><trkpt lat="45.54648285913567" lon="11.404140739158063"><ele>216.5</ele><time>2026-03-26T16:48:50Z</time></trkpt><trkpt lat="45.54654939500506" lon="11.404293504798124"><ele>212.75</ele><time>2026-03-26T16:48:51Z</time></trkpt><trkpt lat="45.5466332133406" lon="11.40442598944583"><ele>209.0</ele><time>2026-03-26T16:48:52Z</time></trkpt><trkpt lat="45.54674495092772" lon="11.404505188811829"><ele>209.0</ele><time>2026-03-26T16:48:53Z</time></trkpt><trkpt lat="45.54684951428072" lon="11.404578935271974"><ele>209.0</ele><time>2026-03-26T16:48:54Z</time></trkpt><trkpt lat="45.54692953940249" lon="11.404683558315146"><ele>209.0</ele><time>2026-03-26T16:48:55Z</time></trkpt><trkpt lat="45.54700600798523" lon="11.404776290259525"><ele>209.0</ele><time>2026-03-26T16:48:56Z</time></trkpt><trkpt lat="45.54711320785405" lon="11.404834137777065"><ele>209.0</ele><time>2026-03-26T16:48:57Z</time></trkpt><trkpt lat="45.547205246164914" lon="11.404870090572526"><ele>208.79999999999998</ele><time>2026-03-26T16:48:58Z</time></trkpt><trkpt lat="45.54730075705744" lon="11.404889417507707"><ele>208.6</ele><time>2026-03-26T16:48:59Z</time></trkpt><trkpt lat="45.54740741230832" lon="11.404856567936706"><ele>208.4</ele><time>2026-03-26T16:49:01Z</time></trkpt><trkpt lat="45.54747173834699" lon="11.404994583911815"><ele>208.2</ele><time>2026-03-26T16:49:03Z</time></trkpt><trkpt lat="45.54750996361738" lon="11.405139069859002"><ele>208.0</ele><time>2026-03-26T16:49:04Z</time></trkpt><trkpt lat="45.54755412306126" lon="11.40530568754157"><ele>208.0</ele><time>2026-03-26T16:49:05Z</time></trkpt><trkpt lat="45.547596996855084" lon="11.405430206599547"><ele>208.0</ele><time>2026-03-26T16:49:06Z</time></trkpt><trkpt lat="45.54765075332799" lon="11.405507385519586"><ele>208.0</ele><time>2026-03-26T16:49:07Z</time></trkpt><trkpt lat="45.547729388252094" lon="11.405537788216416"><ele>208.0</ele><time>2026-03-26T16:49:08Z</time></trkpt><trkpt lat="45.5477646410348" lon="11.405697581144524"><ele>208.0</ele><time>2026-03-26T16:49:10Z</time></trkpt><trkpt lat="45.54786724028818" lon="11.405861491070803"><ele>206.2</ele><time>2026-03-26T16:49:12Z</time></trkpt><trkpt lat="45.54790834947039" lon="11.405987536470013"><ele>204.4</ele><time>2026-03-26T16:49:13Z</time></trkpt><trkpt lat="45.54792006024198" lon="11.406122814823323"><ele>202.6</ele><time>2026-03-26T16:49:14Z</time></trkpt><trkpt lat="45.54794983846061" lon="11.406260461239999"><ele>200.79999999999998</ele><time>2026-03-26T16:49:15Z</time></trkpt><trkpt lat="45.547963692380236" lon="11.40636322892723"><ele>199.0</ele><time>2026-03-26T16:49:16Z</time></trkpt><trkpt lat="45.548000236861064" lon="11.406532844795098"><ele>199.0</ele><time>2026-03-26T16:49:18Z</time></trkpt><trkpt lat="45.54810011505981" lon="11.4065814137321"><ele>199.0</ele><time>2026-03-26T16:49:19.999Z</time></trkpt><trkpt lat="45.54817293002" lon="11.406543597835192"><ele>199.0</ele><time>2026-03-26T16:49:20.999Z</time></trkpt><trkpt lat="45.54826846119735" lon="11.40650986386221"><ele>199.0</ele><time>2026-03-26T16:49:21.999Z</time></trkpt><trkpt lat="45.54838244538284" lon="11.406435830852798"><ele>199.0</ele><time>2026-03-26T16:49:22.999Z</time></trkpt><trkpt lat="45.54845830844945" lon="11.406358022344198"><ele>199.0</ele><time>2026-03-26T16:49:23.999Z</time></trkpt><trkpt lat="45.54851095412086" lon="11.406304348167534"><ele>199.0</ele><time>2026-03-26T16:49:24.999Z</time></trkpt><trkpt lat="45.54860068534707" lon="11.406291501694582"><ele>199.0</ele><time>2026-03-26T16:49:26.999Z</time></trkpt><trkpt lat="45.5486878534118" lon="11.406449717261513"><ele>199.0</ele><time>2026-03-26T16:49:28.999Z</time></trkpt><trkpt lat="45.54875789717642" lon="11.406582682567027"><ele>199.0</ele><time>2026-03-26T16:49:29.999Z</time></trkpt><trkpt lat="45.548813378907376" lon="11.406695149319267"><ele>196.66666666666666</ele><time>2026-03-26T16:49:30.999Z</time></trkpt><trkpt lat="45.54885507331148" lon="11.406794847098174"><ele>194.33333333333331</ele><time>2026-03-26T16:49:31.999Z</time></trkpt><trkpt lat="45.54888108940666" lon="11.406901112393491"><ele>192.0</ele><time>2026-03-26T16:49:32.999Z</time></trkpt><trkpt lat="45.54888425105445" lon="11.407028202839848"><ele>189.66666666666666</ele><time>2026-03-26T16:49:33.999Z</time></trkpt><trkpt lat="45.54890292030345" lon="11.407183433167777"><ele>187.33333333333331</ele><time>2026-03-26T16:49:34.999Z</time></trkpt><trkpt lat="45.54891246378004" lon="11.40727877512897"><ele>185.0</ele><time>2026-03-26T16:49:35.999Z</time></trkpt><trkpt lat="45.54894153747464" lon="11.407368756526505"><ele>185.0</ele><time>2026-03-26T16:49:36.999Z</time></trkpt><trkpt lat="45.5489896070385" lon="11.407437010217315"><ele>185.0</ele><time>2026-03-26T16:49:37.999Z</time></trkpt><trkpt lat="45.549026067925425" lon="11.407521412320177"><ele>185.0</ele><time>2026-03-26T16:49:38.999Z</time></trkpt><trkpt lat="45.54906096682593" lon="11.407629797903585"><ele>185.0</ele><time>2026-03-26T16:49:39.999Z</time></trkpt><trkpt lat="45.54908080466534" lon="11.407755661770924"><ele>185.0</ele><time>2026-03-26T16:49:40.999Z</time></trkpt><trkpt lat="45.549099497743256" lon="11.407854592107322"><ele>185.0</ele><time>2026-03-26T16:49:41.999Z</time></trkpt><trkpt lat="45.54913262005776" lon="11.407949728038005"><ele>184.33333333333331</ele><time>2026-03-26T16:49:42.999Z</time></trkpt><trkpt lat="45.549186101658854" lon="11.40803305361613"><ele>183.66666666666666</ele><time>2026-03-26T16:49:43.999Z</time></trkpt><trkpt lat="45.54925302728964" lon="11.408086304173725"><ele>183.0</ele><time>2026-03-26T16:49:44.999Z</time></trkpt><trkpt lat="45.54929754184875" lon="11.40820899492152"><ele>182.33333333333334</ele><time>2026-03-26T16:49:46.999Z</time></trkpt><trkpt lat="45.54928236197197" lon="11.408331034716532"><ele>181.66666666666669</ele><time>2026-03-26T16:49:48.999Z</time></trkpt><trkpt lat="45.54919705478772" lon="11.408381487662618"><ele>181.0</ele><time>2026-03-26T16:49:50.999Z</time></trkpt><trkpt lat="45.549129035276195" lon="11.408475103563124"><ele>181.0</ele><time>2026-03-26T16:49:53.999Z</time></trkpt><trkpt lat="45.549148559409865" lon="11.408620258899013"><ele>181.0</ele><time>2026-03-26T16:49:54.999Z</time></trkpt><trkpt lat="45.54920242949976" lon="11.408840176997044"><ele>181.0</ele><time>2026-03-26T16:49:55.999Z</time></trkpt><trkpt lat="45.54924312781016" lon="11.409026792526749"><ele>181.0</ele><time>2026-03-26T16:49:56.999Z</time></trkpt><trkpt lat="45.54928697837761" lon="11.409166382220281"><ele>179.75</ele><time>2026-03-26T16:49:57.998Z</time></trkpt><trkpt lat="45.54931655156277" lon="11.409284819975579"><ele>178.5</ele><time>2026-03-26T16:49:58.998Z</time></trkpt><trkpt lat="45.54931442360448" lon="11.409441872401816"><ele>177.25</ele><time>2026-03-26T16:49:59.998Z</time></trkpt><trkpt lat="45.549302203209955" lon="11.409639588729561"><ele>176.0</ele><time>2026-03-26T16:50:00.998Z</time></trkpt><trkpt lat="45.549310716531835" lon="11.409845655386011"><ele>175.5</ele><time>2026-03-26T16:50:01.998Z</time></trkpt><trkpt lat="45.54933665313631" lon="11.410007151188735"><ele>175.0</ele><time>2026-03-26T16:50:02.998Z</time></trkpt><trkpt lat="45.54935363502784" lon="11.410134880944755"><ele>174.5</ele><time>2026-03-26T16:50:03.998Z</time></trkpt><trkpt lat="45.54938164591565" lon="11.410249394853434"><ele>174.0</ele><time>2026-03-26T16:50:04.998Z</time></trkpt><trkpt lat="45.54940461236688" lon="11.4103424346424"><ele>173.5</ele><time>2026-03-26T16:50:05.998Z</time></trkpt><trkpt lat="45.54939466130312" lon="11.41043179448633"><ele>173.0</ele><time>2026-03-26T16:50:07.998Z</time></trkpt><trkpt lat="45.549294147797745" lon="11.41045548872479"><ele>173.0</ele><time>2026-03-26T16:50:09.998Z</time></trkpt><trkpt lat="45.549185036205074" lon="11.410479984291529"><ele>173.0</ele><time>2026-03-26T16:50:10.998Z</time></trkpt><trkpt lat="45.54909498925973" lon="11.410517372364113"><ele>173.0</ele><time>2026-03-26T16:50:11.998Z</time></trkpt><trkpt lat="45.54906631807495" lon="11.410632606165201"><ele>173.0</ele><time>2026-03-26T16:50:13.998Z</time></trkpt><trkpt lat="45.54908786792384" lon="11.410761074192816"><ele>173.0</ele><time>2026-03-26T16:50:14.998Z</time></trkpt><trkpt lat="45.54910292626471" lon="11.410923799858967"><ele>171.0</ele><time>2026-03-26T16:50:15.998Z</time></trkpt><trkpt lat="45.549125561350074" lon="11.411191690766284"><ele>169.0</ele><time>2026-03-26T16:50:16.998Z</time></trkpt><trkpt lat="45.5491432585718" lon="11.411460819807669"><ele>167.0</ele><time>2026-03-26T16:50:17.998Z</time></trkpt><trkpt lat="45.549149111444514" lon="11.411685097073837"><ele>164.75</ele><time>2026-03-26T16:50:18.998Z</time></trkpt><trkpt lat="45.54915467122923" lon="11.411875346934378"><ele>162.5</ele><time>2026-03-26T16:50:19.998Z</time></trkpt><trkpt lat="45.54914994294452" lon="11.412035099451266"><ele>160.25</ele><time>2026-03-26T16:50:20.998Z</time></trkpt><trkpt lat="45.54916061827147" lon="11.41219156995569"><ele>158.0</ele><time>2026-03-26T16:50:21.998Z</time></trkpt><trkpt lat="45.54917404824967" lon="11.412353571471073"><ele>157.16666666666666</ele><time>2026-03-26T16:50:22.998Z</time></trkpt><trkpt lat="45.549182706021135" lon="11.412518151870257"><ele>156.33333333333331</ele><time>2026-03-26T16:50:23.998Z</time></trkpt><trkpt lat="45.54918759872333" lon="11.412651234979222"><ele>155.5</ele><time>2026-03-26T16:50:24.998Z</time></trkpt><trkpt lat="45.54919888781083" lon="11.412768237560593"><ele>154.66666666666666</ele><time>2026-03-26T16:50:25.998Z</time></trkpt><trkpt lat="45.54922401791098" lon="11.412850946595917"><ele>153.83333333333334</ele><time>2026-03-26T16:50:26.998Z</time></trkpt><trkpt lat="45.549213403574235" lon="11.412966466189667"><ele>153.0</ele><time>2026-03-26T16:50:28.998Z</time></trkpt><trkpt lat="45.54910111344748" lon="11.41294906979626"><ele>153.0</ele><time>2026-03-26T16:50:30.998Z</time></trkpt><trkpt lat="45.54898414865676" lon="11.412888367982607"><ele>153.0</ele><time>2026-03-26T16:50:31.998Z</time></trkpt><trkpt lat="45.54882377827673" lon="11.412841635627311"><ele>153.0</ele><time>2026-03-26T16:50:32.998Z</time></trkpt><trkpt lat="45.54863080620105" lon="11.412815374134643"><ele>152.0</ele><time>2026-03-26T16:50:33.998Z</time></trkpt><trkpt lat="45.5484129494956" lon="11.412819544879996"><ele>151.0</ele><time>2026-03-26T16:50:34.998Z</time></trkpt><trkpt lat="45.548216587710634" lon="11.41284029565515"><ele>150.0</ele><time>2026-03-26T16:50:35.998Z</time></trkpt><trkpt lat="45.548058061048806" lon="11.41287460692763"><ele>150.0</ele><time>2026-03-26T16:50:36.997Z</time></trkpt><trkpt lat="45.54791267493892" lon="11.412943742374699"><ele>150.0</ele><time>2026-03-26T16:50:37.997Z</time></trkpt><trkpt lat="45.54774041607299" lon="11.413045960623862"><ele>150.0</ele><time>2026-03-26T16:50:38.997Z</time></trkpt><trkpt lat="45.54759559607031" lon="11.413143034490489"><ele>150.5</ele><time>2026-03-26T16:50:39.997Z</time></trkpt><trkpt lat="45.54748437509196" lon="11.413223842076826"><ele>151.0</ele><time>2026-03-26T16:50:40.997Z</time></trkpt><trkpt lat="45.54737957293729" lon="11.413287725887978"><ele>151.5</ele><time>2026-03-26T16:50:41.997Z</time></trkpt><trkpt lat="45.54725949536889" lon="11.413310773598232"><ele>152.0</ele><time>2026-03-26T16:50:42.997Z</time></trkpt><trkpt lat="45.5471365856743" lon="11.413308083677443"><ele>151.79999999999998</ele><time>2026-03-26T16:50:43.997Z</time></trkpt><trkpt lat="45.547019412857786" lon="11.413255532815569"><ele>151.6</ele><time>2026-03-26T16:50:44.997Z</time></trkpt><trkpt lat="45.546912201331786" lon="11.413223159201127"><ele>151.39999999999998</ele><time>2026-03-26T16:50:45.997Z</time></trkpt><trkpt lat="45.546815635153735" lon="11.413174769972969"><ele>151.2</ele><time>2026-03-26T16:50:46.997Z</time></trkpt><trkpt lat="45.54672908379409" lon="11.413084411986777"><ele>151.0</ele><time>2026-03-26T16:50:47.997Z</time></trkpt><trkpt lat="45.54664302497141" lon="11.412964480246899"><ele>151.0</ele><time>2026-03-26T16:50:48.997Z</time></trkpt><trkpt lat="45.546559175669465" lon="11.412823521027994"><ele>151.0</ele><time>2026-03-26T16:50:49.997Z</time></trkpt><trkpt lat="45.54648045375278" lon="11.412723346853596"><ele>151.0</ele><time>2026-03-26T16:50:50.997Z</time></trkpt><trkpt lat="45.54644488879293" lon="11.41264403403862"><ele>151.0</ele><time>2026-03-26T16:50:52Z</time></trkpt><trkpt lat="45.54637625884474" lon="11.412587333838344"><ele>151.0</ele><time>2026-03-26T16:50:53Z</time></trkpt><trkpt lat="45.54628265330903" lon="11.412596633074921"><ele>151.5</ele><time>2026-03-26T16:50:54Z</time></trkpt><trkpt lat="45.54614163883276" lon="11.412623246638754"><ele>152.0</ele><time>2026-03-26T16:50:55Z</time></trkpt><trkpt lat="45.5460116272905" lon="11.412728973011028"><ele>152.5</ele><time>2026-03-26T16:50:56Z</time></trkpt><trkpt lat="45.54587767962156" lon="11.412844193455605"><ele>153.0</ele><time>2026-03-26T16:50:57Z</time></trkpt><trkpt lat="45.5457544325771" lon="11.412947196206815"><ele>152.75</ele><time>2026-03-26T16:50:58Z</time></trkpt><trkpt lat="45.54564970685834" lon="11.413021361792005"><ele>152.5</ele><time>2026-03-26T16:50:59Z</time></trkpt><trkpt lat="45.54555325884373" lon="11.413080453038324"><ele>152.25</ele><time>2026-03-26T16:51:00Z</time></trkpt><trkpt lat="45.54545061520399" lon="11.41312145229743"><ele>152.0</ele><time>2026-03-26T16:51:01Z</time></trkpt><trkpt lat="45.54533021935663" lon="11.413143758106813"><ele>152.0</ele><time>2026-03-26T16:51:02Z</time></trkpt><trkpt lat="45.54520861082169" lon="11.413184258139655"><ele>152.0</ele><time>2026-03-26T16:51:03Z</time></trkpt><trkpt lat="45.54509816176164" lon="11.413239951265847"><ele>152.0</ele><time>2026-03-26T16:51:04Z</time></trkpt><trkpt lat="45.54499571324951" lon="11.413305094163396"><ele>152.0</ele><time>2026-03-26T16:51:05Z</time></trkpt><trkpt lat="45.54489865162937" lon="11.41335470368336"><ele>152.0</ele><time>2026-03-26T16:51:06Z</time></trkpt><trkpt lat="45.54478788509876" lon="11.413371546201036"><ele>152.0</ele><time>2026-03-26T16:51:07Z</time></trkpt><trkpt lat="45.54469533440239" lon="11.41340271670991"><ele>152.0</ele><time>2026-03-26T16:51:08Z</time></trkpt><trkpt lat="45.5446187553726" lon="11.413438874216235"><ele>152.0</ele><time>2026-03-26T16:51:09Z</time></trkpt><trkpt lat="45.544521664661474" lon="11.413449130025551"><ele>152.0</ele><time>2026-03-26T16:51:11Z</time></trkpt><trkpt lat="45.544488720806505" lon="11.413302121767043"><ele>152.6</ele><time>2026-03-26T16:51:14Z</time></trkpt><trkpt lat="45.54448344876002" lon="11.413195537495474"><ele>153.2</ele><time>2026-03-26T16:51:15Z</time></trkpt><trkpt lat="45.54434610577454" lon="11.413264229589853"><ele>153.8</ele><time>2026-03-26T16:51:18Z</time></trkpt><trkpt lat="45.54431975657358" lon="11.413396044833588"><ele>154.4</ele><time>2026-03-26T16:51:19Z</time></trkpt><trkpt lat="45.54426545598661" lon="11.41355372654278"><ele>155.0</ele><time>2026-03-26T16:51:20Z</time></trkpt><trkpt lat="45.54422198734401" lon="11.413698739191243"><ele>155.0</ele><time>2026-03-26T16:51:21Z</time></trkpt><trkpt lat="45.54417185330318" lon="11.41381346464397"><ele>155.0</ele><time>2026-03-26T16:51:22Z</time></trkpt><trkpt lat="45.54409453759273" lon="11.413901589207294"><ele>155.0</ele><time>2026-03-26T16:51:23Z</time></trkpt><trkpt lat="45.54400006287119" lon="11.41398129728094"><ele>155.0</ele><time>2026-03-26T16:51:24Z</time></trkpt><trkpt lat="45.543911066561" lon="11.414059101794125"><ele>155.0</ele><time>2026-03-26T16:51:24.999Z</time></trkpt><trkpt lat="45.54382696943113" lon="11.41415482760423"><ele>153.4</ele><time>2026-03-26T16:51:25.999Z</time></trkpt><trkpt lat="45.54372990847539" lon="11.414235896443772"><ele>151.8</ele><time>2026-03-26T16:51:26.999Z</time></trkpt><trkpt lat="45.54362668264663" lon="11.414289963265313"><ele>150.2</ele><time>2026-03-26T16:51:27.999Z</time></trkpt><trkpt lat="45.54353457935376" lon="11.41437575357524"><ele>148.6</ele><time>2026-03-26T16:51:28.999Z</time></trkpt><trkpt lat="45.543434967313395" lon="11.414432584169612"><ele>147.0</ele><time>2026-03-26T16:51:29.999Z</time></trkpt><trkpt lat="45.5433647825458" lon="11.414561794899209"><ele>145.5</ele><time>2026-03-26T16:51:30.999Z</time></trkpt><trkpt lat="45.543311450233325" lon="11.414693214380895"><ele>144.0</ele><time>2026-03-26T16:51:31.999Z</time></trkpt><trkpt lat="45.54327756356438" lon="11.414817996505612"><ele>142.5</ele><time>2026-03-26T16:51:32.999Z</time></trkpt><trkpt lat="45.543227420337836" lon="11.41490326661563"><ele>141.0</ele><time>2026-03-26T16:51:33.999Z</time></trkpt><trkpt lat="45.543191215446114" lon="11.414997244604962"><ele>139.5</ele><time>2026-03-26T16:51:34.999Z</time></trkpt><trkpt lat="45.54315723601659" lon="11.415085401852089"><ele>138.0</ele><time>2026-03-26T16:51:35.999Z</time></trkpt><trkpt lat="45.54312565643197" lon="11.415167332482161"><ele>138.0</ele><time>2026-03-26T16:51:36.999Z</time></trkpt><trkpt lat="45.543077993783726" lon="11.415340059959835"><ele>138.0</ele><time>2026-03-26T16:51:38.999Z</time></trkpt><trkpt lat="45.543035516654335" lon="11.415424194364341"><ele>138.0</ele><time>2026-03-26T16:51:39.999Z</time></trkpt><trkpt lat="45.54299177038698" lon="11.41552780491979"><ele>138.0</ele><time>2026-03-26T16:51:40.999Z</time></trkpt><trkpt lat="45.54295144496433" lon="11.415618821339418"><ele>138.0</ele><time>2026-03-26T16:51:41.999Z</time></trkpt><trkpt lat="45.542912847612904" lon="11.415706193234687"><ele>138.0</ele><time>2026-03-26T16:51:42.999Z</time></trkpt><trkpt lat="45.54286531528827" lon="11.41581211291098"><ele>136.20000000000002</ele><time>2026-03-26T16:51:43.999Z</time></trkpt><trkpt lat="45.54280744658457" lon="11.415900792775306"><ele>134.4</ele><time>2026-03-26T16:51:44.999Z</time></trkpt><trkpt lat="45.54274147646305" lon="11.415987997077321"><ele>132.60000000000002</ele><time>2026-03-26T16:51:45.999Z</time></trkpt><trkpt lat="45.54266771476113" lon="11.416100500676581"><ele>130.8</ele><time>2026-03-26T16:51:46.999Z</time></trkpt><trkpt lat="45.542561682342786" lon="11.41622263833497"><ele>129.0</ele><time>2026-03-26T16:51:47.999Z</time></trkpt><trkpt lat="45.542489096786504" lon="11.416339413979925"><ele>129.0</ele><time>2026-03-26T16:51:48.999Z</time></trkpt><trkpt lat="45.54240208115817" lon="11.416434061147525"><ele>129.0</ele><time>2026-03-26T16:51:49.999Z</time></trkpt><trkpt lat="45.54232695205092" lon="11.416531683588305"><ele>129.0</ele><time>2026-03-26T16:51:50.999Z</time></trkpt><trkpt lat="45.542259269753295" lon="11.416615884706943"><ele>129.0</ele><time>2026-03-26T16:51:51.999Z</time></trkpt><trkpt lat="45.54220143602199" lon="11.416688994650904"><ele>129.0</ele><time>2026-03-26T16:51:52.999Z</time></trkpt><trkpt lat="45.54211353615196" lon="11.416727635741942"><ele>126.16666666666667</ele><time>2026-03-26T16:51:53.999Z</time></trkpt><trkpt lat="45.542025936352125" lon="11.41675800118782"><ele>123.33333333333334</ele><time>2026-03-26T16:51:54.999Z</time></trkpt><trkpt lat="45.54195655325208" lon="11.416819659913205"><ele>120.5</ele><time>2026-03-26T16:51:55.999Z</time></trkpt><trkpt lat="45.54188690856142" lon="11.416881062919133"><ele>117.66666666666667</ele><time>2026-03-26T16:51:56.999Z</time></trkpt><trkpt lat="45.54179135953182" lon="11.417003463833082"><ele>114.83333333333334</ele><time>2026-03-26T16:51:58.999Z</time></trkpt><trkpt lat="45.54175684022109" lon="11.417083789128231"><ele>112.0</ele><time>2026-03-26T16:51:59.999Z</time></trkpt><trkpt lat="45.54172394215422" lon="11.417162531398347"><ele>112.0</ele><time>2026-03-26T16:55:25Z</time></trkpt><trkpt lat="45.54169389182611" lon="11.417257781750283"><ele>112.0</ele><time>2026-03-26T16:55:31Z</time></trkpt><trkpt lat="45.541675318271075" lon="11.417346361935534"><ele>112.0</ele><time>2026-03-26T16:55:37Z</time></trkpt><trkpt lat="45.54166064365517" lon="11.41744083726569"><ele>112.0</ele><time>2026-03-26T16:55:42.999Z</time></trkpt><trkpt lat="45.54165203046923" lon="11.417530240261414"><ele>112.0</ele><time>2026-03-26T16:55:47.999Z</time></trkpt><trkpt lat="45.541651460172766" lon="11.417639022013756"><ele>112.0</ele><time>2026-03-26T16:55:52.999Z</time></trkpt><trkpt lat="45.541657600868845" lon="11.417735477014999"><ele>112.0</ele><time>2026-03-26T16:55:58.999Z</time></trkpt><trkpt lat="45.54164833917746" lon="11.417835757278485"><ele>112.0</ele><time>2026-03-26T16:56:46.998Z</time></trkpt><trkpt lat="45.54167889442008" lon="11.417947394848628"><ele>111.99999999999999</ele><time>2026-03-26T16:58:19.998Z</time></trkpt><trkpt lat="45.54167855369532" lon="11.418055815806612"><ele>111.99999999999999</ele><time>2026-03-26T16:58:21.998Z</time></trkpt><trkpt lat="45.54167300238625" lon="11.418160558263137"><ele>112.0</ele><time>2026-03-26T16:58:22.998Z</time></trkpt><trkpt lat="45.541669000905955" lon="11.418340211428246"><ele>112.0</ele><time>2026-03-26T16:58:23.998Z</time></trkpt><trkpt lat="45.54169684758069" lon="11.418491971033584"><ele>111.19999999999999</ele><time>2026-03-26T16:58:24.998Z</time></trkpt><trkpt lat="45.541718654719425" lon="11.418639586342294"><ele>110.39999999999999</ele><time>2026-03-26T16:58:25.998Z</time></trkpt><trkpt lat="45.54170627758264" lon="11.418759624956651"><ele>109.60000000000001</ele><time>2026-03-26T16:58:26.998Z</time></trkpt><trkpt lat="45.541748780266865" lon="11.418922598109742"><ele>108.80000000000001</ele><time>2026-03-26T16:58:27.998Z</time></trkpt><trkpt lat="45.54174784946968" lon="11.419068884347865"><ele>108.0</ele><time>2026-03-26T16:58:28.998Z</time></trkpt><trkpt lat="45.541715268240985" lon="11.41921280850517"><ele>106.0</ele><time>2026-03-26T16:58:29.998Z</time></trkpt><trkpt lat="45.541715573942675" lon="11.41933088596135"><ele>104.00000000000001</ele><time>2026-03-26T16:58:30.998Z</time></trkpt><trkpt lat="45.54171346621913" lon="11.419475040727677"><ele>102.0</ele><time>2026-03-26T16:58:31.998Z</time></trkpt><trkpt lat="45.54171029192986" lon="11.419578488485781"><ele>100.0</ele><time>2026-03-26T16:58:32.998Z</time></trkpt><trkpt lat="45.54170958671898" lon="11.419714896981974"><ele>98.0</ele><time>2026-03-26T16:58:33.998Z</time></trkpt><trkpt lat="45.54168984040419" lon="11.41986385923903"><ele>96.4</ele><time>2026-03-26T16:58:34.998Z</time></trkpt><trkpt lat="45.54168222182766" lon="11.419983794786388"><ele>94.80000000000001</ele><time>2026-03-26T16:58:35.998Z</time></trkpt><trkpt lat="45.541677263804615" lon="11.420132230954625"><ele>93.2</ele><time>2026-03-26T16:58:36.998Z</time></trkpt><trkpt lat="45.54167767605726" lon="11.420289056006773"><ele>91.6</ele><time>2026-03-26T16:58:37.998Z</time></trkpt><trkpt lat="45.54166436519064" lon="11.420438508863061"><ele>90.0</ele><time>2026-03-26T16:58:38.998Z</time></trkpt><trkpt lat="45.54165946444306" lon="11.420560113023985"><ele>88.33333333333333</ele><time>2026-03-26T16:58:39.998Z</time></trkpt><trkpt lat="45.54165897895061" lon="11.420668004241001"><ele>86.66666666666667</ele><time>2026-03-26T16:58:40.998Z</time></trkpt><trkpt lat="45.54169009621733" lon="11.420789247726558"><ele>85.0</ele><time>2026-03-26T16:58:41.998Z</time></trkpt><trkpt lat="45.541724926670675" lon="11.420889360681324"><ele>83.33333333333334</ele><time>2026-03-26T16:58:42.998Z</time></trkpt><trkpt lat="45.541754294313975" lon="11.42098730877527"><ele>81.66666666666667</ele><time>2026-03-26T16:58:43.998Z</time></trkpt><trkpt lat="45.541767550101675" lon="11.421097687400268"><ele>80.0</ele><time>2026-03-26T16:58:44.998Z</time></trkpt><trkpt lat="45.54179961918031" lon="11.421199731251473"><ele>78.0</ele><time>2026-03-26T16:58:45.998Z</time></trkpt><trkpt lat="45.54185860407984" lon="11.421363513449124"><ele>76.0</ele><time>2026-03-26T16:58:47.998Z</time></trkpt><trkpt lat="45.54191300903373" lon="11.421463333654573"><ele>74.0</ele><time>2026-03-26T16:58:49.998Z</time></trkpt><trkpt lat="45.541947807714934" lon="11.421637192034876"><ele>72.0</ele><time>2026-03-26T16:58:51.998Z</time></trkpt><trkpt lat="45.54199349866789" lon="11.42171951960847"><ele>70.0</ele><time>2026-03-26T16:58:53.998Z</time></trkpt><trkpt lat="45.54191019349011" lon="11.42178775603638"><ele>70.0</ele><time>2026-03-26T16:58:55.997Z</time></trkpt><trkpt lat="45.541816115146965" lon="11.421756454750168"><ele>70.0</ele><time>2026-03-26T16:58:57.997Z</time></trkpt><trkpt lat="45.541729309878924" lon="11.421565231041235"><ele>70.0</ele><time>2026-03-26T16:58:59.997Z</time></trkpt><trkpt lat="45.541663324246656" lon="11.421454499913382"><ele>70.0</ele><time>2026-03-26T16:59:00.997Z</time></trkpt><trkpt lat="45.541593520553285" lon="11.42134275696359"><ele>72.0</ele><time>2026-03-26T16:59:01.997Z</time></trkpt><trkpt lat="45.54152769345585" lon="11.421268943192645"><ele>74.0</ele><time>2026-03-26T16:59:02.997Z</time></trkpt><trkpt lat="45.54147789751906" lon="11.421201066191967"><ele>76.0</ele><time>2026-03-26T16:59:03.997Z</time></trkpt><trkpt lat="45.54143317208079" lon="11.421086056182158"><ele>78.0</ele><time>2026-03-26T16:59:04.997Z</time></trkpt><trkpt lat="45.54138893213952" lon="11.420967084262625"><ele>80.0</ele><time>2026-03-26T16:59:05.997Z</time></trkpt><trkpt lat="45.54134263670523" lon="11.420817658163582"><ele>80.0</ele><time>2026-03-26T16:59:06.997Z</time></trkpt><trkpt lat="45.54129734341848" lon="11.420652409525013"><ele>80.0</ele><time>2026-03-26T16:59:07.997Z</time></trkpt><trkpt lat="45.54124664998116" lon="11.420474882842214"><ele>80.0</ele><time>2026-03-26T16:59:08.997Z</time></trkpt><trkpt lat="45.54119502362219" lon="11.420300386791459"><ele>80.0</ele><time>2026-03-26T16:59:09.997Z</time></trkpt><trkpt lat="45.541160147137425" lon="11.420179471239981"><ele>78.66666666666667</ele><time>2026-03-26T16:59:10.997Z</time></trkpt><trkpt lat="45.54114436414315" lon="11.420039104084738"><ele>77.33333333333334</ele><time>2026-03-26T16:59:11.997Z</time></trkpt><trkpt lat="45.54112633199086" lon="11.419924095638656"><ele>76.0</ele><time>2026-03-26T16:59:12.997Z</time></trkpt><trkpt lat="45.54110385760643" lon="11.4198326606842"><ele>74.66666666666667</ele><time>2026-03-26T16:59:13.997Z</time></trkpt><trkpt lat="45.54108623581434" lon="11.419717801045442"><ele>73.33333333333333</ele><time>2026-03-26T16:59:16Z</time></trkpt><trkpt lat="45.54104031248059" lon="11.419617318608157"><ele>72.0</ele><time>2026-03-26T16:59:20Z</time></trkpt><trkpt lat="45.54099850932875" lon="11.41954815674322"><ele>72.0</ele><time>2026-03-26T16:59:25Z</time></trkpt><trkpt lat="45.54095914985287" lon="11.419465862343591"><ele>72.0</ele><time>2026-03-26T16:59:26Z</time></trkpt><trkpt lat="45.5408865165601" lon="11.419425298938318"><ele>72.0</ele><time>2026-03-26T16:59:27Z</time></trkpt><trkpt lat="45.540795113511166" lon="11.419438011806907"><ele>72.0</ele><time>2026-03-26T16:59:28Z</time></trkpt><trkpt lat="45.54070734365939" lon="11.419517584931384"><ele>72.0</ele><time>2026-03-26T16:59:29Z</time></trkpt><trkpt lat="45.54061913398219" lon="11.41965639052279"><ele>70.4</ele><time>2026-03-26T16:59:30Z</time></trkpt><trkpt lat="45.54049997940238" lon="11.419765771649567"><ele>68.80000000000001</ele><time>2026-03-26T16:59:31Z</time></trkpt><trkpt lat="45.54038622336368" lon="11.41982452190905"><ele>67.2</ele><time>2026-03-26T16:59:32Z</time></trkpt><trkpt lat="45.54028746055817" lon="11.419847115990292"><ele>65.60000000000001</ele><time>2026-03-26T16:59:33Z</time></trkpt><trkpt lat="45.54022426473134" lon="11.419848096125696"><ele>64.0</ele><time>2026-03-26T16:59:34Z</time></trkpt><trkpt lat="45.54011057859572" lon="11.419920828649754"><ele>63.5</ele><time>2026-03-26T16:59:36Z</time></trkpt><trkpt lat="45.54002791256484" lon="11.420023023541916"><ele>63.0</ele><time>2026-03-26T16:59:37Z</time></trkpt><trkpt lat="45.539936488646454" lon="11.420161483030483"><ele>62.5</ele><time>2026-03-26T16:59:38Z</time></trkpt><trkpt lat="45.53984482950826" lon="11.420327748257352"><ele>62.0</ele><time>2026-03-26T16:59:39Z</time></trkpt><trkpt lat="45.539775008757715" lon="11.420503203518946"><ele>61.0</ele><time>2026-03-26T16:59:40Z</time></trkpt><trkpt lat="45.53971616574234" lon="11.42063923327493"><ele>60.0</ele><time>2026-03-26T16:59:41Z</time></trkpt><trkpt lat="45.539684628188986" lon="11.420721196768978"><ele>59.0</ele><time>2026-03-26T16:59:42Z</time></trkpt><trkpt lat="45.539630416983705" lon="11.420928845882825"><ele>58.0</ele><time>2026-03-26T16:59:44Z</time></trkpt><trkpt lat="45.53960084649762" lon="11.421083272855158"><ele>57.0</ele><time>2026-03-26T16:59:45Z</time></trkpt><trkpt lat="45.53957543196665" lon="11.421266871017103"><ele>56.400000000000006</ele><time>2026-03-26T16:59:46Z</time></trkpt><trkpt lat="45.539581846678765" lon="11.421414294781263"><ele>55.800000000000004</ele><time>2026-03-26T16:59:47Z</time></trkpt><trkpt lat="45.53955525216646" lon="11.421550178084509"><ele>55.2</ele><time>2026-03-26T16:59:47.999Z</time></trkpt><trkpt lat="45.5395225121331" lon="11.421648631734483"><ele>54.6</ele><time>2026-03-26T16:59:48.999Z</time></trkpt><trkpt lat="45.539492692803464" lon="11.421741795486422"><ele>54.0</ele><time>2026-03-26T16:59:49.999Z</time></trkpt><trkpt lat="45.539439615786804" lon="11.421864653401643"><ele>58.400000000000006</ele><time>2026-03-26T16:59:50.999Z</time></trkpt><trkpt lat="45.53938746488461" lon="11.421981455060786"><ele>62.800000000000004</ele><time>2026-03-26T16:59:51.999Z</time></trkpt><trkpt lat="45.53931484017413" lon="11.42207307042583"><ele>67.19999999999999</ele><time>2026-03-26T16:59:52.999Z</time></trkpt><trkpt lat="45.539227952955336" lon="11.422140134101426"><ele>71.6</ele><time>2026-03-26T16:59:53.999Z</time></trkpt><trkpt lat="45.53915347517569" lon="11.422213875416096"><ele>76.0</ele><time>2026-03-26T16:59:54.999Z</time></trkpt><trkpt lat="45.53905973876145" lon="11.422277311939423"><ele>76.0</ele><time>2026-03-26T16:59:55.999Z</time></trkpt><trkpt lat="45.5389613149671" lon="11.422319958161102"><ele>76.0</ele><time>2026-03-26T16:59:56.999Z</time></trkpt><trkpt lat="45.538876610767296" lon="11.422360956832614"><ele>76.0</ele><time>2026-03-26T16:59:57.999Z</time></trkpt><trkpt lat="45.538806369447784" lon="11.422479588987155"><ele>76.0</ele><time>2026-03-26T16:59:58.999Z</time></trkpt><trkpt lat="45.53875268662763" lon="11.422561151497"><ele>76.0</ele><time>2026-03-26T16:59:59.999Z</time></trkpt><trkpt lat="45.538676123403924" lon="11.422561627549683"><ele>79.0</ele><time>2026-03-26T17:00:00.999Z</time></trkpt><trkpt lat="45.53857829396724" lon="11.422538286199659"><ele>82.0</ele><time>2026-03-26T17:00:01.999Z</time></trkpt><trkpt lat="45.53846266471717" lon="11.42252285030893"><ele>85.0</ele><time>2026-03-26T17:00:02.999Z</time></trkpt><trkpt lat="45.53834939554172" lon="11.422537827541754"><ele>88.0</ele><time>2026-03-26T17:00:03.999Z</time></trkpt><trkpt lat="45.53823918656019" lon="11.422580853571908"><ele>91.0</ele><time>2026-03-26T17:00:04.999Z</time></trkpt><trkpt lat="45.53811826391692" lon="11.422645029728878"><ele>91.0</ele><time>2026-03-26T17:00:05.999Z</time></trkpt><trkpt lat="45.53801835699862" lon="11.42272089214513"><ele>91.0</ele><time>2026-03-26T17:00:06.999Z</time></trkpt><trkpt lat="45.537939450969255" lon="11.42279731176105"><ele>91.0</ele><time>2026-03-26T17:00:07.999Z</time></trkpt><trkpt lat="45.537841605797816" lon="11.422814457490562"><ele>91.0</ele><time>2026-03-26T17:00:08.999Z</time></trkpt><trkpt lat="45.53773256741699" lon="11.422805036087874"><ele>91.0</ele><time>2026-03-26T17:00:09.999Z</time></trkpt><trkpt lat="45.53762242899427" lon="11.422797735069464"><ele>91.83333333333333</ele><time>2026-03-26T17:00:10.999Z</time></trkpt><trkpt lat="45.537529878916665" lon="11.42281799142959"><ele>92.66666666666666</ele><time>2026-03-26T17:00:11.999Z</time></trkpt><trkpt lat="45.53746252868131" lon="11.422788184155685"><ele>93.5</ele><time>2026-03-26T17:00:12.999Z</time></trkpt><trkpt lat="45.53733512334978" lon="11.422839300403819"><ele>94.33333333333333</ele><time>2026-03-26T17:00:14.999Z</time></trkpt><trkpt lat="45.537266755552864" lon="11.422858172851122"><ele>95.16666666666667</ele><time>2026-03-26T17:00:15.999Z</time></trkpt><trkpt lat="45.53719817634081" lon="11.422884630141757"><ele>96.0</ele><time>2026-03-26T17:00:16.999Z</time></trkpt><trkpt lat="45.537125108310846" lon="11.422913879049336"><ele>96.0</ele><time>2026-03-26T17:00:17.999Z</time></trkpt><trkpt lat="45.537060377588524" lon="11.42293487165346"><ele>96.0</ele><time>2026-03-26T17:00:18.999Z</time></trkpt><trkpt lat="45.53696389763765" lon="11.422941968564894"><ele>96.0</ele><time>2026-03-26T17:00:19.999Z</time></trkpt><trkpt lat="45.536837706571994" lon="11.422928912666672"><ele>96.0</ele><time>2026-03-26T17:00:20.999Z</time></trkpt><trkpt lat="45.53671568239504" lon="11.42283263460657"><ele>96.0</ele><time>2026-03-26T17:00:21.999Z</time></trkpt><trkpt lat="45.536591350327804" lon="11.422850325414341"><ele>96.4</ele><time>2026-03-26T17:00:22.999Z</time></trkpt><trkpt lat="45.53649168081416" lon="11.422873288772625"><ele>96.8</ele><time>2026-03-26T17:00:23.999Z</time></trkpt><trkpt lat="45.536430553145316" lon="11.422924447263679"><ele>97.2</ele><time>2026-03-26T17:00:24.998Z</time></trkpt><trkpt lat="45.536388415940785" lon="11.423029600754775"><ele>97.60000000000001</ele><time>2026-03-26T17:00:25.998Z</time></trkpt><trkpt lat="45.53636809167385" lon="11.423161428140304"><ele>98.0</ele><time>2026-03-26T17:00:26.998Z</time></trkpt><trkpt lat="45.53639592079695" lon="11.423297265309468"><ele>96.99999999999999</ele><time>2026-03-26T17:00:27.998Z</time></trkpt><trkpt lat="45.536355493451104" lon="11.423409104982603"><ele>96.0</ele><time>2026-03-26T17:00:29.998Z</time></trkpt><trkpt lat="45.53628767295643" lon="11.423388355254616"><ele>95.0</ele><time>2026-03-26T17:00:30.998Z</time></trkpt><trkpt lat="45.536205298998524" lon="11.423396226386025"><ele>94.0</ele><time>2026-03-26T17:00:31.998Z</time></trkpt><trkpt lat="45.536112255704936" lon="11.423405132722253"><ele>93.0</ele><time>2026-03-26T17:00:32.998Z</time></trkpt><trkpt lat="45.53602173246474" lon="11.423429739407215"><ele>92.0</ele><time>2026-03-26T17:00:33.998Z</time></trkpt><trkpt lat="45.535922638224214" lon="11.423439155587934"><ele>92.0</ele><time>2026-03-26T17:00:34.998Z</time></trkpt><trkpt lat="45.53583071711605" lon="11.423421082484031"><ele>92.0</ele><time>2026-03-26T17:00:35.998Z</time></trkpt><trkpt lat="45.53574012749808" lon="11.423414860657449"><ele>92.0</ele><time>2026-03-26T17:00:36.998Z</time></trkpt><trkpt lat="45.53563749994499" lon="11.423407663575373"><ele>92.0</ele><time>2026-03-26T17:00:37.998Z</time></trkpt><trkpt lat="45.53555335371919" lon="11.423323538113424"><ele>92.0</ele><time>2026-03-26T17:00:38.998Z</time></trkpt><trkpt lat="45.535442226332336" lon="11.423279482795813"><ele>92.5</ele><time>2026-03-26T17:00:39.998Z</time></trkpt><trkpt lat="45.53530567350413" lon="11.4233760821462"><ele>93.0</ele><time>2026-03-26T17:00:40.998Z</time></trkpt><trkpt lat="45.53517909502764" lon="11.42334884750968"><ele>93.5</ele><time>2026-03-26T17:00:41.998Z</time></trkpt><trkpt lat="45.535080467467594" lon="11.423339368403"><ele>94.0</ele><time>2026-03-26T17:00:42.998Z</time></trkpt><trkpt lat="45.5349762977601" lon="11.423338846376557"><ele>94.0</ele><time>2026-03-26T17:00:43.998Z</time></trkpt><trkpt lat="45.534906507605726" lon="11.423331713956665"><ele>94.0</ele><time>2026-03-26T17:00:44.998Z</time></trkpt><trkpt lat="45.534844527711726" lon="11.423359856377067"><ele>94.0</ele><time>2026-03-26T17:00:45.998Z</time></trkpt><trkpt lat="45.534766339322225" lon="11.423411737947964"><ele>94.0</ele><time>2026-03-26T17:00:46.998Z</time></trkpt><trkpt lat="45.53468410153683" lon="11.423444709312816"><ele>94.0</ele><time>2026-03-26T17:00:47.998Z</time></trkpt><trkpt lat="45.534610560832114" lon="11.423436329484206"><ele>94.0</ele><time>2026-03-26T17:00:48.998Z</time></trkpt><trkpt lat="45.53452889866189" lon="11.423416828778366"><ele>94.4</ele><time>2026-03-26T17:00:49.998Z</time></trkpt><trkpt lat="45.534430624411556" lon="11.423331887880593"><ele>94.80000000000001</ele><time>2026-03-26T17:00:50.998Z</time></trkpt><trkpt lat="45.53435948053849" lon="11.423271133615978"><ele>95.19999999999999</ele><time>2026-03-26T17:00:51.998Z</time></trkpt><trkpt lat="45.534293219191476" lon="11.423206134404284"><ele>95.6</ele><time>2026-03-26T17:00:52.998Z</time></trkpt><trkpt lat="45.53423371809219" lon="11.423133862536245"><ele>96.0</ele><time>2026-03-26T17:00:53.998Z</time></trkpt><trkpt lat="45.534175012111824" lon="11.423029382709071"><ele>97.33333333333333</ele><time>2026-03-26T17:00:54.998Z</time></trkpt><trkpt lat="45.534116961326916" lon="11.422924018328171"><ele>98.66666666666666</ele><time>2026-03-26T17:00:55.998Z</time></trkpt><trkpt lat="45.534051725761756" lon="11.422807573285942"><ele>100.0</ele><time>2026-03-26T17:00:56.998Z</time></trkpt><trkpt lat="45.534013111481315" lon="11.422691380736413"><ele>101.33333333333333</ele><time>2026-03-26T17:00:57.998Z</time></trkpt><trkpt lat="45.5339650186355" lon="11.422595558659877"><ele>102.66666666666666</ele><time>2026-03-26T17:00:58.998Z</time></trkpt><trkpt lat="45.53393491739519" lon="11.42249694053342"><ele>104.0</ele><time>2026-03-26T17:00:59.998Z</time></trkpt><trkpt lat="45.53391965123184" lon="11.422380592072976"><ele>103.99999999999999</ele><time>2026-03-26T17:01:00.998Z</time></trkpt><trkpt lat="45.533908736510035" lon="11.422254158025227"><ele>104.0</ele><time>2026-03-26T17:01:01.997Z</time></trkpt><trkpt lat="45.53389214157791" lon="11.422155318970002"><ele>104.0</ele><time>2026-03-26T17:01:02.997Z</time></trkpt><trkpt lat="45.533833881454946" lon="11.422070943240707"><ele>104.0</ele><time>2026-03-26T17:01:03.997Z</time></trkpt><trkpt lat="45.53376194315409" lon="11.42201214867408"><ele>103.99999999999999</ele><time>2026-03-26T17:01:04.997Z</time></trkpt><trkpt lat="45.533705116936034" lon="11.421953920577291"><ele>104.0</ele><time>2026-03-26T17:01:05.997Z</time></trkpt><trkpt lat="45.5336377223836" lon="11.421853723202696"><ele>105.4</ele><time>2026-03-26T17:01:06.997Z</time></trkpt><trkpt lat="45.53356813701534" lon="11.42175673338476"><ele>106.80000000000001</ele><time>2026-03-26T17:01:07.997Z</time></trkpt><trkpt lat="45.53347467403394" lon="11.42169037393619"><ele>108.19999999999999</ele><time>2026-03-26T17:01:08.997Z</time></trkpt><trkpt lat="45.533462739798125" lon="11.421478858522125"><ele>109.6</ele><time>2026-03-26T17:01:09.997Z</time></trkpt><trkpt lat="45.53338080188216" lon="11.421401884144775"><ele>111.0</ele><time>2026-03-26T17:01:11.997Z</time></trkpt><trkpt lat="45.53332166031501" lon="11.421340360050195"><ele>111.0</ele><time>2026-03-26T17:01:12.997Z</time></trkpt><trkpt lat="45.533111442050064" lon="11.421633525651963"><ele>111.0</ele><time>2026-03-26T17:01:14.997Z</time></trkpt><trkpt lat="45.53302992784187" lon="11.421709088513971"><ele>111.0</ele><time>2026-03-26T17:01:15.997Z</time></trkpt><trkpt lat="45.532936479425274" lon="11.421761590399802"><ele>111.0</ele><time>2026-03-26T17:01:16.997Z</time></trkpt><trkpt lat="45.532840229139104" lon="11.421819386400163"><ele>111.0</ele><time>2026-03-26T17:01:17.997Z</time></trkpt><trkpt lat="45.53274119354204" lon="11.421892551471341"><ele>111.0</ele><time>2026-03-26T17:01:18.997Z</time></trkpt><trkpt lat="45.53265402214582" lon="11.421997684248096"><ele>111.0</ele><time>2026-03-26T17:01:19.997Z</time></trkpt><trkpt lat="45.532579972822994" lon="11.422126634559701"><ele>111.0</ele><time>2026-03-26T17:01:20.997Z</time></trkpt><trkpt lat="45.532505042613565" lon="11.422247280929293"><ele>111.0</ele><time>2026-03-26T17:01:22Z</time></trkpt><trkpt lat="45.53242520233652" lon="11.422365171635665"><ele>111.0</ele><time>2026-03-26T17:01:23Z</time></trkpt><trkpt lat="45.532346987625" lon="11.422487045279722"><ele>111.0</ele><time>2026-03-26T17:01:24Z</time></trkpt><trkpt lat="45.53227667046017" lon="11.422609053373915"><ele>111.0</ele><time>2026-03-26T17:01:25Z</time></trkpt><trkpt lat="45.53220361754768" lon="11.42272038323135"><ele>111.0</ele><time>2026-03-26T17:01:26Z</time></trkpt><trkpt lat="45.532151691810746" lon="11.422863720837386"><ele>111.0</ele><time>2026-03-26T17:01:27Z</time></trkpt><trkpt lat="45.532115226823755" lon="11.42297058120686"><ele>111.0</ele><time>2026-03-26T17:01:28Z</time></trkpt><trkpt lat="45.53206371236864" lon="11.423083269133201"><ele>111.0</ele><time>2026-03-26T17:01:30Z</time></trkpt><trkpt lat="45.53203196247856" lon="11.423178310007362"><ele>111.0</ele><time>2026-03-26T17:01:31Z</time></trkpt><trkpt lat="45.53198169449325" lon="11.423267719189543"><ele>111.0</ele><time>2026-03-26T17:01:32Z</time></trkpt><trkpt lat="45.53192641958078" lon="11.423333260953747"><ele>111.0</ele><time>2026-03-26T17:01:33Z</time></trkpt><trkpt lat="45.53186300018842" lon="11.423343883710142"><ele>112.8</ele><time>2026-03-26T17:01:34Z</time></trkpt><trkpt lat="45.531787059688426" lon="11.423310977166546"><ele>114.6</ele><time>2026-03-26T17:01:35Z</time></trkpt><trkpt lat="45.531711618789664" lon="11.423251552536852"><ele>116.4</ele><time>2026-03-26T17:01:36Z</time></trkpt><trkpt lat="45.53163076860214" lon="11.423167164428001"><ele>118.2</ele><time>2026-03-26T17:01:37Z</time></trkpt><trkpt lat="45.5315501139021" lon="11.423083564348213"><ele>120.0</ele><time>2026-03-26T17:01:38Z</time></trkpt><trkpt lat="45.531479706310634" lon="11.423015541311702"><ele>120.0</ele><time>2026-03-26T17:01:39Z</time></trkpt><trkpt lat="45.53138744235096" lon="11.422932479480176"><ele>120.0</ele><time>2026-03-26T17:01:41Z</time></trkpt><trkpt lat="45.53128809233171" lon="11.422984486968279"><ele>120.0</ele><time>2026-03-26T17:01:50.999Z</time></trkpt><trkpt lat="45.53123354528543" lon="11.423081346194055"><ele>120.0</ele><time>2026-03-26T17:01:51.999Z</time></trkpt><trkpt lat="45.531193331856244" lon="11.423219954769507"><ele>120.0</ele><time>2026-03-26T17:01:52.999Z</time></trkpt><trkpt lat="45.531147301030806" lon="11.423387868876501"><ele>120.25</ele><time>2026-03-26T17:01:53.999Z</time></trkpt><trkpt lat="45.5310858963013" lon="11.42356633148686"><ele>120.5</ele><time>2026-03-26T17:01:54.999Z</time></trkpt><trkpt lat="45.531017605828055" lon="11.423753684798363"><ele>120.75</ele><time>2026-03-26T17:01:55.999Z</time></trkpt><trkpt lat="45.53095116931437" lon="11.423957027563961"><ele>121.0</ele><time>2026-03-26T17:01:56.999Z</time></trkpt><trkpt lat="45.530878586706955" lon="11.424174196275787"><ele>121.0</ele><time>2026-03-26T17:01:57.999Z</time></trkpt><trkpt lat="45.53079983552786" lon="11.424396596618642"><ele>121.0</ele><time>2026-03-26T17:01:58.999Z</time></trkpt><trkpt lat="45.530730613474894" lon="11.424596677995806"><ele>121.0</ele><time>2026-03-26T17:01:59.999Z</time></trkpt><trkpt lat="45.530665965753016" lon="11.424773012515832"><ele>120.0</ele><time>2026-03-26T17:02:00.999Z</time></trkpt><trkpt lat="45.53060272502875" lon="11.424938186617043"><ele>119.0</ele><time>2026-03-26T17:02:01.999Z</time></trkpt><trkpt lat="45.53053623247558" lon="11.425114619653645"><ele>118.0</ele><time>2026-03-26T17:02:02.999Z</time></trkpt><trkpt lat="45.530469227495" lon="11.425298646031225"><ele>117.0</ele><time>2026-03-26T17:02:03.999Z</time></trkpt><trkpt lat="45.530411001664355" lon="11.425460133295301"><ele>116.5</ele><time>2026-03-26T17:02:04.999Z</time></trkpt><trkpt lat="45.530357490687386" lon="11.425601453033254"><ele>116.0</ele><time>2026-03-26T17:02:05.999Z</time></trkpt><trkpt lat="45.53031800355701" lon="11.425702949209045"><ele>115.5</ele><time>2026-03-26T17:02:06.999Z</time></trkpt><trkpt lat="45.5302829121416" lon="11.425800869029208"><ele>115.0</ele><time>2026-03-26T17:02:07.999Z</time></trkpt><trkpt lat="45.53024448427689" lon="11.425891363903279"><ele>114.5</ele><time>2026-03-26T17:02:08.999Z</time></trkpt><trkpt lat="45.530215914519815" lon="11.425978589284489"><ele>114.0</ele><time>2026-03-26T17:02:09.999Z</time></trkpt><trkpt lat="45.53027549804294" lon="11.426242368140171"><ele>113.75</ele><time>2026-03-26T17:02:11.999Z</time></trkpt><trkpt lat="45.530336730439124" lon="11.426394772293538"><ele>113.5</ele><time>2026-03-26T17:02:12.999Z</time></trkpt><trkpt lat="45.53041548402356" lon="11.426579442184197"><ele>113.25</ele><time>2026-03-26T17:02:13.999Z</time></trkpt><trkpt lat="45.530497439502746" lon="11.426797018615348"><ele>113.0</ele><time>2026-03-26T17:02:14.999Z</time></trkpt><trkpt lat="45.530610067517856" lon="11.427062474733503"><ele>111.33333333333333</ele><time>2026-03-26T17:02:15.999Z</time></trkpt><trkpt lat="45.53070876674044" lon="11.427274347707227"><ele>109.66666666666666</ele><time>2026-03-26T17:02:16.999Z</time></trkpt><trkpt lat="45.53080452553236" lon="11.427459740890713"><ele>108.0</ele><time>2026-03-26T17:02:17.999Z</time></trkpt><trkpt lat="45.5309243315284" lon="11.42765800584585"><ele>108.0</ele><time>2026-03-26T17:02:18.999Z</time></trkpt><trkpt lat="45.53106470772261" lon="11.427863116849515"><ele>108.0</ele><time>2026-03-26T17:02:19.999Z</time></trkpt><trkpt lat="45.53118632816569" lon="11.428020702096878"><ele>108.0</ele><time>2026-03-26T17:02:20.999Z</time></trkpt><trkpt lat="45.53131393063928" lon="11.428151242853465"><ele>106.75</ele><time>2026-03-26T17:02:21.999Z</time></trkpt><trkpt lat="45.53142613739233" lon="11.42829057624178"><ele>105.5</ele><time>2026-03-26T17:02:22.999Z</time></trkpt><trkpt lat="45.53152875583356" lon="11.428420393195115"><ele>104.25</ele><time>2026-03-26T17:02:23.999Z</time></trkpt><trkpt lat="45.53161756805743" lon="11.428564256451471"><ele>103.0</ele><time>2026-03-26T17:02:24.999Z</time></trkpt><trkpt lat="45.53168614829515" lon="11.428736712342745"><ele>101.0</ele><time>2026-03-26T17:02:25.999Z</time></trkpt><trkpt lat="45.53175014710402" lon="11.42894147509666"><ele>99.0</ele><time>2026-03-26T17:02:26.999Z</time></trkpt><trkpt lat="45.53181817308347" lon="11.429181620805204"><ele>97.0</ele><time>2026-03-26T17:02:27.999Z</time></trkpt><trkpt lat="45.53188083525447" lon="11.429403669097166"><ele>97.0</ele><time>2026-03-26T17:02:28.999Z</time></trkpt><trkpt lat="45.53193836005582" lon="11.429600833167937"><ele>97.0</ele><time>2026-03-26T17:02:29.998Z</time></trkpt><trkpt lat="45.53198300290311" lon="11.42980441058312"><ele>97.0</ele><time>2026-03-26T17:02:30.998Z</time></trkpt><trkpt lat="45.53203689323237" lon="11.430010989321175"><ele>94.25</ele><time>2026-03-26T17:02:31.998Z</time></trkpt><trkpt lat="45.53207061011764" lon="11.430228701441614"><ele>91.5</ele><time>2026-03-26T17:02:32.998Z</time></trkpt><trkpt lat="45.53209928663957" lon="11.430426765021187"><ele>88.75</ele><time>2026-03-26T17:02:33.998Z</time></trkpt><trkpt lat="45.532125094881266" lon="11.43061491064742"><ele>86.0</ele><time>2026-03-26T17:02:34.998Z</time></trkpt><trkpt lat="45.532118048685334" lon="11.4307912155957"><ele>85.66666666666667</ele><time>2026-03-26T17:02:35.998Z</time></trkpt><trkpt lat="45.53207007488382" lon="11.430975968594867"><ele>85.33333333333333</ele><time>2026-03-26T17:02:36.998Z</time></trkpt><trkpt lat="45.53199230946861" lon="11.431184584189571"><ele>85.0</ele><time>2026-03-26T17:02:37.998Z</time></trkpt><trkpt lat="45.531925663353235" lon="11.431419854681625"><ele>83.33333333333333</ele><time>2026-03-26T17:02:38.998Z</time></trkpt><trkpt lat="45.531869182764524" lon="11.431700688519708"><ele>81.66666666666667</ele><time>2026-03-26T17:02:39.998Z</time></trkpt><trkpt lat="45.53181973285316" lon="11.431931293774786"><ele>80.0</ele><time>2026-03-26T17:02:40.998Z</time></trkpt><trkpt lat="45.5317596867746" lon="11.43212755618519"><ele>77.25</ele><time>2026-03-26T17:02:41.998Z</time></trkpt><trkpt lat="45.5317064312056" lon="11.432289519266183"><ele>74.5</ele><time>2026-03-26T17:02:42.998Z</time></trkpt><trkpt lat="45.53162660594367" lon="11.432439996109942"><ele>71.75</ele><time>2026-03-26T17:02:43.998Z</time></trkpt><trkpt lat="45.53155228463284" lon="11.432556123433004"><ele>69.0</ele><time>2026-03-26T17:02:44.998Z</time></trkpt><trkpt lat="45.53145725113971" lon="11.432652944428575"><ele>69.0</ele><time>2026-03-26T17:02:45.998Z</time></trkpt><trkpt lat="45.53131477761531" lon="11.432733106878064"><ele>69.0</ele><time>2026-03-26T17:02:46.998Z</time></trkpt><trkpt lat="45.53116319613235" lon="11.432820853157303"><ele>69.0</ele><time>2026-03-26T17:02:47.998Z</time></trkpt><trkpt lat="45.531006814382" lon="11.432941862854731"><ele>65.0</ele><time>2026-03-26T17:02:48.998Z</time></trkpt><trkpt lat="45.53085754414155" lon="11.433052564637197"><ele>61.0</ele><time>2026-03-26T17:02:49.998Z</time></trkpt><trkpt lat="45.530712334922605" lon="11.433160298500331"><ele>57.0</ele><time>2026-03-26T17:02:50.998Z</time></trkpt><trkpt lat="45.53057939260284" lon="11.433263916492486"><ele>57.0</ele><time>2026-03-26T17:02:51.998Z</time></trkpt><trkpt lat="45.530449820149165" lon="11.43334511560018"><ele>57.0</ele><time>2026-03-26T17:02:52.998Z</time></trkpt><trkpt lat="45.53032332288555" lon="11.433424890489642"><ele>57.0</ele><time>2026-03-26T17:02:53.998Z</time></trkpt><trkpt lat="45.53018336649879" lon="11.433472519087578"><ele>57.0</ele><time>2026-03-26T17:02:54.998Z</time></trkpt><trkpt lat="45.53002223853411" lon="11.433509314973605"><ele>56.66666666666667</ele><time>2026-03-26T17:02:55.998Z</time></trkpt><trkpt lat="45.5298434566059" lon="11.433545787946061"><ele>56.333333333333336</ele><time>2026-03-26T17:02:56.998Z</time></trkpt><trkpt lat="45.529674972152705" lon="11.433585336555888"><ele>56.0</ele><time>2026-03-26T17:02:57.998Z</time></trkpt><trkpt lat="45.52951958673853" lon="11.433616845146279"><ele>54.75</ele><time>2026-03-26T17:02:58.998Z</time></trkpt><trkpt lat="45.52938867100743" lon="11.433646150998287"><ele>53.5</ele><time>2026-03-26T17:02:59.998Z</time></trkpt><trkpt lat="45.52928353089877" lon="11.433680357287637"><ele>52.25</ele><time>2026-03-26T17:03:00.998Z</time></trkpt><trkpt lat="45.529185600841934" lon="11.433749219896454"><ele>51.0</ele><time>2026-03-26T17:03:01.998Z</time></trkpt><trkpt lat="45.52910444579964" lon="11.43385230309984"><ele>49.25</ele><time>2026-03-26T17:03:02.998Z</time></trkpt><trkpt lat="45.52905852136605" lon="11.434016004937112"><ele>47.5</ele><time>2026-03-26T17:03:03.998Z</time></trkpt><trkpt lat="45.52909084918799" lon="11.434233080546196"><ele>45.75</ele><time>2026-03-26T17:03:04.998Z</time></trkpt><trkpt lat="45.529126929918505" lon="11.434465033967133"><ele>44.0</ele><time>2026-03-26T17:03:05.998Z</time></trkpt><trkpt lat="45.5291572898462" lon="11.434706659671155"><ele>43.33333333333333</ele><time>2026-03-26T17:03:06.997Z</time></trkpt><trkpt lat="45.52912211815589" lon="11.434924651024714"><ele>42.666666666666664</ele><time>2026-03-26T17:03:07.997Z</time></trkpt><trkpt lat="45.52905794958075" lon="11.43510708349608"><ele>42.0</ele><time>2026-03-26T17:03:08.997Z</time></trkpt><trkpt lat="45.52897941590511" lon="11.435293725866492"><ele>42.0</ele><time>2026-03-26T17:03:09.997Z</time></trkpt><trkpt lat="45.528893787033894" lon="11.435519752389906"><ele>42.0</ele><time>2026-03-26T17:03:10.997Z</time></trkpt><trkpt lat="45.528796607408786" lon="11.435743887516182"><ele>42.0</ele><time>2026-03-26T17:03:11.997Z</time></trkpt><trkpt lat="45.52869780918198" lon="11.435984260801803"><ele>42.333333333333336</ele><time>2026-03-26T17:03:12.997Z</time></trkpt><trkpt lat="45.52860668096779" lon="11.436214000971814"><ele>42.66666666666667</ele><time>2026-03-26T17:03:13.997Z</time></trkpt><trkpt lat="45.528557542201874" lon="11.436412351021422"><ele>43.0</ele><time>2026-03-26T17:03:14.997Z</time></trkpt><trkpt lat="45.528535811048044" lon="11.436617319708974"><ele>43.25</ele><time>2026-03-26T17:03:15.997Z</time></trkpt><trkpt lat="45.52854496662051" lon="11.43683702585588"><ele>43.5</ele><time>2026-03-26T17:03:16.997Z</time></trkpt><trkpt lat="45.52859214301647" lon="11.437043574410021"><ele>43.75</ele><time>2026-03-26T17:03:17.997Z</time></trkpt><trkpt lat="45.528666587477275" lon="11.437205614040352"><ele>44.0</ele><time>2026-03-26T17:03:18.997Z</time></trkpt><trkpt lat="45.52872145570156" lon="11.437330799828661"><ele>43.800000000000004</ele><time>2026-03-26T17:03:19.997Z</time></trkpt><trkpt lat="45.52877829807789" lon="11.437439775513623"><ele>43.6</ele><time>2026-03-26T17:03:20.997Z</time></trkpt><trkpt lat="45.52884326925571" lon="11.437567213902497"><ele>43.4</ele><time>2026-03-26T17:03:21.997Z</time></trkpt><trkpt lat="45.52890597026743" lon="11.437680351057784"><ele>43.2</ele><time>2026-03-26T17:03:22.997Z</time></trkpt><trkpt lat="45.528970038571245" lon="11.437795467377923"><ele>43.0</ele><time>2026-03-26T17:03:23.997Z</time></trkpt><trkpt lat="45.52903213821682" lon="11.437915800176002"><ele>43.0</ele><time>2026-03-26T17:03:24.997Z</time></trkpt><trkpt lat="45.52909070438812" lon="11.438021762416549"><ele>43.0</ele><time>2026-03-26T17:03:25.997Z</time></trkpt><trkpt lat="45.52915012850447" lon="11.438135325632818"><ele>43.0</ele><time>2026-03-26T17:03:26.997Z</time></trkpt><trkpt lat="45.52921352983349" lon="11.438255197489383"><ele>43.0</ele><time>2026-03-26T17:03:28Z</time></trkpt><trkpt lat="45.52925901092558" lon="11.43837528285847"><ele>43.0</ele><time>2026-03-26T17:03:29Z</time></trkpt><trkpt lat="45.52929217080772" lon="11.438505142434897"><ele>43.0</ele><time>2026-03-26T17:03:30Z</time></trkpt><trkpt lat="45.52932062278535" lon="11.438659835836708"><ele>43.0</ele><time>2026-03-26T17:03:31Z</time></trkpt><trkpt lat="45.529330362214175" lon="11.438804977146841"><ele>43.0</ele><time>2026-03-26T17:03:32Z</time></trkpt><trkpt lat="45.52933227689485" lon="11.438944198029345"><ele>43.0</ele><time>2026-03-26T17:03:33Z</time></trkpt><trkpt lat="45.52933254913543" lon="11.439090649448625"><ele>43.0</ele><time>2026-03-26T17:03:34Z</time></trkpt><trkpt lat="45.52933048605651" lon="11.43924162726302"><ele>43.2</ele><time>2026-03-26T17:03:35Z</time></trkpt><trkpt lat="45.52932855935185" lon="11.439395755323195"><ele>43.4</ele><time>2026-03-26T17:03:36Z</time></trkpt><trkpt lat="45.52933073769412" lon="11.439527477176057"><ele>43.6</ele><time>2026-03-26T17:03:37Z</time></trkpt><trkpt lat="45.52933314992817" lon="11.439652882294316"><ele>43.800000000000004</ele><time>2026-03-26T17:03:38Z</time></trkpt><trkpt lat="45.529347660286334" lon="11.439817788718546"><ele>44.0</ele><time>2026-03-26T17:03:39Z</time></trkpt><trkpt lat="45.529359904380385" lon="11.439978477201679"><ele>44.0</ele><time>2026-03-26T17:03:40Z</time></trkpt><trkpt lat="45.529378561298614" lon="11.440137898053303"><ele>44.0</ele><time>2026-03-26T17:03:41Z</time></trkpt><trkpt lat="45.52943316110932" lon="11.440466159818303"><ele>44.0</ele><time>2026-03-26T17:03:43Z</time></trkpt><trkpt lat="45.52946182210732" lon="11.440620027356843"><ele>44.0</ele><time>2026-03-26T17:03:44Z</time></trkpt><trkpt lat="45.529486829267064" lon="11.440777619655012"><ele>44.0</ele><time>2026-03-26T17:03:45Z</time></trkpt><trkpt lat="45.529533208897774" lon="11.44093427419812"><ele>44.0</ele><time>2026-03-26T17:03:46Z</time></trkpt><trkpt lat="45.52959759868036" lon="11.441215944367595"><ele>44.0</ele><time>2026-03-26T17:03:48Z</time></trkpt><trkpt lat="45.52962950482262" lon="11.441352040404198"><ele>44.0</ele><time>2026-03-26T17:03:49Z</time></trkpt><trkpt lat="45.529665695939805" lon="11.44150121514366"><ele>44.0</ele><time>2026-03-26T17:03:50Z</time></trkpt><trkpt lat="45.52970387549" lon="11.4416237023256"><ele>44.0</ele><time>2026-03-26T17:03:51Z</time></trkpt><trkpt lat="45.52974443604258" lon="11.441759210929922"><ele>44.0</ele><time>2026-03-26T17:03:52Z</time></trkpt><trkpt lat="45.52979213625474" lon="11.441889642117333"><ele>44.0</ele><time>2026-03-26T17:03:53Z</time></trkpt><trkpt lat="45.5298433877776" lon="11.442014832336024"><ele>44.0</ele><time>2026-03-26T17:03:54Z</time></trkpt><trkpt lat="45.52989427999881" lon="11.44215242798922"><ele>44.0</ele><time>2026-03-26T17:03:55Z</time></trkpt><trkpt lat="45.52994426212999" lon="11.442294447303082"><ele>44.0</ele><time>2026-03-26T17:03:55.999Z</time></trkpt><trkpt lat="45.52999571724735" lon="11.442435879771677"><ele>44.0</ele><time>2026-03-26T17:03:56.999Z</time></trkpt><trkpt lat="45.530041678744546" lon="11.442563875187785"><ele>44.0</ele><time>2026-03-26T17:03:57.999Z</time></trkpt><trkpt lat="45.53008464458611" lon="11.442676536544441"><ele>44.0</ele><time>2026-03-26T17:03:58.999Z</time></trkpt><trkpt lat="45.53012211250593" lon="11.442778897120736"><ele>44.0</ele><time>2026-03-26T17:03:59.999Z</time></trkpt><trkpt lat="45.530156296236065" lon="11.442888911988565"><ele>44.0</ele><time>2026-03-26T17:04:00.999Z</time></trkpt><trkpt lat="45.53019040044133" lon="11.443000760203793"><ele>44.0</ele><time>2026-03-26T17:04:01.999Z</time></trkpt><trkpt lat="45.530224742829915" lon="11.443121128591072"><ele>44.0</ele><time>2026-03-26T17:04:02.999Z</time></trkpt><trkpt lat="45.53025058995542" lon="11.44323984628961"><ele>44.0</ele><time>2026-03-26T17:04:03.999Z</time></trkpt><trkpt lat="45.530274930998445" lon="11.443360091734204"><ele>44.166666666666664</ele><time>2026-03-26T17:04:04.999Z</time></trkpt><trkpt lat="45.53030494776444" lon="11.443483329101637"><ele>44.33333333333333</ele><time>2026-03-26T17:04:05.999Z</time></trkpt><trkpt lat="45.5303337377418" lon="11.443615632091628"><ele>44.5</ele><time>2026-03-26T17:04:06.999Z</time></trkpt><trkpt lat="45.53035500588096" lon="11.443745694144694"><ele>44.666666666666664</ele><time>2026-03-26T17:04:07.999Z</time></trkpt><trkpt lat="45.530378016869534" lon="11.443860938800256"><ele>44.833333333333336</ele><time>2026-03-26T17:04:08.999Z</time></trkpt><trkpt lat="45.5303933025028" lon="11.443968116821672"><ele>45.0</ele><time>2026-03-26T17:04:09.999Z</time></trkpt><trkpt lat="45.53039211449213" lon="11.444075888504711"><ele>44.5</ele><time>2026-03-26T17:04:10.999Z</time></trkpt><trkpt lat="45.530404472571846" lon="11.444166202910539"><ele>44.0</ele><time>2026-03-26T17:04:11.999Z</time></trkpt><trkpt lat="45.53042228004036" lon="11.444252867569103"><ele>43.5</ele><time>2026-03-26T17:04:12.999Z</time></trkpt><trkpt lat="45.53044243178328" lon="11.44440270164461"><ele>43.0</ele><time>2026-03-26T17:04:14.999Z</time></trkpt><trkpt lat="45.530460296532624" lon="11.44452556630899"><ele>42.5</ele><time>2026-03-26T17:04:16.999Z</time></trkpt><trkpt lat="45.53046810901922" lon="11.444643567134726"><ele>42.0</ele><time>2026-03-26T17:04:18.999Z</time></trkpt><trkpt lat="45.530480180558705" lon="11.444786797663303"><ele>43.25</ele><time>2026-03-26T17:04:20.999Z</time></trkpt><trkpt lat="45.53034285365099" lon="11.44485942618321"><ele>44.5</ele><time>2026-03-26T17:04:21.999Z</time></trkpt><trkpt lat="45.530265395285326" lon="11.444942036087737"><ele>45.75</ele><time>2026-03-26T17:04:22.999Z</time></trkpt><trkpt lat="45.53018695714671" lon="11.445030805198149"><ele>47.0</ele><time>2026-03-26T17:04:23.999Z</time></trkpt><trkpt lat="45.53010617088719" lon="11.445143824205838"><ele>47.0</ele><time>2026-03-26T17:04:24.999Z</time></trkpt><trkpt lat="45.530012484294396" lon="11.445270420700915"><ele>47.0</ele><time>2026-03-26T17:04:25.999Z</time></trkpt><trkpt lat="45.52993421294758" lon="11.445368252298328"><ele>47.0</ele><time>2026-03-26T17:04:26.999Z</time></trkpt><trkpt lat="45.52985359933511" lon="11.445467312352855"><ele>47.0</ele><time>2026-03-26T17:04:27.999Z</time></trkpt><trkpt lat="45.52977771157929" lon="11.445566076176286"><ele>47.0</ele><time>2026-03-26T17:04:28.999Z</time></trkpt><trkpt lat="45.52970150309868" lon="11.445667494800892"><ele>47.0</ele><time>2026-03-26T17:04:29.999Z</time></trkpt><trkpt lat="45.52962771555143" lon="11.445764564094087"><ele>47.0</ele><time>2026-03-26T17:04:30.999Z</time></trkpt><trkpt lat="45.529557015644365" lon="11.445858240860096"><ele>47.0</ele><time>2026-03-26T17:04:31.999Z</time></trkpt><trkpt lat="45.5294833950334" lon="11.44594809889007"><ele>47.0</ele><time>2026-03-26T17:04:32.999Z</time></trkpt><trkpt lat="45.529408137851156" lon="11.446036737502483"><ele>47.0</ele><time>2026-03-26T17:04:33.999Z</time></trkpt><trkpt lat="45.52932876310803" lon="11.446109474556708"><ele>47.0</ele><time>2026-03-26T17:04:34.998Z</time></trkpt><trkpt lat="45.52925087575972" lon="11.446173877496397"><ele>47.0</ele><time>2026-03-26T17:04:35.998Z</time></trkpt><trkpt lat="45.52917997121962" lon="11.44624466674561"><ele>47.0</ele><time>2026-03-26T17:04:36.998Z</time></trkpt><trkpt lat="45.529103458004066" lon="11.446283579237518"><ele>47.0</ele><time>2026-03-26T17:04:37.998Z</time></trkpt><trkpt lat="45.52900696861384" lon="11.44635687139158"><ele>47.0</ele><time>2026-03-26T17:04:39.998Z</time></trkpt><trkpt lat="45.528905162661374" lon="11.446441562549536"><ele>47.0</ele><time>2026-03-26T17:04:41.998Z</time></trkpt><trkpt lat="45.52882045070056" lon="11.446497158136399"><ele>47.0</ele><time>2026-03-26T17:04:43.998Z</time></trkpt><trkpt lat="45.52873349063823" lon="11.446564017136918"><ele>47.0</ele><time>2026-03-26T17:04:45.998Z</time></trkpt><trkpt lat="45.52865036289768" lon="11.446613739442663"><ele>47.0</ele><time>2026-03-26T17:04:47.998Z</time></trkpt><trkpt lat="45.5285905197104" lon="11.44667156197501"><ele>47.0</ele><time>2026-03-26T17:04:51.998Z</time></trkpt><trkpt lat="45.52853114615905" lon="11.44670920458861"><ele>47.0</ele><time>2026-03-26T17:05:15.997Z</time></trkpt><trkpt lat="45.52846803131414" lon="11.4467521255366"><ele>47.0</ele><time>2026-03-26T17:05:20.997Z</time></trkpt><trkpt lat="45.52833676441239" lon="11.446804012469034"><ele>47.0</ele><time>2026-03-26T17:05:35Z</time></trkpt><trkpt lat="45.52824977680799" lon="11.446880037425437"><ele>47.0</ele><time>2026-03-26T17:05:36Z</time></trkpt><trkpt lat="45.52814590398259" lon="11.446908755849503"><ele>47.0</ele><time>2026-03-26T17:05:37Z</time></trkpt><trkpt lat="45.528020134840844" lon="11.44693812238835"><ele>46.5</ele><time>2026-03-26T17:05:38Z</time></trkpt><trkpt lat="45.52789341491844" lon="11.446977711023694"><ele>46.0</ele><time>2026-03-26T17:05:39Z</time></trkpt><trkpt lat="45.52773859467244" lon="11.447015911044844"><ele>45.5</ele><time>2026-03-26T17:05:40Z</time></trkpt><trkpt lat="45.52758133730761" lon="11.447044168321934"><ele>45.0</ele><time>2026-03-26T17:05:41Z</time></trkpt><trkpt lat="45.527423727476666" lon="11.447080982635711"><ele>44.666666666666664</ele><time>2026-03-26T17:05:42Z</time></trkpt><trkpt lat="45.52726799283223" lon="11.447131462605592"><ele>44.33333333333333</ele><time>2026-03-26T17:05:43Z</time></trkpt><trkpt lat="45.527110648916114" lon="11.447175971043297"><ele>44.0</ele><time>2026-03-26T17:05:44Z</time></trkpt><trkpt lat="45.52695428012251" lon="11.447220380308186"><ele>43.666666666666664</ele><time>2026-03-26T17:05:45Z</time></trkpt><trkpt lat="45.526799835533424" lon="11.447265559665782"><ele>43.333333333333336</ele><time>2026-03-26T17:05:46Z</time></trkpt><trkpt lat="45.526651260652166" lon="11.447308925636197"><ele>43.0</ele><time>2026-03-26T17:05:47Z</time></trkpt><trkpt lat="45.526502808390916" lon="11.447353176653342"><ele>43.0</ele><time>2026-03-26T17:05:48Z</time></trkpt><trkpt lat="45.52636826744152" lon="11.447399678281778"><ele>43.0</ele><time>2026-03-26T17:05:49Z</time></trkpt><trkpt lat="45.52624995120531" lon="11.447443221206418"><ele>43.0</ele><time>2026-03-26T17:05:50Z</time></trkpt><trkpt lat="45.52614937448044" lon="11.44746886272605"><ele>43.0</ele><time>2026-03-26T17:05:51Z</time></trkpt><trkpt lat="45.52605414370033" lon="11.447490280921617"><ele>43.2</ele><time>2026-03-26T17:05:52Z</time></trkpt><trkpt lat="45.525964695993906" lon="11.447487821234407"><ele>43.4</ele><time>2026-03-26T17:05:53Z</time></trkpt><trkpt lat="45.52588681010257" lon="11.447444451901582"><ele>43.6</ele><time>2026-03-26T17:05:54Z</time></trkpt><trkpt lat="45.52582635054897" lon="11.447363452555326"><ele>43.800000000000004</ele><time>2026-03-26T17:05:55Z</time></trkpt><trkpt lat="45.52576304799717" lon="11.447360622757191"><ele>44.0</ele><time>2026-03-26T17:05:56Z</time></trkpt><trkpt lat="45.525657070116026" lon="11.447602408127123"><ele>44.0</ele><time>2026-03-26T17:05:58Z</time></trkpt><trkpt lat="45.52558931804197" lon="11.447703746941336"><ele>44.0</ele><time>2026-03-26T17:05:59Z</time></trkpt><trkpt lat="45.52547885480482" lon="11.447735206175857"><ele>44.0</ele><time>2026-03-26T17:06:00Z</time></trkpt><trkpt lat="45.52536628719802" lon="11.447802188575828"><ele>44.0</ele><time>2026-03-26T17:06:01Z</time></trkpt><trkpt lat="45.52524220982168" lon="11.447852856893519"><ele>44.25</ele><time>2026-03-26T17:06:02Z</time></trkpt><trkpt lat="45.5250994400269" lon="11.447922825073457"><ele>44.5</ele><time>2026-03-26T17:06:02.999Z</time></trkpt><trkpt lat="45.52495641676828" lon="11.44799478673497"><ele>44.75</ele><time>2026-03-26T17:06:03.999Z</time></trkpt><trkpt lat="45.52483394100953" lon="11.448053813089533"><ele>45.0</ele><time>2026-03-26T17:06:04.999Z</time></trkpt><trkpt lat="45.52472009553149" lon="11.448101764993186"><ele>45.0</ele><time>2026-03-26T17:06:05.999Z</time></trkpt><trkpt lat="45.52462057966165" lon="11.448161972527606"><ele>45.0</ele><time>2026-03-26T17:06:06.999Z</time></trkpt><trkpt lat="45.52453494817881" lon="11.448210972130862"><ele>45.0</ele><time>2026-03-26T17:06:07.999Z</time></trkpt><trkpt lat="45.52446488581668" lon="11.448241325343679"><ele>45.0</ele><time>2026-03-26T17:06:08.999Z</time></trkpt><trkpt lat="45.52440393641841" lon="11.448264727239518"><ele>45.0</ele><time>2026-03-26T17:06:09.999Z</time></trkpt><trkpt lat="45.52433383963564" lon="11.448271893535118"><ele>45.0</ele><time>2026-03-26T17:06:10.999Z</time></trkpt><trkpt lat="45.52424751579688" lon="11.448257781189131"><ele>45.0</ele><time>2026-03-26T17:06:11.999Z</time></trkpt><trkpt lat="45.52417614374842" lon="11.448256103776872"><ele>45.0</ele><time>2026-03-26T17:06:12.999Z</time></trkpt><trkpt lat="45.52411394978631" lon="11.448285456162461"><ele>45.0</ele><time>2026-03-26T17:06:13.999Z</time></trkpt><trkpt lat="45.52405347299152" lon="11.448364682085836"><ele>45.0</ele><time>2026-03-26T17:06:14.999Z</time></trkpt><trkpt lat="45.52399635582139" lon="11.448444529955724"><ele>45.0</ele><time>2026-03-26T17:06:15.999Z</time></trkpt><trkpt lat="45.52393153195532" lon="11.448507202183613"><ele>45.0</ele><time>2026-03-26T17:06:16.999Z</time></trkpt><trkpt lat="45.52381862298989" lon="11.448558668623193"><ele>45.0</ele><time>2026-03-26T17:06:17.999Z</time></trkpt><trkpt lat="45.5236762751735" lon="11.448627443954056"><ele>45.0</ele><time>2026-03-26T17:06:18.999Z</time></trkpt><trkpt lat="45.523504774443424" lon="11.448712804591327"><ele>45.0</ele><time>2026-03-26T17:06:19.999Z</time></trkpt><trkpt lat="45.52331664961771" lon="11.448807852878039"><ele>44.666666666666664</ele><time>2026-03-26T17:06:20.999Z</time></trkpt><trkpt lat="45.523108047354974" lon="11.44894403696434"><ele>44.33333333333333</ele><time>2026-03-26T17:06:21.999Z</time></trkpt><trkpt lat="45.52291823636632" lon="11.449025485621352"><ele>44.0</ele><time>2026-03-26T17:06:22.999Z</time></trkpt><trkpt lat="45.52275480973954" lon="11.449143805616554"><ele>44.0</ele><time>2026-03-26T17:06:23.999Z</time></trkpt><trkpt lat="45.522588696469455" lon="11.449236044499315"><ele>44.0</ele><time>2026-03-26T17:06:24.999Z</time></trkpt><trkpt lat="45.52243357695948" lon="11.449328709740604"><ele>44.0</ele><time>2026-03-26T17:06:25.999Z</time></trkpt><trkpt lat="45.522301472770415" lon="11.449410567798402"><ele>44.0</ele><time>2026-03-26T17:06:26.999Z</time></trkpt><trkpt lat="45.522184095956696" lon="11.449453807861282"><ele>44.0</ele><time>2026-03-26T17:06:27.999Z</time></trkpt><trkpt lat="45.52209597206478" lon="11.449529852207151"><ele>44.0</ele><time>2026-03-26T17:06:28.999Z</time></trkpt><trkpt lat="45.52200922215988" lon="11.449556279726028"><ele>44.0</ele><time>2026-03-26T17:06:29.999Z</time></trkpt><trkpt lat="45.521929488459364" lon="11.449603001527702"><ele>44.0</ele><time>2026-03-26T17:06:31.999Z</time></trkpt><trkpt lat="45.52199227064229" lon="11.449819675605447"><ele>44.166666666666664</ele><time>2026-03-26T17:06:32.999Z</time></trkpt><trkpt lat="45.522043866122864" lon="11.449990621263927"><ele>44.33333333333333</ele><time>2026-03-26T17:06:34.999Z</time></trkpt><trkpt lat="45.52207867594782" lon="11.450085459921688"><ele>44.5</ele><time>2026-03-26T17:06:35.999Z</time></trkpt><trkpt lat="45.52211295511635" lon="11.450175770278399"><ele>44.666666666666664</ele><time>2026-03-26T17:06:36.999Z</time></trkpt><trkpt lat="45.522153014217544" lon="11.450272301552687"><ele>44.833333333333336</ele><time>2026-03-26T17:06:37.999Z</time></trkpt><trkpt lat="45.52218131618942" lon="11.450362801152215"><ele>45.0</ele><time>2026-03-26T17:06:38.999Z</time></trkpt><trkpt lat="45.52221727263319" lon="11.450461079057131"><ele>45.0</ele><time>2026-03-26T17:06:39.999Z</time></trkpt><trkpt lat="45.52225728879234" lon="11.450571206162243"><ele>45.0</ele><time>2026-03-26T17:06:40.999Z</time></trkpt><trkpt lat="45.52230455548097" lon="11.450716681297935"><ele>45.0</ele><time>2026-03-26T17:06:41.999Z</time></trkpt><trkpt lat="45.52235748420707" lon="11.450857075651435"><ele>45.0</ele><time>2026-03-26T17:06:42.998Z</time></trkpt><trkpt lat="45.52241275143292" lon="11.451014881339992"><ele>45.0</ele><time>2026-03-26T17:06:43.998Z</time></trkpt><trkpt lat="45.52246788484351" lon="11.45116942460957"><ele>45.0</ele><time>2026-03-26T17:06:44.998Z</time></trkpt><trkpt lat="45.52252290061861" lon="11.451328141641252"><ele>45.0</ele><time>2026-03-26T17:06:45.998Z</time></trkpt><trkpt lat="45.52257392221314" lon="11.451490548926552"><ele>45.0</ele><time>2026-03-26T17:06:46.998Z</time></trkpt><trkpt lat="45.522633194043486" lon="11.45165233557782"><ele>45.0</ele><time>2026-03-26T17:06:47.998Z</time></trkpt><trkpt lat="45.52269120488202" lon="11.451818060035137"><ele>45.0</ele><time>2026-03-26T17:06:48.998Z</time></trkpt><trkpt lat="45.52275242829149" lon="11.451984312685171"><ele>45.0</ele><time>2026-03-26T17:06:49.998Z</time></trkpt><trkpt lat="45.522814507815085" lon="11.452155921245511"><ele>45.0</ele><time>2026-03-26T17:06:50.998Z</time></trkpt><trkpt lat="45.522874728709546" lon="11.452322013767366"><ele>45.0</ele><time>2026-03-26T17:06:51.998Z</time></trkpt><trkpt lat="45.522929791426854" lon="11.452481402608806"><ele>44.75</ele><time>2026-03-26T17:06:52.998Z</time></trkpt><trkpt lat="45.5229850016431" lon="11.452637275121747"><ele>44.5</ele><time>2026-03-26T17:06:53.998Z</time></trkpt><trkpt lat="45.523041561552034" lon="11.452799833410575"><ele>44.25</ele><time>2026-03-26T17:06:54.998Z</time></trkpt><trkpt lat="45.523102213578404" lon="11.452960685097338"><ele>44.0</ele><time>2026-03-26T17:06:55.998Z</time></trkpt><trkpt lat="45.52315579438498" lon="11.453130955249398"><ele>43.75</ele><time>2026-03-26T17:06:56.998Z</time></trkpt><trkpt lat="45.52321355842951" lon="11.453295299082251"><ele>43.5</ele><time>2026-03-26T17:06:57.998Z</time></trkpt><trkpt lat="45.52326286951423" lon="11.453435742316318"><ele>43.25</ele><time>2026-03-26T17:06:58.998Z</time></trkpt><trkpt lat="45.52331727298083" lon="11.453582233081047"><ele>43.0</ele><time>2026-03-26T17:06:59.998Z</time></trkpt><trkpt lat="45.523372569738854" lon="11.453726464463355"><ele>42.4</ele><time>2026-03-26T17:07:00.998Z</time></trkpt><trkpt lat="45.52341982417688" lon="11.453862365756665"><ele>41.8</ele><time>2026-03-26T17:07:01.998Z</time></trkpt><trkpt lat="45.52347356074268" lon="11.454005598537039"><ele>41.2</ele><time>2026-03-26T17:07:02.998Z</time></trkpt><trkpt lat="45.52352488170588" lon="11.454135875989731"><ele>40.6</ele><time>2026-03-26T17:07:03.998Z</time></trkpt><trkpt lat="45.52357199082298" lon="11.454264919828889"><ele>40.0</ele><time>2026-03-26T17:07:04.998Z</time></trkpt><trkpt lat="45.52361039424543" lon="11.454408539276864"><ele>40.0</ele><time>2026-03-26T17:07:05.998Z</time></trkpt><trkpt lat="45.52365190517108" lon="11.454508389643118"><ele>40.0</ele><time>2026-03-26T17:07:06.998Z</time></trkpt><trkpt lat="45.523686857964684" lon="11.454619954940632"><ele>40.0</ele><time>2026-03-26T17:07:07.998Z</time></trkpt><trkpt lat="45.52373125863103" lon="11.454740622613762"><ele>40.0</ele><time>2026-03-26T17:07:08.998Z</time></trkpt><trkpt lat="45.52377102619057" lon="11.45484279767802"><ele>40.0</ele><time>2026-03-26T17:07:09.998Z</time></trkpt><trkpt lat="45.52380749652315" lon="11.454937691333734"><ele>40.0</ele><time>2026-03-26T17:07:10.998Z</time></trkpt><trkpt lat="45.52384215861235" lon="11.455026868893947"><ele>40.75</ele><time>2026-03-26T17:07:11.998Z</time></trkpt><trkpt lat="45.52388301224642" lon="11.455149427516577"><ele>41.5</ele><time>2026-03-26T17:07:13.998Z</time></trkpt><trkpt lat="45.52391298428241" lon="11.455242044012195"><ele>42.25</ele><time>2026-03-26T17:07:16.998Z</time></trkpt><trkpt lat="45.52414156610226" lon="11.455169231321046"><ele>43.0</ele><time>2026-03-26T17:07:18.998Z</time></trkpt><trkpt lat="45.52421482459573" lon="11.455109909165143"><ele>43.0</ele><time>2026-03-26T17:07:19.998Z</time></trkpt><trkpt lat="45.52431101708465" lon="11.455350597964975"><ele>43.0</ele><time>2026-03-26T17:07:21.997Z</time></trkpt><trkpt lat="45.52436181208906" lon="11.455453899875579"><ele>43.0</ele><time>2026-03-26T17:07:22.997Z</time></trkpt><trkpt lat="45.524316247482126" lon="11.455596001741485"><ele>43.0</ele><time>2026-03-26T17:07:24.997Z</time></trkpt><trkpt lat="45.52421589834369" lon="11.455594379881918"><ele>42.0</ele><time>2026-03-26T17:07:26.997Z</time></trkpt><trkpt lat="45.524199359297526" lon="11.455488534413169"><ele>42.0</ele><time>2026-03-26T17:07:28.997Z</time></trkpt></trkseg></trk></gpx>